<?xml version="1.0" encoding="UTF-8" standalone="no" ?>
<gpx xmlns="http://www.topografix.com/GPX/1/1" xmlns:xsi="http://www.w3.org/2001/XMLSchema-instance" xsi:schemaLocation="http://www.topografix.com/GPX/1/1 http://www.topografix.com/GPX/1/1/gpx.xsd" version="1.1" creator="VisuGPX - https://www.visugpx.com">
  <metadata>
    <name>20210626_Alco_St_Paul_Laboissiere_Montarnaud_52km</name>
    <desc><![CDATA[Aller par les chemins et sentiers, retour au plus court par la route entre Montarnaud et BelAir]]></desc>
  </metadata>
  <trk>
    <name><![CDATA[20210626_100301]]></name>
    <extensions>
      <line xmlns="http://www.topografix.com/GPX/gpx_style/0/2">
        <color>0000FF</color>
        <width>4</width>
      </line>
    </extensions>
    <trkseg>
      <trkpt lat="43.62419" lon="3.83679">
        <ele>77.1</ele>
        <time>2021-06-26T08:03:06Z</time>
      </trkpt>
      <trkpt lat="43.62428" lon="3.8367">
        <ele>81.511581</ele>
        <time>2021-06-26T08:03:11Z</time>
      </trkpt>
      <trkpt lat="43.6244" lon="3.83664">
        <ele>81.042625</ele>
        <time>2021-06-26T08:03:16Z</time>
      </trkpt>
      <trkpt lat="43.62452" lon="3.8366">
        <ele>80.47683</ele>
        <time>2021-06-26T08:03:21Z</time>
      </trkpt>
      <trkpt lat="43.62463" lon="3.83656">
        <ele>79.970985</ele>
        <time>2021-06-26T08:03:26Z</time>
      </trkpt>
      <trkpt lat="43.62477" lon="3.8365">
        <ele>79.487099</ele>
        <time>2021-06-26T08:03:31Z</time>
      </trkpt>
      <trkpt lat="43.62491" lon="3.83637">
        <ele>78.949638</ele>
        <time>2021-06-26T08:03:36Z</time>
      </trkpt>
      <trkpt lat="43.62496" lon="3.83619">
        <ele>78.485199</ele>
        <time>2021-06-26T08:03:41Z</time>
      </trkpt>
      <trkpt lat="43.62506" lon="3.83608">
        <ele>78.14946</ele>
        <time>2021-06-26T08:03:46Z</time>
      </trkpt>
      <trkpt lat="43.62523" lon="3.83609">
        <ele>77.874413</ele>
        <time>2021-06-26T08:03:51Z</time>
      </trkpt>
      <trkpt lat="43.62538" lon="3.83617">
        <ele>77.531349</ele>
        <time>2021-06-26T08:03:56Z</time>
      </trkpt>
      <trkpt lat="43.62552" lon="3.8362">
        <ele>77.214417</ele>
        <time>2021-06-26T08:04:01Z</time>
      </trkpt>
      <trkpt lat="43.62568" lon="3.83615">
        <ele>77.169914</ele>
        <time>2021-06-26T08:04:06Z</time>
      </trkpt>
      <trkpt lat="43.62573" lon="3.83599">
        <ele>77.296608</ele>
        <time>2021-06-26T08:04:11Z</time>
      </trkpt>
      <trkpt lat="43.62565" lon="3.83584">
        <ele>77.478333</ele>
        <time>2021-06-26T08:04:16Z</time>
      </trkpt>
      <trkpt lat="43.62549" lon="3.83566">
        <ele>77.903069</ele>
        <time>2021-06-26T08:04:21Z</time>
      </trkpt>
      <trkpt lat="43.62535" lon="3.83551">
        <ele>78.087051</ele>
        <time>2021-06-26T08:04:26Z</time>
      </trkpt>
      <trkpt lat="43.6253" lon="3.83531">
        <ele>78.065918</ele>
        <time>2021-06-26T08:04:31Z</time>
      </trkpt>
      <trkpt lat="43.62522" lon="3.83511">
        <ele>77.979012</ele>
        <time>2021-06-26T08:04:36Z</time>
      </trkpt>
      <trkpt lat="43.62514" lon="3.83492">
        <ele>77.887207</ele>
        <time>2021-06-26T08:04:41Z</time>
      </trkpt>
      <trkpt lat="43.62507" lon="3.83475">
        <ele>77.768738</ele>
        <time>2021-06-26T08:04:46Z</time>
      </trkpt>
      <trkpt lat="43.62506" lon="3.83451">
        <ele>77.466499</ele>
        <time>2021-06-26T08:04:51Z</time>
      </trkpt>
      <trkpt lat="43.62513" lon="3.83425">
        <ele>77.162933</ele>
        <time>2021-06-26T08:04:56Z</time>
      </trkpt>
      <trkpt lat="43.62517" lon="3.83397">
        <ele>77.147209</ele>
        <time>2021-06-26T08:05:01Z</time>
      </trkpt>
      <trkpt lat="43.62526" lon="3.8337">
        <ele>77.595299</ele>
        <time>2021-06-26T08:05:06Z</time>
      </trkpt>
      <trkpt lat="43.62534" lon="3.83346">
        <ele>78.359047</ele>
        <time>2021-06-26T08:05:11Z</time>
      </trkpt>
      <trkpt lat="43.6254" lon="3.83322">
        <ele>78.949539</ele>
        <time>2021-06-26T08:05:16Z</time>
      </trkpt>
      <trkpt lat="43.62546" lon="3.83297">
        <ele>79.65023</ele>
        <time>2021-06-26T08:05:21Z</time>
      </trkpt>
      <trkpt lat="43.62554" lon="3.83276">
        <ele>80.502846</ele>
        <time>2021-06-26T08:05:26Z</time>
      </trkpt>
      <trkpt lat="43.6257" lon="3.8327">
        <ele>81.162682</ele>
        <time>2021-06-26T08:05:31Z</time>
      </trkpt>
      <trkpt lat="43.62582" lon="3.83248">
        <ele>82.254478</ele>
        <time>2021-06-26T08:05:36Z</time>
      </trkpt>
      <trkpt lat="43.62594" lon="3.83227">
        <ele>83.282799</ele>
        <time>2021-06-26T08:05:41Z</time>
      </trkpt>
      <trkpt lat="43.62608" lon="3.83212">
        <ele>84.250488</ele>
        <time>2021-06-26T08:05:46Z</time>
      </trkpt>
      <trkpt lat="43.62614" lon="3.83195">
        <ele>84.980957</ele>
        <time>2021-06-26T08:05:51Z</time>
      </trkpt>
      <trkpt lat="43.62616" lon="3.83172">
        <ele>85.180092</ele>
        <time>2021-06-26T08:05:56Z</time>
      </trkpt>
      <trkpt lat="43.62623" lon="3.83152">
        <ele>85.025879</ele>
        <time>2021-06-26T08:06:01Z</time>
      </trkpt>
      <trkpt lat="43.62632" lon="3.83136">
        <ele>84.953125</ele>
        <time>2021-06-26T08:06:06Z</time>
      </trkpt>
      <trkpt lat="43.62636" lon="3.83113">
        <ele>84.556633</ele>
        <time>2021-06-26T08:06:11Z</time>
      </trkpt>
      <trkpt lat="43.62637" lon="3.83089">
        <ele>83.352646</ele>
        <time>2021-06-26T08:06:16Z</time>
      </trkpt>
      <trkpt lat="43.62641" lon="3.83062">
        <ele>82.413063</ele>
        <time>2021-06-26T08:06:21Z</time>
      </trkpt>
      <trkpt lat="43.62643" lon="3.83035">
        <ele>80.302345</ele>
        <time>2021-06-26T08:06:26Z</time>
      </trkpt>
      <trkpt lat="43.62652" lon="3.83013">
        <ele>77.41803</ele>
        <time>2021-06-26T08:06:31Z</time>
      </trkpt>
      <trkpt lat="43.62666" lon="3.83018">
        <ele>75.63871</ele>
        <time>2021-06-26T08:06:36Z</time>
      </trkpt>
      <trkpt lat="43.62677" lon="3.83021">
        <ele>75.58812</ele>
        <time>2021-06-26T08:06:41Z</time>
      </trkpt>
      <trkpt lat="43.62687" lon="3.83025">
        <ele>76.038338</ele>
        <time>2021-06-26T08:06:46Z</time>
      </trkpt>
      <trkpt lat="43.62701" lon="3.8303">
        <ele>76.572983</ele>
        <time>2021-06-26T08:06:51Z</time>
      </trkpt>
      <trkpt lat="43.62715" lon="3.83034">
        <ele>77.140045</ele>
        <time>2021-06-26T08:06:56Z</time>
      </trkpt>
      <trkpt lat="43.62729" lon="3.8304">
        <ele>77.694954</ele>
        <time>2021-06-26T08:07:01Z</time>
      </trkpt>
      <trkpt lat="43.62739" lon="3.83047">
        <ele>78.351067</ele>
        <time>2021-06-26T08:07:06Z</time>
      </trkpt>
      <trkpt lat="43.62751" lon="3.83055">
        <ele>79.074226</ele>
        <time>2021-06-26T08:07:11Z</time>
      </trkpt>
      <trkpt lat="43.62759" lon="3.83067">
        <ele>79.698242</ele>
        <time>2021-06-26T08:07:16Z</time>
      </trkpt>
      <trkpt lat="43.62769" lon="3.83081">
        <ele>80.746582</ele>
        <time>2021-06-26T08:07:21Z</time>
      </trkpt>
      <trkpt lat="43.62778" lon="3.83096">
        <ele>81.729118</ele>
        <time>2021-06-26T08:07:26Z</time>
      </trkpt>
      <trkpt lat="43.62795" lon="3.83094">
        <ele>82.87571</ele>
        <time>2021-06-26T08:07:31Z</time>
      </trkpt>
      <trkpt lat="43.62814" lon="3.83088">
        <ele>82.898781</ele>
        <time>2021-06-26T08:07:36Z</time>
      </trkpt>
      <trkpt lat="43.62832" lon="3.83086">
        <ele>82.538971</ele>
        <time>2021-06-26T08:07:41Z</time>
      </trkpt>
      <trkpt lat="43.62843" lon="3.83076">
        <ele>82.375465</ele>
        <time>2021-06-26T08:07:46Z</time>
      </trkpt>
      <trkpt lat="43.62842" lon="3.83053">
        <ele>81.83654</ele>
        <time>2021-06-26T08:07:51Z</time>
      </trkpt>
      <trkpt lat="43.62834" lon="3.83015">
        <ele>80.02726</ele>
        <time>2021-06-26T08:07:56Z</time>
      </trkpt>
      <trkpt lat="43.62833" lon="3.82975">
        <ele>77.672508</ele>
        <time>2021-06-26T08:08:01Z</time>
      </trkpt>
      <trkpt lat="43.62833" lon="3.8295">
        <ele>73.992432</ele>
        <time>2021-06-26T08:08:06Z</time>
      </trkpt>
      <trkpt lat="43.62835" lon="3.82925">
        <ele>71.486458</ele>
        <time>2021-06-26T08:08:11Z</time>
      </trkpt>
      <trkpt lat="43.6284" lon="3.82897">
        <ele>69.998604</ele>
        <time>2021-06-26T08:08:16Z</time>
      </trkpt>
      <trkpt lat="43.62845" lon="3.82872">
        <ele>67.83651</ele>
        <time>2021-06-26T08:08:21Z</time>
      </trkpt>
      <trkpt lat="43.62849" lon="3.82843">
        <ele>66.445496</ele>
        <time>2021-06-26T08:08:26Z</time>
      </trkpt>
      <trkpt lat="43.62867" lon="3.82833">
        <ele>65.243332</ele>
        <time>2021-06-26T08:08:31Z</time>
      </trkpt>
      <trkpt lat="43.62883" lon="3.82836">
        <ele>64.909554</ele>
        <time>2021-06-26T08:08:36Z</time>
      </trkpt>
      <trkpt lat="43.62878" lon="3.82834">
        <ele>65.377251</ele>
        <time>2021-06-26T08:08:41Z</time>
      </trkpt>
      <trkpt lat="43.62883" lon="3.82814">
        <ele>65.331902</ele>
        <time>2021-06-26T08:08:46Z</time>
      </trkpt>
      <trkpt lat="43.62901" lon="3.82802">
        <ele>64.774078</ele>
        <time>2021-06-26T08:08:51Z</time>
      </trkpt>
      <trkpt lat="43.62902" lon="3.82768">
        <ele>64.595276</ele>
        <time>2021-06-26T08:08:56Z</time>
      </trkpt>
      <trkpt lat="43.62919" lon="3.82739">
        <ele>63.542896</ele>
        <time>2021-06-26T08:09:01Z</time>
      </trkpt>
      <trkpt lat="43.6294" lon="3.82715">
        <ele>62.951508</ele>
        <time>2021-06-26T08:09:06Z</time>
      </trkpt>
      <trkpt lat="43.62957" lon="3.82693">
        <ele>62.87009</ele>
        <time>2021-06-26T08:09:11Z</time>
      </trkpt>
      <trkpt lat="43.62973" lon="3.82673">
        <ele>62.502132</ele>
        <time>2021-06-26T08:09:16Z</time>
      </trkpt>
      <trkpt lat="43.6299" lon="3.82654">
        <ele>62.085693</ele>
        <time>2021-06-26T08:09:21Z</time>
      </trkpt>
      <trkpt lat="43.63004" lon="3.82635">
        <ele>61.890949</ele>
        <time>2021-06-26T08:09:26Z</time>
      </trkpt>
      <trkpt lat="43.63025" lon="3.82634">
        <ele>61.880207</ele>
        <time>2021-06-26T08:09:31Z</time>
      </trkpt>
      <trkpt lat="43.63039" lon="3.82623">
        <ele>62.189419</ele>
        <time>2021-06-26T08:09:36Z</time>
      </trkpt>
      <trkpt lat="43.63041" lon="3.82596">
        <ele>62.419353</ele>
        <time>2021-06-26T08:09:41Z</time>
      </trkpt>
      <trkpt lat="43.63041" lon="3.82566">
        <ele>61.950695</ele>
        <time>2021-06-26T08:09:46Z</time>
      </trkpt>
      <trkpt lat="43.63041" lon="3.82538">
        <ele>60.573811</ele>
        <time>2021-06-26T08:09:51Z</time>
      </trkpt>
      <trkpt lat="43.63042" lon="3.82511">
        <ele>59.268635</ele>
        <time>2021-06-26T08:09:56Z</time>
      </trkpt>
      <trkpt lat="43.63043" lon="3.82483">
        <ele>58.484512</ele>
        <time>2021-06-26T08:10:01Z</time>
      </trkpt>
      <trkpt lat="43.63044" lon="3.82456">
        <ele>58.008816</ele>
        <time>2021-06-26T08:10:06Z</time>
      </trkpt>
      <trkpt lat="43.63047" lon="3.82429">
        <ele>57.488903</ele>
        <time>2021-06-26T08:10:11Z</time>
      </trkpt>
      <trkpt lat="43.63049" lon="3.82401">
        <ele>56.867596</ele>
        <time>2021-06-26T08:10:16Z</time>
      </trkpt>
      <trkpt lat="43.6305" lon="3.82373">
        <ele>56.256226</ele>
        <time>2021-06-26T08:10:21Z</time>
      </trkpt>
      <trkpt lat="43.63052" lon="3.82345">
        <ele>55.849697</ele>
        <time>2021-06-26T08:10:26Z</time>
      </trkpt>
      <trkpt lat="43.63056" lon="3.82317">
        <ele>55.48999</ele>
        <time>2021-06-26T08:10:31Z</time>
      </trkpt>
      <trkpt lat="43.63061" lon="3.82289">
        <ele>55.419025</ele>
        <time>2021-06-26T08:10:36Z</time>
      </trkpt>
      <trkpt lat="43.63063" lon="3.82262">
        <ele>55.74707</ele>
        <time>2021-06-26T08:10:41Z</time>
      </trkpt>
      <trkpt lat="43.63064" lon="3.82236">
        <ele>56.285419</ele>
        <time>2021-06-26T08:10:46Z</time>
      </trkpt>
      <trkpt lat="43.63066" lon="3.82211">
        <ele>56.664768</ele>
        <time>2021-06-26T08:10:51Z</time>
      </trkpt>
      <trkpt lat="43.63068" lon="3.82178">
        <ele>57.264393</ele>
        <time>2021-06-26T08:10:56Z</time>
      </trkpt>
      <trkpt lat="43.6307" lon="3.82146">
        <ele>57.802731</ele>
        <time>2021-06-26T08:11:01Z</time>
      </trkpt>
      <trkpt lat="43.63073" lon="3.82115">
        <ele>58.842529</ele>
        <time>2021-06-26T08:11:06Z</time>
      </trkpt>
      <trkpt lat="43.63075" lon="3.82078">
        <ele>59.665058</ele>
        <time>2021-06-26T08:11:11Z</time>
      </trkpt>
      <trkpt lat="43.63074" lon="3.82041">
        <ele>60.811066</ele>
        <time>2021-06-26T08:11:16Z</time>
      </trkpt>
      <trkpt lat="43.63077" lon="3.82008">
        <ele>61.404709</ele>
        <time>2021-06-26T08:11:21Z</time>
      </trkpt>
      <trkpt lat="43.63078" lon="3.81981">
        <ele>61.312588</ele>
        <time>2021-06-26T08:11:26Z</time>
      </trkpt>
      <trkpt lat="43.63082" lon="3.8196">
        <ele>61.026531</ele>
        <time>2021-06-26T08:11:31Z</time>
      </trkpt>
      <trkpt lat="43.63087" lon="3.81945">
        <ele>60.509476</ele>
        <time>2021-06-26T08:11:36Z</time>
      </trkpt>
      <trkpt lat="43.63092" lon="3.81919">
        <ele>60.129578</ele>
        <time>2021-06-26T08:11:41Z</time>
      </trkpt>
      <trkpt lat="43.63094" lon="3.81895">
        <ele>59.551762</ele>
        <time>2021-06-26T08:11:46Z</time>
      </trkpt>
      <trkpt lat="43.63092" lon="3.81873">
        <ele>59.610001</ele>
        <time>2021-06-26T08:11:51Z</time>
      </trkpt>
      <trkpt lat="43.63095" lon="3.81855">
        <ele>60.237778</ele>
        <time>2021-06-26T08:11:56Z</time>
      </trkpt>
      <trkpt lat="43.63098" lon="3.81844">
        <ele>60.999683</ele>
        <time>2021-06-26T08:12:01Z</time>
      </trkpt>
      <trkpt lat="43.63102" lon="3.81835">
        <ele>61.517059</ele>
        <time>2021-06-26T08:12:06Z</time>
      </trkpt>
      <trkpt lat="43.63102" lon="3.8182">
        <ele>61.940502</ele>
        <time>2021-06-26T08:12:11Z</time>
      </trkpt>
      <trkpt lat="43.63102" lon="3.81804">
        <ele>62.218586</ele>
        <time>2021-06-26T08:12:16Z</time>
      </trkpt>
      <trkpt lat="43.63106" lon="3.81785">
        <ele>62.583302</ele>
        <time>2021-06-26T08:12:21Z</time>
      </trkpt>
      <trkpt lat="43.63107" lon="3.81764">
        <ele>63.031494</ele>
        <time>2021-06-26T08:12:26Z</time>
      </trkpt>
      <trkpt lat="43.63105" lon="3.81744">
        <ele>62.878372</ele>
        <time>2021-06-26T08:12:31Z</time>
      </trkpt>
      <trkpt lat="43.63099" lon="3.81718">
        <ele>61.416767</ele>
        <time>2021-06-26T08:12:36Z</time>
      </trkpt>
      <trkpt lat="43.63094" lon="3.81699">
        <ele>59.948761</ele>
        <time>2021-06-26T08:12:41Z</time>
      </trkpt>
      <trkpt lat="43.63092" lon="3.81683">
        <ele>58.844822</ele>
        <time>2021-06-26T08:12:46Z</time>
      </trkpt>
      <trkpt lat="43.63094" lon="3.81667">
        <ele>56.811192</ele>
        <time>2021-06-26T08:12:51Z</time>
      </trkpt>
      <trkpt lat="43.63099" lon="3.81655">
        <ele>55.497467</ele>
        <time>2021-06-26T08:12:56Z</time>
      </trkpt>
      <trkpt lat="43.63116" lon="3.81653">
        <ele>54.764309</ele>
        <time>2021-06-26T08:13:01Z</time>
      </trkpt>
      <trkpt lat="43.63137" lon="3.81646">
        <ele>54.79137</ele>
        <time>2021-06-26T08:13:06Z</time>
      </trkpt>
      <trkpt lat="43.63153" lon="3.81636">
        <ele>54.617535</ele>
        <time>2021-06-26T08:13:11Z</time>
      </trkpt>
      <trkpt lat="43.63169" lon="3.81626">
        <ele>54.161682</ele>
        <time>2021-06-26T08:13:16Z</time>
      </trkpt>
      <trkpt lat="43.63185" lon="3.81611">
        <ele>54.267761</ele>
        <time>2021-06-26T08:13:21Z</time>
      </trkpt>
      <trkpt lat="43.63199" lon="3.81596">
        <ele>54.369907</ele>
        <time>2021-06-26T08:13:26Z</time>
      </trkpt>
      <trkpt lat="43.63214" lon="3.81579">
        <ele>54.369949</ele>
        <time>2021-06-26T08:13:31Z</time>
      </trkpt>
      <trkpt lat="43.63229" lon="3.81559">
        <ele>54.224575</ele>
        <time>2021-06-26T08:13:36Z</time>
      </trkpt>
      <trkpt lat="43.63244" lon="3.81542">
        <ele>54.215694</ele>
        <time>2021-06-26T08:13:41Z</time>
      </trkpt>
      <trkpt lat="43.63259" lon="3.81522">
        <ele>54.402225</ele>
        <time>2021-06-26T08:13:46Z</time>
      </trkpt>
      <trkpt lat="43.63274" lon="3.81505">
        <ele>54.453629</ele>
        <time>2021-06-26T08:13:51Z</time>
      </trkpt>
      <trkpt lat="43.63286" lon="3.8149">
        <ele>54.387592</ele>
        <time>2021-06-26T08:13:56Z</time>
      </trkpt>
      <trkpt lat="43.63297" lon="3.81477">
        <ele>54.744862</ele>
        <time>2021-06-26T08:14:01Z</time>
      </trkpt>
      <trkpt lat="43.6331" lon="3.81457">
        <ele>55.907444</ele>
        <time>2021-06-26T08:14:06Z</time>
      </trkpt>
      <trkpt lat="43.63322" lon="3.81438">
        <ele>57.22171</ele>
        <time>2021-06-26T08:14:11Z</time>
      </trkpt>
      <trkpt lat="43.63335" lon="3.81419">
        <ele>58.472561</ele>
        <time>2021-06-26T08:14:16Z</time>
      </trkpt>
      <trkpt lat="43.63352" lon="3.81402">
        <ele>59.485229</ele>
        <time>2021-06-26T08:14:21Z</time>
      </trkpt>
      <trkpt lat="43.63371" lon="3.81386">
        <ele>60.612286</ele>
        <time>2021-06-26T08:14:26Z</time>
      </trkpt>
      <trkpt lat="43.6339" lon="3.81373">
        <ele>62.048496</ele>
        <time>2021-06-26T08:14:31Z</time>
      </trkpt>
      <trkpt lat="43.6341" lon="3.81363">
        <ele>63.037167</ele>
        <time>2021-06-26T08:14:36Z</time>
      </trkpt>
      <trkpt lat="43.63428" lon="3.81351">
        <ele>63.810589</ele>
        <time>2021-06-26T08:14:41Z</time>
      </trkpt>
      <trkpt lat="43.63441" lon="3.8133">
        <ele>63.985214</ele>
        <time>2021-06-26T08:14:46Z</time>
      </trkpt>
      <trkpt lat="43.63453" lon="3.81304">
        <ele>63.972149</ele>
        <time>2021-06-26T08:14:51Z</time>
      </trkpt>
      <trkpt lat="43.63459" lon="3.81278">
        <ele>63.722126</ele>
        <time>2021-06-26T08:14:56Z</time>
      </trkpt>
      <trkpt lat="43.63462" lon="3.81251">
        <ele>63.008259</ele>
        <time>2021-06-26T08:15:01Z</time>
      </trkpt>
      <trkpt lat="43.63464" lon="3.81225">
        <ele>61.719772</ele>
        <time>2021-06-26T08:15:06Z</time>
      </trkpt>
      <trkpt lat="43.63464" lon="3.81195">
        <ele>60.708279</ele>
        <time>2021-06-26T08:15:11Z</time>
      </trkpt>
      <trkpt lat="43.63462" lon="3.81167">
        <ele>60.592144</ele>
        <time>2021-06-26T08:15:16Z</time>
      </trkpt>
      <trkpt lat="43.63461" lon="3.81138">
        <ele>60.819904</ele>
        <time>2021-06-26T08:15:21Z</time>
      </trkpt>
      <trkpt lat="43.63458" lon="3.81109">
        <ele>61.230999</ele>
        <time>2021-06-26T08:15:26Z</time>
      </trkpt>
      <trkpt lat="43.63453" lon="3.81081">
        <ele>62.227497</ele>
        <time>2021-06-26T08:15:31Z</time>
      </trkpt>
      <trkpt lat="43.63449" lon="3.81054">
        <ele>63.16148</ele>
        <time>2021-06-26T08:15:36Z</time>
      </trkpt>
      <trkpt lat="43.63445" lon="3.81027">
        <ele>64.696175</ele>
        <time>2021-06-26T08:15:41Z</time>
      </trkpt>
      <trkpt lat="43.63445" lon="3.81002">
        <ele>66.1166</ele>
        <time>2021-06-26T08:15:46Z</time>
      </trkpt>
      <trkpt lat="43.63449" lon="3.80981">
        <ele>66.596039</ele>
        <time>2021-06-26T08:15:51Z</time>
      </trkpt>
      <trkpt lat="43.6345" lon="3.80961">
        <ele>66.603271</ele>
        <time>2021-06-26T08:15:56Z</time>
      </trkpt>
      <trkpt lat="43.6345" lon="3.80937">
        <ele>66.505501</ele>
        <time>2021-06-26T08:16:01Z</time>
      </trkpt>
      <trkpt lat="43.6345" lon="3.80915">
        <ele>65.785789</ele>
        <time>2021-06-26T08:16:06Z</time>
      </trkpt>
      <trkpt lat="43.63456" lon="3.80887">
        <ele>64.687447</ele>
        <time>2021-06-26T08:16:11Z</time>
      </trkpt>
      <trkpt lat="43.63456" lon="3.80847">
        <ele>62.090809</ele>
        <time>2021-06-26T08:16:16Z</time>
      </trkpt>
      <trkpt lat="43.63457" lon="3.80819">
        <ele>59.305744</ele>
        <time>2021-06-26T08:16:21Z</time>
      </trkpt>
      <trkpt lat="43.63462" lon="3.80793">
        <ele>57.679676</ele>
        <time>2021-06-26T08:16:26Z</time>
      </trkpt>
      <trkpt lat="43.63477" lon="3.80782">
        <ele>56.819538</ele>
        <time>2021-06-26T08:16:31Z</time>
      </trkpt>
      <trkpt lat="43.63498" lon="3.80778">
        <ele>54.987808</ele>
        <time>2021-06-26T08:16:36Z</time>
      </trkpt>
      <trkpt lat="43.63518" lon="3.80783">
        <ele>53.125351</ele>
        <time>2021-06-26T08:16:41Z</time>
      </trkpt>
      <trkpt lat="43.63535" lon="3.808">
        <ele>52.929932</ele>
        <time>2021-06-26T08:16:46Z</time>
      </trkpt>
      <trkpt lat="43.63552" lon="3.80817">
        <ele>52.820557</ele>
        <time>2021-06-26T08:16:51Z</time>
      </trkpt>
      <trkpt lat="43.63567" lon="3.80834">
        <ele>52.915447</ele>
        <time>2021-06-26T08:16:56Z</time>
      </trkpt>
      <trkpt lat="43.63582" lon="3.80852">
        <ele>54.541882</ele>
        <time>2021-06-26T08:17:01Z</time>
      </trkpt>
      <trkpt lat="43.63601" lon="3.80863">
        <ele>56.446426</ele>
        <time>2021-06-26T08:17:06Z</time>
      </trkpt>
      <trkpt lat="43.63619" lon="3.80871">
        <ele>58.943203</ele>
        <time>2021-06-26T08:17:11Z</time>
      </trkpt>
      <trkpt lat="43.63638" lon="3.80876">
        <ele>60.865952</ele>
        <time>2021-06-26T08:17:16Z</time>
      </trkpt>
      <trkpt lat="43.63661" lon="3.8087">
        <ele>61.686569</ele>
        <time>2021-06-26T08:17:21Z</time>
      </trkpt>
      <trkpt lat="43.63684" lon="3.80857">
        <ele>60.837574</ele>
        <time>2021-06-26T08:17:26Z</time>
      </trkpt>
      <trkpt lat="43.63706" lon="3.80859">
        <ele>59.450439</ele>
        <time>2021-06-26T08:17:31Z</time>
      </trkpt>
      <trkpt lat="43.63726" lon="3.80861">
        <ele>58.31773</ele>
        <time>2021-06-26T08:17:36Z</time>
      </trkpt>
      <trkpt lat="43.63747" lon="3.80858">
        <ele>57.980877</ele>
        <time>2021-06-26T08:17:41Z</time>
      </trkpt>
      <trkpt lat="43.63769" lon="3.80851">
        <ele>57.412231</ele>
        <time>2021-06-26T08:17:46Z</time>
      </trkpt>
      <trkpt lat="43.63789" lon="3.80844">
        <ele>56.859512</ele>
        <time>2021-06-26T08:17:51Z</time>
      </trkpt>
      <trkpt lat="43.63808" lon="3.80838">
        <ele>57.457592</ele>
        <time>2021-06-26T08:17:56Z</time>
      </trkpt>
      <trkpt lat="43.63825" lon="3.80826">
        <ele>58.440563</ele>
        <time>2021-06-26T08:18:01Z</time>
      </trkpt>
      <trkpt lat="43.63833" lon="3.80812">
        <ele>58.720448</ele>
        <time>2021-06-26T08:18:06Z</time>
      </trkpt>
      <trkpt lat="43.63836" lon="3.80798">
        <ele>57.744755</ele>
        <time>2021-06-26T08:18:16Z</time>
      </trkpt>
      <trkpt lat="43.63839" lon="3.80797">
        <ele>58.047592</ele>
        <time>2021-06-26T08:18:26Z</time>
      </trkpt>
      <trkpt lat="43.63847" lon="3.80788">
        <ele>58.41832</ele>
        <time>2021-06-26T08:18:31Z</time>
      </trkpt>
      <trkpt lat="43.63853" lon="3.80777">
        <ele>58.819965</ele>
        <time>2021-06-26T08:18:41Z</time>
      </trkpt>
      <trkpt lat="43.63856" lon="3.80771">
        <ele>59.18716</ele>
        <time>2021-06-26T08:18:46Z</time>
      </trkpt>
      <trkpt lat="43.63858" lon="3.80762">
        <ele>59.282635</ele>
        <time>2021-06-26T08:18:51Z</time>
      </trkpt>
      <trkpt lat="43.63865" lon="3.80743">
        <ele>59.222401</ele>
        <time>2021-06-26T08:19:01Z</time>
      </trkpt>
      <trkpt lat="43.63864" lon="3.80733">
        <ele>59.158031</ele>
        <time>2021-06-26T08:19:11Z</time>
      </trkpt>
      <trkpt lat="43.63866" lon="3.80728">
        <ele>59.167225</ele>
        <time>2021-06-26T08:19:16Z</time>
      </trkpt>
      <trkpt lat="43.63868" lon="3.80726">
        <ele>59.234497</ele>
        <time>2021-06-26T08:19:21Z</time>
      </trkpt>
      <trkpt lat="43.63877" lon="3.80716">
        <ele>59.177822</ele>
        <time>2021-06-26T08:19:46Z</time>
      </trkpt>
      <trkpt lat="43.63881" lon="3.80716">
        <ele>59.094341</ele>
        <time>2021-06-26T08:19:56Z</time>
      </trkpt>
      <trkpt lat="43.63883" lon="3.80717">
        <ele>58.978123</ele>
        <time>2021-06-26T08:20:01Z</time>
      </trkpt>
      <trkpt lat="43.63888" lon="3.80721">
        <ele>58.902618</ele>
        <time>2021-06-26T08:20:06Z</time>
      </trkpt>
      <trkpt lat="43.6389" lon="3.80718">
        <ele>58.822353</ele>
        <time>2021-06-26T08:20:11Z</time>
      </trkpt>
      <trkpt lat="43.639" lon="3.80711">
        <ele>58.606201</ele>
        <time>2021-06-26T08:23:06Z</time>
      </trkpt>
      <trkpt lat="43.63905" lon="3.80699">
        <ele>58.469406</ele>
        <time>2021-06-26T08:23:16Z</time>
      </trkpt>
      <trkpt lat="43.63905" lon="3.80681">
        <ele>57.877216</ele>
        <time>2021-06-26T08:23:21Z</time>
      </trkpt>
      <trkpt lat="43.63906" lon="3.80662">
        <ele>57.402668</ele>
        <time>2021-06-26T08:23:26Z</time>
      </trkpt>
      <trkpt lat="43.6391" lon="3.80645">
        <ele>57.298462</ele>
        <time>2021-06-26T08:23:31Z</time>
      </trkpt>
      <trkpt lat="43.63915" lon="3.8063">
        <ele>57.526974</ele>
        <time>2021-06-26T08:23:36Z</time>
      </trkpt>
      <trkpt lat="43.63911" lon="3.80605">
        <ele>57.911968</ele>
        <time>2021-06-26T08:23:41Z</time>
      </trkpt>
      <trkpt lat="43.63909" lon="3.8058">
        <ele>58.169586</ele>
        <time>2021-06-26T08:23:46Z</time>
      </trkpt>
      <trkpt lat="43.63908" lon="3.80558">
        <ele>58.80011</ele>
        <time>2021-06-26T08:23:51Z</time>
      </trkpt>
      <trkpt lat="43.63909" lon="3.80534">
        <ele>59.501434</ele>
        <time>2021-06-26T08:23:56Z</time>
      </trkpt>
      <trkpt lat="43.6391" lon="3.80511">
        <ele>59.925537</ele>
        <time>2021-06-26T08:24:01Z</time>
      </trkpt>
      <trkpt lat="43.63912" lon="3.80493">
        <ele>60.02689</ele>
        <time>2021-06-26T08:24:06Z</time>
      </trkpt>
      <trkpt lat="43.63908" lon="3.80473">
        <ele>60.01717</ele>
        <time>2021-06-26T08:24:11Z</time>
      </trkpt>
      <trkpt lat="43.63898" lon="3.80461">
        <ele>59.732819</ele>
        <time>2021-06-26T08:24:16Z</time>
      </trkpt>
      <trkpt lat="43.63884" lon="3.80445">
        <ele>60.022869</ele>
        <time>2021-06-26T08:24:21Z</time>
      </trkpt>
      <trkpt lat="43.63871" lon="3.80425">
        <ele>62.351795</ele>
        <time>2021-06-26T08:24:26Z</time>
      </trkpt>
      <trkpt lat="43.63857" lon="3.80405">
        <ele>64.218475</ele>
        <time>2021-06-26T08:24:31Z</time>
      </trkpt>
      <trkpt lat="43.63844" lon="3.80387">
        <ele>66.033722</ele>
        <time>2021-06-26T08:24:36Z</time>
      </trkpt>
      <trkpt lat="43.63841" lon="3.80363">
        <ele>67.663658</ele>
        <time>2021-06-26T08:24:41Z</time>
      </trkpt>
      <trkpt lat="43.63831" lon="3.80348">
        <ele>68.777977</ele>
        <time>2021-06-26T08:24:46Z</time>
      </trkpt>
      <trkpt lat="43.63816" lon="3.80336">
        <ele>70.34301</ele>
        <time>2021-06-26T08:24:51Z</time>
      </trkpt>
      <trkpt lat="43.63805" lon="3.80317">
        <ele>72.831001</ele>
        <time>2021-06-26T08:24:56Z</time>
      </trkpt>
      <trkpt lat="43.63795" lon="3.80297">
        <ele>75.06295</ele>
        <time>2021-06-26T08:25:01Z</time>
      </trkpt>
      <trkpt lat="43.63785" lon="3.80278">
        <ele>76.725609</ele>
        <time>2021-06-26T08:25:06Z</time>
      </trkpt>
      <trkpt lat="43.63785" lon="3.80261">
        <ele>77.660461</ele>
        <time>2021-06-26T08:25:11Z</time>
      </trkpt>
      <trkpt lat="43.63784" lon="3.80237">
        <ele>77.475502</ele>
        <time>2021-06-26T08:25:16Z</time>
      </trkpt>
      <trkpt lat="43.63785" lon="3.80221">
        <ele>76.781006</ele>
        <time>2021-06-26T08:25:21Z</time>
      </trkpt>
      <trkpt lat="43.63787" lon="3.80213">
        <ele>75.716637</ele>
        <time>2021-06-26T08:25:26Z</time>
      </trkpt>
      <trkpt lat="43.63791" lon="3.80196">
        <ele>74.82251</ele>
        <time>2021-06-26T08:25:41Z</time>
      </trkpt>
      <trkpt lat="43.63804" lon="3.80175">
        <ele>73.770752</ele>
        <time>2021-06-26T08:25:51Z</time>
      </trkpt>
      <trkpt lat="43.6382" lon="3.80158">
        <ele>72.216148</ele>
        <time>2021-06-26T08:25:56Z</time>
      </trkpt>
      <trkpt lat="43.63838" lon="3.80144">
        <ele>69.222656</ele>
        <time>2021-06-26T08:26:01Z</time>
      </trkpt>
      <trkpt lat="43.63857" lon="3.80131">
        <ele>66.431564</ele>
        <time>2021-06-26T08:26:06Z</time>
      </trkpt>
      <trkpt lat="43.63869" lon="3.80118">
        <ele>64.691849</ele>
        <time>2021-06-26T08:26:11Z</time>
      </trkpt>
      <trkpt lat="43.6388" lon="3.80109">
        <ele>64.304863</ele>
        <time>2021-06-26T08:26:16Z</time>
      </trkpt>
      <trkpt lat="43.63901" lon="3.80101">
        <ele>64.057724</ele>
        <time>2021-06-26T08:26:21Z</time>
      </trkpt>
      <trkpt lat="43.63922" lon="3.80091">
        <ele>63.540676</ele>
        <time>2021-06-26T08:26:26Z</time>
      </trkpt>
      <trkpt lat="43.63945" lon="3.8008">
        <ele>63.513947</ele>
        <time>2021-06-26T08:26:31Z</time>
      </trkpt>
      <trkpt lat="43.63963" lon="3.80068">
        <ele>64.477295</ele>
        <time>2021-06-26T08:26:36Z</time>
      </trkpt>
      <trkpt lat="43.63985" lon="3.80052">
        <ele>64.931267</ele>
        <time>2021-06-26T08:26:41Z</time>
      </trkpt>
      <trkpt lat="43.64003" lon="3.80037">
        <ele>65.775291</ele>
        <time>2021-06-26T08:26:46Z</time>
      </trkpt>
      <trkpt lat="43.6402" lon="3.80022">
        <ele>67.697922</ele>
        <time>2021-06-26T08:26:51Z</time>
      </trkpt>
      <trkpt lat="43.64039" lon="3.80008">
        <ele>68.929901</ele>
        <time>2021-06-26T08:26:56Z</time>
      </trkpt>
      <trkpt lat="43.64057" lon="3.79993">
        <ele>69.544899</ele>
        <time>2021-06-26T08:27:01Z</time>
      </trkpt>
      <trkpt lat="43.64077" lon="3.7998">
        <ele>69.955574</ele>
        <time>2021-06-26T08:27:06Z</time>
      </trkpt>
      <trkpt lat="43.64097" lon="3.79967">
        <ele>70.971992</ele>
        <time>2021-06-26T08:27:11Z</time>
      </trkpt>
      <trkpt lat="43.64113" lon="3.79954">
        <ele>72.211952</ele>
        <time>2021-06-26T08:27:16Z</time>
      </trkpt>
      <trkpt lat="43.6413" lon="3.79942">
        <ele>73.002296</ele>
        <time>2021-06-26T08:27:21Z</time>
      </trkpt>
      <trkpt lat="43.64146" lon="3.79931">
        <ele>73.200531</ele>
        <time>2021-06-26T08:27:26Z</time>
      </trkpt>
      <trkpt lat="43.64163" lon="3.79918">
        <ele>73.106178</ele>
        <time>2021-06-26T08:27:31Z</time>
      </trkpt>
      <trkpt lat="43.64179" lon="3.79905">
        <ele>72.598473</ele>
        <time>2021-06-26T08:27:36Z</time>
      </trkpt>
      <trkpt lat="43.64195" lon="3.79896">
        <ele>71.957237</ele>
        <time>2021-06-26T08:27:41Z</time>
      </trkpt>
      <trkpt lat="43.64213" lon="3.79896">
        <ele>71.004646</ele>
        <time>2021-06-26T08:27:46Z</time>
      </trkpt>
      <trkpt lat="43.6422" lon="3.79874">
        <ele>69.045364</ele>
        <time>2021-06-26T08:27:51Z</time>
      </trkpt>
      <trkpt lat="43.64229" lon="3.79857">
        <ele>68.654198</ele>
        <time>2021-06-26T08:27:56Z</time>
      </trkpt>
      <trkpt lat="43.64245" lon="3.79846">
        <ele>68.301094</ele>
        <time>2021-06-26T08:28:01Z</time>
      </trkpt>
      <trkpt lat="43.64267" lon="3.79831">
        <ele>67.176529</ele>
        <time>2021-06-26T08:28:06Z</time>
      </trkpt>
      <trkpt lat="43.64291" lon="3.79821">
        <ele>65.24839</ele>
        <time>2021-06-26T08:28:11Z</time>
      </trkpt>
      <trkpt lat="43.64316" lon="3.7981">
        <ele>63.286896</ele>
        <time>2021-06-26T08:28:16Z</time>
      </trkpt>
      <trkpt lat="43.64337" lon="3.79798">
        <ele>61.245983</ele>
        <time>2021-06-26T08:28:21Z</time>
      </trkpt>
      <trkpt lat="43.64358" lon="3.79788">
        <ele>60.391193</ele>
        <time>2021-06-26T08:28:26Z</time>
      </trkpt>
      <trkpt lat="43.64375" lon="3.79782">
        <ele>59.860107</ele>
        <time>2021-06-26T08:28:31Z</time>
      </trkpt>
      <trkpt lat="43.64381" lon="3.79781">
        <ele>59.449268</ele>
        <time>2021-06-26T08:28:36Z</time>
      </trkpt>
      <trkpt lat="43.64391" lon="3.79781">
        <ele>59.252079</ele>
        <time>2021-06-26T08:28:41Z</time>
      </trkpt>
      <trkpt lat="43.64401" lon="3.79786">
        <ele>59.00972</ele>
        <time>2021-06-26T08:28:46Z</time>
      </trkpt>
      <trkpt lat="43.64417" lon="3.79789">
        <ele>58.795715</ele>
        <time>2021-06-26T08:28:51Z</time>
      </trkpt>
      <trkpt lat="43.64433" lon="3.79789">
        <ele>58.592281</ele>
        <time>2021-06-26T08:28:56Z</time>
      </trkpt>
      <trkpt lat="43.64436" lon="3.7979">
        <ele>58.382534</ele>
        <time>2021-06-26T08:29:01Z</time>
      </trkpt>
      <trkpt lat="43.64448" lon="3.79787">
        <ele>58.317913</ele>
        <time>2021-06-26T08:29:06Z</time>
      </trkpt>
      <trkpt lat="43.6446" lon="3.79777">
        <ele>58.197567</ele>
        <time>2021-06-26T08:29:11Z</time>
      </trkpt>
      <trkpt lat="43.64473" lon="3.79766">
        <ele>58.011585</ele>
        <time>2021-06-26T08:29:16Z</time>
      </trkpt>
      <trkpt lat="43.64493" lon="3.79744">
        <ele>57.939011</ele>
        <time>2021-06-26T08:29:21Z</time>
      </trkpt>
      <trkpt lat="43.64506" lon="3.79714">
        <ele>57.833801</ele>
        <time>2021-06-26T08:29:26Z</time>
      </trkpt>
      <trkpt lat="43.64514" lon="3.79693">
        <ele>57.363922</ele>
        <time>2021-06-26T08:29:31Z</time>
      </trkpt>
      <trkpt lat="43.64529" lon="3.79674">
        <ele>57.040386</ele>
        <time>2021-06-26T08:29:36Z</time>
      </trkpt>
      <trkpt lat="43.6454" lon="3.79648">
        <ele>56.520702</ele>
        <time>2021-06-26T08:29:41Z</time>
      </trkpt>
      <trkpt lat="43.64549" lon="3.79622">
        <ele>56.305073</ele>
        <time>2021-06-26T08:29:46Z</time>
      </trkpt>
      <trkpt lat="43.6456" lon="3.79595">
        <ele>57.011425</ele>
        <time>2021-06-26T08:29:51Z</time>
      </trkpt>
      <trkpt lat="43.64566" lon="3.79565">
        <ele>57.951809</ele>
        <time>2021-06-26T08:29:56Z</time>
      </trkpt>
      <trkpt lat="43.64574" lon="3.79538">
        <ele>60.401653</ele>
        <time>2021-06-26T08:30:01Z</time>
      </trkpt>
      <trkpt lat="43.64584" lon="3.79513">
        <ele>63.518036</ele>
        <time>2021-06-26T08:30:06Z</time>
      </trkpt>
      <trkpt lat="43.64595" lon="3.79487">
        <ele>67.35025</ele>
        <time>2021-06-26T08:30:11Z</time>
      </trkpt>
      <trkpt lat="43.64599" lon="3.79469">
        <ele>71.749496</ele>
        <time>2021-06-26T08:30:16Z</time>
      </trkpt>
      <trkpt lat="43.64592" lon="3.79453">
        <ele>75.207756</ele>
        <time>2021-06-26T08:30:21Z</time>
      </trkpt>
      <trkpt lat="43.64602" lon="3.79438">
        <ele>78.580742</ele>
        <time>2021-06-26T08:30:26Z</time>
      </trkpt>
      <trkpt lat="43.64615" lon="3.79422">
        <ele>80.55117</ele>
        <time>2021-06-26T08:30:31Z</time>
      </trkpt>
      <trkpt lat="43.64629" lon="3.79407">
        <ele>81.542625</ele>
        <time>2021-06-26T08:30:36Z</time>
      </trkpt>
      <trkpt lat="43.64639" lon="3.79388">
        <ele>81.448563</ele>
        <time>2021-06-26T08:30:41Z</time>
      </trkpt>
      <trkpt lat="43.64648" lon="3.79366">
        <ele>81.77256</ele>
        <time>2021-06-26T08:30:46Z</time>
      </trkpt>
      <trkpt lat="43.64654" lon="3.79344">
        <ele>82.786812</ele>
        <time>2021-06-26T08:30:51Z</time>
      </trkpt>
      <trkpt lat="43.64656" lon="3.79318">
        <ele>85.018257</ele>
        <time>2021-06-26T08:30:56Z</time>
      </trkpt>
      <trkpt lat="43.64662" lon="3.79298">
        <ele>87.465637</ele>
        <time>2021-06-26T08:31:01Z</time>
      </trkpt>
      <trkpt lat="43.64672" lon="3.79289">
        <ele>88.214989</ele>
        <time>2021-06-26T08:31:06Z</time>
      </trkpt>
      <trkpt lat="43.64682" lon="3.79287">
        <ele>87.589752</ele>
        <time>2021-06-26T08:31:11Z</time>
      </trkpt>
      <trkpt lat="43.64695" lon="3.79277">
        <ele>85.328255</ele>
        <time>2021-06-26T08:31:16Z</time>
      </trkpt>
      <trkpt lat="43.64701" lon="3.79255">
        <ele>83.755219</ele>
        <time>2021-06-26T08:31:21Z</time>
      </trkpt>
      <trkpt lat="43.64712" lon="3.79241">
        <ele>84.223755</ele>
        <time>2021-06-26T08:31:26Z</time>
      </trkpt>
      <trkpt lat="43.64722" lon="3.79225">
        <ele>84.600655</ele>
        <time>2021-06-26T08:31:31Z</time>
      </trkpt>
      <trkpt lat="43.64737" lon="3.7921">
        <ele>84.659393</ele>
        <time>2021-06-26T08:31:36Z</time>
      </trkpt>
      <trkpt lat="43.64747" lon="3.79191">
        <ele>85.164345</ele>
        <time>2021-06-26T08:31:41Z</time>
      </trkpt>
      <trkpt lat="43.64763" lon="3.79175">
        <ele>86.840736</ele>
        <time>2021-06-26T08:31:46Z</time>
      </trkpt>
      <trkpt lat="43.64781" lon="3.79163">
        <ele>87.305885</ele>
        <time>2021-06-26T08:31:51Z</time>
      </trkpt>
      <trkpt lat="43.64798" lon="3.79147">
        <ele>86.861656</ele>
        <time>2021-06-26T08:31:56Z</time>
      </trkpt>
      <trkpt lat="43.64812" lon="3.79133">
        <ele>86.273048</ele>
        <time>2021-06-26T08:32:01Z</time>
      </trkpt>
      <trkpt lat="43.64822" lon="3.79119">
        <ele>86.195946</ele>
        <time>2021-06-26T08:32:06Z</time>
      </trkpt>
      <trkpt lat="43.64835" lon="3.79102">
        <ele>86.228508</ele>
        <time>2021-06-26T08:32:11Z</time>
      </trkpt>
      <trkpt lat="43.64851" lon="3.79088">
        <ele>85.943024</ele>
        <time>2021-06-26T08:32:16Z</time>
      </trkpt>
      <trkpt lat="43.64864" lon="3.79073">
        <ele>85.06974</ele>
        <time>2021-06-26T08:32:21Z</time>
      </trkpt>
      <trkpt lat="43.64881" lon="3.79055">
        <ele>83.940895</ele>
        <time>2021-06-26T08:32:26Z</time>
      </trkpt>
      <trkpt lat="43.64895" lon="3.79044">
        <ele>82.97718</ele>
        <time>2021-06-26T08:32:31Z</time>
      </trkpt>
      <trkpt lat="43.64905" lon="3.7904">
        <ele>82.318344</ele>
        <time>2021-06-26T08:32:36Z</time>
      </trkpt>
      <trkpt lat="43.6492" lon="3.7903">
        <ele>81.016533</ele>
        <time>2021-06-26T08:32:41Z</time>
      </trkpt>
      <trkpt lat="43.64939" lon="3.79016">
        <ele>79.663033</ele>
        <time>2021-06-26T08:32:46Z</time>
      </trkpt>
      <trkpt lat="43.64952" lon="3.79004">
        <ele>79.130531</ele>
        <time>2021-06-26T08:32:51Z</time>
      </trkpt>
      <trkpt lat="43.64967" lon="3.78993">
        <ele>79.037804</ele>
        <time>2021-06-26T08:32:56Z</time>
      </trkpt>
      <trkpt lat="43.64981" lon="3.78982">
        <ele>78.96003</ele>
        <time>2021-06-26T08:33:01Z</time>
      </trkpt>
      <trkpt lat="43.64995" lon="3.7897">
        <ele>78.857758</ele>
        <time>2021-06-26T08:33:06Z</time>
      </trkpt>
      <trkpt lat="43.65011" lon="3.7896">
        <ele>78.850739</ele>
        <time>2021-06-26T08:33:11Z</time>
      </trkpt>
      <trkpt lat="43.65026" lon="3.78948">
        <ele>78.556099</ele>
        <time>2021-06-26T08:33:16Z</time>
      </trkpt>
      <trkpt lat="43.65038" lon="3.78935">
        <ele>78.592415</ele>
        <time>2021-06-26T08:33:21Z</time>
      </trkpt>
      <trkpt lat="43.65043" lon="3.78933">
        <ele>79.136894</ele>
        <time>2021-06-26T08:33:26Z</time>
      </trkpt>
      <trkpt lat="43.65052" lon="3.78947">
        <ele>79.027405</ele>
        <time>2021-06-26T08:33:31Z</time>
      </trkpt>
      <trkpt lat="43.65063" lon="3.78953">
        <ele>76.279144</ele>
        <time>2021-06-26T08:33:36Z</time>
      </trkpt>
      <trkpt lat="43.65078" lon="3.78941">
        <ele>73.7258</ele>
        <time>2021-06-26T08:33:41Z</time>
      </trkpt>
      <trkpt lat="43.65087" lon="3.78925">
        <ele>73.191055</ele>
        <time>2021-06-26T08:33:46Z</time>
      </trkpt>
      <trkpt lat="43.65093" lon="3.78908">
        <ele>74.078377</ele>
        <time>2021-06-26T08:33:51Z</time>
      </trkpt>
      <trkpt lat="43.65102" lon="3.78895">
        <ele>75.099609</ele>
        <time>2021-06-26T08:33:56Z</time>
      </trkpt>
      <trkpt lat="43.65115" lon="3.78884">
        <ele>75.385742</ele>
        <time>2021-06-26T08:34:01Z</time>
      </trkpt>
      <trkpt lat="43.65128" lon="3.78873">
        <ele>74.891014</ele>
        <time>2021-06-26T08:34:06Z</time>
      </trkpt>
      <trkpt lat="43.65138" lon="3.78865">
        <ele>73.846367</ele>
        <time>2021-06-26T08:34:11Z</time>
      </trkpt>
      <trkpt lat="43.65146" lon="3.78852">
        <ele>73.029594</ele>
        <time>2021-06-26T08:34:16Z</time>
      </trkpt>
      <trkpt lat="43.65147" lon="3.78841">
        <ele>72.732521</ele>
        <time>2021-06-26T08:34:21Z</time>
      </trkpt>
      <trkpt lat="43.65146" lon="3.78829">
        <ele>73.2939</ele>
        <time>2021-06-26T08:34:26Z</time>
      </trkpt>
      <trkpt lat="43.65148" lon="3.78817">
        <ele>74.146545</ele>
        <time>2021-06-26T08:34:31Z</time>
      </trkpt>
      <trkpt lat="43.65161" lon="3.78806">
        <ele>74.771179</ele>
        <time>2021-06-26T08:34:36Z</time>
      </trkpt>
      <trkpt lat="43.65176" lon="3.78795">
        <ele>74.79763</ele>
        <time>2021-06-26T08:34:41Z</time>
      </trkpt>
      <trkpt lat="43.65191" lon="3.78785">
        <ele>74.582466</ele>
        <time>2021-06-26T08:34:46Z</time>
      </trkpt>
      <trkpt lat="43.65204" lon="3.78772">
        <ele>73.976479</ele>
        <time>2021-06-26T08:34:51Z</time>
      </trkpt>
      <trkpt lat="43.65216" lon="3.78757">
        <ele>73.53334</ele>
        <time>2021-06-26T08:34:56Z</time>
      </trkpt>
      <trkpt lat="43.65226" lon="3.78739">
        <ele>73.538452</ele>
        <time>2021-06-26T08:35:01Z</time>
      </trkpt>
      <trkpt lat="43.6524" lon="3.78731">
        <ele>73.58902</ele>
        <time>2021-06-26T08:35:06Z</time>
      </trkpt>
      <trkpt lat="43.65255" lon="3.78725">
        <ele>73.262405</ele>
        <time>2021-06-26T08:35:11Z</time>
      </trkpt>
      <trkpt lat="43.65269" lon="3.78718">
        <ele>72.833298</ele>
        <time>2021-06-26T08:35:16Z</time>
      </trkpt>
      <trkpt lat="43.65284" lon="3.7871">
        <ele>72.47538</ele>
        <time>2021-06-26T08:35:21Z</time>
      </trkpt>
      <trkpt lat="43.653" lon="3.78703">
        <ele>72.124352</ele>
        <time>2021-06-26T08:35:26Z</time>
      </trkpt>
      <trkpt lat="43.65317" lon="3.7869">
        <ele>71.666176</ele>
        <time>2021-06-26T08:35:31Z</time>
      </trkpt>
      <trkpt lat="43.65333" lon="3.78677">
        <ele>71.342369</ele>
        <time>2021-06-26T08:35:36Z</time>
      </trkpt>
      <trkpt lat="43.6535" lon="3.78663">
        <ele>70.971764</ele>
        <time>2021-06-26T08:35:41Z</time>
      </trkpt>
      <trkpt lat="43.65372" lon="3.7865">
        <ele>70.685669</ele>
        <time>2021-06-26T08:35:46Z</time>
      </trkpt>
      <trkpt lat="43.65397" lon="3.78638">
        <ele>70.541557</ele>
        <time>2021-06-26T08:35:51Z</time>
      </trkpt>
      <trkpt lat="43.65422" lon="3.78624">
        <ele>70.471107</ele>
        <time>2021-06-26T08:35:56Z</time>
      </trkpt>
      <trkpt lat="43.65435" lon="3.78597">
        <ele>70.562218</ele>
        <time>2021-06-26T08:36:01Z</time>
      </trkpt>
      <trkpt lat="43.65434" lon="3.78571">
        <ele>71.180946</ele>
        <time>2021-06-26T08:36:06Z</time>
      </trkpt>
      <trkpt lat="43.65431" lon="3.7855">
        <ele>72.428223</ele>
        <time>2021-06-26T08:36:11Z</time>
      </trkpt>
      <trkpt lat="43.65428" lon="3.78525">
        <ele>73.434425</ele>
        <time>2021-06-26T08:36:16Z</time>
      </trkpt>
      <trkpt lat="43.65435" lon="3.785">
        <ele>74.151207</ele>
        <time>2021-06-26T08:36:21Z</time>
      </trkpt>
      <trkpt lat="43.65443" lon="3.78477">
        <ele>74.826332</ele>
        <time>2021-06-26T08:36:26Z</time>
      </trkpt>
      <trkpt lat="43.65452" lon="3.78455">
        <ele>75.085121</ele>
        <time>2021-06-26T08:36:31Z</time>
      </trkpt>
      <trkpt lat="43.65462" lon="3.78435">
        <ele>75.025879</ele>
        <time>2021-06-26T08:36:36Z</time>
      </trkpt>
      <trkpt lat="43.65472" lon="3.78416">
        <ele>74.742836</ele>
        <time>2021-06-26T08:36:41Z</time>
      </trkpt>
      <trkpt lat="43.65482" lon="3.78401">
        <ele>74.438805</ele>
        <time>2021-06-26T08:36:46Z</time>
      </trkpt>
      <trkpt lat="43.6549" lon="3.78388">
        <ele>74.203613</ele>
        <time>2021-06-26T08:36:51Z</time>
      </trkpt>
      <trkpt lat="43.65499" lon="3.78376">
        <ele>74.041405</ele>
        <time>2021-06-26T08:36:56Z</time>
      </trkpt>
      <trkpt lat="43.65507" lon="3.78364">
        <ele>74.084892</ele>
        <time>2021-06-26T08:37:01Z</time>
      </trkpt>
      <trkpt lat="43.65517" lon="3.78357">
        <ele>74.195869</ele>
        <time>2021-06-26T08:37:06Z</time>
      </trkpt>
      <trkpt lat="43.65526" lon="3.78351">
        <ele>74.334404</ele>
        <time>2021-06-26T08:37:11Z</time>
      </trkpt>
      <trkpt lat="43.65531" lon="3.78338">
        <ele>74.458214</ele>
        <time>2021-06-26T08:37:16Z</time>
      </trkpt>
      <trkpt lat="43.65539" lon="3.78325">
        <ele>74.683609</ele>
        <time>2021-06-26T08:37:21Z</time>
      </trkpt>
      <trkpt lat="43.65546" lon="3.78313">
        <ele>74.986084</ele>
        <time>2021-06-26T08:37:26Z</time>
      </trkpt>
      <trkpt lat="43.65553" lon="3.78301">
        <ele>75.272789</ele>
        <time>2021-06-26T08:37:31Z</time>
      </trkpt>
      <trkpt lat="43.65561" lon="3.78286">
        <ele>75.535645</ele>
        <time>2021-06-26T08:37:36Z</time>
      </trkpt>
      <trkpt lat="43.65565" lon="3.7827">
        <ele>76.247314</ele>
        <time>2021-06-26T08:37:41Z</time>
      </trkpt>
      <trkpt lat="43.65567" lon="3.78252">
        <ele>76.818359</ele>
        <time>2021-06-26T08:37:46Z</time>
      </trkpt>
      <trkpt lat="43.65566" lon="3.78234">
        <ele>77.324219</ele>
        <time>2021-06-26T08:37:51Z</time>
      </trkpt>
      <trkpt lat="43.65568" lon="3.78217">
        <ele>77.480629</ele>
        <time>2021-06-26T08:37:56Z</time>
      </trkpt>
      <trkpt lat="43.65567" lon="3.78198">
        <ele>77.895752</ele>
        <time>2021-06-26T08:38:01Z</time>
      </trkpt>
      <trkpt lat="43.65561" lon="3.78181">
        <ele>78.004097</ele>
        <time>2021-06-26T08:38:06Z</time>
      </trkpt>
      <trkpt lat="43.65551" lon="3.78165">
        <ele>77.601837</ele>
        <time>2021-06-26T08:38:11Z</time>
      </trkpt>
      <trkpt lat="43.65544" lon="3.78152">
        <ele>76.972237</ele>
        <time>2021-06-26T08:38:16Z</time>
      </trkpt>
      <trkpt lat="43.65542" lon="3.78135">
        <ele>76.819893</ele>
        <time>2021-06-26T08:38:21Z</time>
      </trkpt>
      <trkpt lat="43.65541" lon="3.78114">
        <ele>76.811272</ele>
        <time>2021-06-26T08:38:26Z</time>
      </trkpt>
      <trkpt lat="43.6554" lon="3.78085">
        <ele>76.850632</ele>
        <time>2021-06-26T08:38:31Z</time>
      </trkpt>
      <trkpt lat="43.65538" lon="3.7805">
        <ele>76.935921</ele>
        <time>2021-06-26T08:38:36Z</time>
      </trkpt>
      <trkpt lat="43.65528" lon="3.7802">
        <ele>77.024879</ele>
        <time>2021-06-26T08:38:41Z</time>
      </trkpt>
      <trkpt lat="43.6552" lon="3.77994">
        <ele>77.232399</ele>
        <time>2021-06-26T08:38:46Z</time>
      </trkpt>
      <trkpt lat="43.65503" lon="3.77978">
        <ele>77.512871</ele>
        <time>2021-06-26T08:38:51Z</time>
      </trkpt>
      <trkpt lat="43.65488" lon="3.77958">
        <ele>78.096687</ele>
        <time>2021-06-26T08:38:56Z</time>
      </trkpt>
      <trkpt lat="43.65486" lon="3.77931">
        <ele>79.05085</ele>
        <time>2021-06-26T08:39:01Z</time>
      </trkpt>
      <trkpt lat="43.65489" lon="3.77907">
        <ele>79.738853</ele>
        <time>2021-06-26T08:39:06Z</time>
      </trkpt>
      <trkpt lat="43.65494" lon="3.77886">
        <ele>80.470886</ele>
        <time>2021-06-26T08:39:11Z</time>
      </trkpt>
      <trkpt lat="43.65498" lon="3.77865">
        <ele>80.934196</ele>
        <time>2021-06-26T08:39:16Z</time>
      </trkpt>
      <trkpt lat="43.65504" lon="3.77847">
        <ele>81.34021</ele>
        <time>2021-06-26T08:39:21Z</time>
      </trkpt>
      <trkpt lat="43.65509" lon="3.77829">
        <ele>81.65451</ele>
        <time>2021-06-26T08:39:26Z</time>
      </trkpt>
      <trkpt lat="43.65513" lon="3.77809">
        <ele>82.161888</ele>
        <time>2021-06-26T08:39:31Z</time>
      </trkpt>
      <trkpt lat="43.65513" lon="3.77788">
        <ele>82.768799</ele>
        <time>2021-06-26T08:39:36Z</time>
      </trkpt>
      <trkpt lat="43.6551" lon="3.77762">
        <ele>83.509445</ele>
        <time>2021-06-26T08:39:41Z</time>
      </trkpt>
      <trkpt lat="43.65502" lon="3.77732">
        <ele>84.121429</ele>
        <time>2021-06-26T08:39:46Z</time>
      </trkpt>
      <trkpt lat="43.65498" lon="3.77716">
        <ele>85.411156</ele>
        <time>2021-06-26T08:39:51Z</time>
      </trkpt>
      <trkpt lat="43.65494" lon="3.77696">
        <ele>86.183754</ele>
        <time>2021-06-26T08:39:56Z</time>
      </trkpt>
      <trkpt lat="43.65495" lon="3.77676">
        <ele>87.108727</ele>
        <time>2021-06-26T08:40:01Z</time>
      </trkpt>
      <trkpt lat="43.65494" lon="3.77656">
        <ele>87.741127</ele>
        <time>2021-06-26T08:40:06Z</time>
      </trkpt>
      <trkpt lat="43.65491" lon="3.7764">
        <ele>88.234596</ele>
        <time>2021-06-26T08:40:11Z</time>
      </trkpt>
      <trkpt lat="43.65493" lon="3.77623">
        <ele>89.65744</ele>
        <time>2021-06-26T08:40:16Z</time>
      </trkpt>
      <trkpt lat="43.65496" lon="3.77606">
        <ele>90.979897</ele>
        <time>2021-06-26T08:40:21Z</time>
      </trkpt>
      <trkpt lat="43.65497" lon="3.77587">
        <ele>92.128059</ele>
        <time>2021-06-26T08:40:26Z</time>
      </trkpt>
      <trkpt lat="43.65499" lon="3.77566">
        <ele>93.262901</ele>
        <time>2021-06-26T08:40:31Z</time>
      </trkpt>
      <trkpt lat="43.65501" lon="3.77553">
        <ele>94.608269</ele>
        <time>2021-06-26T08:40:36Z</time>
      </trkpt>
      <trkpt lat="43.65506" lon="3.7754">
        <ele>95.389427</ele>
        <time>2021-06-26T08:40:41Z</time>
      </trkpt>
      <trkpt lat="43.65509" lon="3.77524">
        <ele>95.783752</ele>
        <time>2021-06-26T08:40:46Z</time>
      </trkpt>
      <trkpt lat="43.65512" lon="3.77508">
        <ele>96.45829</ele>
        <time>2021-06-26T08:40:51Z</time>
      </trkpt>
      <trkpt lat="43.65516" lon="3.77492">
        <ele>96.802155</ele>
        <time>2021-06-26T08:40:56Z</time>
      </trkpt>
      <trkpt lat="43.65522" lon="3.7747">
        <ele>96.898354</ele>
        <time>2021-06-26T08:41:01Z</time>
      </trkpt>
      <trkpt lat="43.65531" lon="3.7745">
        <ele>96.746094</ele>
        <time>2021-06-26T08:41:06Z</time>
      </trkpt>
      <trkpt lat="43.6554" lon="3.77431">
        <ele>96.217903</ele>
        <time>2021-06-26T08:41:11Z</time>
      </trkpt>
      <trkpt lat="43.65551" lon="3.77414">
        <ele>95.267067</ele>
        <time>2021-06-26T08:41:16Z</time>
      </trkpt>
      <trkpt lat="43.6556" lon="3.77402">
        <ele>94.393806</ele>
        <time>2021-06-26T08:41:21Z</time>
      </trkpt>
      <trkpt lat="43.65571" lon="3.77388">
        <ele>93.58667</ele>
        <time>2021-06-26T08:41:26Z</time>
      </trkpt>
      <trkpt lat="43.65578" lon="3.77369">
        <ele>93.447365</ele>
        <time>2021-06-26T08:41:31Z</time>
      </trkpt>
      <trkpt lat="43.65583" lon="3.77345">
        <ele>93.394005</ele>
        <time>2021-06-26T08:41:36Z</time>
      </trkpt>
      <trkpt lat="43.65585" lon="3.77326">
        <ele>93.386711</ele>
        <time>2021-06-26T08:41:41Z</time>
      </trkpt>
      <trkpt lat="43.65582" lon="3.77307">
        <ele>93.457558</ele>
        <time>2021-06-26T08:41:46Z</time>
      </trkpt>
      <trkpt lat="43.65583" lon="3.77284">
        <ele>93.557472</ele>
        <time>2021-06-26T08:41:51Z</time>
      </trkpt>
      <trkpt lat="43.65583" lon="3.77259">
        <ele>93.591957</ele>
        <time>2021-06-26T08:41:56Z</time>
      </trkpt>
      <trkpt lat="43.65579" lon="3.77236">
        <ele>93.594154</ele>
        <time>2021-06-26T08:42:01Z</time>
      </trkpt>
      <trkpt lat="43.65578" lon="3.77215">
        <ele>93.705872</ele>
        <time>2021-06-26T08:42:06Z</time>
      </trkpt>
      <trkpt lat="43.6558" lon="3.77195">
        <ele>94.255882</ele>
        <time>2021-06-26T08:42:11Z</time>
      </trkpt>
      <trkpt lat="43.65582" lon="3.77175">
        <ele>94.730522</ele>
        <time>2021-06-26T08:42:16Z</time>
      </trkpt>
      <trkpt lat="43.65582" lon="3.77155">
        <ele>95.161537</ele>
        <time>2021-06-26T08:42:21Z</time>
      </trkpt>
      <trkpt lat="43.65582" lon="3.77138">
        <ele>95.4972</ele>
        <time>2021-06-26T08:42:26Z</time>
      </trkpt>
      <trkpt lat="43.65582" lon="3.77117">
        <ele>96.006348</ele>
        <time>2021-06-26T08:42:31Z</time>
      </trkpt>
      <trkpt lat="43.65583" lon="3.77096">
        <ele>96.475716</ele>
        <time>2021-06-26T08:42:36Z</time>
      </trkpt>
      <trkpt lat="43.65585" lon="3.77076">
        <ele>96.895294</ele>
        <time>2021-06-26T08:42:41Z</time>
      </trkpt>
      <trkpt lat="43.65588" lon="3.77057">
        <ele>97.630371</ele>
        <time>2021-06-26T08:42:46Z</time>
      </trkpt>
      <trkpt lat="43.65591" lon="3.77036">
        <ele>98.263306</ele>
        <time>2021-06-26T08:42:51Z</time>
      </trkpt>
      <trkpt lat="43.65594" lon="3.77015">
        <ele>98.791786</ele>
        <time>2021-06-26T08:42:56Z</time>
      </trkpt>
      <trkpt lat="43.65596" lon="3.76994">
        <ele>99.602287</ele>
        <time>2021-06-26T08:43:01Z</time>
      </trkpt>
      <trkpt lat="43.65596" lon="3.76973">
        <ele>100.067657</ele>
        <time>2021-06-26T08:43:06Z</time>
      </trkpt>
      <trkpt lat="43.65597" lon="3.76956">
        <ele>101.056023</ele>
        <time>2021-06-26T08:43:11Z</time>
      </trkpt>
      <trkpt lat="43.65598" lon="3.76939">
        <ele>101.270905</ele>
        <time>2021-06-26T08:43:16Z</time>
      </trkpt>
      <trkpt lat="43.65594" lon="3.76939">
        <ele>101.170128</ele>
        <time>2021-06-26T08:43:21Z</time>
      </trkpt>
      <trkpt lat="43.65575" lon="3.7694">
        <ele>101.302734</ele>
        <time>2021-06-26T08:43:31Z</time>
      </trkpt>
      <trkpt lat="43.6556" lon="3.76946">
        <ele>101.563507</ele>
        <time>2021-06-26T08:43:41Z</time>
      </trkpt>
      <trkpt lat="43.65544" lon="3.76948">
        <ele>101.862061</ele>
        <time>2021-06-26T08:43:46Z</time>
      </trkpt>
      <trkpt lat="43.65528" lon="3.76942">
        <ele>102.083946</ele>
        <time>2021-06-26T08:43:51Z</time>
      </trkpt>
      <trkpt lat="43.65512" lon="3.76936">
        <ele>102.282707</ele>
        <time>2021-06-26T08:43:56Z</time>
      </trkpt>
      <trkpt lat="43.65497" lon="3.76929">
        <ele>102.527374</ele>
        <time>2021-06-26T08:44:01Z</time>
      </trkpt>
      <trkpt lat="43.65482" lon="3.76924">
        <ele>102.935913</ele>
        <time>2021-06-26T08:44:06Z</time>
      </trkpt>
      <trkpt lat="43.6547" lon="3.76915">
        <ele>103.360809</ele>
        <time>2021-06-26T08:44:11Z</time>
      </trkpt>
      <trkpt lat="43.65464" lon="3.76898">
        <ele>104.354065</ele>
        <time>2021-06-26T08:44:16Z</time>
      </trkpt>
      <trkpt lat="43.65468" lon="3.76879">
        <ele>105.093285</ele>
        <time>2021-06-26T08:44:21Z</time>
      </trkpt>
      <trkpt lat="43.65475" lon="3.76862">
        <ele>105.733299</ele>
        <time>2021-06-26T08:44:26Z</time>
      </trkpt>
      <trkpt lat="43.65482" lon="3.76842">
        <ele>105.903618</ele>
        <time>2021-06-26T08:44:31Z</time>
      </trkpt>
      <trkpt lat="43.65487" lon="3.76819">
        <ele>105.998283</ele>
        <time>2021-06-26T08:44:36Z</time>
      </trkpt>
      <trkpt lat="43.65494" lon="3.76798">
        <ele>106.490601</ele>
        <time>2021-06-26T08:44:41Z</time>
      </trkpt>
      <trkpt lat="43.65496" lon="3.76776">
        <ele>107.465126</ele>
        <time>2021-06-26T08:44:46Z</time>
      </trkpt>
      <trkpt lat="43.65502" lon="3.76764">
        <ele>108.491844</ele>
        <time>2021-06-26T08:44:51Z</time>
      </trkpt>
      <trkpt lat="43.65517" lon="3.7677">
        <ele>108.83007</ele>
        <time>2021-06-26T08:44:56Z</time>
      </trkpt>
      <trkpt lat="43.65532" lon="3.76783">
        <ele>107.980927</ele>
        <time>2021-06-26T08:45:01Z</time>
      </trkpt>
      <trkpt lat="43.65548" lon="3.76797">
        <ele>106.758034</ele>
        <time>2021-06-26T08:45:06Z</time>
      </trkpt>
      <trkpt lat="43.65566" lon="3.76799">
        <ele>105.316032</ele>
        <time>2021-06-26T08:45:11Z</time>
      </trkpt>
      <trkpt lat="43.65582" lon="3.76778">
        <ele>103.811798</ele>
        <time>2021-06-26T08:45:16Z</time>
      </trkpt>
      <trkpt lat="43.65594" lon="3.76751">
        <ele>103.466217</ele>
        <time>2021-06-26T08:45:21Z</time>
      </trkpt>
      <trkpt lat="43.65601" lon="3.76722">
        <ele>103.665001</ele>
        <time>2021-06-26T08:45:26Z</time>
      </trkpt>
      <trkpt lat="43.65612" lon="3.76692">
        <ele>104.171448</ele>
        <time>2021-06-26T08:45:31Z</time>
      </trkpt>
      <trkpt lat="43.65613" lon="3.76659">
        <ele>104.409706</ele>
        <time>2021-06-26T08:45:36Z</time>
      </trkpt>
      <trkpt lat="43.65614" lon="3.76627">
        <ele>104.849373</ele>
        <time>2021-06-26T08:45:41Z</time>
      </trkpt>
      <trkpt lat="43.65614" lon="3.76596">
        <ele>105.445251</ele>
        <time>2021-06-26T08:45:46Z</time>
      </trkpt>
      <trkpt lat="43.65614" lon="3.76569">
        <ele>105.722572</ele>
        <time>2021-06-26T08:45:51Z</time>
      </trkpt>
      <trkpt lat="43.65608" lon="3.76542">
        <ele>106.305016</ele>
        <time>2021-06-26T08:45:56Z</time>
      </trkpt>
      <trkpt lat="43.65601" lon="3.76515">
        <ele>107.202614</ele>
        <time>2021-06-26T08:46:01Z</time>
      </trkpt>
      <trkpt lat="43.65595" lon="3.76487">
        <ele>107.592072</ele>
        <time>2021-06-26T08:46:06Z</time>
      </trkpt>
      <trkpt lat="43.65588" lon="3.7646">
        <ele>107.677589</ele>
        <time>2021-06-26T08:46:11Z</time>
      </trkpt>
      <trkpt lat="43.65579" lon="3.76431">
        <ele>107.564049</ele>
        <time>2021-06-26T08:46:16Z</time>
      </trkpt>
      <trkpt lat="43.65572" lon="3.76406">
        <ele>106.880249</ele>
        <time>2021-06-26T08:46:21Z</time>
      </trkpt>
      <trkpt lat="43.65568" lon="3.76382">
        <ele>105.882652</ele>
        <time>2021-06-26T08:46:26Z</time>
      </trkpt>
      <trkpt lat="43.65564" lon="3.76356">
        <ele>104.644836</ele>
        <time>2021-06-26T08:46:31Z</time>
      </trkpt>
      <trkpt lat="43.65558" lon="3.76326">
        <ele>103.559471</ele>
        <time>2021-06-26T08:46:36Z</time>
      </trkpt>
      <trkpt lat="43.65551" lon="3.76301">
        <ele>102.074425</ele>
        <time>2021-06-26T08:46:41Z</time>
      </trkpt>
      <trkpt lat="43.65543" lon="3.76277">
        <ele>101.208229</ele>
        <time>2021-06-26T08:46:46Z</time>
      </trkpt>
      <trkpt lat="43.65533" lon="3.76255">
        <ele>101.016869</ele>
        <time>2021-06-26T08:46:51Z</time>
      </trkpt>
      <trkpt lat="43.65523" lon="3.76231">
        <ele>101.251564</ele>
        <time>2021-06-26T08:46:56Z</time>
      </trkpt>
      <trkpt lat="43.65509" lon="3.76212">
        <ele>101.586029</ele>
        <time>2021-06-26T08:47:01Z</time>
      </trkpt>
      <trkpt lat="43.65494" lon="3.76201">
        <ele>101.956932</ele>
        <time>2021-06-26T08:47:06Z</time>
      </trkpt>
      <trkpt lat="43.65476" lon="3.76197">
        <ele>102.477257</ele>
        <time>2021-06-26T08:47:11Z</time>
      </trkpt>
      <trkpt lat="43.65459" lon="3.76196">
        <ele>103.541267</ele>
        <time>2021-06-26T08:47:16Z</time>
      </trkpt>
      <trkpt lat="43.65445" lon="3.76186">
        <ele>104.71093</ele>
        <time>2021-06-26T08:47:21Z</time>
      </trkpt>
      <trkpt lat="43.65432" lon="3.76179">
        <ele>105.830322</ele>
        <time>2021-06-26T08:47:26Z</time>
      </trkpt>
      <trkpt lat="43.65417" lon="3.76175">
        <ele>106.455849</ele>
        <time>2021-06-26T08:47:31Z</time>
      </trkpt>
      <trkpt lat="43.65402" lon="3.76167">
        <ele>107.28968</ele>
        <time>2021-06-26T08:47:36Z</time>
      </trkpt>
      <trkpt lat="43.6539" lon="3.76153">
        <ele>107.963036</ele>
        <time>2021-06-26T08:47:41Z</time>
      </trkpt>
      <trkpt lat="43.65381" lon="3.76131">
        <ele>108.275513</ele>
        <time>2021-06-26T08:47:46Z</time>
      </trkpt>
      <trkpt lat="43.65373" lon="3.76108">
        <ele>107.980194</ele>
        <time>2021-06-26T08:47:51Z</time>
      </trkpt>
      <trkpt lat="43.65369" lon="3.76082">
        <ele>107.216614</ele>
        <time>2021-06-26T08:47:56Z</time>
      </trkpt>
      <trkpt lat="43.65357" lon="3.76064">
        <ele>105.959625</ele>
        <time>2021-06-26T08:48:01Z</time>
      </trkpt>
      <trkpt lat="43.65345" lon="3.76058">
        <ele>105.412544</ele>
        <time>2021-06-26T08:48:06Z</time>
      </trkpt>
      <trkpt lat="43.65333" lon="3.76054">
        <ele>105.415138</ele>
        <time>2021-06-26T08:48:11Z</time>
      </trkpt>
      <trkpt lat="43.65321" lon="3.76048">
        <ele>105.759239</ele>
        <time>2021-06-26T08:48:16Z</time>
      </trkpt>
      <trkpt lat="43.65309" lon="3.76042">
        <ele>106.045753</ele>
        <time>2021-06-26T08:48:21Z</time>
      </trkpt>
      <trkpt lat="43.65297" lon="3.76035">
        <ele>106.208313</ele>
        <time>2021-06-26T08:48:26Z</time>
      </trkpt>
      <trkpt lat="43.65287" lon="3.76027">
        <ele>106.290108</ele>
        <time>2021-06-26T08:48:31Z</time>
      </trkpt>
      <trkpt lat="43.65275" lon="3.76014">
        <ele>106.201012</ele>
        <time>2021-06-26T08:48:36Z</time>
      </trkpt>
      <trkpt lat="43.65262" lon="3.75995">
        <ele>106.169228</ele>
        <time>2021-06-26T08:48:41Z</time>
      </trkpt>
      <trkpt lat="43.65251" lon="3.75972">
        <ele>106.760109</ele>
        <time>2021-06-26T08:48:46Z</time>
      </trkpt>
      <trkpt lat="43.65239" lon="3.75954">
        <ele>108.182495</ele>
        <time>2021-06-26T08:48:51Z</time>
      </trkpt>
      <trkpt lat="43.65226" lon="3.75935">
        <ele>109.065613</ele>
        <time>2021-06-26T08:48:56Z</time>
      </trkpt>
      <trkpt lat="43.65213" lon="3.75917">
        <ele>109.864441</ele>
        <time>2021-06-26T08:49:01Z</time>
      </trkpt>
      <trkpt lat="43.65203" lon="3.75904">
        <ele>110.641365</ele>
        <time>2021-06-26T08:49:06Z</time>
      </trkpt>
      <trkpt lat="43.6519" lon="3.75893">
        <ele>111.371559</ele>
        <time>2021-06-26T08:49:11Z</time>
      </trkpt>
      <trkpt lat="43.65175" lon="3.75886">
        <ele>111.985664</ele>
        <time>2021-06-26T08:49:16Z</time>
      </trkpt>
      <trkpt lat="43.65161" lon="3.7588">
        <ele>112.508247</ele>
        <time>2021-06-26T08:49:21Z</time>
      </trkpt>
      <trkpt lat="43.65144" lon="3.75876">
        <ele>112.883331</ele>
        <time>2021-06-26T08:49:26Z</time>
      </trkpt>
      <trkpt lat="43.65131" lon="3.75878">
        <ele>113.209351</ele>
        <time>2021-06-26T08:49:31Z</time>
      </trkpt>
      <trkpt lat="43.65119" lon="3.75876">
        <ele>114.220886</ele>
        <time>2021-06-26T08:49:36Z</time>
      </trkpt>
      <trkpt lat="43.65108" lon="3.75862">
        <ele>114.997406</ele>
        <time>2021-06-26T08:49:41Z</time>
      </trkpt>
      <trkpt lat="43.65097" lon="3.75847">
        <ele>115.278717</ele>
        <time>2021-06-26T08:49:46Z</time>
      </trkpt>
      <trkpt lat="43.65088" lon="3.75831">
        <ele>115.782509</ele>
        <time>2021-06-26T08:49:51Z</time>
      </trkpt>
      <trkpt lat="43.6508" lon="3.75818">
        <ele>116.051064</ele>
        <time>2021-06-26T08:49:56Z</time>
      </trkpt>
      <trkpt lat="43.65072" lon="3.75809">
        <ele>116.167519</ele>
        <time>2021-06-26T08:50:01Z</time>
      </trkpt>
      <trkpt lat="43.65064" lon="3.75803">
        <ele>116.451027</ele>
        <time>2021-06-26T08:50:06Z</time>
      </trkpt>
      <trkpt lat="43.65056" lon="3.75799">
        <ele>116.904701</ele>
        <time>2021-06-26T08:50:11Z</time>
      </trkpt>
      <trkpt lat="43.65049" lon="3.75791">
        <ele>117.359123</ele>
        <time>2021-06-26T08:50:16Z</time>
      </trkpt>
      <trkpt lat="43.65043" lon="3.75787">
        <ele>117.892769</ele>
        <time>2021-06-26T08:50:21Z</time>
      </trkpt>
      <trkpt lat="43.6503" lon="3.75777">
        <ele>118.259865</ele>
        <time>2021-06-26T08:50:26Z</time>
      </trkpt>
      <trkpt lat="43.65022" lon="3.75771">
        <ele>118.846169</ele>
        <time>2021-06-26T08:50:31Z</time>
      </trkpt>
      <trkpt lat="43.65016" lon="3.75767">
        <ele>119.412964</ele>
        <time>2021-06-26T08:50:36Z</time>
      </trkpt>
      <trkpt lat="43.65011" lon="3.75762">
        <ele>119.719292</ele>
        <time>2021-06-26T08:50:41Z</time>
      </trkpt>
      <trkpt lat="43.65004" lon="3.75757">
        <ele>119.944672</ele>
        <time>2021-06-26T08:50:46Z</time>
      </trkpt>
      <trkpt lat="43.64998" lon="3.75751">
        <ele>120.189903</ele>
        <time>2021-06-26T08:50:51Z</time>
      </trkpt>
      <trkpt lat="43.64992" lon="3.75747">
        <ele>120.799644</ele>
        <time>2021-06-26T08:50:56Z</time>
      </trkpt>
      <trkpt lat="43.64986" lon="3.75743">
        <ele>121.536461</ele>
        <time>2021-06-26T08:51:01Z</time>
      </trkpt>
      <trkpt lat="43.64981" lon="3.75738">
        <ele>122.220001</ele>
        <time>2021-06-26T08:51:06Z</time>
      </trkpt>
      <trkpt lat="43.64974" lon="3.75732">
        <ele>122.815987</ele>
        <time>2021-06-26T08:51:11Z</time>
      </trkpt>
      <trkpt lat="43.64965" lon="3.75724">
        <ele>123.525818</ele>
        <time>2021-06-26T08:51:16Z</time>
      </trkpt>
      <trkpt lat="43.64956" lon="3.75713">
        <ele>124.665443</ele>
        <time>2021-06-26T08:51:21Z</time>
      </trkpt>
      <trkpt lat="43.64946" lon="3.757">
        <ele>125.973808</ele>
        <time>2021-06-26T08:51:26Z</time>
      </trkpt>
      <trkpt lat="43.64939" lon="3.75694">
        <ele>126.965858</ele>
        <time>2021-06-26T08:51:31Z</time>
      </trkpt>
      <trkpt lat="43.64933" lon="3.75691">
        <ele>128.015427</ele>
        <time>2021-06-26T08:51:36Z</time>
      </trkpt>
      <trkpt lat="43.64927" lon="3.75684">
        <ele>128.902786</ele>
        <time>2021-06-26T08:51:41Z</time>
      </trkpt>
      <trkpt lat="43.6492" lon="3.75681">
        <ele>129.731567</ele>
        <time>2021-06-26T08:51:46Z</time>
      </trkpt>
      <trkpt lat="43.64913" lon="3.75677">
        <ele>130.657852</ele>
        <time>2021-06-26T08:51:51Z</time>
      </trkpt>
      <trkpt lat="43.64901" lon="3.75664">
        <ele>131.70961</ele>
        <time>2021-06-26T08:51:56Z</time>
      </trkpt>
      <trkpt lat="43.64894" lon="3.75646">
        <ele>132.729507</ele>
        <time>2021-06-26T08:52:01Z</time>
      </trkpt>
      <trkpt lat="43.6489" lon="3.75636">
        <ele>133.589371</ele>
        <time>2021-06-26T08:52:06Z</time>
      </trkpt>
      <trkpt lat="43.64884" lon="3.75629">
        <ele>133.827942</ele>
        <time>2021-06-26T08:52:11Z</time>
      </trkpt>
      <trkpt lat="43.64878" lon="3.75623">
        <ele>134.297836</ele>
        <time>2021-06-26T08:52:16Z</time>
      </trkpt>
      <trkpt lat="43.64876" lon="3.75617">
        <ele>134.871368</ele>
        <time>2021-06-26T08:52:21Z</time>
      </trkpt>
      <trkpt lat="43.64874" lon="3.75613">
        <ele>135.008163</ele>
        <time>2021-06-26T08:52:26Z</time>
      </trkpt>
      <trkpt lat="43.64871" lon="3.75605">
        <ele>135.05127</ele>
        <time>2021-06-26T08:52:31Z</time>
      </trkpt>
      <trkpt lat="43.64867" lon="3.75598">
        <ele>135.093216</ele>
        <time>2021-06-26T08:52:36Z</time>
      </trkpt>
      <trkpt lat="43.64861" lon="3.75591">
        <ele>135.264633</ele>
        <time>2021-06-26T08:52:41Z</time>
      </trkpt>
      <trkpt lat="43.64856" lon="3.75586">
        <ele>135.501663</ele>
        <time>2021-06-26T08:52:46Z</time>
      </trkpt>
      <trkpt lat="43.64851" lon="3.75578">
        <ele>135.875595</ele>
        <time>2021-06-26T08:52:51Z</time>
      </trkpt>
      <trkpt lat="43.64845" lon="3.7557">
        <ele>136.058365</ele>
        <time>2021-06-26T08:52:56Z</time>
      </trkpt>
      <trkpt lat="43.64839" lon="3.75561">
        <ele>136.332443</ele>
        <time>2021-06-26T08:53:01Z</time>
      </trkpt>
      <trkpt lat="43.64833" lon="3.75554">
        <ele>136.510025</ele>
        <time>2021-06-26T08:53:06Z</time>
      </trkpt>
      <trkpt lat="43.64828" lon="3.75546">
        <ele>136.74086</ele>
        <time>2021-06-26T08:53:11Z</time>
      </trkpt>
      <trkpt lat="43.64821" lon="3.75536">
        <ele>136.84613</ele>
        <time>2021-06-26T08:53:16Z</time>
      </trkpt>
      <trkpt lat="43.64812" lon="3.75528">
        <ele>136.932541</ele>
        <time>2021-06-26T08:53:21Z</time>
      </trkpt>
      <trkpt lat="43.64807" lon="3.7552">
        <ele>137.090698</ele>
        <time>2021-06-26T08:53:26Z</time>
      </trkpt>
      <trkpt lat="43.64799" lon="3.7551">
        <ele>137.207108</ele>
        <time>2021-06-26T08:53:31Z</time>
      </trkpt>
      <trkpt lat="43.64792" lon="3.755">
        <ele>137.26886</ele>
        <time>2021-06-26T08:53:36Z</time>
      </trkpt>
      <trkpt lat="43.64783" lon="3.75487">
        <ele>137.334656</ele>
        <time>2021-06-26T08:53:41Z</time>
      </trkpt>
      <trkpt lat="43.64771" lon="3.75471">
        <ele>137.383743</ele>
        <time>2021-06-26T08:53:46Z</time>
      </trkpt>
      <trkpt lat="43.6475" lon="3.75452">
        <ele>137.386627</ele>
        <time>2021-06-26T08:53:51Z</time>
      </trkpt>
      <trkpt lat="43.64743" lon="3.75435">
        <ele>137.562668</ele>
        <time>2021-06-26T08:53:56Z</time>
      </trkpt>
      <trkpt lat="43.64741" lon="3.75418">
        <ele>137.905518</ele>
        <time>2021-06-26T08:54:01Z</time>
      </trkpt>
      <trkpt lat="43.64736" lon="3.75405">
        <ele>137.863449</ele>
        <time>2021-06-26T08:54:06Z</time>
      </trkpt>
      <trkpt lat="43.6473" lon="3.75398">
        <ele>137.923264</ele>
        <time>2021-06-26T08:54:11Z</time>
      </trkpt>
      <trkpt lat="43.64722" lon="3.7539">
        <ele>138.213516</ele>
        <time>2021-06-26T08:54:16Z</time>
      </trkpt>
      <trkpt lat="43.64715" lon="3.75381">
        <ele>138.658676</ele>
        <time>2021-06-26T08:54:21Z</time>
      </trkpt>
      <trkpt lat="43.64708" lon="3.75371">
        <ele>139.514725</ele>
        <time>2021-06-26T08:54:26Z</time>
      </trkpt>
      <trkpt lat="43.64703" lon="3.75364">
        <ele>140.292892</ele>
        <time>2021-06-26T08:54:31Z</time>
      </trkpt>
      <trkpt lat="43.64682" lon="3.75343">
        <ele>141.223145</ele>
        <time>2021-06-26T08:54:46Z</time>
      </trkpt>
      <trkpt lat="43.64664" lon="3.7532">
        <ele>142.802246</ele>
        <time>2021-06-26T08:54:56Z</time>
      </trkpt>
      <trkpt lat="43.64653" lon="3.75307">
        <ele>144.607864</ele>
        <time>2021-06-26T08:55:01Z</time>
      </trkpt>
      <trkpt lat="43.64643" lon="3.75297">
        <ele>145.287918</ele>
        <time>2021-06-26T08:55:06Z</time>
      </trkpt>
      <trkpt lat="43.64634" lon="3.75287">
        <ele>146.047318</ele>
        <time>2021-06-26T08:55:11Z</time>
      </trkpt>
      <trkpt lat="43.64626" lon="3.75275">
        <ele>146.691757</ele>
        <time>2021-06-26T08:55:16Z</time>
      </trkpt>
      <trkpt lat="43.64616" lon="3.75265">
        <ele>147.322372</ele>
        <time>2021-06-26T08:55:21Z</time>
      </trkpt>
      <trkpt lat="43.64608" lon="3.75255">
        <ele>148.04393</ele>
        <time>2021-06-26T08:55:26Z</time>
      </trkpt>
      <trkpt lat="43.64602" lon="3.75248">
        <ele>148.65593</ele>
        <time>2021-06-26T08:55:31Z</time>
      </trkpt>
      <trkpt lat="43.64597" lon="3.75242">
        <ele>149.039856</ele>
        <time>2021-06-26T08:55:36Z</time>
      </trkpt>
      <trkpt lat="43.64592" lon="3.75237">
        <ele>149.40535</ele>
        <time>2021-06-26T08:55:41Z</time>
      </trkpt>
      <trkpt lat="43.64587" lon="3.7523">
        <ele>149.785492</ele>
        <time>2021-06-26T08:55:46Z</time>
      </trkpt>
      <trkpt lat="43.64581" lon="3.75223">
        <ele>149.839584</ele>
        <time>2021-06-26T08:55:51Z</time>
      </trkpt>
      <trkpt lat="43.64575" lon="3.75217">
        <ele>149.904724</ele>
        <time>2021-06-26T08:55:56Z</time>
      </trkpt>
      <trkpt lat="43.6457" lon="3.75209">
        <ele>150.012955</ele>
        <time>2021-06-26T08:56:01Z</time>
      </trkpt>
      <trkpt lat="43.64564" lon="3.75196">
        <ele>150.144852</ele>
        <time>2021-06-26T08:56:06Z</time>
      </trkpt>
      <trkpt lat="43.64558" lon="3.75188">
        <ele>150.266434</ele>
        <time>2021-06-26T08:56:11Z</time>
      </trkpt>
      <trkpt lat="43.64551" lon="3.75177">
        <ele>150.514099</ele>
        <time>2021-06-26T08:56:16Z</time>
      </trkpt>
      <trkpt lat="43.64544" lon="3.75168">
        <ele>150.838867</ele>
        <time>2021-06-26T08:56:21Z</time>
      </trkpt>
      <trkpt lat="43.64537" lon="3.7516">
        <ele>151.075928</ele>
        <time>2021-06-26T08:56:26Z</time>
      </trkpt>
      <trkpt lat="43.6453" lon="3.75151">
        <ele>151.407715</ele>
        <time>2021-06-26T08:56:31Z</time>
      </trkpt>
      <trkpt lat="43.64522" lon="3.75143">
        <ele>151.745361</ele>
        <time>2021-06-26T08:56:36Z</time>
      </trkpt>
      <trkpt lat="43.64512" lon="3.75138">
        <ele>151.921432</ele>
        <time>2021-06-26T08:56:41Z</time>
      </trkpt>
      <trkpt lat="43.64505" lon="3.75131">
        <ele>152.103622</ele>
        <time>2021-06-26T08:56:46Z</time>
      </trkpt>
      <trkpt lat="43.64502" lon="3.75121">
        <ele>152.210617</ele>
        <time>2021-06-26T08:56:51Z</time>
      </trkpt>
      <trkpt lat="43.64502" lon="3.75109">
        <ele>152.291306</ele>
        <time>2021-06-26T08:56:56Z</time>
      </trkpt>
      <trkpt lat="43.645" lon="3.75098">
        <ele>152.370438</ele>
        <time>2021-06-26T08:57:01Z</time>
      </trkpt>
      <trkpt lat="43.64495" lon="3.75091">
        <ele>152.477646</ele>
        <time>2021-06-26T08:57:06Z</time>
      </trkpt>
      <trkpt lat="43.64486" lon="3.75086">
        <ele>152.699738</ele>
        <time>2021-06-26T08:57:11Z</time>
      </trkpt>
      <trkpt lat="43.64477" lon="3.75081">
        <ele>152.998535</ele>
        <time>2021-06-26T08:57:16Z</time>
      </trkpt>
      <trkpt lat="43.64469" lon="3.75073">
        <ele>153.334213</ele>
        <time>2021-06-26T08:57:21Z</time>
      </trkpt>
      <trkpt lat="43.6446" lon="3.75062">
        <ele>153.762039</ele>
        <time>2021-06-26T08:57:26Z</time>
      </trkpt>
      <trkpt lat="43.64452" lon="3.75052">
        <ele>154.304031</ele>
        <time>2021-06-26T08:57:31Z</time>
      </trkpt>
      <trkpt lat="43.64444" lon="3.75043">
        <ele>154.650925</ele>
        <time>2021-06-26T08:57:36Z</time>
      </trkpt>
      <trkpt lat="43.64434" lon="3.7503">
        <ele>154.698746</ele>
        <time>2021-06-26T08:57:41Z</time>
      </trkpt>
      <trkpt lat="43.64423" lon="3.75015">
        <ele>154.685547</ele>
        <time>2021-06-26T08:57:46Z</time>
      </trkpt>
      <trkpt lat="43.64413" lon="3.74998">
        <ele>154.711014</ele>
        <time>2021-06-26T08:57:51Z</time>
      </trkpt>
      <trkpt lat="43.64402" lon="3.74979">
        <ele>154.855392</ele>
        <time>2021-06-26T08:57:56Z</time>
      </trkpt>
      <trkpt lat="43.64393" lon="3.74964">
        <ele>155.060913</ele>
        <time>2021-06-26T08:58:01Z</time>
      </trkpt>
      <trkpt lat="43.64387" lon="3.74949">
        <ele>155.405014</ele>
        <time>2021-06-26T08:58:06Z</time>
      </trkpt>
      <trkpt lat="43.64381" lon="3.74935">
        <ele>155.762283</ele>
        <time>2021-06-26T08:58:11Z</time>
      </trkpt>
      <trkpt lat="43.64375" lon="3.74922">
        <ele>156.006668</ele>
        <time>2021-06-26T08:58:16Z</time>
      </trkpt>
      <trkpt lat="43.64371" lon="3.7491">
        <ele>156.234543</ele>
        <time>2021-06-26T08:58:21Z</time>
      </trkpt>
      <trkpt lat="43.64365" lon="3.74898">
        <ele>156.375656</ele>
        <time>2021-06-26T08:58:26Z</time>
      </trkpt>
      <trkpt lat="43.64359" lon="3.74882">
        <ele>156.369308</ele>
        <time>2021-06-26T08:58:31Z</time>
      </trkpt>
      <trkpt lat="43.64354" lon="3.74868">
        <ele>156.235352</ele>
        <time>2021-06-26T08:58:36Z</time>
      </trkpt>
      <trkpt lat="43.64347" lon="3.7485">
        <ele>156.048508</ele>
        <time>2021-06-26T08:58:41Z</time>
      </trkpt>
      <trkpt lat="43.64339" lon="3.74827">
        <ele>155.87207</ele>
        <time>2021-06-26T08:58:46Z</time>
      </trkpt>
      <trkpt lat="43.6433" lon="3.74803">
        <ele>155.554733</ele>
        <time>2021-06-26T08:58:51Z</time>
      </trkpt>
      <trkpt lat="43.64319" lon="3.74776">
        <ele>155.261581</ele>
        <time>2021-06-26T08:58:56Z</time>
      </trkpt>
      <trkpt lat="43.64309" lon="3.74749">
        <ele>155.058304</ele>
        <time>2021-06-26T08:59:01Z</time>
      </trkpt>
      <trkpt lat="43.64297" lon="3.74722">
        <ele>154.463211</ele>
        <time>2021-06-26T08:59:06Z</time>
      </trkpt>
      <trkpt lat="43.64288" lon="3.74697">
        <ele>153.742508</ele>
        <time>2021-06-26T08:59:11Z</time>
      </trkpt>
      <trkpt lat="43.64277" lon="3.74671">
        <ele>153.21228</ele>
        <time>2021-06-26T08:59:16Z</time>
      </trkpt>
      <trkpt lat="43.6427" lon="3.7465">
        <ele>152.657272</ele>
        <time>2021-06-26T08:59:21Z</time>
      </trkpt>
      <trkpt lat="43.6426" lon="3.74628">
        <ele>152.369049</ele>
        <time>2021-06-26T08:59:26Z</time>
      </trkpt>
      <trkpt lat="43.64252" lon="3.74607">
        <ele>152.32991</ele>
        <time>2021-06-26T08:59:31Z</time>
      </trkpt>
      <trkpt lat="43.64245" lon="3.74587">
        <ele>152.728897</ele>
        <time>2021-06-26T08:59:36Z</time>
      </trkpt>
      <trkpt lat="43.64236" lon="3.74567">
        <ele>153.255142</ele>
        <time>2021-06-26T08:59:41Z</time>
      </trkpt>
      <trkpt lat="43.64224" lon="3.74551">
        <ele>153.6185</ele>
        <time>2021-06-26T08:59:46Z</time>
      </trkpt>
      <trkpt lat="43.64215" lon="3.74534">
        <ele>153.817169</ele>
        <time>2021-06-26T08:59:51Z</time>
      </trkpt>
      <trkpt lat="43.64206" lon="3.74513">
        <ele>153.925293</ele>
        <time>2021-06-26T08:59:56Z</time>
      </trkpt>
      <trkpt lat="43.64198" lon="3.74492">
        <ele>154.072586</ele>
        <time>2021-06-26T09:00:01Z</time>
      </trkpt>
      <trkpt lat="43.64188" lon="3.74471">
        <ele>154.337967</ele>
        <time>2021-06-26T09:00:06Z</time>
      </trkpt>
      <trkpt lat="43.6418" lon="3.74448">
        <ele>154.784012</ele>
        <time>2021-06-26T09:00:11Z</time>
      </trkpt>
      <trkpt lat="43.64177" lon="3.74426">
        <ele>155.333298</ele>
        <time>2021-06-26T09:00:16Z</time>
      </trkpt>
      <trkpt lat="43.64171" lon="3.74402">
        <ele>155.782364</ele>
        <time>2021-06-26T09:00:21Z</time>
      </trkpt>
      <trkpt lat="43.64163" lon="3.7438">
        <ele>156.241837</ele>
        <time>2021-06-26T09:00:26Z</time>
      </trkpt>
      <trkpt lat="43.64156" lon="3.74363">
        <ele>156.591385</ele>
        <time>2021-06-26T09:00:31Z</time>
      </trkpt>
      <trkpt lat="43.64153" lon="3.74341">
        <ele>156.845474</ele>
        <time>2021-06-26T09:00:36Z</time>
      </trkpt>
      <trkpt lat="43.64141" lon="3.74333">
        <ele>156.875595</ele>
        <time>2021-06-26T09:00:41Z</time>
      </trkpt>
      <trkpt lat="43.64132" lon="3.7434">
        <ele>156.857803</ele>
        <time>2021-06-26T09:00:46Z</time>
      </trkpt>
      <trkpt lat="43.64121" lon="3.74334">
        <ele>156.915039</ele>
        <time>2021-06-26T09:00:51Z</time>
      </trkpt>
      <trkpt lat="43.64108" lon="3.74336">
        <ele>156.945847</ele>
        <time>2021-06-26T09:00:56Z</time>
      </trkpt>
      <trkpt lat="43.64097" lon="3.74349">
        <ele>156.996277</ele>
        <time>2021-06-26T09:01:01Z</time>
      </trkpt>
      <trkpt lat="43.64088" lon="3.74361">
        <ele>157</ele>
        <time>2021-06-26T09:01:06Z</time>
      </trkpt>
      <trkpt lat="43.6408" lon="3.74373">
        <ele>156.938477</ele>
        <time>2021-06-26T09:01:11Z</time>
      </trkpt>
      <trkpt lat="43.64072" lon="3.74387">
        <ele>156.692062</ele>
        <time>2021-06-26T09:01:16Z</time>
      </trkpt>
      <trkpt lat="43.64064" lon="3.74397">
        <ele>156.280273</ele>
        <time>2021-06-26T09:01:21Z</time>
      </trkpt>
      <trkpt lat="43.64055" lon="3.74408">
        <ele>155.922195</ele>
        <time>2021-06-26T09:01:26Z</time>
      </trkpt>
      <trkpt lat="43.64045" lon="3.74419">
        <ele>155.602859</ele>
        <time>2021-06-26T09:01:31Z</time>
      </trkpt>
      <trkpt lat="43.64037" lon="3.74432">
        <ele>155.280136</ele>
        <time>2021-06-26T09:01:36Z</time>
      </trkpt>
      <trkpt lat="43.64029" lon="3.74444">
        <ele>154.835312</ele>
        <time>2021-06-26T09:01:41Z</time>
      </trkpt>
      <trkpt lat="43.64025" lon="3.74427">
        <ele>154.586304</ele>
        <time>2021-06-26T09:01:46Z</time>
      </trkpt>
      <trkpt lat="43.64021" lon="3.74408">
        <ele>154.697418</ele>
        <time>2021-06-26T09:01:51Z</time>
      </trkpt>
      <trkpt lat="43.64011" lon="3.74394">
        <ele>155.005569</ele>
        <time>2021-06-26T09:01:56Z</time>
      </trkpt>
      <trkpt lat="43.63995" lon="3.74387">
        <ele>155.017014</ele>
        <time>2021-06-26T09:02:01Z</time>
      </trkpt>
      <trkpt lat="43.63979" lon="3.74382">
        <ele>154.66124</ele>
        <time>2021-06-26T09:02:06Z</time>
      </trkpt>
      <trkpt lat="43.63965" lon="3.74376">
        <ele>154.174271</ele>
        <time>2021-06-26T09:02:11Z</time>
      </trkpt>
      <trkpt lat="43.6395" lon="3.74372">
        <ele>153.924911</ele>
        <time>2021-06-26T09:02:16Z</time>
      </trkpt>
      <trkpt lat="43.63935" lon="3.74369">
        <ele>153.78064</ele>
        <time>2021-06-26T09:02:21Z</time>
      </trkpt>
      <trkpt lat="43.63919" lon="3.74365">
        <ele>153.598129</ele>
        <time>2021-06-26T09:02:26Z</time>
      </trkpt>
      <trkpt lat="43.63913" lon="3.74351">
        <ele>153.343918</ele>
        <time>2021-06-26T09:02:31Z</time>
      </trkpt>
      <trkpt lat="43.63915" lon="3.74334">
        <ele>153.075195</ele>
        <time>2021-06-26T09:02:36Z</time>
      </trkpt>
      <trkpt lat="43.63918" lon="3.74314">
        <ele>152.823761</ele>
        <time>2021-06-26T09:02:41Z</time>
      </trkpt>
      <trkpt lat="43.63919" lon="3.74289">
        <ele>152.624268</ele>
        <time>2021-06-26T09:02:46Z</time>
      </trkpt>
      <trkpt lat="43.63912" lon="3.74259">
        <ele>152.438278</ele>
        <time>2021-06-26T09:02:51Z</time>
      </trkpt>
      <trkpt lat="43.63912" lon="3.74227">
        <ele>152.190109</ele>
        <time>2021-06-26T09:02:56Z</time>
      </trkpt>
      <trkpt lat="43.63905" lon="3.74198">
        <ele>152.142578</ele>
        <time>2021-06-26T09:03:01Z</time>
      </trkpt>
      <trkpt lat="43.63895" lon="3.74178">
        <ele>151.979721</ele>
        <time>2021-06-26T09:03:06Z</time>
      </trkpt>
      <trkpt lat="43.63884" lon="3.74164">
        <ele>152.250351</ele>
        <time>2021-06-26T09:03:11Z</time>
      </trkpt>
      <trkpt lat="43.63881" lon="3.74144">
        <ele>152.797501</ele>
        <time>2021-06-26T09:03:16Z</time>
      </trkpt>
      <trkpt lat="43.63881" lon="3.74123">
        <ele>152.778198</ele>
        <time>2021-06-26T09:03:21Z</time>
      </trkpt>
      <trkpt lat="43.63879" lon="3.74102">
        <ele>152.477615</ele>
        <time>2021-06-26T09:03:26Z</time>
      </trkpt>
      <trkpt lat="43.63877" lon="3.74082">
        <ele>152.297775</ele>
        <time>2021-06-26T09:03:31Z</time>
      </trkpt>
      <trkpt lat="43.63876" lon="3.74058">
        <ele>152.179871</ele>
        <time>2021-06-26T09:03:36Z</time>
      </trkpt>
      <trkpt lat="43.63873" lon="3.74033">
        <ele>152.099945</ele>
        <time>2021-06-26T09:03:41Z</time>
      </trkpt>
      <trkpt lat="43.63875" lon="3.74012">
        <ele>152.036209</ele>
        <time>2021-06-26T09:03:46Z</time>
      </trkpt>
      <trkpt lat="43.63874" lon="3.73989">
        <ele>151.813065</ele>
        <time>2021-06-26T09:03:51Z</time>
      </trkpt>
      <trkpt lat="43.63872" lon="3.73967">
        <ele>151.71965</ele>
        <time>2021-06-26T09:03:56Z</time>
      </trkpt>
      <trkpt lat="43.63869" lon="3.73943">
        <ele>151.701355</ele>
        <time>2021-06-26T09:04:01Z</time>
      </trkpt>
      <trkpt lat="43.63868" lon="3.73919">
        <ele>151.788666</ele>
        <time>2021-06-26T09:04:06Z</time>
      </trkpt>
      <trkpt lat="43.63866" lon="3.73892">
        <ele>151.924973</ele>
        <time>2021-06-26T09:04:11Z</time>
      </trkpt>
      <trkpt lat="43.63865" lon="3.73866">
        <ele>152.121506</ele>
        <time>2021-06-26T09:04:16Z</time>
      </trkpt>
      <trkpt lat="43.63868" lon="3.73845">
        <ele>152.140549</ele>
        <time>2021-06-26T09:04:21Z</time>
      </trkpt>
      <trkpt lat="43.63868" lon="3.73821">
        <ele>151.819214</ele>
        <time>2021-06-26T09:04:26Z</time>
      </trkpt>
      <trkpt lat="43.63871" lon="3.73796">
        <ele>151.581436</ele>
        <time>2021-06-26T09:04:31Z</time>
      </trkpt>
      <trkpt lat="43.63862" lon="3.73772">
        <ele>151.439514</ele>
        <time>2021-06-26T09:04:36Z</time>
      </trkpt>
      <trkpt lat="43.6385" lon="3.7375">
        <ele>151.705399</ele>
        <time>2021-06-26T09:04:41Z</time>
      </trkpt>
      <trkpt lat="43.63839" lon="3.73731">
        <ele>153.203171</ele>
        <time>2021-06-26T09:04:46Z</time>
      </trkpt>
      <trkpt lat="43.63836" lon="3.73704">
        <ele>154.735992</ele>
        <time>2021-06-26T09:04:51Z</time>
      </trkpt>
      <trkpt lat="43.63835" lon="3.73678">
        <ele>155.34465</ele>
        <time>2021-06-26T09:04:56Z</time>
      </trkpt>
      <trkpt lat="43.63836" lon="3.7365">
        <ele>155.435059</ele>
        <time>2021-06-26T09:05:01Z</time>
      </trkpt>
      <trkpt lat="43.63837" lon="3.73621">
        <ele>155.36882</ele>
        <time>2021-06-26T09:05:06Z</time>
      </trkpt>
      <trkpt lat="43.63838" lon="3.73595">
        <ele>155.21843</ele>
        <time>2021-06-26T09:05:11Z</time>
      </trkpt>
      <trkpt lat="43.6384" lon="3.73569">
        <ele>155.004562</ele>
        <time>2021-06-26T09:05:16Z</time>
      </trkpt>
      <trkpt lat="43.63841" lon="3.73543">
        <ele>154.34993</ele>
        <time>2021-06-26T09:05:21Z</time>
      </trkpt>
      <trkpt lat="43.63841" lon="3.73518">
        <ele>153.772629</ele>
        <time>2021-06-26T09:05:26Z</time>
      </trkpt>
      <trkpt lat="43.63841" lon="3.73491">
        <ele>153.294022</ele>
        <time>2021-06-26T09:05:31Z</time>
      </trkpt>
      <trkpt lat="43.63841" lon="3.73464">
        <ele>152.487305</ele>
        <time>2021-06-26T09:05:36Z</time>
      </trkpt>
      <trkpt lat="43.63842" lon="3.73434">
        <ele>151.795883</ele>
        <time>2021-06-26T09:05:41Z</time>
      </trkpt>
      <trkpt lat="43.63844" lon="3.73408">
        <ele>150.348663</ele>
        <time>2021-06-26T09:05:46Z</time>
      </trkpt>
      <trkpt lat="43.63846" lon="3.73381">
        <ele>148.924454</ele>
        <time>2021-06-26T09:05:51Z</time>
      </trkpt>
      <trkpt lat="43.63847" lon="3.73357">
        <ele>147.945877</ele>
        <time>2021-06-26T09:05:56Z</time>
      </trkpt>
      <trkpt lat="43.63849" lon="3.73331">
        <ele>146.835617</ele>
        <time>2021-06-26T09:06:01Z</time>
      </trkpt>
      <trkpt lat="43.63849" lon="3.733">
        <ele>146.145996</ele>
        <time>2021-06-26T09:06:06Z</time>
      </trkpt>
      <trkpt lat="43.63847" lon="3.73268">
        <ele>145.582413</ele>
        <time>2021-06-26T09:06:11Z</time>
      </trkpt>
      <trkpt lat="43.63844" lon="3.73235">
        <ele>144.489609</ele>
        <time>2021-06-26T09:06:16Z</time>
      </trkpt>
      <trkpt lat="43.63844" lon="3.73203">
        <ele>144.115982</ele>
        <time>2021-06-26T09:06:21Z</time>
      </trkpt>
      <trkpt lat="43.63844" lon="3.73171">
        <ele>143.690109</ele>
        <time>2021-06-26T09:06:26Z</time>
      </trkpt>
      <trkpt lat="43.63846" lon="3.73137">
        <ele>143.669785</ele>
        <time>2021-06-26T09:06:31Z</time>
      </trkpt>
      <trkpt lat="43.63849" lon="3.73102">
        <ele>143.844437</ele>
        <time>2021-06-26T09:06:36Z</time>
      </trkpt>
      <trkpt lat="43.63853" lon="3.7307">
        <ele>143.770798</ele>
        <time>2021-06-26T09:06:41Z</time>
      </trkpt>
      <trkpt lat="43.63857" lon="3.73039">
        <ele>143.168365</ele>
        <time>2021-06-26T09:06:46Z</time>
      </trkpt>
      <trkpt lat="43.6386" lon="3.73007">
        <ele>142.887939</ele>
        <time>2021-06-26T09:06:51Z</time>
      </trkpt>
      <trkpt lat="43.63865" lon="3.72974">
        <ele>142.826584</ele>
        <time>2021-06-26T09:06:56Z</time>
      </trkpt>
      <trkpt lat="43.6387" lon="3.72941">
        <ele>142.68689</ele>
        <time>2021-06-26T09:07:01Z</time>
      </trkpt>
      <trkpt lat="43.63874" lon="3.72907">
        <ele>142.299088</ele>
        <time>2021-06-26T09:07:06Z</time>
      </trkpt>
      <trkpt lat="43.63879" lon="3.72874">
        <ele>142.167892</ele>
        <time>2021-06-26T09:07:11Z</time>
      </trkpt>
      <trkpt lat="43.63886" lon="3.72841">
        <ele>142.219238</ele>
        <time>2021-06-26T09:07:16Z</time>
      </trkpt>
      <trkpt lat="43.63892" lon="3.72806">
        <ele>142.197342</ele>
        <time>2021-06-26T09:07:21Z</time>
      </trkpt>
      <trkpt lat="43.639" lon="3.72774">
        <ele>141.817947</ele>
        <time>2021-06-26T09:07:26Z</time>
      </trkpt>
      <trkpt lat="43.63908" lon="3.72741">
        <ele>141.326065</ele>
        <time>2021-06-26T09:07:31Z</time>
      </trkpt>
      <trkpt lat="43.63915" lon="3.72708">
        <ele>140.520752</ele>
        <time>2021-06-26T09:07:36Z</time>
      </trkpt>
      <trkpt lat="43.63924" lon="3.72675">
        <ele>140.408539</ele>
        <time>2021-06-26T09:07:41Z</time>
      </trkpt>
      <trkpt lat="43.63933" lon="3.72642">
        <ele>140.703323</ele>
        <time>2021-06-26T09:07:46Z</time>
      </trkpt>
      <trkpt lat="43.63943" lon="3.7261">
        <ele>140.929947</ele>
        <time>2021-06-26T09:07:51Z</time>
      </trkpt>
      <trkpt lat="43.63953" lon="3.72579">
        <ele>140.99057</ele>
        <time>2021-06-26T09:07:56Z</time>
      </trkpt>
      <trkpt lat="43.63962" lon="3.72548">
        <ele>141.044296</ele>
        <time>2021-06-26T09:08:01Z</time>
      </trkpt>
      <trkpt lat="43.63975" lon="3.72517">
        <ele>141.110825</ele>
        <time>2021-06-26T09:08:06Z</time>
      </trkpt>
      <trkpt lat="43.63989" lon="3.72487">
        <ele>140.902451</ele>
        <time>2021-06-26T09:08:11Z</time>
      </trkpt>
      <trkpt lat="43.64004" lon="3.72457">
        <ele>140.598038</ele>
        <time>2021-06-26T09:08:16Z</time>
      </trkpt>
      <trkpt lat="43.6402" lon="3.72427">
        <ele>140.102661</ele>
        <time>2021-06-26T09:08:21Z</time>
      </trkpt>
      <trkpt lat="43.64037" lon="3.72399">
        <ele>139.463272</ele>
        <time>2021-06-26T09:08:26Z</time>
      </trkpt>
      <trkpt lat="43.64056" lon="3.72375">
        <ele>137.828125</ele>
        <time>2021-06-26T09:08:31Z</time>
      </trkpt>
      <trkpt lat="43.64072" lon="3.72348">
        <ele>136.870041</ele>
        <time>2021-06-26T09:08:36Z</time>
      </trkpt>
      <trkpt lat="43.64088" lon="3.72322">
        <ele>136.280426</ele>
        <time>2021-06-26T09:08:41Z</time>
      </trkpt>
      <trkpt lat="43.64102" lon="3.72295">
        <ele>135.778152</ele>
        <time>2021-06-26T09:08:46Z</time>
      </trkpt>
      <trkpt lat="43.64115" lon="3.7227">
        <ele>135.424973</ele>
        <time>2021-06-26T09:08:51Z</time>
      </trkpt>
      <trkpt lat="43.64127" lon="3.72243">
        <ele>135.019821</ele>
        <time>2021-06-26T09:08:56Z</time>
      </trkpt>
      <trkpt lat="43.64138" lon="3.72214">
        <ele>134.972351</ele>
        <time>2021-06-26T09:09:01Z</time>
      </trkpt>
      <trkpt lat="43.6415" lon="3.72185">
        <ele>134.995621</ele>
        <time>2021-06-26T09:09:06Z</time>
      </trkpt>
      <trkpt lat="43.64162" lon="3.72155">
        <ele>135</ele>
        <time>2021-06-26T09:09:11Z</time>
      </trkpt>
      <trkpt lat="43.64175" lon="3.72128">
        <ele>134.951401</ele>
        <time>2021-06-26T09:09:16Z</time>
      </trkpt>
      <trkpt lat="43.64186" lon="3.72099">
        <ele>134.584641</ele>
        <time>2021-06-26T09:09:21Z</time>
      </trkpt>
      <trkpt lat="43.64198" lon="3.72071">
        <ele>134.19046</ele>
        <time>2021-06-26T09:09:26Z</time>
      </trkpt>
      <trkpt lat="43.64211" lon="3.72043">
        <ele>133.582382</ele>
        <time>2021-06-26T09:09:31Z</time>
      </trkpt>
      <trkpt lat="43.64216" lon="3.7201">
        <ele>133.192566</ele>
        <time>2021-06-26T09:09:36Z</time>
      </trkpt>
      <trkpt lat="43.64219" lon="3.71978">
        <ele>133.140091</ele>
        <time>2021-06-26T09:09:41Z</time>
      </trkpt>
      <trkpt lat="43.64222" lon="3.71949">
        <ele>133.342728</ele>
        <time>2021-06-26T09:09:46Z</time>
      </trkpt>
      <trkpt lat="43.64226" lon="3.71923">
        <ele>133.53981</ele>
        <time>2021-06-26T09:09:51Z</time>
      </trkpt>
      <trkpt lat="43.64222" lon="3.71902">
        <ele>133.626297</ele>
        <time>2021-06-26T09:09:56Z</time>
      </trkpt>
      <trkpt lat="43.64223" lon="3.71882">
        <ele>133.612305</ele>
        <time>2021-06-26T09:10:01Z</time>
      </trkpt>
      <trkpt lat="43.6423" lon="3.71863">
        <ele>133.771255</ele>
        <time>2021-06-26T09:10:06Z</time>
      </trkpt>
      <trkpt lat="43.64237" lon="3.71846">
        <ele>134.872635</ele>
        <time>2021-06-26T09:10:11Z</time>
      </trkpt>
      <trkpt lat="43.64241" lon="3.71828">
        <ele>135.781937</ele>
        <time>2021-06-26T09:10:16Z</time>
      </trkpt>
      <trkpt lat="43.64246" lon="3.71809">
        <ele>136.273453</ele>
        <time>2021-06-26T09:10:21Z</time>
      </trkpt>
      <trkpt lat="43.64249" lon="3.71788">
        <ele>137.15181</ele>
        <time>2021-06-26T09:10:26Z</time>
      </trkpt>
      <trkpt lat="43.64251" lon="3.71767">
        <ele>138.201385</ele>
        <time>2021-06-26T09:10:31Z</time>
      </trkpt>
      <trkpt lat="43.64248" lon="3.7175">
        <ele>139.105545</ele>
        <time>2021-06-26T09:10:36Z</time>
      </trkpt>
      <trkpt lat="43.6424" lon="3.71746">
        <ele>140.022705</ele>
        <time>2021-06-26T09:10:41Z</time>
      </trkpt>
      <trkpt lat="43.64232" lon="3.71755">
        <ele>140.639938</ele>
        <time>2021-06-26T09:10:46Z</time>
      </trkpt>
      <trkpt lat="43.64222" lon="3.71761">
        <ele>140.83342</ele>
        <time>2021-06-26T09:10:51Z</time>
      </trkpt>
      <trkpt lat="43.64215" lon="3.71755">
        <ele>140.95282</ele>
        <time>2021-06-26T09:10:56Z</time>
      </trkpt>
      <trkpt lat="43.64211" lon="3.71745">
        <ele>141.646011</ele>
        <time>2021-06-26T09:11:01Z</time>
      </trkpt>
      <trkpt lat="43.64206" lon="3.71732">
        <ele>142.35524</ele>
        <time>2021-06-26T09:11:06Z</time>
      </trkpt>
      <trkpt lat="43.64202" lon="3.7172">
        <ele>143.548157</ele>
        <time>2021-06-26T09:11:11Z</time>
      </trkpt>
      <trkpt lat="43.64199" lon="3.7171">
        <ele>144.619431</ele>
        <time>2021-06-26T09:11:16Z</time>
      </trkpt>
      <trkpt lat="43.64197" lon="3.71702">
        <ele>145.506302</ele>
        <time>2021-06-26T09:11:21Z</time>
      </trkpt>
      <trkpt lat="43.64196" lon="3.71694">
        <ele>146.113953</ele>
        <time>2021-06-26T09:11:26Z</time>
      </trkpt>
      <trkpt lat="43.64191" lon="3.71681">
        <ele>147.240097</ele>
        <time>2021-06-26T09:12:21Z</time>
      </trkpt>
      <trkpt lat="43.64187" lon="3.71671">
        <ele>147.93074</ele>
        <time>2021-06-26T09:12:31Z</time>
      </trkpt>
      <trkpt lat="43.6418" lon="3.71663">
        <ele>149.032135</ele>
        <time>2021-06-26T09:12:36Z</time>
      </trkpt>
      <trkpt lat="43.64173" lon="3.71657">
        <ele>149.922363</ele>
        <time>2021-06-26T09:12:41Z</time>
      </trkpt>
      <trkpt lat="43.64167" lon="3.71649">
        <ele>150.224121</ele>
        <time>2021-06-26T09:12:46Z</time>
      </trkpt>
      <trkpt lat="43.64161" lon="3.71644">
        <ele>150.589111</ele>
        <time>2021-06-26T09:12:51Z</time>
      </trkpt>
      <trkpt lat="43.64154" lon="3.71639">
        <ele>150.876877</ele>
        <time>2021-06-26T09:12:56Z</time>
      </trkpt>
      <trkpt lat="43.64148" lon="3.71635">
        <ele>151.036942</ele>
        <time>2021-06-26T09:13:01Z</time>
      </trkpt>
      <trkpt lat="43.64143" lon="3.71626">
        <ele>151.212967</ele>
        <time>2021-06-26T09:13:06Z</time>
      </trkpt>
      <trkpt lat="43.64137" lon="3.71621">
        <ele>151.575607</ele>
        <time>2021-06-26T09:13:11Z</time>
      </trkpt>
      <trkpt lat="43.6413" lon="3.71616">
        <ele>151.827637</ele>
        <time>2021-06-26T09:13:16Z</time>
      </trkpt>
      <trkpt lat="43.64122" lon="3.7161">
        <ele>152.039871</ele>
        <time>2021-06-26T09:13:21Z</time>
      </trkpt>
      <trkpt lat="43.64114" lon="3.71607">
        <ele>152.067795</ele>
        <time>2021-06-26T09:13:26Z</time>
      </trkpt>
      <trkpt lat="43.64106" lon="3.71604">
        <ele>151.901413</ele>
        <time>2021-06-26T09:13:31Z</time>
      </trkpt>
      <trkpt lat="43.641" lon="3.71597">
        <ele>151.410477</ele>
        <time>2021-06-26T09:13:36Z</time>
      </trkpt>
      <trkpt lat="43.64091" lon="3.71589">
        <ele>150.827148</ele>
        <time>2021-06-26T09:13:41Z</time>
      </trkpt>
      <trkpt lat="43.64084" lon="3.71579">
        <ele>150.244308</ele>
        <time>2021-06-26T09:13:46Z</time>
      </trkpt>
      <trkpt lat="43.64077" lon="3.71569">
        <ele>149.406082</ele>
        <time>2021-06-26T09:13:51Z</time>
      </trkpt>
      <trkpt lat="43.64071" lon="3.71556">
        <ele>148.701828</ele>
        <time>2021-06-26T09:13:56Z</time>
      </trkpt>
      <trkpt lat="43.64066" lon="3.71539">
        <ele>147.981277</ele>
        <time>2021-06-26T09:14:01Z</time>
      </trkpt>
      <trkpt lat="43.64065" lon="3.71519">
        <ele>147.316452</ele>
        <time>2021-06-26T09:14:06Z</time>
      </trkpt>
      <trkpt lat="43.64066" lon="3.71501">
        <ele>146.327835</ele>
        <time>2021-06-26T09:14:11Z</time>
      </trkpt>
      <trkpt lat="43.64067" lon="3.71482">
        <ele>145.65155</ele>
        <time>2021-06-26T09:14:16Z</time>
      </trkpt>
      <trkpt lat="43.64065" lon="3.7146">
        <ele>144.963943</ele>
        <time>2021-06-26T09:14:21Z</time>
      </trkpt>
      <trkpt lat="43.64063" lon="3.71429">
        <ele>144.175705</ele>
        <time>2021-06-26T09:14:26Z</time>
      </trkpt>
      <trkpt lat="43.64063" lon="3.71401">
        <ele>142.521317</ele>
        <time>2021-06-26T09:14:31Z</time>
      </trkpt>
      <trkpt lat="43.64066" lon="3.71377">
        <ele>141.487366</ele>
        <time>2021-06-26T09:14:36Z</time>
      </trkpt>
      <trkpt lat="43.64065" lon="3.71357">
        <ele>140.535355</ele>
        <time>2021-06-26T09:14:41Z</time>
      </trkpt>
      <trkpt lat="43.6405" lon="3.71339">
        <ele>139.93837</ele>
        <time>2021-06-26T09:14:46Z</time>
      </trkpt>
      <trkpt lat="43.64042" lon="3.71321">
        <ele>138.611618</ele>
        <time>2021-06-26T09:14:51Z</time>
      </trkpt>
      <trkpt lat="43.64037" lon="3.71292">
        <ele>138.26622</ele>
        <time>2021-06-26T09:14:56Z</time>
      </trkpt>
      <trkpt lat="43.64039" lon="3.71279">
        <ele>138.491318</ele>
        <time>2021-06-26T09:15:01Z</time>
      </trkpt>
      <trkpt lat="43.64028" lon="3.71287">
        <ele>138.608765</ele>
        <time>2021-06-26T09:15:11Z</time>
      </trkpt>
      <trkpt lat="43.6401" lon="3.713">
        <ele>139.316101</ele>
        <time>2021-06-26T09:15:21Z</time>
      </trkpt>
      <trkpt lat="43.63995" lon="3.71314">
        <ele>140.57933</ele>
        <time>2021-06-26T09:15:26Z</time>
      </trkpt>
      <trkpt lat="43.63984" lon="3.71331">
        <ele>141.72258</ele>
        <time>2021-06-26T09:15:31Z</time>
      </trkpt>
      <trkpt lat="43.63974" lon="3.71346">
        <ele>142.355377</ele>
        <time>2021-06-26T09:15:36Z</time>
      </trkpt>
      <trkpt lat="43.63958" lon="3.71356">
        <ele>143.236069</ele>
        <time>2021-06-26T09:15:41Z</time>
      </trkpt>
      <trkpt lat="43.63946" lon="3.71369">
        <ele>144.716537</ele>
        <time>2021-06-26T09:15:46Z</time>
      </trkpt>
      <trkpt lat="43.63944" lon="3.71388">
        <ele>145.754654</ele>
        <time>2021-06-26T09:15:51Z</time>
      </trkpt>
      <trkpt lat="43.63944" lon="3.71411">
        <ele>146.244476</ele>
        <time>2021-06-26T09:15:56Z</time>
      </trkpt>
      <trkpt lat="43.63944" lon="3.71432">
        <ele>146.257401</ele>
        <time>2021-06-26T09:16:01Z</time>
      </trkpt>
      <trkpt lat="43.63942" lon="3.71453">
        <ele>146.204178</ele>
        <time>2021-06-26T09:16:06Z</time>
      </trkpt>
      <trkpt lat="43.63942" lon="3.7147">
        <ele>146.12886</ele>
        <time>2021-06-26T09:16:11Z</time>
      </trkpt>
      <trkpt lat="43.63948" lon="3.71481">
        <ele>146.073715</ele>
        <time>2021-06-26T09:16:16Z</time>
      </trkpt>
      <trkpt lat="43.63955" lon="3.71491">
        <ele>145.623154</ele>
        <time>2021-06-26T09:16:26Z</time>
      </trkpt>
      <trkpt lat="43.63957" lon="3.71503">
        <ele>145.552551</ele>
        <time>2021-06-26T09:16:36Z</time>
      </trkpt>
      <trkpt lat="43.63958" lon="3.71513">
        <ele>145.350128</ele>
        <time>2021-06-26T09:16:41Z</time>
      </trkpt>
      <trkpt lat="43.63958" lon="3.71523">
        <ele>145.24646</ele>
        <time>2021-06-26T09:16:46Z</time>
      </trkpt>
      <trkpt lat="43.63959" lon="3.71534">
        <ele>145.160721</ele>
        <time>2021-06-26T09:16:51Z</time>
      </trkpt>
      <trkpt lat="43.63958" lon="3.71546">
        <ele>145.076187</ele>
        <time>2021-06-26T09:16:56Z</time>
      </trkpt>
      <trkpt lat="43.6395" lon="3.71557">
        <ele>145.014648</ele>
        <time>2021-06-26T09:17:01Z</time>
      </trkpt>
      <trkpt lat="43.63945" lon="3.71571">
        <ele>144.932785</ele>
        <time>2021-06-26T09:17:06Z</time>
      </trkpt>
      <trkpt lat="43.63942" lon="3.7159">
        <ele>144.83519</ele>
        <time>2021-06-26T09:17:11Z</time>
      </trkpt>
      <trkpt lat="43.63932" lon="3.71589">
        <ele>144.688156</ele>
        <time>2021-06-26T09:17:16Z</time>
      </trkpt>
      <trkpt lat="43.63923" lon="3.7158">
        <ele>144.586182</ele>
        <time>2021-06-26T09:17:21Z</time>
      </trkpt>
      <trkpt lat="43.63914" lon="3.71569">
        <ele>144.592026</ele>
        <time>2021-06-26T09:17:26Z</time>
      </trkpt>
      <trkpt lat="43.63904" lon="3.71558">
        <ele>144.658997</ele>
        <time>2021-06-26T09:17:31Z</time>
      </trkpt>
      <trkpt lat="43.63892" lon="3.71547">
        <ele>144.835144</ele>
        <time>2021-06-26T09:17:36Z</time>
      </trkpt>
      <trkpt lat="43.63882" lon="3.71536">
        <ele>145.52623</ele>
        <time>2021-06-26T09:17:41Z</time>
      </trkpt>
      <trkpt lat="43.6387" lon="3.71524">
        <ele>146.197266</ele>
        <time>2021-06-26T09:17:46Z</time>
      </trkpt>
      <trkpt lat="43.63857" lon="3.7151">
        <ele>146.783096</ele>
        <time>2021-06-26T09:17:51Z</time>
      </trkpt>
      <trkpt lat="43.63844" lon="3.71494">
        <ele>147.661926</ele>
        <time>2021-06-26T09:17:56Z</time>
      </trkpt>
      <trkpt lat="43.63831" lon="3.7148">
        <ele>148.483154</ele>
        <time>2021-06-26T09:18:01Z</time>
      </trkpt>
      <trkpt lat="43.63823" lon="3.71475">
        <ele>148.998581</ele>
        <time>2021-06-26T09:18:06Z</time>
      </trkpt>
      <trkpt lat="43.63815" lon="3.71471">
        <ele>149.207428</ele>
        <time>2021-06-26T09:18:11Z</time>
      </trkpt>
      <trkpt lat="43.63808" lon="3.71467">
        <ele>149.338455</ele>
        <time>2021-06-26T09:18:16Z</time>
      </trkpt>
      <trkpt lat="43.63801" lon="3.71463">
        <ele>149.445938</ele>
        <time>2021-06-26T09:18:21Z</time>
      </trkpt>
      <trkpt lat="43.63794" lon="3.71462">
        <ele>149.518539</ele>
        <time>2021-06-26T09:18:26Z</time>
      </trkpt>
      <trkpt lat="43.63787" lon="3.71455">
        <ele>149.569611</ele>
        <time>2021-06-26T09:18:31Z</time>
      </trkpt>
      <trkpt lat="43.63778" lon="3.71451">
        <ele>149.600876</ele>
        <time>2021-06-26T09:18:36Z</time>
      </trkpt>
      <trkpt lat="43.6377" lon="3.71447">
        <ele>149.601166</ele>
        <time>2021-06-26T09:18:41Z</time>
      </trkpt>
      <trkpt lat="43.63762" lon="3.71446">
        <ele>149.583466</ele>
        <time>2021-06-26T09:18:46Z</time>
      </trkpt>
      <trkpt lat="43.63753" lon="3.71444">
        <ele>149.521011</ele>
        <time>2021-06-26T09:18:51Z</time>
      </trkpt>
      <trkpt lat="43.63742" lon="3.71436">
        <ele>149.421188</ele>
        <time>2021-06-26T09:18:56Z</time>
      </trkpt>
      <trkpt lat="43.63729" lon="3.71425">
        <ele>149.309921</ele>
        <time>2021-06-26T09:19:01Z</time>
      </trkpt>
      <trkpt lat="43.63716" lon="3.71411">
        <ele>149.141785</ele>
        <time>2021-06-26T09:19:06Z</time>
      </trkpt>
      <trkpt lat="43.63705" lon="3.71395">
        <ele>149.025467</ele>
        <time>2021-06-26T09:19:11Z</time>
      </trkpt>
      <trkpt lat="43.63699" lon="3.71375">
        <ele>149.000702</ele>
        <time>2021-06-26T09:19:16Z</time>
      </trkpt>
      <trkpt lat="43.63693" lon="3.71355">
        <ele>148.972656</ele>
        <time>2021-06-26T09:19:21Z</time>
      </trkpt>
      <trkpt lat="43.6369" lon="3.71334">
        <ele>148.896729</ele>
        <time>2021-06-26T09:19:26Z</time>
      </trkpt>
      <trkpt lat="43.63679" lon="3.71319">
        <ele>148.859222</ele>
        <time>2021-06-26T09:19:31Z</time>
      </trkpt>
      <trkpt lat="43.63667" lon="3.71307">
        <ele>148.78624</ele>
        <time>2021-06-26T09:19:36Z</time>
      </trkpt>
      <trkpt lat="43.63661" lon="3.7129">
        <ele>148.756485</ele>
        <time>2021-06-26T09:19:41Z</time>
      </trkpt>
      <trkpt lat="43.63655" lon="3.71273">
        <ele>148.788681</ele>
        <time>2021-06-26T09:19:46Z</time>
      </trkpt>
      <trkpt lat="43.63648" lon="3.71255">
        <ele>148.954041</ele>
        <time>2021-06-26T09:19:51Z</time>
      </trkpt>
      <trkpt lat="43.63643" lon="3.71237">
        <ele>149.287796</ele>
        <time>2021-06-26T09:19:56Z</time>
      </trkpt>
      <trkpt lat="43.63635" lon="3.71221">
        <ele>149.754379</ele>
        <time>2021-06-26T09:20:01Z</time>
      </trkpt>
      <trkpt lat="43.63627" lon="3.71205">
        <ele>150.172333</ele>
        <time>2021-06-26T09:20:06Z</time>
      </trkpt>
      <trkpt lat="43.63621" lon="3.71187">
        <ele>150.731781</ele>
        <time>2021-06-26T09:20:11Z</time>
      </trkpt>
      <trkpt lat="43.63617" lon="3.7117">
        <ele>151.037796</ele>
        <time>2021-06-26T09:20:16Z</time>
      </trkpt>
      <trkpt lat="43.63618" lon="3.71152">
        <ele>151.307938</ele>
        <time>2021-06-26T09:20:21Z</time>
      </trkpt>
      <trkpt lat="43.63619" lon="3.71136">
        <ele>151.621292</ele>
        <time>2021-06-26T09:20:26Z</time>
      </trkpt>
      <trkpt lat="43.63619" lon="3.71117">
        <ele>151.884399</ele>
        <time>2021-06-26T09:20:31Z</time>
      </trkpt>
      <trkpt lat="43.63622" lon="3.71096">
        <ele>152.348557</ele>
        <time>2021-06-26T09:20:36Z</time>
      </trkpt>
      <trkpt lat="43.63624" lon="3.71073">
        <ele>152.808426</ele>
        <time>2021-06-26T09:20:41Z</time>
      </trkpt>
      <trkpt lat="43.63625" lon="3.7105">
        <ele>153.547958</ele>
        <time>2021-06-26T09:20:46Z</time>
      </trkpt>
      <trkpt lat="43.63619" lon="3.71031">
        <ele>153.98703</ele>
        <time>2021-06-26T09:20:51Z</time>
      </trkpt>
      <trkpt lat="43.63601" lon="3.71013">
        <ele>154.341248</ele>
        <time>2021-06-26T09:20:56Z</time>
      </trkpt>
      <trkpt lat="43.63593" lon="3.7099">
        <ele>154.577515</ele>
        <time>2021-06-26T09:21:01Z</time>
      </trkpt>
      <trkpt lat="43.63587" lon="3.70964">
        <ele>154.964722</ele>
        <time>2021-06-26T09:21:06Z</time>
      </trkpt>
      <trkpt lat="43.63583" lon="3.70937">
        <ele>155.542526</ele>
        <time>2021-06-26T09:21:11Z</time>
      </trkpt>
      <trkpt lat="43.63579" lon="3.7091">
        <ele>156.024414</ele>
        <time>2021-06-26T09:21:16Z</time>
      </trkpt>
      <trkpt lat="43.63576" lon="3.70884">
        <ele>156.350082</ele>
        <time>2021-06-26T09:21:21Z</time>
      </trkpt>
      <trkpt lat="43.63573" lon="3.70862">
        <ele>156.744461</ele>
        <time>2021-06-26T09:21:26Z</time>
      </trkpt>
      <trkpt lat="43.63567" lon="3.70841">
        <ele>156.988602</ele>
        <time>2021-06-26T09:21:31Z</time>
      </trkpt>
      <trkpt lat="43.63556" lon="3.70826">
        <ele>157.209961</ele>
        <time>2021-06-26T09:21:36Z</time>
      </trkpt>
      <trkpt lat="43.63546" lon="3.70805">
        <ele>157.180984</ele>
        <time>2021-06-26T09:21:41Z</time>
      </trkpt>
      <trkpt lat="43.63539" lon="3.70781">
        <ele>157.000488</ele>
        <time>2021-06-26T09:21:46Z</time>
      </trkpt>
      <trkpt lat="43.63534" lon="3.70757">
        <ele>157.018967</ele>
        <time>2021-06-26T09:21:51Z</time>
      </trkpt>
      <trkpt lat="43.63529" lon="3.70734">
        <ele>157.143143</ele>
        <time>2021-06-26T09:21:56Z</time>
      </trkpt>
      <trkpt lat="43.63536" lon="3.70717">
        <ele>157.29744</ele>
        <time>2021-06-26T09:22:01Z</time>
      </trkpt>
      <trkpt lat="43.63542" lon="3.707">
        <ele>157.659348</ele>
        <time>2021-06-26T09:22:06Z</time>
      </trkpt>
      <trkpt lat="43.6354" lon="3.70677">
        <ele>158.009277</ele>
        <time>2021-06-26T09:22:11Z</time>
      </trkpt>
      <trkpt lat="43.6354" lon="3.70658">
        <ele>158.010986</ele>
        <time>2021-06-26T09:22:16Z</time>
      </trkpt>
      <trkpt lat="43.63539" lon="3.70637">
        <ele>157.972733</ele>
        <time>2021-06-26T09:22:21Z</time>
      </trkpt>
      <trkpt lat="43.63535" lon="3.70611">
        <ele>157.972855</ele>
        <time>2021-06-26T09:22:26Z</time>
      </trkpt>
      <trkpt lat="43.63533" lon="3.70587">
        <ele>157.990082</ele>
        <time>2021-06-26T09:22:31Z</time>
      </trkpt>
      <trkpt lat="43.63532" lon="3.70562">
        <ele>158.019058</ele>
        <time>2021-06-26T09:22:36Z</time>
      </trkpt>
      <trkpt lat="43.63532" lon="3.70535">
        <ele>157.966309</ele>
        <time>2021-06-26T09:22:41Z</time>
      </trkpt>
      <trkpt lat="43.63533" lon="3.70511">
        <ele>157.826324</ele>
        <time>2021-06-26T09:22:46Z</time>
      </trkpt>
      <trkpt lat="43.63533" lon="3.70486">
        <ele>157.665726</ele>
        <time>2021-06-26T09:22:51Z</time>
      </trkpt>
      <trkpt lat="43.63533" lon="3.7046">
        <ele>157.723572</ele>
        <time>2021-06-26T09:22:56Z</time>
      </trkpt>
      <trkpt lat="43.63527" lon="3.70435">
        <ele>157.885422</ele>
        <time>2021-06-26T09:23:01Z</time>
      </trkpt>
      <trkpt lat="43.63518" lon="3.70407">
        <ele>157.983047</ele>
        <time>2021-06-26T09:23:06Z</time>
      </trkpt>
      <trkpt lat="43.6351" lon="3.70379">
        <ele>158</ele>
        <time>2021-06-26T09:23:11Z</time>
      </trkpt>
      <trkpt lat="43.63503" lon="3.70356">
        <ele>157.998581</ele>
        <time>2021-06-26T09:23:16Z</time>
      </trkpt>
      <trkpt lat="43.63485" lon="3.70346">
        <ele>157.975601</ele>
        <time>2021-06-26T09:23:21Z</time>
      </trkpt>
      <trkpt lat="43.63467" lon="3.70342">
        <ele>157.52562</ele>
        <time>2021-06-26T09:23:26Z</time>
      </trkpt>
      <trkpt lat="43.63446" lon="3.70337">
        <ele>156.466797</ele>
        <time>2021-06-26T09:23:31Z</time>
      </trkpt>
      <trkpt lat="43.63425" lon="3.70332">
        <ele>155.306961</ele>
        <time>2021-06-26T09:23:36Z</time>
      </trkpt>
      <trkpt lat="43.63404" lon="3.70326">
        <ele>154.311844</ele>
        <time>2021-06-26T09:23:41Z</time>
      </trkpt>
      <trkpt lat="43.63383" lon="3.70328">
        <ele>152.898926</ele>
        <time>2021-06-26T09:23:46Z</time>
      </trkpt>
      <trkpt lat="43.6337" lon="3.70315">
        <ele>151.011719</ele>
        <time>2021-06-26T09:23:51Z</time>
      </trkpt>
      <trkpt lat="43.63364" lon="3.70294">
        <ele>150.101486</ele>
        <time>2021-06-26T09:23:56Z</time>
      </trkpt>
      <trkpt lat="43.63358" lon="3.70274">
        <ele>149.543625</ele>
        <time>2021-06-26T09:24:01Z</time>
      </trkpt>
      <trkpt lat="43.63352" lon="3.70254">
        <ele>149.059891</ele>
        <time>2021-06-26T09:24:06Z</time>
      </trkpt>
      <trkpt lat="43.63346" lon="3.7023">
        <ele>148.58252</ele>
        <time>2021-06-26T09:24:11Z</time>
      </trkpt>
      <trkpt lat="43.63343" lon="3.70205">
        <ele>148.082047</ele>
        <time>2021-06-26T09:24:16Z</time>
      </trkpt>
      <trkpt lat="43.63342" lon="3.70179">
        <ele>147.405258</ele>
        <time>2021-06-26T09:24:21Z</time>
      </trkpt>
      <trkpt lat="43.63342" lon="3.70156">
        <ele>146.975021</ele>
        <time>2021-06-26T09:24:26Z</time>
      </trkpt>
      <trkpt lat="43.63341" lon="3.70131">
        <ele>146.581299</ele>
        <time>2021-06-26T09:24:31Z</time>
      </trkpt>
      <trkpt lat="43.63339" lon="3.70101">
        <ele>145.72258</ele>
        <time>2021-06-26T09:24:36Z</time>
      </trkpt>
      <trkpt lat="43.63341" lon="3.70069">
        <ele>144.772629</ele>
        <time>2021-06-26T09:24:41Z</time>
      </trkpt>
      <trkpt lat="43.63342" lon="3.70037">
        <ele>144.36467</ele>
        <time>2021-06-26T09:24:46Z</time>
      </trkpt>
      <trkpt lat="43.6334" lon="3.70006">
        <ele>144.129471</ele>
        <time>2021-06-26T09:24:51Z</time>
      </trkpt>
      <trkpt lat="43.6334" lon="3.69975">
        <ele>143.220596</ele>
        <time>2021-06-26T09:24:56Z</time>
      </trkpt>
      <trkpt lat="43.63342" lon="3.69945">
        <ele>142.312241</ele>
        <time>2021-06-26T09:25:01Z</time>
      </trkpt>
      <trkpt lat="43.63343" lon="3.69916">
        <ele>141.708328</ele>
        <time>2021-06-26T09:25:06Z</time>
      </trkpt>
      <trkpt lat="43.63344" lon="3.69888">
        <ele>140.840652</ele>
        <time>2021-06-26T09:25:11Z</time>
      </trkpt>
      <trkpt lat="43.63345" lon="3.69859">
        <ele>140.048019</ele>
        <time>2021-06-26T09:25:16Z</time>
      </trkpt>
      <trkpt lat="43.63346" lon="3.69827">
        <ele>139.368973</ele>
        <time>2021-06-26T09:25:21Z</time>
      </trkpt>
      <trkpt lat="43.6335" lon="3.69792">
        <ele>138.379227</ele>
        <time>2021-06-26T09:25:26Z</time>
      </trkpt>
      <trkpt lat="43.63351" lon="3.6976">
        <ele>137.595047</ele>
        <time>2021-06-26T09:25:31Z</time>
      </trkpt>
      <trkpt lat="43.63348" lon="3.69728">
        <ele>136.925613</ele>
        <time>2021-06-26T09:25:36Z</time>
      </trkpt>
      <trkpt lat="43.63345" lon="3.697">
        <ele>135.767899</ele>
        <time>2021-06-26T09:25:41Z</time>
      </trkpt>
      <trkpt lat="43.63352" lon="3.69678">
        <ele>134.8405</ele>
        <time>2021-06-26T09:25:46Z</time>
      </trkpt>
      <trkpt lat="43.63361" lon="3.6966">
        <ele>134.456635</ele>
        <time>2021-06-26T09:25:51Z</time>
      </trkpt>
      <trkpt lat="43.63368" lon="3.69642">
        <ele>134.223297</ele>
        <time>2021-06-26T09:25:56Z</time>
      </trkpt>
      <trkpt lat="43.63372" lon="3.69619">
        <ele>133.944595</ele>
        <time>2021-06-26T09:26:01Z</time>
      </trkpt>
      <trkpt lat="43.63371" lon="3.69593">
        <ele>133.572372</ele>
        <time>2021-06-26T09:26:06Z</time>
      </trkpt>
      <trkpt lat="43.63377" lon="3.69566">
        <ele>132.653809</ele>
        <time>2021-06-26T09:26:11Z</time>
      </trkpt>
      <trkpt lat="43.63388" lon="3.69544">
        <ele>132.037918</ele>
        <time>2021-06-26T09:26:16Z</time>
      </trkpt>
      <trkpt lat="43.6339" lon="3.69511">
        <ele>131.751205</ele>
        <time>2021-06-26T09:26:21Z</time>
      </trkpt>
      <trkpt lat="43.63396" lon="3.69475">
        <ele>131.144974</ele>
        <time>2021-06-26T09:26:26Z</time>
      </trkpt>
      <trkpt lat="43.63401" lon="3.69437">
        <ele>130.569641</ele>
        <time>2021-06-26T09:26:31Z</time>
      </trkpt>
      <trkpt lat="43.63414" lon="3.69407">
        <ele>129.634872</ele>
        <time>2021-06-26T09:26:36Z</time>
      </trkpt>
      <trkpt lat="43.63443" lon="3.69383">
        <ele>128.947464</ele>
        <time>2021-06-26T09:26:41Z</time>
      </trkpt>
      <trkpt lat="43.63462" lon="3.69347">
        <ele>128.49202</ele>
        <time>2021-06-26T09:26:46Z</time>
      </trkpt>
      <trkpt lat="43.63472" lon="3.69324">
        <ele>127.793701</ele>
        <time>2021-06-26T09:26:51Z</time>
      </trkpt>
      <trkpt lat="43.63479" lon="3.69311">
        <ele>127.352135</ele>
        <time>2021-06-26T09:26:56Z</time>
      </trkpt>
      <trkpt lat="43.63483" lon="3.69295">
        <ele>127.237709</ele>
        <time>2021-06-26T09:27:01Z</time>
      </trkpt>
      <trkpt lat="43.63487" lon="3.69276">
        <ele>127.169434</ele>
        <time>2021-06-26T09:27:06Z</time>
      </trkpt>
      <trkpt lat="43.6349" lon="3.69256">
        <ele>127.162109</ele>
        <time>2021-06-26T09:27:11Z</time>
      </trkpt>
      <trkpt lat="43.63491" lon="3.69234">
        <ele>127.348564</ele>
        <time>2021-06-26T09:27:16Z</time>
      </trkpt>
      <trkpt lat="43.63496" lon="3.69212">
        <ele>127.626656</ele>
        <time>2021-06-26T09:27:21Z</time>
      </trkpt>
      <trkpt lat="43.63501" lon="3.6919">
        <ele>127.86515</ele>
        <time>2021-06-26T09:27:26Z</time>
      </trkpt>
      <trkpt lat="43.63507" lon="3.69168">
        <ele>128</ele>
        <time>2021-06-26T09:27:31Z</time>
      </trkpt>
      <trkpt lat="43.63513" lon="3.69146">
        <ele>128</ele>
        <time>2021-06-26T09:27:36Z</time>
      </trkpt>
      <trkpt lat="43.63518" lon="3.69124">
        <ele>128.103683</ele>
        <time>2021-06-26T09:27:41Z</time>
      </trkpt>
      <trkpt lat="43.63524" lon="3.69102">
        <ele>129.892654</ele>
        <time>2021-06-26T09:27:46Z</time>
      </trkpt>
      <trkpt lat="43.6353" lon="3.69081">
        <ele>134.74968</ele>
        <time>2021-06-26T09:27:51Z</time>
      </trkpt>
      <trkpt lat="43.63535" lon="3.6906">
        <ele>138.284256</ele>
        <time>2021-06-26T09:27:56Z</time>
      </trkpt>
      <trkpt lat="43.63541" lon="3.69038">
        <ele>140.984131</ele>
        <time>2021-06-26T09:28:01Z</time>
      </trkpt>
      <trkpt lat="43.63546" lon="3.69018">
        <ele>141</ele>
        <time>2021-06-26T09:28:06Z</time>
      </trkpt>
      <trkpt lat="43.63551" lon="3.68998">
        <ele>141</ele>
        <time>2021-06-26T09:28:11Z</time>
      </trkpt>
      <trkpt lat="43.63557" lon="3.68978">
        <ele>141.049973</ele>
        <time>2021-06-26T09:28:16Z</time>
      </trkpt>
      <trkpt lat="43.63562" lon="3.68959">
        <ele>141.336349</ele>
        <time>2021-06-26T09:28:21Z</time>
      </trkpt>
      <trkpt lat="43.63567" lon="3.6894">
        <ele>141.615067</ele>
        <time>2021-06-26T09:28:26Z</time>
      </trkpt>
      <trkpt lat="43.63572" lon="3.68921">
        <ele>141.837402</ele>
        <time>2021-06-26T09:28:31Z</time>
      </trkpt>
      <trkpt lat="43.63577" lon="3.68905">
        <ele>142.585312</ele>
        <time>2021-06-26T09:28:36Z</time>
      </trkpt>
      <trkpt lat="43.63583" lon="3.68888">
        <ele>143.569458</ele>
        <time>2021-06-26T09:28:41Z</time>
      </trkpt>
      <trkpt lat="43.63591" lon="3.68873">
        <ele>144.430222</ele>
        <time>2021-06-26T09:28:46Z</time>
      </trkpt>
      <trkpt lat="43.63602" lon="3.68862">
        <ele>145.157852</ele>
        <time>2021-06-26T09:28:51Z</time>
      </trkpt>
      <trkpt lat="43.63615" lon="3.68854">
        <ele>145.797516</ele>
        <time>2021-06-26T09:28:56Z</time>
      </trkpt>
      <trkpt lat="43.63627" lon="3.68844">
        <ele>147.147217</ele>
        <time>2021-06-26T09:29:01Z</time>
      </trkpt>
      <trkpt lat="43.63634" lon="3.6883">
        <ele>148.329926</ele>
        <time>2021-06-26T09:29:06Z</time>
      </trkpt>
      <trkpt lat="43.63641" lon="3.68815">
        <ele>150.552292</ele>
        <time>2021-06-26T09:29:11Z</time>
      </trkpt>
      <trkpt lat="43.63649" lon="3.68799">
        <ele>152.596634</ele>
        <time>2021-06-26T09:29:16Z</time>
      </trkpt>
      <trkpt lat="43.63654" lon="3.68784">
        <ele>154.314194</ele>
        <time>2021-06-26T09:29:21Z</time>
      </trkpt>
      <trkpt lat="43.63659" lon="3.68769">
        <ele>157.082443</ele>
        <time>2021-06-26T09:29:26Z</time>
      </trkpt>
      <trkpt lat="43.63664" lon="3.68756">
        <ele>159.449387</ele>
        <time>2021-06-26T09:29:31Z</time>
      </trkpt>
      <trkpt lat="43.63656" lon="3.68752">
        <ele>161.526016</ele>
        <time>2021-06-26T09:29:36Z</time>
      </trkpt>
      <trkpt lat="43.63647" lon="3.68748">
        <ele>162.876816</ele>
        <time>2021-06-26T09:29:41Z</time>
      </trkpt>
      <trkpt lat="43.63639" lon="3.68745">
        <ele>163.732849</ele>
        <time>2021-06-26T09:29:46Z</time>
      </trkpt>
      <trkpt lat="43.6363" lon="3.68745">
        <ele>165.177307</ele>
        <time>2021-06-26T09:29:51Z</time>
      </trkpt>
      <trkpt lat="43.63621" lon="3.68746">
        <ele>165.87262</ele>
        <time>2021-06-26T09:29:56Z</time>
      </trkpt>
      <trkpt lat="43.63612" lon="3.68747">
        <ele>166.388947</ele>
        <time>2021-06-26T09:30:01Z</time>
      </trkpt>
      <trkpt lat="43.63603" lon="3.68749">
        <ele>166.853897</ele>
        <time>2021-06-26T09:30:06Z</time>
      </trkpt>
      <trkpt lat="43.63593" lon="3.68749">
        <ele>167.018005</ele>
        <time>2021-06-26T09:30:11Z</time>
      </trkpt>
      <trkpt lat="43.63582" lon="3.68751">
        <ele>167.517761</ele>
        <time>2021-06-26T09:30:16Z</time>
      </trkpt>
      <trkpt lat="43.63571" lon="3.68752">
        <ele>167.886276</ele>
        <time>2021-06-26T09:30:21Z</time>
      </trkpt>
      <trkpt lat="43.63561" lon="3.68756">
        <ele>168.396744</ele>
        <time>2021-06-26T09:30:26Z</time>
      </trkpt>
      <trkpt lat="43.63546" lon="3.68763">
        <ele>168.313248</ele>
        <time>2021-06-26T09:30:31Z</time>
      </trkpt>
      <trkpt lat="43.63528" lon="3.68772">
        <ele>167.226151</ele>
        <time>2021-06-26T09:30:36Z</time>
      </trkpt>
      <trkpt lat="43.63511" lon="3.6878">
        <ele>165.743942</ele>
        <time>2021-06-26T09:30:41Z</time>
      </trkpt>
      <trkpt lat="43.63491" lon="3.68785">
        <ele>164.138992</ele>
        <time>2021-06-26T09:30:46Z</time>
      </trkpt>
      <trkpt lat="43.63471" lon="3.68785">
        <ele>162.953812</ele>
        <time>2021-06-26T09:30:51Z</time>
      </trkpt>
      <trkpt lat="43.6345" lon="3.68782">
        <ele>162.383453</ele>
        <time>2021-06-26T09:30:56Z</time>
      </trkpt>
      <trkpt lat="43.6343" lon="3.68781">
        <ele>162.166138</ele>
        <time>2021-06-26T09:31:01Z</time>
      </trkpt>
      <trkpt lat="43.63413" lon="3.68785">
        <ele>161.734665</ele>
        <time>2021-06-26T09:31:06Z</time>
      </trkpt>
      <trkpt lat="43.63394" lon="3.68791">
        <ele>160.146469</ele>
        <time>2021-06-26T09:31:11Z</time>
      </trkpt>
      <trkpt lat="43.63373" lon="3.68798">
        <ele>158.189957</ele>
        <time>2021-06-26T09:31:16Z</time>
      </trkpt>
      <trkpt lat="43.63351" lon="3.688">
        <ele>155.935074</ele>
        <time>2021-06-26T09:31:21Z</time>
      </trkpt>
      <trkpt lat="43.63331" lon="3.68804">
        <ele>154.465088</ele>
        <time>2021-06-26T09:31:26Z</time>
      </trkpt>
      <trkpt lat="43.63312" lon="3.68807">
        <ele>153.275101</ele>
        <time>2021-06-26T09:31:31Z</time>
      </trkpt>
      <trkpt lat="43.63297" lon="3.68807">
        <ele>152.387344</ele>
        <time>2021-06-26T09:31:36Z</time>
      </trkpt>
      <trkpt lat="43.6328" lon="3.688">
        <ele>152.031754</ele>
        <time>2021-06-26T09:31:41Z</time>
      </trkpt>
      <trkpt lat="43.63262" lon="3.68792">
        <ele>152.242355</ele>
        <time>2021-06-26T09:31:46Z</time>
      </trkpt>
      <trkpt lat="43.63244" lon="3.68785">
        <ele>152.639542</ele>
        <time>2021-06-26T09:31:51Z</time>
      </trkpt>
      <trkpt lat="43.63223" lon="3.68776">
        <ele>153.018005</ele>
        <time>2021-06-26T09:31:56Z</time>
      </trkpt>
      <trkpt lat="43.63201" lon="3.68765">
        <ele>153.237534</ele>
        <time>2021-06-26T09:32:01Z</time>
      </trkpt>
      <trkpt lat="43.6318" lon="3.68754">
        <ele>153.384354</ele>
        <time>2021-06-26T09:32:06Z</time>
      </trkpt>
      <trkpt lat="43.63159" lon="3.68741">
        <ele>153.444733</ele>
        <time>2021-06-26T09:32:11Z</time>
      </trkpt>
      <trkpt lat="43.63139" lon="3.68731">
        <ele>153.304153</ele>
        <time>2021-06-26T09:32:16Z</time>
      </trkpt>
      <trkpt lat="43.63121" lon="3.68721">
        <ele>152.790054</ele>
        <time>2021-06-26T09:32:21Z</time>
      </trkpt>
      <trkpt lat="43.63107" lon="3.68713">
        <ele>152.071243</ele>
        <time>2021-06-26T09:32:26Z</time>
      </trkpt>
      <trkpt lat="43.63098" lon="3.68708">
        <ele>151.449936</ele>
        <time>2021-06-26T09:32:31Z</time>
      </trkpt>
      <trkpt lat="43.63095" lon="3.68713">
        <ele>150.770859</ele>
        <time>2021-06-26T09:32:36Z</time>
      </trkpt>
      <trkpt lat="43.63098" lon="3.68714">
        <ele>150.547409</ele>
        <time>2021-06-26T09:32:46Z</time>
      </trkpt>
      <trkpt lat="43.63135" lon="3.68718">
        <ele>146.4</ele>
      </trkpt>
      <trkpt lat="43.63135" lon="3.68718">
        <ele>146.4</ele>
      </trkpt>
      <trkpt lat="43.63135" lon="3.68718">
        <ele>146.4</ele>
      </trkpt>
      <trkpt lat="43.63131" lon="3.6871">
        <ele>147.3</ele>
      </trkpt>
      <trkpt lat="43.63135" lon="3.68707">
        <ele>147.8</ele>
      </trkpt>
      <trkpt lat="43.63145" lon="3.68709">
        <ele>170</ele>
      </trkpt>
      <trkpt lat="43.63138" lon="3.68718">
        <ele>170</ele>
      </trkpt>
      <trkpt lat="43.63128" lon="3.68722">
        <ele>169</ele>
      </trkpt>
      <trkpt lat="43.63134" lon="3.68714">
        <ele>167</ele>
      </trkpt>
      <trkpt lat="43.63138" lon="3.68719">
        <ele>168</ele>
      </trkpt>
      <trkpt lat="43.63143" lon="3.68721">
        <ele>168</ele>
      </trkpt>
      <trkpt lat="43.63143" lon="3.68724">
        <ele>166</ele>
      </trkpt>
      <trkpt lat="43.6314" lon="3.68721">
        <ele>166</ele>
      </trkpt>
      <trkpt lat="43.63133" lon="3.68717">
        <ele>166</ele>
      </trkpt>
      <trkpt lat="43.63121" lon="3.68721">
        <ele>165</ele>
      </trkpt>
      <trkpt lat="43.6311" lon="3.68714">
        <ele>165</ele>
      </trkpt>
      <trkpt lat="43.63077" lon="3.68694">
        <ele>164</ele>
      </trkpt>
      <trkpt lat="43.6307" lon="3.68684">
        <ele>164</ele>
      </trkpt>
      <trkpt lat="43.63057" lon="3.68682">
        <ele>164</ele>
      </trkpt>
      <trkpt lat="43.63047" lon="3.68681">
        <ele>164</ele>
      </trkpt>
      <trkpt lat="43.63043" lon="3.68681">
        <ele>164</ele>
      </trkpt>
      <trkpt lat="43.63039" lon="3.68679">
        <ele>164</ele>
      </trkpt>
      <trkpt lat="43.63036" lon="3.68678">
        <ele>164</ele>
      </trkpt>
      <trkpt lat="43.63034" lon="3.68676">
        <ele>164</ele>
      </trkpt>
      <trkpt lat="43.6303" lon="3.68674">
        <ele>164</ele>
      </trkpt>
      <trkpt lat="43.63027" lon="3.68672">
        <ele>157</ele>
      </trkpt>
      <trkpt lat="43.63025" lon="3.6867">
        <ele>157</ele>
      </trkpt>
      <trkpt lat="43.63022" lon="3.68668">
        <ele>157</ele>
      </trkpt>
      <trkpt lat="43.63019" lon="3.68666">
        <ele>157</ele>
      </trkpt>
      <trkpt lat="43.63018" lon="3.68664">
        <ele>157</ele>
      </trkpt>
      <trkpt lat="43.63015" lon="3.68663">
        <ele>157</ele>
      </trkpt>
      <trkpt lat="43.63013" lon="3.68662">
        <ele>157</ele>
      </trkpt>
      <trkpt lat="43.6301" lon="3.6866">
        <ele>157</ele>
      </trkpt>
      <trkpt lat="43.63008" lon="3.68659">
        <ele>157</ele>
      </trkpt>
      <trkpt lat="43.63006" lon="3.68658">
        <ele>157</ele>
      </trkpt>
      <trkpt lat="43.63003" lon="3.68656">
        <ele>151</ele>
      </trkpt>
      <trkpt lat="43.63001" lon="3.68654">
        <ele>151</ele>
      </trkpt>
      <trkpt lat="43.63" lon="3.68653">
        <ele>151</ele>
      </trkpt>
      <trkpt lat="43.62997" lon="3.68651">
        <ele>151</ele>
      </trkpt>
      <trkpt lat="43.62994" lon="3.68649">
        <ele>151</ele>
      </trkpt>
      <trkpt lat="43.62992" lon="3.68648">
        <ele>151</ele>
      </trkpt>
      <trkpt lat="43.62989" lon="3.68646">
        <ele>151</ele>
      </trkpt>
      <trkpt lat="43.62986" lon="3.68645">
        <ele>151</ele>
      </trkpt>
      <trkpt lat="43.62984" lon="3.68643">
        <ele>151</ele>
      </trkpt>
      <trkpt lat="43.62981" lon="3.6864">
        <ele>151</ele>
      </trkpt>
      <trkpt lat="43.62978" lon="3.68638">
        <ele>150</ele>
      </trkpt>
      <trkpt lat="43.62976" lon="3.68635">
        <ele>150</ele>
      </trkpt>
      <trkpt lat="43.62973" lon="3.68633">
        <ele>150</ele>
      </trkpt>
      <trkpt lat="43.6297" lon="3.6863">
        <ele>150</ele>
      </trkpt>
      <trkpt lat="43.62968" lon="3.68627">
        <ele>150</ele>
      </trkpt>
      <trkpt lat="43.62967" lon="3.68623">
        <ele>150</ele>
      </trkpt>
      <trkpt lat="43.62966" lon="3.6862">
        <ele>150</ele>
      </trkpt>
      <trkpt lat="43.62966" lon="3.68617">
        <ele>150</ele>
      </trkpt>
      <trkpt lat="43.62965" lon="3.68614">
        <ele>150</ele>
      </trkpt>
      <trkpt lat="43.62964" lon="3.68611">
        <ele>150</ele>
      </trkpt>
      <trkpt lat="43.62964" lon="3.68608">
        <ele>150</ele>
      </trkpt>
      <trkpt lat="43.62964" lon="3.68605">
        <ele>150</ele>
      </trkpt>
      <trkpt lat="43.62964" lon="3.68602">
        <ele>150</ele>
      </trkpt>
      <trkpt lat="43.62964" lon="3.686">
        <ele>150</ele>
      </trkpt>
      <trkpt lat="43.62965" lon="3.68597">
        <ele>150</ele>
      </trkpt>
      <trkpt lat="43.62965" lon="3.68595">
        <ele>150</ele>
      </trkpt>
      <trkpt lat="43.62965" lon="3.68592">
        <ele>150</ele>
      </trkpt>
      <trkpt lat="43.62966" lon="3.6859">
        <ele>150</ele>
      </trkpt>
      <trkpt lat="43.62966" lon="3.68585">
        <ele>150</ele>
      </trkpt>
      <trkpt lat="43.62966" lon="3.68581">
        <ele>151</ele>
      </trkpt>
      <trkpt lat="43.62966" lon="3.68576">
        <ele>151</ele>
      </trkpt>
      <trkpt lat="43.62967" lon="3.68571">
        <ele>151</ele>
      </trkpt>
      <trkpt lat="43.62968" lon="3.68567">
        <ele>151</ele>
      </trkpt>
      <trkpt lat="43.62967" lon="3.68563">
        <ele>151</ele>
      </trkpt>
      <trkpt lat="43.62966" lon="3.68558">
        <ele>152</ele>
      </trkpt>
      <trkpt lat="43.62966" lon="3.68553">
        <ele>152</ele>
      </trkpt>
      <trkpt lat="43.62966" lon="3.68548">
        <ele>152</ele>
      </trkpt>
      <trkpt lat="43.62967" lon="3.68544">
        <ele>152</ele>
      </trkpt>
      <trkpt lat="43.62966" lon="3.68539">
        <ele>152</ele>
      </trkpt>
      <trkpt lat="43.62967" lon="3.68537">
        <ele>154</ele>
      </trkpt>
      <trkpt lat="43.62967" lon="3.68532">
        <ele>154</ele>
      </trkpt>
      <trkpt lat="43.62966" lon="3.68527">
        <ele>154</ele>
      </trkpt>
      <trkpt lat="43.62966" lon="3.68524">
        <ele>154</ele>
      </trkpt>
      <trkpt lat="43.62966" lon="3.68522">
        <ele>154</ele>
      </trkpt>
      <trkpt lat="43.62966" lon="3.68519">
        <ele>154</ele>
      </trkpt>
      <trkpt lat="43.62966" lon="3.68517">
        <ele>154</ele>
      </trkpt>
      <trkpt lat="43.62966" lon="3.68514">
        <ele>154</ele>
      </trkpt>
      <trkpt lat="43.62966" lon="3.68511">
        <ele>156</ele>
      </trkpt>
      <trkpt lat="43.62966" lon="3.68509">
        <ele>156</ele>
      </trkpt>
      <trkpt lat="43.62966" lon="3.68506">
        <ele>156</ele>
      </trkpt>
      <trkpt lat="43.62966" lon="3.68503">
        <ele>156</ele>
      </trkpt>
      <trkpt lat="43.62965" lon="3.68501">
        <ele>156</ele>
      </trkpt>
      <trkpt lat="43.62965" lon="3.68498">
        <ele>156</ele>
      </trkpt>
      <trkpt lat="43.62965" lon="3.68495">
        <ele>156</ele>
      </trkpt>
      <trkpt lat="43.62965" lon="3.68493">
        <ele>156</ele>
      </trkpt>
      <trkpt lat="43.62965" lon="3.6849">
        <ele>156</ele>
      </trkpt>
      <trkpt lat="43.62965" lon="3.68487">
        <ele>156</ele>
      </trkpt>
      <trkpt lat="43.62965" lon="3.68485">
        <ele>157</ele>
      </trkpt>
      <trkpt lat="43.62965" lon="3.68482">
        <ele>157</ele>
      </trkpt>
      <trkpt lat="43.62965" lon="3.68479">
        <ele>157</ele>
      </trkpt>
      <trkpt lat="43.62965" lon="3.68476">
        <ele>157</ele>
      </trkpt>
      <trkpt lat="43.62965" lon="3.68473">
        <ele>157</ele>
      </trkpt>
      <trkpt lat="43.62965" lon="3.6847">
        <ele>157</ele>
      </trkpt>
      <trkpt lat="43.62965" lon="3.68468">
        <ele>157</ele>
      </trkpt>
      <trkpt lat="43.62964" lon="3.68465">
        <ele>157</ele>
      </trkpt>
      <trkpt lat="43.62964" lon="3.68463">
        <ele>157</ele>
      </trkpt>
      <trkpt lat="43.62963" lon="3.6846">
        <ele>157</ele>
      </trkpt>
      <trkpt lat="43.62963" lon="3.68455">
        <ele>159</ele>
      </trkpt>
      <trkpt lat="43.62962" lon="3.68451">
        <ele>159</ele>
      </trkpt>
      <trkpt lat="43.62961" lon="3.68446">
        <ele>159</ele>
      </trkpt>
      <trkpt lat="43.6296" lon="3.68441">
        <ele>159</ele>
      </trkpt>
      <trkpt lat="43.62959" lon="3.68439">
        <ele>159</ele>
      </trkpt>
      <trkpt lat="43.62959" lon="3.68434">
        <ele>161</ele>
      </trkpt>
      <trkpt lat="43.62957" lon="3.68432">
        <ele>161</ele>
      </trkpt>
      <trkpt lat="43.62957" lon="3.68429">
        <ele>161</ele>
      </trkpt>
      <trkpt lat="43.62956" lon="3.68427">
        <ele>161</ele>
      </trkpt>
      <trkpt lat="43.62955" lon="3.68423">
        <ele>161</ele>
      </trkpt>
      <trkpt lat="43.62954" lon="3.68417">
        <ele>161</ele>
      </trkpt>
      <trkpt lat="43.62954" lon="3.68416">
        <ele>161</ele>
      </trkpt>
      <trkpt lat="43.62953" lon="3.68413">
        <ele>161</ele>
      </trkpt>
      <trkpt lat="43.62952" lon="3.6841">
        <ele>162</ele>
      </trkpt>
      <trkpt lat="43.62952" lon="3.68408">
        <ele>162</ele>
      </trkpt>
      <trkpt lat="43.62951" lon="3.68405">
        <ele>162</ele>
      </trkpt>
      <trkpt lat="43.62951" lon="3.68402">
        <ele>162</ele>
      </trkpt>
      <trkpt lat="43.6295" lon="3.68398">
        <ele>162</ele>
      </trkpt>
      <trkpt lat="43.6295" lon="3.68396">
        <ele>162</ele>
      </trkpt>
      <trkpt lat="43.6295" lon="3.68393">
        <ele>162</ele>
      </trkpt>
      <trkpt lat="43.62949" lon="3.6839">
        <ele>162</ele>
      </trkpt>
      <trkpt lat="43.62949" lon="3.68387">
        <ele>162</ele>
      </trkpt>
      <trkpt lat="43.62948" lon="3.68383">
        <ele>162</ele>
      </trkpt>
      <trkpt lat="43.62948" lon="3.6838">
        <ele>163</ele>
      </trkpt>
      <trkpt lat="43.62948" lon="3.68377">
        <ele>163</ele>
      </trkpt>
      <trkpt lat="43.62948" lon="3.68374">
        <ele>163</ele>
      </trkpt>
      <trkpt lat="43.62947" lon="3.68371">
        <ele>163</ele>
      </trkpt>
      <trkpt lat="43.62947" lon="3.68368">
        <ele>163</ele>
      </trkpt>
      <trkpt lat="43.62947" lon="3.68365">
        <ele>163</ele>
      </trkpt>
      <trkpt lat="43.62946" lon="3.68362">
        <ele>163</ele>
      </trkpt>
      <trkpt lat="43.62946" lon="3.68359">
        <ele>163</ele>
      </trkpt>
      <trkpt lat="43.62946" lon="3.68356">
        <ele>163</ele>
      </trkpt>
      <trkpt lat="43.62944" lon="3.68353">
        <ele>163</ele>
      </trkpt>
      <trkpt lat="43.62944" lon="3.6835">
        <ele>164</ele>
      </trkpt>
      <trkpt lat="43.62944" lon="3.68346">
        <ele>164</ele>
      </trkpt>
      <trkpt lat="43.62943" lon="3.68343">
        <ele>164</ele>
      </trkpt>
      <trkpt lat="43.62943" lon="3.6834">
        <ele>164</ele>
      </trkpt>
      <trkpt lat="43.62942" lon="3.68337">
        <ele>164</ele>
      </trkpt>
      <trkpt lat="43.62942" lon="3.68334">
        <ele>164</ele>
      </trkpt>
      <trkpt lat="43.62941" lon="3.68331">
        <ele>164</ele>
      </trkpt>
      <trkpt lat="43.6294" lon="3.68327">
        <ele>164</ele>
      </trkpt>
      <trkpt lat="43.6294" lon="3.68325">
        <ele>164</ele>
      </trkpt>
      <trkpt lat="43.62939" lon="3.68321">
        <ele>164</ele>
      </trkpt>
      <trkpt lat="43.62939" lon="3.68318">
        <ele>165</ele>
      </trkpt>
      <trkpt lat="43.62939" lon="3.68315">
        <ele>165</ele>
      </trkpt>
      <trkpt lat="43.62938" lon="3.68312">
        <ele>165</ele>
      </trkpt>
      <trkpt lat="43.62938" lon="3.68308">
        <ele>165</ele>
      </trkpt>
      <trkpt lat="43.62938" lon="3.68305">
        <ele>165</ele>
      </trkpt>
      <trkpt lat="43.62937" lon="3.68302">
        <ele>165</ele>
      </trkpt>
      <trkpt lat="43.62937" lon="3.68299">
        <ele>165</ele>
      </trkpt>
      <trkpt lat="43.62937" lon="3.68295">
        <ele>165</ele>
      </trkpt>
      <trkpt lat="43.62938" lon="3.68292">
        <ele>165</ele>
      </trkpt>
      <trkpt lat="43.62939" lon="3.68289">
        <ele>165</ele>
      </trkpt>
      <trkpt lat="43.6294" lon="3.68287">
        <ele>166</ele>
      </trkpt>
      <trkpt lat="43.62942" lon="3.68285">
        <ele>166</ele>
      </trkpt>
      <trkpt lat="43.62944" lon="3.68282">
        <ele>166</ele>
      </trkpt>
      <trkpt lat="43.62946" lon="3.68281">
        <ele>166</ele>
      </trkpt>
      <trkpt lat="43.62949" lon="3.68281">
        <ele>166</ele>
      </trkpt>
      <trkpt lat="43.62952" lon="3.68282">
        <ele>166</ele>
      </trkpt>
      <trkpt lat="43.62955" lon="3.68283">
        <ele>166</ele>
      </trkpt>
      <trkpt lat="43.62957" lon="3.68284">
        <ele>166</ele>
      </trkpt>
      <trkpt lat="43.62961" lon="3.68285">
        <ele>166</ele>
      </trkpt>
      <trkpt lat="43.62964" lon="3.68285">
        <ele>166</ele>
      </trkpt>
      <trkpt lat="43.62966" lon="3.68285">
        <ele>166</ele>
      </trkpt>
      <trkpt lat="43.62969" lon="3.68285">
        <ele>166</ele>
      </trkpt>
      <trkpt lat="43.62973" lon="3.68285">
        <ele>166</ele>
      </trkpt>
      <trkpt lat="43.62976" lon="3.68285">
        <ele>166</ele>
      </trkpt>
      <trkpt lat="43.62979" lon="3.68286">
        <ele>166</ele>
      </trkpt>
      <trkpt lat="43.62982" lon="3.68286">
        <ele>166</ele>
      </trkpt>
      <trkpt lat="43.62986" lon="3.68286">
        <ele>166</ele>
      </trkpt>
      <trkpt lat="43.62989" lon="3.68286">
        <ele>166</ele>
      </trkpt>
      <trkpt lat="43.62993" lon="3.68286">
        <ele>166</ele>
      </trkpt>
      <trkpt lat="43.62997" lon="3.68286">
        <ele>166</ele>
      </trkpt>
      <trkpt lat="43.63" lon="3.68286">
        <ele>167</ele>
      </trkpt>
      <trkpt lat="43.63003" lon="3.68286">
        <ele>167</ele>
      </trkpt>
      <trkpt lat="43.63007" lon="3.68285">
        <ele>167</ele>
      </trkpt>
      <trkpt lat="43.6301" lon="3.68285">
        <ele>167</ele>
      </trkpt>
      <trkpt lat="43.63013" lon="3.68285">
        <ele>167</ele>
      </trkpt>
      <trkpt lat="43.63017" lon="3.68285">
        <ele>167</ele>
      </trkpt>
      <trkpt lat="43.6302" lon="3.68285">
        <ele>167</ele>
      </trkpt>
      <trkpt lat="43.63023" lon="3.68286">
        <ele>167</ele>
      </trkpt>
      <trkpt lat="43.63026" lon="3.68286">
        <ele>167</ele>
      </trkpt>
      <trkpt lat="43.63029" lon="3.68286">
        <ele>167</ele>
      </trkpt>
      <trkpt lat="43.63032" lon="3.68287">
        <ele>167</ele>
      </trkpt>
      <trkpt lat="43.63035" lon="3.68287">
        <ele>167</ele>
      </trkpt>
      <trkpt lat="43.63038" lon="3.68287">
        <ele>167</ele>
      </trkpt>
      <trkpt lat="43.63041" lon="3.68288">
        <ele>167</ele>
      </trkpt>
      <trkpt lat="43.63045" lon="3.68288">
        <ele>167</ele>
      </trkpt>
      <trkpt lat="43.63048" lon="3.68288">
        <ele>167</ele>
      </trkpt>
      <trkpt lat="43.63051" lon="3.68288">
        <ele>167</ele>
      </trkpt>
      <trkpt lat="43.63054" lon="3.68288">
        <ele>167</ele>
      </trkpt>
      <trkpt lat="43.63058" lon="3.68288">
        <ele>167</ele>
      </trkpt>
      <trkpt lat="43.63061" lon="3.68288">
        <ele>167</ele>
      </trkpt>
      <trkpt lat="43.63064" lon="3.68288">
        <ele>168</ele>
      </trkpt>
      <trkpt lat="43.63067" lon="3.68288">
        <ele>168</ele>
      </trkpt>
      <trkpt lat="43.63069" lon="3.68287">
        <ele>168</ele>
      </trkpt>
      <trkpt lat="43.63072" lon="3.68286">
        <ele>168</ele>
      </trkpt>
      <trkpt lat="43.63075" lon="3.68285">
        <ele>168</ele>
      </trkpt>
      <trkpt lat="43.63077" lon="3.68284">
        <ele>168</ele>
      </trkpt>
      <trkpt lat="43.6308" lon="3.68282">
        <ele>168</ele>
      </trkpt>
      <trkpt lat="43.63083" lon="3.68281">
        <ele>168</ele>
      </trkpt>
      <trkpt lat="43.63085" lon="3.6828">
        <ele>168</ele>
      </trkpt>
      <trkpt lat="43.63087" lon="3.68278">
        <ele>168</ele>
      </trkpt>
      <trkpt lat="43.63089" lon="3.68277">
        <ele>168</ele>
      </trkpt>
      <trkpt lat="43.63092" lon="3.68275">
        <ele>168</ele>
      </trkpt>
      <trkpt lat="43.63094" lon="3.68273">
        <ele>168</ele>
      </trkpt>
      <trkpt lat="43.63096" lon="3.68271">
        <ele>168</ele>
      </trkpt>
      <trkpt lat="43.63098" lon="3.68268">
        <ele>168</ele>
      </trkpt>
      <trkpt lat="43.631" lon="3.68266">
        <ele>168</ele>
      </trkpt>
      <trkpt lat="43.63101" lon="3.68264">
        <ele>168</ele>
      </trkpt>
      <trkpt lat="43.63103" lon="3.68262">
        <ele>168</ele>
      </trkpt>
      <trkpt lat="43.63105" lon="3.6826">
        <ele>168</ele>
      </trkpt>
      <trkpt lat="43.63106" lon="3.68258">
        <ele>168</ele>
      </trkpt>
      <trkpt lat="43.63108" lon="3.68255">
        <ele>169</ele>
      </trkpt>
      <trkpt lat="43.6311" lon="3.68254">
        <ele>169</ele>
      </trkpt>
      <trkpt lat="43.63112" lon="3.68252">
        <ele>169</ele>
      </trkpt>
      <trkpt lat="43.63116" lon="3.68248">
        <ele>169</ele>
      </trkpt>
      <trkpt lat="43.63118" lon="3.68246">
        <ele>169</ele>
      </trkpt>
      <trkpt lat="43.63119" lon="3.68244">
        <ele>169</ele>
      </trkpt>
      <trkpt lat="43.63121" lon="3.68242">
        <ele>169</ele>
      </trkpt>
      <trkpt lat="43.63122" lon="3.68239">
        <ele>169</ele>
      </trkpt>
      <trkpt lat="43.63124" lon="3.68238">
        <ele>169</ele>
      </trkpt>
      <trkpt lat="43.63127" lon="3.68236">
        <ele>170</ele>
      </trkpt>
      <trkpt lat="43.63128" lon="3.68233">
        <ele>170</ele>
      </trkpt>
      <trkpt lat="43.6313" lon="3.68231">
        <ele>170</ele>
      </trkpt>
      <trkpt lat="43.63131" lon="3.68228">
        <ele>170</ele>
      </trkpt>
      <trkpt lat="43.63133" lon="3.68226">
        <ele>170</ele>
      </trkpt>
      <trkpt lat="43.63134" lon="3.68224">
        <ele>170</ele>
      </trkpt>
      <trkpt lat="43.63136" lon="3.68222">
        <ele>170</ele>
      </trkpt>
      <trkpt lat="43.63138" lon="3.6822">
        <ele>170</ele>
      </trkpt>
      <trkpt lat="43.63139" lon="3.68219">
        <ele>170</ele>
      </trkpt>
      <trkpt lat="43.63141" lon="3.68217">
        <ele>170</ele>
      </trkpt>
      <trkpt lat="43.63143" lon="3.68216">
        <ele>172</ele>
      </trkpt>
      <trkpt lat="43.63145" lon="3.68216">
        <ele>172</ele>
      </trkpt>
      <trkpt lat="43.63148" lon="3.68212">
        <ele>172</ele>
      </trkpt>
      <trkpt lat="43.6315" lon="3.68211">
        <ele>172</ele>
      </trkpt>
      <trkpt lat="43.63151" lon="3.68209">
        <ele>172</ele>
      </trkpt>
      <trkpt lat="43.63153" lon="3.68206">
        <ele>172</ele>
      </trkpt>
      <trkpt lat="43.63155" lon="3.68203">
        <ele>172</ele>
      </trkpt>
      <trkpt lat="43.63157" lon="3.682">
        <ele>173</ele>
      </trkpt>
      <trkpt lat="43.6316" lon="3.68198">
        <ele>173</ele>
      </trkpt>
      <trkpt lat="43.63162" lon="3.68195">
        <ele>173</ele>
      </trkpt>
      <trkpt lat="43.63165" lon="3.68192">
        <ele>173</ele>
      </trkpt>
      <trkpt lat="43.63167" lon="3.6819">
        <ele>173</ele>
      </trkpt>
      <trkpt lat="43.6317" lon="3.68188">
        <ele>175</ele>
      </trkpt>
      <trkpt lat="43.63172" lon="3.68185">
        <ele>175</ele>
      </trkpt>
      <trkpt lat="43.63174" lon="3.68183">
        <ele>175</ele>
      </trkpt>
      <trkpt lat="43.63177" lon="3.6818">
        <ele>175</ele>
      </trkpt>
      <trkpt lat="43.63179" lon="3.68178">
        <ele>175</ele>
      </trkpt>
      <trkpt lat="43.63182" lon="3.68176">
        <ele>177</ele>
      </trkpt>
      <trkpt lat="43.63184" lon="3.68173">
        <ele>177</ele>
      </trkpt>
      <trkpt lat="43.63187" lon="3.6817">
        <ele>177</ele>
      </trkpt>
      <trkpt lat="43.63189" lon="3.68166">
        <ele>177</ele>
      </trkpt>
      <trkpt lat="43.63191" lon="3.68163">
        <ele>177</ele>
      </trkpt>
      <trkpt lat="43.63192" lon="3.68161">
        <ele>179</ele>
      </trkpt>
      <trkpt lat="43.63193" lon="3.68158">
        <ele>179</ele>
      </trkpt>
      <trkpt lat="43.63194" lon="3.68156">
        <ele>179</ele>
      </trkpt>
      <trkpt lat="43.63194" lon="3.68154">
        <ele>179</ele>
      </trkpt>
      <trkpt lat="43.63195" lon="3.68151">
        <ele>179</ele>
      </trkpt>
      <trkpt lat="43.63196" lon="3.68149">
        <ele>179</ele>
      </trkpt>
      <trkpt lat="43.63197" lon="3.68146">
        <ele>179</ele>
      </trkpt>
      <trkpt lat="43.63198" lon="3.68144">
        <ele>179</ele>
      </trkpt>
      <trkpt lat="43.63199" lon="3.68139">
        <ele>179</ele>
      </trkpt>
      <trkpt lat="43.632" lon="3.68135">
        <ele>181</ele>
      </trkpt>
      <trkpt lat="43.632" lon="3.68132">
        <ele>181</ele>
      </trkpt>
      <trkpt lat="43.63201" lon="3.6813">
        <ele>181</ele>
      </trkpt>
      <trkpt lat="43.63202" lon="3.68126">
        <ele>181</ele>
      </trkpt>
      <trkpt lat="43.63203" lon="3.68122">
        <ele>181</ele>
      </trkpt>
      <trkpt lat="43.63204" lon="3.68118">
        <ele>181</ele>
      </trkpt>
      <trkpt lat="43.63204" lon="3.68113">
        <ele>182</ele>
      </trkpt>
      <trkpt lat="43.63205" lon="3.68109">
        <ele>182</ele>
      </trkpt>
      <trkpt lat="43.63207" lon="3.68105">
        <ele>182</ele>
      </trkpt>
      <trkpt lat="43.63208" lon="3.68101">
        <ele>182</ele>
      </trkpt>
      <trkpt lat="43.63208" lon="3.68096">
        <ele>182</ele>
      </trkpt>
      <trkpt lat="43.63209" lon="3.68092">
        <ele>184</ele>
      </trkpt>
      <trkpt lat="43.6321" lon="3.68087">
        <ele>184</ele>
      </trkpt>
      <trkpt lat="43.6321" lon="3.68083">
        <ele>184</ele>
      </trkpt>
      <trkpt lat="43.63211" lon="3.68078">
        <ele>184</ele>
      </trkpt>
      <trkpt lat="43.63211" lon="3.68074">
        <ele>184</ele>
      </trkpt>
      <trkpt lat="43.63211" lon="3.6807">
        <ele>186</ele>
      </trkpt>
      <trkpt lat="43.63211" lon="3.68066">
        <ele>186</ele>
      </trkpt>
      <trkpt lat="43.63211" lon="3.68062">
        <ele>186</ele>
      </trkpt>
      <trkpt lat="43.63212" lon="3.68058">
        <ele>186</ele>
      </trkpt>
      <trkpt lat="43.63212" lon="3.68055">
        <ele>186</ele>
      </trkpt>
      <trkpt lat="43.63211" lon="3.6805">
        <ele>189</ele>
      </trkpt>
      <trkpt lat="43.6321" lon="3.68047">
        <ele>189</ele>
      </trkpt>
      <trkpt lat="43.63209" lon="3.68043">
        <ele>189</ele>
      </trkpt>
      <trkpt lat="43.63209" lon="3.68039">
        <ele>189</ele>
      </trkpt>
      <trkpt lat="43.63208" lon="3.68036">
        <ele>189</ele>
      </trkpt>
      <trkpt lat="43.63207" lon="3.68033">
        <ele>192</ele>
      </trkpt>
      <trkpt lat="43.63207" lon="3.68029">
        <ele>192</ele>
      </trkpt>
      <trkpt lat="43.63207" lon="3.68026">
        <ele>192</ele>
      </trkpt>
      <trkpt lat="43.63206" lon="3.68023">
        <ele>192</ele>
      </trkpt>
      <trkpt lat="43.63206" lon="3.6802">
        <ele>192</ele>
      </trkpt>
      <trkpt lat="43.63205" lon="3.68016">
        <ele>194</ele>
      </trkpt>
      <trkpt lat="43.63205" lon="3.68013">
        <ele>194</ele>
      </trkpt>
      <trkpt lat="43.63205" lon="3.6801">
        <ele>194</ele>
      </trkpt>
      <trkpt lat="43.63204" lon="3.68006">
        <ele>194</ele>
      </trkpt>
      <trkpt lat="43.63203" lon="3.68003">
        <ele>194</ele>
      </trkpt>
      <trkpt lat="43.63203" lon="3.68">
        <ele>196</ele>
      </trkpt>
      <trkpt lat="43.63203" lon="3.67996">
        <ele>196</ele>
      </trkpt>
      <trkpt lat="43.63203" lon="3.67993">
        <ele>196</ele>
      </trkpt>
      <trkpt lat="43.63203" lon="3.67989">
        <ele>196</ele>
      </trkpt>
      <trkpt lat="43.63203" lon="3.67985">
        <ele>196</ele>
      </trkpt>
      <trkpt lat="43.63203" lon="3.67982">
        <ele>197</ele>
      </trkpt>
      <trkpt lat="43.63202" lon="3.67979">
        <ele>197</ele>
      </trkpt>
      <trkpt lat="43.63201" lon="3.67975">
        <ele>197</ele>
      </trkpt>
      <trkpt lat="43.632" lon="3.67971">
        <ele>197</ele>
      </trkpt>
      <trkpt lat="43.632" lon="3.67967">
        <ele>197</ele>
      </trkpt>
      <trkpt lat="43.632" lon="3.67964">
        <ele>199</ele>
      </trkpt>
      <trkpt lat="43.63199" lon="3.6796">
        <ele>199</ele>
      </trkpt>
      <trkpt lat="43.63199" lon="3.67956">
        <ele>199</ele>
      </trkpt>
      <trkpt lat="43.63199" lon="3.67952">
        <ele>199</ele>
      </trkpt>
      <trkpt lat="43.63198" lon="3.67949">
        <ele>199</ele>
      </trkpt>
      <trkpt lat="43.63197" lon="3.67945">
        <ele>199</ele>
      </trkpt>
      <trkpt lat="43.63196" lon="3.67941">
        <ele>199</ele>
      </trkpt>
      <trkpt lat="43.63194" lon="3.67937">
        <ele>199</ele>
      </trkpt>
      <trkpt lat="43.63193" lon="3.67933">
        <ele>199</ele>
      </trkpt>
      <trkpt lat="43.63193" lon="3.67929">
        <ele>199</ele>
      </trkpt>
      <trkpt lat="43.63192" lon="3.67925">
        <ele>201</ele>
      </trkpt>
      <trkpt lat="43.63192" lon="3.67922">
        <ele>201</ele>
      </trkpt>
      <trkpt lat="43.63191" lon="3.67918">
        <ele>201</ele>
      </trkpt>
      <trkpt lat="43.63191" lon="3.67914">
        <ele>201</ele>
      </trkpt>
      <trkpt lat="43.63191" lon="3.67911">
        <ele>201</ele>
      </trkpt>
      <trkpt lat="43.63191" lon="3.67907">
        <ele>202</ele>
      </trkpt>
      <trkpt lat="43.63192" lon="3.67903">
        <ele>202</ele>
      </trkpt>
      <trkpt lat="43.63192" lon="3.679">
        <ele>202</ele>
      </trkpt>
      <trkpt lat="43.63191" lon="3.67896">
        <ele>202</ele>
      </trkpt>
      <trkpt lat="43.63191" lon="3.67893">
        <ele>202</ele>
      </trkpt>
      <trkpt lat="43.63191" lon="3.67889">
        <ele>204</ele>
      </trkpt>
      <trkpt lat="43.63191" lon="3.67885">
        <ele>204</ele>
      </trkpt>
      <trkpt lat="43.63192" lon="3.67882">
        <ele>204</ele>
      </trkpt>
      <trkpt lat="43.63193" lon="3.67879">
        <ele>204</ele>
      </trkpt>
      <trkpt lat="43.63192" lon="3.67875">
        <ele>204</ele>
      </trkpt>
      <trkpt lat="43.63192" lon="3.67872">
        <ele>206</ele>
      </trkpt>
      <trkpt lat="43.63192" lon="3.67868">
        <ele>206</ele>
      </trkpt>
      <trkpt lat="43.63192" lon="3.67865">
        <ele>206</ele>
      </trkpt>
      <trkpt lat="43.63192" lon="3.67861">
        <ele>206</ele>
      </trkpt>
      <trkpt lat="43.63192" lon="3.67857">
        <ele>206</ele>
      </trkpt>
      <trkpt lat="43.6319" lon="3.67853">
        <ele>208</ele>
      </trkpt>
      <trkpt lat="43.63188" lon="3.6785">
        <ele>208</ele>
      </trkpt>
      <trkpt lat="43.63186" lon="3.67847">
        <ele>208</ele>
      </trkpt>
      <trkpt lat="43.63184" lon="3.67844">
        <ele>208</ele>
      </trkpt>
      <trkpt lat="43.63182" lon="3.67841">
        <ele>208</ele>
      </trkpt>
      <trkpt lat="43.63179" lon="3.67838">
        <ele>209</ele>
      </trkpt>
      <trkpt lat="43.63177" lon="3.67836">
        <ele>209</ele>
      </trkpt>
      <trkpt lat="43.63175" lon="3.67833">
        <ele>209</ele>
      </trkpt>
      <trkpt lat="43.63173" lon="3.67831">
        <ele>209</ele>
      </trkpt>
      <trkpt lat="43.63171" lon="3.67828">
        <ele>209</ele>
      </trkpt>
      <trkpt lat="43.6317" lon="3.67826">
        <ele>211</ele>
      </trkpt>
      <trkpt lat="43.63168" lon="3.67824">
        <ele>211</ele>
      </trkpt>
      <trkpt lat="43.63167" lon="3.67821">
        <ele>211</ele>
      </trkpt>
      <trkpt lat="43.63165" lon="3.67818">
        <ele>211</ele>
      </trkpt>
      <trkpt lat="43.63165" lon="3.67815">
        <ele>211</ele>
      </trkpt>
      <trkpt lat="43.63163" lon="3.67812">
        <ele>212</ele>
      </trkpt>
      <trkpt lat="43.63162" lon="3.67809">
        <ele>212</ele>
      </trkpt>
      <trkpt lat="43.63162" lon="3.67806">
        <ele>212</ele>
      </trkpt>
      <trkpt lat="43.63162" lon="3.67802">
        <ele>212</ele>
      </trkpt>
      <trkpt lat="43.63162" lon="3.67799">
        <ele>212</ele>
      </trkpt>
      <trkpt lat="43.63162" lon="3.67796">
        <ele>214</ele>
      </trkpt>
      <trkpt lat="43.63161" lon="3.67792">
        <ele>214</ele>
      </trkpt>
      <trkpt lat="43.63161" lon="3.67788">
        <ele>214</ele>
      </trkpt>
      <trkpt lat="43.63161" lon="3.67785">
        <ele>214</ele>
      </trkpt>
      <trkpt lat="43.63161" lon="3.67782">
        <ele>214</ele>
      </trkpt>
      <trkpt lat="43.63162" lon="3.67779">
        <ele>216</ele>
      </trkpt>
      <trkpt lat="43.63161" lon="3.67775">
        <ele>216</ele>
      </trkpt>
      <trkpt lat="43.63161" lon="3.67772">
        <ele>216</ele>
      </trkpt>
      <trkpt lat="43.6316" lon="3.67769">
        <ele>216</ele>
      </trkpt>
      <trkpt lat="43.6316" lon="3.67765">
        <ele>216</ele>
      </trkpt>
      <trkpt lat="43.6316" lon="3.67761">
        <ele>218</ele>
      </trkpt>
      <trkpt lat="43.6316" lon="3.67758">
        <ele>218</ele>
      </trkpt>
      <trkpt lat="43.63159" lon="3.67755">
        <ele>218</ele>
      </trkpt>
      <trkpt lat="43.63159" lon="3.67751">
        <ele>218</ele>
      </trkpt>
      <trkpt lat="43.63158" lon="3.67748">
        <ele>218</ele>
      </trkpt>
      <trkpt lat="43.63159" lon="3.67744">
        <ele>220</ele>
      </trkpt>
      <trkpt lat="43.63159" lon="3.67741">
        <ele>220</ele>
      </trkpt>
      <trkpt lat="43.63158" lon="3.67737">
        <ele>220</ele>
      </trkpt>
      <trkpt lat="43.63157" lon="3.67734">
        <ele>220</ele>
      </trkpt>
      <trkpt lat="43.63157" lon="3.67731">
        <ele>220</ele>
      </trkpt>
      <trkpt lat="43.63157" lon="3.67726">
        <ele>221</ele>
      </trkpt>
      <trkpt lat="43.63157" lon="3.67722">
        <ele>221</ele>
      </trkpt>
      <trkpt lat="43.63156" lon="3.6772">
        <ele>221</ele>
      </trkpt>
      <trkpt lat="43.63156" lon="3.67717">
        <ele>221</ele>
      </trkpt>
      <trkpt lat="43.63156" lon="3.67715">
        <ele>221</ele>
      </trkpt>
      <trkpt lat="43.63156" lon="3.6771">
        <ele>221</ele>
      </trkpt>
      <trkpt lat="43.63156" lon="3.67705">
        <ele>223</ele>
      </trkpt>
      <trkpt lat="43.63156" lon="3.67701">
        <ele>223</ele>
      </trkpt>
      <trkpt lat="43.63156" lon="3.67696">
        <ele>223</ele>
      </trkpt>
      <trkpt lat="43.63156" lon="3.67691">
        <ele>223</ele>
      </trkpt>
      <trkpt lat="43.63156" lon="3.67687">
        <ele>223</ele>
      </trkpt>
      <trkpt lat="43.63156" lon="3.67682">
        <ele>224</ele>
      </trkpt>
      <trkpt lat="43.63155" lon="3.67678">
        <ele>224</ele>
      </trkpt>
      <trkpt lat="43.63155" lon="3.67672">
        <ele>224</ele>
      </trkpt>
      <trkpt lat="43.63155" lon="3.6767">
        <ele>224</ele>
      </trkpt>
      <trkpt lat="43.63154" lon="3.67668">
        <ele>224</ele>
      </trkpt>
      <trkpt lat="43.63154" lon="3.67665">
        <ele>224</ele>
      </trkpt>
      <trkpt lat="43.63154" lon="3.67663">
        <ele>224</ele>
      </trkpt>
      <trkpt lat="43.63154" lon="3.6766">
        <ele>224</ele>
      </trkpt>
      <trkpt lat="43.63154" lon="3.67657">
        <ele>225</ele>
      </trkpt>
      <trkpt lat="43.63154" lon="3.67655">
        <ele>225</ele>
      </trkpt>
      <trkpt lat="43.63154" lon="3.67652">
        <ele>225</ele>
      </trkpt>
      <trkpt lat="43.63154" lon="3.67649">
        <ele>225</ele>
      </trkpt>
      <trkpt lat="43.63153" lon="3.67646">
        <ele>225</ele>
      </trkpt>
      <trkpt lat="43.63153" lon="3.67643">
        <ele>225</ele>
      </trkpt>
      <trkpt lat="43.63152" lon="3.6764">
        <ele>225</ele>
      </trkpt>
      <trkpt lat="43.63152" lon="3.67637">
        <ele>225</ele>
      </trkpt>
      <trkpt lat="43.63151" lon="3.67634">
        <ele>225</ele>
      </trkpt>
      <trkpt lat="43.63151" lon="3.67631">
        <ele>225</ele>
      </trkpt>
      <trkpt lat="43.63151" lon="3.67628">
        <ele>226</ele>
      </trkpt>
      <trkpt lat="43.6315" lon="3.67624">
        <ele>226</ele>
      </trkpt>
      <trkpt lat="43.6315" lon="3.67622">
        <ele>226</ele>
      </trkpt>
      <trkpt lat="43.63149" lon="3.67618">
        <ele>226</ele>
      </trkpt>
      <trkpt lat="43.63148" lon="3.67615">
        <ele>226</ele>
      </trkpt>
      <trkpt lat="43.63148" lon="3.67612">
        <ele>226</ele>
      </trkpt>
      <trkpt lat="43.63148" lon="3.67609">
        <ele>226</ele>
      </trkpt>
      <trkpt lat="43.63147" lon="3.67605">
        <ele>226</ele>
      </trkpt>
      <trkpt lat="43.63147" lon="3.67602">
        <ele>226</ele>
      </trkpt>
      <trkpt lat="43.63147" lon="3.67599">
        <ele>226</ele>
      </trkpt>
      <trkpt lat="43.63146" lon="3.67596">
        <ele>227</ele>
      </trkpt>
      <trkpt lat="43.63146" lon="3.67593">
        <ele>227</ele>
      </trkpt>
      <trkpt lat="43.63145" lon="3.6759">
        <ele>227</ele>
      </trkpt>
      <trkpt lat="43.63145" lon="3.67587">
        <ele>227</ele>
      </trkpt>
      <trkpt lat="43.63144" lon="3.67584">
        <ele>227</ele>
      </trkpt>
      <trkpt lat="43.63144" lon="3.67581">
        <ele>227</ele>
      </trkpt>
      <trkpt lat="43.63144" lon="3.67578">
        <ele>227</ele>
      </trkpt>
      <trkpt lat="43.63144" lon="3.67575">
        <ele>227</ele>
      </trkpt>
      <trkpt lat="43.63143" lon="3.67572">
        <ele>227</ele>
      </trkpt>
      <trkpt lat="43.63143" lon="3.6757">
        <ele>227</ele>
      </trkpt>
      <trkpt lat="43.63142" lon="3.67567">
        <ele>228</ele>
      </trkpt>
      <trkpt lat="43.63141" lon="3.67564">
        <ele>228</ele>
      </trkpt>
      <trkpt lat="43.63141" lon="3.67561">
        <ele>228</ele>
      </trkpt>
      <trkpt lat="43.63141" lon="3.67559">
        <ele>228</ele>
      </trkpt>
      <trkpt lat="43.6314" lon="3.67556">
        <ele>228</ele>
      </trkpt>
      <trkpt lat="43.6314" lon="3.67553">
        <ele>228</ele>
      </trkpt>
      <trkpt lat="43.6314" lon="3.6755">
        <ele>228</ele>
      </trkpt>
      <trkpt lat="43.63139" lon="3.67547">
        <ele>228</ele>
      </trkpt>
      <trkpt lat="43.63139" lon="3.67544">
        <ele>228</ele>
      </trkpt>
      <trkpt lat="43.63139" lon="3.67541">
        <ele>228</ele>
      </trkpt>
      <trkpt lat="43.63138" lon="3.67538">
        <ele>229</ele>
      </trkpt>
      <trkpt lat="43.63138" lon="3.67535">
        <ele>229</ele>
      </trkpt>
      <trkpt lat="43.63138" lon="3.67532">
        <ele>229</ele>
      </trkpt>
      <trkpt lat="43.63137" lon="3.67528">
        <ele>229</ele>
      </trkpt>
      <trkpt lat="43.63137" lon="3.67525">
        <ele>229</ele>
      </trkpt>
      <trkpt lat="43.63137" lon="3.67522">
        <ele>229</ele>
      </trkpt>
      <trkpt lat="43.63137" lon="3.67518">
        <ele>229</ele>
      </trkpt>
      <trkpt lat="43.63137" lon="3.67515">
        <ele>229</ele>
      </trkpt>
      <trkpt lat="43.63137" lon="3.67512">
        <ele>229</ele>
      </trkpt>
      <trkpt lat="43.63137" lon="3.67509">
        <ele>229</ele>
      </trkpt>
      <trkpt lat="43.63136" lon="3.67506">
        <ele>229</ele>
      </trkpt>
      <trkpt lat="43.63136" lon="3.67504">
        <ele>229</ele>
      </trkpt>
      <trkpt lat="43.63136" lon="3.67501">
        <ele>229</ele>
      </trkpt>
      <trkpt lat="43.63136" lon="3.67498">
        <ele>229</ele>
      </trkpt>
      <trkpt lat="43.63136" lon="3.67495">
        <ele>229</ele>
      </trkpt>
      <trkpt lat="43.63136" lon="3.67493">
        <ele>229</ele>
      </trkpt>
      <trkpt lat="43.63136" lon="3.6749">
        <ele>229</ele>
      </trkpt>
      <trkpt lat="43.63136" lon="3.67485">
        <ele>229</ele>
      </trkpt>
      <trkpt lat="43.63134" lon="3.67481">
        <ele>231</ele>
      </trkpt>
      <trkpt lat="43.63134" lon="3.67477">
        <ele>231</ele>
      </trkpt>
      <trkpt lat="43.63134" lon="3.67473">
        <ele>231</ele>
      </trkpt>
      <trkpt lat="43.63132" lon="3.67468">
        <ele>231</ele>
      </trkpt>
      <trkpt lat="43.63131" lon="3.67464">
        <ele>231</ele>
      </trkpt>
      <trkpt lat="43.63129" lon="3.67461">
        <ele>233</ele>
      </trkpt>
      <trkpt lat="43.63128" lon="3.67457">
        <ele>233</ele>
      </trkpt>
      <trkpt lat="43.63126" lon="3.67453">
        <ele>233</ele>
      </trkpt>
      <trkpt lat="43.63124" lon="3.67448">
        <ele>233</ele>
      </trkpt>
      <trkpt lat="43.63122" lon="3.67445">
        <ele>233</ele>
      </trkpt>
      <trkpt lat="43.6312" lon="3.67441">
        <ele>234</ele>
      </trkpt>
      <trkpt lat="43.63118" lon="3.67439">
        <ele>234</ele>
      </trkpt>
      <trkpt lat="43.63117" lon="3.67437">
        <ele>234</ele>
      </trkpt>
      <trkpt lat="43.63115" lon="3.67435">
        <ele>234</ele>
      </trkpt>
      <trkpt lat="43.63113" lon="3.67432">
        <ele>234</ele>
      </trkpt>
      <trkpt lat="43.63109" lon="3.6743">
        <ele>234</ele>
      </trkpt>
      <trkpt lat="43.63107" lon="3.67428">
        <ele>234</ele>
      </trkpt>
      <trkpt lat="43.63103" lon="3.67426">
        <ele>236</ele>
      </trkpt>
      <trkpt lat="43.63101" lon="3.67425">
        <ele>236</ele>
      </trkpt>
      <trkpt lat="43.63098" lon="3.67423">
        <ele>236</ele>
      </trkpt>
      <trkpt lat="43.63096" lon="3.67421">
        <ele>236</ele>
      </trkpt>
      <trkpt lat="43.63093" lon="3.67419">
        <ele>236</ele>
      </trkpt>
      <trkpt lat="43.6309" lon="3.67417">
        <ele>238</ele>
      </trkpt>
      <trkpt lat="43.63087" lon="3.67415">
        <ele>238</ele>
      </trkpt>
      <trkpt lat="43.63085" lon="3.67413">
        <ele>238</ele>
      </trkpt>
      <trkpt lat="43.63083" lon="3.67412">
        <ele>238</ele>
      </trkpt>
      <trkpt lat="43.6308" lon="3.6741">
        <ele>238</ele>
      </trkpt>
      <trkpt lat="43.63077" lon="3.67408">
        <ele>239</ele>
      </trkpt>
      <trkpt lat="43.63074" lon="3.67406">
        <ele>239</ele>
      </trkpt>
      <trkpt lat="43.63071" lon="3.67404">
        <ele>239</ele>
      </trkpt>
      <trkpt lat="43.63069" lon="3.67403">
        <ele>239</ele>
      </trkpt>
      <trkpt lat="43.63067" lon="3.67401">
        <ele>239</ele>
      </trkpt>
      <trkpt lat="43.63063" lon="3.674">
        <ele>240</ele>
      </trkpt>
      <trkpt lat="43.6306" lon="3.67398">
        <ele>240</ele>
      </trkpt>
      <trkpt lat="43.63057" lon="3.67397">
        <ele>240</ele>
      </trkpt>
      <trkpt lat="43.63054" lon="3.67395">
        <ele>240</ele>
      </trkpt>
      <trkpt lat="43.63051" lon="3.67393">
        <ele>240</ele>
      </trkpt>
      <trkpt lat="43.63049" lon="3.67392">
        <ele>240</ele>
      </trkpt>
      <trkpt lat="43.63045" lon="3.6739">
        <ele>240</ele>
      </trkpt>
      <trkpt lat="43.63042" lon="3.67387">
        <ele>240</ele>
      </trkpt>
      <trkpt lat="43.6304" lon="3.67384">
        <ele>240</ele>
      </trkpt>
      <trkpt lat="43.63037" lon="3.6738">
        <ele>240</ele>
      </trkpt>
      <trkpt lat="43.63035" lon="3.67377">
        <ele>242</ele>
      </trkpt>
      <trkpt lat="43.63034" lon="3.67375">
        <ele>242</ele>
      </trkpt>
      <trkpt lat="43.63033" lon="3.67372">
        <ele>242</ele>
      </trkpt>
      <trkpt lat="43.63031" lon="3.67368">
        <ele>242</ele>
      </trkpt>
      <trkpt lat="43.63031" lon="3.67364">
        <ele>242</ele>
      </trkpt>
      <trkpt lat="43.6303" lon="3.6736">
        <ele>242</ele>
      </trkpt>
      <trkpt lat="43.6303" lon="3.67356">
        <ele>244</ele>
      </trkpt>
      <trkpt lat="43.6303" lon="3.67352">
        <ele>244</ele>
      </trkpt>
      <trkpt lat="43.6303" lon="3.67349">
        <ele>244</ele>
      </trkpt>
      <trkpt lat="43.63031" lon="3.67345">
        <ele>244</ele>
      </trkpt>
      <trkpt lat="43.63031" lon="3.67342">
        <ele>244</ele>
      </trkpt>
      <trkpt lat="43.63032" lon="3.67339">
        <ele>245</ele>
      </trkpt>
      <trkpt lat="43.63033" lon="3.67336">
        <ele>245</ele>
      </trkpt>
      <trkpt lat="43.63034" lon="3.67332">
        <ele>245</ele>
      </trkpt>
      <trkpt lat="43.63035" lon="3.67329">
        <ele>245</ele>
      </trkpt>
      <trkpt lat="43.63037" lon="3.67326">
        <ele>245</ele>
      </trkpt>
      <trkpt lat="43.63038" lon="3.67323">
        <ele>247</ele>
      </trkpt>
      <trkpt lat="43.63039" lon="3.6732">
        <ele>247</ele>
      </trkpt>
      <trkpt lat="43.6304" lon="3.67317">
        <ele>247</ele>
      </trkpt>
      <trkpt lat="43.63041" lon="3.67313">
        <ele>247</ele>
      </trkpt>
      <trkpt lat="43.63043" lon="3.67311">
        <ele>247</ele>
      </trkpt>
      <trkpt lat="43.63044" lon="3.67308">
        <ele>249</ele>
      </trkpt>
      <trkpt lat="43.63045" lon="3.67304">
        <ele>249</ele>
      </trkpt>
      <trkpt lat="43.63047" lon="3.67302">
        <ele>249</ele>
      </trkpt>
      <trkpt lat="43.63048" lon="3.67298">
        <ele>249</ele>
      </trkpt>
      <trkpt lat="43.6305" lon="3.67295">
        <ele>249</ele>
      </trkpt>
      <trkpt lat="43.63052" lon="3.67292">
        <ele>250</ele>
      </trkpt>
      <trkpt lat="43.63053" lon="3.67289">
        <ele>250</ele>
      </trkpt>
      <trkpt lat="43.63054" lon="3.67286">
        <ele>250</ele>
      </trkpt>
      <trkpt lat="43.63055" lon="3.67282">
        <ele>250</ele>
      </trkpt>
      <trkpt lat="43.63056" lon="3.67279">
        <ele>250</ele>
      </trkpt>
      <trkpt lat="43.63057" lon="3.67276">
        <ele>251</ele>
      </trkpt>
      <trkpt lat="43.63058" lon="3.67273">
        <ele>251</ele>
      </trkpt>
      <trkpt lat="43.63061" lon="3.6727">
        <ele>251</ele>
      </trkpt>
      <trkpt lat="43.63063" lon="3.67268">
        <ele>251</ele>
      </trkpt>
      <trkpt lat="43.63065" lon="3.67266">
        <ele>251</ele>
      </trkpt>
      <trkpt lat="43.63067" lon="3.67264">
        <ele>253</ele>
      </trkpt>
      <trkpt lat="43.63069" lon="3.67262">
        <ele>253</ele>
      </trkpt>
      <trkpt lat="43.63071" lon="3.6726">
        <ele>253</ele>
      </trkpt>
      <trkpt lat="43.63074" lon="3.67259">
        <ele>253</ele>
      </trkpt>
      <trkpt lat="43.63076" lon="3.67259">
        <ele>253</ele>
      </trkpt>
      <trkpt lat="43.63078" lon="3.67258">
        <ele>254</ele>
      </trkpt>
      <trkpt lat="43.63082" lon="3.67258">
        <ele>254</ele>
      </trkpt>
      <trkpt lat="43.63085" lon="3.67257">
        <ele>254</ele>
      </trkpt>
      <trkpt lat="43.63087" lon="3.67257">
        <ele>254</ele>
      </trkpt>
      <trkpt lat="43.63089" lon="3.67258">
        <ele>254</ele>
      </trkpt>
      <trkpt lat="43.63092" lon="3.67258">
        <ele>256</ele>
      </trkpt>
      <trkpt lat="43.63096" lon="3.67257">
        <ele>256</ele>
      </trkpt>
      <trkpt lat="43.63099" lon="3.67257">
        <ele>256</ele>
      </trkpt>
      <trkpt lat="43.63102" lon="3.67257">
        <ele>256</ele>
      </trkpt>
      <trkpt lat="43.63103" lon="3.67256">
        <ele>256</ele>
      </trkpt>
      <trkpt lat="43.63106" lon="3.67256">
        <ele>256</ele>
      </trkpt>
      <trkpt lat="43.63109" lon="3.67257">
        <ele>256</ele>
      </trkpt>
      <trkpt lat="43.63112" lon="3.67256">
        <ele>256</ele>
      </trkpt>
      <trkpt lat="43.63115" lon="3.67256">
        <ele>256</ele>
      </trkpt>
      <trkpt lat="43.63118" lon="3.67256">
        <ele>256</ele>
      </trkpt>
      <trkpt lat="43.6312" lon="3.67255">
        <ele>257</ele>
      </trkpt>
      <trkpt lat="43.63122" lon="3.67255">
        <ele>257</ele>
      </trkpt>
      <trkpt lat="43.63125" lon="3.67254">
        <ele>257</ele>
      </trkpt>
      <trkpt lat="43.63128" lon="3.67253">
        <ele>257</ele>
      </trkpt>
      <trkpt lat="43.63131" lon="3.67252">
        <ele>257</ele>
      </trkpt>
      <trkpt lat="43.63134" lon="3.67253">
        <ele>260</ele>
      </trkpt>
      <trkpt lat="43.63136" lon="3.67252">
        <ele>260</ele>
      </trkpt>
      <trkpt lat="43.63139" lon="3.6725">
        <ele>260</ele>
      </trkpt>
      <trkpt lat="43.63141" lon="3.67249">
        <ele>260</ele>
      </trkpt>
      <trkpt lat="43.63144" lon="3.67248">
        <ele>260</ele>
      </trkpt>
      <trkpt lat="43.63147" lon="3.67247">
        <ele>262</ele>
      </trkpt>
      <trkpt lat="43.6315" lon="3.67247">
        <ele>262</ele>
      </trkpt>
      <trkpt lat="43.63153" lon="3.67247">
        <ele>262</ele>
      </trkpt>
      <trkpt lat="43.63156" lon="3.67244">
        <ele>262</ele>
      </trkpt>
      <trkpt lat="43.63159" lon="3.67244">
        <ele>262</ele>
      </trkpt>
      <trkpt lat="43.63161" lon="3.67244">
        <ele>263</ele>
      </trkpt>
      <trkpt lat="43.63163" lon="3.67244">
        <ele>263</ele>
      </trkpt>
      <trkpt lat="43.63166" lon="3.67243">
        <ele>263</ele>
      </trkpt>
      <trkpt lat="43.63169" lon="3.67242">
        <ele>263</ele>
      </trkpt>
      <trkpt lat="43.63171" lon="3.67243">
        <ele>263</ele>
      </trkpt>
      <trkpt lat="43.63174" lon="3.67242">
        <ele>265</ele>
      </trkpt>
      <trkpt lat="43.63177" lon="3.67242">
        <ele>265</ele>
      </trkpt>
      <trkpt lat="43.6318" lon="3.67242">
        <ele>265</ele>
      </trkpt>
      <trkpt lat="43.63183" lon="3.67242">
        <ele>265</ele>
      </trkpt>
      <trkpt lat="43.63186" lon="3.67242">
        <ele>265</ele>
      </trkpt>
      <trkpt lat="43.63188" lon="3.67242">
        <ele>266</ele>
      </trkpt>
      <trkpt lat="43.63191" lon="3.67241">
        <ele>266</ele>
      </trkpt>
      <trkpt lat="43.63194" lon="3.67241">
        <ele>266</ele>
      </trkpt>
      <trkpt lat="43.63197" lon="3.6724">
        <ele>266</ele>
      </trkpt>
      <trkpt lat="43.632" lon="3.67239">
        <ele>266</ele>
      </trkpt>
      <trkpt lat="43.63203" lon="3.67238">
        <ele>268</ele>
      </trkpt>
      <trkpt lat="43.63205" lon="3.67238">
        <ele>268</ele>
      </trkpt>
      <trkpt lat="43.63207" lon="3.67237">
        <ele>268</ele>
      </trkpt>
      <trkpt lat="43.6321" lon="3.67236">
        <ele>268</ele>
      </trkpt>
      <trkpt lat="43.63212" lon="3.67234">
        <ele>268</ele>
      </trkpt>
      <trkpt lat="43.63215" lon="3.67232">
        <ele>269</ele>
      </trkpt>
      <trkpt lat="43.63217" lon="3.67231">
        <ele>269</ele>
      </trkpt>
      <trkpt lat="43.6322" lon="3.6723">
        <ele>269</ele>
      </trkpt>
      <trkpt lat="43.63222" lon="3.67229">
        <ele>269</ele>
      </trkpt>
      <trkpt lat="43.63224" lon="3.67227">
        <ele>269</ele>
      </trkpt>
      <trkpt lat="43.63227" lon="3.67225">
        <ele>270</ele>
      </trkpt>
      <trkpt lat="43.63229" lon="3.67223">
        <ele>270</ele>
      </trkpt>
      <trkpt lat="43.63231" lon="3.67222">
        <ele>270</ele>
      </trkpt>
      <trkpt lat="43.63235" lon="3.67221">
        <ele>270</ele>
      </trkpt>
      <trkpt lat="43.63237" lon="3.6722">
        <ele>270</ele>
      </trkpt>
      <trkpt lat="43.63239" lon="3.67218">
        <ele>271</ele>
      </trkpt>
      <trkpt lat="43.63242" lon="3.67217">
        <ele>271</ele>
      </trkpt>
      <trkpt lat="43.63244" lon="3.67216">
        <ele>271</ele>
      </trkpt>
      <trkpt lat="43.63247" lon="3.67215">
        <ele>271</ele>
      </trkpt>
      <trkpt lat="43.6325" lon="3.67214">
        <ele>271</ele>
      </trkpt>
      <trkpt lat="43.63252" lon="3.67213">
        <ele>271</ele>
      </trkpt>
      <trkpt lat="43.63255" lon="3.67212">
        <ele>272</ele>
      </trkpt>
      <trkpt lat="43.63258" lon="3.6721">
        <ele>272</ele>
      </trkpt>
      <trkpt lat="43.63261" lon="3.67209">
        <ele>272</ele>
      </trkpt>
      <trkpt lat="43.63263" lon="3.67209">
        <ele>272</ele>
      </trkpt>
      <trkpt lat="43.63266" lon="3.67208">
        <ele>272</ele>
      </trkpt>
      <trkpt lat="43.63269" lon="3.67207">
        <ele>274</ele>
      </trkpt>
      <trkpt lat="43.63272" lon="3.67206">
        <ele>274</ele>
      </trkpt>
      <trkpt lat="43.63274" lon="3.67205">
        <ele>274</ele>
      </trkpt>
      <trkpt lat="43.63277" lon="3.67205">
        <ele>274</ele>
      </trkpt>
      <trkpt lat="43.6328" lon="3.67205">
        <ele>274</ele>
      </trkpt>
      <trkpt lat="43.63283" lon="3.67204">
        <ele>275</ele>
      </trkpt>
      <trkpt lat="43.63285" lon="3.67204">
        <ele>275</ele>
      </trkpt>
      <trkpt lat="43.63288" lon="3.67203">
        <ele>275</ele>
      </trkpt>
      <trkpt lat="43.6329" lon="3.67201">
        <ele>275</ele>
      </trkpt>
      <trkpt lat="43.63294" lon="3.67199">
        <ele>275</ele>
      </trkpt>
      <trkpt lat="43.63297" lon="3.67197">
        <ele>277</ele>
      </trkpt>
      <trkpt lat="43.633" lon="3.67196">
        <ele>277</ele>
      </trkpt>
      <trkpt lat="43.63303" lon="3.67195">
        <ele>277</ele>
      </trkpt>
      <trkpt lat="43.63306" lon="3.67193">
        <ele>277</ele>
      </trkpt>
      <trkpt lat="43.63309" lon="3.67191">
        <ele>277</ele>
      </trkpt>
      <trkpt lat="43.63312" lon="3.67189">
        <ele>278</ele>
      </trkpt>
      <trkpt lat="43.63315" lon="3.67188">
        <ele>278</ele>
      </trkpt>
      <trkpt lat="43.63318" lon="3.67186">
        <ele>278</ele>
      </trkpt>
      <trkpt lat="43.63321" lon="3.67183">
        <ele>278</ele>
      </trkpt>
      <trkpt lat="43.63324" lon="3.67181">
        <ele>278</ele>
      </trkpt>
      <trkpt lat="43.63327" lon="3.67179">
        <ele>279</ele>
      </trkpt>
      <trkpt lat="43.6333" lon="3.67177">
        <ele>279</ele>
      </trkpt>
      <trkpt lat="43.63334" lon="3.67175">
        <ele>279</ele>
      </trkpt>
      <trkpt lat="43.63336" lon="3.67172">
        <ele>279</ele>
      </trkpt>
      <trkpt lat="43.63338" lon="3.67172">
        <ele>279</ele>
      </trkpt>
      <trkpt lat="43.63341" lon="3.67169">
        <ele>280</ele>
      </trkpt>
      <trkpt lat="43.63344" lon="3.67168">
        <ele>280</ele>
      </trkpt>
      <trkpt lat="43.63347" lon="3.67165">
        <ele>280</ele>
      </trkpt>
      <trkpt lat="43.6335" lon="3.67163">
        <ele>280</ele>
      </trkpt>
      <trkpt lat="43.63353" lon="3.67161">
        <ele>280</ele>
      </trkpt>
      <trkpt lat="43.63356" lon="3.67159">
        <ele>281</ele>
      </trkpt>
      <trkpt lat="43.63358" lon="3.67157">
        <ele>281</ele>
      </trkpt>
      <trkpt lat="43.63361" lon="3.67155">
        <ele>281</ele>
      </trkpt>
      <trkpt lat="43.63365" lon="3.67154">
        <ele>281</ele>
      </trkpt>
      <trkpt lat="43.63368" lon="3.67152">
        <ele>281</ele>
      </trkpt>
      <trkpt lat="43.63371" lon="3.67151">
        <ele>282</ele>
      </trkpt>
      <trkpt lat="43.63374" lon="3.67152">
        <ele>282</ele>
      </trkpt>
      <trkpt lat="43.63378" lon="3.67153">
        <ele>282</ele>
      </trkpt>
      <trkpt lat="43.63381" lon="3.67155">
        <ele>282</ele>
      </trkpt>
      <trkpt lat="43.63383" lon="3.67158">
        <ele>282</ele>
      </trkpt>
      <trkpt lat="43.63385" lon="3.67161">
        <ele>283</ele>
      </trkpt>
      <trkpt lat="43.63387" lon="3.67165">
        <ele>283</ele>
      </trkpt>
      <trkpt lat="43.63388" lon="3.67168">
        <ele>283</ele>
      </trkpt>
      <trkpt lat="43.63389" lon="3.67172">
        <ele>283</ele>
      </trkpt>
      <trkpt lat="43.6339" lon="3.67176">
        <ele>283</ele>
      </trkpt>
      <trkpt lat="43.63391" lon="3.6718">
        <ele>285</ele>
      </trkpt>
      <trkpt lat="43.63393" lon="3.67183">
        <ele>285</ele>
      </trkpt>
      <trkpt lat="43.63395" lon="3.67187">
        <ele>285</ele>
      </trkpt>
      <trkpt lat="43.63397" lon="3.6719">
        <ele>285</ele>
      </trkpt>
      <trkpt lat="43.634" lon="3.67192">
        <ele>285</ele>
      </trkpt>
      <trkpt lat="43.63402" lon="3.67194">
        <ele>286</ele>
      </trkpt>
      <trkpt lat="43.63405" lon="3.67196">
        <ele>286</ele>
      </trkpt>
      <trkpt lat="43.63407" lon="3.67197">
        <ele>286</ele>
      </trkpt>
      <trkpt lat="43.63411" lon="3.67197">
        <ele>286</ele>
      </trkpt>
      <trkpt lat="43.63414" lon="3.67199">
        <ele>286</ele>
      </trkpt>
      <trkpt lat="43.63417" lon="3.67199">
        <ele>288</ele>
      </trkpt>
      <trkpt lat="43.63419" lon="3.672">
        <ele>288</ele>
      </trkpt>
      <trkpt lat="43.63421" lon="3.672">
        <ele>288</ele>
      </trkpt>
      <trkpt lat="43.63422" lon="3.67201">
        <ele>288</ele>
      </trkpt>
      <trkpt lat="43.63425" lon="3.67201">
        <ele>288</ele>
      </trkpt>
      <trkpt lat="43.63426" lon="3.67201">
        <ele>288</ele>
      </trkpt>
      <trkpt lat="43.63429" lon="3.67202">
        <ele>288</ele>
      </trkpt>
      <trkpt lat="43.63431" lon="3.67203">
        <ele>288</ele>
      </trkpt>
      <trkpt lat="43.63433" lon="3.67203">
        <ele>288</ele>
      </trkpt>
      <trkpt lat="43.63435" lon="3.67204">
        <ele>288</ele>
      </trkpt>
      <trkpt lat="43.63437" lon="3.67204">
        <ele>288</ele>
      </trkpt>
      <trkpt lat="43.63439" lon="3.67204">
        <ele>288</ele>
      </trkpt>
      <trkpt lat="43.63441" lon="3.67205">
        <ele>288</ele>
      </trkpt>
      <trkpt lat="43.63443" lon="3.67205">
        <ele>288</ele>
      </trkpt>
      <trkpt lat="43.63445" lon="3.67205">
        <ele>288</ele>
      </trkpt>
      <trkpt lat="43.63447" lon="3.67206">
        <ele>288</ele>
      </trkpt>
      <trkpt lat="43.6345" lon="3.67207">
        <ele>288</ele>
      </trkpt>
      <trkpt lat="43.63452" lon="3.67207">
        <ele>288</ele>
      </trkpt>
      <trkpt lat="43.63454" lon="3.67208">
        <ele>288</ele>
      </trkpt>
      <trkpt lat="43.63457" lon="3.67209">
        <ele>289</ele>
      </trkpt>
      <trkpt lat="43.63459" lon="3.6721">
        <ele>289</ele>
      </trkpt>
      <trkpt lat="43.63461" lon="3.67211">
        <ele>289</ele>
      </trkpt>
      <trkpt lat="43.63462" lon="3.67211">
        <ele>289</ele>
      </trkpt>
      <trkpt lat="43.63465" lon="3.67212">
        <ele>289</ele>
      </trkpt>
      <trkpt lat="43.63466" lon="3.67214">
        <ele>289</ele>
      </trkpt>
      <trkpt lat="43.63468" lon="3.67215">
        <ele>289</ele>
      </trkpt>
      <trkpt lat="43.63471" lon="3.67216">
        <ele>289</ele>
      </trkpt>
      <trkpt lat="43.63473" lon="3.67218">
        <ele>289</ele>
      </trkpt>
      <trkpt lat="43.63474" lon="3.6722">
        <ele>288</ele>
      </trkpt>
      <trkpt lat="43.63476" lon="3.67221">
        <ele>288</ele>
      </trkpt>
      <trkpt lat="43.63476" lon="3.67221">
        <ele>288</ele>
      </trkpt>
      <trkpt lat="43.63481" lon="3.67226">
        <ele>288</ele>
      </trkpt>
      <trkpt lat="43.63483" lon="3.67228">
        <ele>288</ele>
      </trkpt>
      <trkpt lat="43.63486" lon="3.6723">
        <ele>288</ele>
      </trkpt>
      <trkpt lat="43.63488" lon="3.67234">
        <ele>288</ele>
      </trkpt>
      <trkpt lat="43.6349" lon="3.67237">
        <ele>288</ele>
      </trkpt>
      <trkpt lat="43.63493" lon="3.67241">
        <ele>288</ele>
      </trkpt>
      <trkpt lat="43.63495" lon="3.67245">
        <ele>288</ele>
      </trkpt>
      <trkpt lat="43.63497" lon="3.67249">
        <ele>288</ele>
      </trkpt>
      <trkpt lat="43.635" lon="3.67253">
        <ele>288</ele>
      </trkpt>
      <trkpt lat="43.63502" lon="3.67258">
        <ele>288</ele>
      </trkpt>
      <trkpt lat="43.63504" lon="3.67262">
        <ele>288</ele>
      </trkpt>
      <trkpt lat="43.63507" lon="3.67267">
        <ele>287</ele>
      </trkpt>
      <trkpt lat="43.6351" lon="3.67271">
        <ele>287</ele>
      </trkpt>
      <trkpt lat="43.63512" lon="3.67276">
        <ele>287</ele>
      </trkpt>
      <trkpt lat="43.63514" lon="3.67281">
        <ele>287</ele>
      </trkpt>
      <trkpt lat="43.63516" lon="3.67285">
        <ele>287</ele>
      </trkpt>
      <trkpt lat="43.63519" lon="3.6729">
        <ele>287</ele>
      </trkpt>
      <trkpt lat="43.63521" lon="3.67295">
        <ele>287</ele>
      </trkpt>
      <trkpt lat="43.63524" lon="3.67301">
        <ele>287</ele>
      </trkpt>
      <trkpt lat="43.63527" lon="3.67306">
        <ele>287</ele>
      </trkpt>
      <trkpt lat="43.63529" lon="3.67312">
        <ele>287</ele>
      </trkpt>
      <trkpt lat="43.63532" lon="3.67318">
        <ele>286</ele>
      </trkpt>
      <trkpt lat="43.63535" lon="3.67323">
        <ele>286</ele>
      </trkpt>
      <trkpt lat="43.63539" lon="3.67329">
        <ele>286</ele>
      </trkpt>
      <trkpt lat="43.63542" lon="3.67334">
        <ele>286</ele>
      </trkpt>
      <trkpt lat="43.63545" lon="3.67339">
        <ele>286</ele>
      </trkpt>
      <trkpt lat="43.63549" lon="3.67343">
        <ele>286</ele>
      </trkpt>
      <trkpt lat="43.63553" lon="3.67347">
        <ele>286</ele>
      </trkpt>
      <trkpt lat="43.63558" lon="3.6735">
        <ele>286</ele>
      </trkpt>
      <trkpt lat="43.63563" lon="3.67353">
        <ele>286</ele>
      </trkpt>
      <trkpt lat="43.63569" lon="3.67354">
        <ele>286</ele>
      </trkpt>
      <trkpt lat="43.63575" lon="3.67355">
        <ele>284</ele>
      </trkpt>
      <trkpt lat="43.63581" lon="3.67355">
        <ele>284</ele>
      </trkpt>
      <trkpt lat="43.63588" lon="3.67356">
        <ele>284</ele>
      </trkpt>
      <trkpt lat="43.63595" lon="3.67358">
        <ele>284</ele>
      </trkpt>
      <trkpt lat="43.63601" lon="3.67359">
        <ele>284</ele>
      </trkpt>
      <trkpt lat="43.63608" lon="3.67361">
        <ele>284</ele>
      </trkpt>
      <trkpt lat="43.63615" lon="3.67364">
        <ele>284</ele>
      </trkpt>
      <trkpt lat="43.63622" lon="3.67367">
        <ele>284</ele>
      </trkpt>
      <trkpt lat="43.63629" lon="3.67372">
        <ele>284</ele>
      </trkpt>
      <trkpt lat="43.63635" lon="3.67377">
        <ele>281</ele>
      </trkpt>
      <trkpt lat="43.63641" lon="3.67381">
        <ele>281</ele>
      </trkpt>
      <trkpt lat="43.63646" lon="3.67385">
        <ele>281</ele>
      </trkpt>
      <trkpt lat="43.63651" lon="3.67389">
        <ele>281</ele>
      </trkpt>
      <trkpt lat="43.63656" lon="3.67393">
        <ele>281</ele>
      </trkpt>
      <trkpt lat="43.63661" lon="3.67396">
        <ele>281</ele>
      </trkpt>
      <trkpt lat="43.63666" lon="3.674">
        <ele>281</ele>
      </trkpt>
      <trkpt lat="43.6367" lon="3.67403">
        <ele>281</ele>
      </trkpt>
      <trkpt lat="43.63674" lon="3.67407">
        <ele>281</ele>
      </trkpt>
      <trkpt lat="43.63679" lon="3.6741">
        <ele>281</ele>
      </trkpt>
      <trkpt lat="43.63682" lon="3.67413">
        <ele>281</ele>
      </trkpt>
      <trkpt lat="43.63686" lon="3.67416">
        <ele>280</ele>
      </trkpt>
      <trkpt lat="43.63689" lon="3.67419">
        <ele>280</ele>
      </trkpt>
      <trkpt lat="43.63693" lon="3.67423">
        <ele>280</ele>
      </trkpt>
      <trkpt lat="43.63696" lon="3.67428">
        <ele>280</ele>
      </trkpt>
      <trkpt lat="43.63698" lon="3.67432">
        <ele>280</ele>
      </trkpt>
      <trkpt lat="43.63701" lon="3.67438">
        <ele>280</ele>
      </trkpt>
      <trkpt lat="43.63705" lon="3.67443">
        <ele>280</ele>
      </trkpt>
      <trkpt lat="43.63708" lon="3.67448">
        <ele>280</ele>
      </trkpt>
      <trkpt lat="43.63711" lon="3.67453">
        <ele>280</ele>
      </trkpt>
      <trkpt lat="43.63714" lon="3.67458">
        <ele>280</ele>
      </trkpt>
      <trkpt lat="43.63717" lon="3.67464">
        <ele>279</ele>
      </trkpt>
      <trkpt lat="43.6372" lon="3.67469">
        <ele>279</ele>
      </trkpt>
      <trkpt lat="43.63723" lon="3.67475">
        <ele>279</ele>
      </trkpt>
      <trkpt lat="43.63725" lon="3.6748">
        <ele>279</ele>
      </trkpt>
      <trkpt lat="43.63728" lon="3.67486">
        <ele>279</ele>
      </trkpt>
      <trkpt lat="43.63731" lon="3.67491">
        <ele>279</ele>
      </trkpt>
      <trkpt lat="43.63733" lon="3.67496">
        <ele>279</ele>
      </trkpt>
      <trkpt lat="43.63736" lon="3.67501">
        <ele>279</ele>
      </trkpt>
      <trkpt lat="43.63739" lon="3.67508">
        <ele>279</ele>
      </trkpt>
      <trkpt lat="43.63742" lon="3.67514">
        <ele>279</ele>
      </trkpt>
      <trkpt lat="43.63745" lon="3.6752">
        <ele>279</ele>
      </trkpt>
      <trkpt lat="43.63748" lon="3.67526">
        <ele>279</ele>
      </trkpt>
      <trkpt lat="43.63751" lon="3.67533">
        <ele>279</ele>
      </trkpt>
      <trkpt lat="43.63755" lon="3.67539">
        <ele>279</ele>
      </trkpt>
      <trkpt lat="43.63759" lon="3.67545">
        <ele>279</ele>
      </trkpt>
      <trkpt lat="43.63764" lon="3.6755">
        <ele>279</ele>
      </trkpt>
      <trkpt lat="43.63769" lon="3.67555">
        <ele>279</ele>
      </trkpt>
      <trkpt lat="43.63774" lon="3.67559">
        <ele>279</ele>
      </trkpt>
      <trkpt lat="43.6378" lon="3.67562">
        <ele>279</ele>
      </trkpt>
      <trkpt lat="43.63785" lon="3.67565">
        <ele>279</ele>
      </trkpt>
      <trkpt lat="43.6379" lon="3.67568">
        <ele>276</ele>
      </trkpt>
      <trkpt lat="43.63796" lon="3.67572">
        <ele>276</ele>
      </trkpt>
      <trkpt lat="43.638" lon="3.67576">
        <ele>276</ele>
      </trkpt>
      <trkpt lat="43.63804" lon="3.67581">
        <ele>276</ele>
      </trkpt>
      <trkpt lat="43.63807" lon="3.67587">
        <ele>276</ele>
      </trkpt>
      <trkpt lat="43.6381" lon="3.67594">
        <ele>276</ele>
      </trkpt>
      <trkpt lat="43.63812" lon="3.676">
        <ele>276</ele>
      </trkpt>
      <trkpt lat="43.63815" lon="3.67607">
        <ele>276</ele>
      </trkpt>
      <trkpt lat="43.63819" lon="3.67612">
        <ele>276</ele>
      </trkpt>
      <trkpt lat="43.63822" lon="3.67617">
        <ele>276</ele>
      </trkpt>
      <trkpt lat="43.63826" lon="3.67622">
        <ele>273</ele>
      </trkpt>
      <trkpt lat="43.6383" lon="3.67626">
        <ele>273</ele>
      </trkpt>
      <trkpt lat="43.63834" lon="3.67629">
        <ele>273</ele>
      </trkpt>
      <trkpt lat="43.63838" lon="3.67633">
        <ele>273</ele>
      </trkpt>
      <trkpt lat="43.63842" lon="3.67636">
        <ele>273</ele>
      </trkpt>
      <trkpt lat="43.63846" lon="3.67639">
        <ele>273</ele>
      </trkpt>
      <trkpt lat="43.6385" lon="3.67642">
        <ele>273</ele>
      </trkpt>
      <trkpt lat="43.63855" lon="3.67644">
        <ele>273</ele>
      </trkpt>
      <trkpt lat="43.6386" lon="3.67646">
        <ele>273</ele>
      </trkpt>
      <trkpt lat="43.63864" lon="3.67649">
        <ele>273</ele>
      </trkpt>
      <trkpt lat="43.63868" lon="3.67651">
        <ele>272</ele>
      </trkpt>
      <trkpt lat="43.63873" lon="3.67653">
        <ele>272</ele>
      </trkpt>
      <trkpt lat="43.63878" lon="3.67655">
        <ele>272</ele>
      </trkpt>
      <trkpt lat="43.63883" lon="3.67658">
        <ele>272</ele>
      </trkpt>
      <trkpt lat="43.63887" lon="3.6766">
        <ele>272</ele>
      </trkpt>
      <trkpt lat="43.63893" lon="3.67662">
        <ele>272</ele>
      </trkpt>
      <trkpt lat="43.63898" lon="3.67663">
        <ele>272</ele>
      </trkpt>
      <trkpt lat="43.63903" lon="3.67665">
        <ele>272</ele>
      </trkpt>
      <trkpt lat="43.63908" lon="3.67666">
        <ele>272</ele>
      </trkpt>
      <trkpt lat="43.63913" lon="3.67666">
        <ele>272</ele>
      </trkpt>
      <trkpt lat="43.63918" lon="3.67665">
        <ele>270</ele>
      </trkpt>
      <trkpt lat="43.63923" lon="3.67664">
        <ele>270</ele>
      </trkpt>
      <trkpt lat="43.63927" lon="3.67663">
        <ele>270</ele>
      </trkpt>
      <trkpt lat="43.63932" lon="3.67661">
        <ele>270</ele>
      </trkpt>
      <trkpt lat="43.63936" lon="3.67659">
        <ele>270</ele>
      </trkpt>
      <trkpt lat="43.63941" lon="3.67656">
        <ele>270</ele>
      </trkpt>
      <trkpt lat="43.63945" lon="3.67655">
        <ele>270</ele>
      </trkpt>
      <trkpt lat="43.6395" lon="3.67653">
        <ele>270</ele>
      </trkpt>
      <trkpt lat="43.63953" lon="3.67651">
        <ele>270</ele>
      </trkpt>
      <trkpt lat="43.63958" lon="3.67649">
        <ele>270</ele>
      </trkpt>
      <trkpt lat="43.63962" lon="3.67647">
        <ele>270</ele>
      </trkpt>
      <trkpt lat="43.63966" lon="3.67644">
        <ele>270</ele>
      </trkpt>
      <trkpt lat="43.6397" lon="3.67642">
        <ele>270</ele>
      </trkpt>
      <trkpt lat="43.63974" lon="3.6764">
        <ele>270</ele>
      </trkpt>
      <trkpt lat="43.63978" lon="3.67638">
        <ele>270</ele>
      </trkpt>
      <trkpt lat="43.63982" lon="3.67636">
        <ele>270</ele>
      </trkpt>
      <trkpt lat="43.63986" lon="3.67634">
        <ele>270</ele>
      </trkpt>
      <trkpt lat="43.6399" lon="3.67632">
        <ele>270</ele>
      </trkpt>
      <trkpt lat="43.63994" lon="3.6763">
        <ele>270</ele>
      </trkpt>
      <trkpt lat="43.63998" lon="3.67628">
        <ele>270</ele>
      </trkpt>
      <trkpt lat="43.64002" lon="3.67626">
        <ele>270</ele>
      </trkpt>
      <trkpt lat="43.64006" lon="3.67623">
        <ele>270</ele>
      </trkpt>
      <trkpt lat="43.6401" lon="3.67621">
        <ele>270</ele>
      </trkpt>
      <trkpt lat="43.64014" lon="3.67619">
        <ele>270</ele>
      </trkpt>
      <trkpt lat="43.64017" lon="3.67617">
        <ele>270</ele>
      </trkpt>
      <trkpt lat="43.6402" lon="3.67615">
        <ele>270</ele>
      </trkpt>
      <trkpt lat="43.64024" lon="3.67613">
        <ele>270</ele>
      </trkpt>
      <trkpt lat="43.64027" lon="3.6761">
        <ele>270</ele>
      </trkpt>
      <trkpt lat="43.64031" lon="3.67609">
        <ele>270</ele>
      </trkpt>
      <trkpt lat="43.64034" lon="3.67607">
        <ele>270</ele>
      </trkpt>
      <trkpt lat="43.64037" lon="3.67606">
        <ele>271</ele>
      </trkpt>
      <trkpt lat="43.6404" lon="3.67605">
        <ele>271</ele>
      </trkpt>
      <trkpt lat="43.64044" lon="3.67604">
        <ele>271</ele>
      </trkpt>
      <trkpt lat="43.64048" lon="3.67603">
        <ele>271</ele>
      </trkpt>
      <trkpt lat="43.64052" lon="3.67602">
        <ele>271</ele>
      </trkpt>
      <trkpt lat="43.64055" lon="3.67602">
        <ele>271</ele>
      </trkpt>
      <trkpt lat="43.64059" lon="3.67601">
        <ele>271</ele>
      </trkpt>
      <trkpt lat="43.64064" lon="3.67601">
        <ele>271</ele>
      </trkpt>
      <trkpt lat="43.64068" lon="3.67601">
        <ele>271</ele>
      </trkpt>
      <trkpt lat="43.64072" lon="3.67601">
        <ele>271</ele>
      </trkpt>
      <trkpt lat="43.64076" lon="3.67601">
        <ele>271</ele>
      </trkpt>
      <trkpt lat="43.6408" lon="3.67601">
        <ele>271</ele>
      </trkpt>
      <trkpt lat="43.64085" lon="3.67601">
        <ele>271</ele>
      </trkpt>
      <trkpt lat="43.64088" lon="3.67602">
        <ele>271</ele>
      </trkpt>
      <trkpt lat="43.64092" lon="3.67602">
        <ele>271</ele>
      </trkpt>
      <trkpt lat="43.64096" lon="3.67602">
        <ele>271</ele>
      </trkpt>
      <trkpt lat="43.641" lon="3.67601">
        <ele>271</ele>
      </trkpt>
      <trkpt lat="43.64104" lon="3.67602">
        <ele>271</ele>
      </trkpt>
      <trkpt lat="43.64108" lon="3.67602">
        <ele>271</ele>
      </trkpt>
      <trkpt lat="43.64111" lon="3.67602">
        <ele>271</ele>
      </trkpt>
      <trkpt lat="43.64115" lon="3.67602">
        <ele>271</ele>
      </trkpt>
      <trkpt lat="43.64119" lon="3.67602">
        <ele>271</ele>
      </trkpt>
      <trkpt lat="43.64123" lon="3.67603">
        <ele>271</ele>
      </trkpt>
      <trkpt lat="43.64126" lon="3.67604">
        <ele>271</ele>
      </trkpt>
      <trkpt lat="43.64131" lon="3.67604">
        <ele>271</ele>
      </trkpt>
      <trkpt lat="43.64135" lon="3.67605">
        <ele>271</ele>
      </trkpt>
      <trkpt lat="43.64139" lon="3.67605">
        <ele>271</ele>
      </trkpt>
      <trkpt lat="43.64142" lon="3.67606">
        <ele>271</ele>
      </trkpt>
      <trkpt lat="43.64146" lon="3.67607">
        <ele>271</ele>
      </trkpt>
      <trkpt lat="43.6415" lon="3.67608">
        <ele>271</ele>
      </trkpt>
      <trkpt lat="43.64154" lon="3.67609">
        <ele>272</ele>
      </trkpt>
      <trkpt lat="43.64157" lon="3.6761">
        <ele>272</ele>
      </trkpt>
      <trkpt lat="43.64161" lon="3.67611">
        <ele>272</ele>
      </trkpt>
      <trkpt lat="43.64165" lon="3.67612">
        <ele>272</ele>
      </trkpt>
      <trkpt lat="43.64169" lon="3.67613">
        <ele>272</ele>
      </trkpt>
      <trkpt lat="43.64173" lon="3.67614">
        <ele>272</ele>
      </trkpt>
      <trkpt lat="43.64177" lon="3.67615">
        <ele>272</ele>
      </trkpt>
      <trkpt lat="43.6418" lon="3.67616">
        <ele>272</ele>
      </trkpt>
      <trkpt lat="43.64184" lon="3.67617">
        <ele>272</ele>
      </trkpt>
      <trkpt lat="43.64188" lon="3.67618">
        <ele>272</ele>
      </trkpt>
      <trkpt lat="43.64192" lon="3.6762">
        <ele>273</ele>
      </trkpt>
      <trkpt lat="43.64195" lon="3.67621">
        <ele>273</ele>
      </trkpt>
      <trkpt lat="43.64199" lon="3.67622">
        <ele>273</ele>
      </trkpt>
      <trkpt lat="43.64202" lon="3.67624">
        <ele>273</ele>
      </trkpt>
      <trkpt lat="43.64207" lon="3.67625">
        <ele>273</ele>
      </trkpt>
      <trkpt lat="43.6421" lon="3.67626">
        <ele>273</ele>
      </trkpt>
      <trkpt lat="43.64214" lon="3.67628">
        <ele>273</ele>
      </trkpt>
      <trkpt lat="43.64217" lon="3.67629">
        <ele>273</ele>
      </trkpt>
      <trkpt lat="43.64221" lon="3.67631">
        <ele>273</ele>
      </trkpt>
      <trkpt lat="43.64225" lon="3.67633">
        <ele>273</ele>
      </trkpt>
      <trkpt lat="43.64228" lon="3.67635">
        <ele>273</ele>
      </trkpt>
      <trkpt lat="43.64232" lon="3.67637">
        <ele>273</ele>
      </trkpt>
      <trkpt lat="43.64236" lon="3.67639">
        <ele>273</ele>
      </trkpt>
      <trkpt lat="43.64239" lon="3.6764">
        <ele>273</ele>
      </trkpt>
      <trkpt lat="43.64242" lon="3.67642">
        <ele>273</ele>
      </trkpt>
      <trkpt lat="43.64245" lon="3.67643">
        <ele>273</ele>
      </trkpt>
      <trkpt lat="43.64248" lon="3.67644">
        <ele>273</ele>
      </trkpt>
      <trkpt lat="43.64251" lon="3.67646">
        <ele>273</ele>
      </trkpt>
      <trkpt lat="43.64254" lon="3.67648">
        <ele>273</ele>
      </trkpt>
      <trkpt lat="43.64257" lon="3.6765">
        <ele>273</ele>
      </trkpt>
      <trkpt lat="43.6426" lon="3.67651">
        <ele>273</ele>
      </trkpt>
      <trkpt lat="43.64263" lon="3.67653">
        <ele>273</ele>
      </trkpt>
      <trkpt lat="43.64266" lon="3.67654">
        <ele>273</ele>
      </trkpt>
      <trkpt lat="43.6427" lon="3.67655">
        <ele>273</ele>
      </trkpt>
      <trkpt lat="43.64273" lon="3.67656">
        <ele>273</ele>
      </trkpt>
      <trkpt lat="43.64276" lon="3.67656">
        <ele>273</ele>
      </trkpt>
      <trkpt lat="43.6428" lon="3.67657">
        <ele>273</ele>
      </trkpt>
      <trkpt lat="43.64283" lon="3.67658">
        <ele>273</ele>
      </trkpt>
      <trkpt lat="43.64287" lon="3.67658">
        <ele>273</ele>
      </trkpt>
      <trkpt lat="43.64291" lon="3.67659">
        <ele>273</ele>
      </trkpt>
      <trkpt lat="43.64294" lon="3.67659">
        <ele>274</ele>
      </trkpt>
      <trkpt lat="43.64298" lon="3.67659">
        <ele>274</ele>
      </trkpt>
      <trkpt lat="43.64301" lon="3.67659">
        <ele>274</ele>
      </trkpt>
      <trkpt lat="43.64305" lon="3.6766">
        <ele>274</ele>
      </trkpt>
      <trkpt lat="43.64308" lon="3.6766">
        <ele>274</ele>
      </trkpt>
      <trkpt lat="43.64312" lon="3.67661">
        <ele>274</ele>
      </trkpt>
      <trkpt lat="43.64316" lon="3.67661">
        <ele>274</ele>
      </trkpt>
      <trkpt lat="43.6432" lon="3.67662">
        <ele>274</ele>
      </trkpt>
      <trkpt lat="43.64323" lon="3.67662">
        <ele>274</ele>
      </trkpt>
      <trkpt lat="43.64327" lon="3.67662">
        <ele>274</ele>
      </trkpt>
      <trkpt lat="43.6433" lon="3.67663">
        <ele>275</ele>
      </trkpt>
      <trkpt lat="43.64334" lon="3.67663">
        <ele>275</ele>
      </trkpt>
      <trkpt lat="43.64337" lon="3.67664">
        <ele>275</ele>
      </trkpt>
      <trkpt lat="43.64341" lon="3.67664">
        <ele>275</ele>
      </trkpt>
      <trkpt lat="43.64344" lon="3.67665">
        <ele>275</ele>
      </trkpt>
      <trkpt lat="43.64348" lon="3.67666">
        <ele>275</ele>
      </trkpt>
      <trkpt lat="43.64351" lon="3.67666">
        <ele>275</ele>
      </trkpt>
      <trkpt lat="43.64355" lon="3.67667">
        <ele>275</ele>
      </trkpt>
      <trkpt lat="43.64359" lon="3.67667">
        <ele>275</ele>
      </trkpt>
      <trkpt lat="43.64362" lon="3.67668">
        <ele>275</ele>
      </trkpt>
      <trkpt lat="43.64367" lon="3.67669">
        <ele>275</ele>
      </trkpt>
      <trkpt lat="43.64371" lon="3.6767">
        <ele>275</ele>
      </trkpt>
      <trkpt lat="43.64376" lon="3.6767">
        <ele>275</ele>
      </trkpt>
      <trkpt lat="43.6438" lon="3.67671">
        <ele>275</ele>
      </trkpt>
      <trkpt lat="43.64385" lon="3.67671">
        <ele>275</ele>
      </trkpt>
      <trkpt lat="43.6439" lon="3.67671">
        <ele>275</ele>
      </trkpt>
      <trkpt lat="43.64395" lon="3.67672">
        <ele>275</ele>
      </trkpt>
      <trkpt lat="43.64399" lon="3.67672">
        <ele>275</ele>
      </trkpt>
      <trkpt lat="43.64405" lon="3.67672">
        <ele>275</ele>
      </trkpt>
      <trkpt lat="43.64409" lon="3.67672">
        <ele>275</ele>
      </trkpt>
      <trkpt lat="43.64413" lon="3.67672">
        <ele>273</ele>
      </trkpt>
      <trkpt lat="43.64416" lon="3.67672">
        <ele>273</ele>
      </trkpt>
      <trkpt lat="43.64418" lon="3.67672">
        <ele>273</ele>
      </trkpt>
      <trkpt lat="43.64421" lon="3.67672">
        <ele>273</ele>
      </trkpt>
      <trkpt lat="43.64421" lon="3.6767">
        <ele>273</ele>
      </trkpt>
      <trkpt lat="43.64421" lon="3.67667">
        <ele>273</ele>
      </trkpt>
      <trkpt lat="43.64419" lon="3.67664">
        <ele>271</ele>
      </trkpt>
      <trkpt lat="43.64418" lon="3.67658">
        <ele>271</ele>
      </trkpt>
      <trkpt lat="43.64419" lon="3.67655">
        <ele>271</ele>
      </trkpt>
      <trkpt lat="43.64419" lon="3.67651">
        <ele>271</ele>
      </trkpt>
      <trkpt lat="43.64419" lon="3.67647">
        <ele>271</ele>
      </trkpt>
      <trkpt lat="43.6442" lon="3.67644">
        <ele>271</ele>
      </trkpt>
      <trkpt lat="43.64419" lon="3.67641">
        <ele>271</ele>
      </trkpt>
      <trkpt lat="43.64418" lon="3.6764">
        <ele>270</ele>
      </trkpt>
      <trkpt lat="43.64417" lon="3.67626">
        <ele>270</ele>
      </trkpt>
      <trkpt lat="43.64417" lon="3.67623">
        <ele>270</ele>
      </trkpt>
      <trkpt lat="43.64417" lon="3.67619">
        <ele>270</ele>
      </trkpt>
      <trkpt lat="43.64416" lon="3.67615">
        <ele>270</ele>
      </trkpt>
      <trkpt lat="43.64416" lon="3.6761">
        <ele>270</ele>
      </trkpt>
      <trkpt lat="43.64416" lon="3.67607">
        <ele>270</ele>
      </trkpt>
      <trkpt lat="43.64416" lon="3.67602">
        <ele>270</ele>
      </trkpt>
      <trkpt lat="43.64416" lon="3.67598">
        <ele>270</ele>
      </trkpt>
      <trkpt lat="43.64415" lon="3.67594">
        <ele>270</ele>
      </trkpt>
      <trkpt lat="43.64414" lon="3.6759">
        <ele>270</ele>
      </trkpt>
      <trkpt lat="43.64414" lon="3.67586">
        <ele>269</ele>
      </trkpt>
      <trkpt lat="43.64412" lon="3.67582">
        <ele>269</ele>
      </trkpt>
      <trkpt lat="43.64411" lon="3.67577">
        <ele>269</ele>
      </trkpt>
      <trkpt lat="43.64411" lon="3.67571">
        <ele>269</ele>
      </trkpt>
      <trkpt lat="43.6441" lon="3.67566">
        <ele>269</ele>
      </trkpt>
      <trkpt lat="43.64408" lon="3.6756">
        <ele>269</ele>
      </trkpt>
      <trkpt lat="43.64406" lon="3.67555">
        <ele>269</ele>
      </trkpt>
      <trkpt lat="43.64405" lon="3.67549">
        <ele>269</ele>
      </trkpt>
      <trkpt lat="43.64402" lon="3.67544">
        <ele>269</ele>
      </trkpt>
      <trkpt lat="43.64399" lon="3.67539">
        <ele>269</ele>
      </trkpt>
      <trkpt lat="43.64397" lon="3.67533">
        <ele>267</ele>
      </trkpt>
      <trkpt lat="43.64394" lon="3.67527">
        <ele>267</ele>
      </trkpt>
      <trkpt lat="43.64392" lon="3.67521">
        <ele>267</ele>
      </trkpt>
      <trkpt lat="43.6439" lon="3.67515">
        <ele>267</ele>
      </trkpt>
      <trkpt lat="43.64389" lon="3.67509">
        <ele>267</ele>
      </trkpt>
      <trkpt lat="43.64388" lon="3.67503">
        <ele>267</ele>
      </trkpt>
      <trkpt lat="43.64387" lon="3.67498">
        <ele>267</ele>
      </trkpt>
      <trkpt lat="43.64386" lon="3.67493">
        <ele>267</ele>
      </trkpt>
      <trkpt lat="43.64385" lon="3.67488">
        <ele>267</ele>
      </trkpt>
      <trkpt lat="43.64385" lon="3.67483">
        <ele>267</ele>
      </trkpt>
      <trkpt lat="43.64385" lon="3.67477">
        <ele>265</ele>
      </trkpt>
      <trkpt lat="43.64385" lon="3.67471">
        <ele>265</ele>
      </trkpt>
      <trkpt lat="43.64386" lon="3.67465">
        <ele>265</ele>
      </trkpt>
      <trkpt lat="43.64387" lon="3.67459">
        <ele>265</ele>
      </trkpt>
      <trkpt lat="43.64389" lon="3.67452">
        <ele>265</ele>
      </trkpt>
      <trkpt lat="43.64392" lon="3.67446">
        <ele>265</ele>
      </trkpt>
      <trkpt lat="43.64393" lon="3.67439">
        <ele>265</ele>
      </trkpt>
      <trkpt lat="43.64395" lon="3.67433">
        <ele>265</ele>
      </trkpt>
      <trkpt lat="43.64396" lon="3.67427">
        <ele>265</ele>
      </trkpt>
      <trkpt lat="43.64397" lon="3.6742">
        <ele>265</ele>
      </trkpt>
      <trkpt lat="43.64398" lon="3.67414">
        <ele>263</ele>
      </trkpt>
      <trkpt lat="43.64399" lon="3.67409">
        <ele>263</ele>
      </trkpt>
      <trkpt lat="43.64399" lon="3.67404">
        <ele>263</ele>
      </trkpt>
      <trkpt lat="43.644" lon="3.674">
        <ele>263</ele>
      </trkpt>
      <trkpt lat="43.64401" lon="3.67397">
        <ele>263</ele>
      </trkpt>
      <trkpt lat="43.64403" lon="3.67394">
        <ele>263</ele>
      </trkpt>
      <trkpt lat="43.64405" lon="3.6739">
        <ele>263</ele>
      </trkpt>
      <trkpt lat="43.64407" lon="3.67386">
        <ele>263</ele>
      </trkpt>
      <trkpt lat="43.6441" lon="3.67383">
        <ele>263</ele>
      </trkpt>
      <trkpt lat="43.64413" lon="3.6738">
        <ele>263</ele>
      </trkpt>
      <trkpt lat="43.64417" lon="3.67377">
        <ele>260</ele>
      </trkpt>
      <trkpt lat="43.64421" lon="3.67375">
        <ele>260</ele>
      </trkpt>
      <trkpt lat="43.64425" lon="3.67372">
        <ele>260</ele>
      </trkpt>
      <trkpt lat="43.64429" lon="3.67369">
        <ele>260</ele>
      </trkpt>
      <trkpt lat="43.64434" lon="3.67366">
        <ele>260</ele>
      </trkpt>
      <trkpt lat="43.64439" lon="3.67362">
        <ele>260</ele>
      </trkpt>
      <trkpt lat="43.64444" lon="3.67358">
        <ele>260</ele>
      </trkpt>
      <trkpt lat="43.6445" lon="3.67354">
        <ele>260</ele>
      </trkpt>
      <trkpt lat="43.64456" lon="3.67348">
        <ele>260</ele>
      </trkpt>
      <trkpt lat="43.64462" lon="3.67344">
        <ele>260</ele>
      </trkpt>
      <trkpt lat="43.64468" lon="3.6734">
        <ele>256</ele>
      </trkpt>
      <trkpt lat="43.64475" lon="3.67338">
        <ele>256</ele>
      </trkpt>
      <trkpt lat="43.64481" lon="3.67334">
        <ele>256</ele>
      </trkpt>
      <trkpt lat="43.64488" lon="3.6733">
        <ele>256</ele>
      </trkpt>
      <trkpt lat="43.64495" lon="3.67325">
        <ele>256</ele>
      </trkpt>
      <trkpt lat="43.64499" lon="3.67319">
        <ele>256</ele>
      </trkpt>
      <trkpt lat="43.64505" lon="3.67312">
        <ele>256</ele>
      </trkpt>
      <trkpt lat="43.64509" lon="3.67305">
        <ele>256</ele>
      </trkpt>
      <trkpt lat="43.64514" lon="3.67298">
        <ele>256</ele>
      </trkpt>
      <trkpt lat="43.64519" lon="3.67291">
        <ele>256</ele>
      </trkpt>
      <trkpt lat="43.64523" lon="3.67282">
        <ele>253</ele>
      </trkpt>
      <trkpt lat="43.64527" lon="3.67273">
        <ele>253</ele>
      </trkpt>
      <trkpt lat="43.64531" lon="3.67265">
        <ele>253</ele>
      </trkpt>
      <trkpt lat="43.64535" lon="3.67257">
        <ele>253</ele>
      </trkpt>
      <trkpt lat="43.64537" lon="3.67249">
        <ele>253</ele>
      </trkpt>
      <trkpt lat="43.64539" lon="3.6724">
        <ele>253</ele>
      </trkpt>
      <trkpt lat="43.6454" lon="3.67232">
        <ele>253</ele>
      </trkpt>
      <trkpt lat="43.64542" lon="3.67223">
        <ele>253</ele>
      </trkpt>
      <trkpt lat="43.64543" lon="3.67216">
        <ele>253</ele>
      </trkpt>
      <trkpt lat="43.64544" lon="3.67208">
        <ele>253</ele>
      </trkpt>
      <trkpt lat="43.64547" lon="3.67201">
        <ele>249</ele>
      </trkpt>
      <trkpt lat="43.64549" lon="3.67194">
        <ele>249</ele>
      </trkpt>
      <trkpt lat="43.64552" lon="3.67189">
        <ele>249</ele>
      </trkpt>
      <trkpt lat="43.64555" lon="3.67183">
        <ele>249</ele>
      </trkpt>
      <trkpt lat="43.6456" lon="3.67178">
        <ele>249</ele>
      </trkpt>
      <trkpt lat="43.64563" lon="3.67172">
        <ele>249</ele>
      </trkpt>
      <trkpt lat="43.64567" lon="3.67165">
        <ele>249</ele>
      </trkpt>
      <trkpt lat="43.6457" lon="3.67158">
        <ele>249</ele>
      </trkpt>
      <trkpt lat="43.64573" lon="3.67151">
        <ele>249</ele>
      </trkpt>
      <trkpt lat="43.64577" lon="3.67144">
        <ele>249</ele>
      </trkpt>
      <trkpt lat="43.64581" lon="3.67137">
        <ele>247</ele>
      </trkpt>
      <trkpt lat="43.64585" lon="3.6713">
        <ele>247</ele>
      </trkpt>
      <trkpt lat="43.64588" lon="3.67121">
        <ele>247</ele>
      </trkpt>
      <trkpt lat="43.64591" lon="3.67114">
        <ele>247</ele>
      </trkpt>
      <trkpt lat="43.64595" lon="3.67106">
        <ele>247</ele>
      </trkpt>
      <trkpt lat="43.64598" lon="3.67098">
        <ele>247</ele>
      </trkpt>
      <trkpt lat="43.64601" lon="3.67091">
        <ele>247</ele>
      </trkpt>
      <trkpt lat="43.64603" lon="3.67085">
        <ele>247</ele>
      </trkpt>
      <trkpt lat="43.64607" lon="3.67079">
        <ele>247</ele>
      </trkpt>
      <trkpt lat="43.64611" lon="3.67072">
        <ele>247</ele>
      </trkpt>
      <trkpt lat="43.64614" lon="3.67066">
        <ele>244</ele>
      </trkpt>
      <trkpt lat="43.64619" lon="3.67059">
        <ele>244</ele>
      </trkpt>
      <trkpt lat="43.64623" lon="3.67052">
        <ele>244</ele>
      </trkpt>
      <trkpt lat="43.64628" lon="3.67046">
        <ele>244</ele>
      </trkpt>
      <trkpt lat="43.64633" lon="3.67041">
        <ele>244</ele>
      </trkpt>
      <trkpt lat="43.64639" lon="3.67037">
        <ele>244</ele>
      </trkpt>
      <trkpt lat="43.64643" lon="3.67031">
        <ele>244</ele>
      </trkpt>
      <trkpt lat="43.64648" lon="3.67026">
        <ele>244</ele>
      </trkpt>
      <trkpt lat="43.64653" lon="3.6702">
        <ele>244</ele>
      </trkpt>
      <trkpt lat="43.64658" lon="3.67016">
        <ele>244</ele>
      </trkpt>
      <trkpt lat="43.64663" lon="3.67013">
        <ele>241</ele>
      </trkpt>
      <trkpt lat="43.64667" lon="3.6701">
        <ele>241</ele>
      </trkpt>
      <trkpt lat="43.64671" lon="3.67007">
        <ele>241</ele>
      </trkpt>
      <trkpt lat="43.64675" lon="3.67005">
        <ele>241</ele>
      </trkpt>
      <trkpt lat="43.64678" lon="3.67003">
        <ele>241</ele>
      </trkpt>
      <trkpt lat="43.64681" lon="3.66999">
        <ele>241</ele>
      </trkpt>
      <trkpt lat="43.64684" lon="3.66996">
        <ele>241</ele>
      </trkpt>
      <trkpt lat="43.64688" lon="3.66992">
        <ele>241</ele>
      </trkpt>
      <trkpt lat="43.64691" lon="3.66989">
        <ele>241</ele>
      </trkpt>
      <trkpt lat="43.64694" lon="3.66984">
        <ele>241</ele>
      </trkpt>
      <trkpt lat="43.64698" lon="3.6698">
        <ele>237</ele>
      </trkpt>
      <trkpt lat="43.647" lon="3.66975">
        <ele>237</ele>
      </trkpt>
      <trkpt lat="43.64703" lon="3.6697">
        <ele>237</ele>
      </trkpt>
      <trkpt lat="43.64705" lon="3.66967">
        <ele>237</ele>
      </trkpt>
      <trkpt lat="43.64708" lon="3.66965">
        <ele>237</ele>
      </trkpt>
      <trkpt lat="43.6471" lon="3.66965">
        <ele>237</ele>
      </trkpt>
      <trkpt lat="43.64712" lon="3.66967">
        <ele>237</ele>
      </trkpt>
      <trkpt lat="43.64715" lon="3.66969">
        <ele>237</ele>
      </trkpt>
      <trkpt lat="43.64718" lon="3.66972">
        <ele>237</ele>
      </trkpt>
      <trkpt lat="43.6472" lon="3.66977">
        <ele>237</ele>
      </trkpt>
      <trkpt lat="43.64722" lon="3.66983">
        <ele>233</ele>
      </trkpt>
      <trkpt lat="43.64723" lon="3.66988">
        <ele>233</ele>
      </trkpt>
      <trkpt lat="43.64724" lon="3.66992">
        <ele>233</ele>
      </trkpt>
      <trkpt lat="43.64726" lon="3.66996">
        <ele>233</ele>
      </trkpt>
      <trkpt lat="43.64728" lon="3.66999">
        <ele>233</ele>
      </trkpt>
      <trkpt lat="43.64728" lon="3.67003">
        <ele>233</ele>
      </trkpt>
      <trkpt lat="43.64729" lon="3.67007">
        <ele>233</ele>
      </trkpt>
      <trkpt lat="43.6473" lon="3.67011">
        <ele>233</ele>
      </trkpt>
      <trkpt lat="43.6473" lon="3.67014">
        <ele>233</ele>
      </trkpt>
      <trkpt lat="43.64731" lon="3.67017">
        <ele>233</ele>
      </trkpt>
      <trkpt lat="43.64731" lon="3.6702">
        <ele>232</ele>
      </trkpt>
      <trkpt lat="43.64731" lon="3.67023">
        <ele>232</ele>
      </trkpt>
      <trkpt lat="43.64732" lon="3.67026">
        <ele>232</ele>
      </trkpt>
      <trkpt lat="43.64732" lon="3.67031">
        <ele>232</ele>
      </trkpt>
      <trkpt lat="43.64732" lon="3.67034">
        <ele>232</ele>
      </trkpt>
      <trkpt lat="43.64732" lon="3.67036">
        <ele>232</ele>
      </trkpt>
      <trkpt lat="43.64732" lon="3.67039">
        <ele>232</ele>
      </trkpt>
      <trkpt lat="43.64732" lon="3.67042">
        <ele>232</ele>
      </trkpt>
      <trkpt lat="43.64732" lon="3.67045">
        <ele>232</ele>
      </trkpt>
      <trkpt lat="43.64732" lon="3.67047">
        <ele>232</ele>
      </trkpt>
      <trkpt lat="43.64732" lon="3.6705">
        <ele>232</ele>
      </trkpt>
      <trkpt lat="43.64732" lon="3.67053">
        <ele>232</ele>
      </trkpt>
      <trkpt lat="43.64732" lon="3.67056">
        <ele>232</ele>
      </trkpt>
      <trkpt lat="43.64731" lon="3.67058">
        <ele>232</ele>
      </trkpt>
      <trkpt lat="43.6473" lon="3.67062">
        <ele>232</ele>
      </trkpt>
      <trkpt lat="43.6473" lon="3.67065">
        <ele>232</ele>
      </trkpt>
      <trkpt lat="43.64729" lon="3.6707">
        <ele>232</ele>
      </trkpt>
      <trkpt lat="43.64729" lon="3.67075">
        <ele>232</ele>
      </trkpt>
      <trkpt lat="43.64729" lon="3.6708">
        <ele>232</ele>
      </trkpt>
      <trkpt lat="43.6473" lon="3.67084">
        <ele>232</ele>
      </trkpt>
      <trkpt lat="43.6473" lon="3.67088">
        <ele>232</ele>
      </trkpt>
      <trkpt lat="43.6473" lon="3.67092">
        <ele>232</ele>
      </trkpt>
      <trkpt lat="43.64731" lon="3.67096">
        <ele>233</ele>
      </trkpt>
      <trkpt lat="43.64732" lon="3.67099">
        <ele>233</ele>
      </trkpt>
      <trkpt lat="43.64731" lon="3.67103">
        <ele>233</ele>
      </trkpt>
      <trkpt lat="43.64731" lon="3.67107">
        <ele>233</ele>
      </trkpt>
      <trkpt lat="43.64731" lon="3.67111">
        <ele>233</ele>
      </trkpt>
      <trkpt lat="43.6473" lon="3.67116">
        <ele>234</ele>
      </trkpt>
      <trkpt lat="43.6473" lon="3.6712">
        <ele>234</ele>
      </trkpt>
      <trkpt lat="43.6473" lon="3.67123">
        <ele>234</ele>
      </trkpt>
      <trkpt lat="43.6473" lon="3.67127">
        <ele>234</ele>
      </trkpt>
      <trkpt lat="43.64729" lon="3.67132">
        <ele>234</ele>
      </trkpt>
      <trkpt lat="43.64728" lon="3.67135">
        <ele>235</ele>
      </trkpt>
      <trkpt lat="43.64726" lon="3.67139">
        <ele>235</ele>
      </trkpt>
      <trkpt lat="43.64724" lon="3.67143">
        <ele>235</ele>
      </trkpt>
      <trkpt lat="43.64723" lon="3.67147">
        <ele>235</ele>
      </trkpt>
      <trkpt lat="43.64723" lon="3.67151">
        <ele>235</ele>
      </trkpt>
      <trkpt lat="43.64722" lon="3.67156">
        <ele>236</ele>
      </trkpt>
      <trkpt lat="43.64721" lon="3.6716">
        <ele>236</ele>
      </trkpt>
      <trkpt lat="43.6472" lon="3.67164">
        <ele>236</ele>
      </trkpt>
      <trkpt lat="43.64719" lon="3.67168">
        <ele>236</ele>
      </trkpt>
      <trkpt lat="43.64718" lon="3.67172">
        <ele>236</ele>
      </trkpt>
      <trkpt lat="43.64717" lon="3.67176">
        <ele>237</ele>
      </trkpt>
      <trkpt lat="43.64717" lon="3.6718">
        <ele>237</ele>
      </trkpt>
      <trkpt lat="43.64716" lon="3.67184">
        <ele>237</ele>
      </trkpt>
      <trkpt lat="43.64715" lon="3.67188">
        <ele>237</ele>
      </trkpt>
      <trkpt lat="43.64713" lon="3.67191">
        <ele>237</ele>
      </trkpt>
      <trkpt lat="43.64712" lon="3.67195">
        <ele>238</ele>
      </trkpt>
      <trkpt lat="43.6471" lon="3.67199">
        <ele>238</ele>
      </trkpt>
      <trkpt lat="43.64709" lon="3.67203">
        <ele>238</ele>
      </trkpt>
      <trkpt lat="43.64708" lon="3.67207">
        <ele>238</ele>
      </trkpt>
      <trkpt lat="43.64706" lon="3.67211">
        <ele>238</ele>
      </trkpt>
      <trkpt lat="43.64705" lon="3.67214">
        <ele>239</ele>
      </trkpt>
      <trkpt lat="43.64703" lon="3.67218">
        <ele>239</ele>
      </trkpt>
      <trkpt lat="43.64701" lon="3.67221">
        <ele>239</ele>
      </trkpt>
      <trkpt lat="43.647" lon="3.67225">
        <ele>239</ele>
      </trkpt>
      <trkpt lat="43.64698" lon="3.67229">
        <ele>239</ele>
      </trkpt>
      <trkpt lat="43.64696" lon="3.67232">
        <ele>240</ele>
      </trkpt>
      <trkpt lat="43.64694" lon="3.67237">
        <ele>240</ele>
      </trkpt>
      <trkpt lat="43.64693" lon="3.67241">
        <ele>240</ele>
      </trkpt>
      <trkpt lat="43.64692" lon="3.67245">
        <ele>240</ele>
      </trkpt>
      <trkpt lat="43.64691" lon="3.67248">
        <ele>240</ele>
      </trkpt>
      <trkpt lat="43.6469" lon="3.6725">
        <ele>240</ele>
      </trkpt>
      <trkpt lat="43.6469" lon="3.67252">
        <ele>241</ele>
      </trkpt>
      <trkpt lat="43.64689" lon="3.67255">
        <ele>241</ele>
      </trkpt>
      <trkpt lat="43.64689" lon="3.67257">
        <ele>241</ele>
      </trkpt>
      <trkpt lat="43.64688" lon="3.6726">
        <ele>241</ele>
      </trkpt>
      <trkpt lat="43.64687" lon="3.67265">
        <ele>241</ele>
      </trkpt>
      <trkpt lat="43.64687" lon="3.67268">
        <ele>241</ele>
      </trkpt>
      <trkpt lat="43.64686" lon="3.6727">
        <ele>241</ele>
      </trkpt>
      <trkpt lat="43.64686" lon="3.67273">
        <ele>241</ele>
      </trkpt>
      <trkpt lat="43.64685" lon="3.67276">
        <ele>241</ele>
      </trkpt>
      <trkpt lat="43.64684" lon="3.67278">
        <ele>242</ele>
      </trkpt>
      <trkpt lat="43.64684" lon="3.67281">
        <ele>242</ele>
      </trkpt>
      <trkpt lat="43.64683" lon="3.67283">
        <ele>242</ele>
      </trkpt>
      <trkpt lat="43.64682" lon="3.67285">
        <ele>242</ele>
      </trkpt>
      <trkpt lat="43.6468" lon="3.67288">
        <ele>242</ele>
      </trkpt>
      <trkpt lat="43.64679" lon="3.6729">
        <ele>242</ele>
      </trkpt>
      <trkpt lat="43.64677" lon="3.67292">
        <ele>242</ele>
      </trkpt>
      <trkpt lat="43.64676" lon="3.67294">
        <ele>242</ele>
      </trkpt>
      <trkpt lat="43.64675" lon="3.67296">
        <ele>242</ele>
      </trkpt>
      <trkpt lat="43.64673" lon="3.67298">
        <ele>242</ele>
      </trkpt>
      <trkpt lat="43.64672" lon="3.673">
        <ele>243</ele>
      </trkpt>
      <trkpt lat="43.64671" lon="3.67302">
        <ele>243</ele>
      </trkpt>
      <trkpt lat="43.64669" lon="3.67307">
        <ele>243</ele>
      </trkpt>
      <trkpt lat="43.64668" lon="3.67309">
        <ele>243</ele>
      </trkpt>
      <trkpt lat="43.64667" lon="3.67311">
        <ele>243</ele>
      </trkpt>
      <trkpt lat="43.64667" lon="3.67313">
        <ele>243</ele>
      </trkpt>
      <trkpt lat="43.64666" lon="3.67316">
        <ele>243</ele>
      </trkpt>
      <trkpt lat="43.64665" lon="3.67319">
        <ele>243</ele>
      </trkpt>
      <trkpt lat="43.64665" lon="3.67321">
        <ele>243</ele>
      </trkpt>
      <trkpt lat="43.64664" lon="3.67323">
        <ele>244</ele>
      </trkpt>
      <trkpt lat="43.64663" lon="3.67326">
        <ele>244</ele>
      </trkpt>
      <trkpt lat="43.64662" lon="3.6733">
        <ele>244</ele>
      </trkpt>
      <trkpt lat="43.6466" lon="3.67334">
        <ele>244</ele>
      </trkpt>
      <trkpt lat="43.64658" lon="3.67337">
        <ele>244</ele>
      </trkpt>
      <trkpt lat="43.64658" lon="3.6734">
        <ele>246</ele>
      </trkpt>
      <trkpt lat="43.64658" lon="3.6734">
        <ele>246</ele>
      </trkpt>
      <trkpt lat="43.64653" lon="3.67345">
        <ele>247</ele>
      </trkpt>
      <trkpt lat="43.64652" lon="3.67347">
        <ele>247</ele>
      </trkpt>
      <trkpt lat="43.64651" lon="3.6735">
        <ele>247</ele>
      </trkpt>
      <trkpt lat="43.64649" lon="3.67352">
        <ele>247</ele>
      </trkpt>
      <trkpt lat="43.64648" lon="3.67352">
        <ele>247</ele>
      </trkpt>
      <trkpt lat="43.64644" lon="3.67357">
        <ele>248</ele>
      </trkpt>
      <trkpt lat="43.64644" lon="3.67357">
        <ele>248</ele>
      </trkpt>
      <trkpt lat="43.64643" lon="3.67357">
        <ele>248</ele>
      </trkpt>
      <trkpt lat="43.64627" lon="3.67357">
        <ele>249</ele>
      </trkpt>
      <trkpt lat="43.64629" lon="3.67354">
        <ele>249</ele>
      </trkpt>
      <trkpt lat="43.64631" lon="3.67352">
        <ele>249</ele>
      </trkpt>
      <trkpt lat="43.64639" lon="3.67353">
        <ele>248</ele>
      </trkpt>
      <trkpt lat="43.64637" lon="3.67352">
        <ele>248</ele>
      </trkpt>
      <trkpt lat="43.64634" lon="3.67351">
        <ele>249</ele>
      </trkpt>
      <trkpt lat="43.64634" lon="3.67353">
        <ele>248</ele>
      </trkpt>
      <trkpt lat="43.64637" lon="3.6735">
        <ele>249</ele>
      </trkpt>
      <trkpt lat="43.64639" lon="3.67351">
        <ele>249</ele>
      </trkpt>
      <trkpt lat="43.64632" lon="3.67355">
        <ele>248</ele>
      </trkpt>
      <trkpt lat="43.64641" lon="3.67352">
        <ele>249</ele>
      </trkpt>
      <trkpt lat="43.64642" lon="3.67354">
        <ele>249</ele>
      </trkpt>
      <trkpt lat="43.6463" lon="3.67357">
        <ele>248</ele>
      </trkpt>
      <trkpt lat="43.64644" lon="3.67355">
        <ele>249</ele>
      </trkpt>
      <trkpt lat="43.64627" lon="3.67359">
        <ele>248</ele>
      </trkpt>
      <trkpt lat="43.64646" lon="3.67354">
        <ele>249</ele>
      </trkpt>
      <trkpt lat="43.64627" lon="3.67361">
        <ele>248</ele>
      </trkpt>
      <trkpt lat="43.64648" lon="3.6735">
        <ele>249</ele>
      </trkpt>
      <trkpt lat="43.64627" lon="3.67361">
        <ele>249</ele>
      </trkpt>
      <trkpt lat="43.64663" lon="3.67347">
        <ele>248</ele>
      </trkpt>
      <trkpt lat="43.64663" lon="3.67348">
        <ele>248</ele>
      </trkpt>
      <trkpt lat="43.64662" lon="3.67353">
        <ele>248</ele>
      </trkpt>
      <trkpt lat="43.64661" lon="3.67356">
        <ele>248</ele>
      </trkpt>
      <trkpt lat="43.64661" lon="3.67358">
        <ele>248</ele>
      </trkpt>
      <trkpt lat="43.64649" lon="3.67348">
        <ele>248</ele>
      </trkpt>
      <trkpt lat="43.6466" lon="3.67363">
        <ele>248</ele>
      </trkpt>
      <trkpt lat="43.64658" lon="3.67366">
        <ele>248</ele>
      </trkpt>
      <trkpt lat="43.64649" lon="3.67347">
        <ele>248</ele>
      </trkpt>
      <trkpt lat="43.64658" lon="3.67371">
        <ele>248</ele>
      </trkpt>
      <trkpt lat="43.64657" lon="3.67373">
        <ele>248</ele>
      </trkpt>
      <trkpt lat="43.64655" lon="3.67378">
        <ele>248</ele>
      </trkpt>
      <trkpt lat="43.64652" lon="3.67343">
        <ele>248</ele>
      </trkpt>
      <trkpt lat="43.64655" lon="3.67382">
        <ele>248</ele>
      </trkpt>
      <trkpt lat="43.64654" lon="3.6734">
        <ele>248</ele>
      </trkpt>
      <trkpt lat="43.64656" lon="3.67339">
        <ele>248</ele>
      </trkpt>
      <trkpt lat="43.64655" lon="3.67387">
        <ele>248</ele>
      </trkpt>
      <trkpt lat="43.64658" lon="3.67339">
        <ele>248</ele>
      </trkpt>
      <trkpt lat="43.64655" lon="3.67392">
        <ele>248</ele>
      </trkpt>
      <trkpt lat="43.64661" lon="3.6734">
        <ele>248</ele>
      </trkpt>
      <trkpt lat="43.64655" lon="3.67396">
        <ele>248</ele>
      </trkpt>
      <trkpt lat="43.64655" lon="3.67401">
        <ele>248</ele>
      </trkpt>
      <trkpt lat="43.64655" lon="3.67405">
        <ele>248</ele>
      </trkpt>
      <trkpt lat="43.64654" lon="3.6741">
        <ele>248</ele>
      </trkpt>
      <trkpt lat="43.64661" lon="3.67339">
        <ele>247</ele>
      </trkpt>
      <trkpt lat="43.64654" lon="3.67414">
        <ele>248</ele>
      </trkpt>
      <trkpt lat="43.64653" lon="3.67418">
        <ele>249</ele>
      </trkpt>
      <trkpt lat="43.64653" lon="3.67422">
        <ele>249</ele>
      </trkpt>
      <trkpt lat="43.64653" lon="3.67427">
        <ele>249</ele>
      </trkpt>
      <trkpt lat="43.64652" lon="3.67431">
        <ele>249</ele>
      </trkpt>
      <trkpt lat="43.64652" lon="3.67434">
        <ele>249</ele>
      </trkpt>
      <trkpt lat="43.64651" lon="3.67438">
        <ele>250</ele>
      </trkpt>
      <trkpt lat="43.64651" lon="3.67442">
        <ele>250</ele>
      </trkpt>
      <trkpt lat="43.64651" lon="3.67447">
        <ele>250</ele>
      </trkpt>
      <trkpt lat="43.64651" lon="3.67451">
        <ele>250</ele>
      </trkpt>
      <trkpt lat="43.64652" lon="3.67454">
        <ele>250</ele>
      </trkpt>
      <trkpt lat="43.64653" lon="3.67458">
        <ele>251</ele>
      </trkpt>
      <trkpt lat="43.64654" lon="3.67461">
        <ele>251</ele>
      </trkpt>
      <trkpt lat="43.64654" lon="3.67465">
        <ele>251</ele>
      </trkpt>
      <trkpt lat="43.64655" lon="3.67467">
        <ele>251</ele>
      </trkpt>
      <trkpt lat="43.64655" lon="3.67471">
        <ele>251</ele>
      </trkpt>
      <trkpt lat="43.64655" lon="3.67474">
        <ele>252</ele>
      </trkpt>
      <trkpt lat="43.64655" lon="3.67478">
        <ele>252</ele>
      </trkpt>
      <trkpt lat="43.64654" lon="3.67482">
        <ele>252</ele>
      </trkpt>
      <trkpt lat="43.64654" lon="3.67485">
        <ele>252</ele>
      </trkpt>
      <trkpt lat="43.64653" lon="3.67488">
        <ele>252</ele>
      </trkpt>
      <trkpt lat="43.64653" lon="3.67491">
        <ele>253</ele>
      </trkpt>
      <trkpt lat="43.64652" lon="3.67494">
        <ele>253</ele>
      </trkpt>
      <trkpt lat="43.64651" lon="3.67497">
        <ele>253</ele>
      </trkpt>
      <trkpt lat="43.6465" lon="3.675">
        <ele>253</ele>
      </trkpt>
      <trkpt lat="43.64648" lon="3.67503">
        <ele>253</ele>
      </trkpt>
      <trkpt lat="43.64647" lon="3.67505">
        <ele>253</ele>
      </trkpt>
      <trkpt lat="43.64645" lon="3.67508">
        <ele>253</ele>
      </trkpt>
      <trkpt lat="43.64643" lon="3.6751">
        <ele>253</ele>
      </trkpt>
      <trkpt lat="43.64641" lon="3.67512">
        <ele>253</ele>
      </trkpt>
      <trkpt lat="43.64639" lon="3.67514">
        <ele>255</ele>
      </trkpt>
      <trkpt lat="43.64637" lon="3.67517">
        <ele>255</ele>
      </trkpt>
      <trkpt lat="43.64636" lon="3.67521">
        <ele>255</ele>
      </trkpt>
      <trkpt lat="43.64633" lon="3.67524">
        <ele>255</ele>
      </trkpt>
      <trkpt lat="43.64632" lon="3.67527">
        <ele>255</ele>
      </trkpt>
      <trkpt lat="43.64631" lon="3.6753">
        <ele>256</ele>
      </trkpt>
      <trkpt lat="43.64629" lon="3.67533">
        <ele>256</ele>
      </trkpt>
      <trkpt lat="43.64627" lon="3.67535">
        <ele>256</ele>
      </trkpt>
      <trkpt lat="43.64625" lon="3.67538">
        <ele>256</ele>
      </trkpt>
      <trkpt lat="43.64623" lon="3.67542">
        <ele>256</ele>
      </trkpt>
      <trkpt lat="43.64622" lon="3.67545">
        <ele>257</ele>
      </trkpt>
      <trkpt lat="43.6462" lon="3.67548">
        <ele>257</ele>
      </trkpt>
      <trkpt lat="43.64617" lon="3.67551">
        <ele>257</ele>
      </trkpt>
      <trkpt lat="43.64616" lon="3.67554">
        <ele>257</ele>
      </trkpt>
      <trkpt lat="43.64615" lon="3.67557">
        <ele>257</ele>
      </trkpt>
      <trkpt lat="43.64614" lon="3.67561">
        <ele>259</ele>
      </trkpt>
      <trkpt lat="43.64614" lon="3.67564">
        <ele>259</ele>
      </trkpt>
      <trkpt lat="43.64613" lon="3.67567">
        <ele>259</ele>
      </trkpt>
      <trkpt lat="43.64611" lon="3.67571">
        <ele>259</ele>
      </trkpt>
      <trkpt lat="43.6461" lon="3.67574">
        <ele>259</ele>
      </trkpt>
      <trkpt lat="43.64609" lon="3.67577">
        <ele>260</ele>
      </trkpt>
      <trkpt lat="43.64609" lon="3.67581">
        <ele>260</ele>
      </trkpt>
      <trkpt lat="43.64609" lon="3.67585">
        <ele>260</ele>
      </trkpt>
      <trkpt lat="43.64609" lon="3.67588">
        <ele>260</ele>
      </trkpt>
      <trkpt lat="43.6461" lon="3.67591">
        <ele>260</ele>
      </trkpt>
      <trkpt lat="43.64611" lon="3.67594">
        <ele>261</ele>
      </trkpt>
      <trkpt lat="43.64613" lon="3.67596">
        <ele>261</ele>
      </trkpt>
      <trkpt lat="43.64614" lon="3.67599">
        <ele>261</ele>
      </trkpt>
      <trkpt lat="43.64616" lon="3.67601">
        <ele>261</ele>
      </trkpt>
      <trkpt lat="43.64618" lon="3.67605">
        <ele>261</ele>
      </trkpt>
      <trkpt lat="43.6462" lon="3.67608">
        <ele>261</ele>
      </trkpt>
      <trkpt lat="43.64622" lon="3.67612">
        <ele>261</ele>
      </trkpt>
      <trkpt lat="43.64623" lon="3.67614">
        <ele>261</ele>
      </trkpt>
      <trkpt lat="43.64625" lon="3.67616">
        <ele>261</ele>
      </trkpt>
      <trkpt lat="43.64627" lon="3.67619">
        <ele>261</ele>
      </trkpt>
      <trkpt lat="43.6463" lon="3.67619">
        <ele>261</ele>
      </trkpt>
      <trkpt lat="43.64632" lon="3.67619">
        <ele>261</ele>
      </trkpt>
      <trkpt lat="43.64634" lon="3.67618">
        <ele>261</ele>
      </trkpt>
      <trkpt lat="43.64637" lon="3.67618">
        <ele>261</ele>
      </trkpt>
      <trkpt lat="43.64639" lon="3.67617">
        <ele>261</ele>
      </trkpt>
      <trkpt lat="43.64641" lon="3.67617">
        <ele>261</ele>
      </trkpt>
      <trkpt lat="43.64643" lon="3.67617">
        <ele>261</ele>
      </trkpt>
      <trkpt lat="43.64645" lon="3.67617">
        <ele>261</ele>
      </trkpt>
      <trkpt lat="43.64647" lon="3.67616">
        <ele>261</ele>
      </trkpt>
      <trkpt lat="43.64649" lon="3.67616">
        <ele>261</ele>
      </trkpt>
      <trkpt lat="43.64681" lon="3.67607">
        <ele>262</ele>
      </trkpt>
      <trkpt lat="43.64651" lon="3.67615">
        <ele>261</ele>
      </trkpt>
      <trkpt lat="43.64684" lon="3.67606">
        <ele>262</ele>
      </trkpt>
      <trkpt lat="43.64653" lon="3.67614">
        <ele>261</ele>
      </trkpt>
      <trkpt lat="43.64686" lon="3.67605">
        <ele>262</ele>
      </trkpt>
      <trkpt lat="43.64656" lon="3.67614">
        <ele>261</ele>
      </trkpt>
      <trkpt lat="43.64689" lon="3.67605">
        <ele>262</ele>
      </trkpt>
      <trkpt lat="43.64658" lon="3.67613">
        <ele>261</ele>
      </trkpt>
      <trkpt lat="43.64691" lon="3.67604">
        <ele>262</ele>
      </trkpt>
      <trkpt lat="43.6466" lon="3.67613">
        <ele>261</ele>
      </trkpt>
      <trkpt lat="43.64694" lon="3.67604">
        <ele>262</ele>
      </trkpt>
      <trkpt lat="43.64662" lon="3.67612">
        <ele>261</ele>
      </trkpt>
      <trkpt lat="43.64697" lon="3.67602">
        <ele>262</ele>
      </trkpt>
      <trkpt lat="43.64664" lon="3.67611">
        <ele>261</ele>
      </trkpt>
      <trkpt lat="43.64699" lon="3.67602">
        <ele>262</ele>
      </trkpt>
      <trkpt lat="43.64702" lon="3.676">
        <ele>262</ele>
      </trkpt>
      <trkpt lat="43.64667" lon="3.6761">
        <ele>261</ele>
      </trkpt>
      <trkpt lat="43.64704" lon="3.67599">
        <ele>262</ele>
      </trkpt>
      <trkpt lat="43.64706" lon="3.67598">
        <ele>262</ele>
      </trkpt>
      <trkpt lat="43.6467" lon="3.6761">
        <ele>262</ele>
      </trkpt>
      <trkpt lat="43.64708" lon="3.67597">
        <ele>262</ele>
      </trkpt>
      <trkpt lat="43.6471" lon="3.67596">
        <ele>262</ele>
      </trkpt>
      <trkpt lat="43.64672" lon="3.67611">
        <ele>262</ele>
      </trkpt>
      <trkpt lat="43.64712" lon="3.67594">
        <ele>262</ele>
      </trkpt>
      <trkpt lat="43.64714" lon="3.67593">
        <ele>262</ele>
      </trkpt>
      <trkpt lat="43.64716" lon="3.67591">
        <ele>262</ele>
      </trkpt>
      <trkpt lat="43.64719" lon="3.67589">
        <ele>262</ele>
      </trkpt>
      <trkpt lat="43.64721" lon="3.67587">
        <ele>262</ele>
      </trkpt>
      <trkpt lat="43.64724" lon="3.67585">
        <ele>262</ele>
      </trkpt>
      <trkpt lat="43.64672" lon="3.67611">
        <ele>261</ele>
      </trkpt>
      <trkpt lat="43.64726" lon="3.67583">
        <ele>262</ele>
      </trkpt>
      <trkpt lat="43.64729" lon="3.67582">
        <ele>262</ele>
      </trkpt>
      <trkpt lat="43.64731" lon="3.6758">
        <ele>262</ele>
      </trkpt>
      <trkpt lat="43.64733" lon="3.67578">
        <ele>262</ele>
      </trkpt>
      <trkpt lat="43.64735" lon="3.67576">
        <ele>262</ele>
      </trkpt>
      <trkpt lat="43.64737" lon="3.67575">
        <ele>262</ele>
      </trkpt>
      <trkpt lat="43.64739" lon="3.67573">
        <ele>262</ele>
      </trkpt>
      <trkpt lat="43.64741" lon="3.67571">
        <ele>262</ele>
      </trkpt>
      <trkpt lat="43.64743" lon="3.67569">
        <ele>262</ele>
      </trkpt>
      <trkpt lat="43.64746" lon="3.67567">
        <ele>262</ele>
      </trkpt>
      <trkpt lat="43.64748" lon="3.67565">
        <ele>263</ele>
      </trkpt>
      <trkpt lat="43.64749" lon="3.67563">
        <ele>263</ele>
      </trkpt>
      <trkpt lat="43.64751" lon="3.67562">
        <ele>263</ele>
      </trkpt>
      <trkpt lat="43.64753" lon="3.6756">
        <ele>263</ele>
      </trkpt>
      <trkpt lat="43.64755" lon="3.67559">
        <ele>263</ele>
      </trkpt>
      <trkpt lat="43.64758" lon="3.67557">
        <ele>263</ele>
      </trkpt>
      <trkpt lat="43.64761" lon="3.67555">
        <ele>263</ele>
      </trkpt>
      <trkpt lat="43.64766" lon="3.67548">
        <ele>263</ele>
      </trkpt>
      <trkpt lat="43.64768" lon="3.67546">
        <ele>263</ele>
      </trkpt>
      <trkpt lat="43.6477" lon="3.67544">
        <ele>263</ele>
      </trkpt>
      <trkpt lat="43.64773" lon="3.67541">
        <ele>263</ele>
      </trkpt>
      <trkpt lat="43.64776" lon="3.67539">
        <ele>263</ele>
      </trkpt>
      <trkpt lat="43.64779" lon="3.67537">
        <ele>263</ele>
      </trkpt>
      <trkpt lat="43.64781" lon="3.67535">
        <ele>263</ele>
      </trkpt>
      <trkpt lat="43.64784" lon="3.67534">
        <ele>263</ele>
      </trkpt>
      <trkpt lat="43.64786" lon="3.67532">
        <ele>263</ele>
      </trkpt>
      <trkpt lat="43.6479" lon="3.6753">
        <ele>263</ele>
      </trkpt>
      <trkpt lat="43.64793" lon="3.67528">
        <ele>263</ele>
      </trkpt>
      <trkpt lat="43.64796" lon="3.67527">
        <ele>264</ele>
      </trkpt>
      <trkpt lat="43.64799" lon="3.67525">
        <ele>264</ele>
      </trkpt>
      <trkpt lat="43.64761" lon="3.67555">
        <ele>263</ele>
      </trkpt>
      <trkpt lat="43.64802" lon="3.67523">
        <ele>264</ele>
      </trkpt>
      <trkpt lat="43.64806" lon="3.67521">
        <ele>264</ele>
      </trkpt>
      <trkpt lat="43.64808" lon="3.67519">
        <ele>264</ele>
      </trkpt>
      <trkpt lat="43.64812" lon="3.67518">
        <ele>264</ele>
      </trkpt>
      <trkpt lat="43.64814" lon="3.67516">
        <ele>264</ele>
      </trkpt>
      <trkpt lat="43.64817" lon="3.67515">
        <ele>264</ele>
      </trkpt>
      <trkpt lat="43.64821" lon="3.67514">
        <ele>264</ele>
      </trkpt>
      <trkpt lat="43.64824" lon="3.67512">
        <ele>264</ele>
      </trkpt>
      <trkpt lat="43.64827" lon="3.67511">
        <ele>264</ele>
      </trkpt>
      <trkpt lat="43.6483" lon="3.6751">
        <ele>264</ele>
      </trkpt>
      <trkpt lat="43.64834" lon="3.67509">
        <ele>264</ele>
      </trkpt>
      <trkpt lat="43.64837" lon="3.67508">
        <ele>264</ele>
      </trkpt>
      <trkpt lat="43.6484" lon="3.67508">
        <ele>264</ele>
      </trkpt>
      <trkpt lat="43.64843" lon="3.67507">
        <ele>264</ele>
      </trkpt>
      <trkpt lat="43.64845" lon="3.67507">
        <ele>264</ele>
      </trkpt>
      <trkpt lat="43.64848" lon="3.67506">
        <ele>264</ele>
      </trkpt>
      <trkpt lat="43.64852" lon="3.67506">
        <ele>264</ele>
      </trkpt>
      <trkpt lat="43.64855" lon="3.67505">
        <ele>264</ele>
      </trkpt>
      <trkpt lat="43.64858" lon="3.67505">
        <ele>263</ele>
      </trkpt>
      <trkpt lat="43.64861" lon="3.67504">
        <ele>263</ele>
      </trkpt>
      <trkpt lat="43.64865" lon="3.67503">
        <ele>263</ele>
      </trkpt>
      <trkpt lat="43.64868" lon="3.67502">
        <ele>263</ele>
      </trkpt>
      <trkpt lat="43.64872" lon="3.67501">
        <ele>263</ele>
      </trkpt>
      <trkpt lat="43.64876" lon="3.675">
        <ele>263</ele>
      </trkpt>
      <trkpt lat="43.6488" lon="3.67499">
        <ele>263</ele>
      </trkpt>
      <trkpt lat="43.64885" lon="3.67497">
        <ele>263</ele>
      </trkpt>
      <trkpt lat="43.6489" lon="3.67495">
        <ele>263</ele>
      </trkpt>
      <trkpt lat="43.64896" lon="3.67493">
        <ele>263</ele>
      </trkpt>
      <trkpt lat="43.64902" lon="3.6749">
        <ele>262</ele>
      </trkpt>
      <trkpt lat="43.64908" lon="3.67488">
        <ele>262</ele>
      </trkpt>
      <trkpt lat="43.64914" lon="3.67485">
        <ele>262</ele>
      </trkpt>
      <trkpt lat="43.64921" lon="3.67481">
        <ele>262</ele>
      </trkpt>
      <trkpt lat="43.64929" lon="3.67477">
        <ele>262</ele>
      </trkpt>
      <trkpt lat="43.64936" lon="3.67472">
        <ele>262</ele>
      </trkpt>
      <trkpt lat="43.64943" lon="3.67467">
        <ele>262</ele>
      </trkpt>
      <trkpt lat="43.64949" lon="3.67462">
        <ele>262</ele>
      </trkpt>
      <trkpt lat="43.64956" lon="3.67456">
        <ele>262</ele>
      </trkpt>
      <trkpt lat="43.64963" lon="3.6745">
        <ele>262</ele>
      </trkpt>
      <trkpt lat="43.6497" lon="3.67444">
        <ele>259</ele>
      </trkpt>
      <trkpt lat="43.64976" lon="3.67438">
        <ele>259</ele>
      </trkpt>
      <trkpt lat="43.64982" lon="3.67431">
        <ele>259</ele>
      </trkpt>
      <trkpt lat="43.64987" lon="3.67424">
        <ele>259</ele>
      </trkpt>
      <trkpt lat="43.64992" lon="3.67417">
        <ele>259</ele>
      </trkpt>
      <trkpt lat="43.64997" lon="3.6741">
        <ele>259</ele>
      </trkpt>
      <trkpt lat="43.65003" lon="3.67403">
        <ele>259</ele>
      </trkpt>
      <trkpt lat="43.65007" lon="3.67396">
        <ele>259</ele>
      </trkpt>
      <trkpt lat="43.65012" lon="3.6739">
        <ele>259</ele>
      </trkpt>
      <trkpt lat="43.65018" lon="3.67385">
        <ele>259</ele>
      </trkpt>
      <trkpt lat="43.65023" lon="3.6738">
        <ele>256</ele>
      </trkpt>
      <trkpt lat="43.65029" lon="3.67377">
        <ele>256</ele>
      </trkpt>
      <trkpt lat="43.65035" lon="3.67375">
        <ele>256</ele>
      </trkpt>
      <trkpt lat="43.65042" lon="3.67374">
        <ele>256</ele>
      </trkpt>
      <trkpt lat="43.65047" lon="3.67374">
        <ele>256</ele>
      </trkpt>
      <trkpt lat="43.65052" lon="3.67373">
        <ele>256</ele>
      </trkpt>
      <trkpt lat="43.65058" lon="3.67371">
        <ele>256</ele>
      </trkpt>
      <trkpt lat="43.65064" lon="3.6737">
        <ele>256</ele>
      </trkpt>
      <trkpt lat="43.6507" lon="3.67369">
        <ele>256</ele>
      </trkpt>
      <trkpt lat="43.65075" lon="3.67368">
        <ele>256</ele>
      </trkpt>
      <trkpt lat="43.65081" lon="3.67368">
        <ele>254</ele>
      </trkpt>
      <trkpt lat="43.65087" lon="3.67368">
        <ele>254</ele>
      </trkpt>
      <trkpt lat="43.65091" lon="3.67366">
        <ele>254</ele>
      </trkpt>
      <trkpt lat="43.65096" lon="3.67365">
        <ele>254</ele>
      </trkpt>
      <trkpt lat="43.65101" lon="3.67364">
        <ele>254</ele>
      </trkpt>
      <trkpt lat="43.65107" lon="3.67364">
        <ele>254</ele>
      </trkpt>
      <trkpt lat="43.65113" lon="3.67364">
        <ele>254</ele>
      </trkpt>
      <trkpt lat="43.65119" lon="3.67363">
        <ele>254</ele>
      </trkpt>
      <trkpt lat="43.65125" lon="3.67363">
        <ele>254</ele>
      </trkpt>
      <trkpt lat="43.65133" lon="3.67362">
        <ele>254</ele>
      </trkpt>
      <trkpt lat="43.6514" lon="3.6736">
        <ele>252</ele>
      </trkpt>
      <trkpt lat="43.65147" lon="3.67358">
        <ele>252</ele>
      </trkpt>
      <trkpt lat="43.65154" lon="3.67357">
        <ele>252</ele>
      </trkpt>
      <trkpt lat="43.65159" lon="3.67356">
        <ele>252</ele>
      </trkpt>
      <trkpt lat="43.65164" lon="3.67355">
        <ele>252</ele>
      </trkpt>
      <trkpt lat="43.65171" lon="3.67354">
        <ele>252</ele>
      </trkpt>
      <trkpt lat="43.65176" lon="3.67353">
        <ele>252</ele>
      </trkpt>
      <trkpt lat="43.65183" lon="3.67351">
        <ele>252</ele>
      </trkpt>
      <trkpt lat="43.65189" lon="3.6735">
        <ele>252</ele>
      </trkpt>
      <trkpt lat="43.65195" lon="3.67348">
        <ele>252</ele>
      </trkpt>
      <trkpt lat="43.65202" lon="3.67346">
        <ele>248</ele>
      </trkpt>
      <trkpt lat="43.65208" lon="3.67343">
        <ele>248</ele>
      </trkpt>
      <trkpt lat="43.65213" lon="3.6734">
        <ele>248</ele>
      </trkpt>
      <trkpt lat="43.65218" lon="3.67337">
        <ele>248</ele>
      </trkpt>
      <trkpt lat="43.65224" lon="3.67333">
        <ele>248</ele>
      </trkpt>
      <trkpt lat="43.65229" lon="3.67329">
        <ele>248</ele>
      </trkpt>
      <trkpt lat="43.65235" lon="3.67324">
        <ele>248</ele>
      </trkpt>
      <trkpt lat="43.65239" lon="3.6732">
        <ele>248</ele>
      </trkpt>
      <trkpt lat="43.65244" lon="3.67316">
        <ele>248</ele>
      </trkpt>
      <trkpt lat="43.65249" lon="3.67312">
        <ele>248</ele>
      </trkpt>
      <trkpt lat="43.65254" lon="3.67309">
        <ele>247</ele>
      </trkpt>
      <trkpt lat="43.65258" lon="3.67305">
        <ele>247</ele>
      </trkpt>
      <trkpt lat="43.65261" lon="3.67302">
        <ele>247</ele>
      </trkpt>
      <trkpt lat="43.65266" lon="3.67299">
        <ele>247</ele>
      </trkpt>
      <trkpt lat="43.6527" lon="3.67297">
        <ele>247</ele>
      </trkpt>
      <trkpt lat="43.65273" lon="3.67294">
        <ele>247</ele>
      </trkpt>
      <trkpt lat="43.65277" lon="3.67293">
        <ele>247</ele>
      </trkpt>
      <trkpt lat="43.6528" lon="3.67291">
        <ele>247</ele>
      </trkpt>
      <trkpt lat="43.65284" lon="3.6729">
        <ele>247</ele>
      </trkpt>
      <trkpt lat="43.65287" lon="3.67288">
        <ele>247</ele>
      </trkpt>
      <trkpt lat="43.6529" lon="3.67288">
        <ele>246</ele>
      </trkpt>
      <trkpt lat="43.65293" lon="3.67286">
        <ele>246</ele>
      </trkpt>
      <trkpt lat="43.65295" lon="3.67286">
        <ele>246</ele>
      </trkpt>
      <trkpt lat="43.65298" lon="3.67285">
        <ele>246</ele>
      </trkpt>
      <trkpt lat="43.653" lon="3.67284">
        <ele>246</ele>
      </trkpt>
      <trkpt lat="43.65302" lon="3.67283">
        <ele>246</ele>
      </trkpt>
      <trkpt lat="43.65304" lon="3.67283">
        <ele>246</ele>
      </trkpt>
      <trkpt lat="43.65307" lon="3.67282">
        <ele>246</ele>
      </trkpt>
      <trkpt lat="43.65308" lon="3.67281">
        <ele>246</ele>
      </trkpt>
      <trkpt lat="43.6531" lon="3.67281">
        <ele>246</ele>
      </trkpt>
      <trkpt lat="43.65312" lon="3.6728">
        <ele>248</ele>
      </trkpt>
      <trkpt lat="43.65314" lon="3.6728">
        <ele>248</ele>
      </trkpt>
      <trkpt lat="43.65315" lon="3.67279">
        <ele>248</ele>
      </trkpt>
      <trkpt lat="43.65319" lon="3.67277">
        <ele>248</ele>
      </trkpt>
      <trkpt lat="43.65323" lon="3.67276">
        <ele>248</ele>
      </trkpt>
      <trkpt lat="43.65326" lon="3.67275">
        <ele>248</ele>
      </trkpt>
      <trkpt lat="43.65328" lon="3.67274">
        <ele>249</ele>
      </trkpt>
      <trkpt lat="43.65332" lon="3.67273">
        <ele>249</ele>
      </trkpt>
      <trkpt lat="43.65335" lon="3.67272">
        <ele>249</ele>
      </trkpt>
      <trkpt lat="43.65338" lon="3.6727">
        <ele>249</ele>
      </trkpt>
      <trkpt lat="43.65341" lon="3.6727">
        <ele>249</ele>
      </trkpt>
      <trkpt lat="43.65344" lon="3.67269">
        <ele>250</ele>
      </trkpt>
      <trkpt lat="43.65347" lon="3.67268">
        <ele>250</ele>
      </trkpt>
      <trkpt lat="43.6535" lon="3.67267">
        <ele>250</ele>
      </trkpt>
      <trkpt lat="43.65353" lon="3.67266">
        <ele>250</ele>
      </trkpt>
      <trkpt lat="43.65356" lon="3.67265">
        <ele>250</ele>
      </trkpt>
      <trkpt lat="43.65359" lon="3.67264">
        <ele>251</ele>
      </trkpt>
      <trkpt lat="43.65361" lon="3.67262">
        <ele>251</ele>
      </trkpt>
      <trkpt lat="43.65364" lon="3.67261">
        <ele>251</ele>
      </trkpt>
      <trkpt lat="43.65366" lon="3.6726">
        <ele>251</ele>
      </trkpt>
      <trkpt lat="43.65369" lon="3.67258">
        <ele>251</ele>
      </trkpt>
      <trkpt lat="43.65371" lon="3.67257">
        <ele>252</ele>
      </trkpt>
      <trkpt lat="43.65373" lon="3.67255">
        <ele>252</ele>
      </trkpt>
      <trkpt lat="43.65376" lon="3.67253">
        <ele>252</ele>
      </trkpt>
      <trkpt lat="43.65379" lon="3.67252">
        <ele>252</ele>
      </trkpt>
      <trkpt lat="43.65381" lon="3.6725">
        <ele>252</ele>
      </trkpt>
      <trkpt lat="43.65383" lon="3.67249">
        <ele>254</ele>
      </trkpt>
      <trkpt lat="43.65387" lon="3.67248">
        <ele>254</ele>
      </trkpt>
      <trkpt lat="43.6539" lon="3.67247">
        <ele>254</ele>
      </trkpt>
      <trkpt lat="43.65393" lon="3.67246">
        <ele>254</ele>
      </trkpt>
      <trkpt lat="43.65396" lon="3.67244">
        <ele>254</ele>
      </trkpt>
      <trkpt lat="43.65398" lon="3.67242">
        <ele>254</ele>
      </trkpt>
      <trkpt lat="43.65401" lon="3.67241">
        <ele>254</ele>
      </trkpt>
      <trkpt lat="43.65404" lon="3.6724">
        <ele>254</ele>
      </trkpt>
      <trkpt lat="43.65407" lon="3.67238">
        <ele>254</ele>
      </trkpt>
      <trkpt lat="43.6541" lon="3.67236">
        <ele>254</ele>
      </trkpt>
      <trkpt lat="43.65412" lon="3.67234">
        <ele>256</ele>
      </trkpt>
      <trkpt lat="43.65415" lon="3.67232">
        <ele>256</ele>
      </trkpt>
      <trkpt lat="43.65418" lon="3.6723">
        <ele>256</ele>
      </trkpt>
      <trkpt lat="43.65421" lon="3.67228">
        <ele>256</ele>
      </trkpt>
      <trkpt lat="43.65424" lon="3.67226">
        <ele>256</ele>
      </trkpt>
      <trkpt lat="43.65426" lon="3.67223">
        <ele>258</ele>
      </trkpt>
      <trkpt lat="43.65427" lon="3.67219">
        <ele>258</ele>
      </trkpt>
      <trkpt lat="43.6543" lon="3.67215">
        <ele>258</ele>
      </trkpt>
      <trkpt lat="43.65431" lon="3.67213">
        <ele>258</ele>
      </trkpt>
      <trkpt lat="43.65433" lon="3.67211">
        <ele>258</ele>
      </trkpt>
      <trkpt lat="43.65434" lon="3.67209">
        <ele>258</ele>
      </trkpt>
      <trkpt lat="43.65436" lon="3.67206">
        <ele>258</ele>
      </trkpt>
      <trkpt lat="43.65438" lon="3.67203">
        <ele>258</ele>
      </trkpt>
      <trkpt lat="43.65439" lon="3.67201">
        <ele>258</ele>
      </trkpt>
      <trkpt lat="43.6544" lon="3.67197">
        <ele>258</ele>
      </trkpt>
      <trkpt lat="43.65441" lon="3.67195">
        <ele>258</ele>
      </trkpt>
      <trkpt lat="43.65443" lon="3.67192">
        <ele>258</ele>
      </trkpt>
      <trkpt lat="43.65444" lon="3.6719">
        <ele>258</ele>
      </trkpt>
      <trkpt lat="43.65447" lon="3.67189">
        <ele>258</ele>
      </trkpt>
      <trkpt lat="43.65449" lon="3.67189">
        <ele>258</ele>
      </trkpt>
      <trkpt lat="43.65451" lon="3.6719">
        <ele>258</ele>
      </trkpt>
      <trkpt lat="43.65453" lon="3.67193">
        <ele>260</ele>
      </trkpt>
      <trkpt lat="43.65452" lon="3.67196">
        <ele>260</ele>
      </trkpt>
      <trkpt lat="43.6545" lon="3.67199">
        <ele>260</ele>
      </trkpt>
      <trkpt lat="43.65449" lon="3.67202">
        <ele>260</ele>
      </trkpt>
      <trkpt lat="43.65447" lon="3.67205">
        <ele>260</ele>
      </trkpt>
      <trkpt lat="43.65447" lon="3.67209">
        <ele>261</ele>
      </trkpt>
      <trkpt lat="43.65448" lon="3.6721">
        <ele>261</ele>
      </trkpt>
      <trkpt lat="43.6545" lon="3.67207">
        <ele>261</ele>
      </trkpt>
      <trkpt lat="43.65452" lon="3.67204">
        <ele>261</ele>
      </trkpt>
      <trkpt lat="43.65454" lon="3.67201">
        <ele>261</ele>
      </trkpt>
      <trkpt lat="43.65455" lon="3.67197">
        <ele>261</ele>
      </trkpt>
      <trkpt lat="43.65457" lon="3.67194">
        <ele>261</ele>
      </trkpt>
      <trkpt lat="43.65458" lon="3.67189">
        <ele>261</ele>
      </trkpt>
      <trkpt lat="43.6546" lon="3.67184">
        <ele>259</ele>
      </trkpt>
      <trkpt lat="43.65462" lon="3.6718">
        <ele>259</ele>
      </trkpt>
      <trkpt lat="43.65464" lon="3.67175">
        <ele>259</ele>
      </trkpt>
      <trkpt lat="43.65466" lon="3.67171">
        <ele>259</ele>
      </trkpt>
      <trkpt lat="43.65469" lon="3.67166">
        <ele>259</ele>
      </trkpt>
      <trkpt lat="43.65473" lon="3.67161">
        <ele>259</ele>
      </trkpt>
      <trkpt lat="43.65476" lon="3.67157">
        <ele>259</ele>
      </trkpt>
      <trkpt lat="43.6548" lon="3.67152">
        <ele>259</ele>
      </trkpt>
      <trkpt lat="43.65484" lon="3.67147">
        <ele>259</ele>
      </trkpt>
      <trkpt lat="43.65488" lon="3.67143">
        <ele>259</ele>
      </trkpt>
      <trkpt lat="43.65491" lon="3.67141">
        <ele>257</ele>
      </trkpt>
      <trkpt lat="43.65495" lon="3.6714">
        <ele>257</ele>
      </trkpt>
      <trkpt lat="43.65497" lon="3.67138">
        <ele>257</ele>
      </trkpt>
      <trkpt lat="43.65498" lon="3.67136">
        <ele>257</ele>
      </trkpt>
      <trkpt lat="43.655" lon="3.67134">
        <ele>257</ele>
      </trkpt>
      <trkpt lat="43.65502" lon="3.67134">
        <ele>257</ele>
      </trkpt>
      <trkpt lat="43.65503" lon="3.67137">
        <ele>257</ele>
      </trkpt>
      <trkpt lat="43.65507" lon="3.67136">
        <ele>257</ele>
      </trkpt>
      <trkpt lat="43.6551" lon="3.67138">
        <ele>257</ele>
      </trkpt>
      <trkpt lat="43.65512" lon="3.67139">
        <ele>257</ele>
      </trkpt>
      <trkpt lat="43.65515" lon="3.67141">
        <ele>257</ele>
      </trkpt>
      <trkpt lat="43.65518" lon="3.67141">
        <ele>257</ele>
      </trkpt>
      <trkpt lat="43.65522" lon="3.67142">
        <ele>256</ele>
      </trkpt>
      <trkpt lat="43.65525" lon="3.67143">
        <ele>256</ele>
      </trkpt>
      <trkpt lat="43.65529" lon="3.67144">
        <ele>256</ele>
      </trkpt>
      <trkpt lat="43.65532" lon="3.67146">
        <ele>256</ele>
      </trkpt>
      <trkpt lat="43.65536" lon="3.67148">
        <ele>256</ele>
      </trkpt>
      <trkpt lat="43.6554" lon="3.6715">
        <ele>256</ele>
      </trkpt>
      <trkpt lat="43.65543" lon="3.67151">
        <ele>256</ele>
      </trkpt>
      <trkpt lat="43.65547" lon="3.67153">
        <ele>256</ele>
      </trkpt>
      <trkpt lat="43.65549" lon="3.67154">
        <ele>256</ele>
      </trkpt>
      <trkpt lat="43.65551" lon="3.67156">
        <ele>256</ele>
      </trkpt>
      <trkpt lat="43.65553" lon="3.67157">
        <ele>255</ele>
      </trkpt>
      <trkpt lat="43.65555" lon="3.67158">
        <ele>255</ele>
      </trkpt>
      <trkpt lat="43.65557" lon="3.67158">
        <ele>255</ele>
      </trkpt>
      <trkpt lat="43.6556" lon="3.67159">
        <ele>255</ele>
      </trkpt>
      <trkpt lat="43.65562" lon="3.67161">
        <ele>255</ele>
      </trkpt>
      <trkpt lat="43.65565" lon="3.67162">
        <ele>255</ele>
      </trkpt>
      <trkpt lat="43.65568" lon="3.67163">
        <ele>255</ele>
      </trkpt>
      <trkpt lat="43.65571" lon="3.67165">
        <ele>255</ele>
      </trkpt>
      <trkpt lat="43.65574" lon="3.67167">
        <ele>255</ele>
      </trkpt>
      <trkpt lat="43.65577" lon="3.67169">
        <ele>255</ele>
      </trkpt>
      <trkpt lat="43.65579" lon="3.6717">
        <ele>255</ele>
      </trkpt>
      <trkpt lat="43.65581" lon="3.67173">
        <ele>255</ele>
      </trkpt>
      <trkpt lat="43.65584" lon="3.67175">
        <ele>255</ele>
      </trkpt>
      <trkpt lat="43.65587" lon="3.67177">
        <ele>255</ele>
      </trkpt>
      <trkpt lat="43.65591" lon="3.67178">
        <ele>255</ele>
      </trkpt>
      <trkpt lat="43.65594" lon="3.67181">
        <ele>255</ele>
      </trkpt>
      <trkpt lat="43.65598" lon="3.67182">
        <ele>255</ele>
      </trkpt>
      <trkpt lat="43.656" lon="3.67184">
        <ele>255</ele>
      </trkpt>
      <trkpt lat="43.65604" lon="3.67185">
        <ele>255</ele>
      </trkpt>
      <trkpt lat="43.65607" lon="3.67187">
        <ele>255</ele>
      </trkpt>
      <trkpt lat="43.65609" lon="3.67189">
        <ele>255</ele>
      </trkpt>
      <trkpt lat="43.65613" lon="3.67191">
        <ele>255</ele>
      </trkpt>
      <trkpt lat="43.65616" lon="3.67193">
        <ele>255</ele>
      </trkpt>
      <trkpt lat="43.6562" lon="3.67196">
        <ele>255</ele>
      </trkpt>
      <trkpt lat="43.65623" lon="3.672">
        <ele>255</ele>
      </trkpt>
      <trkpt lat="43.65626" lon="3.67203">
        <ele>255</ele>
      </trkpt>
      <trkpt lat="43.6563" lon="3.67206">
        <ele>255</ele>
      </trkpt>
      <trkpt lat="43.65633" lon="3.67209">
        <ele>255</ele>
      </trkpt>
      <trkpt lat="43.65635" lon="3.67211">
        <ele>255</ele>
      </trkpt>
      <trkpt lat="43.65637" lon="3.67214">
        <ele>255</ele>
      </trkpt>
      <trkpt lat="43.65639" lon="3.67217">
        <ele>256</ele>
      </trkpt>
      <trkpt lat="43.65641" lon="3.67221">
        <ele>256</ele>
      </trkpt>
      <trkpt lat="43.65643" lon="3.67223">
        <ele>256</ele>
      </trkpt>
      <trkpt lat="43.65646" lon="3.67225">
        <ele>256</ele>
      </trkpt>
      <trkpt lat="43.65649" lon="3.67227">
        <ele>256</ele>
      </trkpt>
      <trkpt lat="43.65651" lon="3.6723">
        <ele>256</ele>
      </trkpt>
      <trkpt lat="43.65653" lon="3.67233">
        <ele>256</ele>
      </trkpt>
      <trkpt lat="43.65656" lon="3.67237">
        <ele>256</ele>
      </trkpt>
      <trkpt lat="43.65658" lon="3.6724">
        <ele>256</ele>
      </trkpt>
      <trkpt lat="43.65661" lon="3.67243">
        <ele>256</ele>
      </trkpt>
      <trkpt lat="43.65663" lon="3.67246">
        <ele>257</ele>
      </trkpt>
      <trkpt lat="43.65666" lon="3.6725">
        <ele>257</ele>
      </trkpt>
      <trkpt lat="43.65667" lon="3.67254">
        <ele>257</ele>
      </trkpt>
      <trkpt lat="43.65669" lon="3.67258">
        <ele>257</ele>
      </trkpt>
      <trkpt lat="43.65671" lon="3.67262">
        <ele>257</ele>
      </trkpt>
      <trkpt lat="43.65673" lon="3.67266">
        <ele>257</ele>
      </trkpt>
      <trkpt lat="43.65676" lon="3.67269">
        <ele>257</ele>
      </trkpt>
      <trkpt lat="43.65677" lon="3.67272">
        <ele>257</ele>
      </trkpt>
      <trkpt lat="43.65679" lon="3.67275">
        <ele>257</ele>
      </trkpt>
      <trkpt lat="43.65681" lon="3.67277">
        <ele>257</ele>
      </trkpt>
      <trkpt lat="43.65683" lon="3.6728">
        <ele>258</ele>
      </trkpt>
      <trkpt lat="43.65686" lon="3.67282">
        <ele>258</ele>
      </trkpt>
      <trkpt lat="43.65688" lon="3.67285">
        <ele>258</ele>
      </trkpt>
      <trkpt lat="43.65689" lon="3.67288">
        <ele>258</ele>
      </trkpt>
      <trkpt lat="43.65691" lon="3.67292">
        <ele>258</ele>
      </trkpt>
      <trkpt lat="43.65693" lon="3.67295">
        <ele>258</ele>
      </trkpt>
      <trkpt lat="43.65694" lon="3.67297">
        <ele>258</ele>
      </trkpt>
      <trkpt lat="43.65695" lon="3.673">
        <ele>258</ele>
      </trkpt>
      <trkpt lat="43.65698" lon="3.67303">
        <ele>258</ele>
      </trkpt>
      <trkpt lat="43.65699" lon="3.67305">
        <ele>258</ele>
      </trkpt>
      <trkpt lat="43.657" lon="3.67309">
        <ele>259</ele>
      </trkpt>
      <trkpt lat="43.65701" lon="3.67312">
        <ele>259</ele>
      </trkpt>
      <trkpt lat="43.65703" lon="3.67315">
        <ele>259</ele>
      </trkpt>
      <trkpt lat="43.65705" lon="3.67318">
        <ele>259</ele>
      </trkpt>
      <trkpt lat="43.65707" lon="3.6732">
        <ele>259</ele>
      </trkpt>
      <trkpt lat="43.65709" lon="3.67321">
        <ele>259</ele>
      </trkpt>
      <trkpt lat="43.65711" lon="3.67321">
        <ele>259</ele>
      </trkpt>
      <trkpt lat="43.65713" lon="3.67321">
        <ele>259</ele>
      </trkpt>
      <trkpt lat="43.65716" lon="3.67321">
        <ele>259</ele>
      </trkpt>
      <trkpt lat="43.65718" lon="3.67319">
        <ele>260</ele>
      </trkpt>
      <trkpt lat="43.65721" lon="3.67317">
        <ele>260</ele>
      </trkpt>
      <trkpt lat="43.65725" lon="3.67316">
        <ele>260</ele>
      </trkpt>
      <trkpt lat="43.65727" lon="3.67316">
        <ele>260</ele>
      </trkpt>
      <trkpt lat="43.6573" lon="3.67316">
        <ele>260</ele>
      </trkpt>
      <trkpt lat="43.65732" lon="3.67316">
        <ele>261</ele>
      </trkpt>
      <trkpt lat="43.65735" lon="3.67316">
        <ele>261</ele>
      </trkpt>
      <trkpt lat="43.65737" lon="3.67317">
        <ele>261</ele>
      </trkpt>
      <trkpt lat="43.65739" lon="3.67319">
        <ele>261</ele>
      </trkpt>
      <trkpt lat="43.65741" lon="3.6732">
        <ele>261</ele>
      </trkpt>
      <trkpt lat="43.65743" lon="3.67322">
        <ele>263</ele>
      </trkpt>
      <trkpt lat="43.65745" lon="3.67324">
        <ele>263</ele>
      </trkpt>
      <trkpt lat="43.65747" lon="3.67327">
        <ele>263</ele>
      </trkpt>
      <trkpt lat="43.65751" lon="3.67328">
        <ele>263</ele>
      </trkpt>
      <trkpt lat="43.65752" lon="3.67329">
        <ele>263</ele>
      </trkpt>
      <trkpt lat="43.65755" lon="3.67328">
        <ele>264</ele>
      </trkpt>
      <trkpt lat="43.65757" lon="3.6733">
        <ele>264</ele>
      </trkpt>
      <trkpt lat="43.65759" lon="3.67332">
        <ele>264</ele>
      </trkpt>
      <trkpt lat="43.65761" lon="3.67334">
        <ele>264</ele>
      </trkpt>
      <trkpt lat="43.65764" lon="3.67334">
        <ele>265</ele>
      </trkpt>
      <trkpt lat="43.65768" lon="3.67336">
        <ele>265</ele>
      </trkpt>
      <trkpt lat="43.6577" lon="3.67336">
        <ele>265</ele>
      </trkpt>
      <trkpt lat="43.65771" lon="3.67337">
        <ele>265</ele>
      </trkpt>
      <trkpt lat="43.65774" lon="3.67337">
        <ele>265</ele>
      </trkpt>
      <trkpt lat="43.65776" lon="3.67337">
        <ele>267</ele>
      </trkpt>
      <trkpt lat="43.65778" lon="3.67337">
        <ele>267</ele>
      </trkpt>
      <trkpt lat="43.65781" lon="3.67338">
        <ele>267</ele>
      </trkpt>
      <trkpt lat="43.65784" lon="3.67338">
        <ele>267</ele>
      </trkpt>
      <trkpt lat="43.65786" lon="3.67338">
        <ele>267</ele>
      </trkpt>
      <trkpt lat="43.65788" lon="3.67339">
        <ele>267</ele>
      </trkpt>
      <trkpt lat="43.65791" lon="3.67339">
        <ele>267</ele>
      </trkpt>
      <trkpt lat="43.65793" lon="3.67339">
        <ele>267</ele>
      </trkpt>
      <trkpt lat="43.65795" lon="3.6734">
        <ele>267</ele>
      </trkpt>
      <trkpt lat="43.65798" lon="3.6734">
        <ele>267</ele>
      </trkpt>
      <trkpt lat="43.658" lon="3.67341">
        <ele>268</ele>
      </trkpt>
      <trkpt lat="43.65802" lon="3.67342">
        <ele>268</ele>
      </trkpt>
      <trkpt lat="43.65804" lon="3.67341">
        <ele>268</ele>
      </trkpt>
      <trkpt lat="43.65807" lon="3.6734">
        <ele>268</ele>
      </trkpt>
      <trkpt lat="43.65809" lon="3.67341">
        <ele>268</ele>
      </trkpt>
      <trkpt lat="43.65812" lon="3.67342">
        <ele>269</ele>
      </trkpt>
      <trkpt lat="43.65815" lon="3.67343">
        <ele>269</ele>
      </trkpt>
      <trkpt lat="43.65816" lon="3.67344">
        <ele>269</ele>
      </trkpt>
      <trkpt lat="43.65819" lon="3.67344">
        <ele>269</ele>
      </trkpt>
      <trkpt lat="43.65821" lon="3.67344">
        <ele>269</ele>
      </trkpt>
      <trkpt lat="43.65823" lon="3.67344">
        <ele>270</ele>
      </trkpt>
      <trkpt lat="43.65827" lon="3.67345">
        <ele>270</ele>
      </trkpt>
      <trkpt lat="43.6583" lon="3.67346">
        <ele>270</ele>
      </trkpt>
      <trkpt lat="43.65833" lon="3.67346">
        <ele>270</ele>
      </trkpt>
      <trkpt lat="43.65836" lon="3.67346">
        <ele>270</ele>
      </trkpt>
      <trkpt lat="43.65838" lon="3.67346">
        <ele>271</ele>
      </trkpt>
      <trkpt lat="43.65841" lon="3.67345">
        <ele>271</ele>
      </trkpt>
      <trkpt lat="43.65843" lon="3.67344">
        <ele>271</ele>
      </trkpt>
      <trkpt lat="43.65845" lon="3.67344">
        <ele>271</ele>
      </trkpt>
      <trkpt lat="43.65847" lon="3.67341">
        <ele>271</ele>
      </trkpt>
      <trkpt lat="43.6585" lon="3.67338">
        <ele>271</ele>
      </trkpt>
      <trkpt lat="43.65851" lon="3.67334">
        <ele>272</ele>
      </trkpt>
      <trkpt lat="43.65853" lon="3.6733">
        <ele>272</ele>
      </trkpt>
      <trkpt lat="43.65854" lon="3.67328">
        <ele>272</ele>
      </trkpt>
      <trkpt lat="43.65855" lon="3.67327">
        <ele>272</ele>
      </trkpt>
      <trkpt lat="43.65858" lon="3.67324">
        <ele>272</ele>
      </trkpt>
      <trkpt lat="43.65861" lon="3.67324">
        <ele>272</ele>
      </trkpt>
      <trkpt lat="43.65863" lon="3.67324">
        <ele>272</ele>
      </trkpt>
      <trkpt lat="43.65866" lon="3.67324">
        <ele>272</ele>
      </trkpt>
      <trkpt lat="43.65869" lon="3.67324">
        <ele>272</ele>
      </trkpt>
      <trkpt lat="43.65872" lon="3.67324">
        <ele>272</ele>
      </trkpt>
      <trkpt lat="43.65885" lon="3.67321">
        <ele>272</ele>
      </trkpt>
      <trkpt lat="43.65897" lon="3.67318">
        <ele>272</ele>
      </trkpt>
      <trkpt lat="43.65909" lon="3.67317">
        <ele>272</ele>
      </trkpt>
      <trkpt lat="43.65921" lon="3.67317">
        <ele>272</ele>
      </trkpt>
      <trkpt lat="43.65932" lon="3.67316">
        <ele>272</ele>
      </trkpt>
      <trkpt lat="43.65941" lon="3.67312">
        <ele>272</ele>
      </trkpt>
      <trkpt lat="43.65951" lon="3.6731">
        <ele>272</ele>
      </trkpt>
      <trkpt lat="43.65956" lon="3.67299">
        <ele>271</ele>
      </trkpt>
      <trkpt lat="43.65963" lon="3.6729">
        <ele>271</ele>
      </trkpt>
      <trkpt lat="43.65972" lon="3.67276">
        <ele>268</ele>
      </trkpt>
      <trkpt lat="43.65977" lon="3.67265">
        <ele>268</ele>
      </trkpt>
      <trkpt lat="43.65982" lon="3.67252">
        <ele>268</ele>
      </trkpt>
      <trkpt lat="43.65986" lon="3.67239">
        <ele>266</ele>
      </trkpt>
      <trkpt lat="43.65995" lon="3.6723">
        <ele>266</ele>
      </trkpt>
      <trkpt lat="43.66002" lon="3.67218">
        <ele>266</ele>
      </trkpt>
      <trkpt lat="43.66003" lon="3.67204">
        <ele>263</ele>
      </trkpt>
      <trkpt lat="43.66004" lon="3.67195">
        <ele>263</ele>
      </trkpt>
      <trkpt lat="43.66006" lon="3.67182">
        <ele>263</ele>
      </trkpt>
      <trkpt lat="43.66006" lon="3.67179">
        <ele>261</ele>
      </trkpt>
      <trkpt lat="43.66007" lon="3.67173">
        <ele>261</ele>
      </trkpt>
      <trkpt lat="43.66008" lon="3.67169">
        <ele>261</ele>
      </trkpt>
      <trkpt lat="43.66009" lon="3.67163">
        <ele>261</ele>
      </trkpt>
      <trkpt lat="43.66009" lon="3.6716">
        <ele>261</ele>
      </trkpt>
      <trkpt lat="43.6601" lon="3.67151">
        <ele>261</ele>
      </trkpt>
      <trkpt lat="43.6601" lon="3.67147">
        <ele>261</ele>
      </trkpt>
      <trkpt lat="43.66011" lon="3.67144">
        <ele>260</ele>
      </trkpt>
      <trkpt lat="43.66012" lon="3.67137">
        <ele>260</ele>
      </trkpt>
      <trkpt lat="43.66012" lon="3.67134">
        <ele>260</ele>
      </trkpt>
      <trkpt lat="43.66012" lon="3.67131">
        <ele>260</ele>
      </trkpt>
      <trkpt lat="43.66011" lon="3.67127">
        <ele>260</ele>
      </trkpt>
      <trkpt lat="43.66012" lon="3.67124">
        <ele>260</ele>
      </trkpt>
      <trkpt lat="43.66012" lon="3.6712">
        <ele>260</ele>
      </trkpt>
      <trkpt lat="43.66012" lon="3.67115">
        <ele>260</ele>
      </trkpt>
      <trkpt lat="43.66013" lon="3.67112">
        <ele>260</ele>
      </trkpt>
      <trkpt lat="43.66013" lon="3.67108">
        <ele>258</ele>
      </trkpt>
      <trkpt lat="43.66013" lon="3.67104">
        <ele>258</ele>
      </trkpt>
      <trkpt lat="43.66013" lon="3.671">
        <ele>258</ele>
      </trkpt>
      <trkpt lat="43.66013" lon="3.67097">
        <ele>258</ele>
      </trkpt>
      <trkpt lat="43.66013" lon="3.67094">
        <ele>258</ele>
      </trkpt>
      <trkpt lat="43.66014" lon="3.67091">
        <ele>258</ele>
      </trkpt>
      <trkpt lat="43.66015" lon="3.67088">
        <ele>258</ele>
      </trkpt>
      <trkpt lat="43.66016" lon="3.67085">
        <ele>258</ele>
      </trkpt>
      <trkpt lat="43.66017" lon="3.67081">
        <ele>258</ele>
      </trkpt>
      <trkpt lat="43.66017" lon="3.67078">
        <ele>258</ele>
      </trkpt>
      <trkpt lat="43.66017" lon="3.67073">
        <ele>257</ele>
      </trkpt>
      <trkpt lat="43.66018" lon="3.67069">
        <ele>257</ele>
      </trkpt>
      <trkpt lat="43.66019" lon="3.67064">
        <ele>257</ele>
      </trkpt>
      <trkpt lat="43.66019" lon="3.6706">
        <ele>257</ele>
      </trkpt>
      <trkpt lat="43.6602" lon="3.67056">
        <ele>257</ele>
      </trkpt>
      <trkpt lat="43.6602" lon="3.67053">
        <ele>257</ele>
      </trkpt>
      <trkpt lat="43.66021" lon="3.6705">
        <ele>257</ele>
      </trkpt>
      <trkpt lat="43.66023" lon="3.67045">
        <ele>257</ele>
      </trkpt>
      <trkpt lat="43.66023" lon="3.67041">
        <ele>257</ele>
      </trkpt>
      <trkpt lat="43.66024" lon="3.67038">
        <ele>256</ele>
      </trkpt>
      <trkpt lat="43.66024" lon="3.6703">
        <ele>256</ele>
      </trkpt>
      <trkpt lat="43.66024" lon="3.67025">
        <ele>256</ele>
      </trkpt>
      <trkpt lat="43.66025" lon="3.67015">
        <ele>256</ele>
      </trkpt>
      <trkpt lat="43.66026" lon="3.67008">
        <ele>256</ele>
      </trkpt>
      <trkpt lat="43.66026" lon="3.67005">
        <ele>256</ele>
      </trkpt>
      <trkpt lat="43.66028" lon="3.67">
        <ele>255</ele>
      </trkpt>
      <trkpt lat="43.66028" lon="3.66998">
        <ele>255</ele>
      </trkpt>
      <trkpt lat="43.66029" lon="3.66995">
        <ele>255</ele>
      </trkpt>
      <trkpt lat="43.6603" lon="3.66992">
        <ele>255</ele>
      </trkpt>
      <trkpt lat="43.6603" lon="3.6699">
        <ele>255</ele>
      </trkpt>
      <trkpt lat="43.66031" lon="3.66985">
        <ele>255</ele>
      </trkpt>
      <trkpt lat="43.66031" lon="3.66981">
        <ele>255</ele>
      </trkpt>
      <trkpt lat="43.66032" lon="3.66978">
        <ele>254</ele>
      </trkpt>
      <trkpt lat="43.66033" lon="3.66974">
        <ele>254</ele>
      </trkpt>
      <trkpt lat="43.66032" lon="3.6697">
        <ele>254</ele>
      </trkpt>
      <trkpt lat="43.66031" lon="3.66965">
        <ele>254</ele>
      </trkpt>
      <trkpt lat="43.6603" lon="3.66963">
        <ele>254</ele>
      </trkpt>
      <trkpt lat="43.6603" lon="3.66959">
        <ele>252</ele>
      </trkpt>
      <trkpt lat="43.6603" lon="3.66956">
        <ele>252</ele>
      </trkpt>
      <trkpt lat="43.66029" lon="3.66953">
        <ele>252</ele>
      </trkpt>
      <trkpt lat="43.66028" lon="3.66949">
        <ele>252</ele>
      </trkpt>
      <trkpt lat="43.66028" lon="3.66946">
        <ele>252</ele>
      </trkpt>
      <trkpt lat="43.66028" lon="3.66942">
        <ele>252</ele>
      </trkpt>
      <trkpt lat="43.66027" lon="3.66938">
        <ele>252</ele>
      </trkpt>
      <trkpt lat="43.66025" lon="3.66936">
        <ele>252</ele>
      </trkpt>
      <trkpt lat="43.66024" lon="3.66933">
        <ele>252</ele>
      </trkpt>
      <trkpt lat="43.66023" lon="3.6693">
        <ele>252</ele>
      </trkpt>
      <trkpt lat="43.66022" lon="3.66928">
        <ele>252</ele>
      </trkpt>
      <trkpt lat="43.6602" lon="3.66925">
        <ele>252</ele>
      </trkpt>
      <trkpt lat="43.6602" lon="3.66922">
        <ele>252</ele>
      </trkpt>
      <trkpt lat="43.66019" lon="3.6692">
        <ele>252</ele>
      </trkpt>
      <trkpt lat="43.66018" lon="3.66917">
        <ele>252</ele>
      </trkpt>
      <trkpt lat="43.66017" lon="3.66914">
        <ele>252</ele>
      </trkpt>
      <trkpt lat="43.66017" lon="3.6691">
        <ele>252</ele>
      </trkpt>
      <trkpt lat="43.66016" lon="3.66907">
        <ele>252</ele>
      </trkpt>
      <trkpt lat="43.66016" lon="3.66905">
        <ele>252</ele>
      </trkpt>
      <trkpt lat="43.66015" lon="3.66902">
        <ele>252</ele>
      </trkpt>
      <trkpt lat="43.66015" lon="3.66899">
        <ele>252</ele>
      </trkpt>
      <trkpt lat="43.66013" lon="3.66896">
        <ele>252</ele>
      </trkpt>
      <trkpt lat="43.66013" lon="3.66893">
        <ele>252</ele>
      </trkpt>
      <trkpt lat="43.66013" lon="3.6689">
        <ele>252</ele>
      </trkpt>
      <trkpt lat="43.66012" lon="3.66887">
        <ele>252</ele>
      </trkpt>
      <trkpt lat="43.66011" lon="3.66885">
        <ele>252</ele>
      </trkpt>
      <trkpt lat="43.66011" lon="3.6688">
        <ele>252</ele>
      </trkpt>
      <trkpt lat="43.6601" lon="3.66878">
        <ele>251</ele>
      </trkpt>
      <trkpt lat="43.6601" lon="3.66875">
        <ele>251</ele>
      </trkpt>
      <trkpt lat="43.66009" lon="3.66871">
        <ele>251</ele>
      </trkpt>
      <trkpt lat="43.66009" lon="3.66867">
        <ele>251</ele>
      </trkpt>
      <trkpt lat="43.66008" lon="3.66864">
        <ele>251</ele>
      </trkpt>
      <trkpt lat="43.66007" lon="3.66861">
        <ele>251</ele>
      </trkpt>
      <trkpt lat="43.66007" lon="3.66858">
        <ele>251</ele>
      </trkpt>
      <trkpt lat="43.66006" lon="3.66855">
        <ele>251</ele>
      </trkpt>
      <trkpt lat="43.66006" lon="3.66851">
        <ele>251</ele>
      </trkpt>
      <trkpt lat="43.66005" lon="3.66848">
        <ele>251</ele>
      </trkpt>
      <trkpt lat="43.66004" lon="3.66845">
        <ele>250</ele>
      </trkpt>
      <trkpt lat="43.66003" lon="3.66841">
        <ele>250</ele>
      </trkpt>
      <trkpt lat="43.66003" lon="3.66838">
        <ele>250</ele>
      </trkpt>
      <trkpt lat="43.66001" lon="3.66835">
        <ele>250</ele>
      </trkpt>
      <trkpt lat="43.66001" lon="3.66832">
        <ele>250</ele>
      </trkpt>
      <trkpt lat="43.66" lon="3.66829">
        <ele>250</ele>
      </trkpt>
      <trkpt lat="43.65999" lon="3.66825">
        <ele>250</ele>
      </trkpt>
      <trkpt lat="43.65998" lon="3.66822">
        <ele>250</ele>
      </trkpt>
      <trkpt lat="43.65997" lon="3.66819">
        <ele>250</ele>
      </trkpt>
      <trkpt lat="43.65997" lon="3.66816">
        <ele>249</ele>
      </trkpt>
      <trkpt lat="43.65997" lon="3.66812">
        <ele>249</ele>
      </trkpt>
      <trkpt lat="43.65997" lon="3.6681">
        <ele>249</ele>
      </trkpt>
      <trkpt lat="43.65996" lon="3.66807">
        <ele>249</ele>
      </trkpt>
      <trkpt lat="43.65996" lon="3.66803">
        <ele>249</ele>
      </trkpt>
      <trkpt lat="43.65995" lon="3.668">
        <ele>249</ele>
      </trkpt>
      <trkpt lat="43.65995" lon="3.66796">
        <ele>249</ele>
      </trkpt>
      <trkpt lat="43.65994" lon="3.66792">
        <ele>249</ele>
      </trkpt>
      <trkpt lat="43.65993" lon="3.66788">
        <ele>249</ele>
      </trkpt>
      <trkpt lat="43.65992" lon="3.66783">
        <ele>248</ele>
      </trkpt>
      <trkpt lat="43.65992" lon="3.66779">
        <ele>248</ele>
      </trkpt>
      <trkpt lat="43.65991" lon="3.66775">
        <ele>248</ele>
      </trkpt>
      <trkpt lat="43.65991" lon="3.66771">
        <ele>248</ele>
      </trkpt>
      <trkpt lat="43.6599" lon="3.66766">
        <ele>248</ele>
      </trkpt>
      <trkpt lat="43.6599" lon="3.66752">
        <ele>248</ele>
      </trkpt>
      <trkpt lat="43.65989" lon="3.66748">
        <ele>248</ele>
      </trkpt>
      <trkpt lat="43.65988" lon="3.66745">
        <ele>248</ele>
      </trkpt>
      <trkpt lat="43.65987" lon="3.66741">
        <ele>248</ele>
      </trkpt>
      <trkpt lat="43.65986" lon="3.66738">
        <ele>247</ele>
      </trkpt>
      <trkpt lat="43.65985" lon="3.66729">
        <ele>247</ele>
      </trkpt>
      <trkpt lat="43.65985" lon="3.66726">
        <ele>247</ele>
      </trkpt>
      <trkpt lat="43.65985" lon="3.66723">
        <ele>247</ele>
      </trkpt>
      <trkpt lat="43.65985" lon="3.6672">
        <ele>247</ele>
      </trkpt>
      <trkpt lat="43.65982" lon="3.66716">
        <ele>247</ele>
      </trkpt>
      <trkpt lat="43.65982" lon="3.66714">
        <ele>247</ele>
      </trkpt>
      <trkpt lat="43.6598" lon="3.66711">
        <ele>246</ele>
      </trkpt>
      <trkpt lat="43.65978" lon="3.66709">
        <ele>246</ele>
      </trkpt>
      <trkpt lat="43.65977" lon="3.66707">
        <ele>246</ele>
      </trkpt>
      <trkpt lat="43.65975" lon="3.66705">
        <ele>246</ele>
      </trkpt>
      <trkpt lat="43.65973" lon="3.66703">
        <ele>246</ele>
      </trkpt>
      <trkpt lat="43.65971" lon="3.66702">
        <ele>246</ele>
      </trkpt>
      <trkpt lat="43.65968" lon="3.66701">
        <ele>246</ele>
      </trkpt>
      <trkpt lat="43.65962" lon="3.66699">
        <ele>246</ele>
      </trkpt>
      <trkpt lat="43.65952" lon="3.66692">
        <ele>245</ele>
      </trkpt>
      <trkpt lat="43.6595" lon="3.6669">
        <ele>245</ele>
      </trkpt>
      <trkpt lat="43.65948" lon="3.66687">
        <ele>245</ele>
      </trkpt>
      <trkpt lat="43.65947" lon="3.66684">
        <ele>245</ele>
      </trkpt>
      <trkpt lat="43.65946" lon="3.66681">
        <ele>245</ele>
      </trkpt>
      <trkpt lat="43.65944" lon="3.66676">
        <ele>245</ele>
      </trkpt>
      <trkpt lat="43.65942" lon="3.66673">
        <ele>245</ele>
      </trkpt>
      <trkpt lat="43.65941" lon="3.66668">
        <ele>245</ele>
      </trkpt>
      <trkpt lat="43.65939" lon="3.66665">
        <ele>245</ele>
      </trkpt>
      <trkpt lat="43.65937" lon="3.66661">
        <ele>245</ele>
      </trkpt>
      <trkpt lat="43.65935" lon="3.66657">
        <ele>245</ele>
      </trkpt>
      <trkpt lat="43.65934" lon="3.66652">
        <ele>245</ele>
      </trkpt>
      <trkpt lat="43.65932" lon="3.66647">
        <ele>245</ele>
      </trkpt>
      <trkpt lat="43.65931" lon="3.66643">
        <ele>245</ele>
      </trkpt>
      <trkpt lat="43.6593" lon="3.66639">
        <ele>245</ele>
      </trkpt>
      <trkpt lat="43.65929" lon="3.66634">
        <ele>245</ele>
      </trkpt>
      <trkpt lat="43.65928" lon="3.6663">
        <ele>245</ele>
      </trkpt>
      <trkpt lat="43.65927" lon="3.66626">
        <ele>245</ele>
      </trkpt>
      <trkpt lat="43.65926" lon="3.66622">
        <ele>244</ele>
      </trkpt>
      <trkpt lat="43.65925" lon="3.66616">
        <ele>244</ele>
      </trkpt>
      <trkpt lat="43.65924" lon="3.66613">
        <ele>244</ele>
      </trkpt>
      <trkpt lat="43.65922" lon="3.6661">
        <ele>244</ele>
      </trkpt>
      <trkpt lat="43.6592" lon="3.66607">
        <ele>244</ele>
      </trkpt>
      <trkpt lat="43.65918" lon="3.66603">
        <ele>244</ele>
      </trkpt>
      <trkpt lat="43.65916" lon="3.666">
        <ele>244</ele>
      </trkpt>
      <trkpt lat="43.65914" lon="3.66586">
        <ele>244</ele>
      </trkpt>
      <trkpt lat="43.65915" lon="3.6658">
        <ele>244</ele>
      </trkpt>
      <trkpt lat="43.65916" lon="3.66577">
        <ele>244</ele>
      </trkpt>
      <trkpt lat="43.65916" lon="3.66574">
        <ele>244</ele>
      </trkpt>
      <trkpt lat="43.65916" lon="3.66571">
        <ele>244</ele>
      </trkpt>
      <trkpt lat="43.65917" lon="3.66568">
        <ele>244</ele>
      </trkpt>
      <trkpt lat="43.65916" lon="3.66565">
        <ele>244</ele>
      </trkpt>
      <trkpt lat="43.65916" lon="3.66562">
        <ele>244</ele>
      </trkpt>
      <trkpt lat="43.65916" lon="3.66558">
        <ele>244</ele>
      </trkpt>
      <trkpt lat="43.65916" lon="3.66554">
        <ele>242</ele>
      </trkpt>
      <trkpt lat="43.65916" lon="3.66548">
        <ele>242</ele>
      </trkpt>
      <trkpt lat="43.65916" lon="3.66543">
        <ele>242</ele>
      </trkpt>
      <trkpt lat="43.65915" lon="3.66538">
        <ele>242</ele>
      </trkpt>
      <trkpt lat="43.65915" lon="3.66533">
        <ele>242</ele>
      </trkpt>
      <trkpt lat="43.65913" lon="3.66519">
        <ele>242</ele>
      </trkpt>
      <trkpt lat="43.65914" lon="3.66514">
        <ele>242</ele>
      </trkpt>
      <trkpt lat="43.65914" lon="3.66508">
        <ele>242</ele>
      </trkpt>
      <trkpt lat="43.65915" lon="3.66503">
        <ele>241</ele>
      </trkpt>
      <trkpt lat="43.65917" lon="3.66497">
        <ele>241</ele>
      </trkpt>
      <trkpt lat="43.6592" lon="3.66494">
        <ele>241</ele>
      </trkpt>
      <trkpt lat="43.65922" lon="3.66493">
        <ele>241</ele>
      </trkpt>
      <trkpt lat="43.65924" lon="3.66494">
        <ele>241</ele>
      </trkpt>
      <trkpt lat="43.65925" lon="3.66497">
        <ele>241</ele>
      </trkpt>
      <trkpt lat="43.65923" lon="3.66496">
        <ele>241</ele>
      </trkpt>
      <trkpt lat="43.65922" lon="3.66494">
        <ele>240</ele>
      </trkpt>
      <trkpt lat="43.65921" lon="3.6649">
        <ele>240</ele>
      </trkpt>
      <trkpt lat="43.65921" lon="3.66487">
        <ele>240</ele>
      </trkpt>
      <trkpt lat="43.65923" lon="3.66487">
        <ele>240</ele>
      </trkpt>
      <trkpt lat="43.65925" lon="3.66487">
        <ele>238</ele>
      </trkpt>
      <trkpt lat="43.65925" lon="3.66487">
        <ele>239</ele>
      </trkpt>
      <trkpt lat="43.65932" lon="3.66485">
        <ele>238</ele>
      </trkpt>
      <trkpt lat="43.65933" lon="3.66485">
        <ele>238</ele>
      </trkpt>
      <trkpt lat="43.65935" lon="3.66485">
        <ele>238</ele>
      </trkpt>
      <trkpt lat="43.65938" lon="3.66485">
        <ele>238</ele>
      </trkpt>
      <trkpt lat="43.6594" lon="3.66485">
        <ele>238</ele>
      </trkpt>
      <trkpt lat="43.65944" lon="3.66484">
        <ele>238</ele>
      </trkpt>
      <trkpt lat="43.65946" lon="3.66484">
        <ele>238</ele>
      </trkpt>
      <trkpt lat="43.65948" lon="3.66484">
        <ele>238</ele>
      </trkpt>
      <trkpt lat="43.65952" lon="3.66484">
        <ele>238</ele>
      </trkpt>
      <trkpt lat="43.65953" lon="3.66484">
        <ele>238</ele>
      </trkpt>
      <trkpt lat="43.65956" lon="3.66485">
        <ele>238</ele>
      </trkpt>
      <trkpt lat="43.65958" lon="3.66487">
        <ele>238</ele>
      </trkpt>
      <trkpt lat="43.6596" lon="3.66488">
        <ele>238</ele>
      </trkpt>
      <trkpt lat="43.65962" lon="3.6649">
        <ele>237</ele>
      </trkpt>
      <trkpt lat="43.65964" lon="3.66491">
        <ele>237</ele>
      </trkpt>
      <trkpt lat="43.65967" lon="3.66492">
        <ele>237</ele>
      </trkpt>
      <trkpt lat="43.65968" lon="3.66494">
        <ele>237</ele>
      </trkpt>
      <trkpt lat="43.6597" lon="3.66496">
        <ele>237</ele>
      </trkpt>
      <trkpt lat="43.65972" lon="3.66497">
        <ele>237</ele>
      </trkpt>
      <trkpt lat="43.65974" lon="3.66498">
        <ele>237</ele>
      </trkpt>
      <trkpt lat="43.65976" lon="3.665">
        <ele>237</ele>
      </trkpt>
      <trkpt lat="43.65978" lon="3.66501">
        <ele>237</ele>
      </trkpt>
      <trkpt lat="43.6598" lon="3.66503">
        <ele>237</ele>
      </trkpt>
      <trkpt lat="43.65982" lon="3.66504">
        <ele>238</ele>
      </trkpt>
      <trkpt lat="43.65984" lon="3.66505">
        <ele>238</ele>
      </trkpt>
      <trkpt lat="43.65986" lon="3.66507">
        <ele>238</ele>
      </trkpt>
      <trkpt lat="43.65989" lon="3.66509">
        <ele>238</ele>
      </trkpt>
      <trkpt lat="43.6599" lon="3.66511">
        <ele>238</ele>
      </trkpt>
      <trkpt lat="43.65992" lon="3.66512">
        <ele>238</ele>
      </trkpt>
      <trkpt lat="43.65994" lon="3.66514">
        <ele>238</ele>
      </trkpt>
      <trkpt lat="43.65997" lon="3.66516">
        <ele>238</ele>
      </trkpt>
      <trkpt lat="43.65999" lon="3.66517">
        <ele>238</ele>
      </trkpt>
      <trkpt lat="43.66001" lon="3.66519">
        <ele>238</ele>
      </trkpt>
      <trkpt lat="43.66003" lon="3.66521">
        <ele>238</ele>
      </trkpt>
      <trkpt lat="43.66005" lon="3.66522">
        <ele>238</ele>
      </trkpt>
      <trkpt lat="43.66007" lon="3.66523">
        <ele>238</ele>
      </trkpt>
      <trkpt lat="43.66009" lon="3.66524">
        <ele>238</ele>
      </trkpt>
      <trkpt lat="43.66012" lon="3.66524">
        <ele>238</ele>
      </trkpt>
      <trkpt lat="43.66013" lon="3.66525">
        <ele>238</ele>
      </trkpt>
      <trkpt lat="43.66017" lon="3.66525">
        <ele>238</ele>
      </trkpt>
      <trkpt lat="43.6602" lon="3.66524">
        <ele>239</ele>
      </trkpt>
      <trkpt lat="43.66023" lon="3.66524">
        <ele>239</ele>
      </trkpt>
      <trkpt lat="43.66026" lon="3.66523">
        <ele>239</ele>
      </trkpt>
      <trkpt lat="43.66029" lon="3.66522">
        <ele>239</ele>
      </trkpt>
      <trkpt lat="43.66032" lon="3.66522">
        <ele>239</ele>
      </trkpt>
      <trkpt lat="43.66035" lon="3.66521">
        <ele>239</ele>
      </trkpt>
      <trkpt lat="43.66037" lon="3.6652">
        <ele>239</ele>
      </trkpt>
      <trkpt lat="43.66039" lon="3.6652">
        <ele>239</ele>
      </trkpt>
      <trkpt lat="43.66041" lon="3.66519">
        <ele>239</ele>
      </trkpt>
      <trkpt lat="43.66044" lon="3.66519">
        <ele>239</ele>
      </trkpt>
      <trkpt lat="43.66046" lon="3.66518">
        <ele>239</ele>
      </trkpt>
      <trkpt lat="43.66049" lon="3.66517">
        <ele>239</ele>
      </trkpt>
      <trkpt lat="43.66051" lon="3.66517">
        <ele>239</ele>
      </trkpt>
      <trkpt lat="43.66054" lon="3.66517">
        <ele>239</ele>
      </trkpt>
      <trkpt lat="43.66057" lon="3.66517">
        <ele>239</ele>
      </trkpt>
      <trkpt lat="43.66059" lon="3.66516">
        <ele>241</ele>
      </trkpt>
      <trkpt lat="43.66061" lon="3.66515">
        <ele>241</ele>
      </trkpt>
      <trkpt lat="43.66063" lon="3.66514">
        <ele>241</ele>
      </trkpt>
      <trkpt lat="43.66067" lon="3.66514">
        <ele>241</ele>
      </trkpt>
      <trkpt lat="43.66069" lon="3.66514">
        <ele>241</ele>
      </trkpt>
      <trkpt lat="43.66072" lon="3.66514">
        <ele>240</ele>
      </trkpt>
      <trkpt lat="43.66074" lon="3.66514">
        <ele>240</ele>
      </trkpt>
      <trkpt lat="43.66077" lon="3.66514">
        <ele>240</ele>
      </trkpt>
      <trkpt lat="43.66079" lon="3.66516">
        <ele>240</ele>
      </trkpt>
      <trkpt lat="43.66082" lon="3.66516">
        <ele>240</ele>
      </trkpt>
      <trkpt lat="43.66084" lon="3.66516">
        <ele>240</ele>
      </trkpt>
      <trkpt lat="43.66087" lon="3.66517">
        <ele>240</ele>
      </trkpt>
      <trkpt lat="43.66089" lon="3.66517">
        <ele>240</ele>
      </trkpt>
      <trkpt lat="43.66092" lon="3.66519">
        <ele>240</ele>
      </trkpt>
      <trkpt lat="43.66094" lon="3.6652">
        <ele>240</ele>
      </trkpt>
      <trkpt lat="43.66096" lon="3.66521">
        <ele>240</ele>
      </trkpt>
      <trkpt lat="43.661" lon="3.66521">
        <ele>240</ele>
      </trkpt>
      <trkpt lat="43.66103" lon="3.66521">
        <ele>240</ele>
      </trkpt>
      <trkpt lat="43.66105" lon="3.66522">
        <ele>240</ele>
      </trkpt>
      <trkpt lat="43.66109" lon="3.66522">
        <ele>240</ele>
      </trkpt>
      <trkpt lat="43.66111" lon="3.66523">
        <ele>241</ele>
      </trkpt>
      <trkpt lat="43.66114" lon="3.66523">
        <ele>241</ele>
      </trkpt>
      <trkpt lat="43.66117" lon="3.66524">
        <ele>241</ele>
      </trkpt>
      <trkpt lat="43.6612" lon="3.66525">
        <ele>241</ele>
      </trkpt>
      <trkpt lat="43.66122" lon="3.66527">
        <ele>241</ele>
      </trkpt>
      <trkpt lat="43.66125" lon="3.6653">
        <ele>241</ele>
      </trkpt>
      <trkpt lat="43.66126" lon="3.66532">
        <ele>241</ele>
      </trkpt>
      <trkpt lat="43.66128" lon="3.66535">
        <ele>241</ele>
      </trkpt>
      <trkpt lat="43.6613" lon="3.66538">
        <ele>241</ele>
      </trkpt>
      <trkpt lat="43.66132" lon="3.6654">
        <ele>241</ele>
      </trkpt>
      <trkpt lat="43.66134" lon="3.66543">
        <ele>242</ele>
      </trkpt>
      <trkpt lat="43.66137" lon="3.66544">
        <ele>242</ele>
      </trkpt>
      <trkpt lat="43.6614" lon="3.66547">
        <ele>242</ele>
      </trkpt>
      <trkpt lat="43.66141" lon="3.66549">
        <ele>242</ele>
      </trkpt>
      <trkpt lat="43.66144" lon="3.66551">
        <ele>242</ele>
      </trkpt>
      <trkpt lat="43.66147" lon="3.66553">
        <ele>243</ele>
      </trkpt>
      <trkpt lat="43.66149" lon="3.66556">
        <ele>243</ele>
      </trkpt>
      <trkpt lat="43.66151" lon="3.66558">
        <ele>243</ele>
      </trkpt>
      <trkpt lat="43.66154" lon="3.6656">
        <ele>243</ele>
      </trkpt>
      <trkpt lat="43.66156" lon="3.66563">
        <ele>243</ele>
      </trkpt>
      <trkpt lat="43.66158" lon="3.66566">
        <ele>244</ele>
      </trkpt>
      <trkpt lat="43.6616" lon="3.66569">
        <ele>244</ele>
      </trkpt>
      <trkpt lat="43.66163" lon="3.66571">
        <ele>244</ele>
      </trkpt>
      <trkpt lat="43.66166" lon="3.66571">
        <ele>244</ele>
      </trkpt>
      <trkpt lat="43.66169" lon="3.66574">
        <ele>244</ele>
      </trkpt>
      <trkpt lat="43.66172" lon="3.66575">
        <ele>245</ele>
      </trkpt>
      <trkpt lat="43.66174" lon="3.66577">
        <ele>245</ele>
      </trkpt>
      <trkpt lat="43.66177" lon="3.66578">
        <ele>245</ele>
      </trkpt>
      <trkpt lat="43.66179" lon="3.66581">
        <ele>245</ele>
      </trkpt>
      <trkpt lat="43.66182" lon="3.66583">
        <ele>245</ele>
      </trkpt>
      <trkpt lat="43.66185" lon="3.66586">
        <ele>246</ele>
      </trkpt>
      <trkpt lat="43.66187" lon="3.66589">
        <ele>246</ele>
      </trkpt>
      <trkpt lat="43.66191" lon="3.66591">
        <ele>246</ele>
      </trkpt>
      <trkpt lat="43.66194" lon="3.66593">
        <ele>246</ele>
      </trkpt>
      <trkpt lat="43.66196" lon="3.66595">
        <ele>246</ele>
      </trkpt>
      <trkpt lat="43.66199" lon="3.66598">
        <ele>247</ele>
      </trkpt>
      <trkpt lat="43.66203" lon="3.66599">
        <ele>247</ele>
      </trkpt>
      <trkpt lat="43.66206" lon="3.666">
        <ele>247</ele>
      </trkpt>
      <trkpt lat="43.66209" lon="3.666">
        <ele>247</ele>
      </trkpt>
      <trkpt lat="43.6621" lon="3.66599">
        <ele>247</ele>
      </trkpt>
      <trkpt lat="43.66212" lon="3.66599">
        <ele>247</ele>
      </trkpt>
      <trkpt lat="43.66214" lon="3.666">
        <ele>247</ele>
      </trkpt>
      <trkpt lat="43.66216" lon="3.666">
        <ele>247</ele>
      </trkpt>
      <trkpt lat="43.66219" lon="3.66601">
        <ele>247</ele>
      </trkpt>
      <trkpt lat="43.6622" lon="3.66601">
        <ele>247</ele>
      </trkpt>
      <trkpt lat="43.66222" lon="3.66602">
        <ele>247</ele>
      </trkpt>
      <trkpt lat="43.66225" lon="3.66603">
        <ele>247</ele>
      </trkpt>
      <trkpt lat="43.66227" lon="3.66604">
        <ele>247</ele>
      </trkpt>
      <trkpt lat="43.66229" lon="3.66605">
        <ele>247</ele>
      </trkpt>
      <trkpt lat="43.66231" lon="3.66605">
        <ele>247</ele>
      </trkpt>
      <trkpt lat="43.66233" lon="3.66606">
        <ele>247</ele>
      </trkpt>
      <trkpt lat="43.66235" lon="3.66607">
        <ele>247</ele>
      </trkpt>
      <trkpt lat="43.66237" lon="3.66607">
        <ele>247</ele>
      </trkpt>
      <trkpt lat="43.6624" lon="3.66608">
        <ele>247</ele>
      </trkpt>
      <trkpt lat="43.66241" lon="3.66609">
        <ele>247</ele>
      </trkpt>
      <trkpt lat="43.66244" lon="3.6661">
        <ele>247</ele>
      </trkpt>
      <trkpt lat="43.66246" lon="3.66611">
        <ele>247</ele>
      </trkpt>
      <trkpt lat="43.66248" lon="3.66611">
        <ele>247</ele>
      </trkpt>
      <trkpt lat="43.66251" lon="3.66612">
        <ele>247</ele>
      </trkpt>
      <trkpt lat="43.66253" lon="3.66612">
        <ele>247</ele>
      </trkpt>
      <trkpt lat="43.66256" lon="3.66613">
        <ele>247</ele>
      </trkpt>
      <trkpt lat="43.66259" lon="3.66613">
        <ele>247</ele>
      </trkpt>
      <trkpt lat="43.66261" lon="3.66614">
        <ele>248</ele>
      </trkpt>
      <trkpt lat="43.66264" lon="3.66615">
        <ele>248</ele>
      </trkpt>
      <trkpt lat="43.66267" lon="3.66616">
        <ele>248</ele>
      </trkpt>
      <trkpt lat="43.66269" lon="3.66617">
        <ele>248</ele>
      </trkpt>
      <trkpt lat="43.66272" lon="3.66618">
        <ele>248</ele>
      </trkpt>
      <trkpt lat="43.66275" lon="3.66619">
        <ele>248</ele>
      </trkpt>
      <trkpt lat="43.66278" lon="3.6662">
        <ele>248</ele>
      </trkpt>
      <trkpt lat="43.6628" lon="3.6662">
        <ele>248</ele>
      </trkpt>
      <trkpt lat="43.66284" lon="3.66618">
        <ele>248</ele>
      </trkpt>
      <trkpt lat="43.66286" lon="3.66615">
        <ele>248</ele>
      </trkpt>
      <trkpt lat="43.6629" lon="3.66613">
        <ele>248</ele>
      </trkpt>
      <trkpt lat="43.66293" lon="3.66612">
        <ele>248</ele>
      </trkpt>
      <trkpt lat="43.66296" lon="3.66612">
        <ele>248</ele>
      </trkpt>
      <trkpt lat="43.663" lon="3.66612">
        <ele>248</ele>
      </trkpt>
      <trkpt lat="43.66305" lon="3.66613">
        <ele>248</ele>
      </trkpt>
      <trkpt lat="43.66308" lon="3.66613">
        <ele>248</ele>
      </trkpt>
      <trkpt lat="43.66312" lon="3.66613">
        <ele>248</ele>
      </trkpt>
      <trkpt lat="43.66316" lon="3.6661">
        <ele>245</ele>
      </trkpt>
      <trkpt lat="43.6632" lon="3.66606">
        <ele>245</ele>
      </trkpt>
      <trkpt lat="43.66324" lon="3.66603">
        <ele>245</ele>
      </trkpt>
      <trkpt lat="43.66328" lon="3.66602">
        <ele>245</ele>
      </trkpt>
      <trkpt lat="43.66338" lon="3.666">
        <ele>245</ele>
      </trkpt>
      <trkpt lat="43.66351" lon="3.66595">
        <ele>245</ele>
      </trkpt>
      <trkpt lat="43.66363" lon="3.66588">
        <ele>244</ele>
      </trkpt>
      <trkpt lat="43.66375" lon="3.66582">
        <ele>244</ele>
      </trkpt>
      <trkpt lat="43.66383" lon="3.66567">
        <ele>244</ele>
      </trkpt>
      <trkpt lat="43.6639" lon="3.66555">
        <ele>242</ele>
      </trkpt>
      <trkpt lat="43.66399" lon="3.66548">
        <ele>242</ele>
      </trkpt>
      <trkpt lat="43.66407" lon="3.66534">
        <ele>242</ele>
      </trkpt>
      <trkpt lat="43.6641" lon="3.66518">
        <ele>239</ele>
      </trkpt>
      <trkpt lat="43.66412" lon="3.66505">
        <ele>239</ele>
      </trkpt>
      <trkpt lat="43.66411" lon="3.66487">
        <ele>239</ele>
      </trkpt>
      <trkpt lat="43.66409" lon="3.6647">
        <ele>239</ele>
      </trkpt>
      <trkpt lat="43.66405" lon="3.66457">
        <ele>237</ele>
      </trkpt>
      <trkpt lat="43.66403" lon="3.66451">
        <ele>237</ele>
      </trkpt>
      <trkpt lat="43.664" lon="3.66446">
        <ele>237</ele>
      </trkpt>
      <trkpt lat="43.66396" lon="3.66439">
        <ele>237</ele>
      </trkpt>
      <trkpt lat="43.66391" lon="3.66427">
        <ele>237</ele>
      </trkpt>
      <trkpt lat="43.66387" lon="3.66415">
        <ele>237</ele>
      </trkpt>
      <trkpt lat="43.66383" lon="3.66397">
        <ele>235</ele>
      </trkpt>
      <trkpt lat="43.66381" lon="3.66381">
        <ele>235</ele>
      </trkpt>
      <trkpt lat="43.66382" lon="3.66368">
        <ele>235</ele>
      </trkpt>
      <trkpt lat="43.66383" lon="3.66354">
        <ele>235</ele>
      </trkpt>
      <trkpt lat="43.66382" lon="3.66341">
        <ele>232</ele>
      </trkpt>
      <trkpt lat="43.66382" lon="3.66336">
        <ele>232</ele>
      </trkpt>
      <trkpt lat="43.66383" lon="3.66332">
        <ele>232</ele>
      </trkpt>
      <trkpt lat="43.66383" lon="3.66326">
        <ele>232</ele>
      </trkpt>
      <trkpt lat="43.66383" lon="3.6632">
        <ele>232</ele>
      </trkpt>
      <trkpt lat="43.66384" lon="3.66314">
        <ele>232</ele>
      </trkpt>
      <trkpt lat="43.66385" lon="3.66309">
        <ele>232</ele>
      </trkpt>
      <trkpt lat="43.66386" lon="3.66305">
        <ele>232</ele>
      </trkpt>
      <trkpt lat="43.66387" lon="3.663">
        <ele>229</ele>
      </trkpt>
      <trkpt lat="43.66387" lon="3.66296">
        <ele>229</ele>
      </trkpt>
      <trkpt lat="43.66387" lon="3.66291">
        <ele>229</ele>
      </trkpt>
      <trkpt lat="43.66388" lon="3.66287">
        <ele>229</ele>
      </trkpt>
      <trkpt lat="43.66387" lon="3.66282">
        <ele>229</ele>
      </trkpt>
      <trkpt lat="43.66388" lon="3.66279">
        <ele>229</ele>
      </trkpt>
      <trkpt lat="43.66388" lon="3.66277">
        <ele>229</ele>
      </trkpt>
      <trkpt lat="43.66389" lon="3.66273">
        <ele>229</ele>
      </trkpt>
      <trkpt lat="43.6639" lon="3.66271">
        <ele>229</ele>
      </trkpt>
      <trkpt lat="43.66392" lon="3.66269">
        <ele>229</ele>
      </trkpt>
      <trkpt lat="43.66395" lon="3.66268">
        <ele>226</ele>
      </trkpt>
      <trkpt lat="43.66396" lon="3.66267">
        <ele>226</ele>
      </trkpt>
      <trkpt lat="43.66398" lon="3.66267">
        <ele>226</ele>
      </trkpt>
      <trkpt lat="43.664" lon="3.66267">
        <ele>226</ele>
      </trkpt>
      <trkpt lat="43.66402" lon="3.66268">
        <ele>226</ele>
      </trkpt>
      <trkpt lat="43.66404" lon="3.66269">
        <ele>226</ele>
      </trkpt>
      <trkpt lat="43.66407" lon="3.66269">
        <ele>226</ele>
      </trkpt>
      <trkpt lat="43.66409" lon="3.6627">
        <ele>226</ele>
      </trkpt>
      <trkpt lat="43.66412" lon="3.66271">
        <ele>226</ele>
      </trkpt>
      <trkpt lat="43.66414" lon="3.66271">
        <ele>225</ele>
      </trkpt>
      <trkpt lat="43.66415" lon="3.66271">
        <ele>225</ele>
      </trkpt>
      <trkpt lat="43.66418" lon="3.66271">
        <ele>225</ele>
      </trkpt>
      <trkpt lat="43.66421" lon="3.66271">
        <ele>225</ele>
      </trkpt>
      <trkpt lat="43.66424" lon="3.66272">
        <ele>225</ele>
      </trkpt>
      <trkpt lat="43.66427" lon="3.66273">
        <ele>225</ele>
      </trkpt>
      <trkpt lat="43.66431" lon="3.66274">
        <ele>225</ele>
      </trkpt>
      <trkpt lat="43.66433" lon="3.66275">
        <ele>225</ele>
      </trkpt>
      <trkpt lat="43.66436" lon="3.66277">
        <ele>225</ele>
      </trkpt>
      <trkpt lat="43.66438" lon="3.6628">
        <ele>225</ele>
      </trkpt>
      <trkpt lat="43.66441" lon="3.66281">
        <ele>225</ele>
      </trkpt>
      <trkpt lat="43.66467" lon="3.6629">
        <ele>225</ele>
      </trkpt>
      <trkpt lat="43.6647" lon="3.66292">
        <ele>225</ele>
      </trkpt>
      <trkpt lat="43.66443" lon="3.66283">
        <ele>225</ele>
      </trkpt>
      <trkpt lat="43.66472" lon="3.66293">
        <ele>225</ele>
      </trkpt>
      <trkpt lat="43.66446" lon="3.66285">
        <ele>225</ele>
      </trkpt>
      <trkpt lat="43.66474" lon="3.66294">
        <ele>225</ele>
      </trkpt>
      <trkpt lat="43.66476" lon="3.66295">
        <ele>225</ele>
      </trkpt>
      <trkpt lat="43.66478" lon="3.66295">
        <ele>225</ele>
      </trkpt>
      <trkpt lat="43.66449" lon="3.66285">
        <ele>225</ele>
      </trkpt>
      <trkpt lat="43.6648" lon="3.66296">
        <ele>225</ele>
      </trkpt>
      <trkpt lat="43.66482" lon="3.66296">
        <ele>225</ele>
      </trkpt>
      <trkpt lat="43.66452" lon="3.66286">
        <ele>225</ele>
      </trkpt>
      <trkpt lat="43.66484" lon="3.66296">
        <ele>225</ele>
      </trkpt>
      <trkpt lat="43.66486" lon="3.66297">
        <ele>225</ele>
      </trkpt>
      <trkpt lat="43.66455" lon="3.66287">
        <ele>225</ele>
      </trkpt>
      <trkpt lat="43.66489" lon="3.66297">
        <ele>225</ele>
      </trkpt>
      <trkpt lat="43.66491" lon="3.66297">
        <ele>225</ele>
      </trkpt>
      <trkpt lat="43.66458" lon="3.6629">
        <ele>224</ele>
      </trkpt>
      <trkpt lat="43.66494" lon="3.66298">
        <ele>225</ele>
      </trkpt>
      <trkpt lat="43.66496" lon="3.66299">
        <ele>225</ele>
      </trkpt>
      <trkpt lat="43.66497" lon="3.66299">
        <ele>225</ele>
      </trkpt>
      <trkpt lat="43.665" lon="3.663">
        <ele>225</ele>
      </trkpt>
      <trkpt lat="43.66459" lon="3.6629">
        <ele>224</ele>
      </trkpt>
      <trkpt lat="43.66502" lon="3.66301">
        <ele>225</ele>
      </trkpt>
      <trkpt lat="43.66504" lon="3.66301">
        <ele>225</ele>
      </trkpt>
      <trkpt lat="43.66506" lon="3.66302">
        <ele>225</ele>
      </trkpt>
      <trkpt lat="43.66459" lon="3.6629">
        <ele>224</ele>
      </trkpt>
      <trkpt lat="43.66509" lon="3.66303">
        <ele>225</ele>
      </trkpt>
      <trkpt lat="43.66511" lon="3.66304">
        <ele>226</ele>
      </trkpt>
      <trkpt lat="43.66513" lon="3.66305">
        <ele>226</ele>
      </trkpt>
      <trkpt lat="43.66516" lon="3.66306">
        <ele>226</ele>
      </trkpt>
      <trkpt lat="43.66518" lon="3.66306">
        <ele>226</ele>
      </trkpt>
      <trkpt lat="43.6652" lon="3.66307">
        <ele>226</ele>
      </trkpt>
      <trkpt lat="43.66522" lon="3.66307">
        <ele>226</ele>
      </trkpt>
      <trkpt lat="43.66525" lon="3.66308">
        <ele>226</ele>
      </trkpt>
      <trkpt lat="43.66528" lon="3.66308">
        <ele>226</ele>
      </trkpt>
      <trkpt lat="43.6653" lon="3.66308">
        <ele>226</ele>
      </trkpt>
      <trkpt lat="43.66532" lon="3.66309">
        <ele>226</ele>
      </trkpt>
      <trkpt lat="43.66535" lon="3.66309">
        <ele>225</ele>
      </trkpt>
      <trkpt lat="43.66537" lon="3.6631">
        <ele>225</ele>
      </trkpt>
      <trkpt lat="43.6654" lon="3.6631">
        <ele>225</ele>
      </trkpt>
      <trkpt lat="43.66542" lon="3.66311">
        <ele>225</ele>
      </trkpt>
      <trkpt lat="43.66545" lon="3.66312">
        <ele>225</ele>
      </trkpt>
      <trkpt lat="43.66547" lon="3.66313">
        <ele>225</ele>
      </trkpt>
      <trkpt lat="43.6655" lon="3.66314">
        <ele>225</ele>
      </trkpt>
      <trkpt lat="43.66552" lon="3.66314">
        <ele>225</ele>
      </trkpt>
      <trkpt lat="43.66555" lon="3.66315">
        <ele>225</ele>
      </trkpt>
      <trkpt lat="43.66558" lon="3.66316">
        <ele>225</ele>
      </trkpt>
      <trkpt lat="43.66561" lon="3.66317">
        <ele>226</ele>
      </trkpt>
      <trkpt lat="43.66564" lon="3.66317">
        <ele>226</ele>
      </trkpt>
      <trkpt lat="43.66567" lon="3.66319">
        <ele>226</ele>
      </trkpt>
      <trkpt lat="43.66569" lon="3.66319">
        <ele>226</ele>
      </trkpt>
      <trkpt lat="43.66572" lon="3.6632">
        <ele>226</ele>
      </trkpt>
      <trkpt lat="43.66575" lon="3.66321">
        <ele>226</ele>
      </trkpt>
      <trkpt lat="43.66578" lon="3.66322">
        <ele>226</ele>
      </trkpt>
      <trkpt lat="43.66581" lon="3.66323">
        <ele>226</ele>
      </trkpt>
      <trkpt lat="43.66584" lon="3.66324">
        <ele>226</ele>
      </trkpt>
      <trkpt lat="43.66588" lon="3.66325">
        <ele>226</ele>
      </trkpt>
      <trkpt lat="43.66591" lon="3.66327">
        <ele>225</ele>
      </trkpt>
      <trkpt lat="43.66595" lon="3.66329">
        <ele>225</ele>
      </trkpt>
      <trkpt lat="43.666" lon="3.66332">
        <ele>225</ele>
      </trkpt>
      <trkpt lat="43.66603" lon="3.66336">
        <ele>225</ele>
      </trkpt>
      <trkpt lat="43.66606" lon="3.6634">
        <ele>225</ele>
      </trkpt>
      <trkpt lat="43.66609" lon="3.66343">
        <ele>225</ele>
      </trkpt>
      <trkpt lat="43.66613" lon="3.66347">
        <ele>225</ele>
      </trkpt>
      <trkpt lat="43.66618" lon="3.66351">
        <ele>225</ele>
      </trkpt>
      <trkpt lat="43.66621" lon="3.66354">
        <ele>225</ele>
      </trkpt>
      <trkpt lat="43.66625" lon="3.66355">
        <ele>225</ele>
      </trkpt>
      <trkpt lat="43.66628" lon="3.66355">
        <ele>225</ele>
      </trkpt>
      <trkpt lat="43.66634" lon="3.66354">
        <ele>225</ele>
      </trkpt>
      <trkpt lat="43.66637" lon="3.66353">
        <ele>225</ele>
      </trkpt>
      <trkpt lat="43.6664" lon="3.66353">
        <ele>225</ele>
      </trkpt>
      <trkpt lat="43.66643" lon="3.66352">
        <ele>225</ele>
      </trkpt>
      <trkpt lat="43.66646" lon="3.66352">
        <ele>225</ele>
      </trkpt>
      <trkpt lat="43.66649" lon="3.66352">
        <ele>225</ele>
      </trkpt>
      <trkpt lat="43.66651" lon="3.66351">
        <ele>225</ele>
      </trkpt>
      <trkpt lat="43.66653" lon="3.66351">
        <ele>225</ele>
      </trkpt>
      <trkpt lat="43.66656" lon="3.6635">
        <ele>225</ele>
      </trkpt>
      <trkpt lat="43.66659" lon="3.6635">
        <ele>225</ele>
      </trkpt>
      <trkpt lat="43.66662" lon="3.66349">
        <ele>225</ele>
      </trkpt>
      <trkpt lat="43.66664" lon="3.66349">
        <ele>225</ele>
      </trkpt>
      <trkpt lat="43.66668" lon="3.66348">
        <ele>225</ele>
      </trkpt>
      <trkpt lat="43.6667" lon="3.66348">
        <ele>225</ele>
      </trkpt>
      <trkpt lat="43.66672" lon="3.66348">
        <ele>225</ele>
      </trkpt>
      <trkpt lat="43.66675" lon="3.66348">
        <ele>225</ele>
      </trkpt>
      <trkpt lat="43.66678" lon="3.66348">
        <ele>225</ele>
      </trkpt>
      <trkpt lat="43.66681" lon="3.66348">
        <ele>225</ele>
      </trkpt>
      <trkpt lat="43.66684" lon="3.66348">
        <ele>225</ele>
      </trkpt>
      <trkpt lat="43.66686" lon="3.66349">
        <ele>225</ele>
      </trkpt>
      <trkpt lat="43.66688" lon="3.66349">
        <ele>225</ele>
      </trkpt>
      <trkpt lat="43.6669" lon="3.6635">
        <ele>225</ele>
      </trkpt>
      <trkpt lat="43.66693" lon="3.66352">
        <ele>225</ele>
      </trkpt>
      <trkpt lat="43.66696" lon="3.66353">
        <ele>225</ele>
      </trkpt>
      <trkpt lat="43.66698" lon="3.66354">
        <ele>225</ele>
      </trkpt>
      <trkpt lat="43.66701" lon="3.66355">
        <ele>225</ele>
      </trkpt>
      <trkpt lat="43.66703" lon="3.66356">
        <ele>225</ele>
      </trkpt>
      <trkpt lat="43.66706" lon="3.66356">
        <ele>225</ele>
      </trkpt>
      <trkpt lat="43.66709" lon="3.66356">
        <ele>225</ele>
      </trkpt>
      <trkpt lat="43.66712" lon="3.66355">
        <ele>225</ele>
      </trkpt>
      <trkpt lat="43.66715" lon="3.66355">
        <ele>225</ele>
      </trkpt>
      <trkpt lat="43.66718" lon="3.66355">
        <ele>225</ele>
      </trkpt>
      <trkpt lat="43.6672" lon="3.66356">
        <ele>225</ele>
      </trkpt>
      <trkpt lat="43.66723" lon="3.66356">
        <ele>225</ele>
      </trkpt>
      <trkpt lat="43.66725" lon="3.66357">
        <ele>225</ele>
      </trkpt>
      <trkpt lat="43.66728" lon="3.66357">
        <ele>225</ele>
      </trkpt>
      <trkpt lat="43.66731" lon="3.66357">
        <ele>225</ele>
      </trkpt>
      <trkpt lat="43.66732" lon="3.66357">
        <ele>225</ele>
      </trkpt>
      <trkpt lat="43.66736" lon="3.66355">
        <ele>226</ele>
      </trkpt>
      <trkpt lat="43.66739" lon="3.66356">
        <ele>226</ele>
      </trkpt>
      <trkpt lat="43.66743" lon="3.66357">
        <ele>226</ele>
      </trkpt>
      <trkpt lat="43.66746" lon="3.66358">
        <ele>226</ele>
      </trkpt>
      <trkpt lat="43.66749" lon="3.66358">
        <ele>226</ele>
      </trkpt>
      <trkpt lat="43.66751" lon="3.66358">
        <ele>227</ele>
      </trkpt>
      <trkpt lat="43.66754" lon="3.66359">
        <ele>227</ele>
      </trkpt>
      <trkpt lat="43.66757" lon="3.6636">
        <ele>227</ele>
      </trkpt>
      <trkpt lat="43.66759" lon="3.66362">
        <ele>227</ele>
      </trkpt>
      <trkpt lat="43.66763" lon="3.66363">
        <ele>227</ele>
      </trkpt>
      <trkpt lat="43.66766" lon="3.66364">
        <ele>227</ele>
      </trkpt>
      <trkpt lat="43.66769" lon="3.66365">
        <ele>228</ele>
      </trkpt>
      <trkpt lat="43.66772" lon="3.66366">
        <ele>228</ele>
      </trkpt>
      <trkpt lat="43.66775" lon="3.66366">
        <ele>228</ele>
      </trkpt>
      <trkpt lat="43.66777" lon="3.66367">
        <ele>228</ele>
      </trkpt>
      <trkpt lat="43.66778" lon="3.66368">
        <ele>228</ele>
      </trkpt>
      <trkpt lat="43.66781" lon="3.66369">
        <ele>228</ele>
      </trkpt>
      <trkpt lat="43.66785" lon="3.6637">
        <ele>229</ele>
      </trkpt>
      <trkpt lat="43.66787" lon="3.66371">
        <ele>229</ele>
      </trkpt>
      <trkpt lat="43.6679" lon="3.66371">
        <ele>229</ele>
      </trkpt>
      <trkpt lat="43.66794" lon="3.66373">
        <ele>229</ele>
      </trkpt>
      <trkpt lat="43.66797" lon="3.66373">
        <ele>229</ele>
      </trkpt>
      <trkpt lat="43.668" lon="3.66373">
        <ele>231</ele>
      </trkpt>
      <trkpt lat="43.66803" lon="3.66374">
        <ele>231</ele>
      </trkpt>
      <trkpt lat="43.66805" lon="3.66374">
        <ele>231</ele>
      </trkpt>
      <trkpt lat="43.66807" lon="3.66374">
        <ele>231</ele>
      </trkpt>
      <trkpt lat="43.66808" lon="3.66374">
        <ele>231</ele>
      </trkpt>
      <trkpt lat="43.66811" lon="3.66374">
        <ele>231</ele>
      </trkpt>
      <trkpt lat="43.66813" lon="3.66374">
        <ele>231</ele>
      </trkpt>
      <trkpt lat="43.66815" lon="3.66374">
        <ele>231</ele>
      </trkpt>
      <trkpt lat="43.66816" lon="3.66373">
        <ele>231</ele>
      </trkpt>
      <trkpt lat="43.66819" lon="3.66373">
        <ele>232</ele>
      </trkpt>
      <trkpt lat="43.66821" lon="3.66374">
        <ele>232</ele>
      </trkpt>
      <trkpt lat="43.66823" lon="3.66374">
        <ele>232</ele>
      </trkpt>
      <trkpt lat="43.66825" lon="3.66374">
        <ele>232</ele>
      </trkpt>
      <trkpt lat="43.66828" lon="3.66374">
        <ele>232</ele>
      </trkpt>
      <trkpt lat="43.66831" lon="3.66374">
        <ele>232</ele>
      </trkpt>
      <trkpt lat="43.66833" lon="3.66373">
        <ele>232</ele>
      </trkpt>
      <trkpt lat="43.66836" lon="3.66373">
        <ele>232</ele>
      </trkpt>
      <trkpt lat="43.66838" lon="3.66372">
        <ele>232</ele>
      </trkpt>
      <trkpt lat="43.6684" lon="3.66372">
        <ele>232</ele>
      </trkpt>
      <trkpt lat="43.66842" lon="3.66371">
        <ele>233</ele>
      </trkpt>
      <trkpt lat="43.66845" lon="3.66372">
        <ele>233</ele>
      </trkpt>
      <trkpt lat="43.66847" lon="3.66372">
        <ele>233</ele>
      </trkpt>
      <trkpt lat="43.66849" lon="3.66372">
        <ele>233</ele>
      </trkpt>
      <trkpt lat="43.66852" lon="3.66371">
        <ele>233</ele>
      </trkpt>
      <trkpt lat="43.66854" lon="3.66371">
        <ele>233</ele>
      </trkpt>
      <trkpt lat="43.66856" lon="3.66371">
        <ele>233</ele>
      </trkpt>
      <trkpt lat="43.66858" lon="3.66371">
        <ele>233</ele>
      </trkpt>
      <trkpt lat="43.66861" lon="3.6637">
        <ele>233</ele>
      </trkpt>
      <trkpt lat="43.66863" lon="3.66368">
        <ele>233</ele>
      </trkpt>
      <trkpt lat="43.66864" lon="3.66366">
        <ele>233</ele>
      </trkpt>
      <trkpt lat="43.66866" lon="3.66364">
        <ele>233</ele>
      </trkpt>
      <trkpt lat="43.66869" lon="3.66364">
        <ele>233</ele>
      </trkpt>
      <trkpt lat="43.6687" lon="3.66363">
        <ele>233</ele>
      </trkpt>
      <trkpt lat="43.66873" lon="3.66362">
        <ele>233</ele>
      </trkpt>
      <trkpt lat="43.66875" lon="3.66361">
        <ele>233</ele>
      </trkpt>
      <trkpt lat="43.66877" lon="3.6636">
        <ele>233</ele>
      </trkpt>
      <trkpt lat="43.66881" lon="3.66359">
        <ele>233</ele>
      </trkpt>
      <trkpt lat="43.66884" lon="3.66358">
        <ele>233</ele>
      </trkpt>
      <trkpt lat="43.66888" lon="3.66358">
        <ele>232</ele>
      </trkpt>
      <trkpt lat="43.66892" lon="3.66358">
        <ele>232</ele>
      </trkpt>
      <trkpt lat="43.66896" lon="3.66357">
        <ele>232</ele>
      </trkpt>
      <trkpt lat="43.669" lon="3.66357">
        <ele>232</ele>
      </trkpt>
      <trkpt lat="43.66904" lon="3.66357">
        <ele>232</ele>
      </trkpt>
      <trkpt lat="43.66908" lon="3.66357">
        <ele>232</ele>
      </trkpt>
      <trkpt lat="43.66911" lon="3.66356">
        <ele>232</ele>
      </trkpt>
      <trkpt lat="43.66915" lon="3.66357">
        <ele>232</ele>
      </trkpt>
      <trkpt lat="43.66918" lon="3.66357">
        <ele>232</ele>
      </trkpt>
      <trkpt lat="43.66922" lon="3.66358">
        <ele>232</ele>
      </trkpt>
      <trkpt lat="43.66925" lon="3.66358">
        <ele>231</ele>
      </trkpt>
      <trkpt lat="43.66928" lon="3.6636">
        <ele>231</ele>
      </trkpt>
      <trkpt lat="43.66932" lon="3.66361">
        <ele>231</ele>
      </trkpt>
      <trkpt lat="43.66935" lon="3.66363">
        <ele>231</ele>
      </trkpt>
      <trkpt lat="43.66939" lon="3.66365">
        <ele>231</ele>
      </trkpt>
      <trkpt lat="43.66941" lon="3.66368">
        <ele>231</ele>
      </trkpt>
      <trkpt lat="43.66943" lon="3.6637">
        <ele>231</ele>
      </trkpt>
      <trkpt lat="43.66945" lon="3.66375">
        <ele>231</ele>
      </trkpt>
      <trkpt lat="43.66947" lon="3.66379">
        <ele>231</ele>
      </trkpt>
      <trkpt lat="43.66949" lon="3.66383">
        <ele>231</ele>
      </trkpt>
      <trkpt lat="43.66952" lon="3.66387">
        <ele>230</ele>
      </trkpt>
      <trkpt lat="43.66953" lon="3.66391">
        <ele>230</ele>
      </trkpt>
      <trkpt lat="43.66956" lon="3.66394">
        <ele>230</ele>
      </trkpt>
      <trkpt lat="43.66959" lon="3.66397">
        <ele>230</ele>
      </trkpt>
      <trkpt lat="43.66961" lon="3.66399">
        <ele>230</ele>
      </trkpt>
      <trkpt lat="43.66964" lon="3.66402">
        <ele>230</ele>
      </trkpt>
      <trkpt lat="43.66967" lon="3.66404">
        <ele>230</ele>
      </trkpt>
      <trkpt lat="43.66971" lon="3.66405">
        <ele>230</ele>
      </trkpt>
      <trkpt lat="43.66975" lon="3.66406">
        <ele>230</ele>
      </trkpt>
      <trkpt lat="43.66978" lon="3.66405">
        <ele>230</ele>
      </trkpt>
      <trkpt lat="43.66981" lon="3.66404">
        <ele>230</ele>
      </trkpt>
      <trkpt lat="43.66984" lon="3.66402">
        <ele>230</ele>
      </trkpt>
      <trkpt lat="43.66987" lon="3.664">
        <ele>230</ele>
      </trkpt>
      <trkpt lat="43.6699" lon="3.66398">
        <ele>230</ele>
      </trkpt>
      <trkpt lat="43.66991" lon="3.66396">
        <ele>230</ele>
      </trkpt>
      <trkpt lat="43.66994" lon="3.66394">
        <ele>230</ele>
      </trkpt>
      <trkpt lat="43.66997" lon="3.6639">
        <ele>230</ele>
      </trkpt>
      <trkpt lat="43.67" lon="3.66387">
        <ele>230</ele>
      </trkpt>
      <trkpt lat="43.67001" lon="3.66382">
        <ele>230</ele>
      </trkpt>
      <trkpt lat="43.67002" lon="3.66378">
        <ele>230</ele>
      </trkpt>
      <trkpt lat="43.67003" lon="3.66374">
        <ele>228</ele>
      </trkpt>
      <trkpt lat="43.67004" lon="3.6637">
        <ele>228</ele>
      </trkpt>
      <trkpt lat="43.67004" lon="3.66367">
        <ele>228</ele>
      </trkpt>
      <trkpt lat="43.67006" lon="3.66365">
        <ele>228</ele>
      </trkpt>
      <trkpt lat="43.67008" lon="3.66363">
        <ele>228</ele>
      </trkpt>
      <trkpt lat="43.67009" lon="3.66361">
        <ele>228</ele>
      </trkpt>
      <trkpt lat="43.6701" lon="3.6636">
        <ele>228</ele>
      </trkpt>
      <trkpt lat="43.67012" lon="3.66357">
        <ele>228</ele>
      </trkpt>
      <trkpt lat="43.67015" lon="3.66357">
        <ele>228</ele>
      </trkpt>
      <trkpt lat="43.67017" lon="3.66358">
        <ele>228</ele>
      </trkpt>
      <trkpt lat="43.67019" lon="3.66358">
        <ele>228</ele>
      </trkpt>
      <trkpt lat="43.6702" lon="3.66358">
        <ele>229</ele>
      </trkpt>
      <trkpt lat="43.67025" lon="3.66362">
        <ele>230</ele>
      </trkpt>
      <trkpt lat="43.67027" lon="3.66365">
        <ele>230</ele>
      </trkpt>
      <trkpt lat="43.67028" lon="3.66368">
        <ele>230</ele>
      </trkpt>
      <trkpt lat="43.67029" lon="3.66371">
        <ele>230</ele>
      </trkpt>
      <trkpt lat="43.67031" lon="3.66375">
        <ele>230</ele>
      </trkpt>
      <trkpt lat="43.67033" lon="3.66379">
        <ele>229</ele>
      </trkpt>
      <trkpt lat="43.67035" lon="3.66382">
        <ele>229</ele>
      </trkpt>
      <trkpt lat="43.67038" lon="3.66384">
        <ele>229</ele>
      </trkpt>
      <trkpt lat="43.67041" lon="3.66386">
        <ele>229</ele>
      </trkpt>
      <trkpt lat="43.67043" lon="3.66387">
        <ele>229</ele>
      </trkpt>
      <trkpt lat="43.67046" lon="3.66389">
        <ele>230</ele>
      </trkpt>
      <trkpt lat="43.67049" lon="3.66391">
        <ele>230</ele>
      </trkpt>
      <trkpt lat="43.67051" lon="3.66394">
        <ele>230</ele>
      </trkpt>
      <trkpt lat="43.67053" lon="3.66397">
        <ele>230</ele>
      </trkpt>
      <trkpt lat="43.67055" lon="3.66399">
        <ele>230</ele>
      </trkpt>
      <trkpt lat="43.67058" lon="3.66401">
        <ele>231</ele>
      </trkpt>
      <trkpt lat="43.67061" lon="3.66404">
        <ele>231</ele>
      </trkpt>
      <trkpt lat="43.67063" lon="3.66406">
        <ele>231</ele>
      </trkpt>
      <trkpt lat="43.67066" lon="3.66409">
        <ele>231</ele>
      </trkpt>
      <trkpt lat="43.67069" lon="3.66412">
        <ele>231</ele>
      </trkpt>
      <trkpt lat="43.67071" lon="3.66414">
        <ele>232</ele>
      </trkpt>
      <trkpt lat="43.67074" lon="3.66416">
        <ele>232</ele>
      </trkpt>
      <trkpt lat="43.67075" lon="3.66419">
        <ele>232</ele>
      </trkpt>
      <trkpt lat="43.67077" lon="3.6642">
        <ele>232</ele>
      </trkpt>
      <trkpt lat="43.6708" lon="3.66422">
        <ele>232</ele>
      </trkpt>
      <trkpt lat="43.67083" lon="3.66424">
        <ele>233</ele>
      </trkpt>
      <trkpt lat="43.67085" lon="3.66427">
        <ele>233</ele>
      </trkpt>
      <trkpt lat="43.67088" lon="3.66429">
        <ele>233</ele>
      </trkpt>
      <trkpt lat="43.6709" lon="3.66432">
        <ele>233</ele>
      </trkpt>
      <trkpt lat="43.67093" lon="3.66435">
        <ele>233</ele>
      </trkpt>
      <trkpt lat="43.67095" lon="3.66437">
        <ele>234</ele>
      </trkpt>
      <trkpt lat="43.67097" lon="3.6644">
        <ele>234</ele>
      </trkpt>
      <trkpt lat="43.671" lon="3.66443">
        <ele>234</ele>
      </trkpt>
      <trkpt lat="43.67102" lon="3.66445">
        <ele>234</ele>
      </trkpt>
      <trkpt lat="43.67105" lon="3.66448">
        <ele>234</ele>
      </trkpt>
      <trkpt lat="43.67108" lon="3.6645">
        <ele>235</ele>
      </trkpt>
      <trkpt lat="43.67111" lon="3.66451">
        <ele>235</ele>
      </trkpt>
      <trkpt lat="43.67113" lon="3.66454">
        <ele>235</ele>
      </trkpt>
      <trkpt lat="43.67116" lon="3.66456">
        <ele>235</ele>
      </trkpt>
      <trkpt lat="43.67118" lon="3.66459">
        <ele>235</ele>
      </trkpt>
      <trkpt lat="43.67119" lon="3.66462">
        <ele>237</ele>
      </trkpt>
      <trkpt lat="43.67122" lon="3.66465">
        <ele>237</ele>
      </trkpt>
      <trkpt lat="43.67124" lon="3.66468">
        <ele>237</ele>
      </trkpt>
      <trkpt lat="43.67126" lon="3.66471">
        <ele>237</ele>
      </trkpt>
      <trkpt lat="43.67129" lon="3.66474">
        <ele>237</ele>
      </trkpt>
      <trkpt lat="43.67131" lon="3.66477">
        <ele>237</ele>
      </trkpt>
      <trkpt lat="43.67133" lon="3.66481">
        <ele>237</ele>
      </trkpt>
      <trkpt lat="43.67136" lon="3.66484">
        <ele>237</ele>
      </trkpt>
      <trkpt lat="43.67138" lon="3.66487">
        <ele>237</ele>
      </trkpt>
      <trkpt lat="43.6714" lon="3.6649">
        <ele>237</ele>
      </trkpt>
      <trkpt lat="43.67143" lon="3.66494">
        <ele>238</ele>
      </trkpt>
      <trkpt lat="43.67143" lon="3.66496">
        <ele>238</ele>
      </trkpt>
      <trkpt lat="43.67146" lon="3.665">
        <ele>238</ele>
      </trkpt>
      <trkpt lat="43.67149" lon="3.66503">
        <ele>238</ele>
      </trkpt>
      <trkpt lat="43.6715" lon="3.66505">
        <ele>238</ele>
      </trkpt>
      <trkpt lat="43.67152" lon="3.66508">
        <ele>238</ele>
      </trkpt>
      <trkpt lat="43.67153" lon="3.6651">
        <ele>238</ele>
      </trkpt>
      <trkpt lat="43.67155" lon="3.66512">
        <ele>239</ele>
      </trkpt>
      <trkpt lat="43.67156" lon="3.66514">
        <ele>239</ele>
      </trkpt>
      <trkpt lat="43.67157" lon="3.66517">
        <ele>239</ele>
      </trkpt>
      <trkpt lat="43.67159" lon="3.6652">
        <ele>239</ele>
      </trkpt>
      <trkpt lat="43.6716" lon="3.66522">
        <ele>239</ele>
      </trkpt>
      <trkpt lat="43.67161" lon="3.66525">
        <ele>239</ele>
      </trkpt>
      <trkpt lat="43.67162" lon="3.66528">
        <ele>239</ele>
      </trkpt>
      <trkpt lat="43.67163" lon="3.66531">
        <ele>239</ele>
      </trkpt>
      <trkpt lat="43.67164" lon="3.66535">
        <ele>239</ele>
      </trkpt>
      <trkpt lat="43.67165" lon="3.66538">
        <ele>239</ele>
      </trkpt>
      <trkpt lat="43.67167" lon="3.66541">
        <ele>239</ele>
      </trkpt>
      <trkpt lat="43.67168" lon="3.66544">
        <ele>239</ele>
      </trkpt>
      <trkpt lat="43.6717" lon="3.66548">
        <ele>239</ele>
      </trkpt>
      <trkpt lat="43.67171" lon="3.66551">
        <ele>239</ele>
      </trkpt>
      <trkpt lat="43.67172" lon="3.66554">
        <ele>239</ele>
      </trkpt>
      <trkpt lat="43.67174" lon="3.66557">
        <ele>239</ele>
      </trkpt>
      <trkpt lat="43.67175" lon="3.6656">
        <ele>239</ele>
      </trkpt>
      <trkpt lat="43.67176" lon="3.66564">
        <ele>239</ele>
      </trkpt>
      <trkpt lat="43.67177" lon="3.66567">
        <ele>239</ele>
      </trkpt>
      <trkpt lat="43.67179" lon="3.6657">
        <ele>239</ele>
      </trkpt>
      <trkpt lat="43.6718" lon="3.66574">
        <ele>239</ele>
      </trkpt>
      <trkpt lat="43.67181" lon="3.66578">
        <ele>239</ele>
      </trkpt>
      <trkpt lat="43.67183" lon="3.66582">
        <ele>239</ele>
      </trkpt>
      <trkpt lat="43.67184" lon="3.66586">
        <ele>239</ele>
      </trkpt>
      <trkpt lat="43.67185" lon="3.66588">
        <ele>239</ele>
      </trkpt>
      <trkpt lat="43.67187" lon="3.66592">
        <ele>239</ele>
      </trkpt>
      <trkpt lat="43.67187" lon="3.66595">
        <ele>239</ele>
      </trkpt>
      <trkpt lat="43.67188" lon="3.66599">
        <ele>239</ele>
      </trkpt>
      <trkpt lat="43.67188" lon="3.66603">
        <ele>239</ele>
      </trkpt>
      <trkpt lat="43.67189" lon="3.66606">
        <ele>239</ele>
      </trkpt>
      <trkpt lat="43.6719" lon="3.66609">
        <ele>239</ele>
      </trkpt>
      <trkpt lat="43.67191" lon="3.66612">
        <ele>239</ele>
      </trkpt>
      <trkpt lat="43.67191" lon="3.66614">
        <ele>239</ele>
      </trkpt>
      <trkpt lat="43.67192" lon="3.66617">
        <ele>239</ele>
      </trkpt>
      <trkpt lat="43.67193" lon="3.6662">
        <ele>239</ele>
      </trkpt>
      <trkpt lat="43.67194" lon="3.66622">
        <ele>239</ele>
      </trkpt>
      <trkpt lat="43.67196" lon="3.66624">
        <ele>239</ele>
      </trkpt>
      <trkpt lat="43.67198" lon="3.66628">
        <ele>239</ele>
      </trkpt>
      <trkpt lat="43.672" lon="3.66631">
        <ele>239</ele>
      </trkpt>
      <trkpt lat="43.67202" lon="3.66634">
        <ele>239</ele>
      </trkpt>
      <trkpt lat="43.67205" lon="3.66637">
        <ele>239</ele>
      </trkpt>
      <trkpt lat="43.67207" lon="3.6664">
        <ele>239</ele>
      </trkpt>
      <trkpt lat="43.67209" lon="3.66643">
        <ele>239</ele>
      </trkpt>
      <trkpt lat="43.67212" lon="3.66645">
        <ele>239</ele>
      </trkpt>
      <trkpt lat="43.67214" lon="3.66647">
        <ele>239</ele>
      </trkpt>
      <trkpt lat="43.67216" lon="3.66649">
        <ele>239</ele>
      </trkpt>
      <trkpt lat="43.67217" lon="3.66651">
        <ele>239</ele>
      </trkpt>
      <trkpt lat="43.67219" lon="3.66653">
        <ele>239</ele>
      </trkpt>
      <trkpt lat="43.6722" lon="3.66656">
        <ele>240</ele>
      </trkpt>
      <trkpt lat="43.67222" lon="3.66659">
        <ele>240</ele>
      </trkpt>
      <trkpt lat="43.67223" lon="3.66662">
        <ele>240</ele>
      </trkpt>
      <trkpt lat="43.67225" lon="3.66665">
        <ele>240</ele>
      </trkpt>
      <trkpt lat="43.67227" lon="3.66668">
        <ele>240</ele>
      </trkpt>
      <trkpt lat="43.67229" lon="3.66671">
        <ele>242</ele>
      </trkpt>
      <trkpt lat="43.6723" lon="3.66674">
        <ele>242</ele>
      </trkpt>
      <trkpt lat="43.67231" lon="3.66676">
        <ele>242</ele>
      </trkpt>
      <trkpt lat="43.67233" lon="3.66679">
        <ele>242</ele>
      </trkpt>
      <trkpt lat="43.67235" lon="3.66682">
        <ele>242</ele>
      </trkpt>
      <trkpt lat="43.67237" lon="3.66686">
        <ele>243</ele>
      </trkpt>
      <trkpt lat="43.67238" lon="3.66687">
        <ele>243</ele>
      </trkpt>
      <trkpt lat="43.6724" lon="3.66689">
        <ele>243</ele>
      </trkpt>
      <trkpt lat="43.67243" lon="3.6669">
        <ele>243</ele>
      </trkpt>
      <trkpt lat="43.67246" lon="3.66691">
        <ele>243</ele>
      </trkpt>
      <trkpt lat="43.67248" lon="3.66691">
        <ele>244</ele>
      </trkpt>
      <trkpt lat="43.6725" lon="3.66691">
        <ele>244</ele>
      </trkpt>
      <trkpt lat="43.67253" lon="3.6669">
        <ele>244</ele>
      </trkpt>
      <trkpt lat="43.67256" lon="3.6669">
        <ele>244</ele>
      </trkpt>
      <trkpt lat="43.67259" lon="3.6669">
        <ele>244</ele>
      </trkpt>
      <trkpt lat="43.67261" lon="3.66691">
        <ele>246</ele>
      </trkpt>
      <trkpt lat="43.67264" lon="3.66691">
        <ele>246</ele>
      </trkpt>
      <trkpt lat="43.67266" lon="3.66691">
        <ele>246</ele>
      </trkpt>
      <trkpt lat="43.67268" lon="3.66692">
        <ele>246</ele>
      </trkpt>
      <trkpt lat="43.67271" lon="3.66692">
        <ele>246</ele>
      </trkpt>
      <trkpt lat="43.67274" lon="3.66693">
        <ele>247</ele>
      </trkpt>
      <trkpt lat="43.67276" lon="3.66694">
        <ele>247</ele>
      </trkpt>
      <trkpt lat="43.67279" lon="3.66694">
        <ele>247</ele>
      </trkpt>
      <trkpt lat="43.67281" lon="3.66696">
        <ele>247</ele>
      </trkpt>
      <trkpt lat="43.67284" lon="3.66698">
        <ele>247</ele>
      </trkpt>
      <trkpt lat="43.67287" lon="3.66699">
        <ele>248</ele>
      </trkpt>
      <trkpt lat="43.67289" lon="3.66702">
        <ele>248</ele>
      </trkpt>
      <trkpt lat="43.67291" lon="3.66703">
        <ele>248</ele>
      </trkpt>
      <trkpt lat="43.67293" lon="3.66706">
        <ele>248</ele>
      </trkpt>
      <trkpt lat="43.67296" lon="3.66708">
        <ele>248</ele>
      </trkpt>
      <trkpt lat="43.67298" lon="3.6671">
        <ele>248</ele>
      </trkpt>
      <trkpt lat="43.673" lon="3.66712">
        <ele>248</ele>
      </trkpt>
      <trkpt lat="43.67302" lon="3.66714">
        <ele>248</ele>
      </trkpt>
      <trkpt lat="43.67304" lon="3.66718">
        <ele>248</ele>
      </trkpt>
      <trkpt lat="43.67306" lon="3.66721">
        <ele>248</ele>
      </trkpt>
      <trkpt lat="43.67307" lon="3.66725">
        <ele>249</ele>
      </trkpt>
      <trkpt lat="43.67308" lon="3.66728">
        <ele>249</ele>
      </trkpt>
      <trkpt lat="43.67309" lon="3.66731">
        <ele>249</ele>
      </trkpt>
      <trkpt lat="43.67311" lon="3.66734">
        <ele>249</ele>
      </trkpt>
      <trkpt lat="43.67312" lon="3.66738">
        <ele>249</ele>
      </trkpt>
      <trkpt lat="43.67314" lon="3.66741">
        <ele>250</ele>
      </trkpt>
      <trkpt lat="43.67315" lon="3.66744">
        <ele>250</ele>
      </trkpt>
      <trkpt lat="43.67316" lon="3.66748">
        <ele>250</ele>
      </trkpt>
      <trkpt lat="43.67317" lon="3.66751">
        <ele>250</ele>
      </trkpt>
      <trkpt lat="43.67318" lon="3.66755">
        <ele>250</ele>
      </trkpt>
      <trkpt lat="43.6732" lon="3.66757">
        <ele>250</ele>
      </trkpt>
      <trkpt lat="43.67321" lon="3.66761">
        <ele>250</ele>
      </trkpt>
      <trkpt lat="43.67321" lon="3.66765">
        <ele>250</ele>
      </trkpt>
      <trkpt lat="43.67322" lon="3.66768">
        <ele>250</ele>
      </trkpt>
      <trkpt lat="43.67323" lon="3.66772">
        <ele>250</ele>
      </trkpt>
      <trkpt lat="43.67325" lon="3.66776">
        <ele>251</ele>
      </trkpt>
      <trkpt lat="43.67327" lon="3.66779">
        <ele>251</ele>
      </trkpt>
      <trkpt lat="43.67328" lon="3.66782">
        <ele>251</ele>
      </trkpt>
      <trkpt lat="43.6733" lon="3.66786">
        <ele>251</ele>
      </trkpt>
      <trkpt lat="43.67331" lon="3.6679">
        <ele>251</ele>
      </trkpt>
      <trkpt lat="43.67332" lon="3.66794">
        <ele>252</ele>
      </trkpt>
      <trkpt lat="43.67333" lon="3.66798">
        <ele>252</ele>
      </trkpt>
      <trkpt lat="43.67335" lon="3.66801">
        <ele>252</ele>
      </trkpt>
      <trkpt lat="43.67337" lon="3.66805">
        <ele>252</ele>
      </trkpt>
      <trkpt lat="43.67339" lon="3.66809">
        <ele>252</ele>
      </trkpt>
      <trkpt lat="43.67341" lon="3.66812">
        <ele>253</ele>
      </trkpt>
      <trkpt lat="43.67343" lon="3.66816">
        <ele>253</ele>
      </trkpt>
      <trkpt lat="43.67344" lon="3.6682">
        <ele>253</ele>
      </trkpt>
      <trkpt lat="43.67345" lon="3.66824">
        <ele>253</ele>
      </trkpt>
      <trkpt lat="43.67347" lon="3.66827">
        <ele>253</ele>
      </trkpt>
      <trkpt lat="43.67349" lon="3.66831">
        <ele>255</ele>
      </trkpt>
      <trkpt lat="43.6735" lon="3.66835">
        <ele>255</ele>
      </trkpt>
      <trkpt lat="43.67351" lon="3.66838">
        <ele>255</ele>
      </trkpt>
      <trkpt lat="43.67352" lon="3.66843">
        <ele>255</ele>
      </trkpt>
      <trkpt lat="43.67352" lon="3.66846">
        <ele>255</ele>
      </trkpt>
      <trkpt lat="43.67353" lon="3.66851">
        <ele>255</ele>
      </trkpt>
      <trkpt lat="43.67353" lon="3.66854">
        <ele>255</ele>
      </trkpt>
      <trkpt lat="43.67353" lon="3.66856">
        <ele>255</ele>
      </trkpt>
      <trkpt lat="43.67353" lon="3.66859">
        <ele>255</ele>
      </trkpt>
      <trkpt lat="43.67353" lon="3.66862">
        <ele>255</ele>
      </trkpt>
      <trkpt lat="43.67353" lon="3.66866">
        <ele>255</ele>
      </trkpt>
      <trkpt lat="43.67353" lon="3.66869">
        <ele>255</ele>
      </trkpt>
      <trkpt lat="43.67354" lon="3.66872">
        <ele>255</ele>
      </trkpt>
      <trkpt lat="43.67354" lon="3.66875">
        <ele>255</ele>
      </trkpt>
      <trkpt lat="43.67354" lon="3.66877">
        <ele>256</ele>
      </trkpt>
      <trkpt lat="43.67355" lon="3.6688">
        <ele>256</ele>
      </trkpt>
      <trkpt lat="43.67356" lon="3.66883">
        <ele>256</ele>
      </trkpt>
      <trkpt lat="43.67356" lon="3.66885">
        <ele>256</ele>
      </trkpt>
      <trkpt lat="43.67357" lon="3.66888">
        <ele>256</ele>
      </trkpt>
      <trkpt lat="43.67358" lon="3.6689">
        <ele>256</ele>
      </trkpt>
      <trkpt lat="43.67358" lon="3.66893">
        <ele>256</ele>
      </trkpt>
      <trkpt lat="43.67359" lon="3.66896">
        <ele>256</ele>
      </trkpt>
      <trkpt lat="43.67359" lon="3.66898">
        <ele>256</ele>
      </trkpt>
      <trkpt lat="43.6736" lon="3.66901">
        <ele>256</ele>
      </trkpt>
      <trkpt lat="43.6736" lon="3.66903">
        <ele>257</ele>
      </trkpt>
      <trkpt lat="43.67361" lon="3.66906">
        <ele>257</ele>
      </trkpt>
      <trkpt lat="43.67361" lon="3.66908">
        <ele>257</ele>
      </trkpt>
      <trkpt lat="43.67361" lon="3.66911">
        <ele>257</ele>
      </trkpt>
      <trkpt lat="43.67361" lon="3.66913">
        <ele>257</ele>
      </trkpt>
      <trkpt lat="43.67362" lon="3.66916">
        <ele>257</ele>
      </trkpt>
      <trkpt lat="43.67362" lon="3.66921">
        <ele>257</ele>
      </trkpt>
      <trkpt lat="43.67363" lon="3.66923">
        <ele>257</ele>
      </trkpt>
      <trkpt lat="43.67363" lon="3.66926">
        <ele>257</ele>
      </trkpt>
      <trkpt lat="43.67363" lon="3.66928">
        <ele>257</ele>
      </trkpt>
      <trkpt lat="43.67364" lon="3.66931">
        <ele>257</ele>
      </trkpt>
      <trkpt lat="43.67365" lon="3.66934">
        <ele>257</ele>
      </trkpt>
      <trkpt lat="43.67365" lon="3.66936">
        <ele>257</ele>
      </trkpt>
      <trkpt lat="43.67366" lon="3.66938">
        <ele>257</ele>
      </trkpt>
      <trkpt lat="43.67366" lon="3.66941">
        <ele>257</ele>
      </trkpt>
      <trkpt lat="43.67367" lon="3.66944">
        <ele>257</ele>
      </trkpt>
      <trkpt lat="43.67368" lon="3.66946">
        <ele>257</ele>
      </trkpt>
      <trkpt lat="43.67368" lon="3.66949">
        <ele>257</ele>
      </trkpt>
      <trkpt lat="43.67369" lon="3.66952">
        <ele>257</ele>
      </trkpt>
      <trkpt lat="43.67369" lon="3.66955">
        <ele>257</ele>
      </trkpt>
      <trkpt lat="43.6737" lon="3.66958">
        <ele>257</ele>
      </trkpt>
      <trkpt lat="43.67371" lon="3.66961">
        <ele>257</ele>
      </trkpt>
      <trkpt lat="43.67371" lon="3.66964">
        <ele>257</ele>
      </trkpt>
      <trkpt lat="43.67372" lon="3.66967">
        <ele>257</ele>
      </trkpt>
      <trkpt lat="43.67372" lon="3.6697">
        <ele>257</ele>
      </trkpt>
      <trkpt lat="43.67374" lon="3.66972">
        <ele>257</ele>
      </trkpt>
      <trkpt lat="43.67374" lon="3.66975">
        <ele>257</ele>
      </trkpt>
      <trkpt lat="43.67375" lon="3.66978">
        <ele>257</ele>
      </trkpt>
      <trkpt lat="43.67376" lon="3.66981">
        <ele>257</ele>
      </trkpt>
      <trkpt lat="43.67376" lon="3.66983">
        <ele>257</ele>
      </trkpt>
      <trkpt lat="43.67377" lon="3.66986">
        <ele>257</ele>
      </trkpt>
      <trkpt lat="43.67378" lon="3.66989">
        <ele>257</ele>
      </trkpt>
      <trkpt lat="43.67379" lon="3.66992">
        <ele>257</ele>
      </trkpt>
      <trkpt lat="43.6738" lon="3.66995">
        <ele>257</ele>
      </trkpt>
      <trkpt lat="43.67381" lon="3.66998">
        <ele>257</ele>
      </trkpt>
      <trkpt lat="43.67382" lon="3.67">
        <ele>257</ele>
      </trkpt>
      <trkpt lat="43.67383" lon="3.67004">
        <ele>257</ele>
      </trkpt>
      <trkpt lat="43.67383" lon="3.67007">
        <ele>257</ele>
      </trkpt>
      <trkpt lat="43.67403" lon="3.67065">
        <ele>260</ele>
      </trkpt>
      <trkpt lat="43.67402" lon="3.67068">
        <ele>260</ele>
      </trkpt>
      <trkpt lat="43.67383" lon="3.67011">
        <ele>257</ele>
      </trkpt>
      <trkpt lat="43.67401" lon="3.6707">
        <ele>260</ele>
      </trkpt>
      <trkpt lat="43.67382" lon="3.67015">
        <ele>258</ele>
      </trkpt>
      <trkpt lat="43.674" lon="3.67073">
        <ele>260</ele>
      </trkpt>
      <trkpt lat="43.67383" lon="3.67018">
        <ele>258</ele>
      </trkpt>
      <trkpt lat="43.67399" lon="3.67075">
        <ele>260</ele>
      </trkpt>
      <trkpt lat="43.67383" lon="3.67022">
        <ele>258</ele>
      </trkpt>
      <trkpt lat="43.67399" lon="3.67078">
        <ele>260</ele>
      </trkpt>
      <trkpt lat="43.67383" lon="3.67026">
        <ele>258</ele>
      </trkpt>
      <trkpt lat="43.67398" lon="3.6708">
        <ele>260</ele>
      </trkpt>
      <trkpt lat="43.67385" lon="3.6703">
        <ele>258</ele>
      </trkpt>
      <trkpt lat="43.67397" lon="3.67082">
        <ele>260</ele>
      </trkpt>
      <trkpt lat="43.67386" lon="3.67033">
        <ele>258</ele>
      </trkpt>
      <trkpt lat="43.67388" lon="3.67035">
        <ele>258</ele>
      </trkpt>
      <trkpt lat="43.67395" lon="3.67086">
        <ele>260</ele>
      </trkpt>
      <trkpt lat="43.6739" lon="3.67036">
        <ele>258</ele>
      </trkpt>
      <trkpt lat="43.67392" lon="3.67037">
        <ele>258</ele>
      </trkpt>
      <trkpt lat="43.67393" lon="3.6709">
        <ele>260</ele>
      </trkpt>
      <trkpt lat="43.67394" lon="3.67038">
        <ele>258</ele>
      </trkpt>
      <trkpt lat="43.67392" lon="3.67093">
        <ele>260</ele>
      </trkpt>
      <trkpt lat="43.67396" lon="3.6704">
        <ele>259</ele>
      </trkpt>
      <trkpt lat="43.67391" lon="3.67095">
        <ele>260</ele>
      </trkpt>
      <trkpt lat="43.67398" lon="3.67043">
        <ele>259</ele>
      </trkpt>
      <trkpt lat="43.67399" lon="3.67045">
        <ele>259</ele>
      </trkpt>
      <trkpt lat="43.67389" lon="3.67098">
        <ele>260</ele>
      </trkpt>
      <trkpt lat="43.674" lon="3.67046">
        <ele>259</ele>
      </trkpt>
      <trkpt lat="43.67387" lon="3.67103">
        <ele>260</ele>
      </trkpt>
      <trkpt lat="43.67402" lon="3.6705">
        <ele>259</ele>
      </trkpt>
      <trkpt lat="43.67387" lon="3.67105">
        <ele>260</ele>
      </trkpt>
      <trkpt lat="43.67387" lon="3.67108">
        <ele>260</ele>
      </trkpt>
      <trkpt lat="43.67402" lon="3.67053">
        <ele>259</ele>
      </trkpt>
      <trkpt lat="43.67387" lon="3.67111">
        <ele>260</ele>
      </trkpt>
      <trkpt lat="43.67387" lon="3.67114">
        <ele>260</ele>
      </trkpt>
      <trkpt lat="43.67387" lon="3.67116">
        <ele>260</ele>
      </trkpt>
      <trkpt lat="43.67387" lon="3.67119">
        <ele>260</ele>
      </trkpt>
      <trkpt lat="43.67387" lon="3.67121">
        <ele>260</ele>
      </trkpt>
      <trkpt lat="43.67402" lon="3.67054">
        <ele>259</ele>
      </trkpt>
      <trkpt lat="43.67387" lon="3.67126">
        <ele>260</ele>
      </trkpt>
      <trkpt lat="43.67387" lon="3.6713">
        <ele>260</ele>
      </trkpt>
      <trkpt lat="43.67387" lon="3.67135">
        <ele>260</ele>
      </trkpt>
      <trkpt lat="43.67388" lon="3.6714">
        <ele>261</ele>
      </trkpt>
      <trkpt lat="43.67388" lon="3.67144">
        <ele>261</ele>
      </trkpt>
      <trkpt lat="43.67389" lon="3.67149">
        <ele>261</ele>
      </trkpt>
      <trkpt lat="43.6739" lon="3.67151">
        <ele>261</ele>
      </trkpt>
      <trkpt lat="43.6739" lon="3.67153">
        <ele>261</ele>
      </trkpt>
      <trkpt lat="43.67391" lon="3.67158">
        <ele>261</ele>
      </trkpt>
      <trkpt lat="43.67392" lon="3.67163">
        <ele>262</ele>
      </trkpt>
      <trkpt lat="43.67392" lon="3.67166">
        <ele>262</ele>
      </trkpt>
      <trkpt lat="43.67392" lon="3.67168">
        <ele>262</ele>
      </trkpt>
      <trkpt lat="43.67393" lon="3.67171">
        <ele>262</ele>
      </trkpt>
      <trkpt lat="43.67393" lon="3.67173">
        <ele>262</ele>
      </trkpt>
      <trkpt lat="43.67394" lon="3.67178">
        <ele>262</ele>
      </trkpt>
      <trkpt lat="43.67394" lon="3.67181">
        <ele>262</ele>
      </trkpt>
      <trkpt lat="43.67394" lon="3.67183">
        <ele>262</ele>
      </trkpt>
      <trkpt lat="43.67394" lon="3.67186">
        <ele>262</ele>
      </trkpt>
      <trkpt lat="43.67394" lon="3.67188">
        <ele>262</ele>
      </trkpt>
      <trkpt lat="43.67393" lon="3.67193">
        <ele>262</ele>
      </trkpt>
      <trkpt lat="43.67392" lon="3.67195">
        <ele>262</ele>
      </trkpt>
      <trkpt lat="43.67391" lon="3.67197">
        <ele>262</ele>
      </trkpt>
      <trkpt lat="43.67391" lon="3.67201">
        <ele>262</ele>
      </trkpt>
      <trkpt lat="43.6739" lon="3.67203">
        <ele>262</ele>
      </trkpt>
      <trkpt lat="43.6739" lon="3.67206">
        <ele>262</ele>
      </trkpt>
      <trkpt lat="43.67389" lon="3.67209">
        <ele>262</ele>
      </trkpt>
      <trkpt lat="43.67389" lon="3.67213">
        <ele>264</ele>
      </trkpt>
      <trkpt lat="43.67388" lon="3.67218">
        <ele>264</ele>
      </trkpt>
      <trkpt lat="43.67388" lon="3.67223">
        <ele>264</ele>
      </trkpt>
      <trkpt lat="43.67387" lon="3.67228">
        <ele>264</ele>
      </trkpt>
      <trkpt lat="43.67387" lon="3.6723">
        <ele>264</ele>
      </trkpt>
      <trkpt lat="43.67387" lon="3.67232">
        <ele>264</ele>
      </trkpt>
      <trkpt lat="43.67386" lon="3.67237">
        <ele>265</ele>
      </trkpt>
      <trkpt lat="43.67386" lon="3.67242">
        <ele>265</ele>
      </trkpt>
      <trkpt lat="43.67385" lon="3.67247">
        <ele>265</ele>
      </trkpt>
      <trkpt lat="43.67385" lon="3.67251">
        <ele>265</ele>
      </trkpt>
      <trkpt lat="43.67385" lon="3.67255">
        <ele>265</ele>
      </trkpt>
      <trkpt lat="43.67384" lon="3.67259">
        <ele>267</ele>
      </trkpt>
      <trkpt lat="43.67383" lon="3.67263">
        <ele>267</ele>
      </trkpt>
      <trkpt lat="43.67383" lon="3.67268">
        <ele>267</ele>
      </trkpt>
      <trkpt lat="43.67383" lon="3.67272">
        <ele>267</ele>
      </trkpt>
      <trkpt lat="43.67383" lon="3.67275">
        <ele>267</ele>
      </trkpt>
      <trkpt lat="43.67383" lon="3.67279">
        <ele>269</ele>
      </trkpt>
      <trkpt lat="43.67383" lon="3.67283">
        <ele>269</ele>
      </trkpt>
      <trkpt lat="43.67383" lon="3.67286">
        <ele>269</ele>
      </trkpt>
      <trkpt lat="43.67383" lon="3.67291">
        <ele>269</ele>
      </trkpt>
      <trkpt lat="43.67383" lon="3.67294">
        <ele>269</ele>
      </trkpt>
      <trkpt lat="43.67383" lon="3.67299">
        <ele>270</ele>
      </trkpt>
      <trkpt lat="43.67384" lon="3.67303">
        <ele>270</ele>
      </trkpt>
      <trkpt lat="43.67385" lon="3.67308">
        <ele>270</ele>
      </trkpt>
      <trkpt lat="43.67385" lon="3.67312">
        <ele>270</ele>
      </trkpt>
      <trkpt lat="43.67385" lon="3.67317">
        <ele>270</ele>
      </trkpt>
      <trkpt lat="43.67386" lon="3.67319">
        <ele>270</ele>
      </trkpt>
      <trkpt lat="43.67386" lon="3.67322">
        <ele>270</ele>
      </trkpt>
      <trkpt lat="43.67386" lon="3.67324">
        <ele>270</ele>
      </trkpt>
      <trkpt lat="43.67387" lon="3.67328">
        <ele>270</ele>
      </trkpt>
      <trkpt lat="43.67387" lon="3.67331">
        <ele>270</ele>
      </trkpt>
      <trkpt lat="43.67387" lon="3.67334">
        <ele>270</ele>
      </trkpt>
      <trkpt lat="43.67387" lon="3.67337">
        <ele>270</ele>
      </trkpt>
      <trkpt lat="43.67387" lon="3.6734">
        <ele>270</ele>
      </trkpt>
      <trkpt lat="43.67387" lon="3.67343">
        <ele>270</ele>
      </trkpt>
      <trkpt lat="43.67386" lon="3.67347">
        <ele>270</ele>
      </trkpt>
      <trkpt lat="43.67386" lon="3.6735">
        <ele>271</ele>
      </trkpt>
      <trkpt lat="43.67386" lon="3.67353">
        <ele>271</ele>
      </trkpt>
      <trkpt lat="43.67386" lon="3.67356">
        <ele>271</ele>
      </trkpt>
      <trkpt lat="43.67386" lon="3.67359">
        <ele>271</ele>
      </trkpt>
      <trkpt lat="43.67386" lon="3.67363">
        <ele>271</ele>
      </trkpt>
      <trkpt lat="43.67386" lon="3.67366">
        <ele>271</ele>
      </trkpt>
      <trkpt lat="43.67387" lon="3.6737">
        <ele>271</ele>
      </trkpt>
      <trkpt lat="43.67388" lon="3.67373">
        <ele>271</ele>
      </trkpt>
      <trkpt lat="43.67389" lon="3.67375">
        <ele>271</ele>
      </trkpt>
      <trkpt lat="43.6739" lon="3.67378">
        <ele>271</ele>
      </trkpt>
      <trkpt lat="43.67392" lon="3.67381">
        <ele>272</ele>
      </trkpt>
      <trkpt lat="43.67393" lon="3.67384">
        <ele>272</ele>
      </trkpt>
      <trkpt lat="43.67395" lon="3.67387">
        <ele>272</ele>
      </trkpt>
      <trkpt lat="43.67397" lon="3.6739">
        <ele>272</ele>
      </trkpt>
      <trkpt lat="43.67398" lon="3.67393">
        <ele>272</ele>
      </trkpt>
      <trkpt lat="43.67399" lon="3.67397">
        <ele>272</ele>
      </trkpt>
      <trkpt lat="43.67401" lon="3.67401">
        <ele>272</ele>
      </trkpt>
      <trkpt lat="43.67402" lon="3.67404">
        <ele>272</ele>
      </trkpt>
      <trkpt lat="43.67403" lon="3.67408">
        <ele>272</ele>
      </trkpt>
      <trkpt lat="43.67405" lon="3.67411">
        <ele>272</ele>
      </trkpt>
      <trkpt lat="43.67406" lon="3.67415">
        <ele>271</ele>
      </trkpt>
      <trkpt lat="43.67407" lon="3.67418">
        <ele>271</ele>
      </trkpt>
      <trkpt lat="43.67407" lon="3.67422">
        <ele>271</ele>
      </trkpt>
      <trkpt lat="43.67408" lon="3.67426">
        <ele>271</ele>
      </trkpt>
      <trkpt lat="43.67408" lon="3.67429">
        <ele>271</ele>
      </trkpt>
      <trkpt lat="43.67409" lon="3.67432">
        <ele>271</ele>
      </trkpt>
      <trkpt lat="43.67409" lon="3.67435">
        <ele>271</ele>
      </trkpt>
      <trkpt lat="43.6741" lon="3.67438">
        <ele>271</ele>
      </trkpt>
      <trkpt lat="43.6741" lon="3.6744">
        <ele>271</ele>
      </trkpt>
      <trkpt lat="43.67411" lon="3.67443">
        <ele>271</ele>
      </trkpt>
      <trkpt lat="43.67411" lon="3.67446">
        <ele>271</ele>
      </trkpt>
      <trkpt lat="43.67412" lon="3.6745">
        <ele>271</ele>
      </trkpt>
      <trkpt lat="43.67412" lon="3.67454">
        <ele>271</ele>
      </trkpt>
      <trkpt lat="43.67413" lon="3.67458">
        <ele>271</ele>
      </trkpt>
      <trkpt lat="43.67413" lon="3.67462">
        <ele>271</ele>
      </trkpt>
      <trkpt lat="43.67414" lon="3.67467">
        <ele>272</ele>
      </trkpt>
      <trkpt lat="43.67414" lon="3.67471">
        <ele>272</ele>
      </trkpt>
      <trkpt lat="43.67414" lon="3.67475">
        <ele>272</ele>
      </trkpt>
      <trkpt lat="43.67415" lon="3.6748">
        <ele>272</ele>
      </trkpt>
      <trkpt lat="43.67416" lon="3.67483">
        <ele>272</ele>
      </trkpt>
      <trkpt lat="43.67416" lon="3.67488">
        <ele>273</ele>
      </trkpt>
      <trkpt lat="43.67417" lon="3.67491">
        <ele>273</ele>
      </trkpt>
      <trkpt lat="43.67417" lon="3.67495">
        <ele>273</ele>
      </trkpt>
      <trkpt lat="43.67417" lon="3.675">
        <ele>273</ele>
      </trkpt>
      <trkpt lat="43.67417" lon="3.67504">
        <ele>273</ele>
      </trkpt>
      <trkpt lat="43.67417" lon="3.67508">
        <ele>275</ele>
      </trkpt>
      <trkpt lat="43.67417" lon="3.67513">
        <ele>275</ele>
      </trkpt>
      <trkpt lat="43.67417" lon="3.67517">
        <ele>275</ele>
      </trkpt>
      <trkpt lat="43.67416" lon="3.67522">
        <ele>275</ele>
      </trkpt>
      <trkpt lat="43.67416" lon="3.67525">
        <ele>275</ele>
      </trkpt>
      <trkpt lat="43.67416" lon="3.67528">
        <ele>275</ele>
      </trkpt>
      <trkpt lat="43.67415" lon="3.6753">
        <ele>275</ele>
      </trkpt>
      <trkpt lat="43.67414" lon="3.67533">
        <ele>277</ele>
      </trkpt>
      <trkpt lat="43.67414" lon="3.67535">
        <ele>277</ele>
      </trkpt>
      <trkpt lat="43.67413" lon="3.67537">
        <ele>277</ele>
      </trkpt>
      <trkpt lat="43.67413" lon="3.6754">
        <ele>277</ele>
      </trkpt>
      <trkpt lat="43.67412" lon="3.67543">
        <ele>277</ele>
      </trkpt>
      <trkpt lat="43.67412" lon="3.67545">
        <ele>277</ele>
      </trkpt>
      <trkpt lat="43.67412" lon="3.67548">
        <ele>277</ele>
      </trkpt>
      <trkpt lat="43.67411" lon="3.67551">
        <ele>277</ele>
      </trkpt>
      <trkpt lat="43.67411" lon="3.67554">
        <ele>277</ele>
      </trkpt>
      <trkpt lat="43.6741" lon="3.67557">
        <ele>277</ele>
      </trkpt>
      <trkpt lat="43.6741" lon="3.6756">
        <ele>278</ele>
      </trkpt>
      <trkpt lat="43.67409" lon="3.67563">
        <ele>278</ele>
      </trkpt>
      <trkpt lat="43.67409" lon="3.67565">
        <ele>278</ele>
      </trkpt>
      <trkpt lat="43.67409" lon="3.67568">
        <ele>278</ele>
      </trkpt>
      <trkpt lat="43.67408" lon="3.67571">
        <ele>278</ele>
      </trkpt>
      <trkpt lat="43.67407" lon="3.67573">
        <ele>278</ele>
      </trkpt>
      <trkpt lat="43.67406" lon="3.67576">
        <ele>278</ele>
      </trkpt>
      <trkpt lat="43.67406" lon="3.6758">
        <ele>278</ele>
      </trkpt>
      <trkpt lat="43.67405" lon="3.67582">
        <ele>278</ele>
      </trkpt>
      <trkpt lat="43.67405" lon="3.67586">
        <ele>278</ele>
      </trkpt>
      <trkpt lat="43.67404" lon="3.67589">
        <ele>278</ele>
      </trkpt>
      <trkpt lat="43.67403" lon="3.67591">
        <ele>278</ele>
      </trkpt>
      <trkpt lat="43.67402" lon="3.67596">
        <ele>278</ele>
      </trkpt>
      <trkpt lat="43.67401" lon="3.67599">
        <ele>278</ele>
      </trkpt>
      <trkpt lat="43.674" lon="3.67602">
        <ele>278</ele>
      </trkpt>
      <trkpt lat="43.67399" lon="3.67606">
        <ele>278</ele>
      </trkpt>
      <trkpt lat="43.67396" lon="3.67615">
        <ele>278</ele>
      </trkpt>
      <trkpt lat="43.6739" lon="3.67629">
        <ele>278</ele>
      </trkpt>
      <trkpt lat="43.67387" lon="3.67635">
        <ele>278</ele>
      </trkpt>
      <trkpt lat="43.67385" lon="3.67638">
        <ele>278</ele>
      </trkpt>
      <trkpt lat="43.67383" lon="3.67642">
        <ele>278</ele>
      </trkpt>
      <trkpt lat="43.67381" lon="3.67645">
        <ele>278</ele>
      </trkpt>
      <trkpt lat="43.67378" lon="3.67648">
        <ele>278</ele>
      </trkpt>
      <trkpt lat="43.67377" lon="3.67651">
        <ele>278</ele>
      </trkpt>
      <trkpt lat="43.67375" lon="3.67653">
        <ele>278</ele>
      </trkpt>
      <trkpt lat="43.67372" lon="3.67655">
        <ele>278</ele>
      </trkpt>
      <trkpt lat="43.6737" lon="3.67656">
        <ele>278</ele>
      </trkpt>
      <trkpt lat="43.67368" lon="3.67657">
        <ele>279</ele>
      </trkpt>
      <trkpt lat="43.67366" lon="3.67658">
        <ele>279</ele>
      </trkpt>
      <trkpt lat="43.67362" lon="3.67658">
        <ele>279</ele>
      </trkpt>
      <trkpt lat="43.67359" lon="3.67659">
        <ele>279</ele>
      </trkpt>
      <trkpt lat="43.67357" lon="3.6766">
        <ele>279</ele>
      </trkpt>
      <trkpt lat="43.67354" lon="3.67661">
        <ele>279</ele>
      </trkpt>
      <trkpt lat="43.67351" lon="3.67662">
        <ele>279</ele>
      </trkpt>
      <trkpt lat="43.67349" lon="3.67663">
        <ele>279</ele>
      </trkpt>
      <trkpt lat="43.67345" lon="3.67663">
        <ele>279</ele>
      </trkpt>
      <trkpt lat="43.67342" lon="3.67664">
        <ele>279</ele>
      </trkpt>
      <trkpt lat="43.67339" lon="3.67665">
        <ele>279</ele>
      </trkpt>
      <trkpt lat="43.67336" lon="3.67666">
        <ele>279</ele>
      </trkpt>
      <trkpt lat="43.67333" lon="3.67665">
        <ele>279</ele>
      </trkpt>
      <trkpt lat="43.6733" lon="3.67665">
        <ele>279</ele>
      </trkpt>
      <trkpt lat="43.67327" lon="3.67665">
        <ele>279</ele>
      </trkpt>
      <trkpt lat="43.67324" lon="3.67666">
        <ele>279</ele>
      </trkpt>
      <trkpt lat="43.67321" lon="3.67666">
        <ele>279</ele>
      </trkpt>
      <trkpt lat="43.67318" lon="3.67666">
        <ele>279</ele>
      </trkpt>
      <trkpt lat="43.67315" lon="3.67666">
        <ele>279</ele>
      </trkpt>
      <trkpt lat="43.67312" lon="3.67666">
        <ele>279</ele>
      </trkpt>
      <trkpt lat="43.67308" lon="3.67666">
        <ele>280</ele>
      </trkpt>
      <trkpt lat="43.67306" lon="3.67666">
        <ele>280</ele>
      </trkpt>
      <trkpt lat="43.67303" lon="3.67666">
        <ele>280</ele>
      </trkpt>
      <trkpt lat="43.673" lon="3.67666">
        <ele>280</ele>
      </trkpt>
      <trkpt lat="43.67297" lon="3.67666">
        <ele>280</ele>
      </trkpt>
      <trkpt lat="43.67293" lon="3.67665">
        <ele>280</ele>
      </trkpt>
      <trkpt lat="43.6729" lon="3.67666">
        <ele>280</ele>
      </trkpt>
      <trkpt lat="43.67286" lon="3.67666">
        <ele>280</ele>
      </trkpt>
      <trkpt lat="43.67283" lon="3.67665">
        <ele>280</ele>
      </trkpt>
      <trkpt lat="43.67281" lon="3.67665">
        <ele>280</ele>
      </trkpt>
      <trkpt lat="43.67278" lon="3.67665">
        <ele>281</ele>
      </trkpt>
      <trkpt lat="43.67275" lon="3.67665">
        <ele>281</ele>
      </trkpt>
      <trkpt lat="43.67272" lon="3.67664">
        <ele>281</ele>
      </trkpt>
      <trkpt lat="43.6727" lon="3.67664">
        <ele>281</ele>
      </trkpt>
      <trkpt lat="43.67267" lon="3.67664">
        <ele>281</ele>
      </trkpt>
      <trkpt lat="43.67265" lon="3.67664">
        <ele>281</ele>
      </trkpt>
      <trkpt lat="43.67263" lon="3.67663">
        <ele>281</ele>
      </trkpt>
      <trkpt lat="43.6726" lon="3.67663">
        <ele>281</ele>
      </trkpt>
      <trkpt lat="43.67257" lon="3.67662">
        <ele>281</ele>
      </trkpt>
      <trkpt lat="43.67255" lon="3.67661">
        <ele>281</ele>
      </trkpt>
      <trkpt lat="43.67252" lon="3.6766">
        <ele>282</ele>
      </trkpt>
      <trkpt lat="43.67249" lon="3.67658">
        <ele>282</ele>
      </trkpt>
      <trkpt lat="43.67247" lon="3.67655">
        <ele>282</ele>
      </trkpt>
      <trkpt lat="43.67244" lon="3.67653">
        <ele>282</ele>
      </trkpt>
      <trkpt lat="43.6724" lon="3.6765">
        <ele>282</ele>
      </trkpt>
      <trkpt lat="43.67238" lon="3.67647">
        <ele>282</ele>
      </trkpt>
      <trkpt lat="43.67235" lon="3.67644">
        <ele>282</ele>
      </trkpt>
      <trkpt lat="43.67232" lon="3.67642">
        <ele>282</ele>
      </trkpt>
      <trkpt lat="43.6723" lon="3.6764">
        <ele>282</ele>
      </trkpt>
      <trkpt lat="43.67228" lon="3.67639">
        <ele>282</ele>
      </trkpt>
      <trkpt lat="43.67225" lon="3.67636">
        <ele>282</ele>
      </trkpt>
      <trkpt lat="43.67222" lon="3.67634">
        <ele>282</ele>
      </trkpt>
      <trkpt lat="43.6722" lon="3.67633">
        <ele>282</ele>
      </trkpt>
      <trkpt lat="43.67217" lon="3.67631">
        <ele>282</ele>
      </trkpt>
      <trkpt lat="43.67214" lon="3.67629">
        <ele>282</ele>
      </trkpt>
      <trkpt lat="43.67212" lon="3.67629">
        <ele>282</ele>
      </trkpt>
      <trkpt lat="43.67209" lon="3.67628">
        <ele>282</ele>
      </trkpt>
      <trkpt lat="43.67207" lon="3.67628">
        <ele>282</ele>
      </trkpt>
      <trkpt lat="43.67203" lon="3.67628">
        <ele>282</ele>
      </trkpt>
      <trkpt lat="43.67201" lon="3.67628">
        <ele>282</ele>
      </trkpt>
      <trkpt lat="43.67198" lon="3.67629">
        <ele>283</ele>
      </trkpt>
      <trkpt lat="43.67195" lon="3.67631">
        <ele>283</ele>
      </trkpt>
      <trkpt lat="43.67193" lon="3.67632">
        <ele>283</ele>
      </trkpt>
      <trkpt lat="43.67191" lon="3.67634">
        <ele>283</ele>
      </trkpt>
      <trkpt lat="43.6719" lon="3.67636">
        <ele>283</ele>
      </trkpt>
      <trkpt lat="43.67187" lon="3.67638">
        <ele>283</ele>
      </trkpt>
      <trkpt lat="43.67186" lon="3.6764">
        <ele>283</ele>
      </trkpt>
      <trkpt lat="43.67184" lon="3.67642">
        <ele>283</ele>
      </trkpt>
      <trkpt lat="43.67182" lon="3.67645">
        <ele>283</ele>
      </trkpt>
      <trkpt lat="43.6718" lon="3.67648">
        <ele>283</ele>
      </trkpt>
      <trkpt lat="43.67179" lon="3.6765">
        <ele>283</ele>
      </trkpt>
      <trkpt lat="43.67178" lon="3.67653">
        <ele>283</ele>
      </trkpt>
      <trkpt lat="43.67176" lon="3.67655">
        <ele>283</ele>
      </trkpt>
      <trkpt lat="43.67175" lon="3.67657">
        <ele>283</ele>
      </trkpt>
      <trkpt lat="43.67173" lon="3.6766">
        <ele>283</ele>
      </trkpt>
      <trkpt lat="43.67172" lon="3.67664">
        <ele>283</ele>
      </trkpt>
      <trkpt lat="43.6717" lon="3.67668">
        <ele>283</ele>
      </trkpt>
      <trkpt lat="43.67169" lon="3.67672">
        <ele>283</ele>
      </trkpt>
      <trkpt lat="43.67167" lon="3.67677">
        <ele>283</ele>
      </trkpt>
      <trkpt lat="43.67166" lon="3.67683">
        <ele>283</ele>
      </trkpt>
      <trkpt lat="43.67164" lon="3.67689">
        <ele>282</ele>
      </trkpt>
      <trkpt lat="43.67162" lon="3.67694">
        <ele>282</ele>
      </trkpt>
      <trkpt lat="43.67161" lon="3.677">
        <ele>282</ele>
      </trkpt>
      <trkpt lat="43.67159" lon="3.67706">
        <ele>282</ele>
      </trkpt>
      <trkpt lat="43.67157" lon="3.67711">
        <ele>282</ele>
      </trkpt>
      <trkpt lat="43.67155" lon="3.67717">
        <ele>282</ele>
      </trkpt>
      <trkpt lat="43.6715" lon="3.67728">
        <ele>282</ele>
      </trkpt>
      <trkpt lat="43.67143" lon="3.67742">
        <ele>281</ele>
      </trkpt>
      <trkpt lat="43.67132" lon="3.67747">
        <ele>281</ele>
      </trkpt>
      <trkpt lat="43.67121" lon="3.67753">
        <ele>281</ele>
      </trkpt>
      <trkpt lat="43.67111" lon="3.67761">
        <ele>281</ele>
      </trkpt>
      <trkpt lat="43.67102" lon="3.67768">
        <ele>281</ele>
      </trkpt>
      <trkpt lat="43.67092" lon="3.67777">
        <ele>280</ele>
      </trkpt>
      <trkpt lat="43.67084" lon="3.67786">
        <ele>280</ele>
      </trkpt>
      <trkpt lat="43.67076" lon="3.67792">
        <ele>280</ele>
      </trkpt>
      <trkpt lat="43.67069" lon="3.67797">
        <ele>280</ele>
      </trkpt>
      <trkpt lat="43.67065" lon="3.678">
        <ele>280</ele>
      </trkpt>
      <trkpt lat="43.67062" lon="3.67802">
        <ele>280</ele>
      </trkpt>
      <trkpt lat="43.6706" lon="3.67804">
        <ele>280</ele>
      </trkpt>
      <trkpt lat="43.67057" lon="3.67807">
        <ele>279</ele>
      </trkpt>
      <trkpt lat="43.67055" lon="3.67809">
        <ele>279</ele>
      </trkpt>
      <trkpt lat="43.67053" lon="3.6781">
        <ele>279</ele>
      </trkpt>
      <trkpt lat="43.67051" lon="3.67812">
        <ele>279</ele>
      </trkpt>
      <trkpt lat="43.67047" lon="3.67815">
        <ele>279</ele>
      </trkpt>
      <trkpt lat="43.67046" lon="3.67816">
        <ele>279</ele>
      </trkpt>
      <trkpt lat="43.67044" lon="3.67818">
        <ele>279</ele>
      </trkpt>
      <trkpt lat="43.67042" lon="3.67821">
        <ele>279</ele>
      </trkpt>
      <trkpt lat="43.6704" lon="3.67824">
        <ele>278</ele>
      </trkpt>
      <trkpt lat="43.67038" lon="3.67826">
        <ele>278</ele>
      </trkpt>
      <trkpt lat="43.67036" lon="3.67828">
        <ele>278</ele>
      </trkpt>
      <trkpt lat="43.67035" lon="3.6783">
        <ele>278</ele>
      </trkpt>
      <trkpt lat="43.67033" lon="3.67832">
        <ele>278</ele>
      </trkpt>
      <trkpt lat="43.67031" lon="3.67835">
        <ele>278</ele>
      </trkpt>
      <trkpt lat="43.67028" lon="3.67838">
        <ele>278</ele>
      </trkpt>
      <trkpt lat="43.67026" lon="3.67842">
        <ele>278</ele>
      </trkpt>
      <trkpt lat="43.67025" lon="3.67843">
        <ele>278</ele>
      </trkpt>
      <trkpt lat="43.67022" lon="3.67846">
        <ele>278</ele>
      </trkpt>
      <trkpt lat="43.67019" lon="3.67849">
        <ele>278</ele>
      </trkpt>
      <trkpt lat="43.67018" lon="3.67851">
        <ele>278</ele>
      </trkpt>
      <trkpt lat="43.67015" lon="3.67854">
        <ele>278</ele>
      </trkpt>
      <trkpt lat="43.67013" lon="3.67858">
        <ele>278</ele>
      </trkpt>
      <trkpt lat="43.67012" lon="3.67861">
        <ele>278</ele>
      </trkpt>
      <trkpt lat="43.6701" lon="3.67864">
        <ele>278</ele>
      </trkpt>
      <trkpt lat="43.67009" lon="3.67867">
        <ele>279</ele>
      </trkpt>
      <trkpt lat="43.67007" lon="3.67869">
        <ele>279</ele>
      </trkpt>
      <trkpt lat="43.67005" lon="3.67872">
        <ele>279</ele>
      </trkpt>
      <trkpt lat="43.67004" lon="3.67874">
        <ele>279</ele>
      </trkpt>
      <trkpt lat="43.67003" lon="3.67877">
        <ele>279</ele>
      </trkpt>
      <trkpt lat="43.67001" lon="3.6788">
        <ele>280</ele>
      </trkpt>
      <trkpt lat="43.66998" lon="3.67882">
        <ele>280</ele>
      </trkpt>
      <trkpt lat="43.66996" lon="3.67884">
        <ele>280</ele>
      </trkpt>
      <trkpt lat="43.66994" lon="3.67886">
        <ele>280</ele>
      </trkpt>
      <trkpt lat="43.66992" lon="3.67887">
        <ele>280</ele>
      </trkpt>
      <trkpt lat="43.6699" lon="3.67889">
        <ele>281</ele>
      </trkpt>
      <trkpt lat="43.66988" lon="3.67891">
        <ele>281</ele>
      </trkpt>
      <trkpt lat="43.66986" lon="3.67894">
        <ele>281</ele>
      </trkpt>
      <trkpt lat="43.66984" lon="3.67895">
        <ele>281</ele>
      </trkpt>
      <trkpt lat="43.66982" lon="3.67897">
        <ele>281</ele>
      </trkpt>
      <trkpt lat="43.6698" lon="3.679">
        <ele>282</ele>
      </trkpt>
      <trkpt lat="43.66978" lon="3.67902">
        <ele>282</ele>
      </trkpt>
      <trkpt lat="43.66976" lon="3.67903">
        <ele>282</ele>
      </trkpt>
      <trkpt lat="43.66974" lon="3.67904">
        <ele>282</ele>
      </trkpt>
      <trkpt lat="43.66972" lon="3.67906">
        <ele>282</ele>
      </trkpt>
      <trkpt lat="43.6697" lon="3.67908">
        <ele>282</ele>
      </trkpt>
      <trkpt lat="43.66966" lon="3.67909">
        <ele>282</ele>
      </trkpt>
      <trkpt lat="43.66964" lon="3.67909">
        <ele>282</ele>
      </trkpt>
      <trkpt lat="43.66962" lon="3.67909">
        <ele>282</ele>
      </trkpt>
      <trkpt lat="43.6696" lon="3.67909">
        <ele>282</ele>
      </trkpt>
      <trkpt lat="43.66958" lon="3.67908">
        <ele>282</ele>
      </trkpt>
      <trkpt lat="43.66955" lon="3.67908">
        <ele>282</ele>
      </trkpt>
      <trkpt lat="43.66953" lon="3.67908">
        <ele>283</ele>
      </trkpt>
      <trkpt lat="43.66951" lon="3.67909">
        <ele>283</ele>
      </trkpt>
      <trkpt lat="43.66949" lon="3.67909">
        <ele>283</ele>
      </trkpt>
      <trkpt lat="43.66947" lon="3.6791">
        <ele>283</ele>
      </trkpt>
      <trkpt lat="43.66946" lon="3.6791">
        <ele>283</ele>
      </trkpt>
      <trkpt lat="43.66943" lon="3.6791">
        <ele>283</ele>
      </trkpt>
      <trkpt lat="43.66941" lon="3.67911">
        <ele>283</ele>
      </trkpt>
      <trkpt lat="43.66939" lon="3.67911">
        <ele>283</ele>
      </trkpt>
      <trkpt lat="43.66937" lon="3.67912">
        <ele>283</ele>
      </trkpt>
      <trkpt lat="43.66935" lon="3.67913">
        <ele>283</ele>
      </trkpt>
      <trkpt lat="43.66932" lon="3.67913">
        <ele>284</ele>
      </trkpt>
      <trkpt lat="43.66929" lon="3.67914">
        <ele>284</ele>
      </trkpt>
      <trkpt lat="43.66927" lon="3.67914">
        <ele>284</ele>
      </trkpt>
      <trkpt lat="43.66925" lon="3.67915">
        <ele>284</ele>
      </trkpt>
      <trkpt lat="43.66922" lon="3.67915">
        <ele>284</ele>
      </trkpt>
      <trkpt lat="43.66921" lon="3.67915">
        <ele>284</ele>
      </trkpt>
      <trkpt lat="43.66918" lon="3.67916">
        <ele>284</ele>
      </trkpt>
      <trkpt lat="43.66916" lon="3.67917">
        <ele>284</ele>
      </trkpt>
      <trkpt lat="43.66913" lon="3.67918">
        <ele>284</ele>
      </trkpt>
      <trkpt lat="43.66911" lon="3.67919">
        <ele>284</ele>
      </trkpt>
      <trkpt lat="43.66909" lon="3.6792">
        <ele>285</ele>
      </trkpt>
      <trkpt lat="43.66907" lon="3.67921">
        <ele>285</ele>
      </trkpt>
      <trkpt lat="43.66906" lon="3.67922">
        <ele>285</ele>
      </trkpt>
      <trkpt lat="43.66903" lon="3.67923">
        <ele>285</ele>
      </trkpt>
      <trkpt lat="43.66901" lon="3.67923">
        <ele>285</ele>
      </trkpt>
      <trkpt lat="43.66899" lon="3.67925">
        <ele>285</ele>
      </trkpt>
      <trkpt lat="43.66897" lon="3.67926">
        <ele>285</ele>
      </trkpt>
      <trkpt lat="43.66895" lon="3.67927">
        <ele>285</ele>
      </trkpt>
      <trkpt lat="43.66893" lon="3.67929">
        <ele>285</ele>
      </trkpt>
      <trkpt lat="43.66891" lon="3.6793">
        <ele>285</ele>
      </trkpt>
      <trkpt lat="43.6689" lon="3.67931">
        <ele>286</ele>
      </trkpt>
      <trkpt lat="43.66888" lon="3.67931">
        <ele>286</ele>
      </trkpt>
      <trkpt lat="43.66886" lon="3.67932">
        <ele>286</ele>
      </trkpt>
      <trkpt lat="43.66883" lon="3.67934">
        <ele>286</ele>
      </trkpt>
      <trkpt lat="43.66881" lon="3.67936">
        <ele>286</ele>
      </trkpt>
      <trkpt lat="43.66879" lon="3.67937">
        <ele>286</ele>
      </trkpt>
      <trkpt lat="43.66875" lon="3.67938">
        <ele>286</ele>
      </trkpt>
      <trkpt lat="43.66872" lon="3.67939">
        <ele>286</ele>
      </trkpt>
      <trkpt lat="43.66868" lon="3.67939">
        <ele>286</ele>
      </trkpt>
      <trkpt lat="43.66864" lon="3.6794">
        <ele>286</ele>
      </trkpt>
      <trkpt lat="43.66859" lon="3.67941">
        <ele>286</ele>
      </trkpt>
      <trkpt lat="43.66854" lon="3.67942">
        <ele>286</ele>
      </trkpt>
      <trkpt lat="43.6685" lon="3.67942">
        <ele>286</ele>
      </trkpt>
      <trkpt lat="43.66845" lon="3.67942">
        <ele>286</ele>
      </trkpt>
      <trkpt lat="43.6684" lon="3.67941">
        <ele>286</ele>
      </trkpt>
      <trkpt lat="43.66836" lon="3.6794">
        <ele>286</ele>
      </trkpt>
      <trkpt lat="43.66832" lon="3.67938">
        <ele>286</ele>
      </trkpt>
      <trkpt lat="43.66827" lon="3.67937">
        <ele>286</ele>
      </trkpt>
      <trkpt lat="43.66822" lon="3.67935">
        <ele>286</ele>
      </trkpt>
      <trkpt lat="43.66818" lon="3.67934">
        <ele>288</ele>
      </trkpt>
      <trkpt lat="43.66813" lon="3.67934">
        <ele>288</ele>
      </trkpt>
      <trkpt lat="43.66809" lon="3.67933">
        <ele>288</ele>
      </trkpt>
      <trkpt lat="43.66805" lon="3.67931">
        <ele>288</ele>
      </trkpt>
      <trkpt lat="43.66802" lon="3.67929">
        <ele>288</ele>
      </trkpt>
      <trkpt lat="43.66799" lon="3.67927">
        <ele>288</ele>
      </trkpt>
      <trkpt lat="43.66796" lon="3.67926">
        <ele>288</ele>
      </trkpt>
      <trkpt lat="43.66794" lon="3.67924">
        <ele>288</ele>
      </trkpt>
      <trkpt lat="43.66791" lon="3.67923">
        <ele>288</ele>
      </trkpt>
      <trkpt lat="43.66789" lon="3.67922">
        <ele>288</ele>
      </trkpt>
      <trkpt lat="43.66787" lon="3.67921">
        <ele>288</ele>
      </trkpt>
      <trkpt lat="43.66785" lon="3.6792">
        <ele>288</ele>
      </trkpt>
      <trkpt lat="43.66782" lon="3.67919">
        <ele>288</ele>
      </trkpt>
      <trkpt lat="43.66779" lon="3.67918">
        <ele>288</ele>
      </trkpt>
      <trkpt lat="43.66776" lon="3.67917">
        <ele>288</ele>
      </trkpt>
      <trkpt lat="43.66773" lon="3.67916">
        <ele>288</ele>
      </trkpt>
      <trkpt lat="43.66771" lon="3.67915">
        <ele>288</ele>
      </trkpt>
      <trkpt lat="43.66768" lon="3.67914">
        <ele>288</ele>
      </trkpt>
      <trkpt lat="43.66765" lon="3.67912">
        <ele>288</ele>
      </trkpt>
      <trkpt lat="43.66762" lon="3.67911">
        <ele>288</ele>
      </trkpt>
      <trkpt lat="43.66758" lon="3.6791">
        <ele>288</ele>
      </trkpt>
      <trkpt lat="43.66755" lon="3.67909">
        <ele>288</ele>
      </trkpt>
      <trkpt lat="43.66751" lon="3.67908">
        <ele>288</ele>
      </trkpt>
      <trkpt lat="43.66747" lon="3.67907">
        <ele>288</ele>
      </trkpt>
      <trkpt lat="43.66744" lon="3.67906">
        <ele>288</ele>
      </trkpt>
      <trkpt lat="43.6674" lon="3.67904">
        <ele>288</ele>
      </trkpt>
      <trkpt lat="43.66737" lon="3.67904">
        <ele>288</ele>
      </trkpt>
      <trkpt lat="43.66734" lon="3.67904">
        <ele>288</ele>
      </trkpt>
      <trkpt lat="43.6673" lon="3.67903">
        <ele>288</ele>
      </trkpt>
      <trkpt lat="43.66726" lon="3.67903">
        <ele>288</ele>
      </trkpt>
      <trkpt lat="43.66722" lon="3.67903">
        <ele>287</ele>
      </trkpt>
      <trkpt lat="43.66718" lon="3.67903">
        <ele>287</ele>
      </trkpt>
      <trkpt lat="43.66713" lon="3.67904">
        <ele>287</ele>
      </trkpt>
      <trkpt lat="43.66707" lon="3.67904">
        <ele>287</ele>
      </trkpt>
      <trkpt lat="43.66702" lon="3.67905">
        <ele>287</ele>
      </trkpt>
      <trkpt lat="43.66696" lon="3.67906">
        <ele>287</ele>
      </trkpt>
      <trkpt lat="43.66689" lon="3.67907">
        <ele>287</ele>
      </trkpt>
      <trkpt lat="43.66683" lon="3.67909">
        <ele>287</ele>
      </trkpt>
      <trkpt lat="43.66675" lon="3.6791">
        <ele>287</ele>
      </trkpt>
      <trkpt lat="43.66668" lon="3.67912">
        <ele>287</ele>
      </trkpt>
      <trkpt lat="43.66659" lon="3.67915">
        <ele>286</ele>
      </trkpt>
      <trkpt lat="43.6665" lon="3.67917">
        <ele>286</ele>
      </trkpt>
      <trkpt lat="43.66641" lon="3.67918">
        <ele>286</ele>
      </trkpt>
      <trkpt lat="43.66632" lon="3.67921">
        <ele>286</ele>
      </trkpt>
      <trkpt lat="43.66622" lon="3.67922">
        <ele>286</ele>
      </trkpt>
      <trkpt lat="43.66612" lon="3.67924">
        <ele>286</ele>
      </trkpt>
      <trkpt lat="43.66601" lon="3.67926">
        <ele>286</ele>
      </trkpt>
      <trkpt lat="43.66591" lon="3.67926">
        <ele>286</ele>
      </trkpt>
      <trkpt lat="43.66581" lon="3.67926">
        <ele>286</ele>
      </trkpt>
      <trkpt lat="43.66572" lon="3.67928">
        <ele>286</ele>
      </trkpt>
      <trkpt lat="43.66562" lon="3.67928">
        <ele>283</ele>
      </trkpt>
      <trkpt lat="43.66553" lon="3.67929">
        <ele>283</ele>
      </trkpt>
      <trkpt lat="43.66544" lon="3.67929">
        <ele>283</ele>
      </trkpt>
      <trkpt lat="43.66535" lon="3.67931">
        <ele>283</ele>
      </trkpt>
      <trkpt lat="43.66526" lon="3.67931">
        <ele>283</ele>
      </trkpt>
      <trkpt lat="43.66518" lon="3.67931">
        <ele>283</ele>
      </trkpt>
      <trkpt lat="43.6651" lon="3.67931">
        <ele>283</ele>
      </trkpt>
      <trkpt lat="43.66503" lon="3.6793">
        <ele>283</ele>
      </trkpt>
      <trkpt lat="43.66496" lon="3.67928">
        <ele>283</ele>
      </trkpt>
      <trkpt lat="43.6649" lon="3.67924">
        <ele>283</ele>
      </trkpt>
      <trkpt lat="43.66484" lon="3.6792">
        <ele>281</ele>
      </trkpt>
      <trkpt lat="43.6648" lon="3.67916">
        <ele>281</ele>
      </trkpt>
      <trkpt lat="43.66475" lon="3.67912">
        <ele>281</ele>
      </trkpt>
      <trkpt lat="43.66471" lon="3.67907">
        <ele>281</ele>
      </trkpt>
      <trkpt lat="43.66466" lon="3.67904">
        <ele>281</ele>
      </trkpt>
      <trkpt lat="43.66463" lon="3.67899">
        <ele>281</ele>
      </trkpt>
      <trkpt lat="43.66458" lon="3.67894">
        <ele>281</ele>
      </trkpt>
      <trkpt lat="43.66454" lon="3.67889">
        <ele>281</ele>
      </trkpt>
      <trkpt lat="43.6645" lon="3.67884">
        <ele>281</ele>
      </trkpt>
      <trkpt lat="43.66447" lon="3.67879">
        <ele>281</ele>
      </trkpt>
      <trkpt lat="43.66443" lon="3.67873">
        <ele>279</ele>
      </trkpt>
      <trkpt lat="43.66439" lon="3.67867">
        <ele>279</ele>
      </trkpt>
      <trkpt lat="43.66436" lon="3.67861">
        <ele>279</ele>
      </trkpt>
      <trkpt lat="43.66432" lon="3.67855">
        <ele>279</ele>
      </trkpt>
      <trkpt lat="43.66428" lon="3.6785">
        <ele>279</ele>
      </trkpt>
      <trkpt lat="43.66425" lon="3.67845">
        <ele>279</ele>
      </trkpt>
      <trkpt lat="43.6642" lon="3.67841">
        <ele>279</ele>
      </trkpt>
      <trkpt lat="43.66416" lon="3.67837">
        <ele>279</ele>
      </trkpt>
      <trkpt lat="43.66412" lon="3.67833">
        <ele>279</ele>
      </trkpt>
      <trkpt lat="43.66409" lon="3.6783">
        <ele>279</ele>
      </trkpt>
      <trkpt lat="43.66405" lon="3.67826">
        <ele>277</ele>
      </trkpt>
      <trkpt lat="43.66403" lon="3.67822">
        <ele>277</ele>
      </trkpt>
      <trkpt lat="43.664" lon="3.67818">
        <ele>277</ele>
      </trkpt>
      <trkpt lat="43.66398" lon="3.67816">
        <ele>277</ele>
      </trkpt>
      <trkpt lat="43.66395" lon="3.67815">
        <ele>277</ele>
      </trkpt>
      <trkpt lat="43.66391" lon="3.67815">
        <ele>277</ele>
      </trkpt>
      <trkpt lat="43.66388" lon="3.67815">
        <ele>277</ele>
      </trkpt>
      <trkpt lat="43.6639" lon="3.67815">
        <ele>277</ele>
      </trkpt>
      <trkpt lat="43.66388" lon="3.67815">
        <ele>277</ele>
      </trkpt>
      <trkpt lat="43.66384" lon="3.67815">
        <ele>277</ele>
      </trkpt>
      <trkpt lat="43.66379" lon="3.67814">
        <ele>276</ele>
      </trkpt>
      <trkpt lat="43.66374" lon="3.67814">
        <ele>276</ele>
      </trkpt>
      <trkpt lat="43.66369" lon="3.67813">
        <ele>276</ele>
      </trkpt>
      <trkpt lat="43.66365" lon="3.67812">
        <ele>276</ele>
      </trkpt>
      <trkpt lat="43.66362" lon="3.67811">
        <ele>276</ele>
      </trkpt>
      <trkpt lat="43.66357" lon="3.67811">
        <ele>276</ele>
      </trkpt>
      <trkpt lat="43.66352" lon="3.6781">
        <ele>276</ele>
      </trkpt>
      <trkpt lat="43.66348" lon="3.67808">
        <ele>276</ele>
      </trkpt>
      <trkpt lat="43.66344" lon="3.67807">
        <ele>276</ele>
      </trkpt>
      <trkpt lat="43.66339" lon="3.67806">
        <ele>276</ele>
      </trkpt>
      <trkpt lat="43.66335" lon="3.67804">
        <ele>273</ele>
      </trkpt>
      <trkpt lat="43.66331" lon="3.67803">
        <ele>273</ele>
      </trkpt>
      <trkpt lat="43.66327" lon="3.67802">
        <ele>273</ele>
      </trkpt>
      <trkpt lat="43.66323" lon="3.678">
        <ele>273</ele>
      </trkpt>
      <trkpt lat="43.66319" lon="3.67799">
        <ele>273</ele>
      </trkpt>
      <trkpt lat="43.66316" lon="3.67797">
        <ele>273</ele>
      </trkpt>
      <trkpt lat="43.66313" lon="3.67796">
        <ele>273</ele>
      </trkpt>
      <trkpt lat="43.6631" lon="3.67794">
        <ele>273</ele>
      </trkpt>
      <trkpt lat="43.66306" lon="3.67792">
        <ele>273</ele>
      </trkpt>
      <trkpt lat="43.66303" lon="3.67791">
        <ele>273</ele>
      </trkpt>
      <trkpt lat="43.663" lon="3.67788">
        <ele>272</ele>
      </trkpt>
      <trkpt lat="43.66297" lon="3.67787">
        <ele>272</ele>
      </trkpt>
      <trkpt lat="43.66294" lon="3.67786">
        <ele>272</ele>
      </trkpt>
      <trkpt lat="43.66291" lon="3.67784">
        <ele>272</ele>
      </trkpt>
      <trkpt lat="43.66289" lon="3.67782">
        <ele>272</ele>
      </trkpt>
      <trkpt lat="43.66285" lon="3.67781">
        <ele>272</ele>
      </trkpt>
      <trkpt lat="43.66283" lon="3.6778">
        <ele>272</ele>
      </trkpt>
      <trkpt lat="43.6628" lon="3.67779">
        <ele>272</ele>
      </trkpt>
      <trkpt lat="43.66277" lon="3.67779">
        <ele>272</ele>
      </trkpt>
      <trkpt lat="43.66274" lon="3.67778">
        <ele>272</ele>
      </trkpt>
      <trkpt lat="43.66272" lon="3.67777">
        <ele>272</ele>
      </trkpt>
      <trkpt lat="43.66269" lon="3.67777">
        <ele>272</ele>
      </trkpt>
      <trkpt lat="43.66266" lon="3.67776">
        <ele>272</ele>
      </trkpt>
      <trkpt lat="43.66264" lon="3.67776">
        <ele>272</ele>
      </trkpt>
      <trkpt lat="43.66262" lon="3.67776">
        <ele>272</ele>
      </trkpt>
      <trkpt lat="43.66259" lon="3.67776">
        <ele>272</ele>
      </trkpt>
      <trkpt lat="43.66257" lon="3.67776">
        <ele>272</ele>
      </trkpt>
      <trkpt lat="43.66254" lon="3.67776">
        <ele>272</ele>
      </trkpt>
      <trkpt lat="43.66252" lon="3.67775">
        <ele>272</ele>
      </trkpt>
      <trkpt lat="43.6625" lon="3.67775">
        <ele>272</ele>
      </trkpt>
      <trkpt lat="43.66247" lon="3.67775">
        <ele>274</ele>
      </trkpt>
      <trkpt lat="43.66245" lon="3.67775">
        <ele>274</ele>
      </trkpt>
      <trkpt lat="43.66243" lon="3.67775">
        <ele>274</ele>
      </trkpt>
      <trkpt lat="43.66241" lon="3.67775">
        <ele>274</ele>
      </trkpt>
      <trkpt lat="43.66238" lon="3.67775">
        <ele>274</ele>
      </trkpt>
      <trkpt lat="43.66236" lon="3.67776">
        <ele>274</ele>
      </trkpt>
      <trkpt lat="43.66234" lon="3.67776">
        <ele>274</ele>
      </trkpt>
      <trkpt lat="43.66231" lon="3.67776">
        <ele>274</ele>
      </trkpt>
      <trkpt lat="43.66229" lon="3.67777">
        <ele>274</ele>
      </trkpt>
      <trkpt lat="43.66228" lon="3.67777">
        <ele>274</ele>
      </trkpt>
      <trkpt lat="43.66225" lon="3.67777">
        <ele>274</ele>
      </trkpt>
      <trkpt lat="43.66223" lon="3.67777">
        <ele>274</ele>
      </trkpt>
      <trkpt lat="43.66221" lon="3.67776">
        <ele>274</ele>
      </trkpt>
      <trkpt lat="43.66219" lon="3.67775">
        <ele>274</ele>
      </trkpt>
      <trkpt lat="43.66217" lon="3.67775">
        <ele>274</ele>
      </trkpt>
      <trkpt lat="43.66215" lon="3.67774">
        <ele>274</ele>
      </trkpt>
      <trkpt lat="43.66213" lon="3.67774">
        <ele>274</ele>
      </trkpt>
      <trkpt lat="43.66211" lon="3.67775">
        <ele>274</ele>
      </trkpt>
      <trkpt lat="43.6621" lon="3.67776">
        <ele>274</ele>
      </trkpt>
      <trkpt lat="43.66208" lon="3.67778">
        <ele>274</ele>
      </trkpt>
      <trkpt lat="43.66206" lon="3.6778">
        <ele>275</ele>
      </trkpt>
      <trkpt lat="43.66204" lon="3.67782">
        <ele>275</ele>
      </trkpt>
      <trkpt lat="43.66202" lon="3.67783">
        <ele>275</ele>
      </trkpt>
      <trkpt lat="43.662" lon="3.67784">
        <ele>275</ele>
      </trkpt>
      <trkpt lat="43.66196" lon="3.67785">
        <ele>275</ele>
      </trkpt>
      <trkpt lat="43.66194" lon="3.67786">
        <ele>275</ele>
      </trkpt>
      <trkpt lat="43.66192" lon="3.67786">
        <ele>275</ele>
      </trkpt>
      <trkpt lat="43.6619" lon="3.67786">
        <ele>275</ele>
      </trkpt>
      <trkpt lat="43.66187" lon="3.67785">
        <ele>275</ele>
      </trkpt>
      <trkpt lat="43.66184" lon="3.67784">
        <ele>275</ele>
      </trkpt>
      <trkpt lat="43.66182" lon="3.67783">
        <ele>275</ele>
      </trkpt>
      <trkpt lat="43.66179" lon="3.67782">
        <ele>275</ele>
      </trkpt>
      <trkpt lat="43.66177" lon="3.67782">
        <ele>275</ele>
      </trkpt>
      <trkpt lat="43.66174" lon="3.67783">
        <ele>275</ele>
      </trkpt>
      <trkpt lat="43.66172" lon="3.67785">
        <ele>275</ele>
      </trkpt>
      <trkpt lat="43.6617" lon="3.67786">
        <ele>275</ele>
      </trkpt>
      <trkpt lat="43.66168" lon="3.67788">
        <ele>275</ele>
      </trkpt>
      <trkpt lat="43.66166" lon="3.67791">
        <ele>275</ele>
      </trkpt>
      <trkpt lat="43.66164" lon="3.67793">
        <ele>275</ele>
      </trkpt>
      <trkpt lat="43.66162" lon="3.67795">
        <ele>275</ele>
      </trkpt>
      <trkpt lat="43.66161" lon="3.67797">
        <ele>275</ele>
      </trkpt>
      <trkpt lat="43.66159" lon="3.67798">
        <ele>275</ele>
      </trkpt>
      <trkpt lat="43.66158" lon="3.678">
        <ele>275</ele>
      </trkpt>
      <trkpt lat="43.66156" lon="3.67802">
        <ele>275</ele>
      </trkpt>
      <trkpt lat="43.66154" lon="3.67805">
        <ele>275</ele>
      </trkpt>
      <trkpt lat="43.66153" lon="3.67807">
        <ele>275</ele>
      </trkpt>
      <trkpt lat="43.66152" lon="3.6781">
        <ele>275</ele>
      </trkpt>
      <trkpt lat="43.6615" lon="3.67812">
        <ele>275</ele>
      </trkpt>
      <trkpt lat="43.66149" lon="3.67815">
        <ele>275</ele>
      </trkpt>
      <trkpt lat="43.66148" lon="3.67817">
        <ele>274</ele>
      </trkpt>
      <trkpt lat="43.66147" lon="3.6782">
        <ele>274</ele>
      </trkpt>
      <trkpt lat="43.66146" lon="3.67822">
        <ele>274</ele>
      </trkpt>
      <trkpt lat="43.66145" lon="3.67825">
        <ele>274</ele>
      </trkpt>
      <trkpt lat="43.66145" lon="3.67827">
        <ele>274</ele>
      </trkpt>
      <trkpt lat="43.66144" lon="3.6783">
        <ele>274</ele>
      </trkpt>
      <trkpt lat="43.66144" lon="3.67832">
        <ele>274</ele>
      </trkpt>
      <trkpt lat="43.66143" lon="3.67835">
        <ele>274</ele>
      </trkpt>
      <trkpt lat="43.66143" lon="3.67838">
        <ele>274</ele>
      </trkpt>
      <trkpt lat="43.66141" lon="3.6784">
        <ele>274</ele>
      </trkpt>
      <trkpt lat="43.6614" lon="3.67843">
        <ele>275</ele>
      </trkpt>
      <trkpt lat="43.66139" lon="3.67845">
        <ele>275</ele>
      </trkpt>
      <trkpt lat="43.66138" lon="3.67848">
        <ele>275</ele>
      </trkpt>
      <trkpt lat="43.66137" lon="3.6785">
        <ele>275</ele>
      </trkpt>
      <trkpt lat="43.66135" lon="3.67852">
        <ele>275</ele>
      </trkpt>
      <trkpt lat="43.66134" lon="3.67853">
        <ele>275</ele>
      </trkpt>
      <trkpt lat="43.66132" lon="3.67856">
        <ele>275</ele>
      </trkpt>
      <trkpt lat="43.66131" lon="3.67857">
        <ele>275</ele>
      </trkpt>
      <trkpt lat="43.66129" lon="3.67858">
        <ele>275</ele>
      </trkpt>
      <trkpt lat="43.66126" lon="3.67861">
        <ele>275</ele>
      </trkpt>
      <trkpt lat="43.66124" lon="3.67864">
        <ele>275</ele>
      </trkpt>
      <trkpt lat="43.66121" lon="3.67867">
        <ele>275</ele>
      </trkpt>
      <trkpt lat="43.66118" lon="3.67869">
        <ele>275</ele>
      </trkpt>
      <trkpt lat="43.66116" lon="3.67872">
        <ele>275</ele>
      </trkpt>
      <trkpt lat="43.66113" lon="3.67874">
        <ele>276</ele>
      </trkpt>
      <trkpt lat="43.6611" lon="3.67877">
        <ele>276</ele>
      </trkpt>
      <trkpt lat="43.66108" lon="3.6788">
        <ele>276</ele>
      </trkpt>
      <trkpt lat="43.66105" lon="3.67882">
        <ele>276</ele>
      </trkpt>
      <trkpt lat="43.66103" lon="3.67885">
        <ele>276</ele>
      </trkpt>
      <trkpt lat="43.66101" lon="3.67887">
        <ele>276</ele>
      </trkpt>
      <trkpt lat="43.66098" lon="3.6789">
        <ele>276</ele>
      </trkpt>
      <trkpt lat="43.66096" lon="3.67892">
        <ele>276</ele>
      </trkpt>
      <trkpt lat="43.66094" lon="3.67895">
        <ele>276</ele>
      </trkpt>
      <trkpt lat="43.66092" lon="3.67897">
        <ele>276</ele>
      </trkpt>
      <trkpt lat="43.66091" lon="3.679">
        <ele>277</ele>
      </trkpt>
      <trkpt lat="43.66089" lon="3.67902">
        <ele>277</ele>
      </trkpt>
      <trkpt lat="43.66087" lon="3.67905">
        <ele>277</ele>
      </trkpt>
      <trkpt lat="43.66085" lon="3.67907">
        <ele>277</ele>
      </trkpt>
      <trkpt lat="43.66083" lon="3.6791">
        <ele>277</ele>
      </trkpt>
      <trkpt lat="43.66081" lon="3.67913">
        <ele>280</ele>
      </trkpt>
      <trkpt lat="43.66078" lon="3.67914">
        <ele>280</ele>
      </trkpt>
      <trkpt lat="43.66076" lon="3.67916">
        <ele>280</ele>
      </trkpt>
      <trkpt lat="43.66073" lon="3.67919">
        <ele>280</ele>
      </trkpt>
      <trkpt lat="43.66072" lon="3.67921">
        <ele>280</ele>
      </trkpt>
      <trkpt lat="43.66069" lon="3.67923">
        <ele>281</ele>
      </trkpt>
      <trkpt lat="43.66066" lon="3.67927">
        <ele>281</ele>
      </trkpt>
      <trkpt lat="43.66065" lon="3.67928">
        <ele>281</ele>
      </trkpt>
      <trkpt lat="43.66063" lon="3.67931">
        <ele>281</ele>
      </trkpt>
      <trkpt lat="43.6606" lon="3.67934">
        <ele>281</ele>
      </trkpt>
      <trkpt lat="43.66058" lon="3.67937">
        <ele>281</ele>
      </trkpt>
      <trkpt lat="43.66055" lon="3.67942">
        <ele>281</ele>
      </trkpt>
      <trkpt lat="43.66051" lon="3.67947">
        <ele>281</ele>
      </trkpt>
      <trkpt lat="43.66049" lon="3.67952">
        <ele>281</ele>
      </trkpt>
      <trkpt lat="43.66045" lon="3.67957">
        <ele>281</ele>
      </trkpt>
      <trkpt lat="43.66041" lon="3.67962">
        <ele>281</ele>
      </trkpt>
      <trkpt lat="43.66038" lon="3.67966">
        <ele>281</ele>
      </trkpt>
      <trkpt lat="43.66035" lon="3.67971">
        <ele>281</ele>
      </trkpt>
      <trkpt lat="43.66032" lon="3.67974">
        <ele>281</ele>
      </trkpt>
      <trkpt lat="43.66029" lon="3.67976">
        <ele>281</ele>
      </trkpt>
      <trkpt lat="43.66027" lon="3.67979">
        <ele>281</ele>
      </trkpt>
      <trkpt lat="43.66024" lon="3.67981">
        <ele>281</ele>
      </trkpt>
      <trkpt lat="43.66023" lon="3.67982">
        <ele>281</ele>
      </trkpt>
      <trkpt lat="43.66021" lon="3.67984">
        <ele>281</ele>
      </trkpt>
      <trkpt lat="43.66019" lon="3.67985">
        <ele>282</ele>
      </trkpt>
      <trkpt lat="43.66016" lon="3.67985">
        <ele>282</ele>
      </trkpt>
      <trkpt lat="43.66014" lon="3.67985">
        <ele>282</ele>
      </trkpt>
      <trkpt lat="43.66012" lon="3.67986">
        <ele>282</ele>
      </trkpt>
      <trkpt lat="43.6601" lon="3.67986">
        <ele>282</ele>
      </trkpt>
      <trkpt lat="43.66008" lon="3.67986">
        <ele>282</ele>
      </trkpt>
      <trkpt lat="43.66006" lon="3.67986">
        <ele>282</ele>
      </trkpt>
      <trkpt lat="43.66004" lon="3.67986">
        <ele>282</ele>
      </trkpt>
      <trkpt lat="43.66003" lon="3.67987">
        <ele>282</ele>
      </trkpt>
      <trkpt lat="43.66001" lon="3.67987">
        <ele>282</ele>
      </trkpt>
      <trkpt lat="43.65999" lon="3.67988">
        <ele>282</ele>
      </trkpt>
      <trkpt lat="43.65997" lon="3.67988">
        <ele>282</ele>
      </trkpt>
      <trkpt lat="43.65995" lon="3.67988">
        <ele>282</ele>
      </trkpt>
      <trkpt lat="43.65992" lon="3.67989">
        <ele>282</ele>
      </trkpt>
      <trkpt lat="43.6599" lon="3.67991">
        <ele>282</ele>
      </trkpt>
      <trkpt lat="43.6599" lon="3.67993">
        <ele>282</ele>
      </trkpt>
      <trkpt lat="43.65988" lon="3.67995">
        <ele>282</ele>
      </trkpt>
      <trkpt lat="43.65986" lon="3.67998">
        <ele>282</ele>
      </trkpt>
      <trkpt lat="43.65983" lon="3.68002">
        <ele>283</ele>
      </trkpt>
      <trkpt lat="43.65982" lon="3.68004">
        <ele>283</ele>
      </trkpt>
      <trkpt lat="43.65981" lon="3.68006">
        <ele>283</ele>
      </trkpt>
      <trkpt lat="43.65979" lon="3.6801">
        <ele>283</ele>
      </trkpt>
      <trkpt lat="43.65976" lon="3.68013">
        <ele>283</ele>
      </trkpt>
      <trkpt lat="43.65973" lon="3.68016">
        <ele>283</ele>
      </trkpt>
      <trkpt lat="43.65972" lon="3.68019">
        <ele>283</ele>
      </trkpt>
      <trkpt lat="43.65969" lon="3.68022">
        <ele>283</ele>
      </trkpt>
      <trkpt lat="43.65967" lon="3.68026">
        <ele>283</ele>
      </trkpt>
      <trkpt lat="43.65964" lon="3.68029">
        <ele>283</ele>
      </trkpt>
      <trkpt lat="43.65963" lon="3.6803">
        <ele>283</ele>
      </trkpt>
      <trkpt lat="43.6596" lon="3.68034">
        <ele>284</ele>
      </trkpt>
      <trkpt lat="43.65957" lon="3.68037">
        <ele>284</ele>
      </trkpt>
      <trkpt lat="43.65955" lon="3.6804">
        <ele>284</ele>
      </trkpt>
      <trkpt lat="43.65952" lon="3.68043">
        <ele>284</ele>
      </trkpt>
      <trkpt lat="43.6595" lon="3.68046">
        <ele>284</ele>
      </trkpt>
      <trkpt lat="43.65947" lon="3.68049">
        <ele>286</ele>
      </trkpt>
      <trkpt lat="43.65944" lon="3.68052">
        <ele>286</ele>
      </trkpt>
      <trkpt lat="43.65942" lon="3.68055">
        <ele>286</ele>
      </trkpt>
      <trkpt lat="43.65939" lon="3.68057">
        <ele>286</ele>
      </trkpt>
      <trkpt lat="43.65937" lon="3.6806">
        <ele>286</ele>
      </trkpt>
      <trkpt lat="43.65934" lon="3.68063">
        <ele>286</ele>
      </trkpt>
      <trkpt lat="43.65931" lon="3.68065">
        <ele>286</ele>
      </trkpt>
      <trkpt lat="43.65928" lon="3.68067">
        <ele>286</ele>
      </trkpt>
      <trkpt lat="43.65925" lon="3.68069">
        <ele>286</ele>
      </trkpt>
      <trkpt lat="43.65923" lon="3.68071">
        <ele>286</ele>
      </trkpt>
      <trkpt lat="43.65922" lon="3.68073">
        <ele>286</ele>
      </trkpt>
      <trkpt lat="43.65921" lon="3.68074">
        <ele>286</ele>
      </trkpt>
      <trkpt lat="43.65919" lon="3.68076">
        <ele>287</ele>
      </trkpt>
      <trkpt lat="43.65917" lon="3.68078">
        <ele>287</ele>
      </trkpt>
      <trkpt lat="43.65915" lon="3.6808">
        <ele>287</ele>
      </trkpt>
      <trkpt lat="43.65914" lon="3.68081">
        <ele>287</ele>
      </trkpt>
      <trkpt lat="43.65911" lon="3.68083">
        <ele>287</ele>
      </trkpt>
      <trkpt lat="43.65909" lon="3.68084">
        <ele>287</ele>
      </trkpt>
      <trkpt lat="43.65907" lon="3.68085">
        <ele>287</ele>
      </trkpt>
      <trkpt lat="43.65905" lon="3.68086">
        <ele>287</ele>
      </trkpt>
      <trkpt lat="43.65903" lon="3.68087">
        <ele>287</ele>
      </trkpt>
      <trkpt lat="43.659" lon="3.68087">
        <ele>287</ele>
      </trkpt>
      <trkpt lat="43.65898" lon="3.68088">
        <ele>287</ele>
      </trkpt>
      <trkpt lat="43.65896" lon="3.68088">
        <ele>287</ele>
      </trkpt>
      <trkpt lat="43.65894" lon="3.68088">
        <ele>287</ele>
      </trkpt>
      <trkpt lat="43.65892" lon="3.68088">
        <ele>287</ele>
      </trkpt>
      <trkpt lat="43.6589" lon="3.68089">
        <ele>287</ele>
      </trkpt>
      <trkpt lat="43.65888" lon="3.68089">
        <ele>287</ele>
      </trkpt>
      <trkpt lat="43.65885" lon="3.6809">
        <ele>287</ele>
      </trkpt>
      <trkpt lat="43.65884" lon="3.6809">
        <ele>287</ele>
      </trkpt>
      <trkpt lat="43.65881" lon="3.6809">
        <ele>287</ele>
      </trkpt>
      <trkpt lat="43.65879" lon="3.6809">
        <ele>287</ele>
      </trkpt>
      <trkpt lat="43.65877" lon="3.68089">
        <ele>287</ele>
      </trkpt>
      <trkpt lat="43.65874" lon="3.68089">
        <ele>287</ele>
      </trkpt>
      <trkpt lat="43.65871" lon="3.68088">
        <ele>287</ele>
      </trkpt>
      <trkpt lat="43.65869" lon="3.68087">
        <ele>287</ele>
      </trkpt>
      <trkpt lat="43.65867" lon="3.68086">
        <ele>287</ele>
      </trkpt>
      <trkpt lat="43.65864" lon="3.68084">
        <ele>287</ele>
      </trkpt>
      <trkpt lat="43.65862" lon="3.68082">
        <ele>287</ele>
      </trkpt>
      <trkpt lat="43.6586" lon="3.68079">
        <ele>287</ele>
      </trkpt>
      <trkpt lat="43.65859" lon="3.68076">
        <ele>287</ele>
      </trkpt>
      <trkpt lat="43.65857" lon="3.68073">
        <ele>287</ele>
      </trkpt>
      <trkpt lat="43.65855" lon="3.68069">
        <ele>287</ele>
      </trkpt>
      <trkpt lat="43.65854" lon="3.68066">
        <ele>287</ele>
      </trkpt>
      <trkpt lat="43.65852" lon="3.68063">
        <ele>287</ele>
      </trkpt>
      <trkpt lat="43.65851" lon="3.6806">
        <ele>287</ele>
      </trkpt>
      <trkpt lat="43.65849" lon="3.68057">
        <ele>287</ele>
      </trkpt>
      <trkpt lat="43.65847" lon="3.68054">
        <ele>287</ele>
      </trkpt>
      <trkpt lat="43.65846" lon="3.68052">
        <ele>287</ele>
      </trkpt>
      <trkpt lat="43.65845" lon="3.6805">
        <ele>287</ele>
      </trkpt>
      <trkpt lat="43.65844" lon="3.68048">
        <ele>287</ele>
      </trkpt>
      <trkpt lat="43.65842" lon="3.68047">
        <ele>288</ele>
      </trkpt>
      <trkpt lat="43.65842" lon="3.68047">
        <ele>288</ele>
      </trkpt>
      <trkpt lat="43.65842" lon="3.68046">
        <ele>288</ele>
      </trkpt>
      <trkpt lat="43.65836" lon="3.68039">
        <ele>292</ele>
      </trkpt>
      <trkpt lat="43.65833" lon="3.68036">
        <ele>292</ele>
      </trkpt>
      <trkpt lat="43.6583" lon="3.68034">
        <ele>292</ele>
      </trkpt>
      <trkpt lat="43.65828" lon="3.6803">
        <ele>292</ele>
      </trkpt>
      <trkpt lat="43.65824" lon="3.68027">
        <ele>292</ele>
      </trkpt>
      <trkpt lat="43.65821" lon="3.68024">
        <ele>292</ele>
      </trkpt>
      <trkpt lat="43.65818" lon="3.68021">
        <ele>292</ele>
      </trkpt>
      <trkpt lat="43.65814" lon="3.68017">
        <ele>292</ele>
      </trkpt>
      <trkpt lat="43.65811" lon="3.68014">
        <ele>292</ele>
      </trkpt>
      <trkpt lat="43.65807" lon="3.68011">
        <ele>292</ele>
      </trkpt>
      <trkpt lat="43.65804" lon="3.68007">
        <ele>292</ele>
      </trkpt>
      <trkpt lat="43.65801" lon="3.68004">
        <ele>292</ele>
      </trkpt>
      <trkpt lat="43.65798" lon="3.68">
        <ele>292</ele>
      </trkpt>
      <trkpt lat="43.65796" lon="3.67997">
        <ele>292</ele>
      </trkpt>
      <trkpt lat="43.65793" lon="3.67993">
        <ele>292</ele>
      </trkpt>
      <trkpt lat="43.65791" lon="3.6799">
        <ele>292</ele>
      </trkpt>
      <trkpt lat="43.65788" lon="3.67985">
        <ele>292</ele>
      </trkpt>
      <trkpt lat="43.65786" lon="3.67982">
        <ele>292</ele>
      </trkpt>
      <trkpt lat="43.65784" lon="3.67979">
        <ele>292</ele>
      </trkpt>
      <trkpt lat="43.65782" lon="3.67976">
        <ele>292</ele>
      </trkpt>
      <trkpt lat="43.65779" lon="3.67973">
        <ele>292</ele>
      </trkpt>
      <trkpt lat="43.65777" lon="3.67969">
        <ele>291</ele>
      </trkpt>
      <trkpt lat="43.65774" lon="3.67964">
        <ele>291</ele>
      </trkpt>
      <trkpt lat="43.6577" lon="3.6796">
        <ele>291</ele>
      </trkpt>
      <trkpt lat="43.65766" lon="3.67955">
        <ele>291</ele>
      </trkpt>
      <trkpt lat="43.65762" lon="3.67949">
        <ele>291</ele>
      </trkpt>
      <trkpt lat="43.65758" lon="3.67942">
        <ele>291</ele>
      </trkpt>
      <trkpt lat="43.65755" lon="3.67935">
        <ele>291</ele>
      </trkpt>
      <trkpt lat="43.65752" lon="3.67928">
        <ele>291</ele>
      </trkpt>
      <trkpt lat="43.65748" lon="3.67921">
        <ele>291</ele>
      </trkpt>
      <trkpt lat="43.65745" lon="3.67913">
        <ele>291</ele>
      </trkpt>
      <trkpt lat="43.65742" lon="3.67905">
        <ele>289</ele>
      </trkpt>
      <trkpt lat="43.6574" lon="3.67896">
        <ele>289</ele>
      </trkpt>
      <trkpt lat="43.65737" lon="3.67888">
        <ele>289</ele>
      </trkpt>
      <trkpt lat="43.65735" lon="3.6788">
        <ele>289</ele>
      </trkpt>
      <trkpt lat="43.65732" lon="3.67872">
        <ele>289</ele>
      </trkpt>
      <trkpt lat="43.6573" lon="3.67864">
        <ele>289</ele>
      </trkpt>
      <trkpt lat="43.65727" lon="3.67857">
        <ele>289</ele>
      </trkpt>
      <trkpt lat="43.65724" lon="3.6785">
        <ele>289</ele>
      </trkpt>
      <trkpt lat="43.65721" lon="3.67844">
        <ele>289</ele>
      </trkpt>
      <trkpt lat="43.65718" lon="3.67838">
        <ele>289</ele>
      </trkpt>
      <trkpt lat="43.65717" lon="3.67834">
        <ele>287</ele>
      </trkpt>
      <trkpt lat="43.65716" lon="3.67831">
        <ele>287</ele>
      </trkpt>
      <trkpt lat="43.65715" lon="3.67828">
        <ele>287</ele>
      </trkpt>
      <trkpt lat="43.65714" lon="3.67826">
        <ele>287</ele>
      </trkpt>
      <trkpt lat="43.65714" lon="3.67824">
        <ele>287</ele>
      </trkpt>
      <trkpt lat="43.65713" lon="3.67821">
        <ele>287</ele>
      </trkpt>
      <trkpt lat="43.65713" lon="3.67817">
        <ele>287</ele>
      </trkpt>
      <trkpt lat="43.65714" lon="3.67813">
        <ele>287</ele>
      </trkpt>
      <trkpt lat="43.65714" lon="3.67808">
        <ele>287</ele>
      </trkpt>
      <trkpt lat="43.65714" lon="3.67803">
        <ele>287</ele>
      </trkpt>
      <trkpt lat="43.65714" lon="3.67798">
        <ele>284</ele>
      </trkpt>
      <trkpt lat="43.65713" lon="3.67794">
        <ele>284</ele>
      </trkpt>
      <trkpt lat="43.65711" lon="3.6779">
        <ele>284</ele>
      </trkpt>
      <trkpt lat="43.65708" lon="3.67788">
        <ele>284</ele>
      </trkpt>
      <trkpt lat="43.65706" lon="3.67787">
        <ele>284</ele>
      </trkpt>
      <trkpt lat="43.65703" lon="3.67787">
        <ele>284</ele>
      </trkpt>
      <trkpt lat="43.65701" lon="3.67787">
        <ele>284</ele>
      </trkpt>
      <trkpt lat="43.65699" lon="3.67788">
        <ele>284</ele>
      </trkpt>
      <trkpt lat="43.65698" lon="3.67789">
        <ele>284</ele>
      </trkpt>
      <trkpt lat="43.65697" lon="3.67792">
        <ele>284</ele>
      </trkpt>
      <trkpt lat="43.65695" lon="3.67795">
        <ele>281</ele>
      </trkpt>
      <trkpt lat="43.65695" lon="3.678">
        <ele>281</ele>
      </trkpt>
      <trkpt lat="43.65694" lon="3.67805">
        <ele>281</ele>
      </trkpt>
      <trkpt lat="43.65691" lon="3.67809">
        <ele>281</ele>
      </trkpt>
      <trkpt lat="43.65687" lon="3.67813">
        <ele>281</ele>
      </trkpt>
      <trkpt lat="43.65684" lon="3.67817">
        <ele>281</ele>
      </trkpt>
      <trkpt lat="43.65681" lon="3.67821">
        <ele>281</ele>
      </trkpt>
      <trkpt lat="43.65679" lon="3.67825">
        <ele>281</ele>
      </trkpt>
      <trkpt lat="43.65677" lon="3.67828">
        <ele>281</ele>
      </trkpt>
      <trkpt lat="43.65676" lon="3.67831">
        <ele>281</ele>
      </trkpt>
      <trkpt lat="43.65674" lon="3.67833">
        <ele>278</ele>
      </trkpt>
      <trkpt lat="43.65672" lon="3.67833">
        <ele>278</ele>
      </trkpt>
      <trkpt lat="43.65666" lon="3.6783">
        <ele>277</ele>
      </trkpt>
      <trkpt lat="43.65663" lon="3.67829">
        <ele>277</ele>
      </trkpt>
      <trkpt lat="43.65661" lon="3.67828">
        <ele>277</ele>
      </trkpt>
      <trkpt lat="43.65659" lon="3.67829">
        <ele>277</ele>
      </trkpt>
      <trkpt lat="43.65656" lon="3.6783">
        <ele>277</ele>
      </trkpt>
      <trkpt lat="43.65654" lon="3.67831">
        <ele>277</ele>
      </trkpt>
      <trkpt lat="43.6565" lon="3.67833">
        <ele>277</ele>
      </trkpt>
      <trkpt lat="43.65648" lon="3.67833">
        <ele>277</ele>
      </trkpt>
      <trkpt lat="43.65644" lon="3.67832">
        <ele>277</ele>
      </trkpt>
      <trkpt lat="43.65642" lon="3.67831">
        <ele>277</ele>
      </trkpt>
      <trkpt lat="43.65639" lon="3.67831">
        <ele>277</ele>
      </trkpt>
      <trkpt lat="43.65636" lon="3.67831">
        <ele>275</ele>
      </trkpt>
      <trkpt lat="43.65634" lon="3.67831">
        <ele>275</ele>
      </trkpt>
      <trkpt lat="43.65632" lon="3.67833">
        <ele>275</ele>
      </trkpt>
      <trkpt lat="43.65631" lon="3.67836">
        <ele>275</ele>
      </trkpt>
      <trkpt lat="43.65631" lon="3.67841">
        <ele>275</ele>
      </trkpt>
      <trkpt lat="43.65631" lon="3.67845">
        <ele>275</ele>
      </trkpt>
      <trkpt lat="43.65631" lon="3.67848">
        <ele>275</ele>
      </trkpt>
      <trkpt lat="43.6563" lon="3.67851">
        <ele>274</ele>
      </trkpt>
      <trkpt lat="43.6563" lon="3.67851">
        <ele>273</ele>
      </trkpt>
      <trkpt lat="43.65632" lon="3.67858">
        <ele>271</ele>
      </trkpt>
      <trkpt lat="43.65634" lon="3.67861">
        <ele>271</ele>
      </trkpt>
      <trkpt lat="43.65635" lon="3.67866">
        <ele>271</ele>
      </trkpt>
      <trkpt lat="43.65636" lon="3.67869">
        <ele>271</ele>
      </trkpt>
      <trkpt lat="43.65636" lon="3.67873">
        <ele>271</ele>
      </trkpt>
      <trkpt lat="43.65637" lon="3.67877">
        <ele>271</ele>
      </trkpt>
      <trkpt lat="43.65638" lon="3.6788">
        <ele>271</ele>
      </trkpt>
      <trkpt lat="43.6564" lon="3.67884">
        <ele>271</ele>
      </trkpt>
      <trkpt lat="43.65643" lon="3.67889">
        <ele>271</ele>
      </trkpt>
      <trkpt lat="43.65644" lon="3.67895">
        <ele>271</ele>
      </trkpt>
      <trkpt lat="43.65645" lon="3.67902">
        <ele>271</ele>
      </trkpt>
      <trkpt lat="43.65645" lon="3.67908">
        <ele>270</ele>
      </trkpt>
      <trkpt lat="43.65643" lon="3.67913">
        <ele>270</ele>
      </trkpt>
      <trkpt lat="43.65642" lon="3.67918">
        <ele>270</ele>
      </trkpt>
      <trkpt lat="43.65642" lon="3.67924">
        <ele>270</ele>
      </trkpt>
      <trkpt lat="43.65641" lon="3.6793">
        <ele>270</ele>
      </trkpt>
      <trkpt lat="43.6564" lon="3.67938">
        <ele>270</ele>
      </trkpt>
      <trkpt lat="43.65638" lon="3.67945">
        <ele>270</ele>
      </trkpt>
      <trkpt lat="43.65635" lon="3.67952">
        <ele>270</ele>
      </trkpt>
      <trkpt lat="43.65633" lon="3.67957">
        <ele>270</ele>
      </trkpt>
      <trkpt lat="43.65633" lon="3.67963">
        <ele>270</ele>
      </trkpt>
      <trkpt lat="43.65633" lon="3.67968">
        <ele>268</ele>
      </trkpt>
      <trkpt lat="43.65633" lon="3.67973">
        <ele>268</ele>
      </trkpt>
      <trkpt lat="43.65632" lon="3.6798">
        <ele>268</ele>
      </trkpt>
      <trkpt lat="43.65631" lon="3.67985">
        <ele>268</ele>
      </trkpt>
      <trkpt lat="43.6563" lon="3.67991">
        <ele>268</ele>
      </trkpt>
      <trkpt lat="43.65629" lon="3.67997">
        <ele>268</ele>
      </trkpt>
      <trkpt lat="43.65628" lon="3.68003">
        <ele>268</ele>
      </trkpt>
      <trkpt lat="43.65626" lon="3.68008">
        <ele>268</ele>
      </trkpt>
      <trkpt lat="43.65624" lon="3.68012">
        <ele>268</ele>
      </trkpt>
      <trkpt lat="43.65622" lon="3.68015">
        <ele>268</ele>
      </trkpt>
      <trkpt lat="43.65622" lon="3.68018">
        <ele>265</ele>
      </trkpt>
      <trkpt lat="43.65623" lon="3.68021">
        <ele>265</ele>
      </trkpt>
      <trkpt lat="43.65624" lon="3.68025">
        <ele>265</ele>
      </trkpt>
      <trkpt lat="43.65625" lon="3.6803">
        <ele>265</ele>
      </trkpt>
      <trkpt lat="43.65626" lon="3.68034">
        <ele>265</ele>
      </trkpt>
      <trkpt lat="43.65626" lon="3.68039">
        <ele>265</ele>
      </trkpt>
      <trkpt lat="43.65625" lon="3.68042">
        <ele>265</ele>
      </trkpt>
      <trkpt lat="43.65624" lon="3.68045">
        <ele>265</ele>
      </trkpt>
      <trkpt lat="43.65622" lon="3.68048">
        <ele>265</ele>
      </trkpt>
      <trkpt lat="43.6562" lon="3.68051">
        <ele>265</ele>
      </trkpt>
      <trkpt lat="43.65617" lon="3.68055">
        <ele>262</ele>
      </trkpt>
      <trkpt lat="43.65614" lon="3.68058">
        <ele>262</ele>
      </trkpt>
      <trkpt lat="43.65611" lon="3.6806">
        <ele>262</ele>
      </trkpt>
      <trkpt lat="43.6561" lon="3.68063">
        <ele>262</ele>
      </trkpt>
      <trkpt lat="43.65612" lon="3.68066">
        <ele>262</ele>
      </trkpt>
      <trkpt lat="43.65614" lon="3.6807">
        <ele>262</ele>
      </trkpt>
      <trkpt lat="43.65616" lon="3.68074">
        <ele>262</ele>
      </trkpt>
      <trkpt lat="43.65617" lon="3.68077">
        <ele>262</ele>
      </trkpt>
      <trkpt lat="43.65617" lon="3.68082">
        <ele>262</ele>
      </trkpt>
      <trkpt lat="43.65616" lon="3.68086">
        <ele>262</ele>
      </trkpt>
      <trkpt lat="43.65614" lon="3.68091">
        <ele>259</ele>
      </trkpt>
      <trkpt lat="43.65612" lon="3.68096">
        <ele>259</ele>
      </trkpt>
      <trkpt lat="43.65612" lon="3.681">
        <ele>259</ele>
      </trkpt>
      <trkpt lat="43.65612" lon="3.68104">
        <ele>259</ele>
      </trkpt>
      <trkpt lat="43.65615" lon="3.68107">
        <ele>259</ele>
      </trkpt>
      <trkpt lat="43.65618" lon="3.68108">
        <ele>259</ele>
      </trkpt>
      <trkpt lat="43.6562" lon="3.68107">
        <ele>259</ele>
      </trkpt>
      <trkpt lat="43.65623" lon="3.68106">
        <ele>259</ele>
      </trkpt>
      <trkpt lat="43.65626" lon="3.68103">
        <ele>259</ele>
      </trkpt>
      <trkpt lat="43.6563" lon="3.68101">
        <ele>259</ele>
      </trkpt>
      <trkpt lat="43.65633" lon="3.681">
        <ele>256</ele>
      </trkpt>
      <trkpt lat="43.65637" lon="3.68098">
        <ele>256</ele>
      </trkpt>
      <trkpt lat="43.6564" lon="3.68096">
        <ele>256</ele>
      </trkpt>
      <trkpt lat="43.65643" lon="3.68093">
        <ele>256</ele>
      </trkpt>
      <trkpt lat="43.65649" lon="3.68088">
        <ele>256</ele>
      </trkpt>
      <trkpt lat="43.6565" lon="3.68085">
        <ele>256</ele>
      </trkpt>
      <trkpt lat="43.65653" lon="3.68084">
        <ele>256</ele>
      </trkpt>
      <trkpt lat="43.65655" lon="3.68083">
        <ele>256</ele>
      </trkpt>
      <trkpt lat="43.65658" lon="3.68083">
        <ele>256</ele>
      </trkpt>
      <trkpt lat="43.65661" lon="3.68083">
        <ele>251</ele>
      </trkpt>
      <trkpt lat="43.65663" lon="3.68084">
        <ele>251</ele>
      </trkpt>
      <trkpt lat="43.65666" lon="3.68084">
        <ele>249</ele>
      </trkpt>
      <trkpt lat="43.65667" lon="3.68086">
        <ele>249</ele>
      </trkpt>
      <trkpt lat="43.65669" lon="3.68087">
        <ele>249</ele>
      </trkpt>
      <trkpt lat="43.65671" lon="3.68088">
        <ele>249</ele>
      </trkpt>
      <trkpt lat="43.65673" lon="3.68088">
        <ele>249</ele>
      </trkpt>
      <trkpt lat="43.65676" lon="3.68089">
        <ele>247</ele>
      </trkpt>
      <trkpt lat="43.65678" lon="3.68091">
        <ele>247</ele>
      </trkpt>
      <trkpt lat="43.65679" lon="3.68092">
        <ele>247</ele>
      </trkpt>
      <trkpt lat="43.65681" lon="3.68094">
        <ele>247</ele>
      </trkpt>
      <trkpt lat="43.65684" lon="3.68096">
        <ele>246</ele>
      </trkpt>
      <trkpt lat="43.65685" lon="3.68098">
        <ele>246</ele>
      </trkpt>
      <trkpt lat="43.65687" lon="3.681">
        <ele>246</ele>
      </trkpt>
      <trkpt lat="43.65689" lon="3.68101">
        <ele>246</ele>
      </trkpt>
      <trkpt lat="43.65691" lon="3.68103">
        <ele>244</ele>
      </trkpt>
      <trkpt lat="43.65692" lon="3.68103">
        <ele>244</ele>
      </trkpt>
      <trkpt lat="43.65695" lon="3.68104">
        <ele>244</ele>
      </trkpt>
      <trkpt lat="43.65697" lon="3.68106">
        <ele>244</ele>
      </trkpt>
      <trkpt lat="43.65699" lon="3.68107">
        <ele>244</ele>
      </trkpt>
      <trkpt lat="43.65702" lon="3.68108">
        <ele>242</ele>
      </trkpt>
      <trkpt lat="43.65705" lon="3.6811">
        <ele>242</ele>
      </trkpt>
      <trkpt lat="43.65707" lon="3.68111">
        <ele>242</ele>
      </trkpt>
      <trkpt lat="43.65708" lon="3.68112">
        <ele>242</ele>
      </trkpt>
      <trkpt lat="43.6571" lon="3.68113">
        <ele>242</ele>
      </trkpt>
      <trkpt lat="43.65713" lon="3.68116">
        <ele>242</ele>
      </trkpt>
      <trkpt lat="43.65715" lon="3.68116">
        <ele>242</ele>
      </trkpt>
      <trkpt lat="43.65717" lon="3.68118">
        <ele>242</ele>
      </trkpt>
      <trkpt lat="43.65718" lon="3.6812">
        <ele>242</ele>
      </trkpt>
      <trkpt lat="43.65719" lon="3.68122">
        <ele>242</ele>
      </trkpt>
      <trkpt lat="43.6572" lon="3.68125">
        <ele>242</ele>
      </trkpt>
      <trkpt lat="43.65722" lon="3.68126">
        <ele>242</ele>
      </trkpt>
      <trkpt lat="43.65724" lon="3.6813">
        <ele>242</ele>
      </trkpt>
      <trkpt lat="43.65726" lon="3.68133">
        <ele>242</ele>
      </trkpt>
      <trkpt lat="43.6574" lon="3.68147">
        <ele>239</ele>
      </trkpt>
      <trkpt lat="43.65743" lon="3.68151">
        <ele>239</ele>
      </trkpt>
      <trkpt lat="43.65746" lon="3.68155">
        <ele>239</ele>
      </trkpt>
      <trkpt lat="43.65729" lon="3.68136">
        <ele>241</ele>
      </trkpt>
      <trkpt lat="43.65747" lon="3.68158">
        <ele>239</ele>
      </trkpt>
      <trkpt lat="43.65749" lon="3.68162">
        <ele>239</ele>
      </trkpt>
      <trkpt lat="43.65731" lon="3.68138">
        <ele>241</ele>
      </trkpt>
      <trkpt lat="43.65733" lon="3.68139">
        <ele>241</ele>
      </trkpt>
      <trkpt lat="43.65733" lon="3.68139">
        <ele>240</ele>
      </trkpt>
      <trkpt lat="43.65753" lon="3.68174">
        <ele>237</ele>
      </trkpt>
      <trkpt lat="43.65754" lon="3.68175">
        <ele>237</ele>
      </trkpt>
      <trkpt lat="43.65748" lon="3.68163">
        <ele>238</ele>
      </trkpt>
      <trkpt lat="43.65754" lon="3.68177">
        <ele>237</ele>
      </trkpt>
      <trkpt lat="43.65756" lon="3.6818">
        <ele>237</ele>
      </trkpt>
      <trkpt lat="43.65757" lon="3.68184">
        <ele>238</ele>
      </trkpt>
      <trkpt lat="43.65757" lon="3.68187">
        <ele>238</ele>
      </trkpt>
      <trkpt lat="43.65759" lon="3.68189">
        <ele>238</ele>
      </trkpt>
      <trkpt lat="43.6576" lon="3.6819">
        <ele>238</ele>
      </trkpt>
      <trkpt lat="43.65763" lon="3.68195">
        <ele>239</ele>
      </trkpt>
      <trkpt lat="43.65764" lon="3.68197">
        <ele>239</ele>
      </trkpt>
      <trkpt lat="43.65768" lon="3.682">
        <ele>239</ele>
      </trkpt>
      <trkpt lat="43.65769" lon="3.68202">
        <ele>239</ele>
      </trkpt>
      <trkpt lat="43.6577" lon="3.68205">
        <ele>239</ele>
      </trkpt>
      <trkpt lat="43.65771" lon="3.68207">
        <ele>239</ele>
      </trkpt>
      <trkpt lat="43.65772" lon="3.6821">
        <ele>239</ele>
      </trkpt>
      <trkpt lat="43.65774" lon="3.68212">
        <ele>239</ele>
      </trkpt>
      <trkpt lat="43.65776" lon="3.68214">
        <ele>239</ele>
      </trkpt>
      <trkpt lat="43.65778" lon="3.68216">
        <ele>239</ele>
      </trkpt>
      <trkpt lat="43.65779" lon="3.68218">
        <ele>239</ele>
      </trkpt>
      <trkpt lat="43.6578" lon="3.6822">
        <ele>239</ele>
      </trkpt>
      <trkpt lat="43.65782" lon="3.68222">
        <ele>239</ele>
      </trkpt>
      <trkpt lat="43.65784" lon="3.68225">
        <ele>239</ele>
      </trkpt>
      <trkpt lat="43.65785" lon="3.68226">
        <ele>239</ele>
      </trkpt>
      <trkpt lat="43.65787" lon="3.68228">
        <ele>239</ele>
      </trkpt>
      <trkpt lat="43.65789" lon="3.68231">
        <ele>239</ele>
      </trkpt>
      <trkpt lat="43.65792" lon="3.68233">
        <ele>239</ele>
      </trkpt>
      <trkpt lat="43.65794" lon="3.68236">
        <ele>239</ele>
      </trkpt>
      <trkpt lat="43.65796" lon="3.68238">
        <ele>239</ele>
      </trkpt>
      <trkpt lat="43.65798" lon="3.68239">
        <ele>239</ele>
      </trkpt>
      <trkpt lat="43.658" lon="3.68242">
        <ele>239</ele>
      </trkpt>
      <trkpt lat="43.65802" lon="3.68244">
        <ele>239</ele>
      </trkpt>
      <trkpt lat="43.65803" lon="3.68246">
        <ele>239</ele>
      </trkpt>
      <trkpt lat="43.65805" lon="3.68248">
        <ele>239</ele>
      </trkpt>
      <trkpt lat="43.65807" lon="3.6825">
        <ele>239</ele>
      </trkpt>
      <trkpt lat="43.65809" lon="3.68252">
        <ele>239</ele>
      </trkpt>
      <trkpt lat="43.65811" lon="3.68254">
        <ele>239</ele>
      </trkpt>
      <trkpt lat="43.65812" lon="3.68255">
        <ele>239</ele>
      </trkpt>
      <trkpt lat="43.65815" lon="3.68259">
        <ele>239</ele>
      </trkpt>
      <trkpt lat="43.65816" lon="3.68262">
        <ele>239</ele>
      </trkpt>
      <trkpt lat="43.65818" lon="3.68264">
        <ele>239</ele>
      </trkpt>
      <trkpt lat="43.65819" lon="3.68266">
        <ele>239</ele>
      </trkpt>
      <trkpt lat="43.65821" lon="3.68269">
        <ele>239</ele>
      </trkpt>
      <trkpt lat="43.65823" lon="3.68272">
        <ele>239</ele>
      </trkpt>
      <trkpt lat="43.65823" lon="3.68274">
        <ele>239</ele>
      </trkpt>
      <trkpt lat="43.65826" lon="3.68277">
        <ele>239</ele>
      </trkpt>
      <trkpt lat="43.65829" lon="3.68279">
        <ele>239</ele>
      </trkpt>
      <trkpt lat="43.6583" lon="3.68282">
        <ele>239</ele>
      </trkpt>
      <trkpt lat="43.65831" lon="3.68286">
        <ele>239</ele>
      </trkpt>
      <trkpt lat="43.65834" lon="3.6829">
        <ele>239</ele>
      </trkpt>
      <trkpt lat="43.65836" lon="3.68293">
        <ele>239</ele>
      </trkpt>
      <trkpt lat="43.65838" lon="3.68296">
        <ele>239</ele>
      </trkpt>
      <trkpt lat="43.65844" lon="3.68301">
        <ele>239</ele>
      </trkpt>
      <trkpt lat="43.65847" lon="3.68305">
        <ele>239</ele>
      </trkpt>
      <trkpt lat="43.65851" lon="3.68309">
        <ele>239</ele>
      </trkpt>
      <trkpt lat="43.65858" lon="3.68318">
        <ele>239</ele>
      </trkpt>
      <trkpt lat="43.65861" lon="3.68323">
        <ele>239</ele>
      </trkpt>
      <trkpt lat="43.65863" lon="3.68327">
        <ele>239</ele>
      </trkpt>
      <trkpt lat="43.65866" lon="3.68331">
        <ele>239</ele>
      </trkpt>
      <trkpt lat="43.65868" lon="3.68334">
        <ele>239</ele>
      </trkpt>
      <trkpt lat="43.65869" lon="3.68337">
        <ele>239</ele>
      </trkpt>
      <trkpt lat="43.65871" lon="3.6834">
        <ele>239</ele>
      </trkpt>
      <trkpt lat="43.65873" lon="3.68342">
        <ele>239</ele>
      </trkpt>
      <trkpt lat="43.65876" lon="3.68344">
        <ele>239</ele>
      </trkpt>
      <trkpt lat="43.65877" lon="3.68346">
        <ele>239</ele>
      </trkpt>
      <trkpt lat="43.65879" lon="3.6835">
        <ele>239</ele>
      </trkpt>
      <trkpt lat="43.6588" lon="3.68353">
        <ele>238</ele>
      </trkpt>
      <trkpt lat="43.65881" lon="3.68357">
        <ele>238</ele>
      </trkpt>
      <trkpt lat="43.65882" lon="3.6836">
        <ele>238</ele>
      </trkpt>
      <trkpt lat="43.65883" lon="3.68363">
        <ele>238</ele>
      </trkpt>
      <trkpt lat="43.65884" lon="3.68366">
        <ele>238</ele>
      </trkpt>
      <trkpt lat="43.65885" lon="3.68369">
        <ele>238</ele>
      </trkpt>
      <trkpt lat="43.65886" lon="3.68371">
        <ele>238</ele>
      </trkpt>
      <trkpt lat="43.65888" lon="3.68373">
        <ele>238</ele>
      </trkpt>
      <trkpt lat="43.65891" lon="3.68376">
        <ele>238</ele>
      </trkpt>
      <trkpt lat="43.65893" lon="3.68378">
        <ele>238</ele>
      </trkpt>
      <trkpt lat="43.65897" lon="3.6838">
        <ele>236</ele>
      </trkpt>
      <trkpt lat="43.65899" lon="3.68382">
        <ele>236</ele>
      </trkpt>
      <trkpt lat="43.65902" lon="3.68384">
        <ele>236</ele>
      </trkpt>
      <trkpt lat="43.65905" lon="3.68385">
        <ele>236</ele>
      </trkpt>
      <trkpt lat="43.65907" lon="3.68386">
        <ele>236</ele>
      </trkpt>
      <trkpt lat="43.6591" lon="3.68387">
        <ele>236</ele>
      </trkpt>
      <trkpt lat="43.65913" lon="3.68388">
        <ele>236</ele>
      </trkpt>
      <trkpt lat="43.65916" lon="3.68389">
        <ele>236</ele>
      </trkpt>
      <trkpt lat="43.6592" lon="3.68391">
        <ele>236</ele>
      </trkpt>
      <trkpt lat="43.65922" lon="3.68393">
        <ele>236</ele>
      </trkpt>
      <trkpt lat="43.65924" lon="3.68396">
        <ele>234</ele>
      </trkpt>
      <trkpt lat="43.65926" lon="3.68398">
        <ele>234</ele>
      </trkpt>
      <trkpt lat="43.65928" lon="3.68399">
        <ele>234</ele>
      </trkpt>
      <trkpt lat="43.6593" lon="3.68402">
        <ele>234</ele>
      </trkpt>
      <trkpt lat="43.65932" lon="3.68404">
        <ele>234</ele>
      </trkpt>
      <trkpt lat="43.65934" lon="3.68407">
        <ele>234</ele>
      </trkpt>
      <trkpt lat="43.65934" lon="3.68409">
        <ele>234</ele>
      </trkpt>
      <trkpt lat="43.65932" lon="3.68411">
        <ele>234</ele>
      </trkpt>
      <trkpt lat="43.65931" lon="3.68414">
        <ele>234</ele>
      </trkpt>
      <trkpt lat="43.65929" lon="3.68417">
        <ele>230</ele>
      </trkpt>
      <trkpt lat="43.6593" lon="3.68421">
        <ele>230</ele>
      </trkpt>
      <trkpt lat="43.6593" lon="3.68424">
        <ele>230</ele>
      </trkpt>
      <trkpt lat="43.65931" lon="3.68426">
        <ele>230</ele>
      </trkpt>
      <trkpt lat="43.65932" lon="3.68428">
        <ele>230</ele>
      </trkpt>
      <trkpt lat="43.65934" lon="3.68431">
        <ele>230</ele>
      </trkpt>
      <trkpt lat="43.65936" lon="3.68433">
        <ele>230</ele>
      </trkpt>
      <trkpt lat="43.65937" lon="3.68436">
        <ele>230</ele>
      </trkpt>
      <trkpt lat="43.65938" lon="3.6844">
        <ele>230</ele>
      </trkpt>
      <trkpt lat="43.65937" lon="3.68443">
        <ele>230</ele>
      </trkpt>
      <trkpt lat="43.65936" lon="3.68446">
        <ele>227</ele>
      </trkpt>
      <trkpt lat="43.65934" lon="3.68449">
        <ele>227</ele>
      </trkpt>
      <trkpt lat="43.65933" lon="3.68451">
        <ele>227</ele>
      </trkpt>
      <trkpt lat="43.65933" lon="3.68454">
        <ele>227</ele>
      </trkpt>
      <trkpt lat="43.65934" lon="3.68456">
        <ele>227</ele>
      </trkpt>
      <trkpt lat="43.65938" lon="3.68459">
        <ele>227</ele>
      </trkpt>
      <trkpt lat="43.6594" lon="3.6846">
        <ele>227</ele>
      </trkpt>
      <trkpt lat="43.65943" lon="3.68461">
        <ele>227</ele>
      </trkpt>
      <trkpt lat="43.65944" lon="3.68461">
        <ele>227</ele>
      </trkpt>
      <trkpt lat="43.65947" lon="3.6846">
        <ele>223</ele>
      </trkpt>
      <trkpt lat="43.6595" lon="3.68461">
        <ele>223</ele>
      </trkpt>
      <trkpt lat="43.65952" lon="3.68462">
        <ele>223</ele>
      </trkpt>
      <trkpt lat="43.65955" lon="3.68464">
        <ele>223</ele>
      </trkpt>
      <trkpt lat="43.65956" lon="3.68466">
        <ele>223</ele>
      </trkpt>
      <trkpt lat="43.6596" lon="3.68468">
        <ele>223</ele>
      </trkpt>
      <trkpt lat="43.65963" lon="3.68471">
        <ele>223</ele>
      </trkpt>
      <trkpt lat="43.65964" lon="3.68474">
        <ele>223</ele>
      </trkpt>
      <trkpt lat="43.65967" lon="3.68476">
        <ele>223</ele>
      </trkpt>
      <trkpt lat="43.65968" lon="3.68475">
        <ele>223</ele>
      </trkpt>
      <trkpt lat="43.6597" lon="3.68473">
        <ele>217</ele>
      </trkpt>
      <trkpt lat="43.65973" lon="3.6847">
        <ele>217</ele>
      </trkpt>
      <trkpt lat="43.65975" lon="3.6847">
        <ele>217</ele>
      </trkpt>
      <trkpt lat="43.65977" lon="3.68473">
        <ele>217</ele>
      </trkpt>
      <trkpt lat="43.65979" lon="3.68476">
        <ele>217</ele>
      </trkpt>
      <trkpt lat="43.65979" lon="3.68481">
        <ele>217</ele>
      </trkpt>
      <trkpt lat="43.65979" lon="3.68485">
        <ele>217</ele>
      </trkpt>
      <trkpt lat="43.65976" lon="3.68489">
        <ele>217</ele>
      </trkpt>
      <trkpt lat="43.65973" lon="3.6849">
        <ele>217</ele>
      </trkpt>
      <trkpt lat="43.6597" lon="3.68492">
        <ele>217</ele>
      </trkpt>
      <trkpt lat="43.65968" lon="3.68493">
        <ele>210</ele>
      </trkpt>
      <trkpt lat="43.65965" lon="3.68494">
        <ele>210</ele>
      </trkpt>
      <trkpt lat="43.65962" lon="3.68496">
        <ele>210</ele>
      </trkpt>
      <trkpt lat="43.6596" lon="3.68497">
        <ele>210</ele>
      </trkpt>
      <trkpt lat="43.65957" lon="3.68498">
        <ele>210</ele>
      </trkpt>
      <trkpt lat="43.65955" lon="3.68499">
        <ele>210</ele>
      </trkpt>
      <trkpt lat="43.65953" lon="3.685">
        <ele>210</ele>
      </trkpt>
      <trkpt lat="43.65951" lon="3.685">
        <ele>210</ele>
      </trkpt>
      <trkpt lat="43.65949" lon="3.68499">
        <ele>210</ele>
      </trkpt>
      <trkpt lat="43.65947" lon="3.68499">
        <ele>210</ele>
      </trkpt>
      <trkpt lat="43.65944" lon="3.68499">
        <ele>207</ele>
      </trkpt>
      <trkpt lat="43.65943" lon="3.68499">
        <ele>207</ele>
      </trkpt>
      <trkpt lat="43.65939" lon="3.68499">
        <ele>207</ele>
      </trkpt>
      <trkpt lat="43.65936" lon="3.68498">
        <ele>207</ele>
      </trkpt>
      <trkpt lat="43.65933" lon="3.68497">
        <ele>207</ele>
      </trkpt>
      <trkpt lat="43.6593" lon="3.68497">
        <ele>207</ele>
      </trkpt>
      <trkpt lat="43.65927" lon="3.68497">
        <ele>205</ele>
      </trkpt>
      <trkpt lat="43.65924" lon="3.68498">
        <ele>205</ele>
      </trkpt>
      <trkpt lat="43.65921" lon="3.68499">
        <ele>205</ele>
      </trkpt>
      <trkpt lat="43.6592" lon="3.68502">
        <ele>205</ele>
      </trkpt>
      <trkpt lat="43.65921" lon="3.68505">
        <ele>205</ele>
      </trkpt>
      <trkpt lat="43.65923" lon="3.68508">
        <ele>203</ele>
      </trkpt>
      <trkpt lat="43.65925" lon="3.6851">
        <ele>203</ele>
      </trkpt>
      <trkpt lat="43.65928" lon="3.68512">
        <ele>203</ele>
      </trkpt>
      <trkpt lat="43.6593" lon="3.68514">
        <ele>203</ele>
      </trkpt>
      <trkpt lat="43.65932" lon="3.68516">
        <ele>203</ele>
      </trkpt>
      <trkpt lat="43.65935" lon="3.68516">
        <ele>203</ele>
      </trkpt>
      <trkpt lat="43.65939" lon="3.68515">
        <ele>203</ele>
      </trkpt>
      <trkpt lat="43.65942" lon="3.68515">
        <ele>203</ele>
      </trkpt>
      <trkpt lat="43.65947" lon="3.68516">
        <ele>203</ele>
      </trkpt>
      <trkpt lat="43.65952" lon="3.68517">
        <ele>200</ele>
      </trkpt>
      <trkpt lat="43.65957" lon="3.68518">
        <ele>200</ele>
      </trkpt>
      <trkpt lat="43.65962" lon="3.68519">
        <ele>200</ele>
      </trkpt>
      <trkpt lat="43.65966" lon="3.68521">
        <ele>200</ele>
      </trkpt>
      <trkpt lat="43.6597" lon="3.68522">
        <ele>200</ele>
      </trkpt>
      <trkpt lat="43.65974" lon="3.68523">
        <ele>200</ele>
      </trkpt>
      <trkpt lat="43.65979" lon="3.68524">
        <ele>200</ele>
      </trkpt>
      <trkpt lat="43.65984" lon="3.68523">
        <ele>200</ele>
      </trkpt>
      <trkpt lat="43.65989" lon="3.68523">
        <ele>200</ele>
      </trkpt>
      <trkpt lat="43.65992" lon="3.68525">
        <ele>200</ele>
      </trkpt>
      <trkpt lat="43.65996" lon="3.68528">
        <ele>196</ele>
      </trkpt>
      <trkpt lat="43.66" lon="3.68529">
        <ele>196</ele>
      </trkpt>
      <trkpt lat="43.66004" lon="3.6853">
        <ele>196</ele>
      </trkpt>
      <trkpt lat="43.66007" lon="3.6853">
        <ele>196</ele>
      </trkpt>
      <trkpt lat="43.6601" lon="3.68529">
        <ele>196</ele>
      </trkpt>
      <trkpt lat="43.66013" lon="3.68526">
        <ele>196</ele>
      </trkpt>
      <trkpt lat="43.66015" lon="3.68522">
        <ele>196</ele>
      </trkpt>
      <trkpt lat="43.66017" lon="3.68519">
        <ele>196</ele>
      </trkpt>
      <trkpt lat="43.6602" lon="3.68515">
        <ele>196</ele>
      </trkpt>
      <trkpt lat="43.66022" lon="3.68513">
        <ele>196</ele>
      </trkpt>
      <trkpt lat="43.66024" lon="3.68514">
        <ele>194</ele>
      </trkpt>
      <trkpt lat="43.66029" lon="3.68519">
        <ele>194</ele>
      </trkpt>
      <trkpt lat="43.66028" lon="3.68524">
        <ele>194</ele>
      </trkpt>
      <trkpt lat="43.66028" lon="3.68528">
        <ele>194</ele>
      </trkpt>
      <trkpt lat="43.66029" lon="3.68532">
        <ele>194</ele>
      </trkpt>
      <trkpt lat="43.66029" lon="3.68536">
        <ele>194</ele>
      </trkpt>
      <trkpt lat="43.66028" lon="3.68541">
        <ele>194</ele>
      </trkpt>
      <trkpt lat="43.66026" lon="3.68546">
        <ele>194</ele>
      </trkpt>
      <trkpt lat="43.66025" lon="3.68551">
        <ele>194</ele>
      </trkpt>
      <trkpt lat="43.66024" lon="3.68555">
        <ele>191</ele>
      </trkpt>
      <trkpt lat="43.66025" lon="3.68558">
        <ele>191</ele>
      </trkpt>
      <trkpt lat="43.66026" lon="3.68562">
        <ele>191</ele>
      </trkpt>
      <trkpt lat="43.66028" lon="3.68565">
        <ele>191</ele>
      </trkpt>
      <trkpt lat="43.66028" lon="3.68568">
        <ele>191</ele>
      </trkpt>
      <trkpt lat="43.66027" lon="3.68571">
        <ele>191</ele>
      </trkpt>
      <trkpt lat="43.66025" lon="3.68574">
        <ele>191</ele>
      </trkpt>
      <trkpt lat="43.66022" lon="3.68576">
        <ele>191</ele>
      </trkpt>
      <trkpt lat="43.66019" lon="3.68578">
        <ele>191</ele>
      </trkpt>
      <trkpt lat="43.66016" lon="3.68579">
        <ele>191</ele>
      </trkpt>
      <trkpt lat="43.66012" lon="3.68582">
        <ele>188</ele>
      </trkpt>
      <trkpt lat="43.66008" lon="3.68584">
        <ele>188</ele>
      </trkpt>
      <trkpt lat="43.66004" lon="3.68586">
        <ele>188</ele>
      </trkpt>
      <trkpt lat="43.66" lon="3.68589">
        <ele>188</ele>
      </trkpt>
      <trkpt lat="43.65997" lon="3.68592">
        <ele>188</ele>
      </trkpt>
      <trkpt lat="43.65994" lon="3.68595">
        <ele>188</ele>
      </trkpt>
      <trkpt lat="43.65986" lon="3.68607">
        <ele>188</ele>
      </trkpt>
      <trkpt lat="43.65984" lon="3.6861">
        <ele>188</ele>
      </trkpt>
      <trkpt lat="43.65981" lon="3.68613">
        <ele>186</ele>
      </trkpt>
      <trkpt lat="43.65978" lon="3.68616">
        <ele>186</ele>
      </trkpt>
      <trkpt lat="43.65978" lon="3.68615">
        <ele>185</ele>
      </trkpt>
      <trkpt lat="43.65984" lon="3.6861">
        <ele>183</ele>
      </trkpt>
      <trkpt lat="43.65986" lon="3.68609">
        <ele>183</ele>
      </trkpt>
      <trkpt lat="43.65989" lon="3.68608">
        <ele>183</ele>
      </trkpt>
      <trkpt lat="43.6599" lon="3.68608">
        <ele>183</ele>
      </trkpt>
      <trkpt lat="43.65993" lon="3.68608">
        <ele>183</ele>
      </trkpt>
      <trkpt lat="43.65996" lon="3.68606">
        <ele>183</ele>
      </trkpt>
      <trkpt lat="43.65998" lon="3.68605">
        <ele>183</ele>
      </trkpt>
      <trkpt lat="43.66001" lon="3.68604">
        <ele>183</ele>
      </trkpt>
      <trkpt lat="43.66003" lon="3.68603">
        <ele>183</ele>
      </trkpt>
      <trkpt lat="43.66005" lon="3.68602">
        <ele>183</ele>
      </trkpt>
      <trkpt lat="43.66006" lon="3.68601">
        <ele>183</ele>
      </trkpt>
      <trkpt lat="43.66009" lon="3.686">
        <ele>182</ele>
      </trkpt>
      <trkpt lat="43.66012" lon="3.686">
        <ele>182</ele>
      </trkpt>
      <trkpt lat="43.66013" lon="3.686">
        <ele>182</ele>
      </trkpt>
      <trkpt lat="43.66016" lon="3.68599">
        <ele>182</ele>
      </trkpt>
      <trkpt lat="43.66018" lon="3.68598">
        <ele>182</ele>
      </trkpt>
      <trkpt lat="43.6602" lon="3.68597">
        <ele>182</ele>
      </trkpt>
      <trkpt lat="43.66022" lon="3.68596">
        <ele>182</ele>
      </trkpt>
      <trkpt lat="43.66024" lon="3.68596">
        <ele>182</ele>
      </trkpt>
      <trkpt lat="43.66026" lon="3.68595">
        <ele>182</ele>
      </trkpt>
      <trkpt lat="43.66028" lon="3.68595">
        <ele>182</ele>
      </trkpt>
      <trkpt lat="43.6603" lon="3.68596">
        <ele>182</ele>
      </trkpt>
      <trkpt lat="43.66032" lon="3.68595">
        <ele>182</ele>
      </trkpt>
      <trkpt lat="43.66035" lon="3.68595">
        <ele>182</ele>
      </trkpt>
      <trkpt lat="43.66037" lon="3.68594">
        <ele>182</ele>
      </trkpt>
      <trkpt lat="43.6604" lon="3.68592">
        <ele>182</ele>
      </trkpt>
      <trkpt lat="43.66042" lon="3.68591">
        <ele>182</ele>
      </trkpt>
      <trkpt lat="43.66046" lon="3.68589">
        <ele>182</ele>
      </trkpt>
      <trkpt lat="43.6605" lon="3.68587">
        <ele>182</ele>
      </trkpt>
      <trkpt lat="43.66054" lon="3.68586">
        <ele>182</ele>
      </trkpt>
      <trkpt lat="43.66058" lon="3.68586">
        <ele>182</ele>
      </trkpt>
      <trkpt lat="43.66062" lon="3.68589">
        <ele>179</ele>
      </trkpt>
      <trkpt lat="43.66065" lon="3.68592">
        <ele>179</ele>
      </trkpt>
      <trkpt lat="43.66069" lon="3.68596">
        <ele>179</ele>
      </trkpt>
      <trkpt lat="43.66072" lon="3.686">
        <ele>179</ele>
      </trkpt>
      <trkpt lat="43.66074" lon="3.68604">
        <ele>179</ele>
      </trkpt>
      <trkpt lat="43.66076" lon="3.68608">
        <ele>179</ele>
      </trkpt>
      <trkpt lat="43.66079" lon="3.68612">
        <ele>179</ele>
      </trkpt>
      <trkpt lat="43.66081" lon="3.68617">
        <ele>179</ele>
      </trkpt>
      <trkpt lat="43.66082" lon="3.68621">
        <ele>179</ele>
      </trkpt>
      <trkpt lat="43.66083" lon="3.68624">
        <ele>179</ele>
      </trkpt>
      <trkpt lat="43.66082" lon="3.68627">
        <ele>177</ele>
      </trkpt>
      <trkpt lat="43.66081" lon="3.6863">
        <ele>177</ele>
      </trkpt>
      <trkpt lat="43.6608" lon="3.68633">
        <ele>177</ele>
      </trkpt>
      <trkpt lat="43.66078" lon="3.68636">
        <ele>177</ele>
      </trkpt>
      <trkpt lat="43.66078" lon="3.68639">
        <ele>177</ele>
      </trkpt>
      <trkpt lat="43.66077" lon="3.68643">
        <ele>177</ele>
      </trkpt>
      <trkpt lat="43.66077" lon="3.68645">
        <ele>177</ele>
      </trkpt>
      <trkpt lat="43.66077" lon="3.68649">
        <ele>177</ele>
      </trkpt>
      <trkpt lat="43.66077" lon="3.68652">
        <ele>177</ele>
      </trkpt>
      <trkpt lat="43.66077" lon="3.68656">
        <ele>175</ele>
      </trkpt>
      <trkpt lat="43.66077" lon="3.6866">
        <ele>175</ele>
      </trkpt>
      <trkpt lat="43.66077" lon="3.68666">
        <ele>175</ele>
      </trkpt>
      <trkpt lat="43.66077" lon="3.68671">
        <ele>175</ele>
      </trkpt>
      <trkpt lat="43.66077" lon="3.68676">
        <ele>175</ele>
      </trkpt>
      <trkpt lat="43.66077" lon="3.68681">
        <ele>175</ele>
      </trkpt>
      <trkpt lat="43.66077" lon="3.68687">
        <ele>175</ele>
      </trkpt>
      <trkpt lat="43.66076" lon="3.68692">
        <ele>175</ele>
      </trkpt>
      <trkpt lat="43.66076" lon="3.68697">
        <ele>175</ele>
      </trkpt>
      <trkpt lat="43.66075" lon="3.68703">
        <ele>175</ele>
      </trkpt>
      <trkpt lat="43.66075" lon="3.68708">
        <ele>170</ele>
      </trkpt>
      <trkpt lat="43.66073" lon="3.68714">
        <ele>170</ele>
      </trkpt>
      <trkpt lat="43.66072" lon="3.6872">
        <ele>170</ele>
      </trkpt>
      <trkpt lat="43.66071" lon="3.68726">
        <ele>170</ele>
      </trkpt>
      <trkpt lat="43.6607" lon="3.68731">
        <ele>170</ele>
      </trkpt>
      <trkpt lat="43.66069" lon="3.68736">
        <ele>170</ele>
      </trkpt>
      <trkpt lat="43.66069" lon="3.68741">
        <ele>170</ele>
      </trkpt>
      <trkpt lat="43.66069" lon="3.68746">
        <ele>170</ele>
      </trkpt>
      <trkpt lat="43.66069" lon="3.68751">
        <ele>170</ele>
      </trkpt>
      <trkpt lat="43.66069" lon="3.68756">
        <ele>170</ele>
      </trkpt>
      <trkpt lat="43.66068" lon="3.68761">
        <ele>167</ele>
      </trkpt>
      <trkpt lat="43.66067" lon="3.68767">
        <ele>167</ele>
      </trkpt>
      <trkpt lat="43.66065" lon="3.68771">
        <ele>167</ele>
      </trkpt>
      <trkpt lat="43.66061" lon="3.68775">
        <ele>167</ele>
      </trkpt>
      <trkpt lat="43.66059" lon="3.68779">
        <ele>167</ele>
      </trkpt>
      <trkpt lat="43.66055" lon="3.68783">
        <ele>167</ele>
      </trkpt>
      <trkpt lat="43.66051" lon="3.68788">
        <ele>167</ele>
      </trkpt>
      <trkpt lat="43.66046" lon="3.68792">
        <ele>167</ele>
      </trkpt>
      <trkpt lat="43.66041" lon="3.68797">
        <ele>167</ele>
      </trkpt>
      <trkpt lat="43.66037" lon="3.68802">
        <ele>167</ele>
      </trkpt>
      <trkpt lat="43.66032" lon="3.68809">
        <ele>165</ele>
      </trkpt>
      <trkpt lat="43.66028" lon="3.68817">
        <ele>165</ele>
      </trkpt>
      <trkpt lat="43.66023" lon="3.68824">
        <ele>165</ele>
      </trkpt>
      <trkpt lat="43.6602" lon="3.6883">
        <ele>165</ele>
      </trkpt>
      <trkpt lat="43.66019" lon="3.68838">
        <ele>165</ele>
      </trkpt>
      <trkpt lat="43.66018" lon="3.68846">
        <ele>165</ele>
      </trkpt>
      <trkpt lat="43.66018" lon="3.68853">
        <ele>165</ele>
      </trkpt>
      <trkpt lat="43.66019" lon="3.68861">
        <ele>165</ele>
      </trkpt>
      <trkpt lat="43.66018" lon="3.6887">
        <ele>165</ele>
      </trkpt>
      <trkpt lat="43.66017" lon="3.68879">
        <ele>165</ele>
      </trkpt>
      <trkpt lat="43.66015" lon="3.6889">
        <ele>159</ele>
      </trkpt>
      <trkpt lat="43.66014" lon="3.689">
        <ele>159</ele>
      </trkpt>
      <trkpt lat="43.66015" lon="3.68912">
        <ele>159</ele>
      </trkpt>
      <trkpt lat="43.66016" lon="3.68923">
        <ele>159</ele>
      </trkpt>
      <trkpt lat="43.66017" lon="3.68934">
        <ele>159</ele>
      </trkpt>
      <trkpt lat="43.66019" lon="3.68945">
        <ele>159</ele>
      </trkpt>
      <trkpt lat="43.6602" lon="3.68956">
        <ele>159</ele>
      </trkpt>
      <trkpt lat="43.66021" lon="3.68965">
        <ele>159</ele>
      </trkpt>
      <trkpt lat="43.66023" lon="3.68974">
        <ele>159</ele>
      </trkpt>
      <trkpt lat="43.66025" lon="3.68982">
        <ele>159</ele>
      </trkpt>
      <trkpt lat="43.66027" lon="3.68989">
        <ele>156</ele>
      </trkpt>
      <trkpt lat="43.66029" lon="3.68996">
        <ele>156</ele>
      </trkpt>
      <trkpt lat="43.6603" lon="3.69003">
        <ele>156</ele>
      </trkpt>
      <trkpt lat="43.66031" lon="3.6901">
        <ele>156</ele>
      </trkpt>
      <trkpt lat="43.66032" lon="3.69017">
        <ele>156</ele>
      </trkpt>
      <trkpt lat="43.66033" lon="3.69025">
        <ele>156</ele>
      </trkpt>
      <trkpt lat="43.66033" lon="3.69033">
        <ele>156</ele>
      </trkpt>
      <trkpt lat="43.66032" lon="3.69041">
        <ele>156</ele>
      </trkpt>
      <trkpt lat="43.66031" lon="3.69049">
        <ele>156</ele>
      </trkpt>
      <trkpt lat="43.6603" lon="3.69057">
        <ele>156</ele>
      </trkpt>
      <trkpt lat="43.66028" lon="3.69065">
        <ele>150</ele>
      </trkpt>
      <trkpt lat="43.66026" lon="3.69073">
        <ele>150</ele>
      </trkpt>
      <trkpt lat="43.66025" lon="3.6908">
        <ele>150</ele>
      </trkpt>
      <trkpt lat="43.66024" lon="3.69086">
        <ele>150</ele>
      </trkpt>
      <trkpt lat="43.66023" lon="3.69093">
        <ele>150</ele>
      </trkpt>
      <trkpt lat="43.66022" lon="3.69099">
        <ele>150</ele>
      </trkpt>
      <trkpt lat="43.6602" lon="3.69105">
        <ele>150</ele>
      </trkpt>
      <trkpt lat="43.66019" lon="3.6911">
        <ele>150</ele>
      </trkpt>
      <trkpt lat="43.66017" lon="3.69114">
        <ele>150</ele>
      </trkpt>
      <trkpt lat="43.66015" lon="3.69117">
        <ele>150</ele>
      </trkpt>
      <trkpt lat="43.66013" lon="3.69121">
        <ele>148</ele>
      </trkpt>
      <trkpt lat="43.66012" lon="3.69124">
        <ele>148</ele>
      </trkpt>
      <trkpt lat="43.6601" lon="3.69127">
        <ele>148</ele>
      </trkpt>
      <trkpt lat="43.66008" lon="3.69131">
        <ele>148</ele>
      </trkpt>
      <trkpt lat="43.66006" lon="3.69135">
        <ele>148</ele>
      </trkpt>
      <trkpt lat="43.66003" lon="3.69139">
        <ele>148</ele>
      </trkpt>
      <trkpt lat="43.66" lon="3.69142">
        <ele>148</ele>
      </trkpt>
      <trkpt lat="43.65997" lon="3.69146">
        <ele>148</ele>
      </trkpt>
      <trkpt lat="43.65992" lon="3.69149">
        <ele>148</ele>
      </trkpt>
      <trkpt lat="43.65989" lon="3.6915">
        <ele>147</ele>
      </trkpt>
      <trkpt lat="43.65984" lon="3.69151">
        <ele>147</ele>
      </trkpt>
      <trkpt lat="43.65979" lon="3.69152">
        <ele>147</ele>
      </trkpt>
      <trkpt lat="43.65973" lon="3.69154">
        <ele>147</ele>
      </trkpt>
      <trkpt lat="43.65968" lon="3.69156">
        <ele>147</ele>
      </trkpt>
      <trkpt lat="43.65961" lon="3.69158">
        <ele>147</ele>
      </trkpt>
      <trkpt lat="43.65955" lon="3.6916">
        <ele>147</ele>
      </trkpt>
      <trkpt lat="43.65948" lon="3.69161">
        <ele>147</ele>
      </trkpt>
      <trkpt lat="43.65942" lon="3.69161">
        <ele>147</ele>
      </trkpt>
      <trkpt lat="43.65936" lon="3.69162">
        <ele>147</ele>
      </trkpt>
      <trkpt lat="43.6593" lon="3.69164">
        <ele>147</ele>
      </trkpt>
      <trkpt lat="43.65924" lon="3.69165">
        <ele>147</ele>
      </trkpt>
      <trkpt lat="43.65919" lon="3.69166">
        <ele>147</ele>
      </trkpt>
      <trkpt lat="43.65913" lon="3.69168">
        <ele>147</ele>
      </trkpt>
      <trkpt lat="43.65907" lon="3.6917">
        <ele>147</ele>
      </trkpt>
      <trkpt lat="43.65901" lon="3.69174">
        <ele>147</ele>
      </trkpt>
      <trkpt lat="43.65895" lon="3.69177">
        <ele>147</ele>
      </trkpt>
      <trkpt lat="43.6589" lon="3.6918">
        <ele>147</ele>
      </trkpt>
      <trkpt lat="43.65884" lon="3.69183">
        <ele>147</ele>
      </trkpt>
      <trkpt lat="43.65879" lon="3.69186">
        <ele>147</ele>
      </trkpt>
      <trkpt lat="43.65873" lon="3.69188">
        <ele>147</ele>
      </trkpt>
      <trkpt lat="43.65868" lon="3.6919">
        <ele>145</ele>
      </trkpt>
      <trkpt lat="43.65863" lon="3.69192">
        <ele>145</ele>
      </trkpt>
      <trkpt lat="43.65857" lon="3.69193">
        <ele>145</ele>
      </trkpt>
      <trkpt lat="43.65852" lon="3.69195">
        <ele>145</ele>
      </trkpt>
      <trkpt lat="43.65847" lon="3.69196">
        <ele>145</ele>
      </trkpt>
      <trkpt lat="43.65842" lon="3.69197">
        <ele>145</ele>
      </trkpt>
      <trkpt lat="43.65837" lon="3.69198">
        <ele>145</ele>
      </trkpt>
      <trkpt lat="43.65832" lon="3.69199">
        <ele>145</ele>
      </trkpt>
      <trkpt lat="43.65827" lon="3.692">
        <ele>145</ele>
      </trkpt>
      <trkpt lat="43.65821" lon="3.69201">
        <ele>145</ele>
      </trkpt>
      <trkpt lat="43.65816" lon="3.69202">
        <ele>143</ele>
      </trkpt>
      <trkpt lat="43.65811" lon="3.69203">
        <ele>143</ele>
      </trkpt>
      <trkpt lat="43.65806" lon="3.69204">
        <ele>143</ele>
      </trkpt>
      <trkpt lat="43.65801" lon="3.69204">
        <ele>143</ele>
      </trkpt>
      <trkpt lat="43.65796" lon="3.69205">
        <ele>143</ele>
      </trkpt>
      <trkpt lat="43.65791" lon="3.69205">
        <ele>143</ele>
      </trkpt>
      <trkpt lat="43.65786" lon="3.69207">
        <ele>143</ele>
      </trkpt>
      <trkpt lat="43.65781" lon="3.69208">
        <ele>143</ele>
      </trkpt>
      <trkpt lat="43.65776" lon="3.69208">
        <ele>143</ele>
      </trkpt>
      <trkpt lat="43.65772" lon="3.6921">
        <ele>143</ele>
      </trkpt>
      <trkpt lat="43.65767" lon="3.69212">
        <ele>141</ele>
      </trkpt>
      <trkpt lat="43.65762" lon="3.69214">
        <ele>141</ele>
      </trkpt>
      <trkpt lat="43.65758" lon="3.69215">
        <ele>141</ele>
      </trkpt>
      <trkpt lat="43.65754" lon="3.69219">
        <ele>141</ele>
      </trkpt>
      <trkpt lat="43.65751" lon="3.69223">
        <ele>141</ele>
      </trkpt>
      <trkpt lat="43.65747" lon="3.6923">
        <ele>141</ele>
      </trkpt>
      <trkpt lat="43.65745" lon="3.69238">
        <ele>141</ele>
      </trkpt>
      <trkpt lat="43.65742" lon="3.69245">
        <ele>141</ele>
      </trkpt>
      <trkpt lat="43.65738" lon="3.69252">
        <ele>141</ele>
      </trkpt>
      <trkpt lat="43.65734" lon="3.69258">
        <ele>139</ele>
      </trkpt>
      <trkpt lat="43.65729" lon="3.69264">
        <ele>139</ele>
      </trkpt>
      <trkpt lat="43.65725" lon="3.69269">
        <ele>139</ele>
      </trkpt>
      <trkpt lat="43.65721" lon="3.69275">
        <ele>139</ele>
      </trkpt>
      <trkpt lat="43.65718" lon="3.69281">
        <ele>139</ele>
      </trkpt>
      <trkpt lat="43.65715" lon="3.69288">
        <ele>139</ele>
      </trkpt>
      <trkpt lat="43.65713" lon="3.69295">
        <ele>139</ele>
      </trkpt>
      <trkpt lat="43.65711" lon="3.69303">
        <ele>139</ele>
      </trkpt>
      <trkpt lat="43.65711" lon="3.69311">
        <ele>139</ele>
      </trkpt>
      <trkpt lat="43.6571" lon="3.6932">
        <ele>139</ele>
      </trkpt>
      <trkpt lat="43.6571" lon="3.69328">
        <ele>139</ele>
      </trkpt>
      <trkpt lat="43.65709" lon="3.69336">
        <ele>135</ele>
      </trkpt>
      <trkpt lat="43.65709" lon="3.69345">
        <ele>135</ele>
      </trkpt>
      <trkpt lat="43.65708" lon="3.69352">
        <ele>135</ele>
      </trkpt>
      <trkpt lat="43.65707" lon="3.6936">
        <ele>135</ele>
      </trkpt>
      <trkpt lat="43.65705" lon="3.69367">
        <ele>135</ele>
      </trkpt>
      <trkpt lat="43.65702" lon="3.69374">
        <ele>135</ele>
      </trkpt>
      <trkpt lat="43.657" lon="3.6938">
        <ele>135</ele>
      </trkpt>
      <trkpt lat="43.65697" lon="3.69385">
        <ele>135</ele>
      </trkpt>
      <trkpt lat="43.65693" lon="3.6939">
        <ele>135</ele>
      </trkpt>
      <trkpt lat="43.65689" lon="3.69393">
        <ele>135</ele>
      </trkpt>
      <trkpt lat="43.65686" lon="3.69397">
        <ele>134</ele>
      </trkpt>
      <trkpt lat="43.65682" lon="3.694">
        <ele>134</ele>
      </trkpt>
      <trkpt lat="43.65678" lon="3.69402">
        <ele>134</ele>
      </trkpt>
      <trkpt lat="43.65675" lon="3.69405">
        <ele>134</ele>
      </trkpt>
      <trkpt lat="43.65671" lon="3.69408">
        <ele>134</ele>
      </trkpt>
      <trkpt lat="43.65667" lon="3.6941">
        <ele>134</ele>
      </trkpt>
      <trkpt lat="43.65662" lon="3.69413">
        <ele>134</ele>
      </trkpt>
      <trkpt lat="43.65657" lon="3.69417">
        <ele>134</ele>
      </trkpt>
      <trkpt lat="43.65654" lon="3.6942">
        <ele>134</ele>
      </trkpt>
      <trkpt lat="43.65649" lon="3.69423">
        <ele>131</ele>
      </trkpt>
      <trkpt lat="43.65645" lon="3.69427">
        <ele>131</ele>
      </trkpt>
      <trkpt lat="43.65641" lon="3.6943">
        <ele>131</ele>
      </trkpt>
      <trkpt lat="43.65636" lon="3.69434">
        <ele>131</ele>
      </trkpt>
      <trkpt lat="43.65632" lon="3.69437">
        <ele>131</ele>
      </trkpt>
      <trkpt lat="43.65628" lon="3.6944">
        <ele>131</ele>
      </trkpt>
      <trkpt lat="43.65624" lon="3.69443">
        <ele>131</ele>
      </trkpt>
      <trkpt lat="43.65619" lon="3.69446">
        <ele>131</ele>
      </trkpt>
      <trkpt lat="43.65616" lon="3.69449">
        <ele>131</ele>
      </trkpt>
      <trkpt lat="43.65612" lon="3.69451">
        <ele>131</ele>
      </trkpt>
      <trkpt lat="43.65608" lon="3.69453">
        <ele>131</ele>
      </trkpt>
      <trkpt lat="43.65604" lon="3.69454">
        <ele>130</ele>
      </trkpt>
      <trkpt lat="43.656" lon="3.69455">
        <ele>130</ele>
      </trkpt>
      <trkpt lat="43.65596" lon="3.69455">
        <ele>130</ele>
      </trkpt>
      <trkpt lat="43.65593" lon="3.69455">
        <ele>130</ele>
      </trkpt>
      <trkpt lat="43.6559" lon="3.69456">
        <ele>130</ele>
      </trkpt>
      <trkpt lat="43.65587" lon="3.69456">
        <ele>130</ele>
      </trkpt>
      <trkpt lat="43.65584" lon="3.69456">
        <ele>130</ele>
      </trkpt>
      <trkpt lat="43.65581" lon="3.69457">
        <ele>130</ele>
      </trkpt>
      <trkpt lat="43.65578" lon="3.69458">
        <ele>130</ele>
      </trkpt>
      <trkpt lat="43.65575" lon="3.69459">
        <ele>130</ele>
      </trkpt>
      <trkpt lat="43.65572" lon="3.6946">
        <ele>129</ele>
      </trkpt>
      <trkpt lat="43.65569" lon="3.69462">
        <ele>129</ele>
      </trkpt>
      <trkpt lat="43.65565" lon="3.69463">
        <ele>129</ele>
      </trkpt>
      <trkpt lat="43.65562" lon="3.69464">
        <ele>129</ele>
      </trkpt>
      <trkpt lat="43.65558" lon="3.69465">
        <ele>129</ele>
      </trkpt>
      <trkpt lat="43.65555" lon="3.69465">
        <ele>129</ele>
      </trkpt>
      <trkpt lat="43.65552" lon="3.69466">
        <ele>129</ele>
      </trkpt>
      <trkpt lat="43.65548" lon="3.69467">
        <ele>129</ele>
      </trkpt>
      <trkpt lat="43.65546" lon="3.69468">
        <ele>129</ele>
      </trkpt>
      <trkpt lat="43.65542" lon="3.69469">
        <ele>129</ele>
      </trkpt>
      <trkpt lat="43.65539" lon="3.6947">
        <ele>129</ele>
      </trkpt>
      <trkpt lat="43.65535" lon="3.69471">
        <ele>129</ele>
      </trkpt>
      <trkpt lat="43.65532" lon="3.69472">
        <ele>129</ele>
      </trkpt>
      <trkpt lat="43.65529" lon="3.69474">
        <ele>129</ele>
      </trkpt>
      <trkpt lat="43.65526" lon="3.69475">
        <ele>129</ele>
      </trkpt>
      <trkpt lat="43.65524" lon="3.69476">
        <ele>129</ele>
      </trkpt>
      <trkpt lat="43.65521" lon="3.69478">
        <ele>129</ele>
      </trkpt>
      <trkpt lat="43.65518" lon="3.69479">
        <ele>129</ele>
      </trkpt>
      <trkpt lat="43.65516" lon="3.6948">
        <ele>129</ele>
      </trkpt>
      <trkpt lat="43.65513" lon="3.69481">
        <ele>129</ele>
      </trkpt>
      <trkpt lat="43.6551" lon="3.69482">
        <ele>129</ele>
      </trkpt>
      <trkpt lat="43.65508" lon="3.69483">
        <ele>129</ele>
      </trkpt>
      <trkpt lat="43.65504" lon="3.69485">
        <ele>129</ele>
      </trkpt>
      <trkpt lat="43.65501" lon="3.69488">
        <ele>129</ele>
      </trkpt>
      <trkpt lat="43.65497" lon="3.6949">
        <ele>129</ele>
      </trkpt>
      <trkpt lat="43.65494" lon="3.69493">
        <ele>129</ele>
      </trkpt>
      <trkpt lat="43.65489" lon="3.69495">
        <ele>129</ele>
      </trkpt>
      <trkpt lat="43.65484" lon="3.69498">
        <ele>129</ele>
      </trkpt>
      <trkpt lat="43.65479" lon="3.695">
        <ele>129</ele>
      </trkpt>
      <trkpt lat="43.65474" lon="3.69501">
        <ele>129</ele>
      </trkpt>
      <trkpt lat="43.65468" lon="3.69502">
        <ele>129</ele>
      </trkpt>
      <trkpt lat="43.65463" lon="3.69503">
        <ele>129</ele>
      </trkpt>
      <trkpt lat="43.65457" lon="3.69504">
        <ele>129</ele>
      </trkpt>
      <trkpt lat="43.65451" lon="3.69504">
        <ele>129</ele>
      </trkpt>
      <trkpt lat="43.65445" lon="3.69504">
        <ele>129</ele>
      </trkpt>
      <trkpt lat="43.65439" lon="3.69503">
        <ele>129</ele>
      </trkpt>
      <trkpt lat="43.65433" lon="3.69502">
        <ele>129</ele>
      </trkpt>
      <trkpt lat="43.65428" lon="3.695">
        <ele>129</ele>
      </trkpt>
      <trkpt lat="43.65422" lon="3.69499">
        <ele>129</ele>
      </trkpt>
      <trkpt lat="43.65416" lon="3.69497">
        <ele>129</ele>
      </trkpt>
      <trkpt lat="43.65411" lon="3.69495">
        <ele>129</ele>
      </trkpt>
      <trkpt lat="43.65405" lon="3.69492">
        <ele>129</ele>
      </trkpt>
      <trkpt lat="43.65401" lon="3.69491">
        <ele>129</ele>
      </trkpt>
      <trkpt lat="43.65396" lon="3.6949">
        <ele>129</ele>
      </trkpt>
      <trkpt lat="43.65391" lon="3.69492">
        <ele>129</ele>
      </trkpt>
      <trkpt lat="43.65386" lon="3.69496">
        <ele>129</ele>
      </trkpt>
      <trkpt lat="43.65382" lon="3.695">
        <ele>129</ele>
      </trkpt>
      <trkpt lat="43.65378" lon="3.69505">
        <ele>129</ele>
      </trkpt>
      <trkpt lat="43.65374" lon="3.69509">
        <ele>129</ele>
      </trkpt>
      <trkpt lat="43.65371" lon="3.69514">
        <ele>129</ele>
      </trkpt>
      <trkpt lat="43.65367" lon="3.69519">
        <ele>130</ele>
      </trkpt>
      <trkpt lat="43.65364" lon="3.69524">
        <ele>130</ele>
      </trkpt>
      <trkpt lat="43.6536" lon="3.69528">
        <ele>130</ele>
      </trkpt>
      <trkpt lat="43.65356" lon="3.69531">
        <ele>130</ele>
      </trkpt>
      <trkpt lat="43.65352" lon="3.69535">
        <ele>130</ele>
      </trkpt>
      <trkpt lat="43.65348" lon="3.69537">
        <ele>130</ele>
      </trkpt>
      <trkpt lat="43.65344" lon="3.69541">
        <ele>130</ele>
      </trkpt>
      <trkpt lat="43.65339" lon="3.69543">
        <ele>130</ele>
      </trkpt>
      <trkpt lat="43.65335" lon="3.69546">
        <ele>130</ele>
      </trkpt>
      <trkpt lat="43.65331" lon="3.69548">
        <ele>130</ele>
      </trkpt>
      <trkpt lat="43.65327" lon="3.6955">
        <ele>130</ele>
      </trkpt>
      <trkpt lat="43.65323" lon="3.69553">
        <ele>130</ele>
      </trkpt>
      <trkpt lat="43.65319" lon="3.69556">
        <ele>130</ele>
      </trkpt>
      <trkpt lat="43.65314" lon="3.69559">
        <ele>130</ele>
      </trkpt>
      <trkpt lat="43.65311" lon="3.69563">
        <ele>130</ele>
      </trkpt>
      <trkpt lat="43.65307" lon="3.69566">
        <ele>130</ele>
      </trkpt>
      <trkpt lat="43.65304" lon="3.69569">
        <ele>130</ele>
      </trkpt>
      <trkpt lat="43.653" lon="3.69572">
        <ele>130</ele>
      </trkpt>
      <trkpt lat="43.65297" lon="3.69575">
        <ele>130</ele>
      </trkpt>
      <trkpt lat="43.65294" lon="3.69578">
        <ele>130</ele>
      </trkpt>
      <trkpt lat="43.65291" lon="3.69582">
        <ele>130</ele>
      </trkpt>
      <trkpt lat="43.65287" lon="3.69585">
        <ele>130</ele>
      </trkpt>
      <trkpt lat="43.65284" lon="3.69588">
        <ele>130</ele>
      </trkpt>
      <trkpt lat="43.65281" lon="3.69591">
        <ele>130</ele>
      </trkpt>
      <trkpt lat="43.65278" lon="3.69595">
        <ele>130</ele>
      </trkpt>
      <trkpt lat="43.65275" lon="3.69598">
        <ele>130</ele>
      </trkpt>
      <trkpt lat="43.65272" lon="3.69601">
        <ele>130</ele>
      </trkpt>
      <trkpt lat="43.65269" lon="3.69605">
        <ele>130</ele>
      </trkpt>
      <trkpt lat="43.65266" lon="3.69608">
        <ele>130</ele>
      </trkpt>
      <trkpt lat="43.65263" lon="3.69611">
        <ele>130</ele>
      </trkpt>
      <trkpt lat="43.6526" lon="3.69614">
        <ele>130</ele>
      </trkpt>
      <trkpt lat="43.65257" lon="3.69616">
        <ele>130</ele>
      </trkpt>
      <trkpt lat="43.65254" lon="3.69619">
        <ele>130</ele>
      </trkpt>
      <trkpt lat="43.6525" lon="3.69621">
        <ele>130</ele>
      </trkpt>
      <trkpt lat="43.65246" lon="3.69624">
        <ele>130</ele>
      </trkpt>
      <trkpt lat="43.65243" lon="3.69626">
        <ele>130</ele>
      </trkpt>
      <trkpt lat="43.65239" lon="3.69629">
        <ele>130</ele>
      </trkpt>
      <trkpt lat="43.65235" lon="3.69632">
        <ele>130</ele>
      </trkpt>
      <trkpt lat="43.65231" lon="3.69635">
        <ele>130</ele>
      </trkpt>
      <trkpt lat="43.65226" lon="3.69639">
        <ele>130</ele>
      </trkpt>
      <trkpt lat="43.65223" lon="3.69642">
        <ele>130</ele>
      </trkpt>
      <trkpt lat="43.65218" lon="3.69646">
        <ele>130</ele>
      </trkpt>
      <trkpt lat="43.65214" lon="3.69649">
        <ele>130</ele>
      </trkpt>
      <trkpt lat="43.6521" lon="3.69653">
        <ele>130</ele>
      </trkpt>
      <trkpt lat="43.65206" lon="3.69656">
        <ele>130</ele>
      </trkpt>
      <trkpt lat="43.65202" lon="3.6966">
        <ele>130</ele>
      </trkpt>
      <trkpt lat="43.65198" lon="3.69663">
        <ele>130</ele>
      </trkpt>
      <trkpt lat="43.65195" lon="3.69666">
        <ele>130</ele>
      </trkpt>
      <trkpt lat="43.65192" lon="3.69669">
        <ele>130</ele>
      </trkpt>
      <trkpt lat="43.65188" lon="3.69671">
        <ele>130</ele>
      </trkpt>
      <trkpt lat="43.65185" lon="3.69674">
        <ele>130</ele>
      </trkpt>
      <trkpt lat="43.65181" lon="3.69676">
        <ele>130</ele>
      </trkpt>
      <trkpt lat="43.65178" lon="3.69678">
        <ele>130</ele>
      </trkpt>
      <trkpt lat="43.65176" lon="3.69679">
        <ele>130</ele>
      </trkpt>
      <trkpt lat="43.65173" lon="3.6968">
        <ele>130</ele>
      </trkpt>
      <trkpt lat="43.6517" lon="3.69681">
        <ele>130</ele>
      </trkpt>
      <trkpt lat="43.65166" lon="3.69683">
        <ele>130</ele>
      </trkpt>
      <trkpt lat="43.65163" lon="3.69684">
        <ele>130</ele>
      </trkpt>
      <trkpt lat="43.6516" lon="3.69686">
        <ele>130</ele>
      </trkpt>
      <trkpt lat="43.65156" lon="3.69688">
        <ele>130</ele>
      </trkpt>
      <trkpt lat="43.65153" lon="3.6969">
        <ele>130</ele>
      </trkpt>
      <trkpt lat="43.65149" lon="3.69692">
        <ele>130</ele>
      </trkpt>
      <trkpt lat="43.65145" lon="3.69694">
        <ele>130</ele>
      </trkpt>
      <trkpt lat="43.65142" lon="3.69696">
        <ele>130</ele>
      </trkpt>
      <trkpt lat="43.65138" lon="3.69698">
        <ele>130</ele>
      </trkpt>
      <trkpt lat="43.65134" lon="3.69701">
        <ele>130</ele>
      </trkpt>
      <trkpt lat="43.65131" lon="3.69704">
        <ele>130</ele>
      </trkpt>
      <trkpt lat="43.65128" lon="3.69707">
        <ele>130</ele>
      </trkpt>
      <trkpt lat="43.65126" lon="3.69709">
        <ele>130</ele>
      </trkpt>
      <trkpt lat="43.65124" lon="3.6971">
        <ele>130</ele>
      </trkpt>
      <trkpt lat="43.65122" lon="3.69715">
        <ele>130</ele>
      </trkpt>
      <trkpt lat="43.65119" lon="3.69718">
        <ele>130</ele>
      </trkpt>
      <trkpt lat="43.65116" lon="3.69721">
        <ele>130</ele>
      </trkpt>
      <trkpt lat="43.65111" lon="3.69723">
        <ele>130</ele>
      </trkpt>
      <trkpt lat="43.65108" lon="3.69725">
        <ele>130</ele>
      </trkpt>
      <trkpt lat="43.65104" lon="3.69727">
        <ele>130</ele>
      </trkpt>
      <trkpt lat="43.65101" lon="3.6973">
        <ele>130</ele>
      </trkpt>
      <trkpt lat="43.65096" lon="3.69732">
        <ele>130</ele>
      </trkpt>
      <trkpt lat="43.65092" lon="3.69735">
        <ele>130</ele>
      </trkpt>
      <trkpt lat="43.65088" lon="3.69737">
        <ele>130</ele>
      </trkpt>
      <trkpt lat="43.65083" lon="3.69741">
        <ele>130</ele>
      </trkpt>
      <trkpt lat="43.65079" lon="3.69745">
        <ele>130</ele>
      </trkpt>
      <trkpt lat="43.65074" lon="3.69748">
        <ele>130</ele>
      </trkpt>
      <trkpt lat="43.6507" lon="3.69752">
        <ele>130</ele>
      </trkpt>
      <trkpt lat="43.65065" lon="3.69756">
        <ele>130</ele>
      </trkpt>
      <trkpt lat="43.65059" lon="3.6976">
        <ele>130</ele>
      </trkpt>
      <trkpt lat="43.65055" lon="3.69764">
        <ele>130</ele>
      </trkpt>
      <trkpt lat="43.6505" lon="3.69767">
        <ele>130</ele>
      </trkpt>
      <trkpt lat="43.65045" lon="3.69771">
        <ele>129</ele>
      </trkpt>
      <trkpt lat="43.65041" lon="3.69774">
        <ele>129</ele>
      </trkpt>
      <trkpt lat="43.65036" lon="3.69778">
        <ele>129</ele>
      </trkpt>
      <trkpt lat="43.65032" lon="3.6978">
        <ele>129</ele>
      </trkpt>
      <trkpt lat="43.65028" lon="3.69784">
        <ele>129</ele>
      </trkpt>
      <trkpt lat="43.65025" lon="3.69787">
        <ele>129</ele>
      </trkpt>
      <trkpt lat="43.65022" lon="3.6979">
        <ele>129</ele>
      </trkpt>
      <trkpt lat="43.65019" lon="3.69793">
        <ele>129</ele>
      </trkpt>
      <trkpt lat="43.65016" lon="3.69796">
        <ele>129</ele>
      </trkpt>
      <trkpt lat="43.65012" lon="3.69799">
        <ele>129</ele>
      </trkpt>
      <trkpt lat="43.65011" lon="3.69801">
        <ele>128</ele>
      </trkpt>
      <trkpt lat="43.6501" lon="3.69805">
        <ele>128</ele>
      </trkpt>
      <trkpt lat="43.65012" lon="3.69809">
        <ele>128</ele>
      </trkpt>
      <trkpt lat="43.65015" lon="3.69812">
        <ele>128</ele>
      </trkpt>
      <trkpt lat="43.65016" lon="3.69814">
        <ele>128</ele>
      </trkpt>
      <trkpt lat="43.65017" lon="3.69817">
        <ele>128</ele>
      </trkpt>
      <trkpt lat="43.65017" lon="3.6982">
        <ele>128</ele>
      </trkpt>
      <trkpt lat="43.65016" lon="3.69824">
        <ele>125</ele>
      </trkpt>
      <trkpt lat="43.65015" lon="3.69828">
        <ele>125</ele>
      </trkpt>
      <trkpt lat="43.65014" lon="3.69832">
        <ele>125</ele>
      </trkpt>
      <trkpt lat="43.65014" lon="3.69836">
        <ele>125</ele>
      </trkpt>
      <trkpt lat="43.65014" lon="3.69841">
        <ele>125</ele>
      </trkpt>
      <trkpt lat="43.65015" lon="3.69846">
        <ele>125</ele>
      </trkpt>
      <trkpt lat="43.65016" lon="3.69851">
        <ele>125</ele>
      </trkpt>
      <trkpt lat="43.65016" lon="3.69857">
        <ele>125</ele>
      </trkpt>
      <trkpt lat="43.65015" lon="3.69862">
        <ele>125</ele>
      </trkpt>
      <trkpt lat="43.65015" lon="3.69867">
        <ele>125</ele>
      </trkpt>
      <trkpt lat="43.65015" lon="3.69873">
        <ele>124</ele>
      </trkpt>
      <trkpt lat="43.65014" lon="3.69878">
        <ele>124</ele>
      </trkpt>
      <trkpt lat="43.65014" lon="3.69883">
        <ele>124</ele>
      </trkpt>
      <trkpt lat="43.65014" lon="3.69888">
        <ele>124</ele>
      </trkpt>
      <trkpt lat="43.65013" lon="3.69893">
        <ele>124</ele>
      </trkpt>
      <trkpt lat="43.65013" lon="3.69898">
        <ele>124</ele>
      </trkpt>
      <trkpt lat="43.65013" lon="3.69903">
        <ele>124</ele>
      </trkpt>
      <trkpt lat="43.65013" lon="3.69907">
        <ele>124</ele>
      </trkpt>
      <trkpt lat="43.65013" lon="3.69912">
        <ele>124</ele>
      </trkpt>
      <trkpt lat="43.65013" lon="3.69916">
        <ele>124</ele>
      </trkpt>
      <trkpt lat="43.65013" lon="3.69919">
        <ele>123</ele>
      </trkpt>
      <trkpt lat="43.65013" lon="3.69923">
        <ele>123</ele>
      </trkpt>
      <trkpt lat="43.65013" lon="3.69926">
        <ele>123</ele>
      </trkpt>
      <trkpt lat="43.65013" lon="3.69928">
        <ele>123</ele>
      </trkpt>
      <trkpt lat="43.65013" lon="3.69931">
        <ele>123</ele>
      </trkpt>
      <trkpt lat="43.65011" lon="3.69934">
        <ele>123</ele>
      </trkpt>
      <trkpt lat="43.6501" lon="3.69938">
        <ele>123</ele>
      </trkpt>
      <trkpt lat="43.65009" lon="3.69942">
        <ele>122</ele>
      </trkpt>
      <trkpt lat="43.6501" lon="3.69947">
        <ele>122</ele>
      </trkpt>
      <trkpt lat="43.65011" lon="3.69951">
        <ele>122</ele>
      </trkpt>
      <trkpt lat="43.65009" lon="3.69955">
        <ele>122</ele>
      </trkpt>
      <trkpt lat="43.65007" lon="3.69957">
        <ele>122</ele>
      </trkpt>
      <trkpt lat="43.65005" lon="3.69958">
        <ele>122</ele>
      </trkpt>
      <trkpt lat="43.65004" lon="3.69961">
        <ele>122</ele>
      </trkpt>
      <trkpt lat="43.65003" lon="3.69964">
        <ele>122</ele>
      </trkpt>
      <trkpt lat="43.65001" lon="3.69967">
        <ele>122</ele>
      </trkpt>
      <trkpt lat="43.65" lon="3.6997">
        <ele>122</ele>
      </trkpt>
      <trkpt lat="43.64999" lon="3.69974">
        <ele>122</ele>
      </trkpt>
      <trkpt lat="43.64998" lon="3.69977">
        <ele>122</ele>
      </trkpt>
      <trkpt lat="43.64997" lon="3.69981">
        <ele>122</ele>
      </trkpt>
      <trkpt lat="43.64997" lon="3.69985">
        <ele>122</ele>
      </trkpt>
      <trkpt lat="43.64996" lon="3.69989">
        <ele>122</ele>
      </trkpt>
      <trkpt lat="43.64994" lon="3.69993">
        <ele>122</ele>
      </trkpt>
      <trkpt lat="43.64992" lon="3.69995">
        <ele>122</ele>
      </trkpt>
      <trkpt lat="43.6499" lon="3.69996">
        <ele>121</ele>
      </trkpt>
      <trkpt lat="43.64988" lon="3.69998">
        <ele>121</ele>
      </trkpt>
      <trkpt lat="43.64985" lon="3.69997">
        <ele>121</ele>
      </trkpt>
      <trkpt lat="43.64981" lon="3.69996">
        <ele>121</ele>
      </trkpt>
      <trkpt lat="43.64978" lon="3.69997">
        <ele>121</ele>
      </trkpt>
      <trkpt lat="43.64974" lon="3.69996">
        <ele>123</ele>
      </trkpt>
      <trkpt lat="43.64972" lon="3.69996">
        <ele>123</ele>
      </trkpt>
      <trkpt lat="43.6497" lon="3.69994">
        <ele>123</ele>
      </trkpt>
      <trkpt lat="43.64967" lon="3.69993">
        <ele>123</ele>
      </trkpt>
      <trkpt lat="43.64966" lon="3.69991">
        <ele>123</ele>
      </trkpt>
      <trkpt lat="43.64964" lon="3.6999">
        <ele>123</ele>
      </trkpt>
      <trkpt lat="43.64961" lon="3.69988">
        <ele>123</ele>
      </trkpt>
      <trkpt lat="43.64959" lon="3.69987">
        <ele>123</ele>
      </trkpt>
      <trkpt lat="43.64958" lon="3.69985">
        <ele>123</ele>
      </trkpt>
      <trkpt lat="43.64956" lon="3.69983">
        <ele>123</ele>
      </trkpt>
      <trkpt lat="43.64954" lon="3.69982">
        <ele>123</ele>
      </trkpt>
      <trkpt lat="43.64952" lon="3.6998">
        <ele>123</ele>
      </trkpt>
      <trkpt lat="43.6495" lon="3.69978">
        <ele>123</ele>
      </trkpt>
      <trkpt lat="43.64948" lon="3.69976">
        <ele>123</ele>
      </trkpt>
      <trkpt lat="43.64946" lon="3.69975">
        <ele>123</ele>
      </trkpt>
      <trkpt lat="43.64944" lon="3.69973">
        <ele>123</ele>
      </trkpt>
      <trkpt lat="43.64941" lon="3.69972">
        <ele>123</ele>
      </trkpt>
      <trkpt lat="43.64939" lon="3.6997">
        <ele>123</ele>
      </trkpt>
      <trkpt lat="43.64937" lon="3.69968">
        <ele>123</ele>
      </trkpt>
      <trkpt lat="43.64935" lon="3.69966">
        <ele>122</ele>
      </trkpt>
      <trkpt lat="43.64933" lon="3.69964">
        <ele>122</ele>
      </trkpt>
      <trkpt lat="43.64931" lon="3.69963">
        <ele>122</ele>
      </trkpt>
      <trkpt lat="43.64929" lon="3.69962">
        <ele>122</ele>
      </trkpt>
      <trkpt lat="43.64927" lon="3.69962">
        <ele>122</ele>
      </trkpt>
      <trkpt lat="43.64925" lon="3.69963">
        <ele>122</ele>
      </trkpt>
      <trkpt lat="43.64923" lon="3.69965">
        <ele>122</ele>
      </trkpt>
      <trkpt lat="43.64922" lon="3.69966">
        <ele>122</ele>
      </trkpt>
      <trkpt lat="43.6492" lon="3.69969">
        <ele>122</ele>
      </trkpt>
      <trkpt lat="43.64919" lon="3.69972">
        <ele>122</ele>
      </trkpt>
      <trkpt lat="43.64917" lon="3.69975">
        <ele>122</ele>
      </trkpt>
      <trkpt lat="43.64915" lon="3.69979">
        <ele>122</ele>
      </trkpt>
      <trkpt lat="43.64913" lon="3.69982">
        <ele>122</ele>
      </trkpt>
      <trkpt lat="43.64911" lon="3.69985">
        <ele>122</ele>
      </trkpt>
      <trkpt lat="43.6491" lon="3.69988">
        <ele>122</ele>
      </trkpt>
      <trkpt lat="43.64907" lon="3.69992">
        <ele>122</ele>
      </trkpt>
      <trkpt lat="43.64906" lon="3.69995">
        <ele>122</ele>
      </trkpt>
      <trkpt lat="43.64905" lon="3.7">
        <ele>122</ele>
      </trkpt>
      <trkpt lat="43.64904" lon="3.70004">
        <ele>122</ele>
      </trkpt>
      <trkpt lat="43.64903" lon="3.70008">
        <ele>122</ele>
      </trkpt>
      <trkpt lat="43.64902" lon="3.70012">
        <ele>122</ele>
      </trkpt>
      <trkpt lat="43.64899" lon="3.70015">
        <ele>122</ele>
      </trkpt>
      <trkpt lat="43.64897" lon="3.70018">
        <ele>122</ele>
      </trkpt>
      <trkpt lat="43.64895" lon="3.7002">
        <ele>122</ele>
      </trkpt>
      <trkpt lat="43.64893" lon="3.70022">
        <ele>122</ele>
      </trkpt>
      <trkpt lat="43.64892" lon="3.70025">
        <ele>122</ele>
      </trkpt>
      <trkpt lat="43.6489" lon="3.70028">
        <ele>122</ele>
      </trkpt>
      <trkpt lat="43.64888" lon="3.70031">
        <ele>122</ele>
      </trkpt>
      <trkpt lat="43.64886" lon="3.70034">
        <ele>122</ele>
      </trkpt>
      <trkpt lat="43.64886" lon="3.70037">
        <ele>122</ele>
      </trkpt>
      <trkpt lat="43.64883" lon="3.70039">
        <ele>122</ele>
      </trkpt>
      <trkpt lat="43.64882" lon="3.70041">
        <ele>122</ele>
      </trkpt>
      <trkpt lat="43.6488" lon="3.70044">
        <ele>122</ele>
      </trkpt>
      <trkpt lat="43.64877" lon="3.70047">
        <ele>122</ele>
      </trkpt>
      <trkpt lat="43.64875" lon="3.7005">
        <ele>122</ele>
      </trkpt>
      <trkpt lat="43.64873" lon="3.70053">
        <ele>122</ele>
      </trkpt>
      <trkpt lat="43.6487" lon="3.70056">
        <ele>122</ele>
      </trkpt>
      <trkpt lat="43.64867" lon="3.70059">
        <ele>122</ele>
      </trkpt>
      <trkpt lat="43.64864" lon="3.70062">
        <ele>122</ele>
      </trkpt>
      <trkpt lat="43.64861" lon="3.70065">
        <ele>122</ele>
      </trkpt>
      <trkpt lat="43.64858" lon="3.70069">
        <ele>122</ele>
      </trkpt>
      <trkpt lat="43.64855" lon="3.70072">
        <ele>122</ele>
      </trkpt>
      <trkpt lat="43.64853" lon="3.70075">
        <ele>122</ele>
      </trkpt>
      <trkpt lat="43.64851" lon="3.70078">
        <ele>122</ele>
      </trkpt>
      <trkpt lat="43.64849" lon="3.70082">
        <ele>122</ele>
      </trkpt>
      <trkpt lat="43.64846" lon="3.70086">
        <ele>122</ele>
      </trkpt>
      <trkpt lat="43.64844" lon="3.70091">
        <ele>122</ele>
      </trkpt>
      <trkpt lat="43.64842" lon="3.70095">
        <ele>122</ele>
      </trkpt>
      <trkpt lat="43.64838" lon="3.701">
        <ele>122</ele>
      </trkpt>
      <trkpt lat="43.64836" lon="3.70104">
        <ele>122</ele>
      </trkpt>
      <trkpt lat="43.64834" lon="3.70109">
        <ele>122</ele>
      </trkpt>
      <trkpt lat="43.64831" lon="3.70114">
        <ele>122</ele>
      </trkpt>
      <trkpt lat="43.64828" lon="3.70119">
        <ele>122</ele>
      </trkpt>
      <trkpt lat="43.64825" lon="3.70123">
        <ele>122</ele>
      </trkpt>
      <trkpt lat="43.64822" lon="3.70127">
        <ele>122</ele>
      </trkpt>
      <trkpt lat="43.64819" lon="3.70132">
        <ele>122</ele>
      </trkpt>
      <trkpt lat="43.64817" lon="3.70137">
        <ele>122</ele>
      </trkpt>
      <trkpt lat="43.64813" lon="3.70142">
        <ele>122</ele>
      </trkpt>
      <trkpt lat="43.6481" lon="3.70147">
        <ele>122</ele>
      </trkpt>
      <trkpt lat="43.64806" lon="3.70152">
        <ele>122</ele>
      </trkpt>
      <trkpt lat="43.64802" lon="3.70158">
        <ele>122</ele>
      </trkpt>
      <trkpt lat="43.64799" lon="3.70164">
        <ele>122</ele>
      </trkpt>
      <trkpt lat="43.64796" lon="3.7017">
        <ele>122</ele>
      </trkpt>
      <trkpt lat="43.64792" lon="3.70176">
        <ele>122</ele>
      </trkpt>
      <trkpt lat="43.64789" lon="3.70182">
        <ele>122</ele>
      </trkpt>
      <trkpt lat="43.64785" lon="3.70188">
        <ele>122</ele>
      </trkpt>
      <trkpt lat="43.64782" lon="3.70194">
        <ele>122</ele>
      </trkpt>
      <trkpt lat="43.64779" lon="3.702">
        <ele>122</ele>
      </trkpt>
      <trkpt lat="43.64775" lon="3.70206">
        <ele>122</ele>
      </trkpt>
      <trkpt lat="43.64772" lon="3.70213">
        <ele>122</ele>
      </trkpt>
      <trkpt lat="43.64769" lon="3.7022">
        <ele>120</ele>
      </trkpt>
      <trkpt lat="43.64766" lon="3.70226">
        <ele>120</ele>
      </trkpt>
      <trkpt lat="43.64762" lon="3.70233">
        <ele>120</ele>
      </trkpt>
      <trkpt lat="43.64758" lon="3.70239">
        <ele>120</ele>
      </trkpt>
      <trkpt lat="43.64754" lon="3.70246">
        <ele>120</ele>
      </trkpt>
      <trkpt lat="43.6475" lon="3.70252">
        <ele>120</ele>
      </trkpt>
      <trkpt lat="43.64746" lon="3.70259">
        <ele>120</ele>
      </trkpt>
      <trkpt lat="43.64743" lon="3.70266">
        <ele>120</ele>
      </trkpt>
      <trkpt lat="43.64739" lon="3.70273">
        <ele>120</ele>
      </trkpt>
      <trkpt lat="43.64735" lon="3.70281">
        <ele>120</ele>
      </trkpt>
      <trkpt lat="43.64732" lon="3.70289">
        <ele>117</ele>
      </trkpt>
      <trkpt lat="43.64729" lon="3.70297">
        <ele>117</ele>
      </trkpt>
      <trkpt lat="43.64725" lon="3.70304">
        <ele>117</ele>
      </trkpt>
      <trkpt lat="43.64722" lon="3.70312">
        <ele>117</ele>
      </trkpt>
      <trkpt lat="43.64719" lon="3.70319">
        <ele>117</ele>
      </trkpt>
      <trkpt lat="43.64716" lon="3.70327">
        <ele>117</ele>
      </trkpt>
      <trkpt lat="43.64712" lon="3.70335">
        <ele>117</ele>
      </trkpt>
      <trkpt lat="43.64709" lon="3.70342">
        <ele>117</ele>
      </trkpt>
      <trkpt lat="43.64706" lon="3.70349">
        <ele>117</ele>
      </trkpt>
      <trkpt lat="43.64703" lon="3.70355">
        <ele>117</ele>
      </trkpt>
      <trkpt lat="43.647" lon="3.70362">
        <ele>115</ele>
      </trkpt>
      <trkpt lat="43.64698" lon="3.70368">
        <ele>115</ele>
      </trkpt>
      <trkpt lat="43.64696" lon="3.70374">
        <ele>115</ele>
      </trkpt>
      <trkpt lat="43.64694" lon="3.7038">
        <ele>115</ele>
      </trkpt>
      <trkpt lat="43.64691" lon="3.70387">
        <ele>115</ele>
      </trkpt>
      <trkpt lat="43.64688" lon="3.70393">
        <ele>115</ele>
      </trkpt>
      <trkpt lat="43.64685" lon="3.70398">
        <ele>115</ele>
      </trkpt>
      <trkpt lat="43.64682" lon="3.70405">
        <ele>115</ele>
      </trkpt>
      <trkpt lat="43.64679" lon="3.70411">
        <ele>115</ele>
      </trkpt>
      <trkpt lat="43.64674" lon="3.70416">
        <ele>115</ele>
      </trkpt>
      <trkpt lat="43.6467" lon="3.70422">
        <ele>114</ele>
      </trkpt>
      <trkpt lat="43.64667" lon="3.70429">
        <ele>114</ele>
      </trkpt>
      <trkpt lat="43.64664" lon="3.70436">
        <ele>114</ele>
      </trkpt>
      <trkpt lat="43.64661" lon="3.70444">
        <ele>114</ele>
      </trkpt>
      <trkpt lat="43.64658" lon="3.70451">
        <ele>114</ele>
      </trkpt>
      <trkpt lat="43.64655" lon="3.70457">
        <ele>114</ele>
      </trkpt>
      <trkpt lat="43.64652" lon="3.70463">
        <ele>114</ele>
      </trkpt>
      <trkpt lat="43.64648" lon="3.7047">
        <ele>114</ele>
      </trkpt>
      <trkpt lat="43.64645" lon="3.70477">
        <ele>114</ele>
      </trkpt>
      <trkpt lat="43.64641" lon="3.70483">
        <ele>114</ele>
      </trkpt>
      <trkpt lat="43.64639" lon="3.70489">
        <ele>113</ele>
      </trkpt>
      <trkpt lat="43.64636" lon="3.70495">
        <ele>113</ele>
      </trkpt>
      <trkpt lat="43.64633" lon="3.705">
        <ele>113</ele>
      </trkpt>
      <trkpt lat="43.6463" lon="3.70506">
        <ele>113</ele>
      </trkpt>
      <trkpt lat="43.64627" lon="3.70511">
        <ele>113</ele>
      </trkpt>
      <trkpt lat="43.64625" lon="3.70516">
        <ele>113</ele>
      </trkpt>
      <trkpt lat="43.64622" lon="3.70522">
        <ele>113</ele>
      </trkpt>
      <trkpt lat="43.6462" lon="3.70527">
        <ele>113</ele>
      </trkpt>
      <trkpt lat="43.64617" lon="3.70532">
        <ele>113</ele>
      </trkpt>
      <trkpt lat="43.64614" lon="3.70537">
        <ele>113</ele>
      </trkpt>
      <trkpt lat="43.64611" lon="3.70542">
        <ele>112</ele>
      </trkpt>
      <trkpt lat="43.64608" lon="3.70548">
        <ele>112</ele>
      </trkpt>
      <trkpt lat="43.64606" lon="3.70554">
        <ele>112</ele>
      </trkpt>
      <trkpt lat="43.64602" lon="3.7056">
        <ele>112</ele>
      </trkpt>
      <trkpt lat="43.646" lon="3.70566">
        <ele>112</ele>
      </trkpt>
      <trkpt lat="43.64597" lon="3.70573">
        <ele>112</ele>
      </trkpt>
      <trkpt lat="43.64595" lon="3.70579">
        <ele>112</ele>
      </trkpt>
      <trkpt lat="43.64593" lon="3.70586">
        <ele>112</ele>
      </trkpt>
      <trkpt lat="43.6459" lon="3.70593">
        <ele>112</ele>
      </trkpt>
      <trkpt lat="43.64588" lon="3.70599">
        <ele>112</ele>
      </trkpt>
      <trkpt lat="43.64586" lon="3.70606">
        <ele>112</ele>
      </trkpt>
      <trkpt lat="43.64584" lon="3.70613">
        <ele>112</ele>
      </trkpt>
      <trkpt lat="43.64582" lon="3.7062">
        <ele>112</ele>
      </trkpt>
      <trkpt lat="43.6458" lon="3.70627">
        <ele>112</ele>
      </trkpt>
      <trkpt lat="43.64578" lon="3.70633">
        <ele>112</ele>
      </trkpt>
      <trkpt lat="43.64576" lon="3.7064">
        <ele>112</ele>
      </trkpt>
      <trkpt lat="43.64575" lon="3.70647">
        <ele>112</ele>
      </trkpt>
      <trkpt lat="43.64573" lon="3.70653">
        <ele>112</ele>
      </trkpt>
      <trkpt lat="43.64571" lon="3.7066">
        <ele>112</ele>
      </trkpt>
      <trkpt lat="43.64569" lon="3.70666">
        <ele>112</ele>
      </trkpt>
      <trkpt lat="43.64567" lon="3.70672">
        <ele>111</ele>
      </trkpt>
      <trkpt lat="43.64565" lon="3.70678">
        <ele>111</ele>
      </trkpt>
      <trkpt lat="43.64563" lon="3.70683">
        <ele>111</ele>
      </trkpt>
      <trkpt lat="43.64562" lon="3.70688">
        <ele>111</ele>
      </trkpt>
      <trkpt lat="43.6456" lon="3.70694">
        <ele>111</ele>
      </trkpt>
      <trkpt lat="43.64558" lon="3.70699">
        <ele>111</ele>
      </trkpt>
      <trkpt lat="43.64557" lon="3.70704">
        <ele>111</ele>
      </trkpt>
      <trkpt lat="43.64556" lon="3.70709">
        <ele>111</ele>
      </trkpt>
      <trkpt lat="43.64554" lon="3.70714">
        <ele>111</ele>
      </trkpt>
      <trkpt lat="43.64553" lon="3.70719">
        <ele>111</ele>
      </trkpt>
      <trkpt lat="43.64551" lon="3.70724">
        <ele>110</ele>
      </trkpt>
      <trkpt lat="43.64549" lon="3.70729">
        <ele>110</ele>
      </trkpt>
      <trkpt lat="43.64548" lon="3.70734">
        <ele>110</ele>
      </trkpt>
      <trkpt lat="43.64547" lon="3.70739">
        <ele>110</ele>
      </trkpt>
      <trkpt lat="43.64546" lon="3.70744">
        <ele>110</ele>
      </trkpt>
      <trkpt lat="43.64544" lon="3.70749">
        <ele>110</ele>
      </trkpt>
      <trkpt lat="43.64542" lon="3.70754">
        <ele>110</ele>
      </trkpt>
      <trkpt lat="43.64542" lon="3.70758">
        <ele>110</ele>
      </trkpt>
      <trkpt lat="43.6454" lon="3.70763">
        <ele>110</ele>
      </trkpt>
      <trkpt lat="43.64538" lon="3.70767">
        <ele>110</ele>
      </trkpt>
      <trkpt lat="43.64537" lon="3.70772">
        <ele>111</ele>
      </trkpt>
      <trkpt lat="43.64535" lon="3.70776">
        <ele>111</ele>
      </trkpt>
      <trkpt lat="43.64534" lon="3.7078">
        <ele>111</ele>
      </trkpt>
      <trkpt lat="43.64532" lon="3.70784">
        <ele>111</ele>
      </trkpt>
      <trkpt lat="43.64531" lon="3.70788">
        <ele>111</ele>
      </trkpt>
      <trkpt lat="43.64529" lon="3.70791">
        <ele>111</ele>
      </trkpt>
      <trkpt lat="43.64528" lon="3.70795">
        <ele>111</ele>
      </trkpt>
      <trkpt lat="43.64527" lon="3.70798">
        <ele>111</ele>
      </trkpt>
      <trkpt lat="43.64526" lon="3.70801">
        <ele>111</ele>
      </trkpt>
      <trkpt lat="43.64524" lon="3.70804">
        <ele>111</ele>
      </trkpt>
      <trkpt lat="43.64523" lon="3.70808">
        <ele>113</ele>
      </trkpt>
      <trkpt lat="43.64521" lon="3.70811">
        <ele>113</ele>
      </trkpt>
      <trkpt lat="43.6452" lon="3.70814">
        <ele>113</ele>
      </trkpt>
      <trkpt lat="43.64519" lon="3.70818">
        <ele>113</ele>
      </trkpt>
      <trkpt lat="43.64517" lon="3.70821">
        <ele>113</ele>
      </trkpt>
      <trkpt lat="43.64516" lon="3.70824">
        <ele>113</ele>
      </trkpt>
      <trkpt lat="43.64514" lon="3.70827">
        <ele>113</ele>
      </trkpt>
      <trkpt lat="43.64513" lon="3.7083">
        <ele>113</ele>
      </trkpt>
      <trkpt lat="43.64512" lon="3.70833">
        <ele>113</ele>
      </trkpt>
      <trkpt lat="43.64511" lon="3.70836">
        <ele>113</ele>
      </trkpt>
      <trkpt lat="43.64509" lon="3.70839">
        <ele>115</ele>
      </trkpt>
      <trkpt lat="43.64508" lon="3.70842">
        <ele>115</ele>
      </trkpt>
      <trkpt lat="43.64507" lon="3.70845">
        <ele>115</ele>
      </trkpt>
      <trkpt lat="43.64506" lon="3.70848">
        <ele>115</ele>
      </trkpt>
      <trkpt lat="43.64504" lon="3.70851">
        <ele>115</ele>
      </trkpt>
      <trkpt lat="43.64503" lon="3.70854">
        <ele>115</ele>
      </trkpt>
      <trkpt lat="43.64501" lon="3.70857">
        <ele>115</ele>
      </trkpt>
      <trkpt lat="43.645" lon="3.70861">
        <ele>115</ele>
      </trkpt>
      <trkpt lat="43.64499" lon="3.70864">
        <ele>115</ele>
      </trkpt>
      <trkpt lat="43.64498" lon="3.70866">
        <ele>115</ele>
      </trkpt>
      <trkpt lat="43.64496" lon="3.70869">
        <ele>116</ele>
      </trkpt>
      <trkpt lat="43.64495" lon="3.70871">
        <ele>116</ele>
      </trkpt>
      <trkpt lat="43.64494" lon="3.70874">
        <ele>116</ele>
      </trkpt>
      <trkpt lat="43.64492" lon="3.70876">
        <ele>116</ele>
      </trkpt>
      <trkpt lat="43.64491" lon="3.70879">
        <ele>116</ele>
      </trkpt>
      <trkpt lat="43.64489" lon="3.70881">
        <ele>116</ele>
      </trkpt>
      <trkpt lat="43.64489" lon="3.70884">
        <ele>116</ele>
      </trkpt>
      <trkpt lat="43.64487" lon="3.70886">
        <ele>116</ele>
      </trkpt>
      <trkpt lat="43.64486" lon="3.70889">
        <ele>116</ele>
      </trkpt>
      <trkpt lat="43.64485" lon="3.70891">
        <ele>116</ele>
      </trkpt>
      <trkpt lat="43.64483" lon="3.70894">
        <ele>117</ele>
      </trkpt>
      <trkpt lat="43.64482" lon="3.70897">
        <ele>117</ele>
      </trkpt>
      <trkpt lat="43.6448" lon="3.709">
        <ele>117</ele>
      </trkpt>
      <trkpt lat="43.64479" lon="3.70902">
        <ele>117</ele>
      </trkpt>
      <trkpt lat="43.64477" lon="3.70904">
        <ele>117</ele>
      </trkpt>
      <trkpt lat="43.64475" lon="3.70907">
        <ele>117</ele>
      </trkpt>
      <trkpt lat="43.64474" lon="3.70909">
        <ele>117</ele>
      </trkpt>
      <trkpt lat="43.64472" lon="3.70911">
        <ele>117</ele>
      </trkpt>
      <trkpt lat="43.64471" lon="3.70913">
        <ele>117</ele>
      </trkpt>
      <trkpt lat="43.64469" lon="3.70915">
        <ele>117</ele>
      </trkpt>
      <trkpt lat="43.64468" lon="3.70917">
        <ele>118</ele>
      </trkpt>
      <trkpt lat="43.64466" lon="3.70919">
        <ele>118</ele>
      </trkpt>
      <trkpt lat="43.64464" lon="3.70922">
        <ele>118</ele>
      </trkpt>
      <trkpt lat="43.64463" lon="3.70924">
        <ele>118</ele>
      </trkpt>
      <trkpt lat="43.64462" lon="3.70926">
        <ele>118</ele>
      </trkpt>
      <trkpt lat="43.64461" lon="3.70929">
        <ele>118</ele>
      </trkpt>
      <trkpt lat="43.64459" lon="3.70931">
        <ele>118</ele>
      </trkpt>
      <trkpt lat="43.64457" lon="3.70933">
        <ele>118</ele>
      </trkpt>
      <trkpt lat="43.64455" lon="3.70935">
        <ele>118</ele>
      </trkpt>
      <trkpt lat="43.64454" lon="3.70937">
        <ele>118</ele>
      </trkpt>
      <trkpt lat="43.64451" lon="3.7094">
        <ele>120</ele>
      </trkpt>
      <trkpt lat="43.6445" lon="3.70942">
        <ele>120</ele>
      </trkpt>
      <trkpt lat="43.64448" lon="3.70944">
        <ele>120</ele>
      </trkpt>
      <trkpt lat="43.64446" lon="3.70945">
        <ele>120</ele>
      </trkpt>
      <trkpt lat="43.64445" lon="3.70948">
        <ele>120</ele>
      </trkpt>
      <trkpt lat="43.64443" lon="3.7095">
        <ele>120</ele>
      </trkpt>
      <trkpt lat="43.64442" lon="3.70952">
        <ele>120</ele>
      </trkpt>
      <trkpt lat="43.6444" lon="3.70954">
        <ele>120</ele>
      </trkpt>
      <trkpt lat="43.64438" lon="3.70957">
        <ele>120</ele>
      </trkpt>
      <trkpt lat="43.64437" lon="3.70959">
        <ele>120</ele>
      </trkpt>
      <trkpt lat="43.64435" lon="3.70961">
        <ele>122</ele>
      </trkpt>
      <trkpt lat="43.64434" lon="3.70964">
        <ele>122</ele>
      </trkpt>
      <trkpt lat="43.64432" lon="3.70967">
        <ele>122</ele>
      </trkpt>
      <trkpt lat="43.64431" lon="3.7097">
        <ele>122</ele>
      </trkpt>
      <trkpt lat="43.64429" lon="3.70972">
        <ele>122</ele>
      </trkpt>
      <trkpt lat="43.64428" lon="3.70975">
        <ele>122</ele>
      </trkpt>
      <trkpt lat="43.64427" lon="3.70978">
        <ele>122</ele>
      </trkpt>
      <trkpt lat="43.64425" lon="3.70981">
        <ele>122</ele>
      </trkpt>
      <trkpt lat="43.64424" lon="3.70984">
        <ele>122</ele>
      </trkpt>
      <trkpt lat="43.64422" lon="3.70987">
        <ele>122</ele>
      </trkpt>
      <trkpt lat="43.64421" lon="3.7099">
        <ele>123</ele>
      </trkpt>
      <trkpt lat="43.64419" lon="3.70993">
        <ele>123</ele>
      </trkpt>
      <trkpt lat="43.64417" lon="3.70996">
        <ele>123</ele>
      </trkpt>
      <trkpt lat="43.64416" lon="3.70999">
        <ele>123</ele>
      </trkpt>
      <trkpt lat="43.64414" lon="3.71002">
        <ele>123</ele>
      </trkpt>
      <trkpt lat="43.64412" lon="3.71005">
        <ele>123</ele>
      </trkpt>
      <trkpt lat="43.64411" lon="3.71008">
        <ele>123</ele>
      </trkpt>
      <trkpt lat="43.6441" lon="3.71011">
        <ele>123</ele>
      </trkpt>
      <trkpt lat="43.64408" lon="3.71015">
        <ele>123</ele>
      </trkpt>
      <trkpt lat="43.64406" lon="3.71018">
        <ele>123</ele>
      </trkpt>
      <trkpt lat="43.64405" lon="3.71021">
        <ele>125</ele>
      </trkpt>
      <trkpt lat="43.64404" lon="3.71024">
        <ele>125</ele>
      </trkpt>
      <trkpt lat="43.64403" lon="3.71027">
        <ele>125</ele>
      </trkpt>
      <trkpt lat="43.64402" lon="3.71031">
        <ele>125</ele>
      </trkpt>
      <trkpt lat="43.64401" lon="3.71035">
        <ele>125</ele>
      </trkpt>
      <trkpt lat="43.644" lon="3.71038">
        <ele>125</ele>
      </trkpt>
      <trkpt lat="43.64399" lon="3.71042">
        <ele>125</ele>
      </trkpt>
      <trkpt lat="43.64399" lon="3.71046">
        <ele>125</ele>
      </trkpt>
      <trkpt lat="43.64399" lon="3.7105">
        <ele>125</ele>
      </trkpt>
      <trkpt lat="43.64398" lon="3.71053">
        <ele>125</ele>
      </trkpt>
      <trkpt lat="43.64398" lon="3.71057">
        <ele>126</ele>
      </trkpt>
      <trkpt lat="43.64397" lon="3.71061">
        <ele>126</ele>
      </trkpt>
      <trkpt lat="43.64397" lon="3.71065">
        <ele>126</ele>
      </trkpt>
      <trkpt lat="43.64396" lon="3.71069">
        <ele>126</ele>
      </trkpt>
      <trkpt lat="43.64396" lon="3.71072">
        <ele>126</ele>
      </trkpt>
      <trkpt lat="43.64396" lon="3.71076">
        <ele>126</ele>
      </trkpt>
      <trkpt lat="43.64396" lon="3.71079">
        <ele>126</ele>
      </trkpt>
      <trkpt lat="43.64395" lon="3.71083">
        <ele>126</ele>
      </trkpt>
      <trkpt lat="43.64395" lon="3.71087">
        <ele>126</ele>
      </trkpt>
      <trkpt lat="43.64395" lon="3.71091">
        <ele>126</ele>
      </trkpt>
      <trkpt lat="43.64394" lon="3.71094">
        <ele>126</ele>
      </trkpt>
      <trkpt lat="43.64394" lon="3.71098">
        <ele>126</ele>
      </trkpt>
      <trkpt lat="43.64393" lon="3.71101">
        <ele>126</ele>
      </trkpt>
      <trkpt lat="43.64393" lon="3.71105">
        <ele>126</ele>
      </trkpt>
      <trkpt lat="43.64393" lon="3.71109">
        <ele>126</ele>
      </trkpt>
      <trkpt lat="43.64392" lon="3.71113">
        <ele>126</ele>
      </trkpt>
      <trkpt lat="43.64392" lon="3.71116">
        <ele>126</ele>
      </trkpt>
      <trkpt lat="43.64392" lon="3.7112">
        <ele>126</ele>
      </trkpt>
      <trkpt lat="43.64392" lon="3.71123">
        <ele>126</ele>
      </trkpt>
      <trkpt lat="43.64391" lon="3.71127">
        <ele>126</ele>
      </trkpt>
      <trkpt lat="43.64391" lon="3.71131">
        <ele>127</ele>
      </trkpt>
      <trkpt lat="43.6439" lon="3.71134">
        <ele>127</ele>
      </trkpt>
      <trkpt lat="43.6439" lon="3.71138">
        <ele>127</ele>
      </trkpt>
      <trkpt lat="43.6439" lon="3.71142">
        <ele>127</ele>
      </trkpt>
      <trkpt lat="43.6439" lon="3.71145">
        <ele>127</ele>
      </trkpt>
      <trkpt lat="43.64389" lon="3.71149">
        <ele>127</ele>
      </trkpt>
      <trkpt lat="43.64389" lon="3.71153">
        <ele>127</ele>
      </trkpt>
      <trkpt lat="43.64389" lon="3.71156">
        <ele>127</ele>
      </trkpt>
      <trkpt lat="43.64388" lon="3.71159">
        <ele>127</ele>
      </trkpt>
      <trkpt lat="43.64387" lon="3.71163">
        <ele>127</ele>
      </trkpt>
      <trkpt lat="43.64387" lon="3.71166">
        <ele>128</ele>
      </trkpt>
      <trkpt lat="43.64387" lon="3.7117">
        <ele>128</ele>
      </trkpt>
      <trkpt lat="43.64386" lon="3.71174">
        <ele>128</ele>
      </trkpt>
      <trkpt lat="43.64386" lon="3.71177">
        <ele>128</ele>
      </trkpt>
      <trkpt lat="43.64385" lon="3.71181">
        <ele>128</ele>
      </trkpt>
      <trkpt lat="43.64385" lon="3.71185">
        <ele>128</ele>
      </trkpt>
      <trkpt lat="43.64385" lon="3.71188">
        <ele>128</ele>
      </trkpt>
      <trkpt lat="43.64384" lon="3.71192">
        <ele>128</ele>
      </trkpt>
      <trkpt lat="43.64384" lon="3.71195">
        <ele>128</ele>
      </trkpt>
      <trkpt lat="43.64384" lon="3.71199">
        <ele>128</ele>
      </trkpt>
      <trkpt lat="43.64383" lon="3.71202">
        <ele>129</ele>
      </trkpt>
      <trkpt lat="43.64383" lon="3.71205">
        <ele>129</ele>
      </trkpt>
      <trkpt lat="43.64382" lon="3.71209">
        <ele>129</ele>
      </trkpt>
      <trkpt lat="43.64382" lon="3.71212">
        <ele>129</ele>
      </trkpt>
      <trkpt lat="43.64381" lon="3.71215">
        <ele>129</ele>
      </trkpt>
      <trkpt lat="43.64381" lon="3.71219">
        <ele>129</ele>
      </trkpt>
      <trkpt lat="43.64381" lon="3.71222">
        <ele>129</ele>
      </trkpt>
      <trkpt lat="43.6438" lon="3.71225">
        <ele>129</ele>
      </trkpt>
      <trkpt lat="43.6438" lon="3.71228">
        <ele>129</ele>
      </trkpt>
      <trkpt lat="43.6438" lon="3.71231">
        <ele>129</ele>
      </trkpt>
      <trkpt lat="43.64379" lon="3.71235">
        <ele>131</ele>
      </trkpt>
      <trkpt lat="43.64379" lon="3.71237">
        <ele>131</ele>
      </trkpt>
      <trkpt lat="43.64379" lon="3.71241">
        <ele>131</ele>
      </trkpt>
      <trkpt lat="43.64378" lon="3.71244">
        <ele>131</ele>
      </trkpt>
      <trkpt lat="43.64378" lon="3.71247">
        <ele>131</ele>
      </trkpt>
      <trkpt lat="43.64378" lon="3.7125">
        <ele>131</ele>
      </trkpt>
      <trkpt lat="43.64377" lon="3.71254">
        <ele>131</ele>
      </trkpt>
      <trkpt lat="43.64377" lon="3.71257">
        <ele>131</ele>
      </trkpt>
      <trkpt lat="43.64377" lon="3.7126">
        <ele>131</ele>
      </trkpt>
      <trkpt lat="43.64377" lon="3.71263">
        <ele>131</ele>
      </trkpt>
      <trkpt lat="43.64376" lon="3.71267">
        <ele>132</ele>
      </trkpt>
      <trkpt lat="43.64376" lon="3.7127">
        <ele>132</ele>
      </trkpt>
      <trkpt lat="43.64376" lon="3.71273">
        <ele>132</ele>
      </trkpt>
      <trkpt lat="43.64376" lon="3.71277">
        <ele>132</ele>
      </trkpt>
      <trkpt lat="43.64376" lon="3.7128">
        <ele>132</ele>
      </trkpt>
      <trkpt lat="43.64375" lon="3.71283">
        <ele>132</ele>
      </trkpt>
      <trkpt lat="43.64375" lon="3.71286">
        <ele>132</ele>
      </trkpt>
      <trkpt lat="43.64375" lon="3.71289">
        <ele>132</ele>
      </trkpt>
      <trkpt lat="43.64375" lon="3.71293">
        <ele>132</ele>
      </trkpt>
      <trkpt lat="43.64375" lon="3.71297">
        <ele>132</ele>
      </trkpt>
      <trkpt lat="43.64375" lon="3.713">
        <ele>133</ele>
      </trkpt>
      <trkpt lat="43.64376" lon="3.71304">
        <ele>133</ele>
      </trkpt>
      <trkpt lat="43.64376" lon="3.71307">
        <ele>133</ele>
      </trkpt>
      <trkpt lat="43.64376" lon="3.71311">
        <ele>133</ele>
      </trkpt>
      <trkpt lat="43.64377" lon="3.71314">
        <ele>133</ele>
      </trkpt>
      <trkpt lat="43.64377" lon="3.71318">
        <ele>133</ele>
      </trkpt>
      <trkpt lat="43.64378" lon="3.71322">
        <ele>133</ele>
      </trkpt>
      <trkpt lat="43.64379" lon="3.71325">
        <ele>133</ele>
      </trkpt>
      <trkpt lat="43.64379" lon="3.71329">
        <ele>133</ele>
      </trkpt>
      <trkpt lat="43.6438" lon="3.71333">
        <ele>133</ele>
      </trkpt>
      <trkpt lat="43.64381" lon="3.71336">
        <ele>135</ele>
      </trkpt>
      <trkpt lat="43.64382" lon="3.7134">
        <ele>135</ele>
      </trkpt>
      <trkpt lat="43.64383" lon="3.71344">
        <ele>135</ele>
      </trkpt>
      <trkpt lat="43.64384" lon="3.71347">
        <ele>135</ele>
      </trkpt>
      <trkpt lat="43.64386" lon="3.7135">
        <ele>135</ele>
      </trkpt>
      <trkpt lat="43.64387" lon="3.71354">
        <ele>135</ele>
      </trkpt>
      <trkpt lat="43.64389" lon="3.71358">
        <ele>135</ele>
      </trkpt>
      <trkpt lat="43.6439" lon="3.71362">
        <ele>135</ele>
      </trkpt>
      <trkpt lat="43.64391" lon="3.71366">
        <ele>135</ele>
      </trkpt>
      <trkpt lat="43.64393" lon="3.7137">
        <ele>135</ele>
      </trkpt>
      <trkpt lat="43.64394" lon="3.71374">
        <ele>134</ele>
      </trkpt>
      <trkpt lat="43.64396" lon="3.71378">
        <ele>134</ele>
      </trkpt>
      <trkpt lat="43.64398" lon="3.71382">
        <ele>134</ele>
      </trkpt>
      <trkpt lat="43.64399" lon="3.71387">
        <ele>134</ele>
      </trkpt>
      <trkpt lat="43.64402" lon="3.71392">
        <ele>134</ele>
      </trkpt>
      <trkpt lat="43.64404" lon="3.71396">
        <ele>134</ele>
      </trkpt>
      <trkpt lat="43.64406" lon="3.71401">
        <ele>134</ele>
      </trkpt>
      <trkpt lat="43.64407" lon="3.71405">
        <ele>134</ele>
      </trkpt>
      <trkpt lat="43.64409" lon="3.71411">
        <ele>134</ele>
      </trkpt>
      <trkpt lat="43.64411" lon="3.71415">
        <ele>134</ele>
      </trkpt>
      <trkpt lat="43.64413" lon="3.7142">
        <ele>135</ele>
      </trkpt>
      <trkpt lat="43.64415" lon="3.71425">
        <ele>135</ele>
      </trkpt>
      <trkpt lat="43.64416" lon="3.7143">
        <ele>135</ele>
      </trkpt>
      <trkpt lat="43.64418" lon="3.71435">
        <ele>135</ele>
      </trkpt>
      <trkpt lat="43.64419" lon="3.7144">
        <ele>135</ele>
      </trkpt>
      <trkpt lat="43.64421" lon="3.71446">
        <ele>135</ele>
      </trkpt>
      <trkpt lat="43.64421" lon="3.71452">
        <ele>135</ele>
      </trkpt>
      <trkpt lat="43.64422" lon="3.71458">
        <ele>135</ele>
      </trkpt>
      <trkpt lat="43.64423" lon="3.71463">
        <ele>135</ele>
      </trkpt>
      <trkpt lat="43.64423" lon="3.71469">
        <ele>135</ele>
      </trkpt>
      <trkpt lat="43.64423" lon="3.71475">
        <ele>135</ele>
      </trkpt>
      <trkpt lat="43.64423" lon="3.71481">
        <ele>135</ele>
      </trkpt>
      <trkpt lat="43.64422" lon="3.71487">
        <ele>135</ele>
      </trkpt>
      <trkpt lat="43.64421" lon="3.71493">
        <ele>135</ele>
      </trkpt>
      <trkpt lat="43.64421" lon="3.71499">
        <ele>135</ele>
      </trkpt>
      <trkpt lat="43.6442" lon="3.71505">
        <ele>135</ele>
      </trkpt>
      <trkpt lat="43.64418" lon="3.71511">
        <ele>135</ele>
      </trkpt>
      <trkpt lat="43.64417" lon="3.71517">
        <ele>135</ele>
      </trkpt>
      <trkpt lat="43.64415" lon="3.71522">
        <ele>135</ele>
      </trkpt>
      <trkpt lat="43.64413" lon="3.71528">
        <ele>135</ele>
      </trkpt>
      <trkpt lat="43.64411" lon="3.71533">
        <ele>135</ele>
      </trkpt>
      <trkpt lat="43.64409" lon="3.71538">
        <ele>135</ele>
      </trkpt>
      <trkpt lat="43.64406" lon="3.71543">
        <ele>135</ele>
      </trkpt>
      <trkpt lat="43.64404" lon="3.71548">
        <ele>135</ele>
      </trkpt>
      <trkpt lat="43.64401" lon="3.71552">
        <ele>135</ele>
      </trkpt>
      <trkpt lat="43.64399" lon="3.71556">
        <ele>135</ele>
      </trkpt>
      <trkpt lat="43.64396" lon="3.7156">
        <ele>135</ele>
      </trkpt>
      <trkpt lat="43.64393" lon="3.71564">
        <ele>135</ele>
      </trkpt>
      <trkpt lat="43.6439" lon="3.71567">
        <ele>135</ele>
      </trkpt>
      <trkpt lat="43.64387" lon="3.71571">
        <ele>135</ele>
      </trkpt>
      <trkpt lat="43.64384" lon="3.71575">
        <ele>135</ele>
      </trkpt>
      <trkpt lat="43.6438" lon="3.71579">
        <ele>135</ele>
      </trkpt>
      <trkpt lat="43.64377" lon="3.71582">
        <ele>135</ele>
      </trkpt>
      <trkpt lat="43.64374" lon="3.71586">
        <ele>135</ele>
      </trkpt>
      <trkpt lat="43.64371" lon="3.71589">
        <ele>135</ele>
      </trkpt>
      <trkpt lat="43.64368" lon="3.71593">
        <ele>135</ele>
      </trkpt>
      <trkpt lat="43.64364" lon="3.71597">
        <ele>135</ele>
      </trkpt>
      <trkpt lat="43.64361" lon="3.716">
        <ele>135</ele>
      </trkpt>
      <trkpt lat="43.64358" lon="3.71603">
        <ele>135</ele>
      </trkpt>
      <trkpt lat="43.64355" lon="3.71607">
        <ele>135</ele>
      </trkpt>
      <trkpt lat="43.64352" lon="3.7161">
        <ele>135</ele>
      </trkpt>
      <trkpt lat="43.64349" lon="3.71614">
        <ele>135</ele>
      </trkpt>
      <trkpt lat="43.64346" lon="3.71618">
        <ele>135</ele>
      </trkpt>
      <trkpt lat="43.64343" lon="3.71622">
        <ele>135</ele>
      </trkpt>
      <trkpt lat="43.64341" lon="3.71626">
        <ele>135</ele>
      </trkpt>
      <trkpt lat="43.64338" lon="3.7163">
        <ele>135</ele>
      </trkpt>
      <trkpt lat="43.64336" lon="3.71634">
        <ele>135</ele>
      </trkpt>
      <trkpt lat="43.64333" lon="3.71639">
        <ele>135</ele>
      </trkpt>
      <trkpt lat="43.6433" lon="3.71643">
        <ele>135</ele>
      </trkpt>
      <trkpt lat="43.64328" lon="3.71648">
        <ele>135</ele>
      </trkpt>
      <trkpt lat="43.64325" lon="3.71653">
        <ele>135</ele>
      </trkpt>
      <trkpt lat="43.64323" lon="3.71658">
        <ele>135</ele>
      </trkpt>
      <trkpt lat="43.64321" lon="3.71663">
        <ele>135</ele>
      </trkpt>
      <trkpt lat="43.64319" lon="3.71668">
        <ele>135</ele>
      </trkpt>
      <trkpt lat="43.64317" lon="3.71674">
        <ele>135</ele>
      </trkpt>
      <trkpt lat="43.64315" lon="3.71679">
        <ele>135</ele>
      </trkpt>
      <trkpt lat="43.64313" lon="3.71685">
        <ele>135</ele>
      </trkpt>
      <trkpt lat="43.64311" lon="3.71691">
        <ele>135</ele>
      </trkpt>
      <trkpt lat="43.64309" lon="3.71697">
        <ele>135</ele>
      </trkpt>
      <trkpt lat="43.64308" lon="3.71703">
        <ele>135</ele>
      </trkpt>
      <trkpt lat="43.64307" lon="3.71709">
        <ele>135</ele>
      </trkpt>
      <trkpt lat="43.64305" lon="3.71715">
        <ele>135</ele>
      </trkpt>
      <trkpt lat="43.64304" lon="3.71722">
        <ele>135</ele>
      </trkpt>
      <trkpt lat="43.64302" lon="3.71728">
        <ele>135</ele>
      </trkpt>
      <trkpt lat="43.64301" lon="3.71734">
        <ele>135</ele>
      </trkpt>
      <trkpt lat="43.64299" lon="3.71741">
        <ele>135</ele>
      </trkpt>
      <trkpt lat="43.64298" lon="3.71747">
        <ele>135</ele>
      </trkpt>
      <trkpt lat="43.64296" lon="3.71754">
        <ele>135</ele>
      </trkpt>
      <trkpt lat="43.64295" lon="3.71761">
        <ele>135</ele>
      </trkpt>
      <trkpt lat="43.64293" lon="3.71767">
        <ele>135</ele>
      </trkpt>
      <trkpt lat="43.64292" lon="3.71774">
        <ele>135</ele>
      </trkpt>
      <trkpt lat="43.64291" lon="3.71781">
        <ele>135</ele>
      </trkpt>
      <trkpt lat="43.6429" lon="3.71788">
        <ele>135</ele>
      </trkpt>
      <trkpt lat="43.64288" lon="3.71794">
        <ele>135</ele>
      </trkpt>
      <trkpt lat="43.64287" lon="3.71801">
        <ele>135</ele>
      </trkpt>
      <trkpt lat="43.64285" lon="3.71808">
        <ele>135</ele>
      </trkpt>
      <trkpt lat="43.64284" lon="3.71815">
        <ele>135</ele>
      </trkpt>
      <trkpt lat="43.64283" lon="3.71822">
        <ele>135</ele>
      </trkpt>
      <trkpt lat="43.64281" lon="3.71829">
        <ele>135</ele>
      </trkpt>
      <trkpt lat="43.64279" lon="3.71836">
        <ele>135</ele>
      </trkpt>
      <trkpt lat="43.64278" lon="3.71843">
        <ele>135</ele>
      </trkpt>
      <trkpt lat="43.64277" lon="3.7185">
        <ele>135</ele>
      </trkpt>
      <trkpt lat="43.64275" lon="3.71857">
        <ele>135</ele>
      </trkpt>
      <trkpt lat="43.64274" lon="3.71864">
        <ele>135</ele>
      </trkpt>
      <trkpt lat="43.64273" lon="3.71872">
        <ele>135</ele>
      </trkpt>
      <trkpt lat="43.64271" lon="3.71879">
        <ele>135</ele>
      </trkpt>
      <trkpt lat="43.6427" lon="3.71886">
        <ele>135</ele>
      </trkpt>
      <trkpt lat="43.64268" lon="3.71893">
        <ele>135</ele>
      </trkpt>
      <trkpt lat="43.64267" lon="3.719">
        <ele>135</ele>
      </trkpt>
      <trkpt lat="43.64265" lon="3.71907">
        <ele>135</ele>
      </trkpt>
      <trkpt lat="43.64264" lon="3.71914">
        <ele>135</ele>
      </trkpt>
      <trkpt lat="43.64262" lon="3.71921">
        <ele>135</ele>
      </trkpt>
      <trkpt lat="43.64261" lon="3.71928">
        <ele>135</ele>
      </trkpt>
      <trkpt lat="43.64259" lon="3.71935">
        <ele>135</ele>
      </trkpt>
      <trkpt lat="43.64258" lon="3.71941">
        <ele>135</ele>
      </trkpt>
      <trkpt lat="43.64257" lon="3.71948">
        <ele>135</ele>
      </trkpt>
      <trkpt lat="43.64256" lon="3.71954">
        <ele>135</ele>
      </trkpt>
      <trkpt lat="43.64254" lon="3.71961">
        <ele>135</ele>
      </trkpt>
      <trkpt lat="43.64253" lon="3.71967">
        <ele>135</ele>
      </trkpt>
      <trkpt lat="43.64252" lon="3.71974">
        <ele>135</ele>
      </trkpt>
      <trkpt lat="43.6425" lon="3.7198">
        <ele>134</ele>
      </trkpt>
      <trkpt lat="43.64249" lon="3.71987">
        <ele>134</ele>
      </trkpt>
      <trkpt lat="43.64247" lon="3.71993">
        <ele>134</ele>
      </trkpt>
      <trkpt lat="43.64246" lon="3.72">
        <ele>134</ele>
      </trkpt>
      <trkpt lat="43.64244" lon="3.72006">
        <ele>134</ele>
      </trkpt>
      <trkpt lat="43.64243" lon="3.72013">
        <ele>134</ele>
      </trkpt>
      <trkpt lat="43.64241" lon="3.7202">
        <ele>134</ele>
      </trkpt>
      <trkpt lat="43.6424" lon="3.72026">
        <ele>134</ele>
      </trkpt>
      <trkpt lat="43.64239" lon="3.72033">
        <ele>134</ele>
      </trkpt>
      <trkpt lat="43.64238" lon="3.72039">
        <ele>134</ele>
      </trkpt>
      <trkpt lat="43.64236" lon="3.72046">
        <ele>133</ele>
      </trkpt>
      <trkpt lat="43.64235" lon="3.72053">
        <ele>133</ele>
      </trkpt>
      <trkpt lat="43.64233" lon="3.72059">
        <ele>133</ele>
      </trkpt>
      <trkpt lat="43.64232" lon="3.72066">
        <ele>133</ele>
      </trkpt>
      <trkpt lat="43.64231" lon="3.72072">
        <ele>133</ele>
      </trkpt>
      <trkpt lat="43.6423" lon="3.72079">
        <ele>133</ele>
      </trkpt>
      <trkpt lat="43.64228" lon="3.72085">
        <ele>133</ele>
      </trkpt>
      <trkpt lat="43.64226" lon="3.72091">
        <ele>133</ele>
      </trkpt>
      <trkpt lat="43.64225" lon="3.72098">
        <ele>133</ele>
      </trkpt>
      <trkpt lat="43.64224" lon="3.72104">
        <ele>133</ele>
      </trkpt>
      <trkpt lat="43.64223" lon="3.7211">
        <ele>133</ele>
      </trkpt>
      <trkpt lat="43.64221" lon="3.72117">
        <ele>133</ele>
      </trkpt>
      <trkpt lat="43.6422" lon="3.72123">
        <ele>133</ele>
      </trkpt>
      <trkpt lat="43.64218" lon="3.7213">
        <ele>133</ele>
      </trkpt>
      <trkpt lat="43.64217" lon="3.72136">
        <ele>133</ele>
      </trkpt>
      <trkpt lat="43.64216" lon="3.72143">
        <ele>133</ele>
      </trkpt>
      <trkpt lat="43.64214" lon="3.72149">
        <ele>133</ele>
      </trkpt>
      <trkpt lat="43.64213" lon="3.72156">
        <ele>133</ele>
      </trkpt>
      <trkpt lat="43.64211" lon="3.72163">
        <ele>133</ele>
      </trkpt>
      <trkpt lat="43.6421" lon="3.7217">
        <ele>133</ele>
      </trkpt>
      <trkpt lat="43.64209" lon="3.72176">
        <ele>133</ele>
      </trkpt>
      <trkpt lat="43.64208" lon="3.72183">
        <ele>133</ele>
      </trkpt>
      <trkpt lat="43.64206" lon="3.7219">
        <ele>133</ele>
      </trkpt>
      <trkpt lat="43.64205" lon="3.72197">
        <ele>133</ele>
      </trkpt>
      <trkpt lat="43.64203" lon="3.72204">
        <ele>133</ele>
      </trkpt>
      <trkpt lat="43.64202" lon="3.72211">
        <ele>133</ele>
      </trkpt>
      <trkpt lat="43.642" lon="3.72218">
        <ele>133</ele>
      </trkpt>
      <trkpt lat="43.64199" lon="3.72224">
        <ele>133</ele>
      </trkpt>
      <trkpt lat="43.64198" lon="3.72231">
        <ele>133</ele>
      </trkpt>
      <trkpt lat="43.64196" lon="3.72238">
        <ele>133</ele>
      </trkpt>
      <trkpt lat="43.64194" lon="3.72245">
        <ele>133</ele>
      </trkpt>
      <trkpt lat="43.64193" lon="3.72252">
        <ele>133</ele>
      </trkpt>
      <trkpt lat="43.64191" lon="3.72259">
        <ele>133</ele>
      </trkpt>
      <trkpt lat="43.6419" lon="3.72266">
        <ele>133</ele>
      </trkpt>
      <trkpt lat="43.64188" lon="3.72273">
        <ele>133</ele>
      </trkpt>
      <trkpt lat="43.64187" lon="3.7228">
        <ele>133</ele>
      </trkpt>
      <trkpt lat="43.64186" lon="3.72287">
        <ele>133</ele>
      </trkpt>
      <trkpt lat="43.64184" lon="3.72294">
        <ele>133</ele>
      </trkpt>
      <trkpt lat="43.64183" lon="3.72301">
        <ele>133</ele>
      </trkpt>
      <trkpt lat="43.64181" lon="3.72307">
        <ele>133</ele>
      </trkpt>
      <trkpt lat="43.6418" lon="3.72314">
        <ele>133</ele>
      </trkpt>
      <trkpt lat="43.64179" lon="3.7232">
        <ele>133</ele>
      </trkpt>
      <trkpt lat="43.64178" lon="3.72326">
        <ele>133</ele>
      </trkpt>
      <trkpt lat="43.64177" lon="3.72333">
        <ele>133</ele>
      </trkpt>
      <trkpt lat="43.64176" lon="3.72339">
        <ele>133</ele>
      </trkpt>
      <trkpt lat="43.64174" lon="3.72345">
        <ele>133</ele>
      </trkpt>
      <trkpt lat="43.64173" lon="3.72352">
        <ele>133</ele>
      </trkpt>
      <trkpt lat="43.64172" lon="3.72358">
        <ele>133</ele>
      </trkpt>
      <trkpt lat="43.64171" lon="3.72365">
        <ele>133</ele>
      </trkpt>
      <trkpt lat="43.6417" lon="3.72371">
        <ele>133</ele>
      </trkpt>
      <trkpt lat="43.64169" lon="3.72377">
        <ele>132</ele>
      </trkpt>
      <trkpt lat="43.64168" lon="3.72382">
        <ele>132</ele>
      </trkpt>
      <trkpt lat="43.64167" lon="3.72388">
        <ele>132</ele>
      </trkpt>
      <trkpt lat="43.64166" lon="3.72395">
        <ele>132</ele>
      </trkpt>
      <trkpt lat="43.64164" lon="3.72401">
        <ele>132</ele>
      </trkpt>
      <trkpt lat="43.64164" lon="3.72407">
        <ele>132</ele>
      </trkpt>
      <trkpt lat="43.64163" lon="3.72413">
        <ele>132</ele>
      </trkpt>
      <trkpt lat="43.64162" lon="3.72419">
        <ele>132</ele>
      </trkpt>
      <trkpt lat="43.64161" lon="3.72425">
        <ele>132</ele>
      </trkpt>
      <trkpt lat="43.64159" lon="3.72431">
        <ele>132</ele>
      </trkpt>
      <trkpt lat="43.64157" lon="3.72436">
        <ele>133</ele>
      </trkpt>
      <trkpt lat="43.64156" lon="3.72442">
        <ele>133</ele>
      </trkpt>
      <trkpt lat="43.64154" lon="3.72447">
        <ele>133</ele>
      </trkpt>
      <trkpt lat="43.64152" lon="3.72452">
        <ele>133</ele>
      </trkpt>
      <trkpt lat="43.6415" lon="3.72457">
        <ele>133</ele>
      </trkpt>
      <trkpt lat="43.64149" lon="3.72463">
        <ele>133</ele>
      </trkpt>
      <trkpt lat="43.64147" lon="3.72468">
        <ele>133</ele>
      </trkpt>
      <trkpt lat="43.64146" lon="3.72473">
        <ele>133</ele>
      </trkpt>
      <trkpt lat="43.64145" lon="3.72478">
        <ele>133</ele>
      </trkpt>
      <trkpt lat="43.64143" lon="3.72483">
        <ele>133</ele>
      </trkpt>
      <trkpt lat="43.64141" lon="3.72488">
        <ele>134</ele>
      </trkpt>
      <trkpt lat="43.6414" lon="3.72493">
        <ele>134</ele>
      </trkpt>
      <trkpt lat="43.64139" lon="3.72498">
        <ele>134</ele>
      </trkpt>
      <trkpt lat="43.64137" lon="3.72503">
        <ele>134</ele>
      </trkpt>
      <trkpt lat="43.64135" lon="3.72509">
        <ele>134</ele>
      </trkpt>
      <trkpt lat="43.64133" lon="3.72514">
        <ele>134</ele>
      </trkpt>
      <trkpt lat="43.64132" lon="3.72519">
        <ele>134</ele>
      </trkpt>
      <trkpt lat="43.6413" lon="3.72524">
        <ele>134</ele>
      </trkpt>
      <trkpt lat="43.64128" lon="3.72529">
        <ele>134</ele>
      </trkpt>
      <trkpt lat="43.64126" lon="3.72534">
        <ele>134</ele>
      </trkpt>
      <trkpt lat="43.64124" lon="3.72539">
        <ele>135</ele>
      </trkpt>
      <trkpt lat="43.64123" lon="3.72544">
        <ele>135</ele>
      </trkpt>
      <trkpt lat="43.64121" lon="3.7255">
        <ele>135</ele>
      </trkpt>
      <trkpt lat="43.64119" lon="3.72555">
        <ele>135</ele>
      </trkpt>
      <trkpt lat="43.64118" lon="3.7256">
        <ele>135</ele>
      </trkpt>
      <trkpt lat="43.64116" lon="3.72565">
        <ele>135</ele>
      </trkpt>
      <trkpt lat="43.64115" lon="3.7257">
        <ele>135</ele>
      </trkpt>
      <trkpt lat="43.64113" lon="3.72576">
        <ele>135</ele>
      </trkpt>
      <trkpt lat="43.64111" lon="3.72581">
        <ele>135</ele>
      </trkpt>
      <trkpt lat="43.6411" lon="3.72586">
        <ele>135</ele>
      </trkpt>
      <trkpt lat="43.64109" lon="3.72592">
        <ele>135</ele>
      </trkpt>
      <trkpt lat="43.64107" lon="3.72598">
        <ele>135</ele>
      </trkpt>
      <trkpt lat="43.64106" lon="3.72603">
        <ele>135</ele>
      </trkpt>
      <trkpt lat="43.64105" lon="3.72609">
        <ele>135</ele>
      </trkpt>
      <trkpt lat="43.64103" lon="3.72614">
        <ele>135</ele>
      </trkpt>
      <trkpt lat="43.64102" lon="3.7262">
        <ele>135</ele>
      </trkpt>
      <trkpt lat="43.64101" lon="3.72626">
        <ele>135</ele>
      </trkpt>
      <trkpt lat="43.641" lon="3.72632">
        <ele>135</ele>
      </trkpt>
      <trkpt lat="43.64099" lon="3.72637">
        <ele>135</ele>
      </trkpt>
      <trkpt lat="43.64098" lon="3.72643">
        <ele>136</ele>
      </trkpt>
      <trkpt lat="43.64097" lon="3.72648">
        <ele>136</ele>
      </trkpt>
      <trkpt lat="43.64096" lon="3.72654">
        <ele>136</ele>
      </trkpt>
      <trkpt lat="43.64095" lon="3.72659">
        <ele>136</ele>
      </trkpt>
      <trkpt lat="43.64094" lon="3.72665">
        <ele>136</ele>
      </trkpt>
      <trkpt lat="43.64093" lon="3.72671">
        <ele>136</ele>
      </trkpt>
      <trkpt lat="43.64092" lon="3.72676">
        <ele>136</ele>
      </trkpt>
      <trkpt lat="43.64091" lon="3.72682">
        <ele>136</ele>
      </trkpt>
      <trkpt lat="43.6409" lon="3.72687">
        <ele>136</ele>
      </trkpt>
      <trkpt lat="43.64089" lon="3.72693">
        <ele>136</ele>
      </trkpt>
      <trkpt lat="43.64088" lon="3.72699">
        <ele>136</ele>
      </trkpt>
      <trkpt lat="43.64087" lon="3.72704">
        <ele>136</ele>
      </trkpt>
      <trkpt lat="43.64086" lon="3.7271">
        <ele>136</ele>
      </trkpt>
      <trkpt lat="43.64085" lon="3.72715">
        <ele>136</ele>
      </trkpt>
      <trkpt lat="43.64085" lon="3.72721">
        <ele>136</ele>
      </trkpt>
      <trkpt lat="43.64084" lon="3.72726">
        <ele>136</ele>
      </trkpt>
      <trkpt lat="43.64083" lon="3.72731">
        <ele>136</ele>
      </trkpt>
      <trkpt lat="43.64083" lon="3.72737">
        <ele>136</ele>
      </trkpt>
      <trkpt lat="43.64081" lon="3.72743">
        <ele>136</ele>
      </trkpt>
      <trkpt lat="43.64081" lon="3.72748">
        <ele>136</ele>
      </trkpt>
      <trkpt lat="43.64081" lon="3.72754">
        <ele>136</ele>
      </trkpt>
      <trkpt lat="43.64081" lon="3.7276">
        <ele>137</ele>
      </trkpt>
      <trkpt lat="43.64081" lon="3.72766">
        <ele>137</ele>
      </trkpt>
      <trkpt lat="43.6408" lon="3.72771">
        <ele>137</ele>
      </trkpt>
      <trkpt lat="43.6408" lon="3.72777">
        <ele>137</ele>
      </trkpt>
      <trkpt lat="43.6408" lon="3.72783">
        <ele>137</ele>
      </trkpt>
      <trkpt lat="43.64079" lon="3.72789">
        <ele>137</ele>
      </trkpt>
      <trkpt lat="43.64079" lon="3.72794">
        <ele>137</ele>
      </trkpt>
      <trkpt lat="43.64078" lon="3.728">
        <ele>137</ele>
      </trkpt>
      <trkpt lat="43.64077" lon="3.72805">
        <ele>137</ele>
      </trkpt>
      <trkpt lat="43.64077" lon="3.72811">
        <ele>137</ele>
      </trkpt>
      <trkpt lat="43.64076" lon="3.72817">
        <ele>138</ele>
      </trkpt>
      <trkpt lat="43.64075" lon="3.72822">
        <ele>138</ele>
      </trkpt>
      <trkpt lat="43.64074" lon="3.72828">
        <ele>138</ele>
      </trkpt>
      <trkpt lat="43.64073" lon="3.72833">
        <ele>138</ele>
      </trkpt>
      <trkpt lat="43.64072" lon="3.72838">
        <ele>138</ele>
      </trkpt>
      <trkpt lat="43.64071" lon="3.72844">
        <ele>138</ele>
      </trkpt>
      <trkpt lat="43.6407" lon="3.72849">
        <ele>138</ele>
      </trkpt>
      <trkpt lat="43.64069" lon="3.72855">
        <ele>138</ele>
      </trkpt>
      <trkpt lat="43.64067" lon="3.7286">
        <ele>138</ele>
      </trkpt>
      <trkpt lat="43.64065" lon="3.72865">
        <ele>138</ele>
      </trkpt>
      <trkpt lat="43.64064" lon="3.7287">
        <ele>138</ele>
      </trkpt>
      <trkpt lat="43.64063" lon="3.72876">
        <ele>138</ele>
      </trkpt>
      <trkpt lat="43.64062" lon="3.72881">
        <ele>138</ele>
      </trkpt>
      <trkpt lat="43.6406" lon="3.72886">
        <ele>138</ele>
      </trkpt>
      <trkpt lat="43.64059" lon="3.72891">
        <ele>138</ele>
      </trkpt>
      <trkpt lat="43.64057" lon="3.72897">
        <ele>138</ele>
      </trkpt>
      <trkpt lat="43.64056" lon="3.72902">
        <ele>138</ele>
      </trkpt>
      <trkpt lat="43.64055" lon="3.72907">
        <ele>138</ele>
      </trkpt>
      <trkpt lat="43.64054" lon="3.72912">
        <ele>138</ele>
      </trkpt>
      <trkpt lat="43.64053" lon="3.72917">
        <ele>138</ele>
      </trkpt>
      <trkpt lat="43.64052" lon="3.72923">
        <ele>139</ele>
      </trkpt>
      <trkpt lat="43.64052" lon="3.72927">
        <ele>139</ele>
      </trkpt>
      <trkpt lat="43.64051" lon="3.72933">
        <ele>139</ele>
      </trkpt>
      <trkpt lat="43.6405" lon="3.72938">
        <ele>139</ele>
      </trkpt>
      <trkpt lat="43.6405" lon="3.72943">
        <ele>139</ele>
      </trkpt>
      <trkpt lat="43.64049" lon="3.72948">
        <ele>139</ele>
      </trkpt>
      <trkpt lat="43.64049" lon="3.72952">
        <ele>139</ele>
      </trkpt>
      <trkpt lat="43.64049" lon="3.72957">
        <ele>139</ele>
      </trkpt>
      <trkpt lat="43.64049" lon="3.72962">
        <ele>139</ele>
      </trkpt>
      <trkpt lat="43.64049" lon="3.72967">
        <ele>139</ele>
      </trkpt>
      <trkpt lat="43.64049" lon="3.72972">
        <ele>140</ele>
      </trkpt>
      <trkpt lat="43.64049" lon="3.72977">
        <ele>140</ele>
      </trkpt>
      <trkpt lat="43.64049" lon="3.72982">
        <ele>140</ele>
      </trkpt>
      <trkpt lat="43.64049" lon="3.72987">
        <ele>140</ele>
      </trkpt>
      <trkpt lat="43.64049" lon="3.72992">
        <ele>140</ele>
      </trkpt>
      <trkpt lat="43.6405" lon="3.72997">
        <ele>140</ele>
      </trkpt>
      <trkpt lat="43.6405" lon="3.73002">
        <ele>140</ele>
      </trkpt>
      <trkpt lat="43.6405" lon="3.73006">
        <ele>140</ele>
      </trkpt>
      <trkpt lat="43.6405" lon="3.73011">
        <ele>140</ele>
      </trkpt>
      <trkpt lat="43.6405" lon="3.73016">
        <ele>140</ele>
      </trkpt>
      <trkpt lat="43.6405" lon="3.73021">
        <ele>141</ele>
      </trkpt>
      <trkpt lat="43.6405" lon="3.73026">
        <ele>141</ele>
      </trkpt>
      <trkpt lat="43.6405" lon="3.73031">
        <ele>141</ele>
      </trkpt>
      <trkpt lat="43.6405" lon="3.73036">
        <ele>141</ele>
      </trkpt>
      <trkpt lat="43.6405" lon="3.73041">
        <ele>141</ele>
      </trkpt>
      <trkpt lat="43.6405" lon="3.73046">
        <ele>141</ele>
      </trkpt>
      <trkpt lat="43.6405" lon="3.73051">
        <ele>141</ele>
      </trkpt>
      <trkpt lat="43.6405" lon="3.73056">
        <ele>141</ele>
      </trkpt>
      <trkpt lat="43.6405" lon="3.73061">
        <ele>141</ele>
      </trkpt>
      <trkpt lat="43.64049" lon="3.73065">
        <ele>141</ele>
      </trkpt>
      <trkpt lat="43.64049" lon="3.7307">
        <ele>142</ele>
      </trkpt>
      <trkpt lat="43.64048" lon="3.73075">
        <ele>142</ele>
      </trkpt>
      <trkpt lat="43.64048" lon="3.7308">
        <ele>142</ele>
      </trkpt>
      <trkpt lat="43.64047" lon="3.73085">
        <ele>142</ele>
      </trkpt>
      <trkpt lat="43.64047" lon="3.73089">
        <ele>142</ele>
      </trkpt>
      <trkpt lat="43.64046" lon="3.73094">
        <ele>142</ele>
      </trkpt>
      <trkpt lat="43.64046" lon="3.73099">
        <ele>142</ele>
      </trkpt>
      <trkpt lat="43.64045" lon="3.73103">
        <ele>142</ele>
      </trkpt>
      <trkpt lat="43.64044" lon="3.73108">
        <ele>142</ele>
      </trkpt>
      <trkpt lat="43.64043" lon="3.73113">
        <ele>142</ele>
      </trkpt>
      <trkpt lat="43.64043" lon="3.73118">
        <ele>142</ele>
      </trkpt>
      <trkpt lat="43.64042" lon="3.73123">
        <ele>142</ele>
      </trkpt>
      <trkpt lat="43.64041" lon="3.73127">
        <ele>142</ele>
      </trkpt>
      <trkpt lat="43.64041" lon="3.73132">
        <ele>142</ele>
      </trkpt>
      <trkpt lat="43.6404" lon="3.73137">
        <ele>142</ele>
      </trkpt>
      <trkpt lat="43.64039" lon="3.73142">
        <ele>142</ele>
      </trkpt>
      <trkpt lat="43.64039" lon="3.73147">
        <ele>142</ele>
      </trkpt>
      <trkpt lat="43.64037" lon="3.73152">
        <ele>142</ele>
      </trkpt>
      <trkpt lat="43.64037" lon="3.73157">
        <ele>142</ele>
      </trkpt>
      <trkpt lat="43.64036" lon="3.73162">
        <ele>142</ele>
      </trkpt>
      <trkpt lat="43.64036" lon="3.73167">
        <ele>143</ele>
      </trkpt>
      <trkpt lat="43.64035" lon="3.73172">
        <ele>143</ele>
      </trkpt>
      <trkpt lat="43.64035" lon="3.73177">
        <ele>143</ele>
      </trkpt>
      <trkpt lat="43.64034" lon="3.73181">
        <ele>143</ele>
      </trkpt>
      <trkpt lat="43.64033" lon="3.73186">
        <ele>143</ele>
      </trkpt>
      <trkpt lat="43.64033" lon="3.73191">
        <ele>143</ele>
      </trkpt>
      <trkpt lat="43.64032" lon="3.73195">
        <ele>143</ele>
      </trkpt>
      <trkpt lat="43.64032" lon="3.732">
        <ele>143</ele>
      </trkpt>
      <trkpt lat="43.64031" lon="3.73205">
        <ele>143</ele>
      </trkpt>
      <trkpt lat="43.64031" lon="3.7321">
        <ele>143</ele>
      </trkpt>
      <trkpt lat="43.6403" lon="3.73214">
        <ele>143</ele>
      </trkpt>
      <trkpt lat="43.6403" lon="3.73219">
        <ele>143</ele>
      </trkpt>
      <trkpt lat="43.6403" lon="3.73224">
        <ele>143</ele>
      </trkpt>
      <trkpt lat="43.6403" lon="3.73229">
        <ele>143</ele>
      </trkpt>
      <trkpt lat="43.6403" lon="3.73233">
        <ele>143</ele>
      </trkpt>
      <trkpt lat="43.6403" lon="3.73238">
        <ele>143</ele>
      </trkpt>
      <trkpt lat="43.6403" lon="3.73242">
        <ele>143</ele>
      </trkpt>
      <trkpt lat="43.6403" lon="3.73247">
        <ele>143</ele>
      </trkpt>
      <trkpt lat="43.6403" lon="3.73252">
        <ele>143</ele>
      </trkpt>
      <trkpt lat="43.6403" lon="3.73257">
        <ele>143</ele>
      </trkpt>
      <trkpt lat="43.6403" lon="3.73262">
        <ele>144</ele>
      </trkpt>
      <trkpt lat="43.6403" lon="3.73266">
        <ele>144</ele>
      </trkpt>
      <trkpt lat="43.64031" lon="3.73271">
        <ele>144</ele>
      </trkpt>
      <trkpt lat="43.64031" lon="3.73276">
        <ele>144</ele>
      </trkpt>
      <trkpt lat="43.64031" lon="3.73281">
        <ele>144</ele>
      </trkpt>
      <trkpt lat="43.64032" lon="3.73285">
        <ele>144</ele>
      </trkpt>
      <trkpt lat="43.64032" lon="3.7329">
        <ele>144</ele>
      </trkpt>
      <trkpt lat="43.64033" lon="3.73295">
        <ele>144</ele>
      </trkpt>
      <trkpt lat="43.64033" lon="3.73299">
        <ele>144</ele>
      </trkpt>
      <trkpt lat="43.64034" lon="3.73304">
        <ele>144</ele>
      </trkpt>
      <trkpt lat="43.64034" lon="3.73308">
        <ele>145</ele>
      </trkpt>
      <trkpt lat="43.64035" lon="3.73313">
        <ele>145</ele>
      </trkpt>
      <trkpt lat="43.64035" lon="3.73318">
        <ele>145</ele>
      </trkpt>
      <trkpt lat="43.64036" lon="3.73323">
        <ele>145</ele>
      </trkpt>
      <trkpt lat="43.64036" lon="3.73328">
        <ele>145</ele>
      </trkpt>
      <trkpt lat="43.64036" lon="3.73332">
        <ele>145</ele>
      </trkpt>
      <trkpt lat="43.64036" lon="3.73337">
        <ele>145</ele>
      </trkpt>
      <trkpt lat="43.64036" lon="3.73342">
        <ele>145</ele>
      </trkpt>
      <trkpt lat="43.64036" lon="3.73347">
        <ele>145</ele>
      </trkpt>
      <trkpt lat="43.64036" lon="3.73352">
        <ele>145</ele>
      </trkpt>
      <trkpt lat="43.64036" lon="3.73357">
        <ele>146</ele>
      </trkpt>
      <trkpt lat="43.64036" lon="3.73362">
        <ele>146</ele>
      </trkpt>
      <trkpt lat="43.64036" lon="3.73367">
        <ele>146</ele>
      </trkpt>
      <trkpt lat="43.64036" lon="3.73372">
        <ele>146</ele>
      </trkpt>
      <trkpt lat="43.64036" lon="3.73377">
        <ele>146</ele>
      </trkpt>
      <trkpt lat="43.64035" lon="3.73382">
        <ele>146</ele>
      </trkpt>
      <trkpt lat="43.64035" lon="3.73386">
        <ele>146</ele>
      </trkpt>
      <trkpt lat="43.64034" lon="3.73392">
        <ele>146</ele>
      </trkpt>
      <trkpt lat="43.64034" lon="3.73396">
        <ele>146</ele>
      </trkpt>
      <trkpt lat="43.64033" lon="3.73401">
        <ele>146</ele>
      </trkpt>
      <trkpt lat="43.64033" lon="3.73406">
        <ele>147</ele>
      </trkpt>
      <trkpt lat="43.64032" lon="3.73411">
        <ele>147</ele>
      </trkpt>
      <trkpt lat="43.64031" lon="3.73416">
        <ele>147</ele>
      </trkpt>
      <trkpt lat="43.64031" lon="3.73421">
        <ele>147</ele>
      </trkpt>
      <trkpt lat="43.6403" lon="3.73426">
        <ele>147</ele>
      </trkpt>
      <trkpt lat="43.6403" lon="3.7343">
        <ele>147</ele>
      </trkpt>
      <trkpt lat="43.64029" lon="3.73435">
        <ele>147</ele>
      </trkpt>
      <trkpt lat="43.64028" lon="3.7344">
        <ele>147</ele>
      </trkpt>
      <trkpt lat="43.64028" lon="3.73445">
        <ele>147</ele>
      </trkpt>
      <trkpt lat="43.64027" lon="3.7345">
        <ele>147</ele>
      </trkpt>
      <trkpt lat="43.64026" lon="3.73455">
        <ele>147</ele>
      </trkpt>
      <trkpt lat="43.64026" lon="3.73459">
        <ele>147</ele>
      </trkpt>
      <trkpt lat="43.64025" lon="3.73464">
        <ele>147</ele>
      </trkpt>
      <trkpt lat="43.64025" lon="3.73469">
        <ele>147</ele>
      </trkpt>
      <trkpt lat="43.64024" lon="3.73474">
        <ele>147</ele>
      </trkpt>
      <trkpt lat="43.64024" lon="3.73478">
        <ele>147</ele>
      </trkpt>
      <trkpt lat="43.64024" lon="3.73483">
        <ele>147</ele>
      </trkpt>
      <trkpt lat="43.64024" lon="3.73488">
        <ele>147</ele>
      </trkpt>
      <trkpt lat="43.64023" lon="3.73493">
        <ele>147</ele>
      </trkpt>
      <trkpt lat="43.64023" lon="3.73497">
        <ele>147</ele>
      </trkpt>
      <trkpt lat="43.64023" lon="3.73502">
        <ele>148</ele>
      </trkpt>
      <trkpt lat="43.64023" lon="3.73507">
        <ele>148</ele>
      </trkpt>
      <trkpt lat="43.64023" lon="3.73512">
        <ele>148</ele>
      </trkpt>
      <trkpt lat="43.64024" lon="3.73517">
        <ele>148</ele>
      </trkpt>
      <trkpt lat="43.64024" lon="3.73522">
        <ele>148</ele>
      </trkpt>
      <trkpt lat="43.64024" lon="3.73527">
        <ele>148</ele>
      </trkpt>
      <trkpt lat="43.64024" lon="3.73532">
        <ele>148</ele>
      </trkpt>
      <trkpt lat="43.64025" lon="3.73537">
        <ele>148</ele>
      </trkpt>
      <trkpt lat="43.64025" lon="3.73542">
        <ele>148</ele>
      </trkpt>
      <trkpt lat="43.64026" lon="3.73547">
        <ele>148</ele>
      </trkpt>
      <trkpt lat="43.64026" lon="3.73552">
        <ele>148</ele>
      </trkpt>
      <trkpt lat="43.64027" lon="3.73557">
        <ele>148</ele>
      </trkpt>
      <trkpt lat="43.64027" lon="3.73563">
        <ele>148</ele>
      </trkpt>
      <trkpt lat="43.64027" lon="3.73567">
        <ele>148</ele>
      </trkpt>
      <trkpt lat="43.64028" lon="3.73573">
        <ele>148</ele>
      </trkpt>
      <trkpt lat="43.64028" lon="3.73578">
        <ele>148</ele>
      </trkpt>
      <trkpt lat="43.64029" lon="3.73583">
        <ele>148</ele>
      </trkpt>
      <trkpt lat="43.6403" lon="3.73588">
        <ele>148</ele>
      </trkpt>
      <trkpt lat="43.6403" lon="3.73593">
        <ele>148</ele>
      </trkpt>
      <trkpt lat="43.64031" lon="3.73598">
        <ele>148</ele>
      </trkpt>
      <trkpt lat="43.64031" lon="3.73602">
        <ele>148</ele>
      </trkpt>
      <trkpt lat="43.64032" lon="3.73608">
        <ele>148</ele>
      </trkpt>
      <trkpt lat="43.64032" lon="3.73613">
        <ele>148</ele>
      </trkpt>
      <trkpt lat="43.64033" lon="3.73617">
        <ele>148</ele>
      </trkpt>
      <trkpt lat="43.64033" lon="3.73622">
        <ele>148</ele>
      </trkpt>
      <trkpt lat="43.64033" lon="3.73627">
        <ele>148</ele>
      </trkpt>
      <trkpt lat="43.64034" lon="3.73632">
        <ele>148</ele>
      </trkpt>
      <trkpt lat="43.64034" lon="3.73637">
        <ele>148</ele>
      </trkpt>
      <trkpt lat="43.64035" lon="3.73642">
        <ele>148</ele>
      </trkpt>
      <trkpt lat="43.64035" lon="3.73647">
        <ele>148</ele>
      </trkpt>
      <trkpt lat="43.64036" lon="3.73652">
        <ele>149</ele>
      </trkpt>
      <trkpt lat="43.64036" lon="3.73656">
        <ele>149</ele>
      </trkpt>
      <trkpt lat="43.64036" lon="3.73661">
        <ele>149</ele>
      </trkpt>
      <trkpt lat="43.64037" lon="3.73666">
        <ele>149</ele>
      </trkpt>
      <trkpt lat="43.64037" lon="3.7367">
        <ele>149</ele>
      </trkpt>
      <trkpt lat="43.64037" lon="3.73674">
        <ele>149</ele>
      </trkpt>
      <trkpt lat="43.64038" lon="3.73678">
        <ele>149</ele>
      </trkpt>
      <trkpt lat="43.64039" lon="3.73682">
        <ele>149</ele>
      </trkpt>
      <trkpt lat="43.64039" lon="3.73685">
        <ele>149</ele>
      </trkpt>
      <trkpt lat="43.64039" lon="3.73689">
        <ele>149</ele>
      </trkpt>
      <trkpt lat="43.6404" lon="3.73694">
        <ele>149</ele>
      </trkpt>
      <trkpt lat="43.6404" lon="3.73698">
        <ele>149</ele>
      </trkpt>
      <trkpt lat="43.64041" lon="3.73702">
        <ele>149</ele>
      </trkpt>
      <trkpt lat="43.64041" lon="3.73706">
        <ele>149</ele>
      </trkpt>
      <trkpt lat="43.64041" lon="3.7371">
        <ele>149</ele>
      </trkpt>
      <trkpt lat="43.64042" lon="3.73715">
        <ele>149</ele>
      </trkpt>
      <trkpt lat="43.64042" lon="3.73719">
        <ele>149</ele>
      </trkpt>
      <trkpt lat="43.64043" lon="3.73723">
        <ele>149</ele>
      </trkpt>
      <trkpt lat="43.64043" lon="3.73727">
        <ele>149</ele>
      </trkpt>
      <trkpt lat="43.64043" lon="3.73732">
        <ele>149</ele>
      </trkpt>
      <trkpt lat="43.64044" lon="3.73736">
        <ele>149</ele>
      </trkpt>
      <trkpt lat="43.64045" lon="3.7374">
        <ele>149</ele>
      </trkpt>
      <trkpt lat="43.64045" lon="3.73744">
        <ele>149</ele>
      </trkpt>
      <trkpt lat="43.64046" lon="3.73749">
        <ele>149</ele>
      </trkpt>
      <trkpt lat="43.64046" lon="3.73753">
        <ele>149</ele>
      </trkpt>
      <trkpt lat="43.64047" lon="3.73758">
        <ele>149</ele>
      </trkpt>
      <trkpt lat="43.64047" lon="3.73762">
        <ele>149</ele>
      </trkpt>
      <trkpt lat="43.64048" lon="3.73766">
        <ele>149</ele>
      </trkpt>
      <trkpt lat="43.64049" lon="3.73771">
        <ele>149</ele>
      </trkpt>
      <trkpt lat="43.64049" lon="3.73776">
        <ele>149</ele>
      </trkpt>
      <trkpt lat="43.6405" lon="3.7378">
        <ele>150</ele>
      </trkpt>
      <trkpt lat="43.6405" lon="3.73785">
        <ele>150</ele>
      </trkpt>
      <trkpt lat="43.64052" lon="3.73789">
        <ele>150</ele>
      </trkpt>
      <trkpt lat="43.64053" lon="3.73794">
        <ele>150</ele>
      </trkpt>
      <trkpt lat="43.64054" lon="3.73798">
        <ele>150</ele>
      </trkpt>
      <trkpt lat="43.64055" lon="3.73803">
        <ele>150</ele>
      </trkpt>
      <trkpt lat="43.64056" lon="3.73807">
        <ele>150</ele>
      </trkpt>
      <trkpt lat="43.64057" lon="3.73811">
        <ele>150</ele>
      </trkpt>
      <trkpt lat="43.64059" lon="3.73815">
        <ele>150</ele>
      </trkpt>
      <trkpt lat="43.6406" lon="3.73819">
        <ele>150</ele>
      </trkpt>
      <trkpt lat="43.64061" lon="3.73823">
        <ele>151</ele>
      </trkpt>
      <trkpt lat="43.64062" lon="3.73827">
        <ele>151</ele>
      </trkpt>
      <trkpt lat="43.64064" lon="3.73831">
        <ele>151</ele>
      </trkpt>
      <trkpt lat="43.64065" lon="3.73835">
        <ele>151</ele>
      </trkpt>
      <trkpt lat="43.64065" lon="3.73839">
        <ele>151</ele>
      </trkpt>
      <trkpt lat="43.64067" lon="3.73844">
        <ele>151</ele>
      </trkpt>
      <trkpt lat="43.64067" lon="3.73848">
        <ele>151</ele>
      </trkpt>
      <trkpt lat="43.64069" lon="3.73852">
        <ele>151</ele>
      </trkpt>
      <trkpt lat="43.6407" lon="3.73856">
        <ele>151</ele>
      </trkpt>
      <trkpt lat="43.64071" lon="3.7386">
        <ele>151</ele>
      </trkpt>
      <trkpt lat="43.64072" lon="3.73864">
        <ele>152</ele>
      </trkpt>
      <trkpt lat="43.64074" lon="3.73868">
        <ele>152</ele>
      </trkpt>
      <trkpt lat="43.64075" lon="3.73872">
        <ele>152</ele>
      </trkpt>
      <trkpt lat="43.64076" lon="3.73876">
        <ele>152</ele>
      </trkpt>
      <trkpt lat="43.64078" lon="3.7388">
        <ele>152</ele>
      </trkpt>
      <trkpt lat="43.64079" lon="3.73884">
        <ele>152</ele>
      </trkpt>
      <trkpt lat="43.6408" lon="3.73888">
        <ele>152</ele>
      </trkpt>
      <trkpt lat="43.64081" lon="3.73892">
        <ele>152</ele>
      </trkpt>
      <trkpt lat="43.64083" lon="3.73895">
        <ele>152</ele>
      </trkpt>
      <trkpt lat="43.64084" lon="3.73899">
        <ele>152</ele>
      </trkpt>
      <trkpt lat="43.64085" lon="3.73903">
        <ele>152</ele>
      </trkpt>
      <trkpt lat="43.64086" lon="3.73906">
        <ele>152</ele>
      </trkpt>
      <trkpt lat="43.64087" lon="3.73911">
        <ele>152</ele>
      </trkpt>
      <trkpt lat="43.64088" lon="3.73914">
        <ele>152</ele>
      </trkpt>
      <trkpt lat="43.64089" lon="3.73919">
        <ele>152</ele>
      </trkpt>
      <trkpt lat="43.6409" lon="3.73923">
        <ele>152</ele>
      </trkpt>
      <trkpt lat="43.64091" lon="3.73926">
        <ele>152</ele>
      </trkpt>
      <trkpt lat="43.64093" lon="3.73931">
        <ele>152</ele>
      </trkpt>
      <trkpt lat="43.64094" lon="3.73935">
        <ele>152</ele>
      </trkpt>
      <trkpt lat="43.64095" lon="3.73939">
        <ele>152</ele>
      </trkpt>
      <trkpt lat="43.64096" lon="3.73943">
        <ele>153</ele>
      </trkpt>
      <trkpt lat="43.64097" lon="3.73948">
        <ele>153</ele>
      </trkpt>
      <trkpt lat="43.64098" lon="3.73952">
        <ele>153</ele>
      </trkpt>
      <trkpt lat="43.64099" lon="3.73956">
        <ele>153</ele>
      </trkpt>
      <trkpt lat="43.641" lon="3.7396">
        <ele>153</ele>
      </trkpt>
      <trkpt lat="43.64101" lon="3.73964">
        <ele>153</ele>
      </trkpt>
      <trkpt lat="43.64102" lon="3.73968">
        <ele>153</ele>
      </trkpt>
      <trkpt lat="43.64102" lon="3.73972">
        <ele>153</ele>
      </trkpt>
      <trkpt lat="43.64103" lon="3.73976">
        <ele>153</ele>
      </trkpt>
      <trkpt lat="43.64104" lon="3.7398">
        <ele>153</ele>
      </trkpt>
      <trkpt lat="43.64105" lon="3.73984">
        <ele>154</ele>
      </trkpt>
      <trkpt lat="43.64105" lon="3.73988">
        <ele>154</ele>
      </trkpt>
      <trkpt lat="43.64106" lon="3.73993">
        <ele>154</ele>
      </trkpt>
      <trkpt lat="43.64107" lon="3.73997">
        <ele>154</ele>
      </trkpt>
      <trkpt lat="43.64108" lon="3.74001">
        <ele>154</ele>
      </trkpt>
      <trkpt lat="43.64109" lon="3.74006">
        <ele>154</ele>
      </trkpt>
      <trkpt lat="43.64109" lon="3.7401">
        <ele>154</ele>
      </trkpt>
      <trkpt lat="43.6411" lon="3.74014">
        <ele>154</ele>
      </trkpt>
      <trkpt lat="43.64111" lon="3.74018">
        <ele>154</ele>
      </trkpt>
      <trkpt lat="43.64112" lon="3.74022">
        <ele>154</ele>
      </trkpt>
      <trkpt lat="43.64113" lon="3.74027">
        <ele>154</ele>
      </trkpt>
      <trkpt lat="43.64114" lon="3.74031">
        <ele>154</ele>
      </trkpt>
      <trkpt lat="43.64114" lon="3.74036">
        <ele>154</ele>
      </trkpt>
      <trkpt lat="43.64115" lon="3.7404">
        <ele>154</ele>
      </trkpt>
      <trkpt lat="43.64116" lon="3.74045">
        <ele>154</ele>
      </trkpt>
      <trkpt lat="43.64117" lon="3.74049">
        <ele>154</ele>
      </trkpt>
      <trkpt lat="43.64117" lon="3.74054">
        <ele>154</ele>
      </trkpt>
      <trkpt lat="43.64118" lon="3.74058">
        <ele>154</ele>
      </trkpt>
      <trkpt lat="43.64119" lon="3.74063">
        <ele>154</ele>
      </trkpt>
      <trkpt lat="43.64119" lon="3.74068">
        <ele>154</ele>
      </trkpt>
      <trkpt lat="43.64119" lon="3.74072">
        <ele>154</ele>
      </trkpt>
      <trkpt lat="43.6412" lon="3.74077">
        <ele>154</ele>
      </trkpt>
      <trkpt lat="43.64119" lon="3.74082">
        <ele>154</ele>
      </trkpt>
      <trkpt lat="43.64119" lon="3.74086">
        <ele>154</ele>
      </trkpt>
      <trkpt lat="43.64119" lon="3.74091">
        <ele>154</ele>
      </trkpt>
      <trkpt lat="43.64118" lon="3.74096">
        <ele>154</ele>
      </trkpt>
      <trkpt lat="43.64118" lon="3.741">
        <ele>154</ele>
      </trkpt>
      <trkpt lat="43.64117" lon="3.74104">
        <ele>154</ele>
      </trkpt>
      <trkpt lat="43.64116" lon="3.74109">
        <ele>154</ele>
      </trkpt>
      <trkpt lat="43.64116" lon="3.74113">
        <ele>154</ele>
      </trkpt>
      <trkpt lat="43.64115" lon="3.74117">
        <ele>155</ele>
      </trkpt>
      <trkpt lat="43.64114" lon="3.74122">
        <ele>155</ele>
      </trkpt>
      <trkpt lat="43.64113" lon="3.74126">
        <ele>155</ele>
      </trkpt>
      <trkpt lat="43.64112" lon="3.7413">
        <ele>155</ele>
      </trkpt>
      <trkpt lat="43.64112" lon="3.74135">
        <ele>155</ele>
      </trkpt>
      <trkpt lat="43.64111" lon="3.74139">
        <ele>155</ele>
      </trkpt>
      <trkpt lat="43.64111" lon="3.74144">
        <ele>155</ele>
      </trkpt>
      <trkpt lat="43.6411" lon="3.74148">
        <ele>155</ele>
      </trkpt>
      <trkpt lat="43.6411" lon="3.74153">
        <ele>155</ele>
      </trkpt>
      <trkpt lat="43.6411" lon="3.74157">
        <ele>155</ele>
      </trkpt>
      <trkpt lat="43.6411" lon="3.74162">
        <ele>155</ele>
      </trkpt>
      <trkpt lat="43.6411" lon="3.74165">
        <ele>155</ele>
      </trkpt>
      <trkpt lat="43.6411" lon="3.7417">
        <ele>155</ele>
      </trkpt>
      <trkpt lat="43.64111" lon="3.74174">
        <ele>155</ele>
      </trkpt>
      <trkpt lat="43.64112" lon="3.74178">
        <ele>155</ele>
      </trkpt>
      <trkpt lat="43.64114" lon="3.74182">
        <ele>155</ele>
      </trkpt>
      <trkpt lat="43.64115" lon="3.74186">
        <ele>155</ele>
      </trkpt>
      <trkpt lat="43.64116" lon="3.7419">
        <ele>155</ele>
      </trkpt>
      <trkpt lat="43.64118" lon="3.74193">
        <ele>155</ele>
      </trkpt>
      <trkpt lat="43.64119" lon="3.74197">
        <ele>155</ele>
      </trkpt>
      <trkpt lat="43.64121" lon="3.742">
        <ele>155</ele>
      </trkpt>
      <trkpt lat="43.64122" lon="3.74204">
        <ele>155</ele>
      </trkpt>
      <trkpt lat="43.64124" lon="3.74207">
        <ele>155</ele>
      </trkpt>
      <trkpt lat="43.64126" lon="3.7421">
        <ele>155</ele>
      </trkpt>
      <trkpt lat="43.64128" lon="3.74213">
        <ele>155</ele>
      </trkpt>
      <trkpt lat="43.64131" lon="3.74216">
        <ele>155</ele>
      </trkpt>
      <trkpt lat="43.64133" lon="3.74219">
        <ele>155</ele>
      </trkpt>
      <trkpt lat="43.64134" lon="3.74223">
        <ele>155</ele>
      </trkpt>
      <trkpt lat="43.64135" lon="3.74227">
        <ele>155</ele>
      </trkpt>
      <trkpt lat="43.64137" lon="3.74231">
        <ele>155</ele>
      </trkpt>
      <trkpt lat="43.64138" lon="3.74235">
        <ele>156</ele>
      </trkpt>
      <trkpt lat="43.64139" lon="3.74239">
        <ele>156</ele>
      </trkpt>
      <trkpt lat="43.64139" lon="3.74244">
        <ele>156</ele>
      </trkpt>
      <trkpt lat="43.64139" lon="3.74248">
        <ele>156</ele>
      </trkpt>
      <trkpt lat="43.64139" lon="3.74252">
        <ele>156</ele>
      </trkpt>
      <trkpt lat="43.64138" lon="3.74256">
        <ele>156</ele>
      </trkpt>
      <trkpt lat="43.64138" lon="3.7426">
        <ele>156</ele>
      </trkpt>
      <trkpt lat="43.64137" lon="3.74263">
        <ele>156</ele>
      </trkpt>
      <trkpt lat="43.64136" lon="3.74266">
        <ele>156</ele>
      </trkpt>
      <trkpt lat="43.64136" lon="3.74269">
        <ele>156</ele>
      </trkpt>
      <trkpt lat="43.64136" lon="3.74272">
        <ele>155</ele>
      </trkpt>
      <trkpt lat="43.64133" lon="3.74276">
        <ele>155</ele>
      </trkpt>
      <trkpt lat="43.64134" lon="3.74289">
        <ele>154</ele>
      </trkpt>
      <trkpt lat="43.64135" lon="3.74293">
        <ele>154</ele>
      </trkpt>
      <trkpt lat="43.64137" lon="3.74297">
        <ele>154</ele>
      </trkpt>
      <trkpt lat="43.64138" lon="3.743">
        <ele>154</ele>
      </trkpt>
      <trkpt lat="43.6414" lon="3.74303">
        <ele>154</ele>
      </trkpt>
      <trkpt lat="43.64142" lon="3.74306">
        <ele>154</ele>
      </trkpt>
      <trkpt lat="43.64133" lon="3.74277">
        <ele>155</ele>
      </trkpt>
      <trkpt lat="43.64145" lon="3.7431">
        <ele>154</ele>
      </trkpt>
      <trkpt lat="43.64146" lon="3.74315">
        <ele>154</ele>
      </trkpt>
      <trkpt lat="43.64147" lon="3.7432">
        <ele>154</ele>
      </trkpt>
      <trkpt lat="43.64148" lon="3.74325">
        <ele>154</ele>
      </trkpt>
      <trkpt lat="43.64148" lon="3.7433">
        <ele>154</ele>
      </trkpt>
      <trkpt lat="43.64149" lon="3.74334">
        <ele>153</ele>
      </trkpt>
      <trkpt lat="43.6415" lon="3.74338">
        <ele>153</ele>
      </trkpt>
      <trkpt lat="43.64152" lon="3.74342">
        <ele>153</ele>
      </trkpt>
      <trkpt lat="43.64153" lon="3.74346">
        <ele>153</ele>
      </trkpt>
      <trkpt lat="43.64154" lon="3.7435">
        <ele>153</ele>
      </trkpt>
      <trkpt lat="43.64155" lon="3.74353">
        <ele>153</ele>
      </trkpt>
      <trkpt lat="43.64155" lon="3.74357">
        <ele>153</ele>
      </trkpt>
      <trkpt lat="43.64155" lon="3.74359">
        <ele>153</ele>
      </trkpt>
      <trkpt lat="43.64155" lon="3.74364">
        <ele>153</ele>
      </trkpt>
      <trkpt lat="43.64156" lon="3.74368">
        <ele>153</ele>
      </trkpt>
      <trkpt lat="43.64157" lon="3.74373">
        <ele>153</ele>
      </trkpt>
      <trkpt lat="43.64159" lon="3.74375">
        <ele>153</ele>
      </trkpt>
      <trkpt lat="43.6416" lon="3.74377">
        <ele>153</ele>
      </trkpt>
      <trkpt lat="43.64162" lon="3.74379">
        <ele>153</ele>
      </trkpt>
      <trkpt lat="43.64163" lon="3.74381">
        <ele>153</ele>
      </trkpt>
      <trkpt lat="43.64164" lon="3.74383">
        <ele>153</ele>
      </trkpt>
      <trkpt lat="43.64167" lon="3.74385">
        <ele>153</ele>
      </trkpt>
      <trkpt lat="43.64168" lon="3.74388">
        <ele>153</ele>
      </trkpt>
      <trkpt lat="43.6417" lon="3.74391">
        <ele>153</ele>
      </trkpt>
      <trkpt lat="43.64171" lon="3.74395">
        <ele>153</ele>
      </trkpt>
      <trkpt lat="43.64171" lon="3.74398">
        <ele>153</ele>
      </trkpt>
      <trkpt lat="43.64172" lon="3.74403">
        <ele>153</ele>
      </trkpt>
      <trkpt lat="43.64172" lon="3.74407">
        <ele>153</ele>
      </trkpt>
      <trkpt lat="43.64173" lon="3.74412">
        <ele>153</ele>
      </trkpt>
      <trkpt lat="43.64174" lon="3.74416">
        <ele>153</ele>
      </trkpt>
      <trkpt lat="43.64175" lon="3.7442">
        <ele>153</ele>
      </trkpt>
      <trkpt lat="43.64177" lon="3.74423">
        <ele>153</ele>
      </trkpt>
      <trkpt lat="43.64178" lon="3.74428">
        <ele>154</ele>
      </trkpt>
      <trkpt lat="43.64178" lon="3.74432">
        <ele>154</ele>
      </trkpt>
      <trkpt lat="43.64178" lon="3.74436">
        <ele>154</ele>
      </trkpt>
      <trkpt lat="43.64178" lon="3.74441">
        <ele>154</ele>
      </trkpt>
      <trkpt lat="43.64178" lon="3.74445">
        <ele>154</ele>
      </trkpt>
      <trkpt lat="43.6418" lon="3.74449">
        <ele>154</ele>
      </trkpt>
      <trkpt lat="43.64181" lon="3.74453">
        <ele>154</ele>
      </trkpt>
      <trkpt lat="43.64183" lon="3.74457">
        <ele>154</ele>
      </trkpt>
      <trkpt lat="43.64185" lon="3.74461">
        <ele>154</ele>
      </trkpt>
      <trkpt lat="43.64186" lon="3.74465">
        <ele>154</ele>
      </trkpt>
      <trkpt lat="43.64188" lon="3.74469">
        <ele>155</ele>
      </trkpt>
      <trkpt lat="43.64189" lon="3.74474">
        <ele>155</ele>
      </trkpt>
      <trkpt lat="43.6419" lon="3.74478">
        <ele>155</ele>
      </trkpt>
      <trkpt lat="43.64192" lon="3.74482">
        <ele>155</ele>
      </trkpt>
      <trkpt lat="43.64194" lon="3.74486">
        <ele>155</ele>
      </trkpt>
      <trkpt lat="43.64196" lon="3.74489">
        <ele>155</ele>
      </trkpt>
      <trkpt lat="43.64198" lon="3.74494">
        <ele>155</ele>
      </trkpt>
      <trkpt lat="43.642" lon="3.74497">
        <ele>155</ele>
      </trkpt>
      <trkpt lat="43.64202" lon="3.74501">
        <ele>155</ele>
      </trkpt>
      <trkpt lat="43.64204" lon="3.74505">
        <ele>155</ele>
      </trkpt>
      <trkpt lat="43.64206" lon="3.74509">
        <ele>156</ele>
      </trkpt>
      <trkpt lat="43.64207" lon="3.74513">
        <ele>156</ele>
      </trkpt>
      <trkpt lat="43.64209" lon="3.74517">
        <ele>156</ele>
      </trkpt>
      <trkpt lat="43.6421" lon="3.74522">
        <ele>156</ele>
      </trkpt>
      <trkpt lat="43.64212" lon="3.74525">
        <ele>156</ele>
      </trkpt>
      <trkpt lat="43.64214" lon="3.74529">
        <ele>156</ele>
      </trkpt>
      <trkpt lat="43.64215" lon="3.74533">
        <ele>156</ele>
      </trkpt>
      <trkpt lat="43.64217" lon="3.74537">
        <ele>156</ele>
      </trkpt>
      <trkpt lat="43.64218" lon="3.74541">
        <ele>156</ele>
      </trkpt>
      <trkpt lat="43.64221" lon="3.74545">
        <ele>156</ele>
      </trkpt>
      <trkpt lat="43.64223" lon="3.74548">
        <ele>156</ele>
      </trkpt>
      <trkpt lat="43.64225" lon="3.74551">
        <ele>156</ele>
      </trkpt>
      <trkpt lat="43.64228" lon="3.74555">
        <ele>156</ele>
      </trkpt>
      <trkpt lat="43.64231" lon="3.74557">
        <ele>156</ele>
      </trkpt>
      <trkpt lat="43.64233" lon="3.7456">
        <ele>156</ele>
      </trkpt>
      <trkpt lat="43.64236" lon="3.74563">
        <ele>156</ele>
      </trkpt>
      <trkpt lat="43.64238" lon="3.74568">
        <ele>156</ele>
      </trkpt>
      <trkpt lat="43.64239" lon="3.74572">
        <ele>156</ele>
      </trkpt>
      <trkpt lat="43.64241" lon="3.74576">
        <ele>156</ele>
      </trkpt>
      <trkpt lat="43.64243" lon="3.7458">
        <ele>156</ele>
      </trkpt>
      <trkpt lat="43.64245" lon="3.74584">
        <ele>156</ele>
      </trkpt>
      <trkpt lat="43.64247" lon="3.74588">
        <ele>156</ele>
      </trkpt>
      <trkpt lat="43.64248" lon="3.74593">
        <ele>156</ele>
      </trkpt>
      <trkpt lat="43.6425" lon="3.74597">
        <ele>156</ele>
      </trkpt>
      <trkpt lat="43.64252" lon="3.74602">
        <ele>156</ele>
      </trkpt>
      <trkpt lat="43.64254" lon="3.74606">
        <ele>156</ele>
      </trkpt>
      <trkpt lat="43.64256" lon="3.74611">
        <ele>156</ele>
      </trkpt>
      <trkpt lat="43.64257" lon="3.74615">
        <ele>156</ele>
      </trkpt>
      <trkpt lat="43.64259" lon="3.7462">
        <ele>156</ele>
      </trkpt>
      <trkpt lat="43.64261" lon="3.74625">
        <ele>156</ele>
      </trkpt>
      <trkpt lat="43.64263" lon="3.74631">
        <ele>156</ele>
      </trkpt>
      <trkpt lat="43.64265" lon="3.74636">
        <ele>156</ele>
      </trkpt>
      <trkpt lat="43.64267" lon="3.7464">
        <ele>156</ele>
      </trkpt>
      <trkpt lat="43.64269" lon="3.74645">
        <ele>156</ele>
      </trkpt>
      <trkpt lat="43.64271" lon="3.74649">
        <ele>156</ele>
      </trkpt>
      <trkpt lat="43.64273" lon="3.74654">
        <ele>156</ele>
      </trkpt>
      <trkpt lat="43.64274" lon="3.74659">
        <ele>156</ele>
      </trkpt>
      <trkpt lat="43.64276" lon="3.74664">
        <ele>156</ele>
      </trkpt>
      <trkpt lat="43.64278" lon="3.74668">
        <ele>156</ele>
      </trkpt>
      <trkpt lat="43.64279" lon="3.74674">
        <ele>156</ele>
      </trkpt>
      <trkpt lat="43.64281" lon="3.74678">
        <ele>156</ele>
      </trkpt>
      <trkpt lat="43.64284" lon="3.74683">
        <ele>156</ele>
      </trkpt>
      <trkpt lat="43.64285" lon="3.74687">
        <ele>156</ele>
      </trkpt>
      <trkpt lat="43.64287" lon="3.74692">
        <ele>156</ele>
      </trkpt>
      <trkpt lat="43.64289" lon="3.74697">
        <ele>156</ele>
      </trkpt>
      <trkpt lat="43.64291" lon="3.74702">
        <ele>156</ele>
      </trkpt>
      <trkpt lat="43.64292" lon="3.74706">
        <ele>156</ele>
      </trkpt>
      <trkpt lat="43.64293" lon="3.74711">
        <ele>156</ele>
      </trkpt>
      <trkpt lat="43.64295" lon="3.74715">
        <ele>156</ele>
      </trkpt>
      <trkpt lat="43.64296" lon="3.7472">
        <ele>156</ele>
      </trkpt>
      <trkpt lat="43.64298" lon="3.74723">
        <ele>156</ele>
      </trkpt>
      <trkpt lat="43.643" lon="3.74727">
        <ele>156</ele>
      </trkpt>
      <trkpt lat="43.64302" lon="3.74731">
        <ele>156</ele>
      </trkpt>
      <trkpt lat="43.64303" lon="3.74735">
        <ele>156</ele>
      </trkpt>
      <trkpt lat="43.64305" lon="3.74739">
        <ele>156</ele>
      </trkpt>
      <trkpt lat="43.64306" lon="3.74743">
        <ele>156</ele>
      </trkpt>
      <trkpt lat="43.64308" lon="3.74746">
        <ele>156</ele>
      </trkpt>
      <trkpt lat="43.64309" lon="3.7475">
        <ele>156</ele>
      </trkpt>
      <trkpt lat="43.64311" lon="3.74754">
        <ele>156</ele>
      </trkpt>
      <trkpt lat="43.64312" lon="3.74757">
        <ele>156</ele>
      </trkpt>
      <trkpt lat="43.64314" lon="3.74761">
        <ele>157</ele>
      </trkpt>
      <trkpt lat="43.64315" lon="3.74765">
        <ele>157</ele>
      </trkpt>
      <trkpt lat="43.64317" lon="3.74768">
        <ele>157</ele>
      </trkpt>
      <trkpt lat="43.64318" lon="3.74772">
        <ele>157</ele>
      </trkpt>
      <trkpt lat="43.64319" lon="3.74775">
        <ele>157</ele>
      </trkpt>
      <trkpt lat="43.64321" lon="3.74778">
        <ele>157</ele>
      </trkpt>
      <trkpt lat="43.64322" lon="3.74782">
        <ele>157</ele>
      </trkpt>
      <trkpt lat="43.64323" lon="3.74785">
        <ele>157</ele>
      </trkpt>
      <trkpt lat="43.64324" lon="3.74788">
        <ele>157</ele>
      </trkpt>
      <trkpt lat="43.64325" lon="3.74791">
        <ele>157</ele>
      </trkpt>
      <trkpt lat="43.64327" lon="3.74794">
        <ele>158</ele>
      </trkpt>
      <trkpt lat="43.64329" lon="3.74798">
        <ele>158</ele>
      </trkpt>
      <trkpt lat="43.6433" lon="3.74801">
        <ele>158</ele>
      </trkpt>
      <trkpt lat="43.6433" lon="3.74804">
        <ele>158</ele>
      </trkpt>
      <trkpt lat="43.64332" lon="3.74807">
        <ele>158</ele>
      </trkpt>
      <trkpt lat="43.64333" lon="3.7481">
        <ele>158</ele>
      </trkpt>
      <trkpt lat="43.64334" lon="3.74813">
        <ele>158</ele>
      </trkpt>
      <trkpt lat="43.64335" lon="3.74816">
        <ele>158</ele>
      </trkpt>
      <trkpt lat="43.64337" lon="3.74819">
        <ele>158</ele>
      </trkpt>
      <trkpt lat="43.64338" lon="3.74821">
        <ele>158</ele>
      </trkpt>
      <trkpt lat="43.64338" lon="3.74825">
        <ele>159</ele>
      </trkpt>
      <trkpt lat="43.64339" lon="3.74828">
        <ele>159</ele>
      </trkpt>
      <trkpt lat="43.6434" lon="3.74831">
        <ele>159</ele>
      </trkpt>
      <trkpt lat="43.64342" lon="3.74834">
        <ele>159</ele>
      </trkpt>
      <trkpt lat="43.64342" lon="3.74836">
        <ele>159</ele>
      </trkpt>
      <trkpt lat="43.64343" lon="3.7484">
        <ele>159</ele>
      </trkpt>
      <trkpt lat="43.64345" lon="3.74842">
        <ele>159</ele>
      </trkpt>
      <trkpt lat="43.64346" lon="3.74845">
        <ele>159</ele>
      </trkpt>
      <trkpt lat="43.64347" lon="3.74848">
        <ele>159</ele>
      </trkpt>
      <trkpt lat="43.64348" lon="3.74851">
        <ele>159</ele>
      </trkpt>
      <trkpt lat="43.6435" lon="3.74854">
        <ele>160</ele>
      </trkpt>
      <trkpt lat="43.64351" lon="3.74857">
        <ele>160</ele>
      </trkpt>
      <trkpt lat="43.64353" lon="3.74861">
        <ele>160</ele>
      </trkpt>
      <trkpt lat="43.64354" lon="3.74864">
        <ele>160</ele>
      </trkpt>
      <trkpt lat="43.64355" lon="3.74868">
        <ele>160</ele>
      </trkpt>
      <trkpt lat="43.64356" lon="3.74872">
        <ele>160</ele>
      </trkpt>
      <trkpt lat="43.64358" lon="3.74875">
        <ele>160</ele>
      </trkpt>
      <trkpt lat="43.64359" lon="3.74879">
        <ele>160</ele>
      </trkpt>
      <trkpt lat="43.64361" lon="3.74883">
        <ele>160</ele>
      </trkpt>
      <trkpt lat="43.64362" lon="3.74887">
        <ele>160</ele>
      </trkpt>
      <trkpt lat="43.64364" lon="3.74891">
        <ele>160</ele>
      </trkpt>
      <trkpt lat="43.64365" lon="3.74895">
        <ele>160</ele>
      </trkpt>
      <trkpt lat="43.64367" lon="3.74899">
        <ele>160</ele>
      </trkpt>
      <trkpt lat="43.64368" lon="3.74902">
        <ele>160</ele>
      </trkpt>
      <trkpt lat="43.64371" lon="3.74907">
        <ele>160</ele>
      </trkpt>
      <trkpt lat="43.64373" lon="3.74911">
        <ele>160</ele>
      </trkpt>
      <trkpt lat="43.64374" lon="3.74916">
        <ele>160</ele>
      </trkpt>
      <trkpt lat="43.64376" lon="3.7492">
        <ele>160</ele>
      </trkpt>
      <trkpt lat="43.64378" lon="3.74925">
        <ele>160</ele>
      </trkpt>
      <trkpt lat="43.6438" lon="3.7493">
        <ele>160</ele>
      </trkpt>
      <trkpt lat="43.64383" lon="3.74936">
        <ele>160</ele>
      </trkpt>
      <trkpt lat="43.64385" lon="3.74941">
        <ele>160</ele>
      </trkpt>
      <trkpt lat="43.64387" lon="3.74947">
        <ele>160</ele>
      </trkpt>
      <trkpt lat="43.6439" lon="3.74953">
        <ele>160</ele>
      </trkpt>
      <trkpt lat="43.64392" lon="3.74959">
        <ele>160</ele>
      </trkpt>
      <trkpt lat="43.64394" lon="3.74964">
        <ele>160</ele>
      </trkpt>
      <trkpt lat="43.64398" lon="3.7497">
        <ele>160</ele>
      </trkpt>
      <trkpt lat="43.64401" lon="3.74976">
        <ele>160</ele>
      </trkpt>
      <trkpt lat="43.64405" lon="3.74981">
        <ele>160</ele>
      </trkpt>
      <trkpt lat="43.64408" lon="3.74987">
        <ele>160</ele>
      </trkpt>
      <trkpt lat="43.6441" lon="3.74992">
        <ele>159</ele>
      </trkpt>
      <trkpt lat="43.64414" lon="3.74998">
        <ele>159</ele>
      </trkpt>
      <trkpt lat="43.64417" lon="3.75003">
        <ele>159</ele>
      </trkpt>
      <trkpt lat="43.6442" lon="3.75008">
        <ele>159</ele>
      </trkpt>
      <trkpt lat="43.64423" lon="3.75014">
        <ele>159</ele>
      </trkpt>
      <trkpt lat="43.64427" lon="3.75018">
        <ele>159</ele>
      </trkpt>
      <trkpt lat="43.6443" lon="3.75022">
        <ele>159</ele>
      </trkpt>
      <trkpt lat="43.64433" lon="3.75026">
        <ele>159</ele>
      </trkpt>
      <trkpt lat="43.64436" lon="3.75031">
        <ele>159</ele>
      </trkpt>
      <trkpt lat="43.64439" lon="3.75035">
        <ele>159</ele>
      </trkpt>
      <trkpt lat="43.64443" lon="3.75038">
        <ele>158</ele>
      </trkpt>
      <trkpt lat="43.64445" lon="3.75042">
        <ele>158</ele>
      </trkpt>
      <trkpt lat="43.64448" lon="3.75046">
        <ele>158</ele>
      </trkpt>
      <trkpt lat="43.64451" lon="3.7505">
        <ele>158</ele>
      </trkpt>
      <trkpt lat="43.64454" lon="3.75053">
        <ele>158</ele>
      </trkpt>
      <trkpt lat="43.64457" lon="3.75057">
        <ele>158</ele>
      </trkpt>
      <trkpt lat="43.6446" lon="3.7506">
        <ele>158</ele>
      </trkpt>
      <trkpt lat="43.64463" lon="3.75064">
        <ele>158</ele>
      </trkpt>
      <trkpt lat="43.64465" lon="3.75068">
        <ele>158</ele>
      </trkpt>
      <trkpt lat="43.64468" lon="3.75071">
        <ele>158</ele>
      </trkpt>
      <trkpt lat="43.64471" lon="3.75075">
        <ele>158</ele>
      </trkpt>
      <trkpt lat="43.64473" lon="3.75078">
        <ele>158</ele>
      </trkpt>
      <trkpt lat="43.64475" lon="3.75079">
        <ele>158</ele>
      </trkpt>
      <trkpt lat="43.64477" lon="3.7508">
        <ele>158</ele>
      </trkpt>
      <trkpt lat="43.64478" lon="3.75082">
        <ele>158</ele>
      </trkpt>
      <trkpt lat="43.6448" lon="3.75084">
        <ele>158</ele>
      </trkpt>
      <trkpt lat="43.64482" lon="3.75086">
        <ele>158</ele>
      </trkpt>
      <trkpt lat="43.64486" lon="3.75087">
        <ele>158</ele>
      </trkpt>
      <trkpt lat="43.64489" lon="3.75088">
        <ele>158</ele>
      </trkpt>
      <trkpt lat="43.64492" lon="3.75088">
        <ele>158</ele>
      </trkpt>
      <trkpt lat="43.64495" lon="3.75088">
        <ele>157</ele>
      </trkpt>
      <trkpt lat="43.64498" lon="3.75089">
        <ele>157</ele>
      </trkpt>
      <trkpt lat="43.64501" lon="3.75092">
        <ele>157</ele>
      </trkpt>
      <trkpt lat="43.64503" lon="3.75097">
        <ele>157</ele>
      </trkpt>
      <trkpt lat="43.64504" lon="3.75102">
        <ele>157</ele>
      </trkpt>
      <trkpt lat="43.64505" lon="3.75108">
        <ele>157</ele>
      </trkpt>
      <trkpt lat="43.64506" lon="3.75114">
        <ele>157</ele>
      </trkpt>
      <trkpt lat="43.64506" lon="3.7512">
        <ele>157</ele>
      </trkpt>
      <trkpt lat="43.64506" lon="3.75127">
        <ele>157</ele>
      </trkpt>
      <trkpt lat="43.64508" lon="3.75132">
        <ele>157</ele>
      </trkpt>
      <trkpt lat="43.64511" lon="3.75136">
        <ele>155</ele>
      </trkpt>
      <trkpt lat="43.64514" lon="3.75139">
        <ele>155</ele>
      </trkpt>
      <trkpt lat="43.64517" lon="3.75141">
        <ele>155</ele>
      </trkpt>
      <trkpt lat="43.6452" lon="3.75142">
        <ele>155</ele>
      </trkpt>
      <trkpt lat="43.64524" lon="3.75144">
        <ele>155</ele>
      </trkpt>
      <trkpt lat="43.64528" lon="3.75147">
        <ele>155</ele>
      </trkpt>
      <trkpt lat="43.64531" lon="3.75151">
        <ele>155</ele>
      </trkpt>
      <trkpt lat="43.64535" lon="3.75155">
        <ele>155</ele>
      </trkpt>
      <trkpt lat="43.64538" lon="3.75159">
        <ele>155</ele>
      </trkpt>
      <trkpt lat="43.64542" lon="3.75162">
        <ele>155</ele>
      </trkpt>
      <trkpt lat="43.64545" lon="3.75167">
        <ele>154</ele>
      </trkpt>
      <trkpt lat="43.64548" lon="3.7517">
        <ele>154</ele>
      </trkpt>
      <trkpt lat="43.64551" lon="3.75175">
        <ele>154</ele>
      </trkpt>
      <trkpt lat="43.64555" lon="3.75179">
        <ele>154</ele>
      </trkpt>
      <trkpt lat="43.64558" lon="3.75184">
        <ele>154</ele>
      </trkpt>
      <trkpt lat="43.64561" lon="3.75188">
        <ele>154</ele>
      </trkpt>
      <trkpt lat="43.64564" lon="3.75192">
        <ele>154</ele>
      </trkpt>
      <trkpt lat="43.64567" lon="3.75196">
        <ele>154</ele>
      </trkpt>
      <trkpt lat="43.6457" lon="3.75201">
        <ele>154</ele>
      </trkpt>
      <trkpt lat="43.64572" lon="3.75206">
        <ele>154</ele>
      </trkpt>
      <trkpt lat="43.64575" lon="3.75211">
        <ele>154</ele>
      </trkpt>
      <trkpt lat="43.64577" lon="3.75214">
        <ele>154</ele>
      </trkpt>
      <trkpt lat="43.64579" lon="3.75217">
        <ele>154</ele>
      </trkpt>
      <trkpt lat="43.64581" lon="3.75221">
        <ele>154</ele>
      </trkpt>
      <trkpt lat="43.64583" lon="3.75223">
        <ele>154</ele>
      </trkpt>
      <trkpt lat="43.64586" lon="3.75226">
        <ele>154</ele>
      </trkpt>
      <trkpt lat="43.64588" lon="3.75229">
        <ele>154</ele>
      </trkpt>
      <trkpt lat="43.6459" lon="3.75232">
        <ele>154</ele>
      </trkpt>
      <trkpt lat="43.64593" lon="3.75235">
        <ele>154</ele>
      </trkpt>
      <trkpt lat="43.64596" lon="3.75238">
        <ele>154</ele>
      </trkpt>
      <trkpt lat="43.64599" lon="3.75242">
        <ele>153</ele>
      </trkpt>
      <trkpt lat="43.64602" lon="3.75246">
        <ele>153</ele>
      </trkpt>
      <trkpt lat="43.64606" lon="3.7525">
        <ele>153</ele>
      </trkpt>
      <trkpt lat="43.6461" lon="3.75255">
        <ele>153</ele>
      </trkpt>
      <trkpt lat="43.64614" lon="3.7526">
        <ele>153</ele>
      </trkpt>
      <trkpt lat="43.64617" lon="3.75265">
        <ele>153</ele>
      </trkpt>
      <trkpt lat="43.64622" lon="3.7527">
        <ele>153</ele>
      </trkpt>
      <trkpt lat="43.64626" lon="3.75275">
        <ele>153</ele>
      </trkpt>
      <trkpt lat="43.6463" lon="3.7528">
        <ele>153</ele>
      </trkpt>
      <trkpt lat="43.64634" lon="3.75285">
        <ele>153</ele>
      </trkpt>
      <trkpt lat="43.64638" lon="3.7529">
        <ele>150</ele>
      </trkpt>
      <trkpt lat="43.64643" lon="3.75296">
        <ele>150</ele>
      </trkpt>
      <trkpt lat="43.64647" lon="3.75301">
        <ele>150</ele>
      </trkpt>
      <trkpt lat="43.64651" lon="3.75305">
        <ele>150</ele>
      </trkpt>
      <trkpt lat="43.64656" lon="3.7531">
        <ele>150</ele>
      </trkpt>
      <trkpt lat="43.6466" lon="3.75315">
        <ele>150</ele>
      </trkpt>
      <trkpt lat="43.64664" lon="3.7532">
        <ele>150</ele>
      </trkpt>
      <trkpt lat="43.64668" lon="3.75324">
        <ele>150</ele>
      </trkpt>
      <trkpt lat="43.64672" lon="3.7533">
        <ele>150</ele>
      </trkpt>
      <trkpt lat="43.64677" lon="3.75336">
        <ele>150</ele>
      </trkpt>
      <trkpt lat="43.64682" lon="3.75341">
        <ele>148</ele>
      </trkpt>
      <trkpt lat="43.64686" lon="3.75346">
        <ele>148</ele>
      </trkpt>
      <trkpt lat="43.6469" lon="3.7535">
        <ele>148</ele>
      </trkpt>
      <trkpt lat="43.64693" lon="3.75352">
        <ele>148</ele>
      </trkpt>
      <trkpt lat="43.64694" lon="3.75353">
        <ele>148</ele>
      </trkpt>
      <trkpt lat="43.64697" lon="3.75355">
        <ele>148</ele>
      </trkpt>
      <trkpt lat="43.64698" lon="3.75357">
        <ele>148</ele>
      </trkpt>
      <trkpt lat="43.647" lon="3.75358">
        <ele>148</ele>
      </trkpt>
      <trkpt lat="43.64701" lon="3.7536">
        <ele>148</ele>
      </trkpt>
      <trkpt lat="43.64703" lon="3.75362">
        <ele>148</ele>
      </trkpt>
      <trkpt lat="43.64705" lon="3.75363">
        <ele>147</ele>
      </trkpt>
      <trkpt lat="43.64706" lon="3.75365">
        <ele>147</ele>
      </trkpt>
      <trkpt lat="43.64708" lon="3.75367">
        <ele>147</ele>
      </trkpt>
      <trkpt lat="43.6471" lon="3.75369">
        <ele>147</ele>
      </trkpt>
      <trkpt lat="43.6471" lon="3.75371">
        <ele>147</ele>
      </trkpt>
      <trkpt lat="43.64712" lon="3.75373">
        <ele>147</ele>
      </trkpt>
      <trkpt lat="43.64714" lon="3.75375">
        <ele>147</ele>
      </trkpt>
      <trkpt lat="43.64716" lon="3.75378">
        <ele>147</ele>
      </trkpt>
      <trkpt lat="43.64718" lon="3.7538">
        <ele>147</ele>
      </trkpt>
      <trkpt lat="43.6472" lon="3.75382">
        <ele>146</ele>
      </trkpt>
      <trkpt lat="43.64721" lon="3.75384">
        <ele>146</ele>
      </trkpt>
      <trkpt lat="43.64723" lon="3.75386">
        <ele>146</ele>
      </trkpt>
      <trkpt lat="43.64725" lon="3.75389">
        <ele>146</ele>
      </trkpt>
      <trkpt lat="43.64727" lon="3.75392">
        <ele>146</ele>
      </trkpt>
      <trkpt lat="43.6473" lon="3.75394">
        <ele>146</ele>
      </trkpt>
      <trkpt lat="43.64732" lon="3.75397">
        <ele>146</ele>
      </trkpt>
      <trkpt lat="43.64735" lon="3.75401">
        <ele>146</ele>
      </trkpt>
      <trkpt lat="43.64738" lon="3.75404">
        <ele>146</ele>
      </trkpt>
      <trkpt lat="43.64741" lon="3.75409">
        <ele>146</ele>
      </trkpt>
      <trkpt lat="43.64743" lon="3.75415">
        <ele>144</ele>
      </trkpt>
      <trkpt lat="43.64745" lon="3.75422">
        <ele>144</ele>
      </trkpt>
      <trkpt lat="43.64745" lon="3.7543">
        <ele>144</ele>
      </trkpt>
      <trkpt lat="43.64746" lon="3.75437">
        <ele>144</ele>
      </trkpt>
      <trkpt lat="43.64748" lon="3.75443">
        <ele>144</ele>
      </trkpt>
      <trkpt lat="43.64751" lon="3.75447">
        <ele>144</ele>
      </trkpt>
      <trkpt lat="43.64755" lon="3.75451">
        <ele>144</ele>
      </trkpt>
      <trkpt lat="43.6476" lon="3.75453">
        <ele>144</ele>
      </trkpt>
      <trkpt lat="43.64765" lon="3.75456">
        <ele>144</ele>
      </trkpt>
      <trkpt lat="43.64768" lon="3.75459">
        <ele>144</ele>
      </trkpt>
      <trkpt lat="43.64772" lon="3.75462">
        <ele>142</ele>
      </trkpt>
      <trkpt lat="43.64775" lon="3.75464">
        <ele>142</ele>
      </trkpt>
      <trkpt lat="43.64777" lon="3.75466">
        <ele>142</ele>
      </trkpt>
      <trkpt lat="43.6478" lon="3.75468">
        <ele>142</ele>
      </trkpt>
      <trkpt lat="43.64783" lon="3.7547">
        <ele>142</ele>
      </trkpt>
      <trkpt lat="43.64784" lon="3.75472">
        <ele>142</ele>
      </trkpt>
      <trkpt lat="43.64786" lon="3.75475">
        <ele>142</ele>
      </trkpt>
      <trkpt lat="43.64789" lon="3.75477">
        <ele>142</ele>
      </trkpt>
      <trkpt lat="43.6479" lon="3.75479">
        <ele>142</ele>
      </trkpt>
      <trkpt lat="43.64793" lon="3.75482">
        <ele>142</ele>
      </trkpt>
      <trkpt lat="43.64795" lon="3.75484">
        <ele>141</ele>
      </trkpt>
      <trkpt lat="43.64797" lon="3.75487">
        <ele>141</ele>
      </trkpt>
      <trkpt lat="43.64799" lon="3.75489">
        <ele>141</ele>
      </trkpt>
      <trkpt lat="43.648" lon="3.75492">
        <ele>141</ele>
      </trkpt>
      <trkpt lat="43.64802" lon="3.75494">
        <ele>141</ele>
      </trkpt>
      <trkpt lat="43.64805" lon="3.75497">
        <ele>141</ele>
      </trkpt>
      <trkpt lat="43.64807" lon="3.755">
        <ele>141</ele>
      </trkpt>
      <trkpt lat="43.64809" lon="3.75503">
        <ele>141</ele>
      </trkpt>
      <trkpt lat="43.64812" lon="3.75506">
        <ele>141</ele>
      </trkpt>
      <trkpt lat="43.64814" lon="3.75509">
        <ele>141</ele>
      </trkpt>
      <trkpt lat="43.64817" lon="3.75512">
        <ele>141</ele>
      </trkpt>
      <trkpt lat="43.64819" lon="3.75515">
        <ele>141</ele>
      </trkpt>
      <trkpt lat="43.6482" lon="3.75517">
        <ele>141</ele>
      </trkpt>
      <trkpt lat="43.64822" lon="3.75519">
        <ele>141</ele>
      </trkpt>
      <trkpt lat="43.64824" lon="3.75523">
        <ele>141</ele>
      </trkpt>
      <trkpt lat="43.64824" lon="3.75528">
        <ele>141</ele>
      </trkpt>
      <trkpt lat="43.64825" lon="3.75531">
        <ele>141</ele>
      </trkpt>
      <trkpt lat="43.64824" lon="3.75535">
        <ele>141</ele>
      </trkpt>
      <trkpt lat="43.64825" lon="3.75538">
        <ele>141</ele>
      </trkpt>
      <trkpt lat="43.64827" lon="3.75541">
        <ele>141</ele>
      </trkpt>
      <trkpt lat="43.64829" lon="3.75543">
        <ele>141</ele>
      </trkpt>
      <trkpt lat="43.6483" lon="3.75546">
        <ele>141</ele>
      </trkpt>
      <trkpt lat="43.64831" lon="3.75548">
        <ele>141</ele>
      </trkpt>
      <trkpt lat="43.64834" lon="3.75551">
        <ele>140</ele>
      </trkpt>
      <trkpt lat="43.64835" lon="3.75553">
        <ele>140</ele>
      </trkpt>
      <trkpt lat="43.64838" lon="3.75556">
        <ele>140</ele>
      </trkpt>
      <trkpt lat="43.6484" lon="3.75559">
        <ele>140</ele>
      </trkpt>
      <trkpt lat="43.64843" lon="3.75563">
        <ele>140</ele>
      </trkpt>
      <trkpt lat="43.64845" lon="3.75567">
        <ele>140</ele>
      </trkpt>
      <trkpt lat="43.64848" lon="3.75571">
        <ele>140</ele>
      </trkpt>
      <trkpt lat="43.64851" lon="3.75574">
        <ele>140</ele>
      </trkpt>
      <trkpt lat="43.64853" lon="3.75577">
        <ele>140</ele>
      </trkpt>
      <trkpt lat="43.64855" lon="3.75581">
        <ele>140</ele>
      </trkpt>
      <trkpt lat="43.64858" lon="3.75584">
        <ele>139</ele>
      </trkpt>
      <trkpt lat="43.64861" lon="3.75588">
        <ele>139</ele>
      </trkpt>
      <trkpt lat="43.64864" lon="3.75592">
        <ele>139</ele>
      </trkpt>
      <trkpt lat="43.64867" lon="3.75596">
        <ele>139</ele>
      </trkpt>
      <trkpt lat="43.6487" lon="3.756">
        <ele>139</ele>
      </trkpt>
      <trkpt lat="43.64873" lon="3.75605">
        <ele>139</ele>
      </trkpt>
      <trkpt lat="43.64875" lon="3.7561">
        <ele>139</ele>
      </trkpt>
      <trkpt lat="43.64877" lon="3.75615">
        <ele>139</ele>
      </trkpt>
      <trkpt lat="43.64879" lon="3.75619">
        <ele>139</ele>
      </trkpt>
      <trkpt lat="43.64882" lon="3.75624">
        <ele>139</ele>
      </trkpt>
      <trkpt lat="43.64886" lon="3.75627">
        <ele>137</ele>
      </trkpt>
      <trkpt lat="43.6489" lon="3.7563">
        <ele>137</ele>
      </trkpt>
      <trkpt lat="43.64893" lon="3.75635">
        <ele>137</ele>
      </trkpt>
      <trkpt lat="43.64896" lon="3.75641">
        <ele>137</ele>
      </trkpt>
      <trkpt lat="43.64898" lon="3.75646">
        <ele>137</ele>
      </trkpt>
      <trkpt lat="43.649" lon="3.75653">
        <ele>137</ele>
      </trkpt>
      <trkpt lat="43.64903" lon="3.7566">
        <ele>137</ele>
      </trkpt>
      <trkpt lat="43.64906" lon="3.75665">
        <ele>137</ele>
      </trkpt>
      <trkpt lat="43.64909" lon="3.75669">
        <ele>137</ele>
      </trkpt>
      <trkpt lat="43.64912" lon="3.75672">
        <ele>137</ele>
      </trkpt>
      <trkpt lat="43.64914" lon="3.75675">
        <ele>134</ele>
      </trkpt>
      <trkpt lat="43.64917" lon="3.75677">
        <ele>134</ele>
      </trkpt>
      <trkpt lat="43.6492" lon="3.75679">
        <ele>134</ele>
      </trkpt>
      <trkpt lat="43.64923" lon="3.7568">
        <ele>134</ele>
      </trkpt>
      <trkpt lat="43.64926" lon="3.75681">
        <ele>134</ele>
      </trkpt>
      <trkpt lat="43.6493" lon="3.75684">
        <ele>134</ele>
      </trkpt>
      <trkpt lat="43.64933" lon="3.75688">
        <ele>134</ele>
      </trkpt>
      <trkpt lat="43.64936" lon="3.7569">
        <ele>134</ele>
      </trkpt>
      <trkpt lat="43.64939" lon="3.75692">
        <ele>134</ele>
      </trkpt>
      <trkpt lat="43.64942" lon="3.75694">
        <ele>134</ele>
      </trkpt>
      <trkpt lat="43.64945" lon="3.75697">
        <ele>131</ele>
      </trkpt>
      <trkpt lat="43.64948" lon="3.75699">
        <ele>131</ele>
      </trkpt>
      <trkpt lat="43.64952" lon="3.75701">
        <ele>131</ele>
      </trkpt>
      <trkpt lat="43.64955" lon="3.75706">
        <ele>131</ele>
      </trkpt>
      <trkpt lat="43.64958" lon="3.7571">
        <ele>131</ele>
      </trkpt>
      <trkpt lat="43.64962" lon="3.75715">
        <ele>131</ele>
      </trkpt>
      <trkpt lat="43.64964" lon="3.75718">
        <ele>131</ele>
      </trkpt>
      <trkpt lat="43.64967" lon="3.75721">
        <ele>131</ele>
      </trkpt>
      <trkpt lat="43.64969" lon="3.75724">
        <ele>131</ele>
      </trkpt>
      <trkpt lat="43.64972" lon="3.75726">
        <ele>131</ele>
      </trkpt>
      <trkpt lat="43.64974" lon="3.75729">
        <ele>127</ele>
      </trkpt>
      <trkpt lat="43.64977" lon="3.75731">
        <ele>127</ele>
      </trkpt>
      <trkpt lat="43.6498" lon="3.75734">
        <ele>127</ele>
      </trkpt>
      <trkpt lat="43.64983" lon="3.75737">
        <ele>127</ele>
      </trkpt>
      <trkpt lat="43.64987" lon="3.7574">
        <ele>127</ele>
      </trkpt>
      <trkpt lat="43.64991" lon="3.75743">
        <ele>127</ele>
      </trkpt>
      <trkpt lat="43.64996" lon="3.75747">
        <ele>127</ele>
      </trkpt>
      <trkpt lat="43.65001" lon="3.75751">
        <ele>127</ele>
      </trkpt>
      <trkpt lat="43.65006" lon="3.75755">
        <ele>127</ele>
      </trkpt>
      <trkpt lat="43.65012" lon="3.7576">
        <ele>127</ele>
      </trkpt>
      <trkpt lat="43.65017" lon="3.75764">
        <ele>123</ele>
      </trkpt>
      <trkpt lat="43.65022" lon="3.75768">
        <ele>123</ele>
      </trkpt>
      <trkpt lat="43.65027" lon="3.75771">
        <ele>123</ele>
      </trkpt>
      <trkpt lat="43.65031" lon="3.75773">
        <ele>123</ele>
      </trkpt>
      <trkpt lat="43.65035" lon="3.75775">
        <ele>123</ele>
      </trkpt>
      <trkpt lat="43.65039" lon="3.75778">
        <ele>123</ele>
      </trkpt>
      <trkpt lat="43.65042" lon="3.75781">
        <ele>123</ele>
      </trkpt>
      <trkpt lat="43.65045" lon="3.75785">
        <ele>123</ele>
      </trkpt>
      <trkpt lat="43.65048" lon="3.75787">
        <ele>123</ele>
      </trkpt>
      <trkpt lat="43.65051" lon="3.75789">
        <ele>123</ele>
      </trkpt>
      <trkpt lat="43.65054" lon="3.75791">
        <ele>120</ele>
      </trkpt>
      <trkpt lat="43.65056" lon="3.75794">
        <ele>120</ele>
      </trkpt>
      <trkpt lat="43.65057" lon="3.75796">
        <ele>120</ele>
      </trkpt>
      <trkpt lat="43.6506" lon="3.75798">
        <ele>120</ele>
      </trkpt>
      <trkpt lat="43.65063" lon="3.75801">
        <ele>120</ele>
      </trkpt>
      <trkpt lat="43.65067" lon="3.75803">
        <ele>120</ele>
      </trkpt>
      <trkpt lat="43.65072" lon="3.75806">
        <ele>120</ele>
      </trkpt>
      <trkpt lat="43.65076" lon="3.7581">
        <ele>120</ele>
      </trkpt>
      <trkpt lat="43.65082" lon="3.75814">
        <ele>120</ele>
      </trkpt>
      <trkpt lat="43.65088" lon="3.7582">
        <ele>120</ele>
      </trkpt>
      <trkpt lat="43.65092" lon="3.75826">
        <ele>115</ele>
      </trkpt>
      <trkpt lat="43.65096" lon="3.75834">
        <ele>115</ele>
      </trkpt>
      <trkpt lat="43.651" lon="3.75842">
        <ele>115</ele>
      </trkpt>
      <trkpt lat="43.65104" lon="3.75849">
        <ele>115</ele>
      </trkpt>
      <trkpt lat="43.65107" lon="3.75856">
        <ele>115</ele>
      </trkpt>
      <trkpt lat="43.65111" lon="3.75862">
        <ele>115</ele>
      </trkpt>
      <trkpt lat="43.65116" lon="3.75867">
        <ele>115</ele>
      </trkpt>
      <trkpt lat="43.6512" lon="3.75872">
        <ele>115</ele>
      </trkpt>
      <trkpt lat="43.65123" lon="3.75874">
        <ele>115</ele>
      </trkpt>
      <trkpt lat="43.65126" lon="3.75876">
        <ele>115</ele>
      </trkpt>
      <trkpt lat="43.65129" lon="3.75877">
        <ele>112</ele>
      </trkpt>
      <trkpt lat="43.65132" lon="3.75877">
        <ele>112</ele>
      </trkpt>
      <trkpt lat="43.65135" lon="3.75877">
        <ele>112</ele>
      </trkpt>
      <trkpt lat="43.65139" lon="3.75876">
        <ele>112</ele>
      </trkpt>
      <trkpt lat="43.65143" lon="3.75875">
        <ele>112</ele>
      </trkpt>
      <trkpt lat="43.65148" lon="3.75875">
        <ele>112</ele>
      </trkpt>
      <trkpt lat="43.65152" lon="3.75876">
        <ele>112</ele>
      </trkpt>
      <trkpt lat="43.65157" lon="3.75877">
        <ele>112</ele>
      </trkpt>
      <trkpt lat="43.65161" lon="3.75879">
        <ele>112</ele>
      </trkpt>
      <trkpt lat="43.65165" lon="3.75881">
        <ele>112</ele>
      </trkpt>
      <trkpt lat="43.65168" lon="3.75882">
        <ele>111</ele>
      </trkpt>
      <trkpt lat="43.65171" lon="3.75883">
        <ele>111</ele>
      </trkpt>
      <trkpt lat="43.65174" lon="3.75885">
        <ele>111</ele>
      </trkpt>
      <trkpt lat="43.65177" lon="3.75886">
        <ele>111</ele>
      </trkpt>
      <trkpt lat="43.65181" lon="3.75887">
        <ele>111</ele>
      </trkpt>
      <trkpt lat="43.65185" lon="3.75888">
        <ele>111</ele>
      </trkpt>
      <trkpt lat="43.65188" lon="3.7589">
        <ele>111</ele>
      </trkpt>
      <trkpt lat="43.65192" lon="3.75892">
        <ele>111</ele>
      </trkpt>
      <trkpt lat="43.65196" lon="3.75894">
        <ele>111</ele>
      </trkpt>
      <trkpt lat="43.65199" lon="3.75896">
        <ele>111</ele>
      </trkpt>
      <trkpt lat="43.65203" lon="3.759">
        <ele>110</ele>
      </trkpt>
      <trkpt lat="43.65207" lon="3.75904">
        <ele>110</ele>
      </trkpt>
      <trkpt lat="43.6521" lon="3.75908">
        <ele>110</ele>
      </trkpt>
      <trkpt lat="43.65213" lon="3.75912">
        <ele>110</ele>
      </trkpt>
      <trkpt lat="43.65217" lon="3.75916">
        <ele>110</ele>
      </trkpt>
      <trkpt lat="43.6522" lon="3.75921">
        <ele>110</ele>
      </trkpt>
      <trkpt lat="43.65223" lon="3.75925">
        <ele>110</ele>
      </trkpt>
      <trkpt lat="43.65226" lon="3.75929">
        <ele>110</ele>
      </trkpt>
      <trkpt lat="43.65229" lon="3.75934">
        <ele>110</ele>
      </trkpt>
      <trkpt lat="43.65232" lon="3.75938">
        <ele>110</ele>
      </trkpt>
      <trkpt lat="43.65236" lon="3.75943">
        <ele>109</ele>
      </trkpt>
      <trkpt lat="43.65239" lon="3.75948">
        <ele>109</ele>
      </trkpt>
      <trkpt lat="43.65243" lon="3.75953">
        <ele>109</ele>
      </trkpt>
      <trkpt lat="43.65245" lon="3.75959">
        <ele>109</ele>
      </trkpt>
      <trkpt lat="43.65248" lon="3.75965">
        <ele>109</ele>
      </trkpt>
      <trkpt lat="43.65252" lon="3.75969">
        <ele>109</ele>
      </trkpt>
      <trkpt lat="43.65255" lon="3.75973">
        <ele>109</ele>
      </trkpt>
      <trkpt lat="43.65258" lon="3.75976">
        <ele>109</ele>
      </trkpt>
      <trkpt lat="43.6526" lon="3.7598">
        <ele>109</ele>
      </trkpt>
      <trkpt lat="43.65261" lon="3.75984">
        <ele>109</ele>
      </trkpt>
      <trkpt lat="43.65263" lon="3.75988">
        <ele>107</ele>
      </trkpt>
      <trkpt lat="43.65266" lon="3.75992">
        <ele>107</ele>
      </trkpt>
      <trkpt lat="43.65267" lon="3.75995">
        <ele>107</ele>
      </trkpt>
      <trkpt lat="43.65269" lon="3.75999">
        <ele>107</ele>
      </trkpt>
      <trkpt lat="43.65271" lon="3.76002">
        <ele>107</ele>
      </trkpt>
      <trkpt lat="43.65273" lon="3.76005">
        <ele>107</ele>
      </trkpt>
      <trkpt lat="43.65275" lon="3.76008">
        <ele>107</ele>
      </trkpt>
      <trkpt lat="43.65277" lon="3.76011">
        <ele>107</ele>
      </trkpt>
      <trkpt lat="43.65278" lon="3.76014">
        <ele>107</ele>
      </trkpt>
      <trkpt lat="43.6528" lon="3.76017">
        <ele>107</ele>
      </trkpt>
      <trkpt lat="43.65282" lon="3.7602">
        <ele>107</ele>
      </trkpt>
      <trkpt lat="43.65284" lon="3.76022">
        <ele>107</ele>
      </trkpt>
      <trkpt lat="43.65286" lon="3.76024">
        <ele>107</ele>
      </trkpt>
      <trkpt lat="43.65289" lon="3.76027">
        <ele>107</ele>
      </trkpt>
      <trkpt lat="43.65291" lon="3.76028">
        <ele>107</ele>
      </trkpt>
      <trkpt lat="43.65294" lon="3.7603">
        <ele>107</ele>
      </trkpt>
      <trkpt lat="43.65296" lon="3.76032">
        <ele>107</ele>
      </trkpt>
      <trkpt lat="43.65298" lon="3.76034">
        <ele>107</ele>
      </trkpt>
      <trkpt lat="43.65301" lon="3.76036">
        <ele>107</ele>
      </trkpt>
      <trkpt lat="43.65304" lon="3.76037">
        <ele>107</ele>
      </trkpt>
      <trkpt lat="43.65307" lon="3.76039">
        <ele>107</ele>
      </trkpt>
      <trkpt lat="43.6531" lon="3.7604">
        <ele>107</ele>
      </trkpt>
      <trkpt lat="43.65313" lon="3.76042">
        <ele>107</ele>
      </trkpt>
      <trkpt lat="43.65317" lon="3.76044">
        <ele>107</ele>
      </trkpt>
      <trkpt lat="43.6532" lon="3.76046">
        <ele>107</ele>
      </trkpt>
      <trkpt lat="43.65323" lon="3.76048">
        <ele>107</ele>
      </trkpt>
      <trkpt lat="43.65327" lon="3.76049">
        <ele>107</ele>
      </trkpt>
      <trkpt lat="43.6533" lon="3.76051">
        <ele>107</ele>
      </trkpt>
      <trkpt lat="43.65334" lon="3.76053">
        <ele>107</ele>
      </trkpt>
      <trkpt lat="43.65338" lon="3.76055">
        <ele>107</ele>
      </trkpt>
      <trkpt lat="43.65342" lon="3.76056">
        <ele>105</ele>
      </trkpt>
      <trkpt lat="43.65347" lon="3.76058">
        <ele>105</ele>
      </trkpt>
      <trkpt lat="43.65352" lon="3.7606">
        <ele>105</ele>
      </trkpt>
      <trkpt lat="43.65357" lon="3.76062">
        <ele>105</ele>
      </trkpt>
      <trkpt lat="43.65362" lon="3.76067">
        <ele>105</ele>
      </trkpt>
      <trkpt lat="43.65366" lon="3.76072">
        <ele>105</ele>
      </trkpt>
      <trkpt lat="43.6537" lon="3.76079">
        <ele>105</ele>
      </trkpt>
      <trkpt lat="43.65372" lon="3.76085">
        <ele>105</ele>
      </trkpt>
      <trkpt lat="43.65373" lon="3.76093">
        <ele>105</ele>
      </trkpt>
      <trkpt lat="43.65373" lon="3.76099">
        <ele>105</ele>
      </trkpt>
      <trkpt lat="43.65374" lon="3.76106">
        <ele>104</ele>
      </trkpt>
      <trkpt lat="43.65375" lon="3.76112">
        <ele>104</ele>
      </trkpt>
      <trkpt lat="43.65377" lon="3.76117">
        <ele>104</ele>
      </trkpt>
      <trkpt lat="43.6538" lon="3.76123">
        <ele>104</ele>
      </trkpt>
      <trkpt lat="43.65382" lon="3.76129">
        <ele>104</ele>
      </trkpt>
      <trkpt lat="43.65384" lon="3.76135">
        <ele>104</ele>
      </trkpt>
      <trkpt lat="43.65387" lon="3.76141">
        <ele>104</ele>
      </trkpt>
      <trkpt lat="43.65389" lon="3.76147">
        <ele>104</ele>
      </trkpt>
      <trkpt lat="43.65391" lon="3.76151">
        <ele>104</ele>
      </trkpt>
      <trkpt lat="43.65393" lon="3.76155">
        <ele>104</ele>
      </trkpt>
      <trkpt lat="43.65396" lon="3.76159">
        <ele>103</ele>
      </trkpt>
      <trkpt lat="43.65399" lon="3.76162">
        <ele>103</ele>
      </trkpt>
      <trkpt lat="43.65403" lon="3.76166">
        <ele>103</ele>
      </trkpt>
      <trkpt lat="43.65407" lon="3.7617">
        <ele>103</ele>
      </trkpt>
      <trkpt lat="43.65411" lon="3.76173">
        <ele>103</ele>
      </trkpt>
      <trkpt lat="43.65415" lon="3.76176">
        <ele>103</ele>
      </trkpt>
      <trkpt lat="43.6542" lon="3.76177">
        <ele>103</ele>
      </trkpt>
      <trkpt lat="43.65425" lon="3.76178">
        <ele>103</ele>
      </trkpt>
      <trkpt lat="43.65429" lon="3.7618">
        <ele>103</ele>
      </trkpt>
      <trkpt lat="43.65434" lon="3.76181">
        <ele>103</ele>
      </trkpt>
      <trkpt lat="43.65439" lon="3.76183">
        <ele>102</ele>
      </trkpt>
      <trkpt lat="43.65444" lon="3.76185">
        <ele>102</ele>
      </trkpt>
      <trkpt lat="43.65448" lon="3.76189">
        <ele>102</ele>
      </trkpt>
      <trkpt lat="43.65451" lon="3.76192">
        <ele>102</ele>
      </trkpt>
      <trkpt lat="43.65456" lon="3.76196">
        <ele>102</ele>
      </trkpt>
      <trkpt lat="43.6546" lon="3.76197">
        <ele>102</ele>
      </trkpt>
      <trkpt lat="43.65465" lon="3.76196">
        <ele>102</ele>
      </trkpt>
      <trkpt lat="43.65469" lon="3.76196">
        <ele>102</ele>
      </trkpt>
      <trkpt lat="43.65474" lon="3.76196">
        <ele>102</ele>
      </trkpt>
      <trkpt lat="43.65479" lon="3.76197">
        <ele>102</ele>
      </trkpt>
      <trkpt lat="43.65484" lon="3.76198">
        <ele>101</ele>
      </trkpt>
      <trkpt lat="43.65489" lon="3.76199">
        <ele>101</ele>
      </trkpt>
      <trkpt lat="43.65495" lon="3.762">
        <ele>101</ele>
      </trkpt>
      <trkpt lat="43.655" lon="3.76202">
        <ele>101</ele>
      </trkpt>
      <trkpt lat="43.65504" lon="3.76204">
        <ele>101</ele>
      </trkpt>
      <trkpt lat="43.65509" lon="3.76208">
        <ele>101</ele>
      </trkpt>
      <trkpt lat="43.65514" lon="3.76211">
        <ele>101</ele>
      </trkpt>
      <trkpt lat="43.65518" lon="3.76216">
        <ele>101</ele>
      </trkpt>
      <trkpt lat="43.65521" lon="3.76221">
        <ele>101</ele>
      </trkpt>
      <trkpt lat="43.65524" lon="3.76227">
        <ele>101</ele>
      </trkpt>
      <trkpt lat="43.65527" lon="3.76233">
        <ele>100</ele>
      </trkpt>
      <trkpt lat="43.65529" lon="3.76238">
        <ele>100</ele>
      </trkpt>
      <trkpt lat="43.65532" lon="3.76244">
        <ele>100</ele>
      </trkpt>
      <trkpt lat="43.65534" lon="3.7625">
        <ele>100</ele>
      </trkpt>
      <trkpt lat="43.65536" lon="3.76256">
        <ele>100</ele>
      </trkpt>
      <trkpt lat="43.65538" lon="3.76262">
        <ele>100</ele>
      </trkpt>
      <trkpt lat="43.6554" lon="3.76267">
        <ele>100</ele>
      </trkpt>
      <trkpt lat="43.65542" lon="3.76273">
        <ele>100</ele>
      </trkpt>
      <trkpt lat="43.65545" lon="3.76279">
        <ele>100</ele>
      </trkpt>
      <trkpt lat="43.65547" lon="3.76285">
        <ele>100</ele>
      </trkpt>
      <trkpt lat="43.65549" lon="3.76291">
        <ele>99</ele>
      </trkpt>
      <trkpt lat="43.65551" lon="3.76298">
        <ele>99</ele>
      </trkpt>
      <trkpt lat="43.65553" lon="3.76305">
        <ele>99</ele>
      </trkpt>
      <trkpt lat="43.65555" lon="3.76312">
        <ele>99</ele>
      </trkpt>
      <trkpt lat="43.65556" lon="3.76318">
        <ele>99</ele>
      </trkpt>
      <trkpt lat="43.65558" lon="3.76325">
        <ele>99</ele>
      </trkpt>
      <trkpt lat="43.65559" lon="3.76332">
        <ele>99</ele>
      </trkpt>
      <trkpt lat="43.6556" lon="3.76338">
        <ele>99</ele>
      </trkpt>
      <trkpt lat="43.65561" lon="3.76345">
        <ele>99</ele>
      </trkpt>
      <trkpt lat="43.65561" lon="3.76352">
        <ele>99</ele>
      </trkpt>
      <trkpt lat="43.65562" lon="3.76359">
        <ele>98</ele>
      </trkpt>
      <trkpt lat="43.65563" lon="3.76365">
        <ele>98</ele>
      </trkpt>
      <trkpt lat="43.65564" lon="3.76372">
        <ele>98</ele>
      </trkpt>
      <trkpt lat="43.65565" lon="3.76378">
        <ele>98</ele>
      </trkpt>
      <trkpt lat="43.65566" lon="3.76384">
        <ele>98</ele>
      </trkpt>
      <trkpt lat="43.65567" lon="3.7639">
        <ele>98</ele>
      </trkpt>
      <trkpt lat="43.65569" lon="3.76395">
        <ele>98</ele>
      </trkpt>
      <trkpt lat="43.65571" lon="3.76401">
        <ele>98</ele>
      </trkpt>
      <trkpt lat="43.65573" lon="3.76406">
        <ele>98</ele>
      </trkpt>
      <trkpt lat="43.65575" lon="3.76412">
        <ele>98</ele>
      </trkpt>
      <trkpt lat="43.65577" lon="3.76417">
        <ele>97</ele>
      </trkpt>
      <trkpt lat="43.65578" lon="3.76423">
        <ele>97</ele>
      </trkpt>
      <trkpt lat="43.6558" lon="3.76429">
        <ele>97</ele>
      </trkpt>
      <trkpt lat="43.65581" lon="3.76434">
        <ele>97</ele>
      </trkpt>
      <trkpt lat="43.65582" lon="3.7644">
        <ele>97</ele>
      </trkpt>
      <trkpt lat="43.65584" lon="3.76446">
        <ele>97</ele>
      </trkpt>
      <trkpt lat="43.65586" lon="3.76452">
        <ele>97</ele>
      </trkpt>
      <trkpt lat="43.65587" lon="3.76457">
        <ele>97</ele>
      </trkpt>
      <trkpt lat="43.65588" lon="3.76462">
        <ele>97</ele>
      </trkpt>
      <trkpt lat="43.6559" lon="3.76468">
        <ele>97</ele>
      </trkpt>
      <trkpt lat="43.65592" lon="3.76474">
        <ele>97</ele>
      </trkpt>
      <trkpt lat="43.65593" lon="3.76479">
        <ele>97</ele>
      </trkpt>
      <trkpt lat="43.65595" lon="3.76484">
        <ele>97</ele>
      </trkpt>
      <trkpt lat="43.65596" lon="3.76489">
        <ele>97</ele>
      </trkpt>
      <trkpt lat="43.65598" lon="3.76495">
        <ele>97</ele>
      </trkpt>
      <trkpt lat="43.65599" lon="3.765">
        <ele>97</ele>
      </trkpt>
      <trkpt lat="43.656" lon="3.76506">
        <ele>97</ele>
      </trkpt>
      <trkpt lat="43.65601" lon="3.76511">
        <ele>97</ele>
      </trkpt>
      <trkpt lat="43.65602" lon="3.76517">
        <ele>97</ele>
      </trkpt>
      <trkpt lat="43.65603" lon="3.76522">
        <ele>97</ele>
      </trkpt>
      <trkpt lat="43.65604" lon="3.76527">
        <ele>96</ele>
      </trkpt>
      <trkpt lat="43.65605" lon="3.76533">
        <ele>96</ele>
      </trkpt>
      <trkpt lat="43.65607" lon="3.76538">
        <ele>96</ele>
      </trkpt>
      <trkpt lat="43.65608" lon="3.76543">
        <ele>96</ele>
      </trkpt>
      <trkpt lat="43.65609" lon="3.76548">
        <ele>96</ele>
      </trkpt>
      <trkpt lat="43.65611" lon="3.76553">
        <ele>96</ele>
      </trkpt>
      <trkpt lat="43.65612" lon="3.76558">
        <ele>96</ele>
      </trkpt>
      <trkpt lat="43.65614" lon="3.76564">
        <ele>96</ele>
      </trkpt>
      <trkpt lat="43.65615" lon="3.76569">
        <ele>96</ele>
      </trkpt>
      <trkpt lat="43.65616" lon="3.76575">
        <ele>96</ele>
      </trkpt>
      <trkpt lat="43.65617" lon="3.7658">
        <ele>95</ele>
      </trkpt>
      <trkpt lat="43.65618" lon="3.76585">
        <ele>95</ele>
      </trkpt>
      <trkpt lat="43.65618" lon="3.76591">
        <ele>95</ele>
      </trkpt>
      <trkpt lat="43.65618" lon="3.76597">
        <ele>95</ele>
      </trkpt>
      <trkpt lat="43.65618" lon="3.76603">
        <ele>95</ele>
      </trkpt>
      <trkpt lat="43.65617" lon="3.76608">
        <ele>95</ele>
      </trkpt>
      <trkpt lat="43.65617" lon="3.76614">
        <ele>95</ele>
      </trkpt>
      <trkpt lat="43.65616" lon="3.76619">
        <ele>95</ele>
      </trkpt>
      <trkpt lat="43.65616" lon="3.76625">
        <ele>95</ele>
      </trkpt>
      <trkpt lat="43.65616" lon="3.76631">
        <ele>95</ele>
      </trkpt>
      <trkpt lat="43.65615" lon="3.76637">
        <ele>94</ele>
      </trkpt>
      <trkpt lat="43.65615" lon="3.76643">
        <ele>94</ele>
      </trkpt>
      <trkpt lat="43.65615" lon="3.76649">
        <ele>94</ele>
      </trkpt>
      <trkpt lat="43.65614" lon="3.76655">
        <ele>94</ele>
      </trkpt>
      <trkpt lat="43.65614" lon="3.76661">
        <ele>94</ele>
      </trkpt>
      <trkpt lat="43.65614" lon="3.76666">
        <ele>94</ele>
      </trkpt>
      <trkpt lat="43.65613" lon="3.76672">
        <ele>94</ele>
      </trkpt>
      <trkpt lat="43.65612" lon="3.76678">
        <ele>94</ele>
      </trkpt>
      <trkpt lat="43.65612" lon="3.76684">
        <ele>94</ele>
      </trkpt>
      <trkpt lat="43.65612" lon="3.76689">
        <ele>94</ele>
      </trkpt>
      <trkpt lat="43.65612" lon="3.76695">
        <ele>94</ele>
      </trkpt>
      <trkpt lat="43.65612" lon="3.76701">
        <ele>94</ele>
      </trkpt>
      <trkpt lat="43.65611" lon="3.76707">
        <ele>94</ele>
      </trkpt>
      <trkpt lat="43.65609" lon="3.76712">
        <ele>94</ele>
      </trkpt>
      <trkpt lat="43.65607" lon="3.76717">
        <ele>94</ele>
      </trkpt>
      <trkpt lat="43.65604" lon="3.76721">
        <ele>94</ele>
      </trkpt>
      <trkpt lat="43.65602" lon="3.76725">
        <ele>94</ele>
      </trkpt>
      <trkpt lat="43.65601" lon="3.76729">
        <ele>94</ele>
      </trkpt>
      <trkpt lat="43.65599" lon="3.76733">
        <ele>94</ele>
      </trkpt>
      <trkpt lat="43.65599" lon="3.76738">
        <ele>94</ele>
      </trkpt>
      <trkpt lat="43.65598" lon="3.76742">
        <ele>94</ele>
      </trkpt>
      <trkpt lat="43.65596" lon="3.76747">
        <ele>94</ele>
      </trkpt>
      <trkpt lat="43.65595" lon="3.76752">
        <ele>94</ele>
      </trkpt>
      <trkpt lat="43.65594" lon="3.76756">
        <ele>94</ele>
      </trkpt>
      <trkpt lat="43.65592" lon="3.7676">
        <ele>94</ele>
      </trkpt>
      <trkpt lat="43.65591" lon="3.76765">
        <ele>94</ele>
      </trkpt>
      <trkpt lat="43.65588" lon="3.76769">
        <ele>94</ele>
      </trkpt>
      <trkpt lat="43.65587" lon="3.76773">
        <ele>94</ele>
      </trkpt>
      <trkpt lat="43.65586" lon="3.76776">
        <ele>94</ele>
      </trkpt>
      <trkpt lat="43.65584" lon="3.7678">
        <ele>94</ele>
      </trkpt>
      <trkpt lat="43.65582" lon="3.76784">
        <ele>95</ele>
      </trkpt>
      <trkpt lat="43.6558" lon="3.76787">
        <ele>95</ele>
      </trkpt>
      <trkpt lat="43.65578" lon="3.7679">
        <ele>95</ele>
      </trkpt>
      <trkpt lat="43.65577" lon="3.76793">
        <ele>95</ele>
      </trkpt>
      <trkpt lat="43.65575" lon="3.76797">
        <ele>95</ele>
      </trkpt>
      <trkpt lat="43.65573" lon="3.768">
        <ele>95</ele>
      </trkpt>
      <trkpt lat="43.65571" lon="3.76802">
        <ele>95</ele>
      </trkpt>
      <trkpt lat="43.65568" lon="3.76804">
        <ele>95</ele>
      </trkpt>
      <trkpt lat="43.65566" lon="3.76805">
        <ele>95</ele>
      </trkpt>
      <trkpt lat="43.65564" lon="3.76806">
        <ele>95</ele>
      </trkpt>
      <trkpt lat="43.65562" lon="3.76806">
        <ele>95</ele>
      </trkpt>
      <trkpt lat="43.6556" lon="3.76806">
        <ele>95</ele>
      </trkpt>
      <trkpt lat="43.65556" lon="3.76805">
        <ele>95</ele>
      </trkpt>
      <trkpt lat="43.65553" lon="3.76803">
        <ele>95</ele>
      </trkpt>
      <trkpt lat="43.6555" lon="3.76802">
        <ele>95</ele>
      </trkpt>
      <trkpt lat="43.65548" lon="3.768">
        <ele>95</ele>
      </trkpt>
      <trkpt lat="43.65546" lon="3.76801">
        <ele>95</ele>
      </trkpt>
      <trkpt lat="43.65546" lon="3.76802">
        <ele>96</ele>
      </trkpt>
      <trkpt lat="43.65553" lon="3.76802">
        <ele>96</ele>
      </trkpt>
      <trkpt lat="43.65555" lon="3.76802">
        <ele>96</ele>
      </trkpt>
      <trkpt lat="43.65557" lon="3.76802">
        <ele>96</ele>
      </trkpt>
      <trkpt lat="43.6556" lon="3.76802">
        <ele>96</ele>
      </trkpt>
      <trkpt lat="43.65562" lon="3.76802">
        <ele>96</ele>
      </trkpt>
      <trkpt lat="43.65564" lon="3.76803">
        <ele>96</ele>
      </trkpt>
      <trkpt lat="43.65566" lon="3.76805">
        <ele>96</ele>
      </trkpt>
      <trkpt lat="43.65567" lon="3.76807">
        <ele>96</ele>
      </trkpt>
      <trkpt lat="43.65569" lon="3.76809">
        <ele>96</ele>
      </trkpt>
      <trkpt lat="43.6557" lon="3.76814">
        <ele>96</ele>
      </trkpt>
      <trkpt lat="43.65571" lon="3.76819">
        <ele>96</ele>
      </trkpt>
      <trkpt lat="43.65573" lon="3.76822">
        <ele>96</ele>
      </trkpt>
      <trkpt lat="43.65574" lon="3.76826">
        <ele>96</ele>
      </trkpt>
      <trkpt lat="43.65576" lon="3.7683">
        <ele>96</ele>
      </trkpt>
      <trkpt lat="43.65577" lon="3.76834">
        <ele>96</ele>
      </trkpt>
      <trkpt lat="43.65579" lon="3.76838">
        <ele>96</ele>
      </trkpt>
      <trkpt lat="43.6558" lon="3.76842">
        <ele>96</ele>
      </trkpt>
      <trkpt lat="43.65581" lon="3.76847">
        <ele>96</ele>
      </trkpt>
      <trkpt lat="43.65582" lon="3.76852">
        <ele>96</ele>
      </trkpt>
      <trkpt lat="43.65582" lon="3.76856">
        <ele>96</ele>
      </trkpt>
      <trkpt lat="43.65582" lon="3.76861">
        <ele>96</ele>
      </trkpt>
      <trkpt lat="43.65582" lon="3.76865">
        <ele>96</ele>
      </trkpt>
      <trkpt lat="43.65581" lon="3.7687">
        <ele>96</ele>
      </trkpt>
      <trkpt lat="43.65581" lon="3.76875">
        <ele>96</ele>
      </trkpt>
      <trkpt lat="43.65582" lon="3.76879">
        <ele>96</ele>
      </trkpt>
      <trkpt lat="43.65582" lon="3.76883">
        <ele>96</ele>
      </trkpt>
      <trkpt lat="43.65582" lon="3.76888">
        <ele>96</ele>
      </trkpt>
      <trkpt lat="43.65581" lon="3.76892">
        <ele>96</ele>
      </trkpt>
      <trkpt lat="43.65581" lon="3.76896">
        <ele>96</ele>
      </trkpt>
      <trkpt lat="43.65582" lon="3.76901">
        <ele>96</ele>
      </trkpt>
      <trkpt lat="43.65582" lon="3.76905">
        <ele>96</ele>
      </trkpt>
      <trkpt lat="43.65582" lon="3.76909">
        <ele>97</ele>
      </trkpt>
      <trkpt lat="43.65583" lon="3.76913">
        <ele>97</ele>
      </trkpt>
      <trkpt lat="43.65583" lon="3.76917">
        <ele>97</ele>
      </trkpt>
      <trkpt lat="43.65584" lon="3.7692">
        <ele>97</ele>
      </trkpt>
      <trkpt lat="43.65584" lon="3.76923">
        <ele>97</ele>
      </trkpt>
      <trkpt lat="43.65584" lon="3.76927">
        <ele>97</ele>
      </trkpt>
      <trkpt lat="43.65584" lon="3.76929">
        <ele>97</ele>
      </trkpt>
      <trkpt lat="43.65585" lon="3.76934">
        <ele>97</ele>
      </trkpt>
      <trkpt lat="43.65587" lon="3.76937">
        <ele>97</ele>
      </trkpt>
      <trkpt lat="43.65589" lon="3.76938">
        <ele>97</ele>
      </trkpt>
      <trkpt lat="43.65592" lon="3.76939">
        <ele>97</ele>
      </trkpt>
      <trkpt lat="43.65594" lon="3.7694">
        <ele>97</ele>
      </trkpt>
      <trkpt lat="43.65596" lon="3.76942">
        <ele>97</ele>
      </trkpt>
      <trkpt lat="43.65599" lon="3.76946">
        <ele>97</ele>
      </trkpt>
      <trkpt lat="43.65599" lon="3.76951">
        <ele>97</ele>
      </trkpt>
      <trkpt lat="43.65599" lon="3.76955">
        <ele>97</ele>
      </trkpt>
      <trkpt lat="43.65598" lon="3.7696">
        <ele>97</ele>
      </trkpt>
      <trkpt lat="43.65597" lon="3.76964">
        <ele>97</ele>
      </trkpt>
      <trkpt lat="43.65596" lon="3.76968">
        <ele>98</ele>
      </trkpt>
      <trkpt lat="43.65596" lon="3.76972">
        <ele>98</ele>
      </trkpt>
      <trkpt lat="43.65596" lon="3.76977">
        <ele>98</ele>
      </trkpt>
      <trkpt lat="43.65596" lon="3.76981">
        <ele>98</ele>
      </trkpt>
      <trkpt lat="43.65596" lon="3.76987">
        <ele>98</ele>
      </trkpt>
      <trkpt lat="43.65596" lon="3.76992">
        <ele>98</ele>
      </trkpt>
      <trkpt lat="43.65596" lon="3.76997">
        <ele>98</ele>
      </trkpt>
      <trkpt lat="43.65596" lon="3.77003">
        <ele>98</ele>
      </trkpt>
      <trkpt lat="43.65596" lon="3.77008">
        <ele>98</ele>
      </trkpt>
      <trkpt lat="43.65595" lon="3.77013">
        <ele>98</ele>
      </trkpt>
      <trkpt lat="43.65594" lon="3.77018">
        <ele>97</ele>
      </trkpt>
      <trkpt lat="43.65593" lon="3.77024">
        <ele>97</ele>
      </trkpt>
      <trkpt lat="43.65593" lon="3.77029">
        <ele>97</ele>
      </trkpt>
      <trkpt lat="43.65592" lon="3.77035">
        <ele>97</ele>
      </trkpt>
      <trkpt lat="43.65592" lon="3.7704">
        <ele>97</ele>
      </trkpt>
      <trkpt lat="43.65591" lon="3.77046">
        <ele>97</ele>
      </trkpt>
      <trkpt lat="43.65591" lon="3.77051">
        <ele>97</ele>
      </trkpt>
      <trkpt lat="43.6559" lon="3.77056">
        <ele>97</ele>
      </trkpt>
      <trkpt lat="43.65589" lon="3.77062">
        <ele>97</ele>
      </trkpt>
      <trkpt lat="43.65588" lon="3.77066">
        <ele>97</ele>
      </trkpt>
      <trkpt lat="43.65587" lon="3.77072">
        <ele>95</ele>
      </trkpt>
      <trkpt lat="43.65586" lon="3.77078">
        <ele>95</ele>
      </trkpt>
      <trkpt lat="43.65585" lon="3.77084">
        <ele>95</ele>
      </trkpt>
      <trkpt lat="43.65584" lon="3.77089">
        <ele>95</ele>
      </trkpt>
      <trkpt lat="43.65583" lon="3.77095">
        <ele>95</ele>
      </trkpt>
      <trkpt lat="43.65582" lon="3.77101">
        <ele>95</ele>
      </trkpt>
      <trkpt lat="43.65582" lon="3.77107">
        <ele>95</ele>
      </trkpt>
      <trkpt lat="43.65581" lon="3.77113">
        <ele>95</ele>
      </trkpt>
      <trkpt lat="43.65581" lon="3.77119">
        <ele>95</ele>
      </trkpt>
      <trkpt lat="43.65581" lon="3.77126">
        <ele>95</ele>
      </trkpt>
      <trkpt lat="43.65581" lon="3.77132">
        <ele>93</ele>
      </trkpt>
      <trkpt lat="43.65581" lon="3.77138">
        <ele>93</ele>
      </trkpt>
      <trkpt lat="43.65581" lon="3.77144">
        <ele>93</ele>
      </trkpt>
      <trkpt lat="43.65581" lon="3.7715">
        <ele>93</ele>
      </trkpt>
      <trkpt lat="43.65581" lon="3.77157">
        <ele>93</ele>
      </trkpt>
      <trkpt lat="43.65581" lon="3.77164">
        <ele>93</ele>
      </trkpt>
      <trkpt lat="43.6558" lon="3.77171">
        <ele>93</ele>
      </trkpt>
      <trkpt lat="43.65579" lon="3.77178">
        <ele>93</ele>
      </trkpt>
      <trkpt lat="43.65579" lon="3.77186">
        <ele>93</ele>
      </trkpt>
      <trkpt lat="43.65578" lon="3.77193">
        <ele>93</ele>
      </trkpt>
      <trkpt lat="43.65578" lon="3.77201">
        <ele>92</ele>
      </trkpt>
      <trkpt lat="43.65578" lon="3.77209">
        <ele>92</ele>
      </trkpt>
      <trkpt lat="43.65578" lon="3.77216">
        <ele>92</ele>
      </trkpt>
      <trkpt lat="43.65579" lon="3.77224">
        <ele>92</ele>
      </trkpt>
      <trkpt lat="43.65579" lon="3.77231">
        <ele>92</ele>
      </trkpt>
      <trkpt lat="43.6558" lon="3.77239">
        <ele>92</ele>
      </trkpt>
      <trkpt lat="43.65581" lon="3.77246">
        <ele>92</ele>
      </trkpt>
      <trkpt lat="43.65582" lon="3.77254">
        <ele>92</ele>
      </trkpt>
      <trkpt lat="43.65583" lon="3.77262">
        <ele>92</ele>
      </trkpt>
      <trkpt lat="43.65584" lon="3.77269">
        <ele>92</ele>
      </trkpt>
      <trkpt lat="43.65583" lon="3.77277">
        <ele>91</ele>
      </trkpt>
      <trkpt lat="43.65582" lon="3.77284">
        <ele>91</ele>
      </trkpt>
      <trkpt lat="43.65581" lon="3.7729">
        <ele>91</ele>
      </trkpt>
      <trkpt lat="43.65581" lon="3.77297">
        <ele>91</ele>
      </trkpt>
      <trkpt lat="43.65581" lon="3.77304">
        <ele>91</ele>
      </trkpt>
      <trkpt lat="43.65582" lon="3.7731">
        <ele>91</ele>
      </trkpt>
      <trkpt lat="43.65584" lon="3.77316">
        <ele>91</ele>
      </trkpt>
      <trkpt lat="43.65584" lon="3.77322">
        <ele>91</ele>
      </trkpt>
      <trkpt lat="43.65585" lon="3.77329">
        <ele>91</ele>
      </trkpt>
      <trkpt lat="43.65584" lon="3.77336">
        <ele>91</ele>
      </trkpt>
      <trkpt lat="43.65583" lon="3.77343">
        <ele>90</ele>
      </trkpt>
      <trkpt lat="43.65582" lon="3.7735">
        <ele>90</ele>
      </trkpt>
      <trkpt lat="43.6558" lon="3.77358">
        <ele>90</ele>
      </trkpt>
      <trkpt lat="43.65578" lon="3.77365">
        <ele>90</ele>
      </trkpt>
      <trkpt lat="43.65575" lon="3.77371">
        <ele>90</ele>
      </trkpt>
      <trkpt lat="43.65572" lon="3.77378">
        <ele>90</ele>
      </trkpt>
      <trkpt lat="43.65569" lon="3.77385">
        <ele>90</ele>
      </trkpt>
      <trkpt lat="43.65566" lon="3.7739">
        <ele>90</ele>
      </trkpt>
      <trkpt lat="43.65562" lon="3.77397">
        <ele>90</ele>
      </trkpt>
      <trkpt lat="43.65558" lon="3.77403">
        <ele>90</ele>
      </trkpt>
      <trkpt lat="43.65555" lon="3.77409">
        <ele>88</ele>
      </trkpt>
      <trkpt lat="43.65551" lon="3.77415">
        <ele>88</ele>
      </trkpt>
      <trkpt lat="43.65547" lon="3.77421">
        <ele>88</ele>
      </trkpt>
      <trkpt lat="43.65543" lon="3.77426">
        <ele>88</ele>
      </trkpt>
      <trkpt lat="43.6554" lon="3.77432">
        <ele>88</ele>
      </trkpt>
      <trkpt lat="43.65536" lon="3.77438">
        <ele>88</ele>
      </trkpt>
      <trkpt lat="43.65533" lon="3.77445">
        <ele>88</ele>
      </trkpt>
      <trkpt lat="43.65529" lon="3.77451">
        <ele>88</ele>
      </trkpt>
      <trkpt lat="43.65527" lon="3.77459">
        <ele>88</ele>
      </trkpt>
      <trkpt lat="43.65524" lon="3.77466">
        <ele>88</ele>
      </trkpt>
      <trkpt lat="43.65522" lon="3.77473">
        <ele>87</ele>
      </trkpt>
      <trkpt lat="43.65519" lon="3.77479">
        <ele>87</ele>
      </trkpt>
      <trkpt lat="43.65517" lon="3.77485">
        <ele>87</ele>
      </trkpt>
      <trkpt lat="43.65516" lon="3.77491">
        <ele>87</ele>
      </trkpt>
      <trkpt lat="43.65515" lon="3.77496">
        <ele>87</ele>
      </trkpt>
      <trkpt lat="43.65514" lon="3.77501">
        <ele>87</ele>
      </trkpt>
      <trkpt lat="43.65512" lon="3.77505">
        <ele>87</ele>
      </trkpt>
      <trkpt lat="43.65512" lon="3.77509">
        <ele>87</ele>
      </trkpt>
      <trkpt lat="43.65511" lon="3.77512">
        <ele>87</ele>
      </trkpt>
      <trkpt lat="43.6551" lon="3.77516">
        <ele>87</ele>
      </trkpt>
      <trkpt lat="43.6551" lon="3.7752">
        <ele>86</ele>
      </trkpt>
      <trkpt lat="43.6551" lon="3.77525">
        <ele>86</ele>
      </trkpt>
      <trkpt lat="43.65509" lon="3.77531">
        <ele>86</ele>
      </trkpt>
      <trkpt lat="43.65508" lon="3.77537">
        <ele>86</ele>
      </trkpt>
      <trkpt lat="43.65507" lon="3.77542">
        <ele>86</ele>
      </trkpt>
      <trkpt lat="43.65505" lon="3.77548">
        <ele>86</ele>
      </trkpt>
      <trkpt lat="43.65502" lon="3.77553">
        <ele>86</ele>
      </trkpt>
      <trkpt lat="43.65501" lon="3.77558">
        <ele>86</ele>
      </trkpt>
      <trkpt lat="43.655" lon="3.77563">
        <ele>86</ele>
      </trkpt>
      <trkpt lat="43.655" lon="3.77568">
        <ele>86</ele>
      </trkpt>
      <trkpt lat="43.655" lon="3.77573">
        <ele>85</ele>
      </trkpt>
      <trkpt lat="43.65499" lon="3.7758">
        <ele>85</ele>
      </trkpt>
      <trkpt lat="43.65498" lon="3.77586">
        <ele>85</ele>
      </trkpt>
      <trkpt lat="43.65498" lon="3.77592">
        <ele>85</ele>
      </trkpt>
      <trkpt lat="43.65497" lon="3.77598">
        <ele>85</ele>
      </trkpt>
      <trkpt lat="43.65497" lon="3.77604">
        <ele>85</ele>
      </trkpt>
      <trkpt lat="43.65497" lon="3.7761">
        <ele>85</ele>
      </trkpt>
      <trkpt lat="43.65495" lon="3.77617">
        <ele>85</ele>
      </trkpt>
      <trkpt lat="43.65494" lon="3.77623">
        <ele>85</ele>
      </trkpt>
      <trkpt lat="43.65493" lon="3.77629">
        <ele>85</ele>
      </trkpt>
      <trkpt lat="43.65493" lon="3.77635">
        <ele>84</ele>
      </trkpt>
      <trkpt lat="43.65493" lon="3.77641">
        <ele>84</ele>
      </trkpt>
      <trkpt lat="43.65494" lon="3.77647">
        <ele>84</ele>
      </trkpt>
      <trkpt lat="43.65495" lon="3.77653">
        <ele>84</ele>
      </trkpt>
      <trkpt lat="43.65495" lon="3.7766">
        <ele>84</ele>
      </trkpt>
      <trkpt lat="43.65495" lon="3.77667">
        <ele>84</ele>
      </trkpt>
      <trkpt lat="43.65494" lon="3.77673">
        <ele>84</ele>
      </trkpt>
      <trkpt lat="43.65494" lon="3.7768">
        <ele>84</ele>
      </trkpt>
      <trkpt lat="43.65494" lon="3.77687">
        <ele>84</ele>
      </trkpt>
      <trkpt lat="43.65494" lon="3.77693">
        <ele>84</ele>
      </trkpt>
      <trkpt lat="43.65494" lon="3.77699">
        <ele>83</ele>
      </trkpt>
      <trkpt lat="43.65495" lon="3.77705">
        <ele>83</ele>
      </trkpt>
      <trkpt lat="43.65496" lon="3.7771">
        <ele>83</ele>
      </trkpt>
      <trkpt lat="43.65497" lon="3.77715">
        <ele>83</ele>
      </trkpt>
      <trkpt lat="43.65499" lon="3.7772">
        <ele>83</ele>
      </trkpt>
      <trkpt lat="43.65501" lon="3.77724">
        <ele>83</ele>
      </trkpt>
      <trkpt lat="43.65503" lon="3.77726">
        <ele>83</ele>
      </trkpt>
      <trkpt lat="43.65505" lon="3.77729">
        <ele>83</ele>
      </trkpt>
      <trkpt lat="43.65507" lon="3.77732">
        <ele>83</ele>
      </trkpt>
      <trkpt lat="43.65509" lon="3.77735">
        <ele>83</ele>
      </trkpt>
      <trkpt lat="43.6551" lon="3.77738">
        <ele>81</ele>
      </trkpt>
      <trkpt lat="43.65511" lon="3.77741">
        <ele>81</ele>
      </trkpt>
      <trkpt lat="43.65511" lon="3.77745">
        <ele>81</ele>
      </trkpt>
      <trkpt lat="43.65511" lon="3.7775">
        <ele>81</ele>
      </trkpt>
      <trkpt lat="43.65511" lon="3.77754">
        <ele>81</ele>
      </trkpt>
      <trkpt lat="43.65511" lon="3.7776">
        <ele>81</ele>
      </trkpt>
      <trkpt lat="43.65512" lon="3.77765">
        <ele>81</ele>
      </trkpt>
      <trkpt lat="43.65512" lon="3.7777">
        <ele>81</ele>
      </trkpt>
      <trkpt lat="43.65512" lon="3.77775">
        <ele>81</ele>
      </trkpt>
      <trkpt lat="43.65512" lon="3.7778">
        <ele>81</ele>
      </trkpt>
      <trkpt lat="43.65512" lon="3.77784">
        <ele>80</ele>
      </trkpt>
      <trkpt lat="43.65512" lon="3.77789">
        <ele>80</ele>
      </trkpt>
      <trkpt lat="43.65512" lon="3.77793">
        <ele>80</ele>
      </trkpt>
      <trkpt lat="43.65512" lon="3.77797">
        <ele>80</ele>
      </trkpt>
      <trkpt lat="43.65512" lon="3.77801">
        <ele>80</ele>
      </trkpt>
      <trkpt lat="43.65512" lon="3.77805">
        <ele>80</ele>
      </trkpt>
      <trkpt lat="43.65512" lon="3.77809">
        <ele>80</ele>
      </trkpt>
      <trkpt lat="43.65512" lon="3.77814">
        <ele>80</ele>
      </trkpt>
      <trkpt lat="43.65511" lon="3.77818">
        <ele>80</ele>
      </trkpt>
      <trkpt lat="43.65511" lon="3.77823">
        <ele>80</ele>
      </trkpt>
      <trkpt lat="43.6551" lon="3.77827">
        <ele>81</ele>
      </trkpt>
      <trkpt lat="43.6551" lon="3.77832">
        <ele>81</ele>
      </trkpt>
      <trkpt lat="43.65508" lon="3.77837">
        <ele>81</ele>
      </trkpt>
      <trkpt lat="43.65506" lon="3.77842">
        <ele>81</ele>
      </trkpt>
      <trkpt lat="43.65504" lon="3.77847">
        <ele>81</ele>
      </trkpt>
      <trkpt lat="43.65502" lon="3.77852">
        <ele>81</ele>
      </trkpt>
      <trkpt lat="43.65501" lon="3.77858">
        <ele>81</ele>
      </trkpt>
      <trkpt lat="43.65499" lon="3.77864">
        <ele>81</ele>
      </trkpt>
      <trkpt lat="43.65497" lon="3.7787">
        <ele>81</ele>
      </trkpt>
      <trkpt lat="43.65497" lon="3.77877">
        <ele>81</ele>
      </trkpt>
      <trkpt lat="43.65495" lon="3.77884">
        <ele>80</ele>
      </trkpt>
      <trkpt lat="43.65495" lon="3.77891">
        <ele>80</ele>
      </trkpt>
      <trkpt lat="43.65494" lon="3.77899">
        <ele>80</ele>
      </trkpt>
      <trkpt lat="43.65491" lon="3.77905">
        <ele>80</ele>
      </trkpt>
      <trkpt lat="43.65489" lon="3.77912">
        <ele>80</ele>
      </trkpt>
      <trkpt lat="43.65487" lon="3.7792">
        <ele>80</ele>
      </trkpt>
      <trkpt lat="43.65485" lon="3.77927">
        <ele>80</ele>
      </trkpt>
      <trkpt lat="43.65485" lon="3.77934">
        <ele>80</ele>
      </trkpt>
      <trkpt lat="43.65485" lon="3.77941">
        <ele>80</ele>
      </trkpt>
      <trkpt lat="43.65485" lon="3.77949">
        <ele>80</ele>
      </trkpt>
      <trkpt lat="43.65486" lon="3.77956">
        <ele>78</ele>
      </trkpt>
      <trkpt lat="43.65488" lon="3.77962">
        <ele>78</ele>
      </trkpt>
      <trkpt lat="43.65491" lon="3.77968">
        <ele>78</ele>
      </trkpt>
      <trkpt lat="43.65493" lon="3.77972">
        <ele>78</ele>
      </trkpt>
      <trkpt lat="43.65495" lon="3.77975">
        <ele>78</ele>
      </trkpt>
      <trkpt lat="43.65497" lon="3.77977">
        <ele>78</ele>
      </trkpt>
      <trkpt lat="43.655" lon="3.77978">
        <ele>78</ele>
      </trkpt>
      <trkpt lat="43.65503" lon="3.77978">
        <ele>78</ele>
      </trkpt>
      <trkpt lat="43.65506" lon="3.77979">
        <ele>78</ele>
      </trkpt>
      <trkpt lat="43.65509" lon="3.7798">
        <ele>78</ele>
      </trkpt>
      <trkpt lat="43.65512" lon="3.7798">
        <ele>77</ele>
      </trkpt>
      <trkpt lat="43.65515" lon="3.77983">
        <ele>77</ele>
      </trkpt>
      <trkpt lat="43.65517" lon="3.77986">
        <ele>77</ele>
      </trkpt>
      <trkpt lat="43.65519" lon="3.77989">
        <ele>77</ele>
      </trkpt>
      <trkpt lat="43.6552" lon="3.77993">
        <ele>77</ele>
      </trkpt>
      <trkpt lat="43.65522" lon="3.77997">
        <ele>77</ele>
      </trkpt>
      <trkpt lat="43.65523" lon="3.78">
        <ele>77</ele>
      </trkpt>
      <trkpt lat="43.65524" lon="3.78004">
        <ele>77</ele>
      </trkpt>
      <trkpt lat="43.65524" lon="3.78007">
        <ele>77</ele>
      </trkpt>
      <trkpt lat="43.65525" lon="3.7801">
        <ele>77</ele>
      </trkpt>
      <trkpt lat="43.65526" lon="3.78013">
        <ele>78</ele>
      </trkpt>
      <trkpt lat="43.65527" lon="3.78016">
        <ele>78</ele>
      </trkpt>
      <trkpt lat="43.65529" lon="3.7802">
        <ele>78</ele>
      </trkpt>
      <trkpt lat="43.65531" lon="3.78023">
        <ele>78</ele>
      </trkpt>
      <trkpt lat="43.65532" lon="3.78026">
        <ele>78</ele>
      </trkpt>
      <trkpt lat="43.65533" lon="3.7803">
        <ele>78</ele>
      </trkpt>
      <trkpt lat="43.65534" lon="3.78033">
        <ele>78</ele>
      </trkpt>
      <trkpt lat="43.65535" lon="3.78037">
        <ele>78</ele>
      </trkpt>
      <trkpt lat="43.65536" lon="3.78041">
        <ele>78</ele>
      </trkpt>
      <trkpt lat="43.65536" lon="3.78045">
        <ele>78</ele>
      </trkpt>
      <trkpt lat="43.65537" lon="3.78048">
        <ele>79</ele>
      </trkpt>
      <trkpt lat="43.65538" lon="3.78052">
        <ele>79</ele>
      </trkpt>
      <trkpt lat="43.65538" lon="3.78056">
        <ele>79</ele>
      </trkpt>
      <trkpt lat="43.65538" lon="3.7806">
        <ele>79</ele>
      </trkpt>
      <trkpt lat="43.65538" lon="3.78063">
        <ele>79</ele>
      </trkpt>
      <trkpt lat="43.65538" lon="3.78067">
        <ele>79</ele>
      </trkpt>
      <trkpt lat="43.65538" lon="3.7807">
        <ele>79</ele>
      </trkpt>
      <trkpt lat="43.65538" lon="3.78074">
        <ele>79</ele>
      </trkpt>
      <trkpt lat="43.65538" lon="3.78077">
        <ele>79</ele>
      </trkpt>
      <trkpt lat="43.65538" lon="3.78081">
        <ele>79</ele>
      </trkpt>
      <trkpt lat="43.65537" lon="3.78083">
        <ele>80</ele>
      </trkpt>
      <trkpt lat="43.65536" lon="3.78086">
        <ele>80</ele>
      </trkpt>
      <trkpt lat="43.65536" lon="3.78089">
        <ele>80</ele>
      </trkpt>
      <trkpt lat="43.65536" lon="3.78092">
        <ele>80</ele>
      </trkpt>
      <trkpt lat="43.65536" lon="3.78095">
        <ele>80</ele>
      </trkpt>
      <trkpt lat="43.65536" lon="3.78098">
        <ele>80</ele>
      </trkpt>
      <trkpt lat="43.65536" lon="3.78101">
        <ele>80</ele>
      </trkpt>
      <trkpt lat="43.65537" lon="3.78103">
        <ele>80</ele>
      </trkpt>
      <trkpt lat="43.65537" lon="3.78106">
        <ele>80</ele>
      </trkpt>
      <trkpt lat="43.65538" lon="3.78109">
        <ele>80</ele>
      </trkpt>
      <trkpt lat="43.65538" lon="3.78112">
        <ele>80</ele>
      </trkpt>
      <trkpt lat="43.65538" lon="3.78115">
        <ele>80</ele>
      </trkpt>
      <trkpt lat="43.65538" lon="3.78118">
        <ele>80</ele>
      </trkpt>
      <trkpt lat="43.65538" lon="3.78121">
        <ele>80</ele>
      </trkpt>
      <trkpt lat="43.65539" lon="3.78123">
        <ele>80</ele>
      </trkpt>
      <trkpt lat="43.65539" lon="3.78127">
        <ele>80</ele>
      </trkpt>
      <trkpt lat="43.65539" lon="3.78129">
        <ele>80</ele>
      </trkpt>
      <trkpt lat="43.6554" lon="3.78132">
        <ele>80</ele>
      </trkpt>
      <trkpt lat="43.65541" lon="3.78135">
        <ele>80</ele>
      </trkpt>
      <trkpt lat="43.65542" lon="3.78139">
        <ele>80</ele>
      </trkpt>
      <trkpt lat="43.65543" lon="3.78143">
        <ele>81</ele>
      </trkpt>
      <trkpt lat="43.65545" lon="3.78146">
        <ele>81</ele>
      </trkpt>
      <trkpt lat="43.65547" lon="3.7815">
        <ele>81</ele>
      </trkpt>
      <trkpt lat="43.65548" lon="3.78155">
        <ele>81</ele>
      </trkpt>
      <trkpt lat="43.65551" lon="3.7816">
        <ele>81</ele>
      </trkpt>
      <trkpt lat="43.65554" lon="3.78165">
        <ele>81</ele>
      </trkpt>
      <trkpt lat="43.65557" lon="3.7817">
        <ele>81</ele>
      </trkpt>
      <trkpt lat="43.65559" lon="3.78175">
        <ele>81</ele>
      </trkpt>
      <trkpt lat="43.65562" lon="3.78181">
        <ele>81</ele>
      </trkpt>
      <trkpt lat="43.65564" lon="3.78187">
        <ele>81</ele>
      </trkpt>
      <trkpt lat="43.65565" lon="3.78192">
        <ele>81</ele>
      </trkpt>
      <trkpt lat="43.65566" lon="3.78198">
        <ele>81</ele>
      </trkpt>
      <trkpt lat="43.65567" lon="3.78204">
        <ele>81</ele>
      </trkpt>
      <trkpt lat="43.65568" lon="3.7821">
        <ele>81</ele>
      </trkpt>
      <trkpt lat="43.65568" lon="3.78216">
        <ele>81</ele>
      </trkpt>
      <trkpt lat="43.65568" lon="3.78221">
        <ele>81</ele>
      </trkpt>
      <trkpt lat="43.65568" lon="3.78226">
        <ele>81</ele>
      </trkpt>
      <trkpt lat="43.65568" lon="3.78232">
        <ele>81</ele>
      </trkpt>
      <trkpt lat="43.65568" lon="3.78238">
        <ele>81</ele>
      </trkpt>
      <trkpt lat="43.65568" lon="3.78243">
        <ele>81</ele>
      </trkpt>
      <trkpt lat="43.65568" lon="3.78246">
        <ele>81</ele>
      </trkpt>
      <trkpt lat="43.65568" lon="3.78251">
        <ele>81</ele>
      </trkpt>
      <trkpt lat="43.65568" lon="3.78257">
        <ele>81</ele>
      </trkpt>
      <trkpt lat="43.65566" lon="3.78264">
        <ele>81</ele>
      </trkpt>
      <trkpt lat="43.65565" lon="3.78271">
        <ele>81</ele>
      </trkpt>
      <trkpt lat="43.65563" lon="3.78277">
        <ele>81</ele>
      </trkpt>
      <trkpt lat="43.65561" lon="3.78283">
        <ele>81</ele>
      </trkpt>
      <trkpt lat="43.65558" lon="3.7829">
        <ele>81</ele>
      </trkpt>
      <trkpt lat="43.65556" lon="3.78296">
        <ele>81</ele>
      </trkpt>
      <trkpt lat="43.65554" lon="3.78301">
        <ele>81</ele>
      </trkpt>
      <trkpt lat="43.65551" lon="3.78306">
        <ele>81</ele>
      </trkpt>
      <trkpt lat="43.65548" lon="3.78311">
        <ele>81</ele>
      </trkpt>
      <trkpt lat="43.65545" lon="3.78316">
        <ele>81</ele>
      </trkpt>
      <trkpt lat="43.65542" lon="3.78322">
        <ele>81</ele>
      </trkpt>
      <trkpt lat="43.65539" lon="3.78327">
        <ele>81</ele>
      </trkpt>
      <trkpt lat="43.65536" lon="3.78332">
        <ele>81</ele>
      </trkpt>
      <trkpt lat="43.65533" lon="3.78336">
        <ele>81</ele>
      </trkpt>
      <trkpt lat="43.65531" lon="3.78341">
        <ele>81</ele>
      </trkpt>
      <trkpt lat="43.6553" lon="3.78346">
        <ele>81</ele>
      </trkpt>
      <trkpt lat="43.65529" lon="3.7835">
        <ele>81</ele>
      </trkpt>
      <trkpt lat="43.65526" lon="3.78353">
        <ele>80</ele>
      </trkpt>
      <trkpt lat="43.65523" lon="3.78354">
        <ele>80</ele>
      </trkpt>
      <trkpt lat="43.65519" lon="3.78355">
        <ele>80</ele>
      </trkpt>
      <trkpt lat="43.65514" lon="3.78357">
        <ele>80</ele>
      </trkpt>
      <trkpt lat="43.6551" lon="3.7836">
        <ele>80</ele>
      </trkpt>
      <trkpt lat="43.65507" lon="3.78363">
        <ele>80</ele>
      </trkpt>
      <trkpt lat="43.65503" lon="3.78368">
        <ele>80</ele>
      </trkpt>
      <trkpt lat="43.65499" lon="3.78373">
        <ele>80</ele>
      </trkpt>
      <trkpt lat="43.65495" lon="3.78379">
        <ele>80</ele>
      </trkpt>
      <trkpt lat="43.65491" lon="3.78384">
        <ele>80</ele>
      </trkpt>
      <trkpt lat="43.65487" lon="3.7839">
        <ele>78</ele>
      </trkpt>
      <trkpt lat="43.65482" lon="3.78397">
        <ele>78</ele>
      </trkpt>
      <trkpt lat="43.65478" lon="3.78404">
        <ele>78</ele>
      </trkpt>
      <trkpt lat="43.65473" lon="3.78412">
        <ele>78</ele>
      </trkpt>
      <trkpt lat="43.65468" lon="3.7842">
        <ele>78</ele>
      </trkpt>
      <trkpt lat="43.65463" lon="3.78428">
        <ele>78</ele>
      </trkpt>
      <trkpt lat="43.65459" lon="3.78437">
        <ele>78</ele>
      </trkpt>
      <trkpt lat="43.65455" lon="3.78444">
        <ele>78</ele>
      </trkpt>
      <trkpt lat="43.65451" lon="3.78452">
        <ele>78</ele>
      </trkpt>
      <trkpt lat="43.65448" lon="3.78458">
        <ele>78</ele>
      </trkpt>
      <trkpt lat="43.65446" lon="3.78464">
        <ele>76</ele>
      </trkpt>
      <trkpt lat="43.65444" lon="3.78471">
        <ele>76</ele>
      </trkpt>
      <trkpt lat="43.65442" lon="3.78477">
        <ele>76</ele>
      </trkpt>
      <trkpt lat="43.6544" lon="3.78483">
        <ele>76</ele>
      </trkpt>
      <trkpt lat="43.65438" lon="3.78488">
        <ele>76</ele>
      </trkpt>
      <trkpt lat="43.65435" lon="3.78494">
        <ele>76</ele>
      </trkpt>
      <trkpt lat="43.65434" lon="3.78499">
        <ele>76</ele>
      </trkpt>
      <trkpt lat="43.65431" lon="3.78505">
        <ele>76</ele>
      </trkpt>
      <trkpt lat="43.65429" lon="3.7851">
        <ele>76</ele>
      </trkpt>
      <trkpt lat="43.65428" lon="3.78516">
        <ele>76</ele>
      </trkpt>
      <trkpt lat="43.65427" lon="3.78522">
        <ele>73</ele>
      </trkpt>
      <trkpt lat="43.65426" lon="3.78528">
        <ele>73</ele>
      </trkpt>
      <trkpt lat="43.65426" lon="3.78533">
        <ele>73</ele>
      </trkpt>
      <trkpt lat="43.65426" lon="3.7854">
        <ele>73</ele>
      </trkpt>
      <trkpt lat="43.65427" lon="3.78545">
        <ele>73</ele>
      </trkpt>
      <trkpt lat="43.65428" lon="3.78551">
        <ele>73</ele>
      </trkpt>
      <trkpt lat="43.65429" lon="3.78556">
        <ele>73</ele>
      </trkpt>
      <trkpt lat="43.65429" lon="3.7856">
        <ele>73</ele>
      </trkpt>
      <trkpt lat="43.65431" lon="3.78566">
        <ele>73</ele>
      </trkpt>
      <trkpt lat="43.65432" lon="3.78571">
        <ele>73</ele>
      </trkpt>
      <trkpt lat="43.65433" lon="3.78577">
        <ele>72</ele>
      </trkpt>
      <trkpt lat="43.65434" lon="3.78583">
        <ele>72</ele>
      </trkpt>
      <trkpt lat="43.65435" lon="3.7859">
        <ele>72</ele>
      </trkpt>
      <trkpt lat="43.65436" lon="3.78598">
        <ele>72</ele>
      </trkpt>
      <trkpt lat="43.65435" lon="3.78606">
        <ele>72</ele>
      </trkpt>
      <trkpt lat="43.65432" lon="3.78614">
        <ele>72</ele>
      </trkpt>
      <trkpt lat="43.65429" lon="3.7862">
        <ele>72</ele>
      </trkpt>
      <trkpt lat="43.65424" lon="3.78624">
        <ele>72</ele>
      </trkpt>
      <trkpt lat="43.65418" lon="3.78628">
        <ele>72</ele>
      </trkpt>
      <trkpt lat="43.65413" lon="3.78631">
        <ele>72</ele>
      </trkpt>
      <trkpt lat="43.65408" lon="3.78633">
        <ele>68</ele>
      </trkpt>
      <trkpt lat="43.65404" lon="3.78635">
        <ele>68</ele>
      </trkpt>
      <trkpt lat="43.65399" lon="3.78637">
        <ele>68</ele>
      </trkpt>
      <trkpt lat="43.65395" lon="3.78639">
        <ele>68</ele>
      </trkpt>
      <trkpt lat="43.65391" lon="3.78641">
        <ele>68</ele>
      </trkpt>
      <trkpt lat="43.65387" lon="3.78642">
        <ele>68</ele>
      </trkpt>
      <trkpt lat="43.65383" lon="3.78644">
        <ele>68</ele>
      </trkpt>
      <trkpt lat="43.65379" lon="3.78646">
        <ele>68</ele>
      </trkpt>
      <trkpt lat="43.65376" lon="3.78648">
        <ele>68</ele>
      </trkpt>
      <trkpt lat="43.65373" lon="3.78649">
        <ele>68</ele>
      </trkpt>
      <trkpt lat="43.6537" lon="3.7865">
        <ele>67</ele>
      </trkpt>
      <trkpt lat="43.65367" lon="3.78651">
        <ele>67</ele>
      </trkpt>
      <trkpt lat="43.65364" lon="3.78653">
        <ele>67</ele>
      </trkpt>
      <trkpt lat="43.65362" lon="3.78655">
        <ele>67</ele>
      </trkpt>
      <trkpt lat="43.6536" lon="3.78656">
        <ele>67</ele>
      </trkpt>
      <trkpt lat="43.65358" lon="3.78657">
        <ele>67</ele>
      </trkpt>
      <trkpt lat="43.65356" lon="3.78659">
        <ele>67</ele>
      </trkpt>
      <trkpt lat="43.65353" lon="3.7866">
        <ele>67</ele>
      </trkpt>
      <trkpt lat="43.65351" lon="3.78662">
        <ele>67</ele>
      </trkpt>
      <trkpt lat="43.65349" lon="3.78664">
        <ele>67</ele>
      </trkpt>
      <trkpt lat="43.65347" lon="3.78666">
        <ele>68</ele>
      </trkpt>
      <trkpt lat="43.65345" lon="3.78667">
        <ele>68</ele>
      </trkpt>
      <trkpt lat="43.65343" lon="3.78669">
        <ele>68</ele>
      </trkpt>
      <trkpt lat="43.65341" lon="3.78671">
        <ele>68</ele>
      </trkpt>
      <trkpt lat="43.65338" lon="3.78673">
        <ele>68</ele>
      </trkpt>
      <trkpt lat="43.65335" lon="3.78675">
        <ele>68</ele>
      </trkpt>
      <trkpt lat="43.65333" lon="3.78677">
        <ele>68</ele>
      </trkpt>
      <trkpt lat="43.6533" lon="3.78679">
        <ele>68</ele>
      </trkpt>
      <trkpt lat="43.65328" lon="3.78682">
        <ele>68</ele>
      </trkpt>
      <trkpt lat="43.65325" lon="3.78684">
        <ele>68</ele>
      </trkpt>
      <trkpt lat="43.65323" lon="3.78687">
        <ele>69</ele>
      </trkpt>
      <trkpt lat="43.6532" lon="3.7869">
        <ele>69</ele>
      </trkpt>
      <trkpt lat="43.65317" lon="3.78692">
        <ele>69</ele>
      </trkpt>
      <trkpt lat="43.65314" lon="3.78694">
        <ele>69</ele>
      </trkpt>
      <trkpt lat="43.65311" lon="3.78696">
        <ele>69</ele>
      </trkpt>
      <trkpt lat="43.65308" lon="3.78699">
        <ele>69</ele>
      </trkpt>
      <trkpt lat="43.65305" lon="3.78701">
        <ele>69</ele>
      </trkpt>
      <trkpt lat="43.65302" lon="3.78703">
        <ele>69</ele>
      </trkpt>
      <trkpt lat="43.65299" lon="3.78705">
        <ele>69</ele>
      </trkpt>
      <trkpt lat="43.65296" lon="3.78707">
        <ele>69</ele>
      </trkpt>
      <trkpt lat="43.65292" lon="3.78709">
        <ele>69</ele>
      </trkpt>
      <trkpt lat="43.65289" lon="3.78711">
        <ele>69</ele>
      </trkpt>
      <trkpt lat="43.65285" lon="3.78712">
        <ele>69</ele>
      </trkpt>
      <trkpt lat="43.65281" lon="3.78714">
        <ele>69</ele>
      </trkpt>
      <trkpt lat="43.65278" lon="3.78715">
        <ele>69</ele>
      </trkpt>
      <trkpt lat="43.65275" lon="3.78717">
        <ele>69</ele>
      </trkpt>
      <trkpt lat="43.65272" lon="3.78719">
        <ele>69</ele>
      </trkpt>
      <trkpt lat="43.65269" lon="3.78721">
        <ele>69</ele>
      </trkpt>
      <trkpt lat="43.65266" lon="3.78722">
        <ele>69</ele>
      </trkpt>
      <trkpt lat="43.65263" lon="3.78723">
        <ele>69</ele>
      </trkpt>
      <trkpt lat="43.6526" lon="3.78725">
        <ele>68</ele>
      </trkpt>
      <trkpt lat="43.65257" lon="3.78726">
        <ele>68</ele>
      </trkpt>
      <trkpt lat="43.65254" lon="3.78728">
        <ele>68</ele>
      </trkpt>
      <trkpt lat="43.6525" lon="3.78729">
        <ele>68</ele>
      </trkpt>
      <trkpt lat="43.65247" lon="3.78731">
        <ele>68</ele>
      </trkpt>
      <trkpt lat="43.65243" lon="3.78731">
        <ele>68</ele>
      </trkpt>
      <trkpt lat="43.65239" lon="3.78732">
        <ele>68</ele>
      </trkpt>
      <trkpt lat="43.65236" lon="3.78733">
        <ele>68</ele>
      </trkpt>
      <trkpt lat="43.65233" lon="3.78735">
        <ele>68</ele>
      </trkpt>
      <trkpt lat="43.6523" lon="3.78738">
        <ele>68</ele>
      </trkpt>
      <trkpt lat="43.65226" lon="3.7874">
        <ele>67</ele>
      </trkpt>
      <trkpt lat="43.65223" lon="3.78743">
        <ele>67</ele>
      </trkpt>
      <trkpt lat="43.6522" lon="3.78746">
        <ele>67</ele>
      </trkpt>
      <trkpt lat="43.65218" lon="3.7875">
        <ele>67</ele>
      </trkpt>
      <trkpt lat="43.65217" lon="3.78754">
        <ele>67</ele>
      </trkpt>
      <trkpt lat="43.65216" lon="3.78759">
        <ele>67</ele>
      </trkpt>
      <trkpt lat="43.65214" lon="3.78763">
        <ele>67</ele>
      </trkpt>
      <trkpt lat="43.65212" lon="3.78767">
        <ele>67</ele>
      </trkpt>
      <trkpt lat="43.6521" lon="3.78771">
        <ele>67</ele>
      </trkpt>
      <trkpt lat="43.65208" lon="3.78775">
        <ele>67</ele>
      </trkpt>
      <trkpt lat="43.65205" lon="3.78778">
        <ele>65</ele>
      </trkpt>
      <trkpt lat="43.65202" lon="3.78781">
        <ele>65</ele>
      </trkpt>
      <trkpt lat="43.65199" lon="3.78784">
        <ele>65</ele>
      </trkpt>
      <trkpt lat="43.65196" lon="3.78787">
        <ele>65</ele>
      </trkpt>
      <trkpt lat="43.65192" lon="3.78789">
        <ele>65</ele>
      </trkpt>
      <trkpt lat="43.65188" lon="3.78792">
        <ele>65</ele>
      </trkpt>
      <trkpt lat="43.65184" lon="3.78794">
        <ele>65</ele>
      </trkpt>
      <trkpt lat="43.6518" lon="3.78797">
        <ele>65</ele>
      </trkpt>
      <trkpt lat="43.65176" lon="3.78799">
        <ele>65</ele>
      </trkpt>
      <trkpt lat="43.65173" lon="3.78802">
        <ele>65</ele>
      </trkpt>
      <trkpt lat="43.65168" lon="3.78804">
        <ele>64</ele>
      </trkpt>
      <trkpt lat="43.65164" lon="3.78807">
        <ele>64</ele>
      </trkpt>
      <trkpt lat="43.6516" lon="3.7881">
        <ele>64</ele>
      </trkpt>
      <trkpt lat="43.65157" lon="3.78812">
        <ele>64</ele>
      </trkpt>
      <trkpt lat="43.65153" lon="3.78815">
        <ele>64</ele>
      </trkpt>
      <trkpt lat="43.65149" lon="3.78818">
        <ele>64</ele>
      </trkpt>
      <trkpt lat="43.65146" lon="3.78821">
        <ele>64</ele>
      </trkpt>
      <trkpt lat="43.65145" lon="3.78827">
        <ele>64</ele>
      </trkpt>
      <trkpt lat="43.65145" lon="3.78833">
        <ele>64</ele>
      </trkpt>
      <trkpt lat="43.65145" lon="3.78841">
        <ele>64</ele>
      </trkpt>
      <trkpt lat="43.65145" lon="3.78848">
        <ele>64</ele>
      </trkpt>
      <trkpt lat="43.65145" lon="3.78855">
        <ele>64</ele>
      </trkpt>
      <trkpt lat="43.65144" lon="3.78861">
        <ele>64</ele>
      </trkpt>
      <trkpt lat="43.65141" lon="3.78867">
        <ele>64</ele>
      </trkpt>
      <trkpt lat="43.65138" lon="3.7887">
        <ele>64</ele>
      </trkpt>
      <trkpt lat="43.65134" lon="3.78873">
        <ele>64</ele>
      </trkpt>
      <trkpt lat="43.65129" lon="3.78876">
        <ele>64</ele>
      </trkpt>
      <trkpt lat="43.65124" lon="3.7888">
        <ele>64</ele>
      </trkpt>
      <trkpt lat="43.65121" lon="3.78883">
        <ele>64</ele>
      </trkpt>
      <trkpt lat="43.65117" lon="3.78887">
        <ele>64</ele>
      </trkpt>
      <trkpt lat="43.65112" lon="3.7889">
        <ele>64</ele>
      </trkpt>
      <trkpt lat="43.65108" lon="3.78893">
        <ele>64</ele>
      </trkpt>
      <trkpt lat="43.65105" lon="3.78896">
        <ele>64</ele>
      </trkpt>
      <trkpt lat="43.65102" lon="3.78901">
        <ele>64</ele>
      </trkpt>
      <trkpt lat="43.65098" lon="3.78905">
        <ele>64</ele>
      </trkpt>
      <trkpt lat="43.65095" lon="3.78909">
        <ele>64</ele>
      </trkpt>
      <trkpt lat="43.65092" lon="3.78913">
        <ele>64</ele>
      </trkpt>
      <trkpt lat="43.65089" lon="3.78917">
        <ele>64</ele>
      </trkpt>
      <trkpt lat="43.65087" lon="3.78923">
        <ele>64</ele>
      </trkpt>
      <trkpt lat="43.65086" lon="3.78929">
        <ele>64</ele>
      </trkpt>
      <trkpt lat="43.65084" lon="3.78935">
        <ele>63</ele>
      </trkpt>
      <trkpt lat="43.6508" lon="3.78941">
        <ele>63</ele>
      </trkpt>
      <trkpt lat="43.65078" lon="3.78945">
        <ele>63</ele>
      </trkpt>
      <trkpt lat="43.65075" lon="3.78948">
        <ele>63</ele>
      </trkpt>
      <trkpt lat="43.65073" lon="3.78952">
        <ele>63</ele>
      </trkpt>
      <trkpt lat="43.6507" lon="3.78956">
        <ele>63</ele>
      </trkpt>
      <trkpt lat="43.65066" lon="3.78959">
        <ele>63</ele>
      </trkpt>
      <trkpt lat="43.65064" lon="3.78962">
        <ele>63</ele>
      </trkpt>
      <trkpt lat="43.6506" lon="3.78964">
        <ele>63</ele>
      </trkpt>
      <trkpt lat="43.65057" lon="3.78968">
        <ele>63</ele>
      </trkpt>
      <trkpt lat="43.65055" lon="3.78971">
        <ele>64</ele>
      </trkpt>
      <trkpt lat="43.65052" lon="3.78975">
        <ele>64</ele>
      </trkpt>
      <trkpt lat="43.65048" lon="3.78979">
        <ele>64</ele>
      </trkpt>
      <trkpt lat="43.65036" lon="3.78985">
        <ele>64</ele>
      </trkpt>
      <trkpt lat="43.65032" lon="3.78988">
        <ele>64</ele>
      </trkpt>
      <trkpt lat="43.65027" lon="3.7899">
        <ele>64</ele>
      </trkpt>
      <trkpt lat="43.65023" lon="3.78992">
        <ele>64</ele>
      </trkpt>
      <trkpt lat="43.65019" lon="3.78994">
        <ele>64</ele>
      </trkpt>
      <trkpt lat="43.65015" lon="3.78996">
        <ele>64</ele>
      </trkpt>
      <trkpt lat="43.65011" lon="3.78998">
        <ele>64</ele>
      </trkpt>
      <trkpt lat="43.65007" lon="3.79001">
        <ele>64</ele>
      </trkpt>
      <trkpt lat="43.65005" lon="3.79004">
        <ele>64</ele>
      </trkpt>
      <trkpt lat="43.65001" lon="3.79006">
        <ele>64</ele>
      </trkpt>
      <trkpt lat="43.64997" lon="3.79009">
        <ele>64</ele>
      </trkpt>
      <trkpt lat="43.64994" lon="3.79011">
        <ele>64</ele>
      </trkpt>
      <trkpt lat="43.64991" lon="3.79012">
        <ele>64</ele>
      </trkpt>
      <trkpt lat="43.64988" lon="3.79012">
        <ele>64</ele>
      </trkpt>
      <trkpt lat="43.64985" lon="3.79013">
        <ele>64</ele>
      </trkpt>
      <trkpt lat="43.64981" lon="3.79012">
        <ele>64</ele>
      </trkpt>
      <trkpt lat="43.64978" lon="3.79011">
        <ele>64</ele>
      </trkpt>
      <trkpt lat="43.64975" lon="3.7901">
        <ele>64</ele>
      </trkpt>
      <trkpt lat="43.64973" lon="3.79008">
        <ele>64</ele>
      </trkpt>
      <trkpt lat="43.64971" lon="3.79005">
        <ele>64</ele>
      </trkpt>
      <trkpt lat="43.64967" lon="3.79003">
        <ele>64</ele>
      </trkpt>
      <trkpt lat="43.64965" lon="3.79001">
        <ele>64</ele>
      </trkpt>
      <trkpt lat="43.64961" lon="3.79">
        <ele>64</ele>
      </trkpt>
      <trkpt lat="43.64957" lon="3.79001">
        <ele>64</ele>
      </trkpt>
      <trkpt lat="43.64954" lon="3.79003">
        <ele>64</ele>
      </trkpt>
      <trkpt lat="43.6495" lon="3.79004">
        <ele>65</ele>
      </trkpt>
      <trkpt lat="43.64947" lon="3.79007">
        <ele>65</ele>
      </trkpt>
      <trkpt lat="43.64944" lon="3.7901">
        <ele>65</ele>
      </trkpt>
      <trkpt lat="43.64941" lon="3.79013">
        <ele>65</ele>
      </trkpt>
      <trkpt lat="43.64938" lon="3.79016">
        <ele>65</ele>
      </trkpt>
      <trkpt lat="43.64936" lon="3.79018">
        <ele>65</ele>
      </trkpt>
      <trkpt lat="43.64933" lon="3.79021">
        <ele>65</ele>
      </trkpt>
      <trkpt lat="43.64929" lon="3.79024">
        <ele>65</ele>
      </trkpt>
      <trkpt lat="43.64926" lon="3.79027">
        <ele>65</ele>
      </trkpt>
      <trkpt lat="43.64923" lon="3.7903">
        <ele>65</ele>
      </trkpt>
      <trkpt lat="43.6492" lon="3.79032">
        <ele>65</ele>
      </trkpt>
      <trkpt lat="43.64917" lon="3.79034">
        <ele>65</ele>
      </trkpt>
      <trkpt lat="43.64914" lon="3.79036">
        <ele>65</ele>
      </trkpt>
      <trkpt lat="43.64911" lon="3.79038">
        <ele>65</ele>
      </trkpt>
      <trkpt lat="43.64908" lon="3.7904">
        <ele>65</ele>
      </trkpt>
      <trkpt lat="43.64905" lon="3.79042">
        <ele>65</ele>
      </trkpt>
      <trkpt lat="43.64902" lon="3.79044">
        <ele>65</ele>
      </trkpt>
      <trkpt lat="43.64898" lon="3.79045">
        <ele>65</ele>
      </trkpt>
      <trkpt lat="43.64895" lon="3.79047">
        <ele>65</ele>
      </trkpt>
      <trkpt lat="43.64892" lon="3.79049">
        <ele>65</ele>
      </trkpt>
      <trkpt lat="43.6489" lon="3.7905">
        <ele>66</ele>
      </trkpt>
      <trkpt lat="43.64888" lon="3.79052">
        <ele>66</ele>
      </trkpt>
      <trkpt lat="43.64886" lon="3.79054">
        <ele>66</ele>
      </trkpt>
      <trkpt lat="43.64883" lon="3.79057">
        <ele>66</ele>
      </trkpt>
      <trkpt lat="43.6488" lon="3.7906">
        <ele>66</ele>
      </trkpt>
      <trkpt lat="43.64877" lon="3.79063">
        <ele>66</ele>
      </trkpt>
      <trkpt lat="43.64874" lon="3.79066">
        <ele>66</ele>
      </trkpt>
      <trkpt lat="43.64871" lon="3.79069">
        <ele>66</ele>
      </trkpt>
      <trkpt lat="43.64868" lon="3.79072">
        <ele>66</ele>
      </trkpt>
      <trkpt lat="43.64865" lon="3.79074">
        <ele>66</ele>
      </trkpt>
      <trkpt lat="43.64862" lon="3.79077">
        <ele>66</ele>
      </trkpt>
      <trkpt lat="43.64859" lon="3.7908">
        <ele>66</ele>
      </trkpt>
      <trkpt lat="43.64856" lon="3.79082">
        <ele>66</ele>
      </trkpt>
      <trkpt lat="43.64853" lon="3.79085">
        <ele>66</ele>
      </trkpt>
      <trkpt lat="43.6485" lon="3.79088">
        <ele>66</ele>
      </trkpt>
      <trkpt lat="43.64846" lon="3.7909">
        <ele>66</ele>
      </trkpt>
      <trkpt lat="43.64844" lon="3.79093">
        <ele>66</ele>
      </trkpt>
      <trkpt lat="43.64841" lon="3.79097">
        <ele>66</ele>
      </trkpt>
      <trkpt lat="43.64837" lon="3.791">
        <ele>66</ele>
      </trkpt>
      <trkpt lat="43.64835" lon="3.79104">
        <ele>66</ele>
      </trkpt>
      <trkpt lat="43.64831" lon="3.79107">
        <ele>66</ele>
      </trkpt>
      <trkpt lat="43.64829" lon="3.79111">
        <ele>66</ele>
      </trkpt>
      <trkpt lat="43.64826" lon="3.79115">
        <ele>66</ele>
      </trkpt>
      <trkpt lat="43.64823" lon="3.79119">
        <ele>66</ele>
      </trkpt>
      <trkpt lat="43.6482" lon="3.79122">
        <ele>66</ele>
      </trkpt>
      <trkpt lat="43.64817" lon="3.79125">
        <ele>66</ele>
      </trkpt>
      <trkpt lat="43.64815" lon="3.79129">
        <ele>66</ele>
      </trkpt>
      <trkpt lat="43.64812" lon="3.79133">
        <ele>66</ele>
      </trkpt>
      <trkpt lat="43.64809" lon="3.79136">
        <ele>66</ele>
      </trkpt>
      <trkpt lat="43.64806" lon="3.7914">
        <ele>66</ele>
      </trkpt>
      <trkpt lat="43.64803" lon="3.79144">
        <ele>66</ele>
      </trkpt>
      <trkpt lat="43.64799" lon="3.79148">
        <ele>66</ele>
      </trkpt>
      <trkpt lat="43.64796" lon="3.79152">
        <ele>66</ele>
      </trkpt>
      <trkpt lat="43.64792" lon="3.79156">
        <ele>66</ele>
      </trkpt>
      <trkpt lat="43.64789" lon="3.7916">
        <ele>66</ele>
      </trkpt>
      <trkpt lat="43.64785" lon="3.79163">
        <ele>66</ele>
      </trkpt>
      <trkpt lat="43.64782" lon="3.79166">
        <ele>66</ele>
      </trkpt>
      <trkpt lat="43.64779" lon="3.79168">
        <ele>66</ele>
      </trkpt>
      <trkpt lat="43.64777" lon="3.7917">
        <ele>66</ele>
      </trkpt>
      <trkpt lat="43.64774" lon="3.79172">
        <ele>66</ele>
      </trkpt>
      <trkpt lat="43.64771" lon="3.79174">
        <ele>67</ele>
      </trkpt>
      <trkpt lat="43.64767" lon="3.79177">
        <ele>67</ele>
      </trkpt>
      <trkpt lat="43.64764" lon="3.79179">
        <ele>67</ele>
      </trkpt>
      <trkpt lat="43.64761" lon="3.79182">
        <ele>67</ele>
      </trkpt>
      <trkpt lat="43.64757" lon="3.79185">
        <ele>67</ele>
      </trkpt>
      <trkpt lat="43.64754" lon="3.79187">
        <ele>67</ele>
      </trkpt>
      <trkpt lat="43.64751" lon="3.7919">
        <ele>67</ele>
      </trkpt>
      <trkpt lat="43.64749" lon="3.79193">
        <ele>67</ele>
      </trkpt>
      <trkpt lat="43.64747" lon="3.79197">
        <ele>67</ele>
      </trkpt>
      <trkpt lat="43.64745" lon="3.79201">
        <ele>67</ele>
      </trkpt>
      <trkpt lat="43.64744" lon="3.79205">
        <ele>67</ele>
      </trkpt>
      <trkpt lat="43.64741" lon="3.79209">
        <ele>67</ele>
      </trkpt>
      <trkpt lat="43.64737" lon="3.79213">
        <ele>67</ele>
      </trkpt>
      <trkpt lat="43.64734" lon="3.79216">
        <ele>67</ele>
      </trkpt>
      <trkpt lat="43.64731" lon="3.79219">
        <ele>67</ele>
      </trkpt>
      <trkpt lat="43.64727" lon="3.7922">
        <ele>67</ele>
      </trkpt>
      <trkpt lat="43.64724" lon="3.7922">
        <ele>67</ele>
      </trkpt>
      <trkpt lat="43.64723" lon="3.7922">
        <ele>67</ele>
      </trkpt>
      <trkpt lat="43.64721" lon="3.79217">
        <ele>67</ele>
      </trkpt>
      <trkpt lat="43.64721" lon="3.79217">
        <ele>66</ele>
      </trkpt>
      <trkpt lat="43.64723" lon="3.79214">
        <ele>65</ele>
      </trkpt>
      <trkpt lat="43.64724" lon="3.79215">
        <ele>64</ele>
      </trkpt>
      <trkpt lat="43.64724" lon="3.79216">
        <ele>65</ele>
      </trkpt>
      <trkpt lat="43.64724" lon="3.79216">
        <ele>65</ele>
      </trkpt>
      <trkpt lat="43.64726" lon="3.79218">
        <ele>66</ele>
      </trkpt>
      <trkpt lat="43.64726" lon="3.79219">
        <ele>66</ele>
      </trkpt>
      <trkpt lat="43.64726" lon="3.79219">
        <ele>66</ele>
      </trkpt>
      <trkpt lat="43.64729" lon="3.79222">
        <ele>68</ele>
      </trkpt>
      <trkpt lat="43.64729" lon="3.79219">
        <ele>67</ele>
      </trkpt>
      <trkpt lat="43.64729" lon="3.79218">
        <ele>67</ele>
      </trkpt>
      <trkpt lat="43.64729" lon="3.79222">
        <ele>68</ele>
      </trkpt>
      <trkpt lat="43.64732" lon="3.79221">
        <ele>68</ele>
      </trkpt>
      <trkpt lat="43.64729" lon="3.79222">
        <ele>68</ele>
      </trkpt>
      <trkpt lat="43.6473" lon="3.79225">
        <ele>68</ele>
      </trkpt>
      <trkpt lat="43.6473" lon="3.79227">
        <ele>68</ele>
      </trkpt>
      <trkpt lat="43.64731" lon="3.79231">
        <ele>68</ele>
      </trkpt>
      <trkpt lat="43.64732" lon="3.79234">
        <ele>68</ele>
      </trkpt>
      <trkpt lat="43.64732" lon="3.79238">
        <ele>68</ele>
      </trkpt>
      <trkpt lat="43.6473" lon="3.79237">
        <ele>69</ele>
      </trkpt>
      <trkpt lat="43.64727" lon="3.79235">
        <ele>69</ele>
      </trkpt>
      <trkpt lat="43.64725" lon="3.79233">
        <ele>69</ele>
      </trkpt>
      <trkpt lat="43.64724" lon="3.79228">
        <ele>69</ele>
      </trkpt>
      <trkpt lat="43.64723" lon="3.79224">
        <ele>69</ele>
      </trkpt>
      <trkpt lat="43.64723" lon="3.7922">
        <ele>69</ele>
      </trkpt>
      <trkpt lat="43.64722" lon="3.79216">
        <ele>69</ele>
      </trkpt>
      <trkpt lat="43.64722" lon="3.79213">
        <ele>69</ele>
      </trkpt>
      <trkpt lat="43.64721" lon="3.79211">
        <ele>67</ele>
      </trkpt>
      <trkpt lat="43.64721" lon="3.79217">
        <ele>67</ele>
      </trkpt>
      <trkpt lat="43.6472" lon="3.79209">
        <ele>66</ele>
      </trkpt>
      <trkpt lat="43.64726" lon="3.79223">
        <ele>70</ele>
      </trkpt>
      <trkpt lat="43.64722" lon="3.7922">
        <ele>67</ele>
      </trkpt>
      <trkpt lat="43.64726" lon="3.79224">
        <ele>67</ele>
      </trkpt>
      <trkpt lat="43.64726" lon="3.79224">
        <ele>67</ele>
      </trkpt>
      <trkpt lat="43.64731" lon="3.79224">
        <ele>71</ele>
      </trkpt>
      <trkpt lat="43.64728" lon="3.79224">
        <ele>71</ele>
      </trkpt>
      <trkpt lat="43.64726" lon="3.79223">
        <ele>70</ele>
      </trkpt>
      <trkpt lat="43.64724" lon="3.79224">
        <ele>71</ele>
      </trkpt>
      <trkpt lat="43.64723" lon="3.79224">
        <ele>71</ele>
      </trkpt>
      <trkpt lat="43.64722" lon="3.79224">
        <ele>70</ele>
      </trkpt>
      <trkpt lat="43.64725" lon="3.79226">
        <ele>69</ele>
      </trkpt>
      <trkpt lat="43.64724" lon="3.79229">
        <ele>69</ele>
      </trkpt>
      <trkpt lat="43.64722" lon="3.79231">
        <ele>69</ele>
      </trkpt>
      <trkpt lat="43.64721" lon="3.79233">
        <ele>69</ele>
      </trkpt>
      <trkpt lat="43.64719" lon="3.79235">
        <ele>69</ele>
      </trkpt>
      <trkpt lat="43.64717" lon="3.79236">
        <ele>69</ele>
      </trkpt>
      <trkpt lat="43.64716" lon="3.79239">
        <ele>69</ele>
      </trkpt>
      <trkpt lat="43.64714" lon="3.79241">
        <ele>69</ele>
      </trkpt>
      <trkpt lat="43.64713" lon="3.79245">
        <ele>69</ele>
      </trkpt>
      <trkpt lat="43.64711" lon="3.79248">
        <ele>69</ele>
      </trkpt>
      <trkpt lat="43.6471" lon="3.79251">
        <ele>70</ele>
      </trkpt>
      <trkpt lat="43.64707" lon="3.79254">
        <ele>70</ele>
      </trkpt>
      <trkpt lat="43.64706" lon="3.79257">
        <ele>70</ele>
      </trkpt>
      <trkpt lat="43.64704" lon="3.79261">
        <ele>70</ele>
      </trkpt>
      <trkpt lat="43.64702" lon="3.79266">
        <ele>70</ele>
      </trkpt>
      <trkpt lat="43.64701" lon="3.79269">
        <ele>70</ele>
      </trkpt>
      <trkpt lat="43.647" lon="3.79272">
        <ele>70</ele>
      </trkpt>
      <trkpt lat="43.64699" lon="3.79275">
        <ele>70</ele>
      </trkpt>
      <trkpt lat="43.64698" lon="3.79278">
        <ele>69</ele>
      </trkpt>
      <trkpt lat="43.64696" lon="3.79281">
        <ele>69</ele>
      </trkpt>
      <trkpt lat="43.64694" lon="3.79282">
        <ele>69</ele>
      </trkpt>
      <trkpt lat="43.64692" lon="3.79283">
        <ele>69</ele>
      </trkpt>
      <trkpt lat="43.6469" lon="3.79284">
        <ele>69</ele>
      </trkpt>
      <trkpt lat="43.64687" lon="3.79285">
        <ele>69</ele>
      </trkpt>
      <trkpt lat="43.64684" lon="3.79286">
        <ele>69</ele>
      </trkpt>
      <trkpt lat="43.64682" lon="3.79287">
        <ele>69</ele>
      </trkpt>
      <trkpt lat="43.64678" lon="3.79287">
        <ele>69</ele>
      </trkpt>
      <trkpt lat="43.64675" lon="3.79287">
        <ele>69</ele>
      </trkpt>
      <trkpt lat="43.64673" lon="3.79287">
        <ele>69</ele>
      </trkpt>
      <trkpt lat="43.6467" lon="3.7929">
        <ele>69</ele>
      </trkpt>
      <trkpt lat="43.64668" lon="3.79293">
        <ele>69</ele>
      </trkpt>
      <trkpt lat="43.64666" lon="3.79296">
        <ele>69</ele>
      </trkpt>
      <trkpt lat="43.64665" lon="3.793">
        <ele>69</ele>
      </trkpt>
      <trkpt lat="43.64663" lon="3.79304">
        <ele>69</ele>
      </trkpt>
      <trkpt lat="43.64661" lon="3.79308">
        <ele>69</ele>
      </trkpt>
      <trkpt lat="43.6466" lon="3.79313">
        <ele>69</ele>
      </trkpt>
      <trkpt lat="43.64658" lon="3.79318">
        <ele>69</ele>
      </trkpt>
      <trkpt lat="43.64658" lon="3.79323">
        <ele>69</ele>
      </trkpt>
      <trkpt lat="43.64656" lon="3.79328">
        <ele>69</ele>
      </trkpt>
      <trkpt lat="43.64655" lon="3.79332">
        <ele>69</ele>
      </trkpt>
      <trkpt lat="43.64654" lon="3.79338">
        <ele>69</ele>
      </trkpt>
      <trkpt lat="43.64653" lon="3.79343">
        <ele>69</ele>
      </trkpt>
      <trkpt lat="43.64651" lon="3.79348">
        <ele>69</ele>
      </trkpt>
      <trkpt lat="43.64649" lon="3.79353">
        <ele>69</ele>
      </trkpt>
      <trkpt lat="43.64647" lon="3.79359">
        <ele>69</ele>
      </trkpt>
      <trkpt lat="43.64645" lon="3.79364">
        <ele>69</ele>
      </trkpt>
      <trkpt lat="43.64643" lon="3.7937">
        <ele>68</ele>
      </trkpt>
      <trkpt lat="43.64641" lon="3.79375">
        <ele>68</ele>
      </trkpt>
      <trkpt lat="43.64639" lon="3.7938">
        <ele>68</ele>
      </trkpt>
      <trkpt lat="43.64639" lon="3.79383">
        <ele>68</ele>
      </trkpt>
      <trkpt lat="43.64638" lon="3.79387">
        <ele>68</ele>
      </trkpt>
      <trkpt lat="43.64637" lon="3.79391">
        <ele>68</ele>
      </trkpt>
      <trkpt lat="43.64634" lon="3.79396">
        <ele>68</ele>
      </trkpt>
      <trkpt lat="43.64632" lon="3.79401">
        <ele>68</ele>
      </trkpt>
      <trkpt lat="43.6463" lon="3.79405">
        <ele>68</ele>
      </trkpt>
      <trkpt lat="43.64626" lon="3.7941">
        <ele>68</ele>
      </trkpt>
      <trkpt lat="43.64622" lon="3.79413">
        <ele>68</ele>
      </trkpt>
      <trkpt lat="43.64618" lon="3.79416">
        <ele>68</ele>
      </trkpt>
      <trkpt lat="43.64614" lon="3.79419">
        <ele>68</ele>
      </trkpt>
      <trkpt lat="43.64611" lon="3.79423">
        <ele>68</ele>
      </trkpt>
      <trkpt lat="43.64608" lon="3.79427">
        <ele>68</ele>
      </trkpt>
      <trkpt lat="43.64604" lon="3.79431">
        <ele>68</ele>
      </trkpt>
      <trkpt lat="43.64601" lon="3.79435">
        <ele>68</ele>
      </trkpt>
      <trkpt lat="43.64598" lon="3.79439">
        <ele>68</ele>
      </trkpt>
      <trkpt lat="43.64596" lon="3.79444">
        <ele>68</ele>
      </trkpt>
      <trkpt lat="43.64595" lon="3.79448">
        <ele>68</ele>
      </trkpt>
      <trkpt lat="43.64594" lon="3.79452">
        <ele>67</ele>
      </trkpt>
      <trkpt lat="43.64592" lon="3.79455">
        <ele>67</ele>
      </trkpt>
      <trkpt lat="43.6459" lon="3.79457">
        <ele>67</ele>
      </trkpt>
      <trkpt lat="43.6459" lon="3.7946">
        <ele>67</ele>
      </trkpt>
      <trkpt lat="43.6459" lon="3.79463">
        <ele>67</ele>
      </trkpt>
      <trkpt lat="43.64591" lon="3.79466">
        <ele>67</ele>
      </trkpt>
      <trkpt lat="43.64593" lon="3.79468">
        <ele>67</ele>
      </trkpt>
      <trkpt lat="43.64596" lon="3.7947">
        <ele>67</ele>
      </trkpt>
      <trkpt lat="43.64598" lon="3.79473">
        <ele>67</ele>
      </trkpt>
      <trkpt lat="43.64599" lon="3.79477">
        <ele>67</ele>
      </trkpt>
      <trkpt lat="43.64598" lon="3.7948">
        <ele>66</ele>
      </trkpt>
      <trkpt lat="43.64596" lon="3.79483">
        <ele>66</ele>
      </trkpt>
      <trkpt lat="43.64595" lon="3.79485">
        <ele>66</ele>
      </trkpt>
      <trkpt lat="43.64593" lon="3.79488">
        <ele>66</ele>
      </trkpt>
      <trkpt lat="43.64591" lon="3.79492">
        <ele>66</ele>
      </trkpt>
      <trkpt lat="43.64589" lon="3.79496">
        <ele>66</ele>
      </trkpt>
      <trkpt lat="43.64587" lon="3.795">
        <ele>66</ele>
      </trkpt>
      <trkpt lat="43.64586" lon="3.79504">
        <ele>66</ele>
      </trkpt>
      <trkpt lat="43.64584" lon="3.79508">
        <ele>66</ele>
      </trkpt>
      <trkpt lat="43.64582" lon="3.79512">
        <ele>66</ele>
      </trkpt>
      <trkpt lat="43.6458" lon="3.79516">
        <ele>65</ele>
      </trkpt>
      <trkpt lat="43.64579" lon="3.7952">
        <ele>65</ele>
      </trkpt>
      <trkpt lat="43.64577" lon="3.79524">
        <ele>65</ele>
      </trkpt>
      <trkpt lat="43.64576" lon="3.79529">
        <ele>65</ele>
      </trkpt>
      <trkpt lat="43.64574" lon="3.79532">
        <ele>65</ele>
      </trkpt>
      <trkpt lat="43.64573" lon="3.79537">
        <ele>65</ele>
      </trkpt>
      <trkpt lat="43.64571" lon="3.79541">
        <ele>65</ele>
      </trkpt>
      <trkpt lat="43.6457" lon="3.79546">
        <ele>65</ele>
      </trkpt>
      <trkpt lat="43.64569" lon="3.79551">
        <ele>65</ele>
      </trkpt>
      <trkpt lat="43.64568" lon="3.79555">
        <ele>65</ele>
      </trkpt>
      <trkpt lat="43.64567" lon="3.7956">
        <ele>64</ele>
      </trkpt>
      <trkpt lat="43.64565" lon="3.79565">
        <ele>64</ele>
      </trkpt>
      <trkpt lat="43.64564" lon="3.7957">
        <ele>64</ele>
      </trkpt>
      <trkpt lat="43.64563" lon="3.79574">
        <ele>64</ele>
      </trkpt>
      <trkpt lat="43.64563" lon="3.79579">
        <ele>64</ele>
      </trkpt>
      <trkpt lat="43.64562" lon="3.79584">
        <ele>64</ele>
      </trkpt>
      <trkpt lat="43.64562" lon="3.79589">
        <ele>64</ele>
      </trkpt>
      <trkpt lat="43.64562" lon="3.79594">
        <ele>64</ele>
      </trkpt>
      <trkpt lat="43.64561" lon="3.79599">
        <ele>64</ele>
      </trkpt>
      <trkpt lat="43.64559" lon="3.79604">
        <ele>64</ele>
      </trkpt>
      <trkpt lat="43.64558" lon="3.79608">
        <ele>62</ele>
      </trkpt>
      <trkpt lat="43.64556" lon="3.79614">
        <ele>62</ele>
      </trkpt>
      <trkpt lat="43.64553" lon="3.79619">
        <ele>62</ele>
      </trkpt>
      <trkpt lat="43.64552" lon="3.79624">
        <ele>62</ele>
      </trkpt>
      <trkpt lat="43.6455" lon="3.79629">
        <ele>62</ele>
      </trkpt>
      <trkpt lat="43.64548" lon="3.79635">
        <ele>62</ele>
      </trkpt>
      <trkpt lat="43.64546" lon="3.7964">
        <ele>62</ele>
      </trkpt>
      <trkpt lat="43.64544" lon="3.79645">
        <ele>62</ele>
      </trkpt>
      <trkpt lat="43.64542" lon="3.7965">
        <ele>62</ele>
      </trkpt>
      <trkpt lat="43.64539" lon="3.79655">
        <ele>62</ele>
      </trkpt>
      <trkpt lat="43.64538" lon="3.7966">
        <ele>61</ele>
      </trkpt>
      <trkpt lat="43.64537" lon="3.79664">
        <ele>61</ele>
      </trkpt>
      <trkpt lat="43.64535" lon="3.79669">
        <ele>61</ele>
      </trkpt>
      <trkpt lat="43.64532" lon="3.79672">
        <ele>61</ele>
      </trkpt>
      <trkpt lat="43.64529" lon="3.79677">
        <ele>61</ele>
      </trkpt>
      <trkpt lat="43.64527" lon="3.79681">
        <ele>61</ele>
      </trkpt>
      <trkpt lat="43.64524" lon="3.79684">
        <ele>61</ele>
      </trkpt>
      <trkpt lat="43.6452" lon="3.7969">
        <ele>61</ele>
      </trkpt>
      <trkpt lat="43.64518" lon="3.79695">
        <ele>61</ele>
      </trkpt>
      <trkpt lat="43.64516" lon="3.79699">
        <ele>61</ele>
      </trkpt>
      <trkpt lat="43.64514" lon="3.79703">
        <ele>61</ele>
      </trkpt>
      <trkpt lat="43.64512" lon="3.79708">
        <ele>61</ele>
      </trkpt>
      <trkpt lat="43.6451" lon="3.79713">
        <ele>61</ele>
      </trkpt>
      <trkpt lat="43.64508" lon="3.79718">
        <ele>61</ele>
      </trkpt>
      <trkpt lat="43.64506" lon="3.79724">
        <ele>61</ele>
      </trkpt>
      <trkpt lat="43.64504" lon="3.79729">
        <ele>61</ele>
      </trkpt>
      <trkpt lat="43.64502" lon="3.79735">
        <ele>61</ele>
      </trkpt>
      <trkpt lat="43.645" lon="3.7974">
        <ele>61</ele>
      </trkpt>
      <trkpt lat="43.64498" lon="3.79744">
        <ele>61</ele>
      </trkpt>
      <trkpt lat="43.64496" lon="3.79748">
        <ele>61</ele>
      </trkpt>
      <trkpt lat="43.64493" lon="3.79752">
        <ele>61</ele>
      </trkpt>
      <trkpt lat="43.64491" lon="3.79756">
        <ele>61</ele>
      </trkpt>
      <trkpt lat="43.64488" lon="3.7976">
        <ele>61</ele>
      </trkpt>
      <trkpt lat="43.64485" lon="3.79763">
        <ele>61</ele>
      </trkpt>
      <trkpt lat="43.64482" lon="3.79766">
        <ele>61</ele>
      </trkpt>
      <trkpt lat="43.64478" lon="3.79768">
        <ele>61</ele>
      </trkpt>
      <trkpt lat="43.64474" lon="3.7977">
        <ele>61</ele>
      </trkpt>
      <trkpt lat="43.64471" lon="3.79772">
        <ele>61</ele>
      </trkpt>
      <trkpt lat="43.64468" lon="3.79774">
        <ele>61</ele>
      </trkpt>
      <trkpt lat="43.64465" lon="3.79776">
        <ele>61</ele>
      </trkpt>
      <trkpt lat="43.64462" lon="3.79779">
        <ele>61</ele>
      </trkpt>
      <trkpt lat="43.6446" lon="3.79781">
        <ele>61</ele>
      </trkpt>
      <trkpt lat="43.64458" lon="3.79784">
        <ele>61</ele>
      </trkpt>
      <trkpt lat="43.64455" lon="3.79786">
        <ele>61</ele>
      </trkpt>
      <trkpt lat="43.64453" lon="3.79786">
        <ele>61</ele>
      </trkpt>
      <trkpt lat="43.6445" lon="3.79786">
        <ele>61</ele>
      </trkpt>
      <trkpt lat="43.64448" lon="3.79786">
        <ele>61</ele>
      </trkpt>
      <trkpt lat="43.64445" lon="3.79787">
        <ele>61</ele>
      </trkpt>
      <trkpt lat="43.64442" lon="3.79789">
        <ele>61</ele>
      </trkpt>
      <trkpt lat="43.64438" lon="3.79789">
        <ele>61</ele>
      </trkpt>
      <trkpt lat="43.64434" lon="3.79791">
        <ele>61</ele>
      </trkpt>
      <trkpt lat="43.64429" lon="3.79792">
        <ele>61</ele>
      </trkpt>
      <trkpt lat="43.64425" lon="3.79793">
        <ele>61</ele>
      </trkpt>
      <trkpt lat="43.6442" lon="3.79793">
        <ele>61</ele>
      </trkpt>
      <trkpt lat="43.64416" lon="3.79792">
        <ele>61</ele>
      </trkpt>
      <trkpt lat="43.64411" lon="3.7979">
        <ele>61</ele>
      </trkpt>
      <trkpt lat="43.64408" lon="3.79789">
        <ele>61</ele>
      </trkpt>
      <trkpt lat="43.64404" lon="3.79788">
        <ele>61</ele>
      </trkpt>
      <trkpt lat="43.64401" lon="3.79787">
        <ele>61</ele>
      </trkpt>
      <trkpt lat="43.64398" lon="3.79785">
        <ele>61</ele>
      </trkpt>
      <trkpt lat="43.64395" lon="3.79783">
        <ele>61</ele>
      </trkpt>
      <trkpt lat="43.64392" lon="3.79783">
        <ele>61</ele>
      </trkpt>
      <trkpt lat="43.64388" lon="3.79782">
        <ele>61</ele>
      </trkpt>
      <trkpt lat="43.64384" lon="3.79781">
        <ele>61</ele>
      </trkpt>
      <trkpt lat="43.6438" lon="3.79782">
        <ele>61</ele>
      </trkpt>
      <trkpt lat="43.64376" lon="3.79782">
        <ele>61</ele>
      </trkpt>
      <trkpt lat="43.64372" lon="3.79784">
        <ele>61</ele>
      </trkpt>
      <trkpt lat="43.64367" lon="3.79785">
        <ele>61</ele>
      </trkpt>
      <trkpt lat="43.64363" lon="3.79787">
        <ele>61</ele>
      </trkpt>
      <trkpt lat="43.64358" lon="3.79788">
        <ele>61</ele>
      </trkpt>
      <trkpt lat="43.64354" lon="3.79789">
        <ele>60</ele>
      </trkpt>
      <trkpt lat="43.64349" lon="3.79791">
        <ele>60</ele>
      </trkpt>
      <trkpt lat="43.64345" lon="3.79793">
        <ele>60</ele>
      </trkpt>
      <trkpt lat="43.6434" lon="3.79796">
        <ele>60</ele>
      </trkpt>
      <trkpt lat="43.64336" lon="3.79798">
        <ele>60</ele>
      </trkpt>
      <trkpt lat="43.6433" lon="3.79801">
        <ele>60</ele>
      </trkpt>
      <trkpt lat="43.64327" lon="3.79804">
        <ele>60</ele>
      </trkpt>
      <trkpt lat="43.64323" lon="3.79807">
        <ele>60</ele>
      </trkpt>
      <trkpt lat="43.64318" lon="3.79811">
        <ele>60</ele>
      </trkpt>
      <trkpt lat="43.64314" lon="3.79814">
        <ele>60</ele>
      </trkpt>
      <trkpt lat="43.6431" lon="3.79817">
        <ele>60</ele>
      </trkpt>
      <trkpt lat="43.64306" lon="3.79818">
        <ele>60</ele>
      </trkpt>
      <trkpt lat="43.64301" lon="3.7982">
        <ele>60</ele>
      </trkpt>
      <trkpt lat="43.64296" lon="3.79821">
        <ele>60</ele>
      </trkpt>
      <trkpt lat="43.64292" lon="3.79822">
        <ele>60</ele>
      </trkpt>
      <trkpt lat="43.64288" lon="3.79824">
        <ele>60</ele>
      </trkpt>
      <trkpt lat="43.64284" lon="3.79825">
        <ele>60</ele>
      </trkpt>
      <trkpt lat="43.6428" lon="3.79826">
        <ele>60</ele>
      </trkpt>
      <trkpt lat="43.64276" lon="3.79829">
        <ele>60</ele>
      </trkpt>
      <trkpt lat="43.64273" lon="3.79831">
        <ele>60</ele>
      </trkpt>
      <trkpt lat="43.64269" lon="3.79833">
        <ele>60</ele>
      </trkpt>
      <trkpt lat="43.64265" lon="3.79834">
        <ele>60</ele>
      </trkpt>
      <trkpt lat="43.64261" lon="3.79837">
        <ele>60</ele>
      </trkpt>
      <trkpt lat="43.64258" lon="3.79839">
        <ele>60</ele>
      </trkpt>
      <trkpt lat="43.64254" lon="3.79842">
        <ele>60</ele>
      </trkpt>
      <trkpt lat="43.64251" lon="3.79844">
        <ele>60</ele>
      </trkpt>
      <trkpt lat="43.64247" lon="3.79846">
        <ele>60</ele>
      </trkpt>
      <trkpt lat="43.64244" lon="3.79848">
        <ele>60</ele>
      </trkpt>
      <trkpt lat="43.64241" lon="3.79851">
        <ele>60</ele>
      </trkpt>
      <trkpt lat="43.64238" lon="3.79852">
        <ele>60</ele>
      </trkpt>
      <trkpt lat="43.64234" lon="3.79855">
        <ele>60</ele>
      </trkpt>
      <trkpt lat="43.64231" lon="3.79857">
        <ele>60</ele>
      </trkpt>
      <trkpt lat="43.64227" lon="3.79859">
        <ele>60</ele>
      </trkpt>
      <trkpt lat="43.64224" lon="3.79861">
        <ele>60</ele>
      </trkpt>
      <trkpt lat="43.64221" lon="3.79863">
        <ele>60</ele>
      </trkpt>
      <trkpt lat="43.64219" lon="3.79867">
        <ele>60</ele>
      </trkpt>
      <trkpt lat="43.64218" lon="3.79871">
        <ele>60</ele>
      </trkpt>
      <trkpt lat="43.64218" lon="3.79877">
        <ele>60</ele>
      </trkpt>
      <trkpt lat="43.64219" lon="3.79884">
        <ele>60</ele>
      </trkpt>
      <trkpt lat="43.64218" lon="3.79891">
        <ele>60</ele>
      </trkpt>
      <trkpt lat="43.64216" lon="3.79896">
        <ele>59</ele>
      </trkpt>
      <trkpt lat="43.64212" lon="3.79898">
        <ele>59</ele>
      </trkpt>
      <trkpt lat="43.64208" lon="3.79899">
        <ele>59</ele>
      </trkpt>
      <trkpt lat="43.64203" lon="3.79897">
        <ele>59</ele>
      </trkpt>
      <trkpt lat="43.64199" lon="3.79897">
        <ele>59</ele>
      </trkpt>
      <trkpt lat="43.64194" lon="3.79897">
        <ele>59</ele>
      </trkpt>
      <trkpt lat="43.6419" lon="3.79897">
        <ele>59</ele>
      </trkpt>
      <trkpt lat="43.64186" lon="3.799">
        <ele>59</ele>
      </trkpt>
      <trkpt lat="43.64181" lon="3.79903">
        <ele>59</ele>
      </trkpt>
      <trkpt lat="43.64177" lon="3.79906">
        <ele>59</ele>
      </trkpt>
      <trkpt lat="43.64173" lon="3.7991">
        <ele>59</ele>
      </trkpt>
      <trkpt lat="43.64168" lon="3.79914">
        <ele>59</ele>
      </trkpt>
      <trkpt lat="43.64164" lon="3.79917">
        <ele>59</ele>
      </trkpt>
      <trkpt lat="43.6416" lon="3.7992">
        <ele>59</ele>
      </trkpt>
      <trkpt lat="43.64156" lon="3.79923">
        <ele>59</ele>
      </trkpt>
      <trkpt lat="43.64153" lon="3.79927">
        <ele>59</ele>
      </trkpt>
      <trkpt lat="43.64149" lon="3.7993">
        <ele>59</ele>
      </trkpt>
      <trkpt lat="43.64145" lon="3.79933">
        <ele>59</ele>
      </trkpt>
      <trkpt lat="43.64141" lon="3.79937">
        <ele>59</ele>
      </trkpt>
      <trkpt lat="43.64138" lon="3.7994">
        <ele>59</ele>
      </trkpt>
      <trkpt lat="43.64133" lon="3.79943">
        <ele>59</ele>
      </trkpt>
      <trkpt lat="43.64129" lon="3.79946">
        <ele>59</ele>
      </trkpt>
      <trkpt lat="43.64124" lon="3.7995">
        <ele>59</ele>
      </trkpt>
      <trkpt lat="43.6412" lon="3.79953">
        <ele>59</ele>
      </trkpt>
      <trkpt lat="43.64116" lon="3.79957">
        <ele>59</ele>
      </trkpt>
      <trkpt lat="43.64111" lon="3.7996">
        <ele>59</ele>
      </trkpt>
      <trkpt lat="43.64107" lon="3.79963">
        <ele>59</ele>
      </trkpt>
      <trkpt lat="43.64103" lon="3.79967">
        <ele>59</ele>
      </trkpt>
      <trkpt lat="43.641" lon="3.79969">
        <ele>59</ele>
      </trkpt>
      <trkpt lat="43.64096" lon="3.79973">
        <ele>59</ele>
      </trkpt>
      <trkpt lat="43.64092" lon="3.79976">
        <ele>58</ele>
      </trkpt>
      <trkpt lat="43.64088" lon="3.79979">
        <ele>58</ele>
      </trkpt>
      <trkpt lat="43.64084" lon="3.79982">
        <ele>58</ele>
      </trkpt>
      <trkpt lat="43.64079" lon="3.79984">
        <ele>58</ele>
      </trkpt>
      <trkpt lat="43.64075" lon="3.79986">
        <ele>58</ele>
      </trkpt>
      <trkpt lat="43.64071" lon="3.79989">
        <ele>58</ele>
      </trkpt>
      <trkpt lat="43.64067" lon="3.79993">
        <ele>58</ele>
      </trkpt>
      <trkpt lat="43.64063" lon="3.79995">
        <ele>58</ele>
      </trkpt>
      <trkpt lat="43.64059" lon="3.79998">
        <ele>58</ele>
      </trkpt>
      <trkpt lat="43.64056" lon="3.8">
        <ele>58</ele>
      </trkpt>
      <trkpt lat="43.64053" lon="3.80002">
        <ele>57</ele>
      </trkpt>
      <trkpt lat="43.64049" lon="3.80005">
        <ele>57</ele>
      </trkpt>
      <trkpt lat="43.64046" lon="3.80007">
        <ele>57</ele>
      </trkpt>
      <trkpt lat="43.64042" lon="3.80011">
        <ele>57</ele>
      </trkpt>
      <trkpt lat="43.64039" lon="3.80014">
        <ele>57</ele>
      </trkpt>
      <trkpt lat="43.64035" lon="3.80016">
        <ele>57</ele>
      </trkpt>
      <trkpt lat="43.64031" lon="3.8002">
        <ele>57</ele>
      </trkpt>
      <trkpt lat="43.64028" lon="3.80022">
        <ele>57</ele>
      </trkpt>
      <trkpt lat="43.64024" lon="3.80025">
        <ele>57</ele>
      </trkpt>
      <trkpt lat="43.6402" lon="3.80028">
        <ele>57</ele>
      </trkpt>
      <trkpt lat="43.64017" lon="3.80031">
        <ele>57</ele>
      </trkpt>
      <trkpt lat="43.64013" lon="3.80034">
        <ele>57</ele>
      </trkpt>
      <trkpt lat="43.64009" lon="3.80037">
        <ele>57</ele>
      </trkpt>
      <trkpt lat="43.64005" lon="3.8004">
        <ele>57</ele>
      </trkpt>
      <trkpt lat="43.64002" lon="3.80042">
        <ele>57</ele>
      </trkpt>
      <trkpt lat="43.63998" lon="3.80046">
        <ele>57</ele>
      </trkpt>
      <trkpt lat="43.63995" lon="3.80049">
        <ele>57</ele>
      </trkpt>
      <trkpt lat="43.63991" lon="3.80052">
        <ele>57</ele>
      </trkpt>
      <trkpt lat="43.63987" lon="3.80055">
        <ele>57</ele>
      </trkpt>
      <trkpt lat="43.63984" lon="3.80057">
        <ele>57</ele>
      </trkpt>
      <trkpt lat="43.6398" lon="3.8006">
        <ele>56</ele>
      </trkpt>
      <trkpt lat="43.63975" lon="3.80062">
        <ele>56</ele>
      </trkpt>
      <trkpt lat="43.63971" lon="3.80065">
        <ele>56</ele>
      </trkpt>
      <trkpt lat="43.63967" lon="3.80068">
        <ele>56</ele>
      </trkpt>
      <trkpt lat="43.63963" lon="3.8007">
        <ele>56</ele>
      </trkpt>
      <trkpt lat="43.63959" lon="3.80073">
        <ele>56</ele>
      </trkpt>
      <trkpt lat="43.63955" lon="3.80076">
        <ele>56</ele>
      </trkpt>
      <trkpt lat="43.63951" lon="3.80078">
        <ele>56</ele>
      </trkpt>
      <trkpt lat="43.63947" lon="3.8008">
        <ele>56</ele>
      </trkpt>
      <trkpt lat="43.63943" lon="3.80082">
        <ele>56</ele>
      </trkpt>
      <trkpt lat="43.63939" lon="3.80084">
        <ele>56</ele>
      </trkpt>
      <trkpt lat="43.63935" lon="3.80087">
        <ele>56</ele>
      </trkpt>
      <trkpt lat="43.63931" lon="3.80088">
        <ele>56</ele>
      </trkpt>
      <trkpt lat="43.63926" lon="3.80091">
        <ele>56</ele>
      </trkpt>
      <trkpt lat="43.63923" lon="3.80093">
        <ele>56</ele>
      </trkpt>
      <trkpt lat="43.63918" lon="3.80094">
        <ele>56</ele>
      </trkpt>
      <trkpt lat="43.63915" lon="3.80096">
        <ele>56</ele>
      </trkpt>
      <trkpt lat="43.63911" lon="3.80099">
        <ele>56</ele>
      </trkpt>
      <trkpt lat="43.63907" lon="3.801">
        <ele>56</ele>
      </trkpt>
      <trkpt lat="43.63903" lon="3.80102">
        <ele>56</ele>
      </trkpt>
      <trkpt lat="43.639" lon="3.80103">
        <ele>55</ele>
      </trkpt>
      <trkpt lat="43.63896" lon="3.80103">
        <ele>55</ele>
      </trkpt>
      <trkpt lat="43.63894" lon="3.80104">
        <ele>55</ele>
      </trkpt>
      <trkpt lat="43.6389" lon="3.80106">
        <ele>55</ele>
      </trkpt>
      <trkpt lat="43.63888" lon="3.80107">
        <ele>55</ele>
      </trkpt>
      <trkpt lat="43.63886" lon="3.80108">
        <ele>55</ele>
      </trkpt>
      <trkpt lat="43.63884" lon="3.8011">
        <ele>55</ele>
      </trkpt>
      <trkpt lat="43.63881" lon="3.80112">
        <ele>55</ele>
      </trkpt>
      <trkpt lat="43.63879" lon="3.80113">
        <ele>55</ele>
      </trkpt>
      <trkpt lat="43.63876" lon="3.80115">
        <ele>55</ele>
      </trkpt>
      <trkpt lat="43.63874" lon="3.80116">
        <ele>55</ele>
      </trkpt>
      <trkpt lat="43.63872" lon="3.80118">
        <ele>55</ele>
      </trkpt>
      <trkpt lat="43.6387" lon="3.8012">
        <ele>55</ele>
      </trkpt>
      <trkpt lat="43.63868" lon="3.80123">
        <ele>55</ele>
      </trkpt>
      <trkpt lat="43.63866" lon="3.80127">
        <ele>55</ele>
      </trkpt>
      <trkpt lat="43.63864" lon="3.8013">
        <ele>55</ele>
      </trkpt>
      <trkpt lat="43.6386" lon="3.80134">
        <ele>55</ele>
      </trkpt>
      <trkpt lat="43.63857" lon="3.80137">
        <ele>55</ele>
      </trkpt>
      <trkpt lat="43.63853" lon="3.80139">
        <ele>55</ele>
      </trkpt>
      <trkpt lat="43.6385" lon="3.80141">
        <ele>55</ele>
      </trkpt>
      <trkpt lat="43.63847" lon="3.80143">
        <ele>55</ele>
      </trkpt>
      <trkpt lat="43.63844" lon="3.80145">
        <ele>55</ele>
      </trkpt>
      <trkpt lat="43.63841" lon="3.80147">
        <ele>55</ele>
      </trkpt>
      <trkpt lat="43.63837" lon="3.8015">
        <ele>55</ele>
      </trkpt>
      <trkpt lat="43.63834" lon="3.80153">
        <ele>55</ele>
      </trkpt>
      <trkpt lat="43.63831" lon="3.80156">
        <ele>55</ele>
      </trkpt>
      <trkpt lat="43.63828" lon="3.80158">
        <ele>55</ele>
      </trkpt>
      <trkpt lat="43.63824" lon="3.80161">
        <ele>55</ele>
      </trkpt>
      <trkpt lat="43.63821" lon="3.80164">
        <ele>55</ele>
      </trkpt>
      <trkpt lat="43.63817" lon="3.80167">
        <ele>55</ele>
      </trkpt>
      <trkpt lat="43.63815" lon="3.80171">
        <ele>55</ele>
      </trkpt>
      <trkpt lat="43.63811" lon="3.80175">
        <ele>55</ele>
      </trkpt>
      <trkpt lat="43.63808" lon="3.80179">
        <ele>55</ele>
      </trkpt>
      <trkpt lat="43.63804" lon="3.80182">
        <ele>55</ele>
      </trkpt>
      <trkpt lat="43.638" lon="3.80186">
        <ele>55</ele>
      </trkpt>
      <trkpt lat="43.63798" lon="3.80191">
        <ele>55</ele>
      </trkpt>
      <trkpt lat="43.63795" lon="3.80196">
        <ele>55</ele>
      </trkpt>
      <trkpt lat="43.63792" lon="3.802">
        <ele>55</ele>
      </trkpt>
      <trkpt lat="43.63791" lon="3.80205">
        <ele>55</ele>
      </trkpt>
      <trkpt lat="43.63789" lon="3.8021">
        <ele>55</ele>
      </trkpt>
      <trkpt lat="43.63787" lon="3.80215">
        <ele>54</ele>
      </trkpt>
      <trkpt lat="43.63786" lon="3.8022">
        <ele>54</ele>
      </trkpt>
      <trkpt lat="43.63785" lon="3.80226">
        <ele>54</ele>
      </trkpt>
      <trkpt lat="43.63784" lon="3.80231">
        <ele>54</ele>
      </trkpt>
      <trkpt lat="43.63784" lon="3.80237">
        <ele>54</ele>
      </trkpt>
      <trkpt lat="43.63783" lon="3.80242">
        <ele>54</ele>
      </trkpt>
      <trkpt lat="43.63783" lon="3.80248">
        <ele>54</ele>
      </trkpt>
      <trkpt lat="43.63783" lon="3.80254">
        <ele>54</ele>
      </trkpt>
      <trkpt lat="43.63783" lon="3.8026">
        <ele>54</ele>
      </trkpt>
      <trkpt lat="43.63784" lon="3.80266">
        <ele>54</ele>
      </trkpt>
      <trkpt lat="43.63785" lon="3.80272">
        <ele>54</ele>
      </trkpt>
      <trkpt lat="43.63786" lon="3.80278">
        <ele>54</ele>
      </trkpt>
      <trkpt lat="43.63788" lon="3.80282">
        <ele>54</ele>
      </trkpt>
      <trkpt lat="43.6379" lon="3.80288">
        <ele>54</ele>
      </trkpt>
      <trkpt lat="43.63792" lon="3.80293">
        <ele>54</ele>
      </trkpt>
      <trkpt lat="43.63793" lon="3.80298">
        <ele>54</ele>
      </trkpt>
      <trkpt lat="43.63795" lon="3.80302">
        <ele>54</ele>
      </trkpt>
      <trkpt lat="43.63797" lon="3.80306">
        <ele>54</ele>
      </trkpt>
      <trkpt lat="43.63799" lon="3.8031">
        <ele>54</ele>
      </trkpt>
      <trkpt lat="43.63801" lon="3.80315">
        <ele>54</ele>
      </trkpt>
      <trkpt lat="43.63803" lon="3.80319">
        <ele>53</ele>
      </trkpt>
      <trkpt lat="43.63805" lon="3.80323">
        <ele>53</ele>
      </trkpt>
      <trkpt lat="43.63808" lon="3.80327">
        <ele>53</ele>
      </trkpt>
      <trkpt lat="43.6381" lon="3.80331">
        <ele>53</ele>
      </trkpt>
      <trkpt lat="43.63813" lon="3.80336">
        <ele>53</ele>
      </trkpt>
      <trkpt lat="43.63815" lon="3.8034">
        <ele>53</ele>
      </trkpt>
      <trkpt lat="43.63818" lon="3.80345">
        <ele>53</ele>
      </trkpt>
      <trkpt lat="43.63821" lon="3.80348">
        <ele>53</ele>
      </trkpt>
      <trkpt lat="43.63825" lon="3.80351">
        <ele>53</ele>
      </trkpt>
      <trkpt lat="43.63828" lon="3.80352">
        <ele>53</ele>
      </trkpt>
      <trkpt lat="43.63832" lon="3.80353">
        <ele>54</ele>
      </trkpt>
      <trkpt lat="43.63836" lon="3.80354">
        <ele>54</ele>
      </trkpt>
      <trkpt lat="43.63839" lon="3.80355">
        <ele>54</ele>
      </trkpt>
      <trkpt lat="43.63841" lon="3.80359">
        <ele>54</ele>
      </trkpt>
      <trkpt lat="43.63842" lon="3.80364">
        <ele>54</ele>
      </trkpt>
      <trkpt lat="43.63843" lon="3.80369">
        <ele>54</ele>
      </trkpt>
      <trkpt lat="43.63842" lon="3.80374">
        <ele>54</ele>
      </trkpt>
      <trkpt lat="43.63842" lon="3.8038">
        <ele>54</ele>
      </trkpt>
      <trkpt lat="43.63843" lon="3.80386">
        <ele>54</ele>
      </trkpt>
      <trkpt lat="43.63845" lon="3.8039">
        <ele>54</ele>
      </trkpt>
      <trkpt lat="43.63848" lon="3.80394">
        <ele>56</ele>
      </trkpt>
      <trkpt lat="43.6385" lon="3.80397">
        <ele>56</ele>
      </trkpt>
      <trkpt lat="43.63853" lon="3.804">
        <ele>56</ele>
      </trkpt>
      <trkpt lat="43.63856" lon="3.80403">
        <ele>56</ele>
      </trkpt>
      <trkpt lat="43.63858" lon="3.80407">
        <ele>56</ele>
      </trkpt>
      <trkpt lat="43.6386" lon="3.8041">
        <ele>56</ele>
      </trkpt>
      <trkpt lat="43.63864" lon="3.80413">
        <ele>56</ele>
      </trkpt>
      <trkpt lat="43.63866" lon="3.80417">
        <ele>56</ele>
      </trkpt>
      <trkpt lat="43.63868" lon="3.8042">
        <ele>56</ele>
      </trkpt>
      <trkpt lat="43.63871" lon="3.80424">
        <ele>56</ele>
      </trkpt>
      <trkpt lat="43.63874" lon="3.80428">
        <ele>56</ele>
      </trkpt>
      <trkpt lat="43.63876" lon="3.80432">
        <ele>56</ele>
      </trkpt>
      <trkpt lat="43.63879" lon="3.80436">
        <ele>56</ele>
      </trkpt>
      <trkpt lat="43.63881" lon="3.8044">
        <ele>56</ele>
      </trkpt>
      <trkpt lat="43.63884" lon="3.80444">
        <ele>56</ele>
      </trkpt>
      <trkpt lat="43.63886" lon="3.80448">
        <ele>56</ele>
      </trkpt>
      <trkpt lat="43.63889" lon="3.80452">
        <ele>56</ele>
      </trkpt>
      <trkpt lat="43.63891" lon="3.80456">
        <ele>56</ele>
      </trkpt>
      <trkpt lat="43.63894" lon="3.8046">
        <ele>56</ele>
      </trkpt>
      <trkpt lat="43.63896" lon="3.80463">
        <ele>56</ele>
      </trkpt>
      <trkpt lat="43.63898" lon="3.80467">
        <ele>57</ele>
      </trkpt>
      <trkpt lat="43.639" lon="3.8047">
        <ele>57</ele>
      </trkpt>
      <trkpt lat="43.63902" lon="3.80473">
        <ele>57</ele>
      </trkpt>
      <trkpt lat="43.63904" lon="3.80475">
        <ele>57</ele>
      </trkpt>
      <trkpt lat="43.63907" lon="3.80478">
        <ele>57</ele>
      </trkpt>
      <trkpt lat="43.6391" lon="3.8048">
        <ele>57</ele>
      </trkpt>
      <trkpt lat="43.63912" lon="3.80483">
        <ele>57</ele>
      </trkpt>
      <trkpt lat="43.63913" lon="3.80487">
        <ele>57</ele>
      </trkpt>
      <trkpt lat="43.63914" lon="3.80491">
        <ele>57</ele>
      </trkpt>
      <trkpt lat="43.63913" lon="3.80496">
        <ele>57</ele>
      </trkpt>
      <trkpt lat="43.63913" lon="3.80501">
        <ele>57</ele>
      </trkpt>
      <trkpt lat="43.63912" lon="3.80506">
        <ele>57</ele>
      </trkpt>
      <trkpt lat="43.63912" lon="3.80512">
        <ele>57</ele>
      </trkpt>
      <trkpt lat="43.63911" lon="3.80517">
        <ele>57</ele>
      </trkpt>
      <trkpt lat="43.63911" lon="3.80524">
        <ele>57</ele>
      </trkpt>
      <trkpt lat="43.63911" lon="3.8053">
        <ele>57</ele>
      </trkpt>
      <trkpt lat="43.63911" lon="3.80536">
        <ele>57</ele>
      </trkpt>
      <trkpt lat="43.63911" lon="3.80543">
        <ele>57</ele>
      </trkpt>
      <trkpt lat="43.63911" lon="3.80549">
        <ele>57</ele>
      </trkpt>
      <trkpt lat="43.6391" lon="3.80554">
        <ele>57</ele>
      </trkpt>
      <trkpt lat="43.6391" lon="3.8056">
        <ele>57</ele>
      </trkpt>
      <trkpt lat="43.6391" lon="3.80566">
        <ele>57</ele>
      </trkpt>
      <trkpt lat="43.6391" lon="3.80572">
        <ele>57</ele>
      </trkpt>
      <trkpt lat="43.6391" lon="3.80578">
        <ele>57</ele>
      </trkpt>
      <trkpt lat="43.6391" lon="3.80585">
        <ele>57</ele>
      </trkpt>
      <trkpt lat="43.6391" lon="3.8059">
        <ele>57</ele>
      </trkpt>
      <trkpt lat="43.6391" lon="3.80597">
        <ele>57</ele>
      </trkpt>
      <trkpt lat="43.6391" lon="3.80603">
        <ele>57</ele>
      </trkpt>
      <trkpt lat="43.63911" lon="3.8061">
        <ele>57</ele>
      </trkpt>
      <trkpt lat="43.6391" lon="3.80616">
        <ele>57</ele>
      </trkpt>
      <trkpt lat="43.6391" lon="3.80622">
        <ele>56</ele>
      </trkpt>
      <trkpt lat="43.6391" lon="3.80628">
        <ele>56</ele>
      </trkpt>
      <trkpt lat="43.6391" lon="3.80633">
        <ele>56</ele>
      </trkpt>
      <trkpt lat="43.63911" lon="3.80639">
        <ele>56</ele>
      </trkpt>
      <trkpt lat="43.6391" lon="3.80644">
        <ele>56</ele>
      </trkpt>
      <trkpt lat="43.6391" lon="3.8065">
        <ele>56</ele>
      </trkpt>
      <trkpt lat="43.6391" lon="3.80656">
        <ele>56</ele>
      </trkpt>
      <trkpt lat="43.6391" lon="3.80662">
        <ele>56</ele>
      </trkpt>
      <trkpt lat="43.63909" lon="3.80668">
        <ele>56</ele>
      </trkpt>
      <trkpt lat="43.63909" lon="3.80673">
        <ele>56</ele>
      </trkpt>
      <trkpt lat="43.63908" lon="3.80679">
        <ele>55</ele>
      </trkpt>
      <trkpt lat="43.63908" lon="3.80685">
        <ele>55</ele>
      </trkpt>
      <trkpt lat="43.63907" lon="3.80691">
        <ele>55</ele>
      </trkpt>
      <trkpt lat="43.63906" lon="3.80697">
        <ele>55</ele>
      </trkpt>
      <trkpt lat="43.63907" lon="3.80703">
        <ele>55</ele>
      </trkpt>
      <trkpt lat="43.63907" lon="3.80709">
        <ele>55</ele>
      </trkpt>
      <trkpt lat="43.63905" lon="3.80714">
        <ele>55</ele>
      </trkpt>
      <trkpt lat="43.63903" lon="3.80718">
        <ele>55</ele>
      </trkpt>
      <trkpt lat="43.639" lon="3.80721">
        <ele>55</ele>
      </trkpt>
      <trkpt lat="43.63896" lon="3.80724">
        <ele>55</ele>
      </trkpt>
      <trkpt lat="43.63893" lon="3.80726">
        <ele>55</ele>
      </trkpt>
      <trkpt lat="43.63889" lon="3.80727">
        <ele>55</ele>
      </trkpt>
      <trkpt lat="43.63887" lon="3.80727">
        <ele>55</ele>
      </trkpt>
      <trkpt lat="43.63884" lon="3.80726">
        <ele>55</ele>
      </trkpt>
      <trkpt lat="43.63883" lon="3.80725">
        <ele>55</ele>
      </trkpt>
      <trkpt lat="43.63883" lon="3.80725">
        <ele>55</ele>
      </trkpt>
      <trkpt lat="43.63879" lon="3.8072">
        <ele>55</ele>
      </trkpt>
      <trkpt lat="43.63877" lon="3.80722">
        <ele>55</ele>
      </trkpt>
      <trkpt lat="43.63877" lon="3.80722">
        <ele>56</ele>
      </trkpt>
      <trkpt lat="43.63874" lon="3.80726">
        <ele>56</ele>
      </trkpt>
      <trkpt lat="43.63874" lon="3.80728">
        <ele>56</ele>
      </trkpt>
      <trkpt lat="43.63873" lon="3.80731">
        <ele>56</ele>
      </trkpt>
      <trkpt lat="43.63872" lon="3.80732">
        <ele>56</ele>
      </trkpt>
      <trkpt lat="43.6387" lon="3.80733">
        <ele>55</ele>
      </trkpt>
      <trkpt lat="43.63868" lon="3.80734">
        <ele>55</ele>
      </trkpt>
      <trkpt lat="43.63866" lon="3.80737">
        <ele>54</ele>
      </trkpt>
      <trkpt lat="43.63865" lon="3.8074">
        <ele>54</ele>
      </trkpt>
      <trkpt lat="43.63864" lon="3.80744">
        <ele>54</ele>
      </trkpt>
      <trkpt lat="43.63864" lon="3.80748">
        <ele>54</ele>
      </trkpt>
      <trkpt lat="43.63865" lon="3.80752">
        <ele>54</ele>
      </trkpt>
      <trkpt lat="43.63865" lon="3.80757">
        <ele>54</ele>
      </trkpt>
      <trkpt lat="43.63862" lon="3.8076">
        <ele>53</ele>
      </trkpt>
      <trkpt lat="43.6386" lon="3.80764">
        <ele>53</ele>
      </trkpt>
      <trkpt lat="43.63858" lon="3.80767">
        <ele>53</ele>
      </trkpt>
      <trkpt lat="43.63857" lon="3.80772">
        <ele>53</ele>
      </trkpt>
      <trkpt lat="43.63856" lon="3.80776">
        <ele>53</ele>
      </trkpt>
      <trkpt lat="43.63853" lon="3.8078">
        <ele>52</ele>
      </trkpt>
      <trkpt lat="43.63852" lon="3.80782">
        <ele>52</ele>
      </trkpt>
      <trkpt lat="43.63851" lon="3.80784">
        <ele>52</ele>
      </trkpt>
      <trkpt lat="43.6385" lon="3.80787">
        <ele>52</ele>
      </trkpt>
      <trkpt lat="43.63849" lon="3.80789">
        <ele>52</ele>
      </trkpt>
      <trkpt lat="43.63848" lon="3.80792">
        <ele>52</ele>
      </trkpt>
      <trkpt lat="43.63846" lon="3.80794">
        <ele>52</ele>
      </trkpt>
      <trkpt lat="43.63843" lon="3.80796">
        <ele>52</ele>
      </trkpt>
      <trkpt lat="43.63841" lon="3.80797">
        <ele>52</ele>
      </trkpt>
      <trkpt lat="43.63841" lon="3.808">
        <ele>52</ele>
      </trkpt>
      <trkpt lat="43.6384" lon="3.80802">
        <ele>52</ele>
      </trkpt>
      <trkpt lat="43.63838" lon="3.80805">
        <ele>52</ele>
      </trkpt>
      <trkpt lat="43.63836" lon="3.80806">
        <ele>52</ele>
      </trkpt>
      <trkpt lat="43.63836" lon="3.80808">
        <ele>51</ele>
      </trkpt>
      <trkpt lat="43.63833" lon="3.80817">
        <ele>52</ele>
      </trkpt>
      <trkpt lat="43.63832" lon="3.80821">
        <ele>52</ele>
      </trkpt>
      <trkpt lat="43.6383" lon="3.80824">
        <ele>52</ele>
      </trkpt>
      <trkpt lat="43.63829" lon="3.80825">
        <ele>52</ele>
      </trkpt>
      <trkpt lat="43.63827" lon="3.80827">
        <ele>52</ele>
      </trkpt>
      <trkpt lat="43.63824" lon="3.80829">
        <ele>52</ele>
      </trkpt>
      <trkpt lat="43.63822" lon="3.8083">
        <ele>53</ele>
      </trkpt>
      <trkpt lat="43.6382" lon="3.80832">
        <ele>53</ele>
      </trkpt>
      <trkpt lat="43.63817" lon="3.80834">
        <ele>53</ele>
      </trkpt>
      <trkpt lat="43.63815" lon="3.80836">
        <ele>53</ele>
      </trkpt>
      <trkpt lat="43.63812" lon="3.80837">
        <ele>53</ele>
      </trkpt>
      <trkpt lat="43.63811" lon="3.80838">
        <ele>53</ele>
      </trkpt>
      <trkpt lat="43.63808" lon="3.80839">
        <ele>52</ele>
      </trkpt>
      <trkpt lat="43.63807" lon="3.80841">
        <ele>52</ele>
      </trkpt>
      <trkpt lat="43.63805" lon="3.80841">
        <ele>52</ele>
      </trkpt>
      <trkpt lat="43.63803" lon="3.80842">
        <ele>52</ele>
      </trkpt>
      <trkpt lat="43.638" lon="3.80843">
        <ele>52</ele>
      </trkpt>
      <trkpt lat="43.63799" lon="3.80843">
        <ele>52</ele>
      </trkpt>
      <trkpt lat="43.63797" lon="3.80843">
        <ele>52</ele>
      </trkpt>
      <trkpt lat="43.63794" lon="3.80844">
        <ele>52</ele>
      </trkpt>
      <trkpt lat="43.63792" lon="3.80845">
        <ele>52</ele>
      </trkpt>
      <trkpt lat="43.6379" lon="3.80846">
        <ele>52</ele>
      </trkpt>
      <trkpt lat="43.63788" lon="3.80846">
        <ele>52</ele>
      </trkpt>
      <trkpt lat="43.63786" lon="3.80846">
        <ele>52</ele>
      </trkpt>
      <trkpt lat="43.63783" lon="3.80847">
        <ele>52</ele>
      </trkpt>
      <trkpt lat="43.63781" lon="3.80847">
        <ele>52</ele>
      </trkpt>
      <trkpt lat="43.63779" lon="3.80847">
        <ele>52</ele>
      </trkpt>
      <trkpt lat="43.63777" lon="3.80848">
        <ele>52</ele>
      </trkpt>
      <trkpt lat="43.63774" lon="3.80849">
        <ele>52</ele>
      </trkpt>
      <trkpt lat="43.63772" lon="3.8085">
        <ele>52</ele>
      </trkpt>
      <trkpt lat="43.6377" lon="3.80852">
        <ele>52</ele>
      </trkpt>
      <trkpt lat="43.63767" lon="3.80853">
        <ele>52</ele>
      </trkpt>
      <trkpt lat="43.63765" lon="3.80854">
        <ele>53</ele>
      </trkpt>
      <trkpt lat="43.63763" lon="3.80855">
        <ele>53</ele>
      </trkpt>
      <trkpt lat="43.6376" lon="3.80856">
        <ele>53</ele>
      </trkpt>
      <trkpt lat="43.63758" lon="3.80856">
        <ele>53</ele>
      </trkpt>
      <trkpt lat="43.63755" lon="3.80857">
        <ele>53</ele>
      </trkpt>
      <trkpt lat="43.63753" lon="3.80858">
        <ele>53</ele>
      </trkpt>
      <trkpt lat="43.6375" lon="3.80859">
        <ele>53</ele>
      </trkpt>
      <trkpt lat="43.63747" lon="3.80859">
        <ele>53</ele>
      </trkpt>
      <trkpt lat="43.63744" lon="3.80859">
        <ele>53</ele>
      </trkpt>
      <trkpt lat="43.63741" lon="3.80859">
        <ele>53</ele>
      </trkpt>
      <trkpt lat="43.63739" lon="3.8086">
        <ele>53</ele>
      </trkpt>
      <trkpt lat="43.63735" lon="3.8086">
        <ele>53</ele>
      </trkpt>
      <trkpt lat="43.63733" lon="3.8086">
        <ele>53</ele>
      </trkpt>
      <trkpt lat="43.6373" lon="3.8086">
        <ele>53</ele>
      </trkpt>
      <trkpt lat="43.63726" lon="3.8086">
        <ele>53</ele>
      </trkpt>
      <trkpt lat="43.63723" lon="3.8086">
        <ele>53</ele>
      </trkpt>
      <trkpt lat="43.63719" lon="3.80859">
        <ele>53</ele>
      </trkpt>
      <trkpt lat="43.63715" lon="3.80859">
        <ele>53</ele>
      </trkpt>
      <trkpt lat="43.63712" lon="3.80859">
        <ele>53</ele>
      </trkpt>
      <trkpt lat="43.63708" lon="3.80859">
        <ele>53</ele>
      </trkpt>
      <trkpt lat="43.63704" lon="3.80859">
        <ele>53</ele>
      </trkpt>
      <trkpt lat="43.637" lon="3.80859">
        <ele>53</ele>
      </trkpt>
      <trkpt lat="43.63696" lon="3.80858">
        <ele>53</ele>
      </trkpt>
      <trkpt lat="43.63692" lon="3.80857">
        <ele>53</ele>
      </trkpt>
      <trkpt lat="43.63688" lon="3.80857">
        <ele>53</ele>
      </trkpt>
      <trkpt lat="43.63684" lon="3.80857">
        <ele>53</ele>
      </trkpt>
      <trkpt lat="43.6368" lon="3.80858">
        <ele>53</ele>
      </trkpt>
      <trkpt lat="43.63677" lon="3.8086">
        <ele>53</ele>
      </trkpt>
      <trkpt lat="43.63673" lon="3.80862">
        <ele>53</ele>
      </trkpt>
      <trkpt lat="43.6367" lon="3.80864">
        <ele>53</ele>
      </trkpt>
      <trkpt lat="43.63667" lon="3.80866">
        <ele>54</ele>
      </trkpt>
      <trkpt lat="43.63664" lon="3.80868">
        <ele>54</ele>
      </trkpt>
      <trkpt lat="43.63661" lon="3.80871">
        <ele>54</ele>
      </trkpt>
      <trkpt lat="43.63656" lon="3.80872">
        <ele>54</ele>
      </trkpt>
      <trkpt lat="43.63653" lon="3.80874">
        <ele>54</ele>
      </trkpt>
      <trkpt lat="43.63649" lon="3.80875">
        <ele>54</ele>
      </trkpt>
      <trkpt lat="43.63646" lon="3.80875">
        <ele>54</ele>
      </trkpt>
      <trkpt lat="43.63644" lon="3.80875">
        <ele>54</ele>
      </trkpt>
      <trkpt lat="43.63641" lon="3.80876">
        <ele>54</ele>
      </trkpt>
      <trkpt lat="43.63638" lon="3.80876">
        <ele>54</ele>
      </trkpt>
      <trkpt lat="43.63635" lon="3.80876">
        <ele>55</ele>
      </trkpt>
      <trkpt lat="43.63632" lon="3.80876">
        <ele>55</ele>
      </trkpt>
      <trkpt lat="43.63629" lon="3.80876">
        <ele>55</ele>
      </trkpt>
      <trkpt lat="43.63626" lon="3.80875">
        <ele>55</ele>
      </trkpt>
      <trkpt lat="43.63624" lon="3.80875">
        <ele>55</ele>
      </trkpt>
      <trkpt lat="43.6362" lon="3.80874">
        <ele>55</ele>
      </trkpt>
      <trkpt lat="43.63618" lon="3.80873">
        <ele>55</ele>
      </trkpt>
      <trkpt lat="43.63614" lon="3.80872">
        <ele>55</ele>
      </trkpt>
      <trkpt lat="43.63611" lon="3.8087">
        <ele>55</ele>
      </trkpt>
      <trkpt lat="43.63608" lon="3.80868">
        <ele>55</ele>
      </trkpt>
      <trkpt lat="43.63604" lon="3.80866">
        <ele>56</ele>
      </trkpt>
      <trkpt lat="43.636" lon="3.80865">
        <ele>56</ele>
      </trkpt>
      <trkpt lat="43.63596" lon="3.80863">
        <ele>56</ele>
      </trkpt>
      <trkpt lat="43.63593" lon="3.80862">
        <ele>56</ele>
      </trkpt>
      <trkpt lat="43.6359" lon="3.8086">
        <ele>56</ele>
      </trkpt>
      <trkpt lat="43.63586" lon="3.80857">
        <ele>56</ele>
      </trkpt>
      <trkpt lat="43.63583" lon="3.80855">
        <ele>56</ele>
      </trkpt>
      <trkpt lat="43.6358" lon="3.80852">
        <ele>56</ele>
      </trkpt>
      <trkpt lat="43.63577" lon="3.80848">
        <ele>56</ele>
      </trkpt>
      <trkpt lat="43.63574" lon="3.80845">
        <ele>56</ele>
      </trkpt>
      <trkpt lat="43.63572" lon="3.80841">
        <ele>57</ele>
      </trkpt>
      <trkpt lat="43.63568" lon="3.80838">
        <ele>57</ele>
      </trkpt>
      <trkpt lat="43.63566" lon="3.80834">
        <ele>57</ele>
      </trkpt>
      <trkpt lat="43.63563" lon="3.8083">
        <ele>57</ele>
      </trkpt>
      <trkpt lat="43.6356" lon="3.80827">
        <ele>57</ele>
      </trkpt>
      <trkpt lat="43.63557" lon="3.80824">
        <ele>57</ele>
      </trkpt>
      <trkpt lat="43.63555" lon="3.8082">
        <ele>57</ele>
      </trkpt>
      <trkpt lat="43.63551" lon="3.80817">
        <ele>57</ele>
      </trkpt>
      <trkpt lat="43.63548" lon="3.80814">
        <ele>57</ele>
      </trkpt>
      <trkpt lat="43.63545" lon="3.80811">
        <ele>57</ele>
      </trkpt>
      <trkpt lat="43.63542" lon="3.80808">
        <ele>57</ele>
      </trkpt>
      <trkpt lat="43.63538" lon="3.80804">
        <ele>57</ele>
      </trkpt>
      <trkpt lat="43.63535" lon="3.80801">
        <ele>57</ele>
      </trkpt>
      <trkpt lat="43.63532" lon="3.80798">
        <ele>57</ele>
      </trkpt>
      <trkpt lat="43.63529" lon="3.80795">
        <ele>57</ele>
      </trkpt>
      <trkpt lat="43.63527" lon="3.80791">
        <ele>57</ele>
      </trkpt>
      <trkpt lat="43.63524" lon="3.80788">
        <ele>57</ele>
      </trkpt>
      <trkpt lat="43.63521" lon="3.80786">
        <ele>57</ele>
      </trkpt>
      <trkpt lat="43.63517" lon="3.80784">
        <ele>57</ele>
      </trkpt>
      <trkpt lat="43.63514" lon="3.80781">
        <ele>57</ele>
      </trkpt>
      <trkpt lat="43.6351" lon="3.8078">
        <ele>56</ele>
      </trkpt>
      <trkpt lat="43.63507" lon="3.80779">
        <ele>56</ele>
      </trkpt>
      <trkpt lat="43.63503" lon="3.80778">
        <ele>56</ele>
      </trkpt>
      <trkpt lat="43.63499" lon="3.80777">
        <ele>56</ele>
      </trkpt>
      <trkpt lat="43.63495" lon="3.80777">
        <ele>56</ele>
      </trkpt>
      <trkpt lat="43.63491" lon="3.80777">
        <ele>56</ele>
      </trkpt>
      <trkpt lat="43.63488" lon="3.80777">
        <ele>56</ele>
      </trkpt>
      <trkpt lat="43.63484" lon="3.80777">
        <ele>56</ele>
      </trkpt>
      <trkpt lat="43.6348" lon="3.80779">
        <ele>56</ele>
      </trkpt>
      <trkpt lat="43.63476" lon="3.8078">
        <ele>56</ele>
      </trkpt>
      <trkpt lat="43.63473" lon="3.80781">
        <ele>56</ele>
      </trkpt>
      <trkpt lat="43.63469" lon="3.80783">
        <ele>56</ele>
      </trkpt>
      <trkpt lat="43.63466" lon="3.80785">
        <ele>56</ele>
      </trkpt>
      <trkpt lat="43.63462" lon="3.80789">
        <ele>56</ele>
      </trkpt>
      <trkpt lat="43.63459" lon="3.80792">
        <ele>56</ele>
      </trkpt>
      <trkpt lat="43.63457" lon="3.80796">
        <ele>56</ele>
      </trkpt>
      <trkpt lat="43.63456" lon="3.80802">
        <ele>56</ele>
      </trkpt>
      <trkpt lat="43.63454" lon="3.80806">
        <ele>56</ele>
      </trkpt>
      <trkpt lat="43.63453" lon="3.80812">
        <ele>56</ele>
      </trkpt>
      <trkpt lat="43.63453" lon="3.80817">
        <ele>56</ele>
      </trkpt>
      <trkpt lat="43.63452" lon="3.80822">
        <ele>55</ele>
      </trkpt>
      <trkpt lat="43.63452" lon="3.80828">
        <ele>55</ele>
      </trkpt>
      <trkpt lat="43.63453" lon="3.80834">
        <ele>55</ele>
      </trkpt>
      <trkpt lat="43.63453" lon="3.8084">
        <ele>55</ele>
      </trkpt>
      <trkpt lat="43.63453" lon="3.80846">
        <ele>55</ele>
      </trkpt>
      <trkpt lat="43.63453" lon="3.80853">
        <ele>55</ele>
      </trkpt>
      <trkpt lat="43.63453" lon="3.80859">
        <ele>55</ele>
      </trkpt>
      <trkpt lat="43.63452" lon="3.80864">
        <ele>55</ele>
      </trkpt>
      <trkpt lat="43.63451" lon="3.8087">
        <ele>55</ele>
      </trkpt>
      <trkpt lat="43.63449" lon="3.80875">
        <ele>55</ele>
      </trkpt>
      <trkpt lat="43.63446" lon="3.8088">
        <ele>55</ele>
      </trkpt>
      <trkpt lat="43.63444" lon="3.80884">
        <ele>55</ele>
      </trkpt>
      <trkpt lat="43.63442" lon="3.80888">
        <ele>55</ele>
      </trkpt>
      <trkpt lat="43.6344" lon="3.80893">
        <ele>55</ele>
      </trkpt>
      <trkpt lat="43.63436" lon="3.80897">
        <ele>55</ele>
      </trkpt>
      <trkpt lat="43.63434" lon="3.80902">
        <ele>55</ele>
      </trkpt>
      <trkpt lat="43.63432" lon="3.80907">
        <ele>55</ele>
      </trkpt>
      <trkpt lat="43.6343" lon="3.80913">
        <ele>55</ele>
      </trkpt>
      <trkpt lat="43.63428" lon="3.80918">
        <ele>55</ele>
      </trkpt>
      <trkpt lat="43.63428" lon="3.80924">
        <ele>55</ele>
      </trkpt>
      <trkpt lat="43.63428" lon="3.8093">
        <ele>55</ele>
      </trkpt>
      <trkpt lat="43.63428" lon="3.80937">
        <ele>55</ele>
      </trkpt>
      <trkpt lat="43.63428" lon="3.80942">
        <ele>55</ele>
      </trkpt>
      <trkpt lat="43.63427" lon="3.80949">
        <ele>55</ele>
      </trkpt>
      <trkpt lat="43.63428" lon="3.80955">
        <ele>55</ele>
      </trkpt>
      <trkpt lat="43.63428" lon="3.80961">
        <ele>55</ele>
      </trkpt>
      <trkpt lat="43.63429" lon="3.80966">
        <ele>55</ele>
      </trkpt>
      <trkpt lat="43.63431" lon="3.80972">
        <ele>55</ele>
      </trkpt>
      <trkpt lat="43.63432" lon="3.80978">
        <ele>55</ele>
      </trkpt>
      <trkpt lat="43.63433" lon="3.80985">
        <ele>55</ele>
      </trkpt>
      <trkpt lat="43.63435" lon="3.80991">
        <ele>56</ele>
      </trkpt>
      <trkpt lat="43.63436" lon="3.80997">
        <ele>56</ele>
      </trkpt>
      <trkpt lat="43.63437" lon="3.81003">
        <ele>56</ele>
      </trkpt>
      <trkpt lat="43.63439" lon="3.8101">
        <ele>56</ele>
      </trkpt>
      <trkpt lat="43.63441" lon="3.81016">
        <ele>56</ele>
      </trkpt>
      <trkpt lat="43.63442" lon="3.81023">
        <ele>56</ele>
      </trkpt>
      <trkpt lat="43.63443" lon="3.81029">
        <ele>56</ele>
      </trkpt>
      <trkpt lat="43.63444" lon="3.81035">
        <ele>56</ele>
      </trkpt>
      <trkpt lat="43.63445" lon="3.81041">
        <ele>56</ele>
      </trkpt>
      <trkpt lat="43.63446" lon="3.81046">
        <ele>56</ele>
      </trkpt>
      <trkpt lat="43.63446" lon="3.81052">
        <ele>56</ele>
      </trkpt>
      <trkpt lat="43.63447" lon="3.81057">
        <ele>56</ele>
      </trkpt>
      <trkpt lat="43.63449" lon="3.81063">
        <ele>56</ele>
      </trkpt>
      <trkpt lat="43.6345" lon="3.81069">
        <ele>56</ele>
      </trkpt>
      <trkpt lat="43.63451" lon="3.81076">
        <ele>56</ele>
      </trkpt>
      <trkpt lat="43.63452" lon="3.81082">
        <ele>56</ele>
      </trkpt>
      <trkpt lat="43.63453" lon="3.81088">
        <ele>56</ele>
      </trkpt>
      <trkpt lat="43.63455" lon="3.81095">
        <ele>56</ele>
      </trkpt>
      <trkpt lat="43.63456" lon="3.81101">
        <ele>56</ele>
      </trkpt>
      <trkpt lat="43.63456" lon="3.81108">
        <ele>56</ele>
      </trkpt>
      <trkpt lat="43.63457" lon="3.81114">
        <ele>54</ele>
      </trkpt>
      <trkpt lat="43.63458" lon="3.8112">
        <ele>54</ele>
      </trkpt>
      <trkpt lat="43.63458" lon="3.81126">
        <ele>54</ele>
      </trkpt>
      <trkpt lat="43.63459" lon="3.81132">
        <ele>54</ele>
      </trkpt>
      <trkpt lat="43.63459" lon="3.81139">
        <ele>54</ele>
      </trkpt>
      <trkpt lat="43.6346" lon="3.81145">
        <ele>54</ele>
      </trkpt>
      <trkpt lat="43.6346" lon="3.81152">
        <ele>54</ele>
      </trkpt>
      <trkpt lat="43.63461" lon="3.81158">
        <ele>54</ele>
      </trkpt>
      <trkpt lat="43.63461" lon="3.81164">
        <ele>54</ele>
      </trkpt>
      <trkpt lat="43.63461" lon="3.81171">
        <ele>54</ele>
      </trkpt>
      <trkpt lat="43.63462" lon="3.81178">
        <ele>52</ele>
      </trkpt>
      <trkpt lat="43.63462" lon="3.81185">
        <ele>52</ele>
      </trkpt>
      <trkpt lat="43.63462" lon="3.81192">
        <ele>52</ele>
      </trkpt>
      <trkpt lat="43.63463" lon="3.81198">
        <ele>52</ele>
      </trkpt>
      <trkpt lat="43.63463" lon="3.81205">
        <ele>52</ele>
      </trkpt>
      <trkpt lat="43.63463" lon="3.81211">
        <ele>52</ele>
      </trkpt>
      <trkpt lat="43.63463" lon="3.81218">
        <ele>52</ele>
      </trkpt>
      <trkpt lat="43.63462" lon="3.81224">
        <ele>52</ele>
      </trkpt>
      <trkpt lat="43.63462" lon="3.81231">
        <ele>52</ele>
      </trkpt>
      <trkpt lat="43.63462" lon="3.81237">
        <ele>52</ele>
      </trkpt>
      <trkpt lat="43.63461" lon="3.81243">
        <ele>52</ele>
      </trkpt>
      <trkpt lat="43.63461" lon="3.81249">
        <ele>52</ele>
      </trkpt>
      <trkpt lat="43.63461" lon="3.81254">
        <ele>52</ele>
      </trkpt>
      <trkpt lat="43.63461" lon="3.8126">
        <ele>52</ele>
      </trkpt>
      <trkpt lat="43.6346" lon="3.81265">
        <ele>52</ele>
      </trkpt>
      <trkpt lat="43.6346" lon="3.8127">
        <ele>52</ele>
      </trkpt>
      <trkpt lat="43.63459" lon="3.81276">
        <ele>52</ele>
      </trkpt>
      <trkpt lat="43.63458" lon="3.81281">
        <ele>52</ele>
      </trkpt>
      <trkpt lat="43.63457" lon="3.81286">
        <ele>52</ele>
      </trkpt>
      <trkpt lat="43.63456" lon="3.81292">
        <ele>52</ele>
      </trkpt>
      <trkpt lat="43.63455" lon="3.81297">
        <ele>52</ele>
      </trkpt>
      <trkpt lat="43.63454" lon="3.81303">
        <ele>52</ele>
      </trkpt>
      <trkpt lat="43.63451" lon="3.81308">
        <ele>52</ele>
      </trkpt>
      <trkpt lat="43.63449" lon="3.81313">
        <ele>52</ele>
      </trkpt>
      <trkpt lat="43.63446" lon="3.81318">
        <ele>52</ele>
      </trkpt>
      <trkpt lat="43.63443" lon="3.81323">
        <ele>52</ele>
      </trkpt>
      <trkpt lat="43.63441" lon="3.81328">
        <ele>52</ele>
      </trkpt>
      <trkpt lat="43.63437" lon="3.81333">
        <ele>52</ele>
      </trkpt>
      <trkpt lat="43.63434" lon="3.81338">
        <ele>52</ele>
      </trkpt>
      <trkpt lat="43.63429" lon="3.81343">
        <ele>52</ele>
      </trkpt>
      <trkpt lat="43.63425" lon="3.81347">
        <ele>53</ele>
      </trkpt>
      <trkpt lat="43.63421" lon="3.81351">
        <ele>53</ele>
      </trkpt>
      <trkpt lat="43.63418" lon="3.81355">
        <ele>53</ele>
      </trkpt>
      <trkpt lat="43.63413" lon="3.81358">
        <ele>53</ele>
      </trkpt>
      <trkpt lat="43.63409" lon="3.81361">
        <ele>53</ele>
      </trkpt>
      <trkpt lat="43.63406" lon="3.81364">
        <ele>53</ele>
      </trkpt>
      <trkpt lat="43.63402" lon="3.81367">
        <ele>53</ele>
      </trkpt>
      <trkpt lat="43.63397" lon="3.8137">
        <ele>53</ele>
      </trkpt>
      <trkpt lat="43.63393" lon="3.81372">
        <ele>53</ele>
      </trkpt>
      <trkpt lat="43.63389" lon="3.81375">
        <ele>53</ele>
      </trkpt>
      <trkpt lat="43.63385" lon="3.81377">
        <ele>53</ele>
      </trkpt>
      <trkpt lat="43.63381" lon="3.8138">
        <ele>53</ele>
      </trkpt>
      <trkpt lat="43.63377" lon="3.81382">
        <ele>53</ele>
      </trkpt>
      <trkpt lat="43.63373" lon="3.81385">
        <ele>53</ele>
      </trkpt>
      <trkpt lat="43.63369" lon="3.81388">
        <ele>53</ele>
      </trkpt>
      <trkpt lat="43.63364" lon="3.81391">
        <ele>53</ele>
      </trkpt>
      <trkpt lat="43.6336" lon="3.81395">
        <ele>53</ele>
      </trkpt>
      <trkpt lat="43.63357" lon="3.81399">
        <ele>53</ele>
      </trkpt>
      <trkpt lat="43.63352" lon="3.81404">
        <ele>53</ele>
      </trkpt>
      <trkpt lat="43.63349" lon="3.81408">
        <ele>53</ele>
      </trkpt>
      <trkpt lat="43.63345" lon="3.81412">
        <ele>53</ele>
      </trkpt>
      <trkpt lat="43.63342" lon="3.81416">
        <ele>53</ele>
      </trkpt>
      <trkpt lat="43.63339" lon="3.8142">
        <ele>53</ele>
      </trkpt>
      <trkpt lat="43.63336" lon="3.81423">
        <ele>53</ele>
      </trkpt>
      <trkpt lat="43.63332" lon="3.81426">
        <ele>53</ele>
      </trkpt>
      <trkpt lat="43.63329" lon="3.8143">
        <ele>53</ele>
      </trkpt>
      <trkpt lat="43.63325" lon="3.81434">
        <ele>53</ele>
      </trkpt>
      <trkpt lat="43.63322" lon="3.81438">
        <ele>53</ele>
      </trkpt>
      <trkpt lat="43.63319" lon="3.81441">
        <ele>53</ele>
      </trkpt>
      <trkpt lat="43.63315" lon="3.81446">
        <ele>53</ele>
      </trkpt>
      <trkpt lat="43.63312" lon="3.8145">
        <ele>53</ele>
      </trkpt>
      <trkpt lat="43.63309" lon="3.81454">
        <ele>53</ele>
      </trkpt>
      <trkpt lat="43.63306" lon="3.81459">
        <ele>53</ele>
      </trkpt>
      <trkpt lat="43.63303" lon="3.81463">
        <ele>53</ele>
      </trkpt>
      <trkpt lat="43.63302" lon="3.81467">
        <ele>53</ele>
      </trkpt>
      <trkpt lat="43.633" lon="3.81472">
        <ele>53</ele>
      </trkpt>
      <trkpt lat="43.63299" lon="3.81476">
        <ele>53</ele>
      </trkpt>
      <trkpt lat="43.63297" lon="3.81479">
        <ele>53</ele>
      </trkpt>
      <trkpt lat="43.63295" lon="3.81483">
        <ele>53</ele>
      </trkpt>
      <trkpt lat="43.63292" lon="3.81486">
        <ele>53</ele>
      </trkpt>
      <trkpt lat="43.63289" lon="3.8149">
        <ele>53</ele>
      </trkpt>
      <trkpt lat="43.63285" lon="3.81493">
        <ele>53</ele>
      </trkpt>
      <trkpt lat="43.63282" lon="3.81497">
        <ele>53</ele>
      </trkpt>
      <trkpt lat="43.63278" lon="3.81501">
        <ele>53</ele>
      </trkpt>
      <trkpt lat="43.63275" lon="3.81505">
        <ele>53</ele>
      </trkpt>
      <trkpt lat="43.63271" lon="3.81509">
        <ele>53</ele>
      </trkpt>
      <trkpt lat="43.63267" lon="3.81513">
        <ele>53</ele>
      </trkpt>
      <trkpt lat="43.63263" lon="3.81518">
        <ele>53</ele>
      </trkpt>
      <trkpt lat="43.63259" lon="3.81523">
        <ele>53</ele>
      </trkpt>
      <trkpt lat="43.63255" lon="3.81528">
        <ele>53</ele>
      </trkpt>
      <trkpt lat="43.63252" lon="3.81533">
        <ele>53</ele>
      </trkpt>
      <trkpt lat="43.63248" lon="3.81538">
        <ele>53</ele>
      </trkpt>
      <trkpt lat="43.63245" lon="3.81542">
        <ele>53</ele>
      </trkpt>
      <trkpt lat="43.63242" lon="3.81546">
        <ele>53</ele>
      </trkpt>
      <trkpt lat="43.63239" lon="3.81551">
        <ele>53</ele>
      </trkpt>
      <trkpt lat="43.63236" lon="3.81555">
        <ele>53</ele>
      </trkpt>
      <trkpt lat="43.63232" lon="3.81558">
        <ele>53</ele>
      </trkpt>
      <trkpt lat="43.63228" lon="3.81562">
        <ele>53</ele>
      </trkpt>
      <trkpt lat="43.63224" lon="3.81565">
        <ele>53</ele>
      </trkpt>
      <trkpt lat="43.63221" lon="3.81569">
        <ele>53</ele>
      </trkpt>
      <trkpt lat="43.63218" lon="3.81574">
        <ele>52</ele>
      </trkpt>
      <trkpt lat="43.63215" lon="3.81579">
        <ele>52</ele>
      </trkpt>
      <trkpt lat="43.63213" lon="3.81583">
        <ele>52</ele>
      </trkpt>
      <trkpt lat="43.63209" lon="3.81587">
        <ele>52</ele>
      </trkpt>
      <trkpt lat="43.63206" lon="3.81592">
        <ele>52</ele>
      </trkpt>
      <trkpt lat="43.63203" lon="3.81595">
        <ele>52</ele>
      </trkpt>
      <trkpt lat="43.63199" lon="3.816">
        <ele>52</ele>
      </trkpt>
      <trkpt lat="43.63196" lon="3.81603">
        <ele>52</ele>
      </trkpt>
      <trkpt lat="43.63192" lon="3.81607">
        <ele>52</ele>
      </trkpt>
      <trkpt lat="43.63188" lon="3.8161">
        <ele>52</ele>
      </trkpt>
      <trkpt lat="43.63185" lon="3.81614">
        <ele>52</ele>
      </trkpt>
      <trkpt lat="43.63181" lon="3.81618">
        <ele>52</ele>
      </trkpt>
      <trkpt lat="43.63178" lon="3.81622">
        <ele>52</ele>
      </trkpt>
      <trkpt lat="43.63174" lon="3.81625">
        <ele>52</ele>
      </trkpt>
      <trkpt lat="43.6317" lon="3.81629">
        <ele>52</ele>
      </trkpt>
      <trkpt lat="43.63167" lon="3.81632">
        <ele>52</ele>
      </trkpt>
      <trkpt lat="43.63163" lon="3.81635">
        <ele>52</ele>
      </trkpt>
      <trkpt lat="43.63159" lon="3.81637">
        <ele>52</ele>
      </trkpt>
      <trkpt lat="43.63154" lon="3.81638">
        <ele>52</ele>
      </trkpt>
      <trkpt lat="43.63151" lon="3.8164">
        <ele>52</ele>
      </trkpt>
      <trkpt lat="43.63147" lon="3.81642">
        <ele>52</ele>
      </trkpt>
      <trkpt lat="43.63143" lon="3.81644">
        <ele>52</ele>
      </trkpt>
      <trkpt lat="43.63138" lon="3.81645">
        <ele>52</ele>
      </trkpt>
      <trkpt lat="43.63134" lon="3.81646">
        <ele>52</ele>
      </trkpt>
      <trkpt lat="43.63131" lon="3.81647">
        <ele>52</ele>
      </trkpt>
      <trkpt lat="43.63128" lon="3.81648">
        <ele>52</ele>
      </trkpt>
      <trkpt lat="43.63124" lon="3.81648">
        <ele>52</ele>
      </trkpt>
      <trkpt lat="43.63121" lon="3.81649">
        <ele>52</ele>
      </trkpt>
      <trkpt lat="43.63117" lon="3.81649">
        <ele>52</ele>
      </trkpt>
      <trkpt lat="43.63113" lon="3.81649">
        <ele>52</ele>
      </trkpt>
      <trkpt lat="43.63108" lon="3.81649">
        <ele>51</ele>
      </trkpt>
      <trkpt lat="43.63105" lon="3.81649">
        <ele>51</ele>
      </trkpt>
      <trkpt lat="43.63102" lon="3.81649">
        <ele>51</ele>
      </trkpt>
      <trkpt lat="43.63099" lon="3.8165">
        <ele>51</ele>
      </trkpt>
      <trkpt lat="43.63097" lon="3.81651">
        <ele>51</ele>
      </trkpt>
      <trkpt lat="43.63095" lon="3.81653">
        <ele>51</ele>
      </trkpt>
      <trkpt lat="43.63093" lon="3.81654">
        <ele>51</ele>
      </trkpt>
      <trkpt lat="43.63091" lon="3.81655">
        <ele>51</ele>
      </trkpt>
      <trkpt lat="43.63087" lon="3.81657">
        <ele>51</ele>
      </trkpt>
      <trkpt lat="43.63084" lon="3.81656">
        <ele>51</ele>
      </trkpt>
      <trkpt lat="43.6308" lon="3.81653">
        <ele>51</ele>
      </trkpt>
      <trkpt lat="43.63075" lon="3.81648">
        <ele>51</ele>
      </trkpt>
      <trkpt lat="43.63069" lon="3.81645">
        <ele>51</ele>
      </trkpt>
      <trkpt lat="43.63062" lon="3.81641">
        <ele>51</ele>
      </trkpt>
      <trkpt lat="43.63055" lon="3.81641">
        <ele>51</ele>
      </trkpt>
      <trkpt lat="43.6305" lon="3.8164">
        <ele>51</ele>
      </trkpt>
      <trkpt lat="43.63044" lon="3.8164">
        <ele>51</ele>
      </trkpt>
      <trkpt lat="43.63038" lon="3.81638">
        <ele>51</ele>
      </trkpt>
      <trkpt lat="43.63033" lon="3.81637">
        <ele>51</ele>
      </trkpt>
      <trkpt lat="43.63027" lon="3.81636">
        <ele>51</ele>
      </trkpt>
      <trkpt lat="43.63023" lon="3.81637">
        <ele>50</ele>
      </trkpt>
      <trkpt lat="43.63018" lon="3.81638">
        <ele>50</ele>
      </trkpt>
      <trkpt lat="43.63013" lon="3.81639">
        <ele>50</ele>
      </trkpt>
      <trkpt lat="43.63008" lon="3.8164">
        <ele>50</ele>
      </trkpt>
      <trkpt lat="43.63002" lon="3.81641">
        <ele>50</ele>
      </trkpt>
      <trkpt lat="43.62997" lon="3.81642">
        <ele>50</ele>
      </trkpt>
      <trkpt lat="43.62992" lon="3.81643">
        <ele>50</ele>
      </trkpt>
      <trkpt lat="43.62986" lon="3.81645">
        <ele>50</ele>
      </trkpt>
      <trkpt lat="43.62982" lon="3.81646">
        <ele>50</ele>
      </trkpt>
      <trkpt lat="43.62977" lon="3.81646">
        <ele>50</ele>
      </trkpt>
      <trkpt lat="43.62972" lon="3.81646">
        <ele>49</ele>
      </trkpt>
      <trkpt lat="43.62967" lon="3.81646">
        <ele>49</ele>
      </trkpt>
      <trkpt lat="43.62963" lon="3.81645">
        <ele>49</ele>
      </trkpt>
      <trkpt lat="43.6296" lon="3.81645">
        <ele>49</ele>
      </trkpt>
      <trkpt lat="43.62956" lon="3.81644">
        <ele>49</ele>
      </trkpt>
      <trkpt lat="43.62952" lon="3.81643">
        <ele>49</ele>
      </trkpt>
      <trkpt lat="43.62949" lon="3.81642">
        <ele>49</ele>
      </trkpt>
      <trkpt lat="43.62944" lon="3.81641">
        <ele>49</ele>
      </trkpt>
      <trkpt lat="43.62942" lon="3.81638">
        <ele>49</ele>
      </trkpt>
      <trkpt lat="43.62939" lon="3.81635">
        <ele>49</ele>
      </trkpt>
      <trkpt lat="43.62935" lon="3.81633">
        <ele>49</ele>
      </trkpt>
      <trkpt lat="43.62932" lon="3.81631">
        <ele>49</ele>
      </trkpt>
      <trkpt lat="43.62928" lon="3.8163">
        <ele>49</ele>
      </trkpt>
      <trkpt lat="43.62925" lon="3.81629">
        <ele>49</ele>
      </trkpt>
      <trkpt lat="43.62921" lon="3.81628">
        <ele>49</ele>
      </trkpt>
      <trkpt lat="43.62918" lon="3.81627">
        <ele>49</ele>
      </trkpt>
      <trkpt lat="43.62914" lon="3.81627">
        <ele>49</ele>
      </trkpt>
      <trkpt lat="43.62912" lon="3.81629">
        <ele>49</ele>
      </trkpt>
      <trkpt lat="43.62909" lon="3.81632">
        <ele>49</ele>
      </trkpt>
      <trkpt lat="43.62908" lon="3.81636">
        <ele>49</ele>
      </trkpt>
      <trkpt lat="43.62906" lon="3.8164">
        <ele>49</ele>
      </trkpt>
      <trkpt lat="43.62906" lon="3.81644">
        <ele>49</ele>
      </trkpt>
      <trkpt lat="43.62906" lon="3.81647">
        <ele>49</ele>
      </trkpt>
      <trkpt lat="43.62906" lon="3.81651">
        <ele>49</ele>
      </trkpt>
      <trkpt lat="43.62906" lon="3.81654">
        <ele>49</ele>
      </trkpt>
      <trkpt lat="43.62906" lon="3.81657">
        <ele>49</ele>
      </trkpt>
      <trkpt lat="43.62906" lon="3.8166">
        <ele>49</ele>
      </trkpt>
      <trkpt lat="43.62906" lon="3.81663">
        <ele>49</ele>
      </trkpt>
      <trkpt lat="43.62906" lon="3.81666">
        <ele>49</ele>
      </trkpt>
      <trkpt lat="43.62906" lon="3.8167">
        <ele>49</ele>
      </trkpt>
      <trkpt lat="43.62906" lon="3.81673">
        <ele>50</ele>
      </trkpt>
      <trkpt lat="43.62906" lon="3.81675">
        <ele>50</ele>
      </trkpt>
      <trkpt lat="43.62906" lon="3.81678">
        <ele>50</ele>
      </trkpt>
      <trkpt lat="43.62906" lon="3.81681">
        <ele>50</ele>
      </trkpt>
      <trkpt lat="43.62906" lon="3.81683">
        <ele>50</ele>
      </trkpt>
      <trkpt lat="43.62906" lon="3.81688">
        <ele>50</ele>
      </trkpt>
      <trkpt lat="43.62906" lon="3.81692">
        <ele>50</ele>
      </trkpt>
      <trkpt lat="43.62906" lon="3.81697">
        <ele>52</ele>
      </trkpt>
      <trkpt lat="43.62906" lon="3.81701">
        <ele>52</ele>
      </trkpt>
      <trkpt lat="43.62908" lon="3.81704">
        <ele>52</ele>
      </trkpt>
      <trkpt lat="43.62908" lon="3.81708">
        <ele>52</ele>
      </trkpt>
      <trkpt lat="43.62906" lon="3.81713">
        <ele>52</ele>
      </trkpt>
      <trkpt lat="43.62906" lon="3.81717">
        <ele>54</ele>
      </trkpt>
      <trkpt lat="43.62906" lon="3.8172">
        <ele>54</ele>
      </trkpt>
      <trkpt lat="43.62906" lon="3.81724">
        <ele>54</ele>
      </trkpt>
      <trkpt lat="43.62906" lon="3.81727">
        <ele>54</ele>
      </trkpt>
      <trkpt lat="43.62908" lon="3.8173">
        <ele>54</ele>
      </trkpt>
      <trkpt lat="43.62909" lon="3.81733">
        <ele>56</ele>
      </trkpt>
      <trkpt lat="43.62909" lon="3.81737">
        <ele>56</ele>
      </trkpt>
      <trkpt lat="43.6291" lon="3.8174">
        <ele>56</ele>
      </trkpt>
      <trkpt lat="43.62912" lon="3.81743">
        <ele>56</ele>
      </trkpt>
      <trkpt lat="43.62914" lon="3.81745">
        <ele>56</ele>
      </trkpt>
      <trkpt lat="43.62917" lon="3.81745">
        <ele>57</ele>
      </trkpt>
      <trkpt lat="43.6292" lon="3.81747">
        <ele>57</ele>
      </trkpt>
      <trkpt lat="43.62923" lon="3.81749">
        <ele>57</ele>
      </trkpt>
      <trkpt lat="43.62925" lon="3.81751">
        <ele>57</ele>
      </trkpt>
      <trkpt lat="43.62928" lon="3.81752">
        <ele>57</ele>
      </trkpt>
      <trkpt lat="43.6293" lon="3.81753">
        <ele>58</ele>
      </trkpt>
      <trkpt lat="43.62933" lon="3.81754">
        <ele>58</ele>
      </trkpt>
      <trkpt lat="43.62936" lon="3.81755">
        <ele>58</ele>
      </trkpt>
      <trkpt lat="43.62939" lon="3.81756">
        <ele>58</ele>
      </trkpt>
      <trkpt lat="43.62943" lon="3.81758">
        <ele>58</ele>
      </trkpt>
      <trkpt lat="43.62944" lon="3.81761">
        <ele>58</ele>
      </trkpt>
      <trkpt lat="43.62945" lon="3.81763">
        <ele>58</ele>
      </trkpt>
      <trkpt lat="43.62946" lon="3.81765">
        <ele>58</ele>
      </trkpt>
      <trkpt lat="43.62948" lon="3.81768">
        <ele>58</ele>
      </trkpt>
      <trkpt lat="43.6295" lon="3.81769">
        <ele>58</ele>
      </trkpt>
      <trkpt lat="43.62951" lon="3.81771">
        <ele>58</ele>
      </trkpt>
      <trkpt lat="43.62953" lon="3.81772">
        <ele>58</ele>
      </trkpt>
      <trkpt lat="43.62955" lon="3.81774">
        <ele>58</ele>
      </trkpt>
      <trkpt lat="43.62957" lon="3.81775">
        <ele>58</ele>
      </trkpt>
      <trkpt lat="43.62959" lon="3.81776">
        <ele>58</ele>
      </trkpt>
      <trkpt lat="43.62961" lon="3.81778">
        <ele>59</ele>
      </trkpt>
      <trkpt lat="43.62963" lon="3.8178">
        <ele>59</ele>
      </trkpt>
      <trkpt lat="43.62965" lon="3.81781">
        <ele>59</ele>
      </trkpt>
      <trkpt lat="43.62967" lon="3.81783">
        <ele>59</ele>
      </trkpt>
      <trkpt lat="43.62969" lon="3.81785">
        <ele>59</ele>
      </trkpt>
      <trkpt lat="43.62971" lon="3.81787">
        <ele>59</ele>
      </trkpt>
      <trkpt lat="43.62972" lon="3.81789">
        <ele>59</ele>
      </trkpt>
      <trkpt lat="43.62974" lon="3.81791">
        <ele>59</ele>
      </trkpt>
      <trkpt lat="43.62976" lon="3.81794">
        <ele>59</ele>
      </trkpt>
      <trkpt lat="43.62978" lon="3.81795">
        <ele>59</ele>
      </trkpt>
      <trkpt lat="43.6298" lon="3.81797">
        <ele>59</ele>
      </trkpt>
      <trkpt lat="43.62982" lon="3.81799">
        <ele>59</ele>
      </trkpt>
      <trkpt lat="43.62984" lon="3.818">
        <ele>59</ele>
      </trkpt>
      <trkpt lat="43.62986" lon="3.81802">
        <ele>59</ele>
      </trkpt>
      <trkpt lat="43.62988" lon="3.81804">
        <ele>59</ele>
      </trkpt>
      <trkpt lat="43.62989" lon="3.81806">
        <ele>59</ele>
      </trkpt>
      <trkpt lat="43.62991" lon="3.81807">
        <ele>59</ele>
      </trkpt>
      <trkpt lat="43.62994" lon="3.81807">
        <ele>59</ele>
      </trkpt>
      <trkpt lat="43.62996" lon="3.8181">
        <ele>60</ele>
      </trkpt>
      <trkpt lat="43.62997" lon="3.81812">
        <ele>60</ele>
      </trkpt>
      <trkpt lat="43.62999" lon="3.81814">
        <ele>60</ele>
      </trkpt>
      <trkpt lat="43.63001" lon="3.81816">
        <ele>60</ele>
      </trkpt>
      <trkpt lat="43.63004" lon="3.81818">
        <ele>60</ele>
      </trkpt>
      <trkpt lat="43.63006" lon="3.81821">
        <ele>60</ele>
      </trkpt>
      <trkpt lat="43.63009" lon="3.81823">
        <ele>60</ele>
      </trkpt>
      <trkpt lat="43.63012" lon="3.81825">
        <ele>60</ele>
      </trkpt>
      <trkpt lat="43.63014" lon="3.81828">
        <ele>60</ele>
      </trkpt>
      <trkpt lat="43.63017" lon="3.8183">
        <ele>61</ele>
      </trkpt>
      <trkpt lat="43.6302" lon="3.81832">
        <ele>61</ele>
      </trkpt>
      <trkpt lat="43.63023" lon="3.81834">
        <ele>61</ele>
      </trkpt>
      <trkpt lat="43.63026" lon="3.81836">
        <ele>61</ele>
      </trkpt>
      <trkpt lat="43.63029" lon="3.81838">
        <ele>61</ele>
      </trkpt>
      <trkpt lat="43.63031" lon="3.81842">
        <ele>61</ele>
      </trkpt>
      <trkpt lat="43.63034" lon="3.81845">
        <ele>61</ele>
      </trkpt>
      <trkpt lat="43.63036" lon="3.81848">
        <ele>61</ele>
      </trkpt>
      <trkpt lat="43.63039" lon="3.81852">
        <ele>61</ele>
      </trkpt>
      <trkpt lat="43.63041" lon="3.81854">
        <ele>61</ele>
      </trkpt>
      <trkpt lat="43.63044" lon="3.81857">
        <ele>62</ele>
      </trkpt>
      <trkpt lat="43.63047" lon="3.8186">
        <ele>62</ele>
      </trkpt>
      <trkpt lat="43.6305" lon="3.81862">
        <ele>62</ele>
      </trkpt>
      <trkpt lat="43.63052" lon="3.81865">
        <ele>62</ele>
      </trkpt>
      <trkpt lat="43.63054" lon="3.81868">
        <ele>62</ele>
      </trkpt>
      <trkpt lat="43.63056" lon="3.81872">
        <ele>62</ele>
      </trkpt>
      <trkpt lat="43.63057" lon="3.81876">
        <ele>62</ele>
      </trkpt>
      <trkpt lat="43.63058" lon="3.81879">
        <ele>62</ele>
      </trkpt>
      <trkpt lat="43.63061" lon="3.81883">
        <ele>62</ele>
      </trkpt>
      <trkpt lat="43.63062" lon="3.81887">
        <ele>62</ele>
      </trkpt>
      <trkpt lat="43.63063" lon="3.81891">
        <ele>62</ele>
      </trkpt>
      <trkpt lat="43.63063" lon="3.81895">
        <ele>62</ele>
      </trkpt>
      <trkpt lat="43.63063" lon="3.81899">
        <ele>62</ele>
      </trkpt>
      <trkpt lat="43.63062" lon="3.81905">
        <ele>62</ele>
      </trkpt>
      <trkpt lat="43.63062" lon="3.8191">
        <ele>62</ele>
      </trkpt>
      <trkpt lat="43.63063" lon="3.81915">
        <ele>62</ele>
      </trkpt>
      <trkpt lat="43.63064" lon="3.81919">
        <ele>62</ele>
      </trkpt>
      <trkpt lat="43.63065" lon="3.81922">
        <ele>62</ele>
      </trkpt>
      <trkpt lat="43.63065" lon="3.81926">
        <ele>62</ele>
      </trkpt>
      <trkpt lat="43.63065" lon="3.81931">
        <ele>62</ele>
      </trkpt>
      <trkpt lat="43.63067" lon="3.81936">
        <ele>64</ele>
      </trkpt>
      <trkpt lat="43.63068" lon="3.81941">
        <ele>64</ele>
      </trkpt>
      <trkpt lat="43.63069" lon="3.81946">
        <ele>64</ele>
      </trkpt>
      <trkpt lat="43.6307" lon="3.81951">
        <ele>64</ele>
      </trkpt>
      <trkpt lat="43.63072" lon="3.81955">
        <ele>64</ele>
      </trkpt>
      <trkpt lat="43.63072" lon="3.8196">
        <ele>64</ele>
      </trkpt>
      <trkpt lat="43.63073" lon="3.81966">
        <ele>64</ele>
      </trkpt>
      <trkpt lat="43.63074" lon="3.81972">
        <ele>64</ele>
      </trkpt>
      <trkpt lat="43.63074" lon="3.81978">
        <ele>64</ele>
      </trkpt>
      <trkpt lat="43.63074" lon="3.81983">
        <ele>64</ele>
      </trkpt>
      <trkpt lat="43.63074" lon="3.81988">
        <ele>63</ele>
      </trkpt>
      <trkpt lat="43.63074" lon="3.81994">
        <ele>63</ele>
      </trkpt>
      <trkpt lat="43.63074" lon="3.81999">
        <ele>63</ele>
      </trkpt>
      <trkpt lat="43.63074" lon="3.82004">
        <ele>63</ele>
      </trkpt>
      <trkpt lat="43.63073" lon="3.8201">
        <ele>63</ele>
      </trkpt>
      <trkpt lat="43.63072" lon="3.82015">
        <ele>63</ele>
      </trkpt>
      <trkpt lat="43.63071" lon="3.8202">
        <ele>63</ele>
      </trkpt>
      <trkpt lat="43.6307" lon="3.82025">
        <ele>63</ele>
      </trkpt>
      <trkpt lat="43.63069" lon="3.82031">
        <ele>63</ele>
      </trkpt>
      <trkpt lat="43.63069" lon="3.82036">
        <ele>63</ele>
      </trkpt>
      <trkpt lat="43.63069" lon="3.82041">
        <ele>63</ele>
      </trkpt>
      <trkpt lat="43.63068" lon="3.82047">
        <ele>63</ele>
      </trkpt>
      <trkpt lat="43.63069" lon="3.82052">
        <ele>63</ele>
      </trkpt>
      <trkpt lat="43.63069" lon="3.82058">
        <ele>63</ele>
      </trkpt>
      <trkpt lat="43.63069" lon="3.82063">
        <ele>63</ele>
      </trkpt>
      <trkpt lat="43.6307" lon="3.82068">
        <ele>63</ele>
      </trkpt>
      <trkpt lat="43.6307" lon="3.82073">
        <ele>63</ele>
      </trkpt>
      <trkpt lat="43.63069" lon="3.82079">
        <ele>63</ele>
      </trkpt>
      <trkpt lat="43.63069" lon="3.82084">
        <ele>63</ele>
      </trkpt>
      <trkpt lat="43.63069" lon="3.82089">
        <ele>63</ele>
      </trkpt>
      <trkpt lat="43.63069" lon="3.82095">
        <ele>61</ele>
      </trkpt>
      <trkpt lat="43.63069" lon="3.821">
        <ele>61</ele>
      </trkpt>
      <trkpt lat="43.63069" lon="3.82105">
        <ele>61</ele>
      </trkpt>
      <trkpt lat="43.63069" lon="3.8211">
        <ele>61</ele>
      </trkpt>
      <trkpt lat="43.63069" lon="3.82115">
        <ele>61</ele>
      </trkpt>
      <trkpt lat="43.63069" lon="3.82121">
        <ele>61</ele>
      </trkpt>
      <trkpt lat="43.63069" lon="3.82126">
        <ele>61</ele>
      </trkpt>
      <trkpt lat="43.63069" lon="3.82132">
        <ele>61</ele>
      </trkpt>
      <trkpt lat="43.63069" lon="3.82137">
        <ele>61</ele>
      </trkpt>
      <trkpt lat="43.63069" lon="3.82142">
        <ele>61</ele>
      </trkpt>
      <trkpt lat="43.63069" lon="3.82148">
        <ele>62</ele>
      </trkpt>
      <trkpt lat="43.63069" lon="3.82153">
        <ele>62</ele>
      </trkpt>
      <trkpt lat="43.63068" lon="3.82158">
        <ele>62</ele>
      </trkpt>
      <trkpt lat="43.63067" lon="3.82164">
        <ele>62</ele>
      </trkpt>
      <trkpt lat="43.63067" lon="3.82169">
        <ele>62</ele>
      </trkpt>
      <trkpt lat="43.63065" lon="3.82174">
        <ele>62</ele>
      </trkpt>
      <trkpt lat="43.63065" lon="3.8218">
        <ele>62</ele>
      </trkpt>
      <trkpt lat="43.63065" lon="3.82185">
        <ele>62</ele>
      </trkpt>
      <trkpt lat="43.63065" lon="3.8219">
        <ele>62</ele>
      </trkpt>
      <trkpt lat="43.63065" lon="3.82196">
        <ele>62</ele>
      </trkpt>
      <trkpt lat="43.63065" lon="3.82201">
        <ele>62</ele>
      </trkpt>
      <trkpt lat="43.63065" lon="3.82206">
        <ele>62</ele>
      </trkpt>
      <trkpt lat="43.63064" lon="3.82211">
        <ele>62</ele>
      </trkpt>
      <trkpt lat="43.63065" lon="3.82215">
        <ele>62</ele>
      </trkpt>
      <trkpt lat="43.63065" lon="3.8222">
        <ele>62</ele>
      </trkpt>
      <trkpt lat="43.63064" lon="3.82225">
        <ele>62</ele>
      </trkpt>
      <trkpt lat="43.63064" lon="3.82229">
        <ele>62</ele>
      </trkpt>
      <trkpt lat="43.63064" lon="3.82234">
        <ele>62</ele>
      </trkpt>
      <trkpt lat="43.63064" lon="3.82238">
        <ele>62</ele>
      </trkpt>
      <trkpt lat="43.63064" lon="3.82243">
        <ele>62</ele>
      </trkpt>
      <trkpt lat="43.63064" lon="3.82247">
        <ele>63</ele>
      </trkpt>
      <trkpt lat="43.63064" lon="3.82252">
        <ele>63</ele>
      </trkpt>
      <trkpt lat="43.63064" lon="3.82257">
        <ele>63</ele>
      </trkpt>
      <trkpt lat="43.63064" lon="3.82262">
        <ele>63</ele>
      </trkpt>
      <trkpt lat="43.63064" lon="3.82266">
        <ele>63</ele>
      </trkpt>
      <trkpt lat="43.63064" lon="3.82272">
        <ele>63</ele>
      </trkpt>
      <trkpt lat="43.63064" lon="3.82277">
        <ele>63</ele>
      </trkpt>
      <trkpt lat="43.63064" lon="3.82282">
        <ele>63</ele>
      </trkpt>
      <trkpt lat="43.63064" lon="3.82287">
        <ele>63</ele>
      </trkpt>
      <trkpt lat="43.63064" lon="3.82293">
        <ele>63</ele>
      </trkpt>
      <trkpt lat="43.63064" lon="3.82299">
        <ele>63</ele>
      </trkpt>
      <trkpt lat="43.63064" lon="3.82304">
        <ele>63</ele>
      </trkpt>
      <trkpt lat="43.63065" lon="3.8231">
        <ele>63</ele>
      </trkpt>
      <trkpt lat="43.63065" lon="3.82315">
        <ele>63</ele>
      </trkpt>
      <trkpt lat="43.63064" lon="3.8232">
        <ele>63</ele>
      </trkpt>
      <trkpt lat="43.63064" lon="3.82326">
        <ele>63</ele>
      </trkpt>
      <trkpt lat="43.63064" lon="3.82332">
        <ele>63</ele>
      </trkpt>
      <trkpt lat="43.63064" lon="3.82336">
        <ele>63</ele>
      </trkpt>
      <trkpt lat="43.63063" lon="3.82342">
        <ele>63</ele>
      </trkpt>
      <trkpt lat="43.63063" lon="3.82347">
        <ele>63</ele>
      </trkpt>
      <trkpt lat="43.63062" lon="3.82352">
        <ele>63</ele>
      </trkpt>
      <trkpt lat="43.63062" lon="3.82356">
        <ele>63</ele>
      </trkpt>
      <trkpt lat="43.63061" lon="3.8236">
        <ele>63</ele>
      </trkpt>
      <trkpt lat="43.63061" lon="3.82365">
        <ele>63</ele>
      </trkpt>
      <trkpt lat="43.63061" lon="3.8237">
        <ele>63</ele>
      </trkpt>
      <trkpt lat="43.63061" lon="3.82374">
        <ele>63</ele>
      </trkpt>
      <trkpt lat="43.63061" lon="3.8238">
        <ele>63</ele>
      </trkpt>
      <trkpt lat="43.63061" lon="3.82385">
        <ele>63</ele>
      </trkpt>
      <trkpt lat="43.63061" lon="3.8239">
        <ele>63</ele>
      </trkpt>
      <trkpt lat="43.63061" lon="3.82395">
        <ele>63</ele>
      </trkpt>
      <trkpt lat="43.6306" lon="3.824">
        <ele>63</ele>
      </trkpt>
      <trkpt lat="43.6306" lon="3.82406">
        <ele>63</ele>
      </trkpt>
      <trkpt lat="43.6306" lon="3.82411">
        <ele>63</ele>
      </trkpt>
      <trkpt lat="43.6306" lon="3.82417">
        <ele>63</ele>
      </trkpt>
      <trkpt lat="43.6306" lon="3.82422">
        <ele>63</ele>
      </trkpt>
      <trkpt lat="43.6306" lon="3.82428">
        <ele>63</ele>
      </trkpt>
      <trkpt lat="43.63059" lon="3.82433">
        <ele>63</ele>
      </trkpt>
      <trkpt lat="43.63058" lon="3.82437">
        <ele>63</ele>
      </trkpt>
      <trkpt lat="43.63058" lon="3.82442">
        <ele>63</ele>
      </trkpt>
      <trkpt lat="43.63058" lon="3.82447">
        <ele>63</ele>
      </trkpt>
      <trkpt lat="43.63058" lon="3.82451">
        <ele>63</ele>
      </trkpt>
      <trkpt lat="43.63058" lon="3.82456">
        <ele>63</ele>
      </trkpt>
      <trkpt lat="43.63058" lon="3.82461">
        <ele>63</ele>
      </trkpt>
      <trkpt lat="43.63058" lon="3.82467">
        <ele>63</ele>
      </trkpt>
      <trkpt lat="43.63057" lon="3.82473">
        <ele>63</ele>
      </trkpt>
      <trkpt lat="43.63056" lon="3.82478">
        <ele>63</ele>
      </trkpt>
      <trkpt lat="43.63055" lon="3.82483">
        <ele>63</ele>
      </trkpt>
      <trkpt lat="43.63053" lon="3.82489">
        <ele>63</ele>
      </trkpt>
      <trkpt lat="43.63051" lon="3.82495">
        <ele>63</ele>
      </trkpt>
      <trkpt lat="43.63049" lon="3.82501">
        <ele>63</ele>
      </trkpt>
      <trkpt lat="43.63047" lon="3.82507">
        <ele>62</ele>
      </trkpt>
      <trkpt lat="43.63045" lon="3.82512">
        <ele>62</ele>
      </trkpt>
      <trkpt lat="43.63043" lon="3.82518">
        <ele>62</ele>
      </trkpt>
      <trkpt lat="43.63042" lon="3.82524">
        <ele>62</ele>
      </trkpt>
      <trkpt lat="43.63043" lon="3.8253">
        <ele>62</ele>
      </trkpt>
      <trkpt lat="43.63042" lon="3.82536">
        <ele>62</ele>
      </trkpt>
      <trkpt lat="43.63042" lon="3.82542">
        <ele>62</ele>
      </trkpt>
      <trkpt lat="43.63042" lon="3.82547">
        <ele>62</ele>
      </trkpt>
      <trkpt lat="43.63041" lon="3.82553">
        <ele>62</ele>
      </trkpt>
      <trkpt lat="43.63041" lon="3.82558">
        <ele>62</ele>
      </trkpt>
      <trkpt lat="43.63042" lon="3.82563">
        <ele>62</ele>
      </trkpt>
      <trkpt lat="43.63043" lon="3.82568">
        <ele>62</ele>
      </trkpt>
      <trkpt lat="43.63043" lon="3.82572">
        <ele>62</ele>
      </trkpt>
      <trkpt lat="43.63043" lon="3.82577">
        <ele>62</ele>
      </trkpt>
      <trkpt lat="43.63043" lon="3.82581">
        <ele>62</ele>
      </trkpt>
      <trkpt lat="43.63043" lon="3.82585">
        <ele>62</ele>
      </trkpt>
      <trkpt lat="43.63043" lon="3.82589">
        <ele>62</ele>
      </trkpt>
      <trkpt lat="43.63043" lon="3.82593">
        <ele>62</ele>
      </trkpt>
      <trkpt lat="43.63044" lon="3.82596">
        <ele>62</ele>
      </trkpt>
      <trkpt lat="43.63044" lon="3.826">
        <ele>62</ele>
      </trkpt>
      <trkpt lat="43.63044" lon="3.82604">
        <ele>64</ele>
      </trkpt>
      <trkpt lat="43.63044" lon="3.82607">
        <ele>64</ele>
      </trkpt>
      <trkpt lat="43.63043" lon="3.8261">
        <ele>64</ele>
      </trkpt>
      <trkpt lat="43.63043" lon="3.82614">
        <ele>64</ele>
      </trkpt>
      <trkpt lat="43.63041" lon="3.82618">
        <ele>64</ele>
      </trkpt>
      <trkpt lat="43.6304" lon="3.82621">
        <ele>64</ele>
      </trkpt>
      <trkpt lat="43.63039" lon="3.82623">
        <ele>64</ele>
      </trkpt>
      <trkpt lat="43.63038" lon="3.82626">
        <ele>64</ele>
      </trkpt>
      <trkpt lat="43.63036" lon="3.82629">
        <ele>64</ele>
      </trkpt>
      <trkpt lat="43.63035" lon="3.82632">
        <ele>64</ele>
      </trkpt>
      <trkpt lat="43.63034" lon="3.82634">
        <ele>64</ele>
      </trkpt>
      <trkpt lat="43.63032" lon="3.82637">
        <ele>64</ele>
      </trkpt>
      <trkpt lat="43.6303" lon="3.82638">
        <ele>64</ele>
      </trkpt>
      <trkpt lat="43.63027" lon="3.82639">
        <ele>64</ele>
      </trkpt>
      <trkpt lat="43.63024" lon="3.82639">
        <ele>64</ele>
      </trkpt>
      <trkpt lat="43.63022" lon="3.82639">
        <ele>64</ele>
      </trkpt>
      <trkpt lat="43.63019" lon="3.8264">
        <ele>64</ele>
      </trkpt>
      <trkpt lat="43.63017" lon="3.8264">
        <ele>64</ele>
      </trkpt>
      <trkpt lat="43.63015" lon="3.8264">
        <ele>64</ele>
      </trkpt>
      <trkpt lat="43.63012" lon="3.8264">
        <ele>64</ele>
      </trkpt>
      <trkpt lat="43.6301" lon="3.82641">
        <ele>64</ele>
      </trkpt>
      <trkpt lat="43.63008" lon="3.82644">
        <ele>64</ele>
      </trkpt>
      <trkpt lat="43.63006" lon="3.82647">
        <ele>64</ele>
      </trkpt>
      <trkpt lat="43.63005" lon="3.82649">
        <ele>64</ele>
      </trkpt>
      <trkpt lat="43.63002" lon="3.82652">
        <ele>64</ele>
      </trkpt>
      <trkpt lat="43.63001" lon="3.82655">
        <ele>64</ele>
      </trkpt>
      <trkpt lat="43.62999" lon="3.82658">
        <ele>64</ele>
      </trkpt>
      <trkpt lat="43.62997" lon="3.8266">
        <ele>64</ele>
      </trkpt>
      <trkpt lat="43.62994" lon="3.82664">
        <ele>64</ele>
      </trkpt>
      <trkpt lat="43.62992" lon="3.82667">
        <ele>64</ele>
      </trkpt>
      <trkpt lat="43.62989" lon="3.82669">
        <ele>65</ele>
      </trkpt>
      <trkpt lat="43.62987" lon="3.82672">
        <ele>65</ele>
      </trkpt>
      <trkpt lat="43.62984" lon="3.82675">
        <ele>65</ele>
      </trkpt>
      <trkpt lat="43.62982" lon="3.82677">
        <ele>65</ele>
      </trkpt>
      <trkpt lat="43.6298" lon="3.8268">
        <ele>65</ele>
      </trkpt>
      <trkpt lat="43.62978" lon="3.82683">
        <ele>65</ele>
      </trkpt>
      <trkpt lat="43.62975" lon="3.82686">
        <ele>65</ele>
      </trkpt>
      <trkpt lat="43.62972" lon="3.82689">
        <ele>65</ele>
      </trkpt>
      <trkpt lat="43.6297" lon="3.82691">
        <ele>65</ele>
      </trkpt>
      <trkpt lat="43.62968" lon="3.82694">
        <ele>65</ele>
      </trkpt>
      <trkpt lat="43.62965" lon="3.82696">
        <ele>66</ele>
      </trkpt>
      <trkpt lat="43.62963" lon="3.82699">
        <ele>66</ele>
      </trkpt>
      <trkpt lat="43.6296" lon="3.82702">
        <ele>66</ele>
      </trkpt>
      <trkpt lat="43.62957" lon="3.82704">
        <ele>66</ele>
      </trkpt>
      <trkpt lat="43.62955" lon="3.82706">
        <ele>66</ele>
      </trkpt>
      <trkpt lat="43.62952" lon="3.82708">
        <ele>66</ele>
      </trkpt>
      <trkpt lat="43.62949" lon="3.82709">
        <ele>66</ele>
      </trkpt>
      <trkpt lat="43.62946" lon="3.82711">
        <ele>66</ele>
      </trkpt>
      <trkpt lat="43.62944" lon="3.82714">
        <ele>66</ele>
      </trkpt>
      <trkpt lat="43.62941" lon="3.82717">
        <ele>66</ele>
      </trkpt>
      <trkpt lat="43.62938" lon="3.82719">
        <ele>66</ele>
      </trkpt>
      <trkpt lat="43.62935" lon="3.82722">
        <ele>66</ele>
      </trkpt>
      <trkpt lat="43.62933" lon="3.82725">
        <ele>66</ele>
      </trkpt>
      <trkpt lat="43.62931" lon="3.82729">
        <ele>66</ele>
      </trkpt>
      <trkpt lat="43.62928" lon="3.82731">
        <ele>66</ele>
      </trkpt>
      <trkpt lat="43.62926" lon="3.82734">
        <ele>66</ele>
      </trkpt>
      <trkpt lat="43.62924" lon="3.82737">
        <ele>66</ele>
      </trkpt>
      <trkpt lat="43.62922" lon="3.8274">
        <ele>66</ele>
      </trkpt>
      <trkpt lat="43.62919" lon="3.82743">
        <ele>66</ele>
      </trkpt>
      <trkpt lat="43.62917" lon="3.82746">
        <ele>66</ele>
      </trkpt>
      <trkpt lat="43.62915" lon="3.82748">
        <ele>67</ele>
      </trkpt>
      <trkpt lat="43.62913" lon="3.82751">
        <ele>67</ele>
      </trkpt>
      <trkpt lat="43.6291" lon="3.82754">
        <ele>67</ele>
      </trkpt>
      <trkpt lat="43.62908" lon="3.82758">
        <ele>67</ele>
      </trkpt>
      <trkpt lat="43.62906" lon="3.82761">
        <ele>67</ele>
      </trkpt>
      <trkpt lat="43.62903" lon="3.82765">
        <ele>67</ele>
      </trkpt>
      <trkpt lat="43.62902" lon="3.82768">
        <ele>67</ele>
      </trkpt>
      <trkpt lat="43.62902" lon="3.82773">
        <ele>67</ele>
      </trkpt>
      <trkpt lat="43.62902" lon="3.82778">
        <ele>67</ele>
      </trkpt>
      <trkpt lat="43.62902" lon="3.82782">
        <ele>67</ele>
      </trkpt>
      <trkpt lat="43.62902" lon="3.82787">
        <ele>67</ele>
      </trkpt>
      <trkpt lat="43.62902" lon="3.82792">
        <ele>67</ele>
      </trkpt>
      <trkpt lat="43.62902" lon="3.82796">
        <ele>67</ele>
      </trkpt>
      <trkpt lat="43.62903" lon="3.82801">
        <ele>67</ele>
      </trkpt>
      <trkpt lat="43.62902" lon="3.82805">
        <ele>67</ele>
      </trkpt>
      <trkpt lat="43.62901" lon="3.82809">
        <ele>67</ele>
      </trkpt>
      <trkpt lat="43.62899" lon="3.82812">
        <ele>67</ele>
      </trkpt>
      <trkpt lat="43.62898" lon="3.82814">
        <ele>67</ele>
      </trkpt>
      <trkpt lat="43.62895" lon="3.82817">
        <ele>67</ele>
      </trkpt>
      <trkpt lat="43.62893" lon="3.82818">
        <ele>67</ele>
      </trkpt>
      <trkpt lat="43.62891" lon="3.82818">
        <ele>68</ele>
      </trkpt>
      <trkpt lat="43.62888" lon="3.82818">
        <ele>68</ele>
      </trkpt>
      <trkpt lat="43.62886" lon="3.82818">
        <ele>68</ele>
      </trkpt>
      <trkpt lat="43.62884" lon="3.82818">
        <ele>68</ele>
      </trkpt>
      <trkpt lat="43.62882" lon="3.82818">
        <ele>68</ele>
      </trkpt>
      <trkpt lat="43.62881" lon="3.82818">
        <ele>68</ele>
      </trkpt>
      <trkpt lat="43.62878" lon="3.82818">
        <ele>68</ele>
      </trkpt>
      <trkpt lat="43.62876" lon="3.82819">
        <ele>68</ele>
      </trkpt>
      <trkpt lat="43.62874" lon="3.82819">
        <ele>68</ele>
      </trkpt>
      <trkpt lat="43.62872" lon="3.8282">
        <ele>68</ele>
      </trkpt>
      <trkpt lat="43.6287" lon="3.8282">
        <ele>69</ele>
      </trkpt>
      <trkpt lat="43.62868" lon="3.8282">
        <ele>69</ele>
      </trkpt>
      <trkpt lat="43.62866" lon="3.82821">
        <ele>69</ele>
      </trkpt>
      <trkpt lat="43.62865" lon="3.82821">
        <ele>69</ele>
      </trkpt>
      <trkpt lat="43.62861" lon="3.82821">
        <ele>69</ele>
      </trkpt>
      <trkpt lat="43.62858" lon="3.82821">
        <ele>69</ele>
      </trkpt>
      <trkpt lat="43.62855" lon="3.82823">
        <ele>69</ele>
      </trkpt>
      <trkpt lat="43.62853" lon="3.82828">
        <ele>70</ele>
      </trkpt>
      <trkpt lat="43.62853" lon="3.8283">
        <ele>70</ele>
      </trkpt>
      <trkpt lat="43.62852" lon="3.82833">
        <ele>70</ele>
      </trkpt>
      <trkpt lat="43.62852" lon="3.82836">
        <ele>70</ele>
      </trkpt>
      <trkpt lat="43.62851" lon="3.82839">
        <ele>70</ele>
      </trkpt>
      <trkpt lat="43.6285" lon="3.82841">
        <ele>70</ele>
      </trkpt>
      <trkpt lat="43.6285" lon="3.82844">
        <ele>70</ele>
      </trkpt>
      <trkpt lat="43.6285" lon="3.82847">
        <ele>70</ele>
      </trkpt>
      <trkpt lat="43.62849" lon="3.82851">
        <ele>71</ele>
      </trkpt>
      <trkpt lat="43.62849" lon="3.82855">
        <ele>71</ele>
      </trkpt>
      <trkpt lat="43.62848" lon="3.8286">
        <ele>71</ele>
      </trkpt>
      <trkpt lat="43.62848" lon="3.82864">
        <ele>71</ele>
      </trkpt>
      <trkpt lat="43.62847" lon="3.82868">
        <ele>71</ele>
      </trkpt>
      <trkpt lat="43.62846" lon="3.82873">
        <ele>73</ele>
      </trkpt>
      <trkpt lat="43.62845" lon="3.82877">
        <ele>73</ele>
      </trkpt>
      <trkpt lat="43.62845" lon="3.82881">
        <ele>73</ele>
      </trkpt>
      <trkpt lat="43.62844" lon="3.82886">
        <ele>73</ele>
      </trkpt>
      <trkpt lat="43.62844" lon="3.8289">
        <ele>73</ele>
      </trkpt>
      <trkpt lat="43.62843" lon="3.82894">
        <ele>74</ele>
      </trkpt>
      <trkpt lat="43.62843" lon="3.82899">
        <ele>74</ele>
      </trkpt>
      <trkpt lat="43.62842" lon="3.82904">
        <ele>74</ele>
      </trkpt>
      <trkpt lat="43.62841" lon="3.82908">
        <ele>74</ele>
      </trkpt>
      <trkpt lat="43.6284" lon="3.82913">
        <ele>74</ele>
      </trkpt>
      <trkpt lat="43.62839" lon="3.82917">
        <ele>75</ele>
      </trkpt>
      <trkpt lat="43.62839" lon="3.82922">
        <ele>75</ele>
      </trkpt>
      <trkpt lat="43.62837" lon="3.82927">
        <ele>75</ele>
      </trkpt>
      <trkpt lat="43.62837" lon="3.82931">
        <ele>75</ele>
      </trkpt>
      <trkpt lat="43.62835" lon="3.82936">
        <ele>75</ele>
      </trkpt>
      <trkpt lat="43.62836" lon="3.8294">
        <ele>76</ele>
      </trkpt>
      <trkpt lat="43.62839" lon="3.82942">
        <ele>76</ele>
      </trkpt>
      <trkpt lat="43.62841" lon="3.82943">
        <ele>76</ele>
      </trkpt>
      <trkpt lat="43.62844" lon="3.82944">
        <ele>76</ele>
      </trkpt>
      <trkpt lat="43.62847" lon="3.82946">
        <ele>76</ele>
      </trkpt>
      <trkpt lat="43.62849" lon="3.82946">
        <ele>76</ele>
      </trkpt>
      <trkpt lat="43.62851" lon="3.82946">
        <ele>76</ele>
      </trkpt>
      <trkpt lat="43.62853" lon="3.82947">
        <ele>76</ele>
      </trkpt>
      <trkpt lat="43.62855" lon="3.82947">
        <ele>76</ele>
      </trkpt>
      <trkpt lat="43.62857" lon="3.82947">
        <ele>76</ele>
      </trkpt>
      <trkpt lat="43.6286" lon="3.82948">
        <ele>76</ele>
      </trkpt>
      <trkpt lat="43.62861" lon="3.82948">
        <ele>76</ele>
      </trkpt>
      <trkpt lat="43.62863" lon="3.82949">
        <ele>76</ele>
      </trkpt>
      <trkpt lat="43.62865" lon="3.82949">
        <ele>76</ele>
      </trkpt>
      <trkpt lat="43.62867" lon="3.82949">
        <ele>76</ele>
      </trkpt>
      <trkpt lat="43.62869" lon="3.82949">
        <ele>76</ele>
      </trkpt>
      <trkpt lat="43.62871" lon="3.82949">
        <ele>76</ele>
      </trkpt>
      <trkpt lat="43.62874" lon="3.82949">
        <ele>76</ele>
      </trkpt>
      <trkpt lat="43.62875" lon="3.82949">
        <ele>76</ele>
      </trkpt>
      <trkpt lat="43.62878" lon="3.8295">
        <ele>76</ele>
      </trkpt>
      <trkpt lat="43.6288" lon="3.8295">
        <ele>76</ele>
      </trkpt>
      <trkpt lat="43.62882" lon="3.8295">
        <ele>76</ele>
      </trkpt>
      <trkpt lat="43.62884" lon="3.8295">
        <ele>76</ele>
      </trkpt>
      <trkpt lat="43.62886" lon="3.82951">
        <ele>76</ele>
      </trkpt>
      <trkpt lat="43.62888" lon="3.82951">
        <ele>76</ele>
      </trkpt>
      <trkpt lat="43.6289" lon="3.82952">
        <ele>76</ele>
      </trkpt>
      <trkpt lat="43.62892" lon="3.82952">
        <ele>76</ele>
      </trkpt>
      <trkpt lat="43.62894" lon="3.82953">
        <ele>77</ele>
      </trkpt>
      <trkpt lat="43.62895" lon="3.82957">
        <ele>77</ele>
      </trkpt>
      <trkpt lat="43.62895" lon="3.82962">
        <ele>77</ele>
      </trkpt>
      <trkpt lat="43.62894" lon="3.82965">
        <ele>77</ele>
      </trkpt>
      <trkpt lat="43.62894" lon="3.82969">
        <ele>77</ele>
      </trkpt>
      <trkpt lat="43.62895" lon="3.82973">
        <ele>79</ele>
      </trkpt>
      <trkpt lat="43.62895" lon="3.82976">
        <ele>79</ele>
      </trkpt>
      <trkpt lat="43.62895" lon="3.8298">
        <ele>79</ele>
      </trkpt>
      <trkpt lat="43.62895" lon="3.82985">
        <ele>79</ele>
      </trkpt>
      <trkpt lat="43.62895" lon="3.82989">
        <ele>79</ele>
      </trkpt>
      <trkpt lat="43.62896" lon="3.82993">
        <ele>81</ele>
      </trkpt>
      <trkpt lat="43.62896" lon="3.82998">
        <ele>81</ele>
      </trkpt>
      <trkpt lat="43.62896" lon="3.83002">
        <ele>81</ele>
      </trkpt>
      <trkpt lat="43.62897" lon="3.83007">
        <ele>81</ele>
      </trkpt>
      <trkpt lat="43.62897" lon="3.83011">
        <ele>81</ele>
      </trkpt>
      <trkpt lat="43.62898" lon="3.83015">
        <ele>82</ele>
      </trkpt>
      <trkpt lat="43.62898" lon="3.83019">
        <ele>82</ele>
      </trkpt>
      <trkpt lat="43.62898" lon="3.83023">
        <ele>82</ele>
      </trkpt>
      <trkpt lat="43.62898" lon="3.83027">
        <ele>82</ele>
      </trkpt>
      <trkpt lat="43.62899" lon="3.83032">
        <ele>82</ele>
      </trkpt>
      <trkpt lat="43.62899" lon="3.83036">
        <ele>83</ele>
      </trkpt>
      <trkpt lat="43.62899" lon="3.8304">
        <ele>83</ele>
      </trkpt>
      <trkpt lat="43.62899" lon="3.83045">
        <ele>83</ele>
      </trkpt>
      <trkpt lat="43.629" lon="3.83049">
        <ele>83</ele>
      </trkpt>
      <trkpt lat="43.629" lon="3.83053">
        <ele>83</ele>
      </trkpt>
      <trkpt lat="43.62901" lon="3.83057">
        <ele>84</ele>
      </trkpt>
      <trkpt lat="43.62901" lon="3.83061">
        <ele>84</ele>
      </trkpt>
      <trkpt lat="43.62901" lon="3.83064">
        <ele>84</ele>
      </trkpt>
      <trkpt lat="43.62902" lon="3.83068">
        <ele>84</ele>
      </trkpt>
      <trkpt lat="43.62902" lon="3.83072">
        <ele>84</ele>
      </trkpt>
      <trkpt lat="43.62902" lon="3.83076">
        <ele>85</ele>
      </trkpt>
      <trkpt lat="43.62902" lon="3.83079">
        <ele>85</ele>
      </trkpt>
      <trkpt lat="43.62902" lon="3.83083">
        <ele>85</ele>
      </trkpt>
      <trkpt lat="43.62903" lon="3.83087">
        <ele>85</ele>
      </trkpt>
      <trkpt lat="43.62903" lon="3.8309">
        <ele>85</ele>
      </trkpt>
      <trkpt lat="43.62902" lon="3.83093">
        <ele>87</ele>
      </trkpt>
      <trkpt lat="43.62899" lon="3.83093">
        <ele>87</ele>
      </trkpt>
      <trkpt lat="43.62896" lon="3.83091">
        <ele>87</ele>
      </trkpt>
      <trkpt lat="43.62893" lon="3.8309">
        <ele>87</ele>
      </trkpt>
      <trkpt lat="43.6289" lon="3.83089">
        <ele>87</ele>
      </trkpt>
      <trkpt lat="43.62888" lon="3.83089">
        <ele>87</ele>
      </trkpt>
      <trkpt lat="43.62886" lon="3.83088">
        <ele>87</ele>
      </trkpt>
      <trkpt lat="43.62884" lon="3.83088">
        <ele>87</ele>
      </trkpt>
      <trkpt lat="43.62882" lon="3.83087">
        <ele>87</ele>
      </trkpt>
      <trkpt lat="43.6288" lon="3.83087">
        <ele>87</ele>
      </trkpt>
      <trkpt lat="43.62878" lon="3.83087">
        <ele>87</ele>
      </trkpt>
      <trkpt lat="43.62877" lon="3.83088">
        <ele>87</ele>
      </trkpt>
      <trkpt lat="43.62875" lon="3.83088">
        <ele>87</ele>
      </trkpt>
      <trkpt lat="43.62872" lon="3.83088">
        <ele>87</ele>
      </trkpt>
      <trkpt lat="43.6287" lon="3.83087">
        <ele>87</ele>
      </trkpt>
      <trkpt lat="43.62868" lon="3.83087">
        <ele>87</ele>
      </trkpt>
      <trkpt lat="43.62866" lon="3.83086">
        <ele>87</ele>
      </trkpt>
      <trkpt lat="43.62864" lon="3.83086">
        <ele>87</ele>
      </trkpt>
      <trkpt lat="43.62861" lon="3.83085">
        <ele>87</ele>
      </trkpt>
      <trkpt lat="43.62859" lon="3.83085">
        <ele>87</ele>
      </trkpt>
      <trkpt lat="43.62857" lon="3.83085">
        <ele>87</ele>
      </trkpt>
      <trkpt lat="43.62854" lon="3.83085">
        <ele>87</ele>
      </trkpt>
      <trkpt lat="43.62852" lon="3.83086">
        <ele>87</ele>
      </trkpt>
      <trkpt lat="43.62849" lon="3.83087">
        <ele>87</ele>
      </trkpt>
      <trkpt lat="43.62847" lon="3.83088">
        <ele>87</ele>
      </trkpt>
      <trkpt lat="43.62845" lon="3.83088">
        <ele>87</ele>
      </trkpt>
      <trkpt lat="43.62843" lon="3.83089">
        <ele>87</ele>
      </trkpt>
      <trkpt lat="43.6284" lon="3.83089">
        <ele>87</ele>
      </trkpt>
      <trkpt lat="43.62837" lon="3.83089">
        <ele>87</ele>
      </trkpt>
      <trkpt lat="43.62834" lon="3.8309">
        <ele>87</ele>
      </trkpt>
      <trkpt lat="43.62832" lon="3.8309">
        <ele>87</ele>
      </trkpt>
      <trkpt lat="43.62829" lon="3.8309">
        <ele>87</ele>
      </trkpt>
      <trkpt lat="43.62826" lon="3.8309">
        <ele>87</ele>
      </trkpt>
      <trkpt lat="43.62823" lon="3.8309">
        <ele>87</ele>
      </trkpt>
      <trkpt lat="43.62821" lon="3.8309">
        <ele>87</ele>
      </trkpt>
      <trkpt lat="43.62818" lon="3.83091">
        <ele>87</ele>
      </trkpt>
      <trkpt lat="43.62816" lon="3.83091">
        <ele>87</ele>
      </trkpt>
      <trkpt lat="43.62814" lon="3.83092">
        <ele>87</ele>
      </trkpt>
      <trkpt lat="43.62811" lon="3.83093">
        <ele>87</ele>
      </trkpt>
      <trkpt lat="43.62809" lon="3.83093">
        <ele>87</ele>
      </trkpt>
      <trkpt lat="43.62806" lon="3.83095">
        <ele>87</ele>
      </trkpt>
      <trkpt lat="43.62804" lon="3.83095">
        <ele>87</ele>
      </trkpt>
      <trkpt lat="43.62801" lon="3.83096">
        <ele>87</ele>
      </trkpt>
      <trkpt lat="43.62799" lon="3.83097">
        <ele>87</ele>
      </trkpt>
      <trkpt lat="43.62797" lon="3.83098">
        <ele>87</ele>
      </trkpt>
      <trkpt lat="43.62794" lon="3.83099">
        <ele>87</ele>
      </trkpt>
      <trkpt lat="43.62792" lon="3.83099">
        <ele>88</ele>
      </trkpt>
      <trkpt lat="43.62789" lon="3.831">
        <ele>88</ele>
      </trkpt>
      <trkpt lat="43.62786" lon="3.831">
        <ele>88</ele>
      </trkpt>
      <trkpt lat="43.62784" lon="3.831">
        <ele>88</ele>
      </trkpt>
      <trkpt lat="43.62782" lon="3.831">
        <ele>88</ele>
      </trkpt>
      <trkpt lat="43.6278" lon="3.831">
        <ele>88</ele>
      </trkpt>
      <trkpt lat="43.62777" lon="3.83101">
        <ele>88</ele>
      </trkpt>
      <trkpt lat="43.62775" lon="3.83101">
        <ele>88</ele>
      </trkpt>
      <trkpt lat="43.62772" lon="3.83102">
        <ele>88</ele>
      </trkpt>
      <trkpt lat="43.6277" lon="3.83102">
        <ele>88</ele>
      </trkpt>
      <trkpt lat="43.62768" lon="3.83103">
        <ele>89</ele>
      </trkpt>
      <trkpt lat="43.62765" lon="3.83104">
        <ele>89</ele>
      </trkpt>
      <trkpt lat="43.62763" lon="3.83104">
        <ele>89</ele>
      </trkpt>
      <trkpt lat="43.6276" lon="3.83105">
        <ele>89</ele>
      </trkpt>
      <trkpt lat="43.62757" lon="3.83105">
        <ele>89</ele>
      </trkpt>
      <trkpt lat="43.62754" lon="3.83106">
        <ele>89</ele>
      </trkpt>
      <trkpt lat="43.62752" lon="3.83108">
        <ele>89</ele>
      </trkpt>
      <trkpt lat="43.62749" lon="3.83108">
        <ele>89</ele>
      </trkpt>
      <trkpt lat="43.62747" lon="3.83109">
        <ele>89</ele>
      </trkpt>
      <trkpt lat="43.62745" lon="3.83111">
        <ele>89</ele>
      </trkpt>
      <trkpt lat="43.62743" lon="3.83112">
        <ele>90</ele>
      </trkpt>
      <trkpt lat="43.6274" lon="3.83113">
        <ele>90</ele>
      </trkpt>
      <trkpt lat="43.62739" lon="3.83114">
        <ele>90</ele>
      </trkpt>
      <trkpt lat="43.62736" lon="3.83115">
        <ele>90</ele>
      </trkpt>
      <trkpt lat="43.62734" lon="3.83116">
        <ele>90</ele>
      </trkpt>
      <trkpt lat="43.62731" lon="3.83118">
        <ele>90</ele>
      </trkpt>
      <trkpt lat="43.62729" lon="3.83119">
        <ele>90</ele>
      </trkpt>
      <trkpt lat="43.62726" lon="3.83121">
        <ele>90</ele>
      </trkpt>
      <trkpt lat="43.62723" lon="3.83122">
        <ele>90</ele>
      </trkpt>
      <trkpt lat="43.62719" lon="3.83124">
        <ele>90</ele>
      </trkpt>
      <trkpt lat="43.62716" lon="3.83126">
        <ele>90</ele>
      </trkpt>
      <trkpt lat="43.62713" lon="3.83127">
        <ele>90</ele>
      </trkpt>
      <trkpt lat="43.62709" lon="3.8313">
        <ele>90</ele>
      </trkpt>
      <trkpt lat="43.62706" lon="3.83132">
        <ele>90</ele>
      </trkpt>
      <trkpt lat="43.62703" lon="3.83135">
        <ele>90</ele>
      </trkpt>
      <trkpt lat="43.62699" lon="3.83138">
        <ele>90</ele>
      </trkpt>
      <trkpt lat="43.62695" lon="3.8314">
        <ele>90</ele>
      </trkpt>
      <trkpt lat="43.62691" lon="3.83143">
        <ele>90</ele>
      </trkpt>
      <trkpt lat="43.62687" lon="3.83146">
        <ele>90</ele>
      </trkpt>
      <trkpt lat="43.62682" lon="3.83149">
        <ele>90</ele>
      </trkpt>
      <trkpt lat="43.62678" lon="3.83153">
        <ele>89</ele>
      </trkpt>
      <trkpt lat="43.62674" lon="3.83157">
        <ele>89</ele>
      </trkpt>
      <trkpt lat="43.62669" lon="3.83161">
        <ele>89</ele>
      </trkpt>
      <trkpt lat="43.62665" lon="3.83166">
        <ele>89</ele>
      </trkpt>
      <trkpt lat="43.62661" lon="3.8317">
        <ele>89</ele>
      </trkpt>
      <trkpt lat="43.62657" lon="3.83173">
        <ele>89</ele>
      </trkpt>
      <trkpt lat="43.62652" lon="3.83176">
        <ele>89</ele>
      </trkpt>
      <trkpt lat="43.62647" lon="3.83179">
        <ele>89</ele>
      </trkpt>
      <trkpt lat="43.62643" lon="3.83182">
        <ele>89</ele>
      </trkpt>
      <trkpt lat="43.62638" lon="3.83186">
        <ele>89</ele>
      </trkpt>
      <trkpt lat="43.62634" lon="3.83189">
        <ele>87</ele>
      </trkpt>
      <trkpt lat="43.62631" lon="3.83194">
        <ele>87</ele>
      </trkpt>
      <trkpt lat="43.62627" lon="3.83198">
        <ele>87</ele>
      </trkpt>
      <trkpt lat="43.62624" lon="3.83203">
        <ele>87</ele>
      </trkpt>
      <trkpt lat="43.6262" lon="3.83207">
        <ele>87</ele>
      </trkpt>
      <trkpt lat="43.62617" lon="3.83213">
        <ele>87</ele>
      </trkpt>
      <trkpt lat="43.62615" lon="3.83219">
        <ele>87</ele>
      </trkpt>
      <trkpt lat="43.62612" lon="3.83224">
        <ele>87</ele>
      </trkpt>
      <trkpt lat="43.62608" lon="3.83227">
        <ele>87</ele>
      </trkpt>
      <trkpt lat="43.62604" lon="3.83231">
        <ele>87</ele>
      </trkpt>
      <trkpt lat="43.62599" lon="3.83234">
        <ele>86</ele>
      </trkpt>
      <trkpt lat="43.62595" lon="3.83237">
        <ele>86</ele>
      </trkpt>
      <trkpt lat="43.62591" lon="3.83241">
        <ele>86</ele>
      </trkpt>
      <trkpt lat="43.62586" lon="3.83245">
        <ele>86</ele>
      </trkpt>
      <trkpt lat="43.62583" lon="3.8325">
        <ele>86</ele>
      </trkpt>
      <trkpt lat="43.6258" lon="3.83256">
        <ele>86</ele>
      </trkpt>
      <trkpt lat="43.62578" lon="3.83263">
        <ele>86</ele>
      </trkpt>
      <trkpt lat="43.62576" lon="3.83269">
        <ele>86</ele>
      </trkpt>
      <trkpt lat="43.62572" lon="3.83274">
        <ele>86</ele>
      </trkpt>
      <trkpt lat="43.62569" lon="3.83278">
        <ele>86</ele>
      </trkpt>
      <trkpt lat="43.62564" lon="3.83281">
        <ele>86</ele>
      </trkpt>
      <trkpt lat="43.62559" lon="3.83283">
        <ele>86</ele>
      </trkpt>
      <trkpt lat="43.62555" lon="3.83286">
        <ele>86</ele>
      </trkpt>
      <trkpt lat="43.62551" lon="3.8329">
        <ele>86</ele>
      </trkpt>
      <trkpt lat="43.62549" lon="3.83295">
        <ele>86</ele>
      </trkpt>
      <trkpt lat="43.62547" lon="3.83301">
        <ele>86</ele>
      </trkpt>
      <trkpt lat="43.62546" lon="3.83306">
        <ele>86</ele>
      </trkpt>
      <trkpt lat="43.62545" lon="3.83312">
        <ele>86</ele>
      </trkpt>
      <trkpt lat="43.62543" lon="3.83318">
        <ele>86</ele>
      </trkpt>
      <trkpt lat="43.62542" lon="3.83323">
        <ele>86</ele>
      </trkpt>
      <trkpt lat="43.62541" lon="3.83329">
        <ele>86</ele>
      </trkpt>
      <trkpt lat="43.6254" lon="3.83335">
        <ele>86</ele>
      </trkpt>
      <trkpt lat="43.62538" lon="3.83341">
        <ele>86</ele>
      </trkpt>
      <trkpt lat="43.62536" lon="3.83347">
        <ele>86</ele>
      </trkpt>
      <trkpt lat="43.62534" lon="3.83353">
        <ele>86</ele>
      </trkpt>
      <trkpt lat="43.62532" lon="3.83359">
        <ele>86</ele>
      </trkpt>
      <trkpt lat="43.6253" lon="3.83365">
        <ele>86</ele>
      </trkpt>
      <trkpt lat="43.62528" lon="3.83371">
        <ele>86</ele>
      </trkpt>
      <trkpt lat="43.62527" lon="3.83378">
        <ele>86</ele>
      </trkpt>
      <trkpt lat="43.62525" lon="3.83385">
        <ele>86</ele>
      </trkpt>
      <trkpt lat="43.62523" lon="3.83392">
        <ele>84</ele>
      </trkpt>
      <trkpt lat="43.6252" lon="3.83398">
        <ele>84</ele>
      </trkpt>
      <trkpt lat="43.62518" lon="3.83404">
        <ele>84</ele>
      </trkpt>
      <trkpt lat="43.62517" lon="3.83409">
        <ele>84</ele>
      </trkpt>
      <trkpt lat="43.62516" lon="3.83412">
        <ele>84</ele>
      </trkpt>
      <trkpt lat="43.62515" lon="3.83415">
        <ele>84</ele>
      </trkpt>
      <trkpt lat="43.62515" lon="3.83414">
        <ele>83</ele>
      </trkpt>
    </trkseg>
  </trk>
</gpx>